<?xml version="1.0" encoding="UTF-8" standalone="no" ?>
<gpx xmlns="http://www.topografix.com/GPX/1/1" xmlns:xsi="http://www.w3.org/2001/XMLSchema-instance" xsi:schemaLocation="http://www.topografix.com/GPX/1/1 http://www.topografix.com/GPX/1/1/gpx.xsd" version="1.1" creator="VisuGPX - https://www.visugpx.com">
  <metadata>
    <name>2017-08-23 Bike ride VTT-Amberieux-Les Cheres O Quincieux O Saone O</name>
    <desc><![CDATA[2017-08-23 Bike ride VTT-Amberieux-Les Cheres O Quincieux O Saone O]]></desc>
  </metadata>
  <wpt lat="45.92467" lon="4.73709">
    <ele>174</ele>
    <name><![CDATA[(Start)]]></name>
  </wpt>
  <wpt lat="45.92461" lon="4.73714">
    <ele>174</ele>
    <name><![CDATA[(End)]]></name>
    <desc><![CDATA[Created by Google My Tracks on Android  Name:   Activity type: biking Description: - Total distance: 34.31 km (21.3 mi) Total time: 2:28:30 Moving time: 2:11:56 Average speed: 13.86 km/h (8.6 mi/h) Average moving speed: 15.60 km/h (9.7 mi/h) Max speed: 33.20 km/h (20.6 mi/h) Average pace: 4:20 min/km (6:58 min/mi) Average moving pace: 3:51 min/km (6:11 min/mi) Fastest pace: 1:48 min/km (2:54 min/mi) Max elevation: 205 m (674 ft) Min elevation: 161 m (527 ft) Elevation gain: 529 m (1735 ft) Max grade: 13 % Min grade: -9 % Recorded: 23/08/2017 10:19]]></desc>
  </wpt>
  <trk>
    <name><![CDATA[2017-08-23 Bike ride VTT-Amberieux-Les Cheres O Quincieux O Saone O_1]]></name>
    <trkseg>
      <trkpt lat="45.92467" lon="4.73709">
        <ele>174</ele>
        <time>2017-08-23T08:19:45.318Z</time>
      </trkpt>
      <trkpt lat="45.92463" lon="4.73713">
        <ele>174</ele>
        <time>2017-08-23T08:21:51Z</time>
      </trkpt>
      <trkpt lat="45.92463" lon="4.73712">
        <ele>174</ele>
        <time>2017-08-23T08:21:52Z</time>
      </trkpt>
      <trkpt lat="45.9246" lon="4.73701">
        <ele>174</ele>
        <time>2017-08-23T08:22:12Z</time>
      </trkpt>
      <trkpt lat="45.9246" lon="4.73699">
        <ele>174</ele>
        <time>2017-08-23T08:22:13Z</time>
      </trkpt>
      <trkpt lat="45.92464" lon="4.7369">
        <ele>174</ele>
        <time>2017-08-23T08:22:17Z</time>
      </trkpt>
      <trkpt lat="45.92465" lon="4.73687">
        <ele>174</ele>
        <time>2017-08-23T08:22:18Z</time>
      </trkpt>
      <trkpt lat="45.92465" lon="4.73678">
        <ele>174</ele>
        <time>2017-08-23T08:22:20Z</time>
      </trkpt>
      <trkpt lat="45.92466" lon="4.73674">
        <ele>174</ele>
        <time>2017-08-23T08:22:21Z</time>
      </trkpt>
      <trkpt lat="45.92467" lon="4.73665">
        <ele>174</ele>
        <time>2017-08-23T08:22:23Z</time>
      </trkpt>
      <trkpt lat="45.92467" lon="4.73659">
        <ele>174</ele>
        <time>2017-08-23T08:22:24Z</time>
      </trkpt>
      <trkpt lat="45.92469" lon="4.73651">
        <ele>174</ele>
        <time>2017-08-23T08:22:26Z</time>
      </trkpt>
      <trkpt lat="45.92471" lon="4.73647">
        <ele>174</ele>
        <time>2017-08-23T08:22:27Z</time>
      </trkpt>
      <trkpt lat="45.92477" lon="4.73644">
        <ele>174</ele>
        <time>2017-08-23T08:22:29Z</time>
      </trkpt>
      <trkpt lat="45.9248" lon="4.73643">
        <ele>174</ele>
        <time>2017-08-23T08:22:30Z</time>
      </trkpt>
      <trkpt lat="45.92487" lon="4.73642">
        <ele>174</ele>
        <time>2017-08-23T08:22:32Z</time>
      </trkpt>
      <trkpt lat="45.9249" lon="4.73643">
        <ele>174</ele>
        <time>2017-08-23T08:22:33Z</time>
      </trkpt>
      <trkpt lat="45.92496" lon="4.73642">
        <ele>174</ele>
        <time>2017-08-23T08:22:35Z</time>
      </trkpt>
      <trkpt lat="45.92499" lon="4.73641">
        <ele>174</ele>
        <time>2017-08-23T08:22:36Z</time>
      </trkpt>
      <trkpt lat="45.92505" lon="4.7364">
        <ele>174</ele>
        <time>2017-08-23T08:22:38Z</time>
      </trkpt>
      <trkpt lat="45.92509" lon="4.7364">
        <ele>174</ele>
        <time>2017-08-23T08:22:39Z</time>
      </trkpt>
      <trkpt lat="45.92517" lon="4.7364">
        <ele>173</ele>
        <time>2017-08-23T08:22:41Z</time>
      </trkpt>
      <trkpt lat="45.92521" lon="4.7364">
        <ele>173</ele>
        <time>2017-08-23T08:22:42Z</time>
      </trkpt>
      <trkpt lat="45.92529" lon="4.73641">
        <ele>173</ele>
        <time>2017-08-23T08:22:44Z</time>
      </trkpt>
      <trkpt lat="45.92534" lon="4.73641">
        <ele>173</ele>
        <time>2017-08-23T08:22:45Z</time>
      </trkpt>
      <trkpt lat="45.92539" lon="4.7364">
        <ele>173</ele>
        <time>2017-08-23T08:22:46Z</time>
      </trkpt>
      <trkpt lat="45.92544" lon="4.73638">
        <ele>173</ele>
        <time>2017-08-23T08:22:47Z</time>
      </trkpt>
      <trkpt lat="45.92552" lon="4.73637">
        <ele>173</ele>
        <time>2017-08-23T08:22:49Z</time>
      </trkpt>
      <trkpt lat="45.92557" lon="4.73636">
        <ele>173</ele>
        <time>2017-08-23T08:22:50Z</time>
      </trkpt>
      <trkpt lat="45.92566" lon="4.73634">
        <ele>173</ele>
        <time>2017-08-23T08:22:52Z</time>
      </trkpt>
      <trkpt lat="45.92569" lon="4.73633">
        <ele>173</ele>
        <time>2017-08-23T08:22:53Z</time>
      </trkpt>
      <trkpt lat="45.92577" lon="4.7363">
        <ele>173</ele>
        <time>2017-08-23T08:22:55Z</time>
      </trkpt>
      <trkpt lat="45.92581" lon="4.73629">
        <ele>173</ele>
        <time>2017-08-23T08:22:56Z</time>
      </trkpt>
      <trkpt lat="45.92585" lon="4.73629">
        <ele>172</ele>
        <time>2017-08-23T08:22:57Z</time>
      </trkpt>
      <trkpt lat="45.9259" lon="4.73629">
        <ele>172</ele>
        <time>2017-08-23T08:22:58Z</time>
      </trkpt>
      <trkpt lat="45.92598" lon="4.73628">
        <ele>172</ele>
        <time>2017-08-23T08:23:00Z</time>
      </trkpt>
      <trkpt lat="45.92602" lon="4.73628">
        <ele>173</ele>
        <time>2017-08-23T08:23:01Z</time>
      </trkpt>
      <trkpt lat="45.9261" lon="4.73631">
        <ele>173</ele>
        <time>2017-08-23T08:23:03Z</time>
      </trkpt>
      <trkpt lat="45.92614" lon="4.73634">
        <ele>173</ele>
        <time>2017-08-23T08:23:04Z</time>
      </trkpt>
      <trkpt lat="45.92619" lon="4.73643">
        <ele>173</ele>
        <time>2017-08-23T08:23:06Z</time>
      </trkpt>
      <trkpt lat="45.92622" lon="4.73649">
        <ele>173</ele>
        <time>2017-08-23T08:23:07Z</time>
      </trkpt>
      <trkpt lat="45.92624" lon="4.73655">
        <ele>173</ele>
        <time>2017-08-23T08:23:08Z</time>
      </trkpt>
      <trkpt lat="45.92627" lon="4.7366">
        <ele>173</ele>
        <time>2017-08-23T08:23:09Z</time>
      </trkpt>
      <trkpt lat="45.9263" lon="4.73666">
        <ele>173</ele>
        <time>2017-08-23T08:23:10Z</time>
      </trkpt>
      <trkpt lat="45.92633" lon="4.73671">
        <ele>173</ele>
        <time>2017-08-23T08:23:11Z</time>
      </trkpt>
      <trkpt lat="45.92638" lon="4.73679">
        <ele>173</ele>
        <time>2017-08-23T08:23:13Z</time>
      </trkpt>
      <trkpt lat="45.92641" lon="4.73683">
        <ele>173</ele>
        <time>2017-08-23T08:23:14Z</time>
      </trkpt>
      <trkpt lat="45.92645" lon="4.73687">
        <ele>173</ele>
        <time>2017-08-23T08:23:15Z</time>
      </trkpt>
      <trkpt lat="45.92648" lon="4.73691">
        <ele>173</ele>
        <time>2017-08-23T08:23:16Z</time>
      </trkpt>
      <trkpt lat="45.92652" lon="4.73694">
        <ele>173</ele>
        <time>2017-08-23T08:23:17Z</time>
      </trkpt>
      <trkpt lat="45.92657" lon="4.73698">
        <ele>173</ele>
        <time>2017-08-23T08:23:18Z</time>
      </trkpt>
      <trkpt lat="45.92661" lon="4.73701">
        <ele>173</ele>
        <time>2017-08-23T08:23:19Z</time>
      </trkpt>
      <trkpt lat="45.92666" lon="4.73703">
        <ele>173</ele>
        <time>2017-08-23T08:23:20Z</time>
      </trkpt>
      <trkpt lat="45.92671" lon="4.73705">
        <ele>174</ele>
        <time>2017-08-23T08:23:21Z</time>
      </trkpt>
      <trkpt lat="45.92676" lon="4.73707">
        <ele>173</ele>
        <time>2017-08-23T08:23:22Z</time>
      </trkpt>
      <trkpt lat="45.92681" lon="4.73709">
        <ele>173</ele>
        <time>2017-08-23T08:23:23Z</time>
      </trkpt>
      <trkpt lat="45.92686" lon="4.7371">
        <ele>173</ele>
        <time>2017-08-23T08:23:24Z</time>
      </trkpt>
      <trkpt lat="45.92691" lon="4.7371">
        <ele>173</ele>
        <time>2017-08-23T08:23:25Z</time>
      </trkpt>
      <trkpt lat="45.92696" lon="4.73711">
        <ele>173</ele>
        <time>2017-08-23T08:23:26Z</time>
      </trkpt>
      <trkpt lat="45.92701" lon="4.73713">
        <ele>173</ele>
        <time>2017-08-23T08:23:27Z</time>
      </trkpt>
      <trkpt lat="45.92706" lon="4.73714">
        <ele>173</ele>
        <time>2017-08-23T08:23:28Z</time>
      </trkpt>
      <trkpt lat="45.92712" lon="4.73715">
        <ele>173</ele>
        <time>2017-08-23T08:23:29Z</time>
      </trkpt>
      <trkpt lat="45.92717" lon="4.73716">
        <ele>173</ele>
        <time>2017-08-23T08:23:30Z</time>
      </trkpt>
      <trkpt lat="45.92723" lon="4.73717">
        <ele>173</ele>
        <time>2017-08-23T08:23:31Z</time>
      </trkpt>
      <trkpt lat="45.92729" lon="4.73719">
        <ele>173</ele>
        <time>2017-08-23T08:23:32Z</time>
      </trkpt>
      <trkpt lat="45.92734" lon="4.73721">
        <ele>173</ele>
        <time>2017-08-23T08:23:33Z</time>
      </trkpt>
      <trkpt lat="45.92739" lon="4.73722">
        <ele>173</ele>
        <time>2017-08-23T08:23:34Z</time>
      </trkpt>
      <trkpt lat="45.92744" lon="4.73724">
        <ele>173</ele>
        <time>2017-08-23T08:23:35Z</time>
      </trkpt>
      <trkpt lat="45.92748" lon="4.73725">
        <ele>173</ele>
        <time>2017-08-23T08:23:36Z</time>
      </trkpt>
      <trkpt lat="45.92756" lon="4.73729">
        <ele>172</ele>
        <time>2017-08-23T08:23:38Z</time>
      </trkpt>
      <trkpt lat="45.92759" lon="4.7373">
        <ele>172</ele>
        <time>2017-08-23T08:23:39Z</time>
      </trkpt>
      <trkpt lat="45.92767" lon="4.73732">
        <ele>172</ele>
        <time>2017-08-23T08:23:41Z</time>
      </trkpt>
      <trkpt lat="45.92771" lon="4.73733">
        <ele>172</ele>
        <time>2017-08-23T08:23:42Z</time>
      </trkpt>
      <trkpt lat="45.92779" lon="4.73736">
        <ele>172</ele>
        <time>2017-08-23T08:23:44Z</time>
      </trkpt>
      <trkpt lat="45.92779" lon="4.73742">
        <ele>172</ele>
        <time>2017-08-23T08:23:45Z</time>
      </trkpt>
      <trkpt lat="45.92782" lon="4.73754">
        <ele>173</ele>
        <time>2017-08-23T08:23:47Z</time>
      </trkpt>
      <trkpt lat="45.92785" lon="4.73758">
        <ele>173</ele>
        <time>2017-08-23T08:23:48Z</time>
      </trkpt>
      <trkpt lat="45.92789" lon="4.73761">
        <ele>173</ele>
        <time>2017-08-23T08:23:49Z</time>
      </trkpt>
      <trkpt lat="45.92794" lon="4.73763">
        <ele>173</ele>
        <time>2017-08-23T08:23:50Z</time>
      </trkpt>
      <trkpt lat="45.92799" lon="4.73766">
        <ele>173</ele>
        <time>2017-08-23T08:23:51Z</time>
      </trkpt>
      <trkpt lat="45.92803" lon="4.73768">
        <ele>173</ele>
        <time>2017-08-23T08:23:52Z</time>
      </trkpt>
      <trkpt lat="45.92808" lon="4.73771">
        <ele>173</ele>
        <time>2017-08-23T08:23:53Z</time>
      </trkpt>
      <trkpt lat="45.92812" lon="4.73774">
        <ele>173</ele>
        <time>2017-08-23T08:23:54Z</time>
      </trkpt>
      <trkpt lat="45.92817" lon="4.73777">
        <ele>173</ele>
        <time>2017-08-23T08:23:55Z</time>
      </trkpt>
      <trkpt lat="45.92822" lon="4.7378">
        <ele>173</ele>
        <time>2017-08-23T08:23:56Z</time>
      </trkpt>
      <trkpt lat="45.92827" lon="4.73783">
        <ele>173</ele>
        <time>2017-08-23T08:23:57Z</time>
      </trkpt>
      <trkpt lat="45.92832" lon="4.73786">
        <ele>173</ele>
        <time>2017-08-23T08:23:58Z</time>
      </trkpt>
      <trkpt lat="45.92837" lon="4.73789">
        <ele>173</ele>
        <time>2017-08-23T08:23:59Z</time>
      </trkpt>
      <trkpt lat="45.92842" lon="4.73793">
        <ele>173</ele>
        <time>2017-08-23T08:24:00Z</time>
      </trkpt>
      <trkpt lat="45.92847" lon="4.73798">
        <ele>173</ele>
        <time>2017-08-23T08:24:01Z</time>
      </trkpt>
      <trkpt lat="45.92852" lon="4.73801">
        <ele>173</ele>
        <time>2017-08-23T08:24:02Z</time>
      </trkpt>
      <trkpt lat="45.92855" lon="4.73808">
        <ele>173</ele>
        <time>2017-08-23T08:24:03Z</time>
      </trkpt>
      <trkpt lat="45.92857" lon="4.73814">
        <ele>173</ele>
        <time>2017-08-23T08:24:04Z</time>
      </trkpt>
      <trkpt lat="45.92859" lon="4.73821">
        <ele>173</ele>
        <time>2017-08-23T08:24:05Z</time>
      </trkpt>
      <trkpt lat="45.9286" lon="4.73828">
        <ele>173</ele>
        <time>2017-08-23T08:24:06Z</time>
      </trkpt>
      <trkpt lat="45.92862" lon="4.73834">
        <ele>173</ele>
        <time>2017-08-23T08:24:07Z</time>
      </trkpt>
      <trkpt lat="45.92863" lon="4.73841">
        <ele>173</ele>
        <time>2017-08-23T08:24:08Z</time>
      </trkpt>
      <trkpt lat="45.92865" lon="4.73848">
        <ele>173</ele>
        <time>2017-08-23T08:24:09Z</time>
      </trkpt>
      <trkpt lat="45.92868" lon="4.73855">
        <ele>173</ele>
        <time>2017-08-23T08:24:10Z</time>
      </trkpt>
      <trkpt lat="45.9287" lon="4.73861">
        <ele>173</ele>
        <time>2017-08-23T08:24:11Z</time>
      </trkpt>
      <trkpt lat="45.92874" lon="4.7387">
        <ele>173</ele>
        <time>2017-08-23T08:24:12Z</time>
      </trkpt>
      <trkpt lat="45.92876" lon="4.73876">
        <ele>173</ele>
        <time>2017-08-23T08:24:13Z</time>
      </trkpt>
      <trkpt lat="45.92876" lon="4.73887">
        <ele>173</ele>
        <time>2017-08-23T08:24:14Z</time>
      </trkpt>
      <trkpt lat="45.92876" lon="4.73896">
        <ele>173</ele>
        <time>2017-08-23T08:24:15Z</time>
      </trkpt>
      <trkpt lat="45.92877" lon="4.73903">
        <ele>173</ele>
        <time>2017-08-23T08:24:16Z</time>
      </trkpt>
      <trkpt lat="45.92877" lon="4.73911">
        <ele>173</ele>
        <time>2017-08-23T08:24:17Z</time>
      </trkpt>
      <trkpt lat="45.92877" lon="4.73919">
        <ele>172</ele>
        <time>2017-08-23T08:24:18Z</time>
      </trkpt>
      <trkpt lat="45.92877" lon="4.73926">
        <ele>172</ele>
        <time>2017-08-23T08:24:19Z</time>
      </trkpt>
      <trkpt lat="45.92877" lon="4.73934">
        <ele>172</ele>
        <time>2017-08-23T08:24:20Z</time>
      </trkpt>
      <trkpt lat="45.92877" lon="4.73941">
        <ele>172</ele>
        <time>2017-08-23T08:24:21Z</time>
      </trkpt>
      <trkpt lat="45.92878" lon="4.73948">
        <ele>172</ele>
        <time>2017-08-23T08:24:22Z</time>
      </trkpt>
      <trkpt lat="45.92878" lon="4.73955">
        <ele>172</ele>
        <time>2017-08-23T08:24:23Z</time>
      </trkpt>
      <trkpt lat="45.92878" lon="4.73962">
        <ele>172</ele>
        <time>2017-08-23T08:24:24Z</time>
      </trkpt>
      <trkpt lat="45.92878" lon="4.73969">
        <ele>172</ele>
        <time>2017-08-23T08:24:25Z</time>
      </trkpt>
      <trkpt lat="45.92878" lon="4.73976">
        <ele>172</ele>
        <time>2017-08-23T08:24:26Z</time>
      </trkpt>
      <trkpt lat="45.92877" lon="4.73982">
        <ele>172</ele>
        <time>2017-08-23T08:24:27Z</time>
      </trkpt>
      <trkpt lat="45.92875" lon="4.73989">
        <ele>172</ele>
        <time>2017-08-23T08:24:28Z</time>
      </trkpt>
      <trkpt lat="45.92873" lon="4.73996">
        <ele>173</ele>
        <time>2017-08-23T08:24:29Z</time>
      </trkpt>
      <trkpt lat="45.92872" lon="4.74003">
        <ele>172</ele>
        <time>2017-08-23T08:24:30Z</time>
      </trkpt>
      <trkpt lat="45.9287" lon="4.7401">
        <ele>172</ele>
        <time>2017-08-23T08:24:31Z</time>
      </trkpt>
      <trkpt lat="45.9287" lon="4.74018">
        <ele>172</ele>
        <time>2017-08-23T08:24:32Z</time>
      </trkpt>
      <trkpt lat="45.92871" lon="4.74025">
        <ele>172</ele>
        <time>2017-08-23T08:24:33Z</time>
      </trkpt>
      <trkpt lat="45.92872" lon="4.74032">
        <ele>172</ele>
        <time>2017-08-23T08:24:34Z</time>
      </trkpt>
      <trkpt lat="45.92876" lon="4.74038">
        <ele>172</ele>
        <time>2017-08-23T08:24:35Z</time>
      </trkpt>
      <trkpt lat="45.92879" lon="4.74042">
        <ele>172</ele>
        <time>2017-08-23T08:24:36Z</time>
      </trkpt>
      <trkpt lat="45.92883" lon="4.74046">
        <ele>172</ele>
        <time>2017-08-23T08:24:37Z</time>
      </trkpt>
      <trkpt lat="45.92888" lon="4.74049">
        <ele>172</ele>
        <time>2017-08-23T08:24:38Z</time>
      </trkpt>
      <trkpt lat="45.92895" lon="4.74053">
        <ele>172</ele>
        <time>2017-08-23T08:24:40Z</time>
      </trkpt>
      <trkpt lat="45.92899" lon="4.74055">
        <ele>172</ele>
        <time>2017-08-23T08:24:41Z</time>
      </trkpt>
      <trkpt lat="45.92905" lon="4.74062">
        <ele>172</ele>
        <time>2017-08-23T08:24:43Z</time>
      </trkpt>
      <trkpt lat="45.92907" lon="4.74068">
        <ele>173</ele>
        <time>2017-08-23T08:24:44Z</time>
      </trkpt>
      <trkpt lat="45.9291" lon="4.7408">
        <ele>173</ele>
        <time>2017-08-23T08:24:46Z</time>
      </trkpt>
      <trkpt lat="45.92908" lon="4.74085">
        <ele>173</ele>
        <time>2017-08-23T08:24:47Z</time>
      </trkpt>
      <trkpt lat="45.92903" lon="4.74094">
        <ele>172</ele>
        <time>2017-08-23T08:24:49Z</time>
      </trkpt>
      <trkpt lat="45.929" lon="4.74098">
        <ele>172</ele>
        <time>2017-08-23T08:24:50Z</time>
      </trkpt>
      <trkpt lat="45.92894" lon="4.74106">
        <ele>172</ele>
        <time>2017-08-23T08:24:52Z</time>
      </trkpt>
      <trkpt lat="45.92891" lon="4.74109">
        <ele>172</ele>
        <time>2017-08-23T08:24:53Z</time>
      </trkpt>
      <trkpt lat="45.92885" lon="4.74116">
        <ele>172</ele>
        <time>2017-08-23T08:24:55Z</time>
      </trkpt>
      <trkpt lat="45.92883" lon="4.74119">
        <ele>172</ele>
        <time>2017-08-23T08:24:56Z</time>
      </trkpt>
      <trkpt lat="45.92878" lon="4.74128">
        <ele>172</ele>
        <time>2017-08-23T08:24:58Z</time>
      </trkpt>
      <trkpt lat="45.92877" lon="4.74133">
        <ele>172</ele>
        <time>2017-08-23T08:24:59Z</time>
      </trkpt>
      <trkpt lat="45.92876" lon="4.74144">
        <ele>172</ele>
        <time>2017-08-23T08:25:01Z</time>
      </trkpt>
      <trkpt lat="45.92877" lon="4.7415">
        <ele>172</ele>
        <time>2017-08-23T08:25:02Z</time>
      </trkpt>
      <trkpt lat="45.9288" lon="4.74161">
        <ele>172</ele>
        <time>2017-08-23T08:25:04Z</time>
      </trkpt>
      <trkpt lat="45.92883" lon="4.74165">
        <ele>172</ele>
        <time>2017-08-23T08:25:05Z</time>
      </trkpt>
      <trkpt lat="45.9289" lon="4.74172">
        <ele>171</ele>
        <time>2017-08-23T08:25:07Z</time>
      </trkpt>
      <trkpt lat="45.92894" lon="4.74175">
        <ele>171</ele>
        <time>2017-08-23T08:25:08Z</time>
      </trkpt>
      <trkpt lat="45.92898" lon="4.74178">
        <ele>171</ele>
        <time>2017-08-23T08:25:09Z</time>
      </trkpt>
      <trkpt lat="45.92902" lon="4.7418">
        <ele>172</ele>
        <time>2017-08-23T08:25:10Z</time>
      </trkpt>
      <trkpt lat="45.9291" lon="4.74185">
        <ele>172</ele>
        <time>2017-08-23T08:25:12Z</time>
      </trkpt>
      <trkpt lat="45.92913" lon="4.74187">
        <ele>171</ele>
        <time>2017-08-23T08:25:13Z</time>
      </trkpt>
      <trkpt lat="45.9292" lon="4.74191">
        <ele>171</ele>
        <time>2017-08-23T08:25:15Z</time>
      </trkpt>
      <trkpt lat="45.92923" lon="4.74193">
        <ele>171</ele>
        <time>2017-08-23T08:25:16Z</time>
      </trkpt>
      <trkpt lat="45.92929" lon="4.74197">
        <ele>170</ele>
        <time>2017-08-23T08:25:18Z</time>
      </trkpt>
      <trkpt lat="45.92932" lon="4.74199">
        <ele>170</ele>
        <time>2017-08-23T08:25:19Z</time>
      </trkpt>
      <trkpt lat="45.92939" lon="4.74204">
        <ele>170</ele>
        <time>2017-08-23T08:25:21Z</time>
      </trkpt>
      <trkpt lat="45.92943" lon="4.74206">
        <ele>170</ele>
        <time>2017-08-23T08:25:22Z</time>
      </trkpt>
      <trkpt lat="45.92951" lon="4.74208">
        <ele>170</ele>
        <time>2017-08-23T08:25:24Z</time>
      </trkpt>
      <trkpt lat="45.92956" lon="4.74208">
        <ele>170</ele>
        <time>2017-08-23T08:25:25Z</time>
      </trkpt>
      <trkpt lat="45.9296" lon="4.74206">
        <ele>170</ele>
        <time>2017-08-23T08:25:26Z</time>
      </trkpt>
      <trkpt lat="45.92964" lon="4.74203">
        <ele>170</ele>
        <time>2017-08-23T08:25:27Z</time>
      </trkpt>
      <trkpt lat="45.9297" lon="4.74194">
        <ele>170</ele>
        <time>2017-08-23T08:25:29Z</time>
      </trkpt>
      <trkpt lat="45.92973" lon="4.74188">
        <ele>170</ele>
        <time>2017-08-23T08:25:30Z</time>
      </trkpt>
      <trkpt lat="45.92975" lon="4.74181">
        <ele>170</ele>
        <time>2017-08-23T08:25:31Z</time>
      </trkpt>
      <trkpt lat="45.92977" lon="4.74174">
        <ele>170</ele>
        <time>2017-08-23T08:25:32Z</time>
      </trkpt>
      <trkpt lat="45.9298" lon="4.74166">
        <ele>170</ele>
        <time>2017-08-23T08:25:33Z</time>
      </trkpt>
      <trkpt lat="45.92982" lon="4.74158">
        <ele>170</ele>
        <time>2017-08-23T08:25:34Z</time>
      </trkpt>
      <trkpt lat="45.92985" lon="4.74149">
        <ele>170</ele>
        <time>2017-08-23T08:25:35Z</time>
      </trkpt>
      <trkpt lat="45.92988" lon="4.7414">
        <ele>171</ele>
        <time>2017-08-23T08:25:36Z</time>
      </trkpt>
      <trkpt lat="45.9299" lon="4.7413">
        <ele>171</ele>
        <time>2017-08-23T08:25:37Z</time>
      </trkpt>
      <trkpt lat="45.92992" lon="4.74118">
        <ele>171</ele>
        <time>2017-08-23T08:25:38Z</time>
      </trkpt>
      <trkpt lat="45.92994" lon="4.74107">
        <ele>171</ele>
        <time>2017-08-23T08:25:39Z</time>
      </trkpt>
      <trkpt lat="45.92995" lon="4.74095">
        <ele>171</ele>
        <time>2017-08-23T08:25:40Z</time>
      </trkpt>
      <trkpt lat="45.92995" lon="4.74083">
        <ele>171</ele>
        <time>2017-08-23T08:25:41Z</time>
      </trkpt>
      <trkpt lat="45.92995" lon="4.74072">
        <ele>171</ele>
        <time>2017-08-23T08:25:42Z</time>
      </trkpt>
      <trkpt lat="45.92995" lon="4.7406">
        <ele>171</ele>
        <time>2017-08-23T08:25:43Z</time>
      </trkpt>
      <trkpt lat="45.92995" lon="4.74049">
        <ele>171</ele>
        <time>2017-08-23T08:25:44Z</time>
      </trkpt>
      <trkpt lat="45.92996" lon="4.74037">
        <ele>171</ele>
        <time>2017-08-23T08:25:45Z</time>
      </trkpt>
      <trkpt lat="45.92998" lon="4.74026">
        <ele>171</ele>
        <time>2017-08-23T08:25:46Z</time>
      </trkpt>
      <trkpt lat="45.93001" lon="4.74017">
        <ele>170</ele>
        <time>2017-08-23T08:25:47Z</time>
      </trkpt>
      <trkpt lat="45.93007" lon="4.74009">
        <ele>170</ele>
        <time>2017-08-23T08:25:48Z</time>
      </trkpt>
      <trkpt lat="45.93012" lon="4.74004">
        <ele>170</ele>
        <time>2017-08-23T08:25:49Z</time>
      </trkpt>
      <trkpt lat="45.93018" lon="4.74001">
        <ele>170</ele>
        <time>2017-08-23T08:25:50Z</time>
      </trkpt>
      <trkpt lat="45.93024" lon="4.74001">
        <ele>170</ele>
        <time>2017-08-23T08:25:51Z</time>
      </trkpt>
      <trkpt lat="45.9303" lon="4.74003">
        <ele>170</ele>
        <time>2017-08-23T08:25:52Z</time>
      </trkpt>
      <trkpt lat="45.93036" lon="4.74006">
        <ele>169</ele>
        <time>2017-08-23T08:25:53Z</time>
      </trkpt>
      <trkpt lat="45.93041" lon="4.74009">
        <ele>169</ele>
        <time>2017-08-23T08:25:54Z</time>
      </trkpt>
      <trkpt lat="45.93047" lon="4.74011">
        <ele>169</ele>
        <time>2017-08-23T08:25:55Z</time>
      </trkpt>
      <trkpt lat="45.93052" lon="4.74012">
        <ele>169</ele>
        <time>2017-08-23T08:25:56Z</time>
      </trkpt>
      <trkpt lat="45.93057" lon="4.74014">
        <ele>169</ele>
        <time>2017-08-23T08:25:57Z</time>
      </trkpt>
      <trkpt lat="45.93062" lon="4.74015">
        <ele>169</ele>
        <time>2017-08-23T08:25:58Z</time>
      </trkpt>
      <trkpt lat="45.93066" lon="4.74017">
        <ele>169</ele>
        <time>2017-08-23T08:25:59Z</time>
      </trkpt>
      <trkpt lat="45.93071" lon="4.74018">
        <ele>169</ele>
        <time>2017-08-23T08:26:00Z</time>
      </trkpt>
      <trkpt lat="45.93076" lon="4.74019">
        <ele>169</ele>
        <time>2017-08-23T08:26:01Z</time>
      </trkpt>
      <trkpt lat="45.93082" lon="4.74019">
        <ele>169</ele>
        <time>2017-08-23T08:26:02Z</time>
      </trkpt>
      <trkpt lat="45.93087" lon="4.7402">
        <ele>168</ele>
        <time>2017-08-23T08:26:03Z</time>
      </trkpt>
      <trkpt lat="45.93093" lon="4.7402">
        <ele>168</ele>
        <time>2017-08-23T08:26:04Z</time>
      </trkpt>
      <trkpt lat="45.93098" lon="4.7402">
        <ele>168</ele>
        <time>2017-08-23T08:26:05Z</time>
      </trkpt>
      <trkpt lat="45.93103" lon="4.74021">
        <ele>168</ele>
        <time>2017-08-23T08:26:06Z</time>
      </trkpt>
      <trkpt lat="45.93109" lon="4.74022">
        <ele>168</ele>
        <time>2017-08-23T08:26:07Z</time>
      </trkpt>
      <trkpt lat="45.93114" lon="4.74023">
        <ele>168</ele>
        <time>2017-08-23T08:26:08Z</time>
      </trkpt>
      <trkpt lat="45.9312" lon="4.74024">
        <ele>168</ele>
        <time>2017-08-23T08:26:09Z</time>
      </trkpt>
      <trkpt lat="45.93124" lon="4.74026">
        <ele>168</ele>
        <time>2017-08-23T08:26:10Z</time>
      </trkpt>
      <trkpt lat="45.93129" lon="4.74028">
        <ele>168</ele>
        <time>2017-08-23T08:26:11Z</time>
      </trkpt>
      <trkpt lat="45.93134" lon="4.74031">
        <ele>168</ele>
        <time>2017-08-23T08:26:12Z</time>
      </trkpt>
      <trkpt lat="45.93139" lon="4.74034">
        <ele>168</ele>
        <time>2017-08-23T08:26:13Z</time>
      </trkpt>
      <trkpt lat="45.93144" lon="4.74038">
        <ele>168</ele>
        <time>2017-08-23T08:26:14Z</time>
      </trkpt>
      <trkpt lat="45.93149" lon="4.74042">
        <ele>168</ele>
        <time>2017-08-23T08:26:15Z</time>
      </trkpt>
      <trkpt lat="45.93154" lon="4.74046">
        <ele>168</ele>
        <time>2017-08-23T08:26:16Z</time>
      </trkpt>
      <trkpt lat="45.93158" lon="4.74051">
        <ele>168</ele>
        <time>2017-08-23T08:26:17Z</time>
      </trkpt>
      <trkpt lat="45.93163" lon="4.74056">
        <ele>168</ele>
        <time>2017-08-23T08:26:18Z</time>
      </trkpt>
      <trkpt lat="45.93167" lon="4.7406">
        <ele>168</ele>
        <time>2017-08-23T08:26:19Z</time>
      </trkpt>
      <trkpt lat="45.93172" lon="4.74064">
        <ele>168</ele>
        <time>2017-08-23T08:26:20Z</time>
      </trkpt>
      <trkpt lat="45.93176" lon="4.74068">
        <ele>168</ele>
        <time>2017-08-23T08:26:21Z</time>
      </trkpt>
      <trkpt lat="45.93181" lon="4.74073">
        <ele>168</ele>
        <time>2017-08-23T08:26:22Z</time>
      </trkpt>
      <trkpt lat="45.93185" lon="4.74076">
        <ele>168</ele>
        <time>2017-08-23T08:26:23Z</time>
      </trkpt>
      <trkpt lat="45.93189" lon="4.7408">
        <ele>168</ele>
        <time>2017-08-23T08:26:24Z</time>
      </trkpt>
      <trkpt lat="45.93193" lon="4.74084">
        <ele>167</ele>
        <time>2017-08-23T08:26:25Z</time>
      </trkpt>
      <trkpt lat="45.93198" lon="4.74088">
        <ele>167</ele>
        <time>2017-08-23T08:26:26Z</time>
      </trkpt>
      <trkpt lat="45.93202" lon="4.74092">
        <ele>167</ele>
        <time>2017-08-23T08:26:27Z</time>
      </trkpt>
      <trkpt lat="45.93206" lon="4.74096">
        <ele>167</ele>
        <time>2017-08-23T08:26:28Z</time>
      </trkpt>
      <trkpt lat="45.93211" lon="4.74099">
        <ele>167</ele>
        <time>2017-08-23T08:26:29Z</time>
      </trkpt>
      <trkpt lat="45.93215" lon="4.74103">
        <ele>167</ele>
        <time>2017-08-23T08:26:30Z</time>
      </trkpt>
      <trkpt lat="45.93219" lon="4.74106">
        <ele>167</ele>
        <time>2017-08-23T08:26:31Z</time>
      </trkpt>
      <trkpt lat="45.93223" lon="4.74108">
        <ele>167</ele>
        <time>2017-08-23T08:26:32Z</time>
      </trkpt>
      <trkpt lat="45.93231" lon="4.74111">
        <ele>167</ele>
        <time>2017-08-23T08:26:34Z</time>
      </trkpt>
      <trkpt lat="45.93235" lon="4.7411">
        <ele>167</ele>
        <time>2017-08-23T08:26:35Z</time>
      </trkpt>
      <trkpt lat="45.93242" lon="4.74105">
        <ele>167</ele>
        <time>2017-08-23T08:26:37Z</time>
      </trkpt>
      <trkpt lat="45.93246" lon="4.74101">
        <ele>167</ele>
        <time>2017-08-23T08:26:38Z</time>
      </trkpt>
      <trkpt lat="45.93251" lon="4.74092">
        <ele>167</ele>
        <time>2017-08-23T08:26:40Z</time>
      </trkpt>
      <trkpt lat="45.93253" lon="4.74088">
        <ele>167</ele>
        <time>2017-08-23T08:26:41Z</time>
      </trkpt>
      <trkpt lat="45.93256" lon="4.74083">
        <ele>167</ele>
        <time>2017-08-23T08:26:42Z</time>
      </trkpt>
      <trkpt lat="45.93259" lon="4.74077">
        <ele>167</ele>
        <time>2017-08-23T08:26:43Z</time>
      </trkpt>
      <trkpt lat="45.93262" lon="4.74071">
        <ele>167</ele>
        <time>2017-08-23T08:26:44Z</time>
      </trkpt>
      <trkpt lat="45.93264" lon="4.74065">
        <ele>167</ele>
        <time>2017-08-23T08:26:45Z</time>
      </trkpt>
      <trkpt lat="45.93267" lon="4.74059">
        <ele>168</ele>
        <time>2017-08-23T08:26:46Z</time>
      </trkpt>
      <trkpt lat="45.9327" lon="4.74052">
        <ele>168</ele>
        <time>2017-08-23T08:26:47Z</time>
      </trkpt>
      <trkpt lat="45.93274" lon="4.74046">
        <ele>168</ele>
        <time>2017-08-23T08:26:48Z</time>
      </trkpt>
      <trkpt lat="45.93277" lon="4.74039">
        <ele>168</ele>
        <time>2017-08-23T08:26:49Z</time>
      </trkpt>
      <trkpt lat="45.9328" lon="4.74034">
        <ele>168</ele>
        <time>2017-08-23T08:26:50Z</time>
      </trkpt>
      <trkpt lat="45.93284" lon="4.74029">
        <ele>168</ele>
        <time>2017-08-23T08:26:51Z</time>
      </trkpt>
      <trkpt lat="45.93287" lon="4.74023">
        <ele>168</ele>
        <time>2017-08-23T08:26:52Z</time>
      </trkpt>
      <trkpt lat="45.93289" lon="4.74018">
        <ele>168</ele>
        <time>2017-08-23T08:26:53Z</time>
      </trkpt>
      <trkpt lat="45.93295" lon="4.74008">
        <ele>168</ele>
        <time>2017-08-23T08:26:55Z</time>
      </trkpt>
      <trkpt lat="45.93298" lon="4.74003">
        <ele>168</ele>
        <time>2017-08-23T08:26:56Z</time>
      </trkpt>
      <trkpt lat="45.93301" lon="4.73996">
        <ele>168</ele>
        <time>2017-08-23T08:26:57Z</time>
      </trkpt>
      <trkpt lat="45.93303" lon="4.7399">
        <ele>168</ele>
        <time>2017-08-23T08:26:58Z</time>
      </trkpt>
      <trkpt lat="45.93307" lon="4.73984">
        <ele>168</ele>
        <time>2017-08-23T08:26:59Z</time>
      </trkpt>
      <trkpt lat="45.93309" lon="4.73978">
        <ele>168</ele>
        <time>2017-08-23T08:27:00Z</time>
      </trkpt>
      <trkpt lat="45.93312" lon="4.73972">
        <ele>168</ele>
        <time>2017-08-23T08:27:01Z</time>
      </trkpt>
      <trkpt lat="45.93315" lon="4.73966">
        <ele>168</ele>
        <time>2017-08-23T08:27:02Z</time>
      </trkpt>
      <trkpt lat="45.93319" lon="4.7396">
        <ele>168</ele>
        <time>2017-08-23T08:27:03Z</time>
      </trkpt>
      <trkpt lat="45.93322" lon="4.73954">
        <ele>168</ele>
        <time>2017-08-23T08:27:04Z</time>
      </trkpt>
      <trkpt lat="45.93325" lon="4.73948">
        <ele>168</ele>
        <time>2017-08-23T08:27:05Z</time>
      </trkpt>
      <trkpt lat="45.93328" lon="4.73942">
        <ele>168</ele>
        <time>2017-08-23T08:27:06Z</time>
      </trkpt>
      <trkpt lat="45.93332" lon="4.73936">
        <ele>168</ele>
        <time>2017-08-23T08:27:07Z</time>
      </trkpt>
      <trkpt lat="45.93335" lon="4.7393">
        <ele>168</ele>
        <time>2017-08-23T08:27:08Z</time>
      </trkpt>
      <trkpt lat="45.93338" lon="4.73925">
        <ele>168</ele>
        <time>2017-08-23T08:27:09Z</time>
      </trkpt>
      <trkpt lat="45.93341" lon="4.7392">
        <ele>168</ele>
        <time>2017-08-23T08:27:10Z</time>
      </trkpt>
      <trkpt lat="45.93346" lon="4.7391">
        <ele>168</ele>
        <time>2017-08-23T08:27:12Z</time>
      </trkpt>
      <trkpt lat="45.93349" lon="4.73906">
        <ele>168</ele>
        <time>2017-08-23T08:27:13Z</time>
      </trkpt>
      <trkpt lat="45.93355" lon="4.73896">
        <ele>168</ele>
        <time>2017-08-23T08:27:15Z</time>
      </trkpt>
      <trkpt lat="45.93359" lon="4.73892">
        <ele>168</ele>
        <time>2017-08-23T08:27:16Z</time>
      </trkpt>
      <trkpt lat="45.93362" lon="4.73887">
        <ele>168</ele>
        <time>2017-08-23T08:27:17Z</time>
      </trkpt>
      <trkpt lat="45.93367" lon="4.73883">
        <ele>168</ele>
        <time>2017-08-23T08:27:18Z</time>
      </trkpt>
      <trkpt lat="45.93371" lon="4.73879">
        <ele>168</ele>
        <time>2017-08-23T08:27:19Z</time>
      </trkpt>
      <trkpt lat="45.93375" lon="4.73874">
        <ele>169</ele>
        <time>2017-08-23T08:27:20Z</time>
      </trkpt>
      <trkpt lat="45.93379" lon="4.73871">
        <ele>169</ele>
        <time>2017-08-23T08:27:21Z</time>
      </trkpt>
      <trkpt lat="45.93383" lon="4.73867">
        <ele>169</ele>
        <time>2017-08-23T08:27:22Z</time>
      </trkpt>
      <trkpt lat="45.9339" lon="4.73862">
        <ele>169</ele>
        <time>2017-08-23T08:27:24Z</time>
      </trkpt>
      <trkpt lat="45.93394" lon="4.7386">
        <ele>169</ele>
        <time>2017-08-23T08:27:25Z</time>
      </trkpt>
      <trkpt lat="45.93401" lon="4.73854">
        <ele>169</ele>
        <time>2017-08-23T08:27:27Z</time>
      </trkpt>
      <trkpt lat="45.93406" lon="4.7385">
        <ele>169</ele>
        <time>2017-08-23T08:27:28Z</time>
      </trkpt>
      <trkpt lat="45.9341" lon="4.73847">
        <ele>169</ele>
        <time>2017-08-23T08:27:29Z</time>
      </trkpt>
      <trkpt lat="45.93415" lon="4.73844">
        <ele>169</ele>
        <time>2017-08-23T08:27:30Z</time>
      </trkpt>
      <trkpt lat="45.93419" lon="4.73842">
        <ele>169</ele>
        <time>2017-08-23T08:27:31Z</time>
      </trkpt>
      <trkpt lat="45.93424" lon="4.73839">
        <ele>169</ele>
        <time>2017-08-23T08:27:32Z</time>
      </trkpt>
      <trkpt lat="45.93428" lon="4.73836">
        <ele>169</ele>
        <time>2017-08-23T08:27:33Z</time>
      </trkpt>
      <trkpt lat="45.93432" lon="4.73834">
        <ele>169</ele>
        <time>2017-08-23T08:27:34Z</time>
      </trkpt>
      <trkpt lat="45.9344" lon="4.73829">
        <ele>169</ele>
        <time>2017-08-23T08:27:36Z</time>
      </trkpt>
      <trkpt lat="45.93443" lon="4.73827">
        <ele>169</ele>
        <time>2017-08-23T08:27:37Z</time>
      </trkpt>
      <trkpt lat="45.93451" lon="4.73822">
        <ele>169</ele>
        <time>2017-08-23T08:27:39Z</time>
      </trkpt>
      <trkpt lat="45.93456" lon="4.7382">
        <ele>169</ele>
        <time>2017-08-23T08:27:40Z</time>
      </trkpt>
      <trkpt lat="45.9346" lon="4.73817">
        <ele>169</ele>
        <time>2017-08-23T08:27:41Z</time>
      </trkpt>
      <trkpt lat="45.93464" lon="4.73815">
        <ele>169</ele>
        <time>2017-08-23T08:27:42Z</time>
      </trkpt>
      <trkpt lat="45.93472" lon="4.73811">
        <ele>169</ele>
        <time>2017-08-23T08:27:44Z</time>
      </trkpt>
      <trkpt lat="45.93476" lon="4.7381">
        <ele>169</ele>
        <time>2017-08-23T08:27:45Z</time>
      </trkpt>
      <trkpt lat="45.93483" lon="4.73806">
        <ele>169</ele>
        <time>2017-08-23T08:27:47Z</time>
      </trkpt>
      <trkpt lat="45.93487" lon="4.73804">
        <ele>169</ele>
        <time>2017-08-23T08:27:48Z</time>
      </trkpt>
      <trkpt lat="45.93495" lon="4.738">
        <ele>169</ele>
        <time>2017-08-23T08:27:50Z</time>
      </trkpt>
      <trkpt lat="45.935" lon="4.73799">
        <ele>169</ele>
        <time>2017-08-23T08:27:51Z</time>
      </trkpt>
      <trkpt lat="45.93504" lon="4.73797">
        <ele>169</ele>
        <time>2017-08-23T08:27:52Z</time>
      </trkpt>
      <trkpt lat="45.93508" lon="4.73793">
        <ele>169</ele>
        <time>2017-08-23T08:27:53Z</time>
      </trkpt>
      <trkpt lat="45.93512" lon="4.73789">
        <ele>169</ele>
        <time>2017-08-23T08:27:54Z</time>
      </trkpt>
      <trkpt lat="45.93516" lon="4.73786">
        <ele>169</ele>
        <time>2017-08-23T08:27:55Z</time>
      </trkpt>
      <trkpt lat="45.93523" lon="4.73779">
        <ele>169</ele>
        <time>2017-08-23T08:27:57Z</time>
      </trkpt>
      <trkpt lat="45.93527" lon="4.73775">
        <ele>169</ele>
        <time>2017-08-23T08:27:58Z</time>
      </trkpt>
      <trkpt lat="45.93532" lon="4.7377">
        <ele>169</ele>
        <time>2017-08-23T08:28:00Z</time>
      </trkpt>
      <trkpt lat="45.93535" lon="4.73766">
        <ele>169</ele>
        <time>2017-08-23T08:28:01Z</time>
      </trkpt>
      <trkpt lat="45.93541" lon="4.7376">
        <ele>169</ele>
        <time>2017-08-23T08:28:03Z</time>
      </trkpt>
      <trkpt lat="45.93544" lon="4.73757">
        <ele>169</ele>
        <time>2017-08-23T08:28:04Z</time>
      </trkpt>
      <trkpt lat="45.93548" lon="4.73753">
        <ele>169</ele>
        <time>2017-08-23T08:28:05Z</time>
      </trkpt>
      <trkpt lat="45.93552" lon="4.73748">
        <ele>169</ele>
        <time>2017-08-23T08:28:06Z</time>
      </trkpt>
      <trkpt lat="45.93556" lon="4.73744">
        <ele>169</ele>
        <time>2017-08-23T08:28:07Z</time>
      </trkpt>
      <trkpt lat="45.9356" lon="4.73739">
        <ele>169</ele>
        <time>2017-08-23T08:28:08Z</time>
      </trkpt>
      <trkpt lat="45.93564" lon="4.73735">
        <ele>169</ele>
        <time>2017-08-23T08:28:09Z</time>
      </trkpt>
      <trkpt lat="45.93568" lon="4.7373">
        <ele>169</ele>
        <time>2017-08-23T08:28:10Z</time>
      </trkpt>
      <trkpt lat="45.93573" lon="4.73726">
        <ele>169</ele>
        <time>2017-08-23T08:28:11Z</time>
      </trkpt>
      <trkpt lat="45.93577" lon="4.73721">
        <ele>169</ele>
        <time>2017-08-23T08:28:12Z</time>
      </trkpt>
      <trkpt lat="45.93581" lon="4.73716">
        <ele>169</ele>
        <time>2017-08-23T08:28:13Z</time>
      </trkpt>
      <trkpt lat="45.93584" lon="4.73712">
        <ele>169</ele>
        <time>2017-08-23T08:28:14Z</time>
      </trkpt>
      <trkpt lat="45.93588" lon="4.73702">
        <ele>169</ele>
        <time>2017-08-23T08:28:16Z</time>
      </trkpt>
      <trkpt lat="45.93589" lon="4.73698">
        <ele>169</ele>
        <time>2017-08-23T08:28:17Z</time>
      </trkpt>
      <trkpt lat="45.9359" lon="4.73687">
        <ele>169</ele>
        <time>2017-08-23T08:28:19Z</time>
      </trkpt>
      <trkpt lat="45.93589" lon="4.73681">
        <ele>169</ele>
        <time>2017-08-23T08:28:20Z</time>
      </trkpt>
      <trkpt lat="45.93588" lon="4.73674">
        <ele>168</ele>
        <time>2017-08-23T08:28:21Z</time>
      </trkpt>
      <trkpt lat="45.93587" lon="4.73666">
        <ele>168</ele>
        <time>2017-08-23T08:28:22Z</time>
      </trkpt>
      <trkpt lat="45.93587" lon="4.73659">
        <ele>168</ele>
        <time>2017-08-23T08:28:23Z</time>
      </trkpt>
      <trkpt lat="45.93586" lon="4.73652">
        <ele>168</ele>
        <time>2017-08-23T08:28:24Z</time>
      </trkpt>
      <trkpt lat="45.93585" lon="4.7364">
        <ele>168</ele>
        <time>2017-08-23T08:28:26Z</time>
      </trkpt>
      <trkpt lat="45.93585" lon="4.73633">
        <ele>168</ele>
        <time>2017-08-23T08:28:27Z</time>
      </trkpt>
      <trkpt lat="45.93584" lon="4.73621">
        <ele>168</ele>
        <time>2017-08-23T08:28:29Z</time>
      </trkpt>
      <trkpt lat="45.93584" lon="4.73616">
        <ele>168</ele>
        <time>2017-08-23T08:28:30Z</time>
      </trkpt>
      <trkpt lat="45.93583" lon="4.7361">
        <ele>168</ele>
        <time>2017-08-23T08:28:31Z</time>
      </trkpt>
      <trkpt lat="45.93583" lon="4.73603">
        <ele>168</ele>
        <time>2017-08-23T08:28:32Z</time>
      </trkpt>
      <trkpt lat="45.93582" lon="4.73596">
        <ele>168</ele>
        <time>2017-08-23T08:28:33Z</time>
      </trkpt>
      <trkpt lat="45.93581" lon="4.73589">
        <ele>168</ele>
        <time>2017-08-23T08:28:34Z</time>
      </trkpt>
      <trkpt lat="45.9358" lon="4.73581">
        <ele>168</ele>
        <time>2017-08-23T08:28:35Z</time>
      </trkpt>
      <trkpt lat="45.93579" lon="4.73573">
        <ele>168</ele>
        <time>2017-08-23T08:28:36Z</time>
      </trkpt>
      <trkpt lat="45.93578" lon="4.73565">
        <ele>168</ele>
        <time>2017-08-23T08:28:37Z</time>
      </trkpt>
      <trkpt lat="45.93577" lon="4.73559">
        <ele>168</ele>
        <time>2017-08-23T08:28:38Z</time>
      </trkpt>
      <trkpt lat="45.93576" lon="4.73552">
        <ele>168</ele>
        <time>2017-08-23T08:28:39Z</time>
      </trkpt>
      <trkpt lat="45.93575" lon="4.73545">
        <ele>168</ele>
        <time>2017-08-23T08:28:40Z</time>
      </trkpt>
      <trkpt lat="45.93571" lon="4.73533">
        <ele>169</ele>
        <time>2017-08-23T08:28:42Z</time>
      </trkpt>
      <trkpt lat="45.93569" lon="4.73528">
        <ele>169</ele>
        <time>2017-08-23T08:28:43Z</time>
      </trkpt>
      <trkpt lat="45.93567" lon="4.73516">
        <ele>168</ele>
        <time>2017-08-23T08:28:45Z</time>
      </trkpt>
      <trkpt lat="45.93565" lon="4.73509">
        <ele>168</ele>
        <time>2017-08-23T08:28:46Z</time>
      </trkpt>
      <trkpt lat="45.93563" lon="4.73501">
        <ele>168</ele>
        <time>2017-08-23T08:28:47Z</time>
      </trkpt>
      <trkpt lat="45.93561" lon="4.73494">
        <ele>169</ele>
        <time>2017-08-23T08:28:48Z</time>
      </trkpt>
      <trkpt lat="45.93559" lon="4.73488">
        <ele>169</ele>
        <time>2017-08-23T08:28:49Z</time>
      </trkpt>
      <trkpt lat="45.93557" lon="4.73481">
        <ele>169</ele>
        <time>2017-08-23T08:28:50Z</time>
      </trkpt>
      <trkpt lat="45.93556" lon="4.73475">
        <ele>169</ele>
        <time>2017-08-23T08:28:51Z</time>
      </trkpt>
      <trkpt lat="45.93553" lon="4.73469">
        <ele>169</ele>
        <time>2017-08-23T08:28:52Z</time>
      </trkpt>
      <trkpt lat="45.9355" lon="4.73459">
        <ele>169</ele>
        <time>2017-08-23T08:28:54Z</time>
      </trkpt>
      <trkpt lat="45.93548" lon="4.73453">
        <ele>169</ele>
        <time>2017-08-23T08:28:55Z</time>
      </trkpt>
      <trkpt lat="45.93546" lon="4.73447">
        <ele>169</ele>
        <time>2017-08-23T08:28:56Z</time>
      </trkpt>
      <trkpt lat="45.93544" lon="4.7344">
        <ele>169</ele>
        <time>2017-08-23T08:28:57Z</time>
      </trkpt>
      <trkpt lat="45.93542" lon="4.73433">
        <ele>169</ele>
        <time>2017-08-23T08:28:58Z</time>
      </trkpt>
      <trkpt lat="45.93541" lon="4.73426">
        <ele>169</ele>
        <time>2017-08-23T08:28:59Z</time>
      </trkpt>
      <trkpt lat="45.9354" lon="4.73419">
        <ele>169</ele>
        <time>2017-08-23T08:29:00Z</time>
      </trkpt>
      <trkpt lat="45.93539" lon="4.73412">
        <ele>169</ele>
        <time>2017-08-23T08:29:01Z</time>
      </trkpt>
      <trkpt lat="45.93538" lon="4.73399">
        <ele>169</ele>
        <time>2017-08-23T08:29:03Z</time>
      </trkpt>
      <trkpt lat="45.93537" lon="4.73393">
        <ele>169</ele>
        <time>2017-08-23T08:29:04Z</time>
      </trkpt>
      <trkpt lat="45.93535" lon="4.73382">
        <ele>169</ele>
        <time>2017-08-23T08:29:06Z</time>
      </trkpt>
      <trkpt lat="45.93534" lon="4.73376">
        <ele>169</ele>
        <time>2017-08-23T08:29:07Z</time>
      </trkpt>
      <trkpt lat="45.93533" lon="4.73369">
        <ele>169</ele>
        <time>2017-08-23T08:29:08Z</time>
      </trkpt>
      <trkpt lat="45.93532" lon="4.73363">
        <ele>169</ele>
        <time>2017-08-23T08:29:09Z</time>
      </trkpt>
      <trkpt lat="45.93531" lon="4.73356">
        <ele>169</ele>
        <time>2017-08-23T08:29:10Z</time>
      </trkpt>
      <trkpt lat="45.93529" lon="4.73349">
        <ele>169</ele>
        <time>2017-08-23T08:29:11Z</time>
      </trkpt>
      <trkpt lat="45.93528" lon="4.73341">
        <ele>169</ele>
        <time>2017-08-23T08:29:12Z</time>
      </trkpt>
      <trkpt lat="45.93527" lon="4.73334">
        <ele>169</ele>
        <time>2017-08-23T08:29:13Z</time>
      </trkpt>
      <trkpt lat="45.93526" lon="4.73327">
        <ele>169</ele>
        <time>2017-08-23T08:29:14Z</time>
      </trkpt>
      <trkpt lat="45.93525" lon="4.73321">
        <ele>169</ele>
        <time>2017-08-23T08:29:15Z</time>
      </trkpt>
      <trkpt lat="45.93523" lon="4.73314">
        <ele>169</ele>
        <time>2017-08-23T08:29:16Z</time>
      </trkpt>
      <trkpt lat="45.93523" lon="4.73307">
        <ele>169</ele>
        <time>2017-08-23T08:29:17Z</time>
      </trkpt>
      <trkpt lat="45.93522" lon="4.73301">
        <ele>169</ele>
        <time>2017-08-23T08:29:18Z</time>
      </trkpt>
      <trkpt lat="45.93521" lon="4.73295">
        <ele>169</ele>
        <time>2017-08-23T08:29:19Z</time>
      </trkpt>
      <trkpt lat="45.93518" lon="4.73282">
        <ele>169</ele>
        <time>2017-08-23T08:29:21Z</time>
      </trkpt>
      <trkpt lat="45.93518" lon="4.73277">
        <ele>169</ele>
        <time>2017-08-23T08:29:22Z</time>
      </trkpt>
      <trkpt lat="45.93516" lon="4.73266">
        <ele>169</ele>
        <time>2017-08-23T08:29:24Z</time>
      </trkpt>
      <trkpt lat="45.93515" lon="4.7326">
        <ele>169</ele>
        <time>2017-08-23T08:29:25Z</time>
      </trkpt>
      <trkpt lat="45.93514" lon="4.73253">
        <ele>169</ele>
        <time>2017-08-23T08:29:26Z</time>
      </trkpt>
      <trkpt lat="45.93513" lon="4.73246">
        <ele>169</ele>
        <time>2017-08-23T08:29:27Z</time>
      </trkpt>
      <trkpt lat="45.93511" lon="4.73239">
        <ele>169</ele>
        <time>2017-08-23T08:29:28Z</time>
      </trkpt>
      <trkpt lat="45.9351" lon="4.73232">
        <ele>169</ele>
        <time>2017-08-23T08:29:29Z</time>
      </trkpt>
      <trkpt lat="45.93508" lon="4.73225">
        <ele>169</ele>
        <time>2017-08-23T08:29:30Z</time>
      </trkpt>
      <trkpt lat="45.93507" lon="4.73218">
        <ele>169</ele>
        <time>2017-08-23T08:29:31Z</time>
      </trkpt>
      <trkpt lat="45.93505" lon="4.73212">
        <ele>169</ele>
        <time>2017-08-23T08:29:32Z</time>
      </trkpt>
      <trkpt lat="45.93504" lon="4.73205">
        <ele>169</ele>
        <time>2017-08-23T08:29:33Z</time>
      </trkpt>
      <trkpt lat="45.93501" lon="4.73194">
        <ele>169</ele>
        <time>2017-08-23T08:29:35Z</time>
      </trkpt>
      <trkpt lat="45.93499" lon="4.73189">
        <ele>169</ele>
        <time>2017-08-23T08:29:36Z</time>
      </trkpt>
      <trkpt lat="45.93496" lon="4.73179">
        <ele>169</ele>
        <time>2017-08-23T08:29:38Z</time>
      </trkpt>
      <trkpt lat="45.93495" lon="4.73175">
        <ele>170</ele>
        <time>2017-08-23T08:29:39Z</time>
      </trkpt>
      <trkpt lat="45.93492" lon="4.73165">
        <ele>170</ele>
        <time>2017-08-23T08:29:41Z</time>
      </trkpt>
      <trkpt lat="45.9349" lon="4.73159">
        <ele>170</ele>
        <time>2017-08-23T08:29:42Z</time>
      </trkpt>
      <trkpt lat="45.93488" lon="4.73153">
        <ele>170</ele>
        <time>2017-08-23T08:29:43Z</time>
      </trkpt>
      <trkpt lat="45.93487" lon="4.73145">
        <ele>170</ele>
        <time>2017-08-23T08:29:44Z</time>
      </trkpt>
      <trkpt lat="45.93487" lon="4.73138">
        <ele>170</ele>
        <time>2017-08-23T08:29:45Z</time>
      </trkpt>
      <trkpt lat="45.93486" lon="4.7313">
        <ele>170</ele>
        <time>2017-08-23T08:29:46Z</time>
      </trkpt>
      <trkpt lat="45.93486" lon="4.73123">
        <ele>170</ele>
        <time>2017-08-23T08:29:47Z</time>
      </trkpt>
      <trkpt lat="45.93486" lon="4.73116">
        <ele>170</ele>
        <time>2017-08-23T08:29:48Z</time>
      </trkpt>
      <trkpt lat="45.93484" lon="4.73104">
        <ele>170</ele>
        <time>2017-08-23T08:29:50Z</time>
      </trkpt>
      <trkpt lat="45.93485" lon="4.73098">
        <ele>170</ele>
        <time>2017-08-23T08:29:51Z</time>
      </trkpt>
      <trkpt lat="45.93486" lon="4.73085">
        <ele>170</ele>
        <time>2017-08-23T08:29:53Z</time>
      </trkpt>
      <trkpt lat="45.93486" lon="4.73079">
        <ele>170</ele>
        <time>2017-08-23T08:29:54Z</time>
      </trkpt>
      <trkpt lat="45.93486" lon="4.73071">
        <ele>170</ele>
        <time>2017-08-23T08:29:55Z</time>
      </trkpt>
      <trkpt lat="45.93486" lon="4.73064">
        <ele>170</ele>
        <time>2017-08-23T08:29:56Z</time>
      </trkpt>
      <trkpt lat="45.93486" lon="4.73056">
        <ele>170</ele>
        <time>2017-08-23T08:29:57Z</time>
      </trkpt>
      <trkpt lat="45.93486" lon="4.73048">
        <ele>170</ele>
        <time>2017-08-23T08:29:58Z</time>
      </trkpt>
      <trkpt lat="45.93487" lon="4.7304">
        <ele>170</ele>
        <time>2017-08-23T08:29:59Z</time>
      </trkpt>
      <trkpt lat="45.93487" lon="4.73033">
        <ele>170</ele>
        <time>2017-08-23T08:30:00Z</time>
      </trkpt>
      <trkpt lat="45.93487" lon="4.73025">
        <ele>170</ele>
        <time>2017-08-23T08:30:01Z</time>
      </trkpt>
      <trkpt lat="45.93488" lon="4.73018">
        <ele>170</ele>
        <time>2017-08-23T08:30:02Z</time>
      </trkpt>
      <trkpt lat="45.93488" lon="4.73012">
        <ele>170</ele>
        <time>2017-08-23T08:30:03Z</time>
      </trkpt>
      <trkpt lat="45.93489" lon="4.73006">
        <ele>170</ele>
        <time>2017-08-23T08:30:04Z</time>
      </trkpt>
      <trkpt lat="45.93491" lon="4.72993">
        <ele>170</ele>
        <time>2017-08-23T08:30:06Z</time>
      </trkpt>
      <trkpt lat="45.93491" lon="4.72987">
        <ele>170</ele>
        <time>2017-08-23T08:30:07Z</time>
      </trkpt>
      <trkpt lat="45.93492" lon="4.7298">
        <ele>171</ele>
        <time>2017-08-23T08:30:08Z</time>
      </trkpt>
      <trkpt lat="45.93493" lon="4.72973">
        <ele>171</ele>
        <time>2017-08-23T08:30:09Z</time>
      </trkpt>
      <trkpt lat="45.93495" lon="4.72966">
        <ele>171</ele>
        <time>2017-08-23T08:30:10Z</time>
      </trkpt>
      <trkpt lat="45.93497" lon="4.72959">
        <ele>171</ele>
        <time>2017-08-23T08:30:11Z</time>
      </trkpt>
      <trkpt lat="45.935" lon="4.72948">
        <ele>171</ele>
        <time>2017-08-23T08:30:13Z</time>
      </trkpt>
      <trkpt lat="45.93501" lon="4.72943">
        <ele>171</ele>
        <time>2017-08-23T08:30:14Z</time>
      </trkpt>
      <trkpt lat="45.93503" lon="4.72931">
        <ele>171</ele>
        <time>2017-08-23T08:30:16Z</time>
      </trkpt>
      <trkpt lat="45.93505" lon="4.72925">
        <ele>171</ele>
        <time>2017-08-23T08:30:17Z</time>
      </trkpt>
      <trkpt lat="45.93511" lon="4.72916">
        <ele>172</ele>
        <time>2017-08-23T08:30:19Z</time>
      </trkpt>
      <trkpt lat="45.93514" lon="4.72911">
        <ele>172</ele>
        <time>2017-08-23T08:30:20Z</time>
      </trkpt>
      <trkpt lat="45.93518" lon="4.72907">
        <ele>172</ele>
        <time>2017-08-23T08:30:21Z</time>
      </trkpt>
      <trkpt lat="45.93523" lon="4.72903">
        <ele>172</ele>
        <time>2017-08-23T08:30:22Z</time>
      </trkpt>
      <trkpt lat="45.93527" lon="4.72898">
        <ele>172</ele>
        <time>2017-08-23T08:30:23Z</time>
      </trkpt>
      <trkpt lat="45.93532" lon="4.72892">
        <ele>172</ele>
        <time>2017-08-23T08:30:24Z</time>
      </trkpt>
      <trkpt lat="45.93536" lon="4.72887">
        <ele>172</ele>
        <time>2017-08-23T08:30:25Z</time>
      </trkpt>
      <trkpt lat="45.9354" lon="4.72882">
        <ele>172</ele>
        <time>2017-08-23T08:30:26Z</time>
      </trkpt>
      <trkpt lat="45.93544" lon="4.72878">
        <ele>172</ele>
        <time>2017-08-23T08:30:27Z</time>
      </trkpt>
      <trkpt lat="45.93547" lon="4.72874">
        <ele>172</ele>
        <time>2017-08-23T08:30:28Z</time>
      </trkpt>
      <trkpt lat="45.93554" lon="4.72867">
        <ele>172</ele>
        <time>2017-08-23T08:30:30Z</time>
      </trkpt>
      <trkpt lat="45.93558" lon="4.72863">
        <ele>172</ele>
        <time>2017-08-23T08:30:31Z</time>
      </trkpt>
      <trkpt lat="45.93562" lon="4.7286">
        <ele>172</ele>
        <time>2017-08-23T08:30:32Z</time>
      </trkpt>
      <trkpt lat="45.93566" lon="4.72856">
        <ele>172</ele>
        <time>2017-08-23T08:30:33Z</time>
      </trkpt>
      <trkpt lat="45.9357" lon="4.72852">
        <ele>172</ele>
        <time>2017-08-23T08:30:34Z</time>
      </trkpt>
      <trkpt lat="45.93575" lon="4.72848">
        <ele>172</ele>
        <time>2017-08-23T08:30:35Z</time>
      </trkpt>
      <trkpt lat="45.93579" lon="4.72845">
        <ele>172</ele>
        <time>2017-08-23T08:30:36Z</time>
      </trkpt>
      <trkpt lat="45.93583" lon="4.72842">
        <ele>172</ele>
        <time>2017-08-23T08:30:37Z</time>
      </trkpt>
      <trkpt lat="45.93587" lon="4.72838">
        <ele>172</ele>
        <time>2017-08-23T08:30:38Z</time>
      </trkpt>
      <trkpt lat="45.93591" lon="4.72834">
        <ele>172</ele>
        <time>2017-08-23T08:30:39Z</time>
      </trkpt>
      <trkpt lat="45.93595" lon="4.72831">
        <ele>173</ele>
        <time>2017-08-23T08:30:40Z</time>
      </trkpt>
      <trkpt lat="45.936" lon="4.72827">
        <ele>173</ele>
        <time>2017-08-23T08:30:41Z</time>
      </trkpt>
      <trkpt lat="45.93605" lon="4.72823">
        <ele>173</ele>
        <time>2017-08-23T08:30:42Z</time>
      </trkpt>
      <trkpt lat="45.93609" lon="4.72819">
        <ele>173</ele>
        <time>2017-08-23T08:30:43Z</time>
      </trkpt>
      <trkpt lat="45.93614" lon="4.72816">
        <ele>173</ele>
        <time>2017-08-23T08:30:44Z</time>
      </trkpt>
      <trkpt lat="45.93618" lon="4.72813">
        <ele>173</ele>
        <time>2017-08-23T08:30:45Z</time>
      </trkpt>
      <trkpt lat="45.93625" lon="4.72808">
        <ele>173</ele>
        <time>2017-08-23T08:30:47Z</time>
      </trkpt>
      <trkpt lat="45.93628" lon="4.72806">
        <ele>173</ele>
        <time>2017-08-23T08:30:48Z</time>
      </trkpt>
      <trkpt lat="45.93635" lon="4.728">
        <ele>173</ele>
        <time>2017-08-23T08:30:50Z</time>
      </trkpt>
      <trkpt lat="45.93639" lon="4.72797">
        <ele>173</ele>
        <time>2017-08-23T08:30:51Z</time>
      </trkpt>
      <trkpt lat="45.93643" lon="4.72794">
        <ele>173</ele>
        <time>2017-08-23T08:30:52Z</time>
      </trkpt>
      <trkpt lat="45.93648" lon="4.72791">
        <ele>173</ele>
        <time>2017-08-23T08:30:53Z</time>
      </trkpt>
      <trkpt lat="45.93652" lon="4.72787">
        <ele>173</ele>
        <time>2017-08-23T08:30:54Z</time>
      </trkpt>
      <trkpt lat="45.93657" lon="4.72783">
        <ele>173</ele>
        <time>2017-08-23T08:30:55Z</time>
      </trkpt>
      <trkpt lat="45.93661" lon="4.72779">
        <ele>174</ele>
        <time>2017-08-23T08:30:56Z</time>
      </trkpt>
      <trkpt lat="45.93665" lon="4.72776">
        <ele>174</ele>
        <time>2017-08-23T08:30:57Z</time>
      </trkpt>
      <trkpt lat="45.93673" lon="4.7277">
        <ele>173</ele>
        <time>2017-08-23T08:30:59Z</time>
      </trkpt>
      <trkpt lat="45.93677" lon="4.72767">
        <ele>173</ele>
        <time>2017-08-23T08:31:00Z</time>
      </trkpt>
      <trkpt lat="45.93681" lon="4.72763">
        <ele>173</ele>
        <time>2017-08-23T08:31:01Z</time>
      </trkpt>
      <trkpt lat="45.93685" lon="4.7276">
        <ele>173</ele>
        <time>2017-08-23T08:31:02Z</time>
      </trkpt>
      <trkpt lat="45.93689" lon="4.72756">
        <ele>172</ele>
        <time>2017-08-23T08:31:03Z</time>
      </trkpt>
      <trkpt lat="45.93694" lon="4.72753">
        <ele>172</ele>
        <time>2017-08-23T08:31:04Z</time>
      </trkpt>
      <trkpt lat="45.93699" lon="4.72749">
        <ele>173</ele>
        <time>2017-08-23T08:31:05Z</time>
      </trkpt>
      <trkpt lat="45.93703" lon="4.72744">
        <ele>173</ele>
        <time>2017-08-23T08:31:06Z</time>
      </trkpt>
      <trkpt lat="45.93708" lon="4.7274">
        <ele>173</ele>
        <time>2017-08-23T08:31:07Z</time>
      </trkpt>
      <trkpt lat="45.93712" lon="4.72736">
        <ele>173</ele>
        <time>2017-08-23T08:31:08Z</time>
      </trkpt>
      <trkpt lat="45.93716" lon="4.72732">
        <ele>173</ele>
        <time>2017-08-23T08:31:09Z</time>
      </trkpt>
      <trkpt lat="45.9372" lon="4.72727">
        <ele>173</ele>
        <time>2017-08-23T08:31:10Z</time>
      </trkpt>
      <trkpt lat="45.93724" lon="4.72724">
        <ele>173</ele>
        <time>2017-08-23T08:31:11Z</time>
      </trkpt>
      <trkpt lat="45.93728" lon="4.7272">
        <ele>173</ele>
        <time>2017-08-23T08:31:12Z</time>
      </trkpt>
      <trkpt lat="45.93735" lon="4.72713">
        <ele>173</ele>
        <time>2017-08-23T08:31:14Z</time>
      </trkpt>
      <trkpt lat="45.93739" lon="4.72709">
        <ele>173</ele>
        <time>2017-08-23T08:31:15Z</time>
      </trkpt>
      <trkpt lat="45.93743" lon="4.72705">
        <ele>173</ele>
        <time>2017-08-23T08:31:16Z</time>
      </trkpt>
      <trkpt lat="45.93747" lon="4.72701">
        <ele>173</ele>
        <time>2017-08-23T08:31:17Z</time>
      </trkpt>
      <trkpt lat="45.93751" lon="4.72697">
        <ele>172</ele>
        <time>2017-08-23T08:31:18Z</time>
      </trkpt>
      <trkpt lat="45.93755" lon="4.72693">
        <ele>172</ele>
        <time>2017-08-23T08:31:19Z</time>
      </trkpt>
      <trkpt lat="45.93759" lon="4.72688">
        <ele>172</ele>
        <time>2017-08-23T08:31:20Z</time>
      </trkpt>
      <trkpt lat="45.93762" lon="4.72684">
        <ele>173</ele>
        <time>2017-08-23T08:31:21Z</time>
      </trkpt>
      <trkpt lat="45.93768" lon="4.72677">
        <ele>173</ele>
        <time>2017-08-23T08:31:23Z</time>
      </trkpt>
      <trkpt lat="45.93772" lon="4.72672">
        <ele>173</ele>
        <time>2017-08-23T08:31:24Z</time>
      </trkpt>
      <trkpt lat="45.93775" lon="4.72667">
        <ele>172</ele>
        <time>2017-08-23T08:31:25Z</time>
      </trkpt>
      <trkpt lat="45.93779" lon="4.72662">
        <ele>173</ele>
        <time>2017-08-23T08:31:26Z</time>
      </trkpt>
      <trkpt lat="45.93783" lon="4.72656">
        <ele>173</ele>
        <time>2017-08-23T08:31:27Z</time>
      </trkpt>
      <trkpt lat="45.93787" lon="4.72652">
        <ele>173</ele>
        <time>2017-08-23T08:31:28Z</time>
      </trkpt>
      <trkpt lat="45.93791" lon="4.72648">
        <ele>173</ele>
        <time>2017-08-23T08:31:29Z</time>
      </trkpt>
      <trkpt lat="45.93796" lon="4.72643">
        <ele>173</ele>
        <time>2017-08-23T08:31:30Z</time>
      </trkpt>
      <trkpt lat="45.938" lon="4.72638">
        <ele>173</ele>
        <time>2017-08-23T08:31:31Z</time>
      </trkpt>
      <trkpt lat="45.93804" lon="4.72633">
        <ele>173</ele>
        <time>2017-08-23T08:31:32Z</time>
      </trkpt>
      <trkpt lat="45.93807" lon="4.72629">
        <ele>173</ele>
        <time>2017-08-23T08:31:33Z</time>
      </trkpt>
      <trkpt lat="45.93811" lon="4.72624">
        <ele>173</ele>
        <time>2017-08-23T08:31:34Z</time>
      </trkpt>
      <trkpt lat="45.93814" lon="4.72619">
        <ele>173</ele>
        <time>2017-08-23T08:31:35Z</time>
      </trkpt>
      <trkpt lat="45.93817" lon="4.72613">
        <ele>173</ele>
        <time>2017-08-23T08:31:36Z</time>
      </trkpt>
      <trkpt lat="45.93818" lon="4.72606">
        <ele>173</ele>
        <time>2017-08-23T08:31:37Z</time>
      </trkpt>
      <trkpt lat="45.93818" lon="4.726">
        <ele>173</ele>
        <time>2017-08-23T08:31:38Z</time>
      </trkpt>
      <trkpt lat="45.93814" lon="4.72589">
        <ele>174</ele>
        <time>2017-08-23T08:31:40Z</time>
      </trkpt>
      <trkpt lat="45.93811" lon="4.72585">
        <ele>174</ele>
        <time>2017-08-23T08:31:41Z</time>
      </trkpt>
      <trkpt lat="45.93807" lon="4.72581">
        <ele>174</ele>
        <time>2017-08-23T08:31:42Z</time>
      </trkpt>
      <trkpt lat="45.93803" lon="4.72576">
        <ele>174</ele>
        <time>2017-08-23T08:31:43Z</time>
      </trkpt>
      <trkpt lat="45.93799" lon="4.72572">
        <ele>174</ele>
        <time>2017-08-23T08:31:44Z</time>
      </trkpt>
      <trkpt lat="45.93795" lon="4.72567">
        <ele>174</ele>
        <time>2017-08-23T08:31:45Z</time>
      </trkpt>
      <trkpt lat="45.93792" lon="4.72561">
        <ele>174</ele>
        <time>2017-08-23T08:31:46Z</time>
      </trkpt>
      <trkpt lat="45.93788" lon="4.72556">
        <ele>173</ele>
        <time>2017-08-23T08:31:47Z</time>
      </trkpt>
      <trkpt lat="45.93783" lon="4.72552">
        <ele>173</ele>
        <time>2017-08-23T08:31:48Z</time>
      </trkpt>
      <trkpt lat="45.93779" lon="4.72547">
        <ele>173</ele>
        <time>2017-08-23T08:31:49Z</time>
      </trkpt>
      <trkpt lat="45.93774" lon="4.72544">
        <ele>173</ele>
        <time>2017-08-23T08:31:51Z</time>
      </trkpt>
      <trkpt lat="45.93771" lon="4.72541">
        <ele>173</ele>
        <time>2017-08-23T08:31:52Z</time>
      </trkpt>
      <trkpt lat="45.93767" lon="4.72537">
        <ele>173</ele>
        <time>2017-08-23T08:31:53Z</time>
      </trkpt>
      <trkpt lat="45.93763" lon="4.72534">
        <ele>173</ele>
        <time>2017-08-23T08:31:54Z</time>
      </trkpt>
      <trkpt lat="45.93758" lon="4.72531">
        <ele>173</ele>
        <time>2017-08-23T08:31:55Z</time>
      </trkpt>
      <trkpt lat="45.93754" lon="4.72528">
        <ele>172</ele>
        <time>2017-08-23T08:31:56Z</time>
      </trkpt>
      <trkpt lat="45.9375" lon="4.72524">
        <ele>172</ele>
        <time>2017-08-23T08:31:57Z</time>
      </trkpt>
      <trkpt lat="45.93745" lon="4.72518">
        <ele>171</ele>
        <time>2017-08-23T08:31:58Z</time>
      </trkpt>
      <trkpt lat="45.93739" lon="4.72513">
        <ele>171</ele>
        <time>2017-08-23T08:32:00Z</time>
      </trkpt>
      <trkpt lat="45.93738" lon="4.72509">
        <ele>171</ele>
        <time>2017-08-23T08:32:01Z</time>
      </trkpt>
      <trkpt lat="45.93731" lon="4.72503">
        <ele>171</ele>
        <time>2017-08-23T08:32:03Z</time>
      </trkpt>
      <trkpt lat="45.93728" lon="4.725">
        <ele>171</ele>
        <time>2017-08-23T08:32:04Z</time>
      </trkpt>
      <trkpt lat="45.93723" lon="4.72496">
        <ele>171</ele>
        <time>2017-08-23T08:32:05Z</time>
      </trkpt>
      <trkpt lat="45.93719" lon="4.72492">
        <ele>171</ele>
        <time>2017-08-23T08:32:06Z</time>
      </trkpt>
      <trkpt lat="45.93713" lon="4.72489">
        <ele>171</ele>
        <time>2017-08-23T08:32:07Z</time>
      </trkpt>
      <trkpt lat="45.93708" lon="4.72486">
        <ele>171</ele>
        <time>2017-08-23T08:32:08Z</time>
      </trkpt>
      <trkpt lat="45.93704" lon="4.72482">
        <ele>171</ele>
        <time>2017-08-23T08:32:09Z</time>
      </trkpt>
      <trkpt lat="45.937" lon="4.72479">
        <ele>171</ele>
        <time>2017-08-23T08:32:10Z</time>
      </trkpt>
      <trkpt lat="45.93692" lon="4.72472">
        <ele>171</ele>
        <time>2017-08-23T08:32:12Z</time>
      </trkpt>
      <trkpt lat="45.93689" lon="4.72469">
        <ele>171</ele>
        <time>2017-08-23T08:32:13Z</time>
      </trkpt>
      <trkpt lat="45.93681" lon="4.72463">
        <ele>171</ele>
        <time>2017-08-23T08:32:15Z</time>
      </trkpt>
      <trkpt lat="45.93677" lon="4.72459">
        <ele>171</ele>
        <time>2017-08-23T08:32:16Z</time>
      </trkpt>
      <trkpt lat="45.93673" lon="4.72455">
        <ele>171</ele>
        <time>2017-08-23T08:32:17Z</time>
      </trkpt>
      <trkpt lat="45.93669" lon="4.72452">
        <ele>171</ele>
        <time>2017-08-23T08:32:18Z</time>
      </trkpt>
      <trkpt lat="45.93665" lon="4.72449">
        <ele>172</ele>
        <time>2017-08-23T08:32:19Z</time>
      </trkpt>
      <trkpt lat="45.93661" lon="4.72445">
        <ele>172</ele>
        <time>2017-08-23T08:32:20Z</time>
      </trkpt>
      <trkpt lat="45.93659" lon="4.72439">
        <ele>172</ele>
        <time>2017-08-23T08:32:21Z</time>
      </trkpt>
      <trkpt lat="45.93657" lon="4.72433">
        <ele>172</ele>
        <time>2017-08-23T08:32:22Z</time>
      </trkpt>
      <trkpt lat="45.93655" lon="4.72426">
        <ele>172</ele>
        <time>2017-08-23T08:32:23Z</time>
      </trkpt>
      <trkpt lat="45.9365" lon="4.72419">
        <ele>172</ele>
        <time>2017-08-23T08:32:24Z</time>
      </trkpt>
      <trkpt lat="45.93646" lon="4.72414">
        <ele>172</ele>
        <time>2017-08-23T08:32:25Z</time>
      </trkpt>
      <trkpt lat="45.93643" lon="4.7241">
        <ele>172</ele>
        <time>2017-08-23T08:32:26Z</time>
      </trkpt>
      <trkpt lat="45.93636" lon="4.72403">
        <ele>172</ele>
        <time>2017-08-23T08:32:28Z</time>
      </trkpt>
      <trkpt lat="45.93634" lon="4.724">
        <ele>172</ele>
        <time>2017-08-23T08:32:29Z</time>
      </trkpt>
      <trkpt lat="45.93626" lon="4.72394">
        <ele>172</ele>
        <time>2017-08-23T08:32:32Z</time>
      </trkpt>
      <trkpt lat="45.93625" lon="4.72391">
        <ele>172</ele>
        <time>2017-08-23T08:32:33Z</time>
      </trkpt>
      <trkpt lat="45.9362" lon="4.72384">
        <ele>172</ele>
        <time>2017-08-23T08:32:36Z</time>
      </trkpt>
      <trkpt lat="45.93618" lon="4.72382">
        <ele>172</ele>
        <time>2017-08-23T08:32:37Z</time>
      </trkpt>
      <trkpt lat="45.93611" lon="4.72375">
        <ele>172</ele>
        <time>2017-08-23T08:32:40Z</time>
      </trkpt>
      <trkpt lat="45.93609" lon="4.72372">
        <ele>172</ele>
        <time>2017-08-23T08:32:41Z</time>
      </trkpt>
      <trkpt lat="45.93603" lon="4.72366">
        <ele>172</ele>
        <time>2017-08-23T08:32:43Z</time>
      </trkpt>
      <trkpt lat="45.936" lon="4.72362">
        <ele>172</ele>
        <time>2017-08-23T08:32:44Z</time>
      </trkpt>
      <trkpt lat="45.93595" lon="4.72356">
        <ele>172</ele>
        <time>2017-08-23T08:32:46Z</time>
      </trkpt>
      <trkpt lat="45.93591" lon="4.72354">
        <ele>172</ele>
        <time>2017-08-23T08:32:47Z</time>
      </trkpt>
      <trkpt lat="45.93584" lon="4.72347">
        <ele>173</ele>
        <time>2017-08-23T08:32:49Z</time>
      </trkpt>
      <trkpt lat="45.93581" lon="4.72345">
        <ele>173</ele>
        <time>2017-08-23T08:32:50Z</time>
      </trkpt>
      <trkpt lat="45.93574" lon="4.72339">
        <ele>173</ele>
        <time>2017-08-23T08:32:53Z</time>
      </trkpt>
      <trkpt lat="45.93572" lon="4.72337">
        <ele>173</ele>
        <time>2017-08-23T08:32:54Z</time>
      </trkpt>
      <trkpt lat="45.93565" lon="4.72333">
        <ele>173</ele>
        <time>2017-08-23T08:32:56Z</time>
      </trkpt>
      <trkpt lat="45.93562" lon="4.72331">
        <ele>173</ele>
        <time>2017-08-23T08:32:57Z</time>
      </trkpt>
      <trkpt lat="45.93555" lon="4.72327">
        <ele>173</ele>
        <time>2017-08-23T08:32:59Z</time>
      </trkpt>
      <trkpt lat="45.93551" lon="4.72324">
        <ele>173</ele>
        <time>2017-08-23T08:33:00Z</time>
      </trkpt>
      <trkpt lat="45.93543" lon="4.72319">
        <ele>173</ele>
        <time>2017-08-23T08:33:02Z</time>
      </trkpt>
      <trkpt lat="45.93539" lon="4.72318">
        <ele>173</ele>
        <time>2017-08-23T08:33:03Z</time>
      </trkpt>
      <trkpt lat="45.93531" lon="4.72315">
        <ele>173</ele>
        <time>2017-08-23T08:33:06Z</time>
      </trkpt>
      <trkpt lat="45.93529" lon="4.72315">
        <ele>173</ele>
        <time>2017-08-23T08:33:07Z</time>
      </trkpt>
      <trkpt lat="45.93522" lon="4.72317">
        <ele>173</ele>
        <time>2017-08-23T08:33:10Z</time>
      </trkpt>
      <trkpt lat="45.9352" lon="4.72319">
        <ele>173</ele>
        <time>2017-08-23T08:33:11Z</time>
      </trkpt>
      <trkpt lat="45.93512" lon="4.72322">
        <ele>173</ele>
        <time>2017-08-23T08:33:16Z</time>
      </trkpt>
      <trkpt lat="45.93511" lon="4.72321">
        <ele>173</ele>
        <time>2017-08-23T08:33:17Z</time>
      </trkpt>
      <trkpt lat="45.9351" lon="4.7231">
        <ele>173</ele>
        <time>2017-08-23T08:33:22Z</time>
      </trkpt>
      <trkpt lat="45.93512" lon="4.72307">
        <ele>173</ele>
        <time>2017-08-23T08:33:23Z</time>
      </trkpt>
      <trkpt lat="45.93518" lon="4.72301">
        <ele>172</ele>
        <time>2017-08-23T08:33:25Z</time>
      </trkpt>
      <trkpt lat="45.9352" lon="4.72296">
        <ele>172</ele>
        <time>2017-08-23T08:33:26Z</time>
      </trkpt>
      <trkpt lat="45.93523" lon="4.72288">
        <ele>172</ele>
        <time>2017-08-23T08:33:28Z</time>
      </trkpt>
      <trkpt lat="45.93525" lon="4.72285">
        <ele>172</ele>
        <time>2017-08-23T08:33:29Z</time>
      </trkpt>
      <trkpt lat="45.9353" lon="4.72276">
        <ele>172</ele>
        <time>2017-08-23T08:33:31Z</time>
      </trkpt>
      <trkpt lat="45.93532" lon="4.72271">
        <ele>172</ele>
        <time>2017-08-23T08:33:32Z</time>
      </trkpt>
      <trkpt lat="45.93536" lon="4.72261">
        <ele>172</ele>
        <time>2017-08-23T08:33:34Z</time>
      </trkpt>
      <trkpt lat="45.93538" lon="4.72256">
        <ele>172</ele>
        <time>2017-08-23T08:33:35Z</time>
      </trkpt>
      <trkpt lat="45.93542" lon="4.72247">
        <ele>172</ele>
        <time>2017-08-23T08:33:37Z</time>
      </trkpt>
      <trkpt lat="45.93544" lon="4.72242">
        <ele>172</ele>
        <time>2017-08-23T08:33:38Z</time>
      </trkpt>
      <trkpt lat="45.93549" lon="4.72233">
        <ele>172</ele>
        <time>2017-08-23T08:33:40Z</time>
      </trkpt>
      <trkpt lat="45.93551" lon="4.72228">
        <ele>172</ele>
        <time>2017-08-23T08:33:41Z</time>
      </trkpt>
      <trkpt lat="45.93553" lon="4.72216">
        <ele>173</ele>
        <time>2017-08-23T08:33:43Z</time>
      </trkpt>
      <trkpt lat="45.9355" lon="4.72211">
        <ele>173</ele>
        <time>2017-08-23T08:33:44Z</time>
      </trkpt>
      <trkpt lat="45.93541" lon="4.72207">
        <ele>173</ele>
        <time>2017-08-23T08:33:46Z</time>
      </trkpt>
      <trkpt lat="45.93537" lon="4.72207">
        <ele>172</ele>
        <time>2017-08-23T08:33:47Z</time>
      </trkpt>
      <trkpt lat="45.93528" lon="4.72206">
        <ele>172</ele>
        <time>2017-08-23T08:33:49Z</time>
      </trkpt>
      <trkpt lat="45.93524" lon="4.72205">
        <ele>172</ele>
        <time>2017-08-23T08:33:50Z</time>
      </trkpt>
      <trkpt lat="45.93516" lon="4.72202">
        <ele>172</ele>
        <time>2017-08-23T08:33:52Z</time>
      </trkpt>
      <trkpt lat="45.93512" lon="4.722">
        <ele>172</ele>
        <time>2017-08-23T08:33:53Z</time>
      </trkpt>
      <trkpt lat="45.93505" lon="4.72196">
        <ele>173</ele>
        <time>2017-08-23T08:33:55Z</time>
      </trkpt>
      <trkpt lat="45.93502" lon="4.72194">
        <ele>173</ele>
        <time>2017-08-23T08:33:56Z</time>
      </trkpt>
      <trkpt lat="45.93498" lon="4.72191">
        <ele>173</ele>
        <time>2017-08-23T08:33:57Z</time>
      </trkpt>
      <trkpt lat="45.93493" lon="4.72189">
        <ele>173</ele>
        <time>2017-08-23T08:33:58Z</time>
      </trkpt>
      <trkpt lat="45.93489" lon="4.72187">
        <ele>173</ele>
        <time>2017-08-23T08:33:59Z</time>
      </trkpt>
      <trkpt lat="45.93484" lon="4.72184">
        <ele>173</ele>
        <time>2017-08-23T08:34:00Z</time>
      </trkpt>
      <trkpt lat="45.93479" lon="4.72183">
        <ele>173</ele>
        <time>2017-08-23T08:34:01Z</time>
      </trkpt>
      <trkpt lat="45.93471" lon="4.72185">
        <ele>174</ele>
        <time>2017-08-23T08:34:02Z</time>
      </trkpt>
      <trkpt lat="45.93464" lon="4.72186">
        <ele>174</ele>
        <time>2017-08-23T08:34:03Z</time>
      </trkpt>
      <trkpt lat="45.93456" lon="4.72186">
        <ele>174</ele>
        <time>2017-08-23T08:34:04Z</time>
      </trkpt>
      <trkpt lat="45.9345" lon="4.72183">
        <ele>174</ele>
        <time>2017-08-23T08:34:05Z</time>
      </trkpt>
      <trkpt lat="45.93447" lon="4.72181">
        <ele>174</ele>
        <time>2017-08-23T08:34:06Z</time>
      </trkpt>
      <trkpt lat="45.93442" lon="4.7218">
        <ele>175</ele>
        <time>2017-08-23T08:34:07Z</time>
      </trkpt>
      <trkpt lat="45.93438" lon="4.72179">
        <ele>175</ele>
        <time>2017-08-23T08:34:08Z</time>
      </trkpt>
      <trkpt lat="45.9343" lon="4.72179">
        <ele>175</ele>
        <time>2017-08-23T08:34:10Z</time>
      </trkpt>
      <trkpt lat="45.93425" lon="4.7218">
        <ele>175</ele>
        <time>2017-08-23T08:34:11Z</time>
      </trkpt>
      <trkpt lat="45.93421" lon="4.72182">
        <ele>175</ele>
        <time>2017-08-23T08:34:12Z</time>
      </trkpt>
      <trkpt lat="45.93416" lon="4.72185">
        <ele>177</ele>
        <time>2017-08-23T08:34:13Z</time>
      </trkpt>
      <trkpt lat="45.93411" lon="4.72188">
        <ele>176</ele>
        <time>2017-08-23T08:34:14Z</time>
      </trkpt>
      <trkpt lat="45.93405" lon="4.72191">
        <ele>176</ele>
        <time>2017-08-23T08:34:15Z</time>
      </trkpt>
      <trkpt lat="45.934" lon="4.72193">
        <ele>176</ele>
        <time>2017-08-23T08:34:16Z</time>
      </trkpt>
      <trkpt lat="45.93396" lon="4.72194">
        <ele>176</ele>
        <time>2017-08-23T08:34:17Z</time>
      </trkpt>
      <trkpt lat="45.93387" lon="4.72197">
        <ele>176</ele>
        <time>2017-08-23T08:34:19Z</time>
      </trkpt>
      <trkpt lat="45.93384" lon="4.72198">
        <ele>176</ele>
        <time>2017-08-23T08:34:20Z</time>
      </trkpt>
      <trkpt lat="45.93376" lon="4.722">
        <ele>176</ele>
        <time>2017-08-23T08:34:22Z</time>
      </trkpt>
      <trkpt lat="45.93371" lon="4.72201">
        <ele>177</ele>
        <time>2017-08-23T08:34:23Z</time>
      </trkpt>
      <trkpt lat="45.93364" lon="4.72202">
        <ele>177</ele>
        <time>2017-08-23T08:34:25Z</time>
      </trkpt>
      <trkpt lat="45.93359" lon="4.72203">
        <ele>177</ele>
        <time>2017-08-23T08:34:26Z</time>
      </trkpt>
      <trkpt lat="45.9335" lon="4.72205">
        <ele>177</ele>
        <time>2017-08-23T08:34:28Z</time>
      </trkpt>
      <trkpt lat="45.93346" lon="4.72205">
        <ele>177</ele>
        <time>2017-08-23T08:34:29Z</time>
      </trkpt>
      <trkpt lat="45.93339" lon="4.72206">
        <ele>177</ele>
        <time>2017-08-23T08:34:31Z</time>
      </trkpt>
      <trkpt lat="45.93336" lon="4.72207">
        <ele>177</ele>
        <time>2017-08-23T08:34:32Z</time>
      </trkpt>
      <trkpt lat="45.93329" lon="4.72208">
        <ele>176</ele>
        <time>2017-08-23T08:34:34Z</time>
      </trkpt>
      <trkpt lat="45.93325" lon="4.72208">
        <ele>176</ele>
        <time>2017-08-23T08:34:35Z</time>
      </trkpt>
      <trkpt lat="45.93319" lon="4.72209">
        <ele>176</ele>
        <time>2017-08-23T08:34:36Z</time>
      </trkpt>
      <trkpt lat="45.93315" lon="4.72209">
        <ele>175</ele>
        <time>2017-08-23T08:34:37Z</time>
      </trkpt>
      <trkpt lat="45.93306" lon="4.72206">
        <ele>175</ele>
        <time>2017-08-23T08:34:39Z</time>
      </trkpt>
      <trkpt lat="45.93303" lon="4.72207">
        <ele>175</ele>
        <time>2017-08-23T08:34:40Z</time>
      </trkpt>
      <trkpt lat="45.93297" lon="4.7221">
        <ele>175</ele>
        <time>2017-08-23T08:34:41Z</time>
      </trkpt>
      <trkpt lat="45.93293" lon="4.7221">
        <ele>175</ele>
        <time>2017-08-23T08:34:42Z</time>
      </trkpt>
      <trkpt lat="45.93288" lon="4.7221">
        <ele>175</ele>
        <time>2017-08-23T08:34:43Z</time>
      </trkpt>
      <trkpt lat="45.93282" lon="4.72208">
        <ele>174</ele>
        <time>2017-08-23T08:34:44Z</time>
      </trkpt>
      <trkpt lat="45.93276" lon="4.72207">
        <ele>174</ele>
        <time>2017-08-23T08:34:45Z</time>
      </trkpt>
      <trkpt lat="45.9327" lon="4.72206">
        <ele>174</ele>
        <time>2017-08-23T08:34:46Z</time>
      </trkpt>
      <trkpt lat="45.93263" lon="4.72205">
        <ele>174</ele>
        <time>2017-08-23T08:34:47Z</time>
      </trkpt>
      <trkpt lat="45.93257" lon="4.72204">
        <ele>174</ele>
        <time>2017-08-23T08:34:48Z</time>
      </trkpt>
      <trkpt lat="45.93251" lon="4.72205">
        <ele>174</ele>
        <time>2017-08-23T08:34:49Z</time>
      </trkpt>
      <trkpt lat="45.93245" lon="4.72205">
        <ele>171</ele>
        <time>2017-08-23T08:34:50Z</time>
      </trkpt>
      <trkpt lat="45.9324" lon="4.72206">
        <ele>171</ele>
        <time>2017-08-23T08:34:51Z</time>
      </trkpt>
      <trkpt lat="45.93235" lon="4.72206">
        <ele>171</ele>
        <time>2017-08-23T08:34:52Z</time>
      </trkpt>
      <trkpt lat="45.93231" lon="4.72207">
        <ele>171</ele>
        <time>2017-08-23T08:34:53Z</time>
      </trkpt>
      <trkpt lat="45.93226" lon="4.72208">
        <ele>171</ele>
        <time>2017-08-23T08:34:54Z</time>
      </trkpt>
      <trkpt lat="45.93222" lon="4.7221">
        <ele>171</ele>
        <time>2017-08-23T08:34:55Z</time>
      </trkpt>
      <trkpt lat="45.93217" lon="4.72211">
        <ele>171</ele>
        <time>2017-08-23T08:34:56Z</time>
      </trkpt>
      <trkpt lat="45.93212" lon="4.72212">
        <ele>171</ele>
        <time>2017-08-23T08:34:57Z</time>
      </trkpt>
      <trkpt lat="45.93206" lon="4.72213">
        <ele>171</ele>
        <time>2017-08-23T08:34:58Z</time>
      </trkpt>
      <trkpt lat="45.93201" lon="4.72214">
        <ele>171</ele>
        <time>2017-08-23T08:34:59Z</time>
      </trkpt>
      <trkpt lat="45.93196" lon="4.72214">
        <ele>171</ele>
        <time>2017-08-23T08:35:00Z</time>
      </trkpt>
      <trkpt lat="45.93191" lon="4.72214">
        <ele>171</ele>
        <time>2017-08-23T08:35:01Z</time>
      </trkpt>
      <trkpt lat="45.93186" lon="4.72215">
        <ele>170</ele>
        <time>2017-08-23T08:35:02Z</time>
      </trkpt>
      <trkpt lat="45.93181" lon="4.72216">
        <ele>170</ele>
        <time>2017-08-23T08:35:03Z</time>
      </trkpt>
      <trkpt lat="45.93177" lon="4.72217">
        <ele>170</ele>
        <time>2017-08-23T08:35:04Z</time>
      </trkpt>
      <trkpt lat="45.93169" lon="4.72217">
        <ele>170</ele>
        <time>2017-08-23T08:35:06Z</time>
      </trkpt>
      <trkpt lat="45.93165" lon="4.72214">
        <ele>170</ele>
        <time>2017-08-23T08:35:07Z</time>
      </trkpt>
      <trkpt lat="45.93161" lon="4.72204">
        <ele>170</ele>
        <time>2017-08-23T08:35:09Z</time>
      </trkpt>
      <trkpt lat="45.9316" lon="4.72197">
        <ele>170</ele>
        <time>2017-08-23T08:35:10Z</time>
      </trkpt>
      <trkpt lat="45.93161" lon="4.7219">
        <ele>170</ele>
        <time>2017-08-23T08:35:11Z</time>
      </trkpt>
      <trkpt lat="45.93161" lon="4.72183">
        <ele>169</ele>
        <time>2017-08-23T08:35:12Z</time>
      </trkpt>
      <trkpt lat="45.93162" lon="4.72175">
        <ele>169</ele>
        <time>2017-08-23T08:35:13Z</time>
      </trkpt>
      <trkpt lat="45.93164" lon="4.72168">
        <ele>169</ele>
        <time>2017-08-23T08:35:14Z</time>
      </trkpt>
      <trkpt lat="45.93166" lon="4.7216">
        <ele>169</ele>
        <time>2017-08-23T08:35:15Z</time>
      </trkpt>
      <trkpt lat="45.93168" lon="4.72153">
        <ele>169</ele>
        <time>2017-08-23T08:35:16Z</time>
      </trkpt>
      <trkpt lat="45.93169" lon="4.72146">
        <ele>170</ele>
        <time>2017-08-23T08:35:17Z</time>
      </trkpt>
      <trkpt lat="45.9317" lon="4.72139">
        <ele>170</ele>
        <time>2017-08-23T08:35:18Z</time>
      </trkpt>
      <trkpt lat="45.93171" lon="4.72133">
        <ele>170</ele>
        <time>2017-08-23T08:35:19Z</time>
      </trkpt>
      <trkpt lat="45.93172" lon="4.72126">
        <ele>170</ele>
        <time>2017-08-23T08:35:20Z</time>
      </trkpt>
      <trkpt lat="45.93174" lon="4.72114">
        <ele>170</ele>
        <time>2017-08-23T08:35:22Z</time>
      </trkpt>
      <trkpt lat="45.93175" lon="4.72108">
        <ele>170</ele>
        <time>2017-08-23T08:35:23Z</time>
      </trkpt>
      <trkpt lat="45.93176" lon="4.72097">
        <ele>169</ele>
        <time>2017-08-23T08:35:25Z</time>
      </trkpt>
      <trkpt lat="45.93177" lon="4.72091">
        <ele>169</ele>
        <time>2017-08-23T08:35:26Z</time>
      </trkpt>
      <trkpt lat="45.93178" lon="4.72085">
        <ele>169</ele>
        <time>2017-08-23T08:35:27Z</time>
      </trkpt>
      <trkpt lat="45.93179" lon="4.72079">
        <ele>169</ele>
        <time>2017-08-23T08:35:28Z</time>
      </trkpt>
      <trkpt lat="45.9318" lon="4.72072">
        <ele>169</ele>
        <time>2017-08-23T08:35:29Z</time>
      </trkpt>
      <trkpt lat="45.93181" lon="4.72066">
        <ele>170</ele>
        <time>2017-08-23T08:35:30Z</time>
      </trkpt>
      <trkpt lat="45.93183" lon="4.72054">
        <ele>170</ele>
        <time>2017-08-23T08:35:32Z</time>
      </trkpt>
      <trkpt lat="45.93183" lon="4.72048">
        <ele>170</ele>
        <time>2017-08-23T08:35:33Z</time>
      </trkpt>
      <trkpt lat="45.93182" lon="4.72037">
        <ele>170</ele>
        <time>2017-08-23T08:35:35Z</time>
      </trkpt>
      <trkpt lat="45.93179" lon="4.72032">
        <ele>170</ele>
        <time>2017-08-23T08:35:36Z</time>
      </trkpt>
      <trkpt lat="45.93175" lon="4.7203">
        <ele>170</ele>
        <time>2017-08-23T08:35:37Z</time>
      </trkpt>
      <trkpt lat="45.9317" lon="4.72028">
        <ele>170</ele>
        <time>2017-08-23T08:35:38Z</time>
      </trkpt>
      <trkpt lat="45.93165" lon="4.72027">
        <ele>169</ele>
        <time>2017-08-23T08:35:39Z</time>
      </trkpt>
      <trkpt lat="45.9316" lon="4.72026">
        <ele>169</ele>
        <time>2017-08-23T08:35:40Z</time>
      </trkpt>
      <trkpt lat="45.93155" lon="4.72024">
        <ele>169</ele>
        <time>2017-08-23T08:35:41Z</time>
      </trkpt>
      <trkpt lat="45.9315" lon="4.72022">
        <ele>169</ele>
        <time>2017-08-23T08:35:42Z</time>
      </trkpt>
      <trkpt lat="45.93141" lon="4.72019">
        <ele>169</ele>
        <time>2017-08-23T08:35:44Z</time>
      </trkpt>
      <trkpt lat="45.93137" lon="4.72018">
        <ele>169</ele>
        <time>2017-08-23T08:35:45Z</time>
      </trkpt>
      <trkpt lat="45.93129" lon="4.72016">
        <ele>169</ele>
        <time>2017-08-23T08:35:47Z</time>
      </trkpt>
      <trkpt lat="45.93125" lon="4.72014">
        <ele>169</ele>
        <time>2017-08-23T08:35:48Z</time>
      </trkpt>
      <trkpt lat="45.9312" lon="4.72013">
        <ele>169</ele>
        <time>2017-08-23T08:35:49Z</time>
      </trkpt>
      <trkpt lat="45.93115" lon="4.72011">
        <ele>169</ele>
        <time>2017-08-23T08:35:50Z</time>
      </trkpt>
      <trkpt lat="45.93107" lon="4.7201">
        <ele>169</ele>
        <time>2017-08-23T08:35:52Z</time>
      </trkpt>
      <trkpt lat="45.93103" lon="4.72008">
        <ele>169</ele>
        <time>2017-08-23T08:35:53Z</time>
      </trkpt>
      <trkpt lat="45.93095" lon="4.72004">
        <ele>169</ele>
        <time>2017-08-23T08:35:55Z</time>
      </trkpt>
      <trkpt lat="45.93091" lon="4.72003">
        <ele>169</ele>
        <time>2017-08-23T08:35:56Z</time>
      </trkpt>
      <trkpt lat="45.93087" lon="4.72001">
        <ele>169</ele>
        <time>2017-08-23T08:35:57Z</time>
      </trkpt>
      <trkpt lat="45.93082" lon="4.72">
        <ele>169</ele>
        <time>2017-08-23T08:35:58Z</time>
      </trkpt>
      <trkpt lat="45.93077" lon="4.71998">
        <ele>169</ele>
        <time>2017-08-23T08:35:59Z</time>
      </trkpt>
      <trkpt lat="45.93072" lon="4.71997">
        <ele>169</ele>
        <time>2017-08-23T08:36:00Z</time>
      </trkpt>
      <trkpt lat="45.93064" lon="4.71995">
        <ele>169</ele>
        <time>2017-08-23T08:36:02Z</time>
      </trkpt>
      <trkpt lat="45.9306" lon="4.71994">
        <ele>169</ele>
        <time>2017-08-23T08:36:03Z</time>
      </trkpt>
      <trkpt lat="45.93055" lon="4.71992">
        <ele>169</ele>
        <time>2017-08-23T08:36:04Z</time>
      </trkpt>
      <trkpt lat="45.9305" lon="4.71991">
        <ele>169</ele>
        <time>2017-08-23T08:36:05Z</time>
      </trkpt>
      <trkpt lat="45.93045" lon="4.71989">
        <ele>169</ele>
        <time>2017-08-23T08:36:06Z</time>
      </trkpt>
      <trkpt lat="45.93041" lon="4.71988">
        <ele>169</ele>
        <time>2017-08-23T08:36:07Z</time>
      </trkpt>
      <trkpt lat="45.93036" lon="4.71986">
        <ele>169</ele>
        <time>2017-08-23T08:36:08Z</time>
      </trkpt>
      <trkpt lat="45.93032" lon="4.71984">
        <ele>169</ele>
        <time>2017-08-23T08:36:09Z</time>
      </trkpt>
      <trkpt lat="45.93024" lon="4.71981">
        <ele>169</ele>
        <time>2017-08-23T08:36:11Z</time>
      </trkpt>
      <trkpt lat="45.93019" lon="4.71979">
        <ele>169</ele>
        <time>2017-08-23T08:36:12Z</time>
      </trkpt>
      <trkpt lat="45.93014" lon="4.71977">
        <ele>169</ele>
        <time>2017-08-23T08:36:13Z</time>
      </trkpt>
      <trkpt lat="45.93009" lon="4.71975">
        <ele>169</ele>
        <time>2017-08-23T08:36:14Z</time>
      </trkpt>
      <trkpt lat="45.93005" lon="4.71973">
        <ele>169</ele>
        <time>2017-08-23T08:36:15Z</time>
      </trkpt>
      <trkpt lat="45.93001" lon="4.71971">
        <ele>169</ele>
        <time>2017-08-23T08:36:16Z</time>
      </trkpt>
      <trkpt lat="45.92992" lon="4.71969">
        <ele>169</ele>
        <time>2017-08-23T08:36:18Z</time>
      </trkpt>
      <trkpt lat="45.92988" lon="4.71967">
        <ele>169</ele>
        <time>2017-08-23T08:36:19Z</time>
      </trkpt>
      <trkpt lat="45.9298" lon="4.71964">
        <ele>169</ele>
        <time>2017-08-23T08:36:21Z</time>
      </trkpt>
      <trkpt lat="45.92976" lon="4.71963">
        <ele>169</ele>
        <time>2017-08-23T08:36:22Z</time>
      </trkpt>
      <trkpt lat="45.92971" lon="4.71961">
        <ele>169</ele>
        <time>2017-08-23T08:36:23Z</time>
      </trkpt>
      <trkpt lat="45.92967" lon="4.71959">
        <ele>169</ele>
        <time>2017-08-23T08:36:24Z</time>
      </trkpt>
      <trkpt lat="45.92962" lon="4.71958">
        <ele>169</ele>
        <time>2017-08-23T08:36:25Z</time>
      </trkpt>
      <trkpt lat="45.92957" lon="4.71957">
        <ele>169</ele>
        <time>2017-08-23T08:36:26Z</time>
      </trkpt>
      <trkpt lat="45.92952" lon="4.71955">
        <ele>169</ele>
        <time>2017-08-23T08:36:27Z</time>
      </trkpt>
      <trkpt lat="45.92948" lon="4.71954">
        <ele>169</ele>
        <time>2017-08-23T08:36:28Z</time>
      </trkpt>
      <trkpt lat="45.9294" lon="4.7195">
        <ele>169</ele>
        <time>2017-08-23T08:36:30Z</time>
      </trkpt>
      <trkpt lat="45.92936" lon="4.71949">
        <ele>170</ele>
        <time>2017-08-23T08:36:31Z</time>
      </trkpt>
      <trkpt lat="45.92928" lon="4.71946">
        <ele>170</ele>
        <time>2017-08-23T08:36:33Z</time>
      </trkpt>
      <trkpt lat="45.92924" lon="4.71945">
        <ele>170</ele>
        <time>2017-08-23T08:36:34Z</time>
      </trkpt>
      <trkpt lat="45.92919" lon="4.71943">
        <ele>170</ele>
        <time>2017-08-23T08:36:35Z</time>
      </trkpt>
      <trkpt lat="45.92914" lon="4.71941">
        <ele>170</ele>
        <time>2017-08-23T08:36:36Z</time>
      </trkpt>
      <trkpt lat="45.92909" lon="4.71939">
        <ele>170</ele>
        <time>2017-08-23T08:36:37Z</time>
      </trkpt>
      <trkpt lat="45.92904" lon="4.71937">
        <ele>170</ele>
        <time>2017-08-23T08:36:38Z</time>
      </trkpt>
      <trkpt lat="45.92899" lon="4.71934">
        <ele>170</ele>
        <time>2017-08-23T08:36:39Z</time>
      </trkpt>
      <trkpt lat="45.92895" lon="4.71931">
        <ele>170</ele>
        <time>2017-08-23T08:36:40Z</time>
      </trkpt>
      <trkpt lat="45.92887" lon="4.71926">
        <ele>170</ele>
        <time>2017-08-23T08:36:42Z</time>
      </trkpt>
      <trkpt lat="45.92883" lon="4.71923">
        <ele>170</ele>
        <time>2017-08-23T08:36:43Z</time>
      </trkpt>
      <trkpt lat="45.92876" lon="4.71919">
        <ele>170</ele>
        <time>2017-08-23T08:36:45Z</time>
      </trkpt>
      <trkpt lat="45.92872" lon="4.71917">
        <ele>171</ele>
        <time>2017-08-23T08:36:46Z</time>
      </trkpt>
      <trkpt lat="45.92864" lon="4.71912">
        <ele>171</ele>
        <time>2017-08-23T08:36:48Z</time>
      </trkpt>
      <trkpt lat="45.9286" lon="4.71909">
        <ele>171</ele>
        <time>2017-08-23T08:36:49Z</time>
      </trkpt>
      <trkpt lat="45.92855" lon="4.71906">
        <ele>171</ele>
        <time>2017-08-23T08:36:50Z</time>
      </trkpt>
      <trkpt lat="45.92851" lon="4.71903">
        <ele>171</ele>
        <time>2017-08-23T08:36:51Z</time>
      </trkpt>
      <trkpt lat="45.92844" lon="4.71898">
        <ele>171</ele>
        <time>2017-08-23T08:36:53Z</time>
      </trkpt>
      <trkpt lat="45.9284" lon="4.71896">
        <ele>171</ele>
        <time>2017-08-23T08:36:54Z</time>
      </trkpt>
      <trkpt lat="45.92833" lon="4.71893">
        <ele>171</ele>
        <time>2017-08-23T08:36:56Z</time>
      </trkpt>
      <trkpt lat="45.92829" lon="4.71891">
        <ele>171</ele>
        <time>2017-08-23T08:36:57Z</time>
      </trkpt>
      <trkpt lat="45.92823" lon="4.71887">
        <ele>171</ele>
        <time>2017-08-23T08:36:59Z</time>
      </trkpt>
      <trkpt lat="45.92819" lon="4.71884">
        <ele>171</ele>
        <time>2017-08-23T08:37:00Z</time>
      </trkpt>
      <trkpt lat="45.92815" lon="4.71882">
        <ele>171</ele>
        <time>2017-08-23T08:37:01Z</time>
      </trkpt>
      <trkpt lat="45.92811" lon="4.71879">
        <ele>171</ele>
        <time>2017-08-23T08:37:02Z</time>
      </trkpt>
      <trkpt lat="45.92804" lon="4.71874">
        <ele>172</ele>
        <time>2017-08-23T08:37:04Z</time>
      </trkpt>
      <trkpt lat="45.92801" lon="4.71872">
        <ele>172</ele>
        <time>2017-08-23T08:37:05Z</time>
      </trkpt>
      <trkpt lat="45.92794" lon="4.71868">
        <ele>172</ele>
        <time>2017-08-23T08:37:07Z</time>
      </trkpt>
      <trkpt lat="45.92791" lon="4.71866">
        <ele>172</ele>
        <time>2017-08-23T08:37:08Z</time>
      </trkpt>
      <trkpt lat="45.92785" lon="4.71861">
        <ele>172</ele>
        <time>2017-08-23T08:37:10Z</time>
      </trkpt>
      <trkpt lat="45.92782" lon="4.71858">
        <ele>172</ele>
        <time>2017-08-23T08:37:11Z</time>
      </trkpt>
      <trkpt lat="45.92774" lon="4.71852">
        <ele>172</ele>
        <time>2017-08-23T08:37:13Z</time>
      </trkpt>
      <trkpt lat="45.9277" lon="4.7185">
        <ele>172</ele>
        <time>2017-08-23T08:37:14Z</time>
      </trkpt>
      <trkpt lat="45.92763" lon="4.71845">
        <ele>172</ele>
        <time>2017-08-23T08:37:16Z</time>
      </trkpt>
      <trkpt lat="45.92759" lon="4.71842">
        <ele>172</ele>
        <time>2017-08-23T08:37:17Z</time>
      </trkpt>
      <trkpt lat="45.92752" lon="4.71837">
        <ele>173</ele>
        <time>2017-08-23T08:37:19Z</time>
      </trkpt>
      <trkpt lat="45.92749" lon="4.71834">
        <ele>173</ele>
        <time>2017-08-23T08:37:20Z</time>
      </trkpt>
      <trkpt lat="45.92741" lon="4.71829">
        <ele>173</ele>
        <time>2017-08-23T08:37:22Z</time>
      </trkpt>
      <trkpt lat="45.92737" lon="4.71826">
        <ele>173</ele>
        <time>2017-08-23T08:37:23Z</time>
      </trkpt>
      <trkpt lat="45.92733" lon="4.71824">
        <ele>174</ele>
        <time>2017-08-23T08:37:24Z</time>
      </trkpt>
      <trkpt lat="45.92729" lon="4.7182">
        <ele>174</ele>
        <time>2017-08-23T08:37:25Z</time>
      </trkpt>
      <trkpt lat="45.92722" lon="4.71817">
        <ele>174</ele>
        <time>2017-08-23T08:37:27Z</time>
      </trkpt>
      <trkpt lat="45.9272" lon="4.71816">
        <ele>174</ele>
        <time>2017-08-23T08:37:28Z</time>
      </trkpt>
      <trkpt lat="45.92714" lon="4.71806">
        <ele>174</ele>
        <time>2017-08-23T08:37:31Z</time>
      </trkpt>
      <trkpt lat="45.92715" lon="4.71801">
        <ele>174</ele>
        <time>2017-08-23T08:37:32Z</time>
      </trkpt>
      <trkpt lat="45.92715" lon="4.71788">
        <ele>174</ele>
        <time>2017-08-23T08:37:34Z</time>
      </trkpt>
      <trkpt lat="45.92715" lon="4.71782">
        <ele>174</ele>
        <time>2017-08-23T08:37:35Z</time>
      </trkpt>
      <trkpt lat="45.92714" lon="4.71769">
        <ele>175</ele>
        <time>2017-08-23T08:37:37Z</time>
      </trkpt>
      <trkpt lat="45.92713" lon="4.71764">
        <ele>175</ele>
        <time>2017-08-23T08:37:38Z</time>
      </trkpt>
      <trkpt lat="45.92712" lon="4.71752">
        <ele>175</ele>
        <time>2017-08-23T08:37:40Z</time>
      </trkpt>
      <trkpt lat="45.92712" lon="4.71748">
        <ele>175</ele>
        <time>2017-08-23T08:37:41Z</time>
      </trkpt>
      <trkpt lat="45.92713" lon="4.71737">
        <ele>175</ele>
        <time>2017-08-23T08:37:43Z</time>
      </trkpt>
      <trkpt lat="45.92714" lon="4.71731">
        <ele>175</ele>
        <time>2017-08-23T08:37:44Z</time>
      </trkpt>
      <trkpt lat="45.92716" lon="4.71725">
        <ele>175</ele>
        <time>2017-08-23T08:37:45Z</time>
      </trkpt>
      <trkpt lat="45.92718" lon="4.71718">
        <ele>174</ele>
        <time>2017-08-23T08:37:46Z</time>
      </trkpt>
      <trkpt lat="45.92721" lon="4.71712">
        <ele>174</ele>
        <time>2017-08-23T08:37:47Z</time>
      </trkpt>
      <trkpt lat="45.92723" lon="4.71705">
        <ele>174</ele>
        <time>2017-08-23T08:37:48Z</time>
      </trkpt>
      <trkpt lat="45.92726" lon="4.71695">
        <ele>174</ele>
        <time>2017-08-23T08:37:50Z</time>
      </trkpt>
      <trkpt lat="45.92727" lon="4.7169">
        <ele>174</ele>
        <time>2017-08-23T08:37:51Z</time>
      </trkpt>
      <trkpt lat="45.92731" lon="4.7168">
        <ele>173</ele>
        <time>2017-08-23T08:37:53Z</time>
      </trkpt>
      <trkpt lat="45.92733" lon="4.71674">
        <ele>173</ele>
        <time>2017-08-23T08:37:54Z</time>
      </trkpt>
      <trkpt lat="45.92736" lon="4.71669">
        <ele>173</ele>
        <time>2017-08-23T08:37:55Z</time>
      </trkpt>
      <trkpt lat="45.92739" lon="4.71663">
        <ele>172</ele>
        <time>2017-08-23T08:37:56Z</time>
      </trkpt>
      <trkpt lat="45.92743" lon="4.71657">
        <ele>172</ele>
        <time>2017-08-23T08:37:57Z</time>
      </trkpt>
      <trkpt lat="45.92745" lon="4.71652">
        <ele>172</ele>
        <time>2017-08-23T08:37:58Z</time>
      </trkpt>
      <trkpt lat="45.92748" lon="4.71646">
        <ele>172</ele>
        <time>2017-08-23T08:37:59Z</time>
      </trkpt>
      <trkpt lat="45.92751" lon="4.71641">
        <ele>171</ele>
        <time>2017-08-23T08:38:00Z</time>
      </trkpt>
      <trkpt lat="45.92755" lon="4.71635">
        <ele>171</ele>
        <time>2017-08-23T08:38:01Z</time>
      </trkpt>
      <trkpt lat="45.92757" lon="4.71629">
        <ele>171</ele>
        <time>2017-08-23T08:38:02Z</time>
      </trkpt>
      <trkpt lat="45.9276" lon="4.71623">
        <ele>171</ele>
        <time>2017-08-23T08:38:03Z</time>
      </trkpt>
      <trkpt lat="45.92763" lon="4.71618">
        <ele>171</ele>
        <time>2017-08-23T08:38:04Z</time>
      </trkpt>
      <trkpt lat="45.92769" lon="4.7161">
        <ele>171</ele>
        <time>2017-08-23T08:38:06Z</time>
      </trkpt>
      <trkpt lat="45.92772" lon="4.71605">
        <ele>171</ele>
        <time>2017-08-23T08:38:07Z</time>
      </trkpt>
      <trkpt lat="45.92775" lon="4.716">
        <ele>171</ele>
        <time>2017-08-23T08:38:08Z</time>
      </trkpt>
      <trkpt lat="45.92779" lon="4.71595">
        <ele>171</ele>
        <time>2017-08-23T08:38:09Z</time>
      </trkpt>
      <trkpt lat="45.92782" lon="4.7159">
        <ele>171</ele>
        <time>2017-08-23T08:38:10Z</time>
      </trkpt>
      <trkpt lat="45.92786" lon="4.71584">
        <ele>171</ele>
        <time>2017-08-23T08:38:11Z</time>
      </trkpt>
      <trkpt lat="45.9279" lon="4.71577">
        <ele>172</ele>
        <time>2017-08-23T08:38:12Z</time>
      </trkpt>
      <trkpt lat="45.92794" lon="4.71571">
        <ele>172</ele>
        <time>2017-08-23T08:38:13Z</time>
      </trkpt>
      <trkpt lat="45.92798" lon="4.71565">
        <ele>172</ele>
        <time>2017-08-23T08:38:14Z</time>
      </trkpt>
      <trkpt lat="45.92801" lon="4.71559">
        <ele>172</ele>
        <time>2017-08-23T08:38:15Z</time>
      </trkpt>
      <trkpt lat="45.92804" lon="4.71554">
        <ele>172</ele>
        <time>2017-08-23T08:38:16Z</time>
      </trkpt>
      <trkpt lat="45.92807" lon="4.71549">
        <ele>173</ele>
        <time>2017-08-23T08:38:17Z</time>
      </trkpt>
      <trkpt lat="45.92811" lon="4.71539">
        <ele>173</ele>
        <time>2017-08-23T08:38:19Z</time>
      </trkpt>
      <trkpt lat="45.92812" lon="4.71535">
        <ele>173</ele>
        <time>2017-08-23T08:38:20Z</time>
      </trkpt>
      <trkpt lat="45.92817" lon="4.71524">
        <ele>174</ele>
        <time>2017-08-23T08:38:23Z</time>
      </trkpt>
      <trkpt lat="45.92818" lon="4.71521">
        <ele>174</ele>
        <time>2017-08-23T08:38:24Z</time>
      </trkpt>
      <trkpt lat="45.92821" lon="4.71509">
        <ele>175</ele>
        <time>2017-08-23T08:38:28Z</time>
      </trkpt>
      <trkpt lat="45.92822" lon="4.71506">
        <ele>175</ele>
        <time>2017-08-23T08:38:29Z</time>
      </trkpt>
      <trkpt lat="45.92823" lon="4.71496">
        <ele>177</ele>
        <time>2017-08-23T08:38:34Z</time>
      </trkpt>
      <trkpt lat="45.92823" lon="4.71493">
        <ele>177</ele>
        <time>2017-08-23T08:38:35Z</time>
      </trkpt>
      <trkpt lat="45.92824" lon="4.71482">
        <ele>178</ele>
        <time>2017-08-23T08:38:39Z</time>
      </trkpt>
      <trkpt lat="45.92824" lon="4.7148">
        <ele>178</ele>
        <time>2017-08-23T08:38:40Z</time>
      </trkpt>
      <trkpt lat="45.92826" lon="4.71469">
        <ele>179</ele>
        <time>2017-08-23T08:38:45Z</time>
      </trkpt>
      <trkpt lat="45.92827" lon="4.71466">
        <ele>180</ele>
        <time>2017-08-23T08:38:46Z</time>
      </trkpt>
      <trkpt lat="45.9283" lon="4.71454">
        <ele>181</ele>
        <time>2017-08-23T08:38:51Z</time>
      </trkpt>
      <trkpt lat="45.92831" lon="4.71452">
        <ele>181</ele>
        <time>2017-08-23T08:38:52Z</time>
      </trkpt>
      <trkpt lat="45.92836" lon="4.71443">
        <ele>183</ele>
        <time>2017-08-23T08:38:57Z</time>
      </trkpt>
      <trkpt lat="45.92837" lon="4.71441">
        <ele>183</ele>
        <time>2017-08-23T08:38:58Z</time>
      </trkpt>
      <trkpt lat="45.9284" lon="4.71429">
        <ele>184</ele>
        <time>2017-08-23T08:39:04Z</time>
      </trkpt>
      <trkpt lat="45.92841" lon="4.71427">
        <ele>184</ele>
        <time>2017-08-23T08:39:05Z</time>
      </trkpt>
      <trkpt lat="45.92844" lon="4.71417">
        <ele>187</ele>
        <time>2017-08-23T08:39:10Z</time>
      </trkpt>
      <trkpt lat="45.92845" lon="4.71415">
        <ele>187</ele>
        <time>2017-08-23T08:39:11Z</time>
      </trkpt>
      <trkpt lat="45.92846" lon="4.71403">
        <ele>187</ele>
        <time>2017-08-23T08:39:16Z</time>
      </trkpt>
      <trkpt lat="45.92847" lon="4.71401">
        <ele>187</ele>
        <time>2017-08-23T08:39:17Z</time>
      </trkpt>
      <trkpt lat="45.92844" lon="4.71391">
        <ele>187</ele>
        <time>2017-08-23T08:39:23Z</time>
      </trkpt>
      <trkpt lat="45.92841" lon="4.7139">
        <ele>187</ele>
        <time>2017-08-23T08:39:24Z</time>
      </trkpt>
      <trkpt lat="45.92833" lon="4.71389">
        <ele>186</ele>
        <time>2017-08-23T08:39:28Z</time>
      </trkpt>
      <trkpt lat="45.92832" lon="4.71388">
        <ele>187</ele>
        <time>2017-08-23T08:39:29Z</time>
      </trkpt>
      <trkpt lat="45.92827" lon="4.71378">
        <ele>187</ele>
        <time>2017-08-23T08:39:33Z</time>
      </trkpt>
      <trkpt lat="45.92827" lon="4.71376">
        <ele>187</ele>
        <time>2017-08-23T08:39:34Z</time>
      </trkpt>
      <trkpt lat="45.92828" lon="4.71363">
        <ele>187</ele>
        <time>2017-08-23T08:39:39Z</time>
      </trkpt>
      <trkpt lat="45.92828" lon="4.7136">
        <ele>188</ele>
        <time>2017-08-23T08:39:40Z</time>
      </trkpt>
      <trkpt lat="45.92825" lon="4.71349">
        <ele>188</ele>
        <time>2017-08-23T08:39:44Z</time>
      </trkpt>
      <trkpt lat="45.92825" lon="4.71346">
        <ele>188</ele>
        <time>2017-08-23T08:39:45Z</time>
      </trkpt>
      <trkpt lat="45.92826" lon="4.71333">
        <ele>190</ele>
        <time>2017-08-23T08:39:49Z</time>
      </trkpt>
      <trkpt lat="45.92825" lon="4.7133">
        <ele>190</ele>
        <time>2017-08-23T08:39:50Z</time>
      </trkpt>
      <trkpt lat="45.92824" lon="4.71319">
        <ele>189</ele>
        <time>2017-08-23T08:39:54Z</time>
      </trkpt>
      <trkpt lat="45.92825" lon="4.71316">
        <ele>189</ele>
        <time>2017-08-23T08:39:55Z</time>
      </trkpt>
      <trkpt lat="45.92822" lon="4.71304">
        <ele>189</ele>
        <time>2017-08-23T08:39:59Z</time>
      </trkpt>
      <trkpt lat="45.92821" lon="4.71303">
        <ele>189</ele>
        <time>2017-08-23T08:40:00Z</time>
      </trkpt>
      <trkpt lat="45.92812" lon="4.713">
        <ele>189</ele>
        <time>2017-08-23T08:40:04Z</time>
      </trkpt>
      <trkpt lat="45.9281" lon="4.71299">
        <ele>189</ele>
        <time>2017-08-23T08:40:05Z</time>
      </trkpt>
      <trkpt lat="45.92802" lon="4.71294">
        <ele>189</ele>
        <time>2017-08-23T08:40:10Z</time>
      </trkpt>
      <trkpt lat="45.92799" lon="4.71293">
        <ele>189</ele>
        <time>2017-08-23T08:40:11Z</time>
      </trkpt>
      <trkpt lat="45.92792" lon="4.71292">
        <ele>189</ele>
        <time>2017-08-23T08:40:14Z</time>
      </trkpt>
      <trkpt lat="45.92789" lon="4.71291">
        <ele>189</ele>
        <time>2017-08-23T08:40:15Z</time>
      </trkpt>
      <trkpt lat="45.92782" lon="4.71287">
        <ele>189</ele>
        <time>2017-08-23T08:40:17Z</time>
      </trkpt>
      <trkpt lat="45.92779" lon="4.71286">
        <ele>189</ele>
        <time>2017-08-23T08:40:18Z</time>
      </trkpt>
      <trkpt lat="45.92773" lon="4.71285">
        <ele>189</ele>
        <time>2017-08-23T08:40:20Z</time>
      </trkpt>
      <trkpt lat="45.92769" lon="4.71284">
        <ele>189</ele>
        <time>2017-08-23T08:40:21Z</time>
      </trkpt>
      <trkpt lat="45.92762" lon="4.7128">
        <ele>189</ele>
        <time>2017-08-23T08:40:23Z</time>
      </trkpt>
      <trkpt lat="45.92758" lon="4.71279">
        <ele>189</ele>
        <time>2017-08-23T08:40:24Z</time>
      </trkpt>
      <trkpt lat="45.92749" lon="4.71278">
        <ele>188</ele>
        <time>2017-08-23T08:40:26Z</time>
      </trkpt>
      <trkpt lat="45.92745" lon="4.71277">
        <ele>188</ele>
        <time>2017-08-23T08:40:27Z</time>
      </trkpt>
      <trkpt lat="45.9274" lon="4.71276">
        <ele>188</ele>
        <time>2017-08-23T08:40:28Z</time>
      </trkpt>
      <trkpt lat="45.92735" lon="4.71275">
        <ele>188</ele>
        <time>2017-08-23T08:40:29Z</time>
      </trkpt>
      <trkpt lat="45.9273" lon="4.71273">
        <ele>188</ele>
        <time>2017-08-23T08:40:30Z</time>
      </trkpt>
      <trkpt lat="45.92725" lon="4.71272">
        <ele>188</ele>
        <time>2017-08-23T08:40:31Z</time>
      </trkpt>
      <trkpt lat="45.9272" lon="4.7127">
        <ele>188</ele>
        <time>2017-08-23T08:40:32Z</time>
      </trkpt>
      <trkpt lat="45.92716" lon="4.71269">
        <ele>188</ele>
        <time>2017-08-23T08:40:33Z</time>
      </trkpt>
      <trkpt lat="45.92711" lon="4.71268">
        <ele>187</ele>
        <time>2017-08-23T08:40:34Z</time>
      </trkpt>
      <trkpt lat="45.92706" lon="4.71267">
        <ele>187</ele>
        <time>2017-08-23T08:40:35Z</time>
      </trkpt>
      <trkpt lat="45.92701" lon="4.71266">
        <ele>187</ele>
        <time>2017-08-23T08:40:36Z</time>
      </trkpt>
      <trkpt lat="45.92697" lon="4.71266">
        <ele>187</ele>
        <time>2017-08-23T08:40:37Z</time>
      </trkpt>
      <trkpt lat="45.92688" lon="4.71265">
        <ele>187</ele>
        <time>2017-08-23T08:40:39Z</time>
      </trkpt>
      <trkpt lat="45.92683" lon="4.71264">
        <ele>187</ele>
        <time>2017-08-23T08:40:40Z</time>
      </trkpt>
      <trkpt lat="45.92675" lon="4.7126">
        <ele>187</ele>
        <time>2017-08-23T08:40:42Z</time>
      </trkpt>
      <trkpt lat="45.92671" lon="4.71258">
        <ele>187</ele>
        <time>2017-08-23T08:40:43Z</time>
      </trkpt>
      <trkpt lat="45.92663" lon="4.71255">
        <ele>186</ele>
        <time>2017-08-23T08:40:45Z</time>
      </trkpt>
      <trkpt lat="45.9266" lon="4.71253">
        <ele>186</ele>
        <time>2017-08-23T08:40:46Z</time>
      </trkpt>
      <trkpt lat="45.92652" lon="4.71249">
        <ele>187</ele>
        <time>2017-08-23T08:40:48Z</time>
      </trkpt>
      <trkpt lat="45.92649" lon="4.71247">
        <ele>187</ele>
        <time>2017-08-23T08:40:49Z</time>
      </trkpt>
      <trkpt lat="45.92642" lon="4.71245">
        <ele>187</ele>
        <time>2017-08-23T08:40:51Z</time>
      </trkpt>
      <trkpt lat="45.92639" lon="4.71244">
        <ele>186</ele>
        <time>2017-08-23T08:40:52Z</time>
      </trkpt>
      <trkpt lat="45.92632" lon="4.7124">
        <ele>186</ele>
        <time>2017-08-23T08:40:54Z</time>
      </trkpt>
      <trkpt lat="45.92628" lon="4.71238">
        <ele>186</ele>
        <time>2017-08-23T08:40:55Z</time>
      </trkpt>
      <trkpt lat="45.9262" lon="4.71234">
        <ele>186</ele>
        <time>2017-08-23T08:40:57Z</time>
      </trkpt>
      <trkpt lat="45.92617" lon="4.71233">
        <ele>186</ele>
        <time>2017-08-23T08:40:58Z</time>
      </trkpt>
      <trkpt lat="45.9261" lon="4.71229">
        <ele>186</ele>
        <time>2017-08-23T08:41:00Z</time>
      </trkpt>
      <trkpt lat="45.92608" lon="4.71228">
        <ele>186</ele>
        <time>2017-08-23T08:41:01Z</time>
      </trkpt>
      <trkpt lat="45.92601" lon="4.71226">
        <ele>186</ele>
        <time>2017-08-23T08:41:03Z</time>
      </trkpt>
      <trkpt lat="45.92597" lon="4.71225">
        <ele>186</ele>
        <time>2017-08-23T08:41:04Z</time>
      </trkpt>
      <trkpt lat="45.9259" lon="4.71221">
        <ele>186</ele>
        <time>2017-08-23T08:41:06Z</time>
      </trkpt>
      <trkpt lat="45.92586" lon="4.7122">
        <ele>186</ele>
        <time>2017-08-23T08:41:07Z</time>
      </trkpt>
      <trkpt lat="45.92578" lon="4.71217">
        <ele>185</ele>
        <time>2017-08-23T08:41:09Z</time>
      </trkpt>
      <trkpt lat="45.92575" lon="4.71216">
        <ele>185</ele>
        <time>2017-08-23T08:41:10Z</time>
      </trkpt>
      <trkpt lat="45.92568" lon="4.71214">
        <ele>185</ele>
        <time>2017-08-23T08:41:12Z</time>
      </trkpt>
      <trkpt lat="45.92564" lon="4.71212">
        <ele>185</ele>
        <time>2017-08-23T08:41:13Z</time>
      </trkpt>
      <trkpt lat="45.92556" lon="4.71209">
        <ele>185</ele>
        <time>2017-08-23T08:41:15Z</time>
      </trkpt>
      <trkpt lat="45.92552" lon="4.71208">
        <ele>185</ele>
        <time>2017-08-23T08:41:16Z</time>
      </trkpt>
      <trkpt lat="45.92546" lon="4.71204">
        <ele>185</ele>
        <time>2017-08-23T08:41:18Z</time>
      </trkpt>
      <trkpt lat="45.92544" lon="4.71202">
        <ele>185</ele>
        <time>2017-08-23T08:41:19Z</time>
      </trkpt>
      <trkpt lat="45.92536" lon="4.71198">
        <ele>185</ele>
        <time>2017-08-23T08:41:22Z</time>
      </trkpt>
      <trkpt lat="45.92532" lon="4.71196">
        <ele>185</ele>
        <time>2017-08-23T08:41:23Z</time>
      </trkpt>
      <trkpt lat="45.92525" lon="4.71193">
        <ele>185</ele>
        <time>2017-08-23T08:41:25Z</time>
      </trkpt>
      <trkpt lat="45.92521" lon="4.71191">
        <ele>185</ele>
        <time>2017-08-23T08:41:26Z</time>
      </trkpt>
      <trkpt lat="45.92513" lon="4.71189">
        <ele>185</ele>
        <time>2017-08-23T08:41:28Z</time>
      </trkpt>
      <trkpt lat="45.92509" lon="4.71187">
        <ele>185</ele>
        <time>2017-08-23T08:41:29Z</time>
      </trkpt>
      <trkpt lat="45.92503" lon="4.71184">
        <ele>185</ele>
        <time>2017-08-23T08:41:31Z</time>
      </trkpt>
      <trkpt lat="45.925" lon="4.71182">
        <ele>185</ele>
        <time>2017-08-23T08:41:32Z</time>
      </trkpt>
      <trkpt lat="45.92491" lon="4.71178">
        <ele>185</ele>
        <time>2017-08-23T08:41:34Z</time>
      </trkpt>
      <trkpt lat="45.92487" lon="4.71177">
        <ele>185</ele>
        <time>2017-08-23T08:41:35Z</time>
      </trkpt>
      <trkpt lat="45.92479" lon="4.71173">
        <ele>184</ele>
        <time>2017-08-23T08:41:37Z</time>
      </trkpt>
      <trkpt lat="45.92476" lon="4.71172">
        <ele>184</ele>
        <time>2017-08-23T08:41:38Z</time>
      </trkpt>
      <trkpt lat="45.92469" lon="4.71168">
        <ele>184</ele>
        <time>2017-08-23T08:41:40Z</time>
      </trkpt>
      <trkpt lat="45.92465" lon="4.71167">
        <ele>186</ele>
        <time>2017-08-23T08:41:41Z</time>
      </trkpt>
      <trkpt lat="45.92458" lon="4.71164">
        <ele>186</ele>
        <time>2017-08-23T08:41:43Z</time>
      </trkpt>
      <trkpt lat="45.92455" lon="4.71163">
        <ele>186</ele>
        <time>2017-08-23T08:41:44Z</time>
      </trkpt>
      <trkpt lat="45.92449" lon="4.71159">
        <ele>186</ele>
        <time>2017-08-23T08:41:46Z</time>
      </trkpt>
      <trkpt lat="45.92446" lon="4.71158">
        <ele>186</ele>
        <time>2017-08-23T08:41:47Z</time>
      </trkpt>
      <trkpt lat="45.92438" lon="4.71153">
        <ele>185</ele>
        <time>2017-08-23T08:41:49Z</time>
      </trkpt>
      <trkpt lat="45.92435" lon="4.71151">
        <ele>185</ele>
        <time>2017-08-23T08:41:50Z</time>
      </trkpt>
      <trkpt lat="45.92428" lon="4.71148">
        <ele>185</ele>
        <time>2017-08-23T08:41:52Z</time>
      </trkpt>
      <trkpt lat="45.92425" lon="4.71145">
        <ele>185</ele>
        <time>2017-08-23T08:41:53Z</time>
      </trkpt>
      <trkpt lat="45.92418" lon="4.71141">
        <ele>185</ele>
        <time>2017-08-23T08:41:55Z</time>
      </trkpt>
      <trkpt lat="45.92416" lon="4.71138">
        <ele>184</ele>
        <time>2017-08-23T08:41:56Z</time>
      </trkpt>
      <trkpt lat="45.92409" lon="4.71133">
        <ele>184</ele>
        <time>2017-08-23T08:41:58Z</time>
      </trkpt>
      <trkpt lat="45.92406" lon="4.7113">
        <ele>184</ele>
        <time>2017-08-23T08:41:59Z</time>
      </trkpt>
      <trkpt lat="45.924" lon="4.71127">
        <ele>184</ele>
        <time>2017-08-23T08:42:01Z</time>
      </trkpt>
      <trkpt lat="45.92396" lon="4.71124">
        <ele>184</ele>
        <time>2017-08-23T08:42:02Z</time>
      </trkpt>
      <trkpt lat="45.92388" lon="4.7112">
        <ele>184</ele>
        <time>2017-08-23T08:42:04Z</time>
      </trkpt>
      <trkpt lat="45.92384" lon="4.71118">
        <ele>184</ele>
        <time>2017-08-23T08:42:05Z</time>
      </trkpt>
      <trkpt lat="45.92377" lon="4.71114">
        <ele>184</ele>
        <time>2017-08-23T08:42:07Z</time>
      </trkpt>
      <trkpt lat="45.92373" lon="4.71112">
        <ele>184</ele>
        <time>2017-08-23T08:42:08Z</time>
      </trkpt>
      <trkpt lat="45.92366" lon="4.71109">
        <ele>184</ele>
        <time>2017-08-23T08:42:10Z</time>
      </trkpt>
      <trkpt lat="45.92363" lon="4.71108">
        <ele>184</ele>
        <time>2017-08-23T08:42:11Z</time>
      </trkpt>
      <trkpt lat="45.92357" lon="4.71104">
        <ele>184</ele>
        <time>2017-08-23T08:42:13Z</time>
      </trkpt>
      <trkpt lat="45.92353" lon="4.71103">
        <ele>184</ele>
        <time>2017-08-23T08:42:14Z</time>
      </trkpt>
      <trkpt lat="45.92346" lon="4.71099">
        <ele>184</ele>
        <time>2017-08-23T08:42:16Z</time>
      </trkpt>
      <trkpt lat="45.92342" lon="4.71097">
        <ele>184</ele>
        <time>2017-08-23T08:42:17Z</time>
      </trkpt>
      <trkpt lat="45.92335" lon="4.71093">
        <ele>184</ele>
        <time>2017-08-23T08:42:19Z</time>
      </trkpt>
      <trkpt lat="45.92331" lon="4.71092">
        <ele>183</ele>
        <time>2017-08-23T08:42:20Z</time>
      </trkpt>
      <trkpt lat="45.92323" lon="4.71088">
        <ele>183</ele>
        <time>2017-08-23T08:42:22Z</time>
      </trkpt>
      <trkpt lat="45.92319" lon="4.71086">
        <ele>183</ele>
        <time>2017-08-23T08:42:23Z</time>
      </trkpt>
      <trkpt lat="45.92312" lon="4.71082">
        <ele>184</ele>
        <time>2017-08-23T08:42:25Z</time>
      </trkpt>
      <trkpt lat="45.92307" lon="4.7108">
        <ele>184</ele>
        <time>2017-08-23T08:42:26Z</time>
      </trkpt>
      <trkpt lat="45.92303" lon="4.71077">
        <ele>184</ele>
        <time>2017-08-23T08:42:27Z</time>
      </trkpt>
      <trkpt lat="45.92298" lon="4.71075">
        <ele>183</ele>
        <time>2017-08-23T08:42:28Z</time>
      </trkpt>
      <trkpt lat="45.92294" lon="4.71072">
        <ele>183</ele>
        <time>2017-08-23T08:42:29Z</time>
      </trkpt>
      <trkpt lat="45.92289" lon="4.7107">
        <ele>183</ele>
        <time>2017-08-23T08:42:30Z</time>
      </trkpt>
      <trkpt lat="45.92285" lon="4.71068">
        <ele>183</ele>
        <time>2017-08-23T08:42:31Z</time>
      </trkpt>
      <trkpt lat="45.9228" lon="4.71066">
        <ele>183</ele>
        <time>2017-08-23T08:42:32Z</time>
      </trkpt>
      <trkpt lat="45.92276" lon="4.71063">
        <ele>183</ele>
        <time>2017-08-23T08:42:33Z</time>
      </trkpt>
      <trkpt lat="45.92272" lon="4.71061">
        <ele>183</ele>
        <time>2017-08-23T08:42:34Z</time>
      </trkpt>
      <trkpt lat="45.92264" lon="4.71056">
        <ele>183</ele>
        <time>2017-08-23T08:42:36Z</time>
      </trkpt>
      <trkpt lat="45.9226" lon="4.71055">
        <ele>183</ele>
        <time>2017-08-23T08:42:37Z</time>
      </trkpt>
      <trkpt lat="45.92254" lon="4.71052">
        <ele>183</ele>
        <time>2017-08-23T08:42:39Z</time>
      </trkpt>
      <trkpt lat="45.92251" lon="4.7105">
        <ele>183</ele>
        <time>2017-08-23T08:42:40Z</time>
      </trkpt>
      <trkpt lat="45.92245" lon="4.71047">
        <ele>182</ele>
        <time>2017-08-23T08:42:42Z</time>
      </trkpt>
      <trkpt lat="45.92242" lon="4.71046">
        <ele>182</ele>
        <time>2017-08-23T08:42:43Z</time>
      </trkpt>
      <trkpt lat="45.92236" lon="4.71043">
        <ele>182</ele>
        <time>2017-08-23T08:42:45Z</time>
      </trkpt>
      <trkpt lat="45.92233" lon="4.71041">
        <ele>182</ele>
        <time>2017-08-23T08:42:46Z</time>
      </trkpt>
      <trkpt lat="45.92225" lon="4.71037">
        <ele>182</ele>
        <time>2017-08-23T08:42:48Z</time>
      </trkpt>
      <trkpt lat="45.92222" lon="4.71035">
        <ele>182</ele>
        <time>2017-08-23T08:42:49Z</time>
      </trkpt>
      <trkpt lat="45.92214" lon="4.71032">
        <ele>182</ele>
        <time>2017-08-23T08:42:51Z</time>
      </trkpt>
      <trkpt lat="45.92211" lon="4.7103">
        <ele>182</ele>
        <time>2017-08-23T08:42:52Z</time>
      </trkpt>
      <trkpt lat="45.92203" lon="4.71026">
        <ele>182</ele>
        <time>2017-08-23T08:42:55Z</time>
      </trkpt>
      <trkpt lat="45.922" lon="4.71025">
        <ele>181</ele>
        <time>2017-08-23T08:42:56Z</time>
      </trkpt>
      <trkpt lat="45.92195" lon="4.71022">
        <ele>181</ele>
        <time>2017-08-23T08:42:58Z</time>
      </trkpt>
      <trkpt lat="45.92192" lon="4.71021">
        <ele>181</ele>
        <time>2017-08-23T08:42:59Z</time>
      </trkpt>
      <trkpt lat="45.92186" lon="4.71019">
        <ele>181</ele>
        <time>2017-08-23T08:43:01Z</time>
      </trkpt>
      <trkpt lat="45.92182" lon="4.71019">
        <ele>181</ele>
        <time>2017-08-23T08:43:02Z</time>
      </trkpt>
      <trkpt lat="45.92175" lon="4.71018">
        <ele>181</ele>
        <time>2017-08-23T08:43:04Z</time>
      </trkpt>
      <trkpt lat="45.92172" lon="4.71017">
        <ele>181</ele>
        <time>2017-08-23T08:43:05Z</time>
      </trkpt>
      <trkpt lat="45.92168" lon="4.71014">
        <ele>181</ele>
        <time>2017-08-23T08:43:07Z</time>
      </trkpt>
      <trkpt lat="45.92163" lon="4.71012">
        <ele>181</ele>
        <time>2017-08-23T08:43:08Z</time>
      </trkpt>
      <trkpt lat="45.92155" lon="4.71016">
        <ele>181</ele>
        <time>2017-08-23T08:43:10Z</time>
      </trkpt>
      <trkpt lat="45.92153" lon="4.71019">
        <ele>181</ele>
        <time>2017-08-23T08:43:11Z</time>
      </trkpt>
      <trkpt lat="45.92152" lon="4.71029">
        <ele>181</ele>
        <time>2017-08-23T08:43:13Z</time>
      </trkpt>
      <trkpt lat="45.92152" lon="4.71034">
        <ele>181</ele>
        <time>2017-08-23T08:43:14Z</time>
      </trkpt>
      <trkpt lat="45.92149" lon="4.71044">
        <ele>181</ele>
        <time>2017-08-23T08:43:16Z</time>
      </trkpt>
      <trkpt lat="45.92147" lon="4.7105">
        <ele>181</ele>
        <time>2017-08-23T08:43:17Z</time>
      </trkpt>
      <trkpt lat="45.92145" lon="4.71061">
        <ele>181</ele>
        <time>2017-08-23T08:43:19Z</time>
      </trkpt>
      <trkpt lat="45.92144" lon="4.71067">
        <ele>181</ele>
        <time>2017-08-23T08:43:20Z</time>
      </trkpt>
      <trkpt lat="45.92141" lon="4.71079">
        <ele>181</ele>
        <time>2017-08-23T08:43:22Z</time>
      </trkpt>
      <trkpt lat="45.9214" lon="4.71083">
        <ele>181</ele>
        <time>2017-08-23T08:43:23Z</time>
      </trkpt>
      <trkpt lat="45.92138" lon="4.71095">
        <ele>179</ele>
        <time>2017-08-23T08:43:25Z</time>
      </trkpt>
      <trkpt lat="45.92136" lon="4.711">
        <ele>179</ele>
        <time>2017-08-23T08:43:26Z</time>
      </trkpt>
      <trkpt lat="45.92135" lon="4.71107">
        <ele>179</ele>
        <time>2017-08-23T08:43:27Z</time>
      </trkpt>
      <trkpt lat="45.92133" lon="4.71114">
        <ele>179</ele>
        <time>2017-08-23T08:43:28Z</time>
      </trkpt>
      <trkpt lat="45.92132" lon="4.71123">
        <ele>179</ele>
        <time>2017-08-23T08:43:29Z</time>
      </trkpt>
      <trkpt lat="45.92132" lon="4.71131">
        <ele>178</ele>
        <time>2017-08-23T08:43:30Z</time>
      </trkpt>
      <trkpt lat="45.92131" lon="4.71139">
        <ele>178</ele>
        <time>2017-08-23T08:43:31Z</time>
      </trkpt>
      <trkpt lat="45.9213" lon="4.71148">
        <ele>178</ele>
        <time>2017-08-23T08:43:32Z</time>
      </trkpt>
      <trkpt lat="45.92129" lon="4.71156">
        <ele>178</ele>
        <time>2017-08-23T08:43:33Z</time>
      </trkpt>
      <trkpt lat="45.92128" lon="4.71165">
        <ele>178</ele>
        <time>2017-08-23T08:43:34Z</time>
      </trkpt>
      <trkpt lat="45.92128" lon="4.71173">
        <ele>176</ele>
        <time>2017-08-23T08:43:35Z</time>
      </trkpt>
      <trkpt lat="45.92127" lon="4.71181">
        <ele>176</ele>
        <time>2017-08-23T08:43:36Z</time>
      </trkpt>
      <trkpt lat="45.92125" lon="4.71189">
        <ele>176</ele>
        <time>2017-08-23T08:43:37Z</time>
      </trkpt>
      <trkpt lat="45.92124" lon="4.71197">
        <ele>175</ele>
        <time>2017-08-23T08:43:38Z</time>
      </trkpt>
      <trkpt lat="45.92123" lon="4.71205">
        <ele>175</ele>
        <time>2017-08-23T08:43:39Z</time>
      </trkpt>
      <trkpt lat="45.92122" lon="4.71213">
        <ele>175</ele>
        <time>2017-08-23T08:43:40Z</time>
      </trkpt>
      <trkpt lat="45.92122" lon="4.71221">
        <ele>175</ele>
        <time>2017-08-23T08:43:41Z</time>
      </trkpt>
      <trkpt lat="45.92121" lon="4.7123">
        <ele>175</ele>
        <time>2017-08-23T08:43:42Z</time>
      </trkpt>
      <trkpt lat="45.92121" lon="4.71238">
        <ele>175</ele>
        <time>2017-08-23T08:43:43Z</time>
      </trkpt>
      <trkpt lat="45.9212" lon="4.71246">
        <ele>175</ele>
        <time>2017-08-23T08:43:44Z</time>
      </trkpt>
      <trkpt lat="45.92119" lon="4.71254">
        <ele>174</ele>
        <time>2017-08-23T08:43:45Z</time>
      </trkpt>
      <trkpt lat="45.92119" lon="4.71262">
        <ele>174</ele>
        <time>2017-08-23T08:43:46Z</time>
      </trkpt>
      <trkpt lat="45.92118" lon="4.7127">
        <ele>174</ele>
        <time>2017-08-23T08:43:47Z</time>
      </trkpt>
      <trkpt lat="45.92117" lon="4.71278">
        <ele>174</ele>
        <time>2017-08-23T08:43:48Z</time>
      </trkpt>
      <trkpt lat="45.92116" lon="4.71286">
        <ele>174</ele>
        <time>2017-08-23T08:43:49Z</time>
      </trkpt>
      <trkpt lat="45.92116" lon="4.71293">
        <ele>174</ele>
        <time>2017-08-23T08:43:50Z</time>
      </trkpt>
      <trkpt lat="45.92115" lon="4.71301">
        <ele>174</ele>
        <time>2017-08-23T08:43:51Z</time>
      </trkpt>
      <trkpt lat="45.92114" lon="4.71308">
        <ele>174</ele>
        <time>2017-08-23T08:43:52Z</time>
      </trkpt>
      <trkpt lat="45.92112" lon="4.71314">
        <ele>174</ele>
        <time>2017-08-23T08:43:53Z</time>
      </trkpt>
      <trkpt lat="45.92112" lon="4.71321">
        <ele>174</ele>
        <time>2017-08-23T08:43:54Z</time>
      </trkpt>
      <trkpt lat="45.92111" lon="4.71327">
        <ele>174</ele>
        <time>2017-08-23T08:43:55Z</time>
      </trkpt>
      <trkpt lat="45.92111" lon="4.71334">
        <ele>174</ele>
        <time>2017-08-23T08:43:56Z</time>
      </trkpt>
      <trkpt lat="45.9211" lon="4.71341">
        <ele>174</ele>
        <time>2017-08-23T08:43:57Z</time>
      </trkpt>
      <trkpt lat="45.92109" lon="4.71348">
        <ele>174</ele>
        <time>2017-08-23T08:43:58Z</time>
      </trkpt>
      <trkpt lat="45.92108" lon="4.71354">
        <ele>174</ele>
        <time>2017-08-23T08:43:59Z</time>
      </trkpt>
      <trkpt lat="45.92108" lon="4.71361">
        <ele>173</ele>
        <time>2017-08-23T08:44:00Z</time>
      </trkpt>
      <trkpt lat="45.92108" lon="4.71368">
        <ele>173</ele>
        <time>2017-08-23T08:44:01Z</time>
      </trkpt>
      <trkpt lat="45.92107" lon="4.71376">
        <ele>173</ele>
        <time>2017-08-23T08:44:02Z</time>
      </trkpt>
      <trkpt lat="45.92106" lon="4.71384">
        <ele>173</ele>
        <time>2017-08-23T08:44:03Z</time>
      </trkpt>
      <trkpt lat="45.92104" lon="4.71391">
        <ele>174</ele>
        <time>2017-08-23T08:44:04Z</time>
      </trkpt>
      <trkpt lat="45.92104" lon="4.71399">
        <ele>174</ele>
        <time>2017-08-23T08:44:05Z</time>
      </trkpt>
      <trkpt lat="45.92103" lon="4.71406">
        <ele>174</ele>
        <time>2017-08-23T08:44:06Z</time>
      </trkpt>
      <trkpt lat="45.92102" lon="4.71413">
        <ele>174</ele>
        <time>2017-08-23T08:44:07Z</time>
      </trkpt>
      <trkpt lat="45.92101" lon="4.71419">
        <ele>174</ele>
        <time>2017-08-23T08:44:08Z</time>
      </trkpt>
      <trkpt lat="45.921" lon="4.71426">
        <ele>174</ele>
        <time>2017-08-23T08:44:09Z</time>
      </trkpt>
      <trkpt lat="45.92099" lon="4.71433">
        <ele>174</ele>
        <time>2017-08-23T08:44:10Z</time>
      </trkpt>
      <trkpt lat="45.92097" lon="4.7144">
        <ele>174</ele>
        <time>2017-08-23T08:44:11Z</time>
      </trkpt>
      <trkpt lat="45.92095" lon="4.71448">
        <ele>174</ele>
        <time>2017-08-23T08:44:12Z</time>
      </trkpt>
      <trkpt lat="45.92094" lon="4.71456">
        <ele>174</ele>
        <time>2017-08-23T08:44:13Z</time>
      </trkpt>
      <trkpt lat="45.92093" lon="4.71464">
        <ele>174</ele>
        <time>2017-08-23T08:44:14Z</time>
      </trkpt>
      <trkpt lat="45.92092" lon="4.71473">
        <ele>174</ele>
        <time>2017-08-23T08:44:15Z</time>
      </trkpt>
      <trkpt lat="45.92091" lon="4.71481">
        <ele>174</ele>
        <time>2017-08-23T08:44:16Z</time>
      </trkpt>
      <trkpt lat="45.92091" lon="4.7149">
        <ele>174</ele>
        <time>2017-08-23T08:44:17Z</time>
      </trkpt>
      <trkpt lat="45.9209" lon="4.71498">
        <ele>174</ele>
        <time>2017-08-23T08:44:18Z</time>
      </trkpt>
      <trkpt lat="45.92088" lon="4.71505">
        <ele>174</ele>
        <time>2017-08-23T08:44:19Z</time>
      </trkpt>
      <trkpt lat="45.92087" lon="4.71513">
        <ele>174</ele>
        <time>2017-08-23T08:44:20Z</time>
      </trkpt>
      <trkpt lat="45.92086" lon="4.7152">
        <ele>174</ele>
        <time>2017-08-23T08:44:21Z</time>
      </trkpt>
      <trkpt lat="45.92086" lon="4.71526">
        <ele>174</ele>
        <time>2017-08-23T08:44:22Z</time>
      </trkpt>
      <trkpt lat="45.92085" lon="4.71533">
        <ele>173</ele>
        <time>2017-08-23T08:44:23Z</time>
      </trkpt>
      <trkpt lat="45.92083" lon="4.71541">
        <ele>173</ele>
        <time>2017-08-23T08:44:24Z</time>
      </trkpt>
      <trkpt lat="45.92082" lon="4.71548">
        <ele>173</ele>
        <time>2017-08-23T08:44:25Z</time>
      </trkpt>
      <trkpt lat="45.9208" lon="4.71556">
        <ele>173</ele>
        <time>2017-08-23T08:44:26Z</time>
      </trkpt>
      <trkpt lat="45.92079" lon="4.71564">
        <ele>173</ele>
        <time>2017-08-23T08:44:27Z</time>
      </trkpt>
      <trkpt lat="45.92077" lon="4.71572">
        <ele>173</ele>
        <time>2017-08-23T08:44:28Z</time>
      </trkpt>
      <trkpt lat="45.92076" lon="4.71581">
        <ele>172</ele>
        <time>2017-08-23T08:44:29Z</time>
      </trkpt>
      <trkpt lat="45.92075" lon="4.71588">
        <ele>172</ele>
        <time>2017-08-23T08:44:30Z</time>
      </trkpt>
      <trkpt lat="45.92073" lon="4.71596">
        <ele>172</ele>
        <time>2017-08-23T08:44:31Z</time>
      </trkpt>
      <trkpt lat="45.92073" lon="4.71604">
        <ele>172</ele>
        <time>2017-08-23T08:44:32Z</time>
      </trkpt>
      <trkpt lat="45.92072" lon="4.71611">
        <ele>172</ele>
        <time>2017-08-23T08:44:33Z</time>
      </trkpt>
      <trkpt lat="45.92071" lon="4.71617">
        <ele>173</ele>
        <time>2017-08-23T08:44:34Z</time>
      </trkpt>
      <trkpt lat="45.9207" lon="4.71624">
        <ele>173</ele>
        <time>2017-08-23T08:44:35Z</time>
      </trkpt>
      <trkpt lat="45.92068" lon="4.7163">
        <ele>173</ele>
        <time>2017-08-23T08:44:36Z</time>
      </trkpt>
      <trkpt lat="45.92068" lon="4.71636">
        <ele>173</ele>
        <time>2017-08-23T08:44:37Z</time>
      </trkpt>
      <trkpt lat="45.92067" lon="4.71643">
        <ele>172</ele>
        <time>2017-08-23T08:44:38Z</time>
      </trkpt>
      <trkpt lat="45.92065" lon="4.71649">
        <ele>172</ele>
        <time>2017-08-23T08:44:39Z</time>
      </trkpt>
      <trkpt lat="45.92064" lon="4.71656">
        <ele>172</ele>
        <time>2017-08-23T08:44:40Z</time>
      </trkpt>
      <trkpt lat="45.92062" lon="4.71663">
        <ele>172</ele>
        <time>2017-08-23T08:44:41Z</time>
      </trkpt>
      <trkpt lat="45.9206" lon="4.7167">
        <ele>173</ele>
        <time>2017-08-23T08:44:42Z</time>
      </trkpt>
      <trkpt lat="45.92059" lon="4.71677">
        <ele>173</ele>
        <time>2017-08-23T08:44:43Z</time>
      </trkpt>
      <trkpt lat="45.92057" lon="4.71685">
        <ele>173</ele>
        <time>2017-08-23T08:44:44Z</time>
      </trkpt>
      <trkpt lat="45.92056" lon="4.71693">
        <ele>173</ele>
        <time>2017-08-23T08:44:45Z</time>
      </trkpt>
      <trkpt lat="45.92054" lon="4.717">
        <ele>173</ele>
        <time>2017-08-23T08:44:46Z</time>
      </trkpt>
      <trkpt lat="45.92052" lon="4.71708">
        <ele>173</ele>
        <time>2017-08-23T08:44:47Z</time>
      </trkpt>
      <trkpt lat="45.92051" lon="4.71715">
        <ele>173</ele>
        <time>2017-08-23T08:44:48Z</time>
      </trkpt>
      <trkpt lat="45.9205" lon="4.71723">
        <ele>173</ele>
        <time>2017-08-23T08:44:49Z</time>
      </trkpt>
      <trkpt lat="45.92049" lon="4.7173">
        <ele>173</ele>
        <time>2017-08-23T08:44:50Z</time>
      </trkpt>
      <trkpt lat="45.92048" lon="4.71736">
        <ele>173</ele>
        <time>2017-08-23T08:44:51Z</time>
      </trkpt>
      <trkpt lat="45.92047" lon="4.71743">
        <ele>173</ele>
        <time>2017-08-23T08:44:52Z</time>
      </trkpt>
      <trkpt lat="45.92047" lon="4.7175">
        <ele>173</ele>
        <time>2017-08-23T08:44:53Z</time>
      </trkpt>
      <trkpt lat="45.92046" lon="4.71756">
        <ele>173</ele>
        <time>2017-08-23T08:44:54Z</time>
      </trkpt>
      <trkpt lat="45.92045" lon="4.71768">
        <ele>173</ele>
        <time>2017-08-23T08:44:56Z</time>
      </trkpt>
      <trkpt lat="45.92043" lon="4.71773">
        <ele>173</ele>
        <time>2017-08-23T08:44:57Z</time>
      </trkpt>
      <trkpt lat="45.9204" lon="4.71782">
        <ele>173</ele>
        <time>2017-08-23T08:44:59Z</time>
      </trkpt>
      <trkpt lat="45.92037" lon="4.71784">
        <ele>173</ele>
        <time>2017-08-23T08:45:00Z</time>
      </trkpt>
      <trkpt lat="45.9203" lon="4.71787">
        <ele>173</ele>
        <time>2017-08-23T08:45:02Z</time>
      </trkpt>
      <trkpt lat="45.92026" lon="4.71787">
        <ele>173</ele>
        <time>2017-08-23T08:45:03Z</time>
      </trkpt>
      <trkpt lat="45.92019" lon="4.71785">
        <ele>173</ele>
        <time>2017-08-23T08:45:05Z</time>
      </trkpt>
      <trkpt lat="45.92016" lon="4.71785">
        <ele>173</ele>
        <time>2017-08-23T08:45:06Z</time>
      </trkpt>
      <trkpt lat="45.92009" lon="4.71785">
        <ele>173</ele>
        <time>2017-08-23T08:45:08Z</time>
      </trkpt>
      <trkpt lat="45.92005" lon="4.71785">
        <ele>173</ele>
        <time>2017-08-23T08:45:09Z</time>
      </trkpt>
      <trkpt lat="45.91997" lon="4.71786">
        <ele>173</ele>
        <time>2017-08-23T08:45:11Z</time>
      </trkpt>
      <trkpt lat="45.91993" lon="4.71786">
        <ele>173</ele>
        <time>2017-08-23T08:45:12Z</time>
      </trkpt>
      <trkpt lat="45.91984" lon="4.71787">
        <ele>173</ele>
        <time>2017-08-23T08:45:14Z</time>
      </trkpt>
      <trkpt lat="45.9198" lon="4.71787">
        <ele>173</ele>
        <time>2017-08-23T08:45:15Z</time>
      </trkpt>
      <trkpt lat="45.91975" lon="4.71787">
        <ele>173</ele>
        <time>2017-08-23T08:45:16Z</time>
      </trkpt>
      <trkpt lat="45.91971" lon="4.71787">
        <ele>173</ele>
        <time>2017-08-23T08:45:17Z</time>
      </trkpt>
      <trkpt lat="45.91962" lon="4.71787">
        <ele>173</ele>
        <time>2017-08-23T08:45:19Z</time>
      </trkpt>
      <trkpt lat="45.91959" lon="4.71786">
        <ele>173</ele>
        <time>2017-08-23T08:45:20Z</time>
      </trkpt>
      <trkpt lat="45.9195" lon="4.71787">
        <ele>173</ele>
        <time>2017-08-23T08:45:22Z</time>
      </trkpt>
      <trkpt lat="45.91945" lon="4.71787">
        <ele>173</ele>
        <time>2017-08-23T08:45:23Z</time>
      </trkpt>
      <trkpt lat="45.91941" lon="4.71787">
        <ele>173</ele>
        <time>2017-08-23T08:45:24Z</time>
      </trkpt>
      <trkpt lat="45.91936" lon="4.71787">
        <ele>173</ele>
        <time>2017-08-23T08:45:25Z</time>
      </trkpt>
      <trkpt lat="45.91927" lon="4.71787">
        <ele>173</ele>
        <time>2017-08-23T08:45:27Z</time>
      </trkpt>
      <trkpt lat="45.91922" lon="4.71787">
        <ele>172</ele>
        <time>2017-08-23T08:45:28Z</time>
      </trkpt>
      <trkpt lat="45.91914" lon="4.71784">
        <ele>172</ele>
        <time>2017-08-23T08:45:30Z</time>
      </trkpt>
      <trkpt lat="45.9191" lon="4.71782">
        <ele>172</ele>
        <time>2017-08-23T08:45:31Z</time>
      </trkpt>
      <trkpt lat="45.91902" lon="4.7178">
        <ele>172</ele>
        <time>2017-08-23T08:45:33Z</time>
      </trkpt>
      <trkpt lat="45.91897" lon="4.71779">
        <ele>172</ele>
        <time>2017-08-23T08:45:34Z</time>
      </trkpt>
      <trkpt lat="45.91892" lon="4.71779">
        <ele>172</ele>
        <time>2017-08-23T08:45:35Z</time>
      </trkpt>
      <trkpt lat="45.91887" lon="4.71778">
        <ele>172</ele>
        <time>2017-08-23T08:45:36Z</time>
      </trkpt>
      <trkpt lat="45.91882" lon="4.71778">
        <ele>172</ele>
        <time>2017-08-23T08:45:37Z</time>
      </trkpt>
      <trkpt lat="45.91877" lon="4.71777">
        <ele>172</ele>
        <time>2017-08-23T08:45:38Z</time>
      </trkpt>
      <trkpt lat="45.91869" lon="4.71777">
        <ele>172</ele>
        <time>2017-08-23T08:45:40Z</time>
      </trkpt>
      <trkpt lat="45.91864" lon="4.71777">
        <ele>172</ele>
        <time>2017-08-23T08:45:41Z</time>
      </trkpt>
      <trkpt lat="45.91855" lon="4.71777">
        <ele>172</ele>
        <time>2017-08-23T08:45:43Z</time>
      </trkpt>
      <trkpt lat="45.91851" lon="4.71777">
        <ele>172</ele>
        <time>2017-08-23T08:45:44Z</time>
      </trkpt>
      <trkpt lat="45.91843" lon="4.71778">
        <ele>172</ele>
        <time>2017-08-23T08:45:46Z</time>
      </trkpt>
      <trkpt lat="45.91839" lon="4.71779">
        <ele>172</ele>
        <time>2017-08-23T08:45:47Z</time>
      </trkpt>
      <trkpt lat="45.9183" lon="4.7178">
        <ele>172</ele>
        <time>2017-08-23T08:45:49Z</time>
      </trkpt>
      <trkpt lat="45.91826" lon="4.71781">
        <ele>172</ele>
        <time>2017-08-23T08:45:50Z</time>
      </trkpt>
      <trkpt lat="45.9182" lon="4.71781">
        <ele>172</ele>
        <time>2017-08-23T08:45:51Z</time>
      </trkpt>
      <trkpt lat="45.91816" lon="4.71782">
        <ele>172</ele>
        <time>2017-08-23T08:45:52Z</time>
      </trkpt>
      <trkpt lat="45.91807" lon="4.71782">
        <ele>172</ele>
        <time>2017-08-23T08:45:54Z</time>
      </trkpt>
      <trkpt lat="45.91803" lon="4.71782">
        <ele>172</ele>
        <time>2017-08-23T08:45:55Z</time>
      </trkpt>
      <trkpt lat="45.91795" lon="4.71781">
        <ele>172</ele>
        <time>2017-08-23T08:45:57Z</time>
      </trkpt>
      <trkpt lat="45.9179" lon="4.71781">
        <ele>173</ele>
        <time>2017-08-23T08:45:58Z</time>
      </trkpt>
      <trkpt lat="45.91786" lon="4.71782">
        <ele>173</ele>
        <time>2017-08-23T08:45:59Z</time>
      </trkpt>
      <trkpt lat="45.91781" lon="4.71783">
        <ele>173</ele>
        <time>2017-08-23T08:46:00Z</time>
      </trkpt>
      <trkpt lat="45.91772" lon="4.71784">
        <ele>173</ele>
        <time>2017-08-23T08:46:02Z</time>
      </trkpt>
      <trkpt lat="45.91767" lon="4.71785">
        <ele>173</ele>
        <time>2017-08-23T08:46:03Z</time>
      </trkpt>
      <trkpt lat="45.91759" lon="4.71786">
        <ele>173</ele>
        <time>2017-08-23T08:46:05Z</time>
      </trkpt>
      <trkpt lat="45.91755" lon="4.71786">
        <ele>173</ele>
        <time>2017-08-23T08:46:06Z</time>
      </trkpt>
      <trkpt lat="45.91748" lon="4.71785">
        <ele>173</ele>
        <time>2017-08-23T08:46:08Z</time>
      </trkpt>
      <trkpt lat="45.91744" lon="4.71785">
        <ele>173</ele>
        <time>2017-08-23T08:46:09Z</time>
      </trkpt>
      <trkpt lat="45.9174" lon="4.71784">
        <ele>173</ele>
        <time>2017-08-23T08:46:10Z</time>
      </trkpt>
      <trkpt lat="45.91735" lon="4.71783">
        <ele>173</ele>
        <time>2017-08-23T08:46:11Z</time>
      </trkpt>
      <trkpt lat="45.9173" lon="4.71782">
        <ele>173</ele>
        <time>2017-08-23T08:46:12Z</time>
      </trkpt>
      <trkpt lat="45.91725" lon="4.71782">
        <ele>173</ele>
        <time>2017-08-23T08:46:13Z</time>
      </trkpt>
      <trkpt lat="45.9172" lon="4.71782">
        <ele>173</ele>
        <time>2017-08-23T08:46:14Z</time>
      </trkpt>
      <trkpt lat="45.91715" lon="4.71782">
        <ele>173</ele>
        <time>2017-08-23T08:46:15Z</time>
      </trkpt>
      <trkpt lat="45.91707" lon="4.71782">
        <ele>173</ele>
        <time>2017-08-23T08:46:17Z</time>
      </trkpt>
      <trkpt lat="45.91703" lon="4.71782">
        <ele>173</ele>
        <time>2017-08-23T08:46:18Z</time>
      </trkpt>
      <trkpt lat="45.91695" lon="4.71782">
        <ele>173</ele>
        <time>2017-08-23T08:46:20Z</time>
      </trkpt>
      <trkpt lat="45.91692" lon="4.71781">
        <ele>173</ele>
        <time>2017-08-23T08:46:21Z</time>
      </trkpt>
      <trkpt lat="45.91687" lon="4.71779">
        <ele>173</ele>
        <time>2017-08-23T08:46:22Z</time>
      </trkpt>
      <trkpt lat="45.91683" lon="4.71778">
        <ele>173</ele>
        <time>2017-08-23T08:46:23Z</time>
      </trkpt>
      <trkpt lat="45.91678" lon="4.71777">
        <ele>173</ele>
        <time>2017-08-23T08:46:24Z</time>
      </trkpt>
      <trkpt lat="45.91673" lon="4.71777">
        <ele>173</ele>
        <time>2017-08-23T08:46:25Z</time>
      </trkpt>
      <trkpt lat="45.91664" lon="4.71776">
        <ele>174</ele>
        <time>2017-08-23T08:46:27Z</time>
      </trkpt>
      <trkpt lat="45.9166" lon="4.71775">
        <ele>174</ele>
        <time>2017-08-23T08:46:28Z</time>
      </trkpt>
      <trkpt lat="45.91653" lon="4.71772">
        <ele>174</ele>
        <time>2017-08-23T08:46:30Z</time>
      </trkpt>
      <trkpt lat="45.9165" lon="4.7177">
        <ele>174</ele>
        <time>2017-08-23T08:46:31Z</time>
      </trkpt>
      <trkpt lat="45.91643" lon="4.71764">
        <ele>174</ele>
        <time>2017-08-23T08:46:33Z</time>
      </trkpt>
      <trkpt lat="45.9164" lon="4.7176">
        <ele>174</ele>
        <time>2017-08-23T08:46:34Z</time>
      </trkpt>
      <trkpt lat="45.91635" lon="4.7175">
        <ele>174</ele>
        <time>2017-08-23T08:46:36Z</time>
      </trkpt>
      <trkpt lat="45.91633" lon="4.71745">
        <ele>173</ele>
        <time>2017-08-23T08:46:37Z</time>
      </trkpt>
      <trkpt lat="45.91629" lon="4.71735">
        <ele>173</ele>
        <time>2017-08-23T08:46:39Z</time>
      </trkpt>
      <trkpt lat="45.91626" lon="4.71731">
        <ele>173</ele>
        <time>2017-08-23T08:46:40Z</time>
      </trkpt>
      <trkpt lat="45.9162" lon="4.71725">
        <ele>173</ele>
        <time>2017-08-23T08:46:42Z</time>
      </trkpt>
      <trkpt lat="45.91615" lon="4.71724">
        <ele>173</ele>
        <time>2017-08-23T08:46:43Z</time>
      </trkpt>
      <trkpt lat="45.91607" lon="4.71724">
        <ele>173</ele>
        <time>2017-08-23T08:46:45Z</time>
      </trkpt>
      <trkpt lat="45.91604" lon="4.71726">
        <ele>173</ele>
        <time>2017-08-23T08:46:46Z</time>
      </trkpt>
      <trkpt lat="45.91596" lon="4.71729">
        <ele>173</ele>
        <time>2017-08-23T08:46:48Z</time>
      </trkpt>
      <trkpt lat="45.91592" lon="4.7173">
        <ele>173</ele>
        <time>2017-08-23T08:46:49Z</time>
      </trkpt>
      <trkpt lat="45.91585" lon="4.71735">
        <ele>173</ele>
        <time>2017-08-23T08:46:51Z</time>
      </trkpt>
      <trkpt lat="45.91581" lon="4.71738">
        <ele>173</ele>
        <time>2017-08-23T08:46:52Z</time>
      </trkpt>
      <trkpt lat="45.91577" lon="4.71741">
        <ele>174</ele>
        <time>2017-08-23T08:46:53Z</time>
      </trkpt>
      <trkpt lat="45.91573" lon="4.71744">
        <ele>174</ele>
        <time>2017-08-23T08:46:54Z</time>
      </trkpt>
      <trkpt lat="45.91567" lon="4.71752">
        <ele>174</ele>
        <time>2017-08-23T08:46:56Z</time>
      </trkpt>
      <trkpt lat="45.91565" lon="4.71755">
        <ele>174</ele>
        <time>2017-08-23T08:46:57Z</time>
      </trkpt>
      <trkpt lat="45.9156" lon="4.71763">
        <ele>174</ele>
        <time>2017-08-23T08:46:59Z</time>
      </trkpt>
      <trkpt lat="45.91557" lon="4.71767">
        <ele>174</ele>
        <time>2017-08-23T08:47:00Z</time>
      </trkpt>
      <trkpt lat="45.91551" lon="4.71776">
        <ele>174</ele>
        <time>2017-08-23T08:47:02Z</time>
      </trkpt>
      <trkpt lat="45.91547" lon="4.71781">
        <ele>174</ele>
        <time>2017-08-23T08:47:03Z</time>
      </trkpt>
      <trkpt lat="45.91544" lon="4.71786">
        <ele>174</ele>
        <time>2017-08-23T08:47:04Z</time>
      </trkpt>
      <trkpt lat="45.91541" lon="4.71791">
        <ele>174</ele>
        <time>2017-08-23T08:47:05Z</time>
      </trkpt>
      <trkpt lat="45.91536" lon="4.71801">
        <ele>174</ele>
        <time>2017-08-23T08:47:07Z</time>
      </trkpt>
      <trkpt lat="45.91534" lon="4.71805">
        <ele>174</ele>
        <time>2017-08-23T08:47:08Z</time>
      </trkpt>
      <trkpt lat="45.91531" lon="4.71813">
        <ele>174</ele>
        <time>2017-08-23T08:47:10Z</time>
      </trkpt>
      <trkpt lat="45.91528" lon="4.71817">
        <ele>174</ele>
        <time>2017-08-23T08:47:11Z</time>
      </trkpt>
      <trkpt lat="45.91524" lon="4.71826">
        <ele>174</ele>
        <time>2017-08-23T08:47:13Z</time>
      </trkpt>
      <trkpt lat="45.91521" lon="4.71831">
        <ele>174</ele>
        <time>2017-08-23T08:47:14Z</time>
      </trkpt>
      <trkpt lat="45.91518" lon="4.7184">
        <ele>174</ele>
        <time>2017-08-23T08:47:16Z</time>
      </trkpt>
      <trkpt lat="45.91516" lon="4.71844">
        <ele>174</ele>
        <time>2017-08-23T08:47:17Z</time>
      </trkpt>
      <trkpt lat="45.91513" lon="4.71851">
        <ele>174</ele>
        <time>2017-08-23T08:47:19Z</time>
      </trkpt>
      <trkpt lat="45.9151" lon="4.71855">
        <ele>174</ele>
        <time>2017-08-23T08:47:20Z</time>
      </trkpt>
      <trkpt lat="45.91505" lon="4.71864">
        <ele>174</ele>
        <time>2017-08-23T08:47:22Z</time>
      </trkpt>
      <trkpt lat="45.91501" lon="4.71869">
        <ele>174</ele>
        <time>2017-08-23T08:47:23Z</time>
      </trkpt>
      <trkpt lat="45.91498" lon="4.71873">
        <ele>173</ele>
        <time>2017-08-23T08:47:24Z</time>
      </trkpt>
      <trkpt lat="45.91494" lon="4.71877">
        <ele>173</ele>
        <time>2017-08-23T08:47:25Z</time>
      </trkpt>
      <trkpt lat="45.91488" lon="4.71883">
        <ele>173</ele>
        <time>2017-08-23T08:47:27Z</time>
      </trkpt>
      <trkpt lat="45.91485" lon="4.71885">
        <ele>173</ele>
        <time>2017-08-23T08:47:28Z</time>
      </trkpt>
      <trkpt lat="45.9148" lon="4.7189">
        <ele>173</ele>
        <time>2017-08-23T08:47:30Z</time>
      </trkpt>
      <trkpt lat="45.91477" lon="4.71893">
        <ele>173</ele>
        <time>2017-08-23T08:47:31Z</time>
      </trkpt>
      <trkpt lat="45.9147" lon="4.71899">
        <ele>173</ele>
        <time>2017-08-23T08:47:33Z</time>
      </trkpt>
      <trkpt lat="45.91466" lon="4.71901">
        <ele>173</ele>
        <time>2017-08-23T08:47:34Z</time>
      </trkpt>
      <trkpt lat="45.91458" lon="4.71905">
        <ele>173</ele>
        <time>2017-08-23T08:47:36Z</time>
      </trkpt>
      <trkpt lat="45.91454" lon="4.71908">
        <ele>173</ele>
        <time>2017-08-23T08:47:37Z</time>
      </trkpt>
      <trkpt lat="45.91447" lon="4.71914">
        <ele>173</ele>
        <time>2017-08-23T08:47:39Z</time>
      </trkpt>
      <trkpt lat="45.91443" lon="4.71916">
        <ele>173</ele>
        <time>2017-08-23T08:47:40Z</time>
      </trkpt>
      <trkpt lat="45.91436" lon="4.71923">
        <ele>173</ele>
        <time>2017-08-23T08:47:42Z</time>
      </trkpt>
      <trkpt lat="45.91432" lon="4.71926">
        <ele>173</ele>
        <time>2017-08-23T08:47:43Z</time>
      </trkpt>
      <trkpt lat="45.91425" lon="4.71931">
        <ele>173</ele>
        <time>2017-08-23T08:47:45Z</time>
      </trkpt>
      <trkpt lat="45.91422" lon="4.71933">
        <ele>173</ele>
        <time>2017-08-23T08:47:46Z</time>
      </trkpt>
      <trkpt lat="45.91416" lon="4.71938">
        <ele>173</ele>
        <time>2017-08-23T08:47:48Z</time>
      </trkpt>
      <trkpt lat="45.91414" lon="4.71941">
        <ele>173</ele>
        <time>2017-08-23T08:47:49Z</time>
      </trkpt>
      <trkpt lat="45.91406" lon="4.71947">
        <ele>173</ele>
        <time>2017-08-23T08:47:51Z</time>
      </trkpt>
      <trkpt lat="45.91403" lon="4.7195">
        <ele>173</ele>
        <time>2017-08-23T08:47:52Z</time>
      </trkpt>
      <trkpt lat="45.91395" lon="4.71957">
        <ele>173</ele>
        <time>2017-08-23T08:47:54Z</time>
      </trkpt>
      <trkpt lat="45.91391" lon="4.7196">
        <ele>174</ele>
        <time>2017-08-23T08:47:55Z</time>
      </trkpt>
      <trkpt lat="45.91384" lon="4.71963">
        <ele>174</ele>
        <time>2017-08-23T08:47:57Z</time>
      </trkpt>
      <trkpt lat="45.9138" lon="4.71965">
        <ele>174</ele>
        <time>2017-08-23T08:47:58Z</time>
      </trkpt>
      <trkpt lat="45.91375" lon="4.71966">
        <ele>174</ele>
        <time>2017-08-23T08:47:59Z</time>
      </trkpt>
      <trkpt lat="45.9137" lon="4.71966">
        <ele>173</ele>
        <time>2017-08-23T08:48:00Z</time>
      </trkpt>
      <trkpt lat="45.91362" lon="4.71968">
        <ele>173</ele>
        <time>2017-08-23T08:48:02Z</time>
      </trkpt>
      <trkpt lat="45.91357" lon="4.71969">
        <ele>173</ele>
        <time>2017-08-23T08:48:03Z</time>
      </trkpt>
      <trkpt lat="45.91349" lon="4.71968">
        <ele>173</ele>
        <time>2017-08-23T08:48:05Z</time>
      </trkpt>
      <trkpt lat="45.91345" lon="4.71968">
        <ele>173</ele>
        <time>2017-08-23T08:48:06Z</time>
      </trkpt>
      <trkpt lat="45.91338" lon="4.71967">
        <ele>173</ele>
        <time>2017-08-23T08:48:08Z</time>
      </trkpt>
      <trkpt lat="45.91335" lon="4.71965">
        <ele>173</ele>
        <time>2017-08-23T08:48:09Z</time>
      </trkpt>
      <trkpt lat="45.91327" lon="4.71963">
        <ele>174</ele>
        <time>2017-08-23T08:48:11Z</time>
      </trkpt>
      <trkpt lat="45.91323" lon="4.7196">
        <ele>174</ele>
        <time>2017-08-23T08:48:12Z</time>
      </trkpt>
      <trkpt lat="45.91319" lon="4.71958">
        <ele>174</ele>
        <time>2017-08-23T08:48:13Z</time>
      </trkpt>
      <trkpt lat="45.91315" lon="4.71956">
        <ele>174</ele>
        <time>2017-08-23T08:48:14Z</time>
      </trkpt>
      <trkpt lat="45.9131" lon="4.71954">
        <ele>174</ele>
        <time>2017-08-23T08:48:15Z</time>
      </trkpt>
      <trkpt lat="45.91306" lon="4.71951">
        <ele>174</ele>
        <time>2017-08-23T08:48:16Z</time>
      </trkpt>
      <trkpt lat="45.91299" lon="4.71948">
        <ele>175</ele>
        <time>2017-08-23T08:48:18Z</time>
      </trkpt>
      <trkpt lat="45.91295" lon="4.71947">
        <ele>175</ele>
        <time>2017-08-23T08:48:19Z</time>
      </trkpt>
      <trkpt lat="45.91288" lon="4.71944">
        <ele>175</ele>
        <time>2017-08-23T08:48:21Z</time>
      </trkpt>
      <trkpt lat="45.91284" lon="4.71942">
        <ele>175</ele>
        <time>2017-08-23T08:48:22Z</time>
      </trkpt>
      <trkpt lat="45.91279" lon="4.7194">
        <ele>175</ele>
        <time>2017-08-23T08:48:23Z</time>
      </trkpt>
      <trkpt lat="45.91275" lon="4.71938">
        <ele>175</ele>
        <time>2017-08-23T08:48:24Z</time>
      </trkpt>
      <trkpt lat="45.91266" lon="4.71935">
        <ele>175</ele>
        <time>2017-08-23T08:48:26Z</time>
      </trkpt>
      <trkpt lat="45.91262" lon="4.71934">
        <ele>176</ele>
        <time>2017-08-23T08:48:27Z</time>
      </trkpt>
      <trkpt lat="45.91254" lon="4.71932">
        <ele>176</ele>
        <time>2017-08-23T08:48:29Z</time>
      </trkpt>
      <trkpt lat="45.91251" lon="4.71931">
        <ele>176</ele>
        <time>2017-08-23T08:48:30Z</time>
      </trkpt>
      <trkpt lat="45.91244" lon="4.71929">
        <ele>176</ele>
        <time>2017-08-23T08:48:32Z</time>
      </trkpt>
      <trkpt lat="45.91241" lon="4.71928">
        <ele>176</ele>
        <time>2017-08-23T08:48:33Z</time>
      </trkpt>
      <trkpt lat="45.91235" lon="4.71926">
        <ele>176</ele>
        <time>2017-08-23T08:48:35Z</time>
      </trkpt>
      <trkpt lat="45.91232" lon="4.71925">
        <ele>176</ele>
        <time>2017-08-23T08:48:36Z</time>
      </trkpt>
      <trkpt lat="45.91224" lon="4.71922">
        <ele>176</ele>
        <time>2017-08-23T08:48:38Z</time>
      </trkpt>
      <trkpt lat="45.9122" lon="4.7192">
        <ele>176</ele>
        <time>2017-08-23T08:48:39Z</time>
      </trkpt>
      <trkpt lat="45.91215" lon="4.71918">
        <ele>176</ele>
        <time>2017-08-23T08:48:40Z</time>
      </trkpt>
      <trkpt lat="45.9121" lon="4.71917">
        <ele>176</ele>
        <time>2017-08-23T08:48:41Z</time>
      </trkpt>
      <trkpt lat="45.91205" lon="4.71915">
        <ele>176</ele>
        <time>2017-08-23T08:48:42Z</time>
      </trkpt>
      <trkpt lat="45.91201" lon="4.71914">
        <ele>176</ele>
        <time>2017-08-23T08:48:43Z</time>
      </trkpt>
      <trkpt lat="45.91193" lon="4.71911">
        <ele>176</ele>
        <time>2017-08-23T08:48:45Z</time>
      </trkpt>
      <trkpt lat="45.9119" lon="4.7191">
        <ele>176</ele>
        <time>2017-08-23T08:48:46Z</time>
      </trkpt>
      <trkpt lat="45.91182" lon="4.71908">
        <ele>176</ele>
        <time>2017-08-23T08:48:48Z</time>
      </trkpt>
      <trkpt lat="45.91179" lon="4.71907">
        <ele>176</ele>
        <time>2017-08-23T08:48:49Z</time>
      </trkpt>
      <trkpt lat="45.91171" lon="4.71904">
        <ele>176</ele>
        <time>2017-08-23T08:48:51Z</time>
      </trkpt>
      <trkpt lat="45.91168" lon="4.71903">
        <ele>176</ele>
        <time>2017-08-23T08:48:52Z</time>
      </trkpt>
      <trkpt lat="45.9116" lon="4.71901">
        <ele>175</ele>
        <time>2017-08-23T08:48:54Z</time>
      </trkpt>
      <trkpt lat="45.91157" lon="4.71901">
        <ele>175</ele>
        <time>2017-08-23T08:48:55Z</time>
      </trkpt>
      <trkpt lat="45.91149" lon="4.71904">
        <ele>175</ele>
        <time>2017-08-23T08:48:58Z</time>
      </trkpt>
      <trkpt lat="45.91146" lon="4.71905">
        <ele>175</ele>
        <time>2017-08-23T08:48:59Z</time>
      </trkpt>
      <trkpt lat="45.91137" lon="4.71908">
        <ele>175</ele>
        <time>2017-08-23T08:49:01Z</time>
      </trkpt>
      <trkpt lat="45.91133" lon="4.7191">
        <ele>175</ele>
        <time>2017-08-23T08:49:02Z</time>
      </trkpt>
      <trkpt lat="45.91127" lon="4.71914">
        <ele>175</ele>
        <time>2017-08-23T08:49:03Z</time>
      </trkpt>
      <trkpt lat="45.91121" lon="4.71916">
        <ele>175</ele>
        <time>2017-08-23T08:49:04Z</time>
      </trkpt>
      <trkpt lat="45.91113" lon="4.71921">
        <ele>174</ele>
        <time>2017-08-23T08:49:06Z</time>
      </trkpt>
      <trkpt lat="45.9111" lon="4.71923">
        <ele>174</ele>
        <time>2017-08-23T08:49:07Z</time>
      </trkpt>
      <trkpt lat="45.91102" lon="4.71926">
        <ele>174</ele>
        <time>2017-08-23T08:49:09Z</time>
      </trkpt>
      <trkpt lat="45.91098" lon="4.71928">
        <ele>174</ele>
        <time>2017-08-23T08:49:10Z</time>
      </trkpt>
      <trkpt lat="45.91094" lon="4.71931">
        <ele>174</ele>
        <time>2017-08-23T08:49:11Z</time>
      </trkpt>
      <trkpt lat="45.91089" lon="4.71933">
        <ele>174</ele>
        <time>2017-08-23T08:49:12Z</time>
      </trkpt>
      <trkpt lat="45.91084" lon="4.71935">
        <ele>174</ele>
        <time>2017-08-23T08:49:13Z</time>
      </trkpt>
      <trkpt lat="45.9108" lon="4.71937">
        <ele>174</ele>
        <time>2017-08-23T08:49:14Z</time>
      </trkpt>
      <trkpt lat="45.91071" lon="4.7194">
        <ele>174</ele>
        <time>2017-08-23T08:49:16Z</time>
      </trkpt>
      <trkpt lat="45.91068" lon="4.71941">
        <ele>174</ele>
        <time>2017-08-23T08:49:17Z</time>
      </trkpt>
      <trkpt lat="45.91061" lon="4.71942">
        <ele>174</ele>
        <time>2017-08-23T08:49:19Z</time>
      </trkpt>
      <trkpt lat="45.91057" lon="4.71942">
        <ele>174</ele>
        <time>2017-08-23T08:49:20Z</time>
      </trkpt>
      <trkpt lat="45.9105" lon="4.71942">
        <ele>174</ele>
        <time>2017-08-23T08:49:22Z</time>
      </trkpt>
      <trkpt lat="45.91045" lon="4.71942">
        <ele>174</ele>
        <time>2017-08-23T08:49:23Z</time>
      </trkpt>
      <trkpt lat="45.9104" lon="4.71941">
        <ele>174</ele>
        <time>2017-08-23T08:49:24Z</time>
      </trkpt>
      <trkpt lat="45.91035" lon="4.71941">
        <ele>174</ele>
        <time>2017-08-23T08:49:25Z</time>
      </trkpt>
      <trkpt lat="45.9103" lon="4.7194">
        <ele>174</ele>
        <time>2017-08-23T08:49:26Z</time>
      </trkpt>
      <trkpt lat="45.91026" lon="4.71939">
        <ele>174</ele>
        <time>2017-08-23T08:49:27Z</time>
      </trkpt>
      <trkpt lat="45.91021" lon="4.71939">
        <ele>174</ele>
        <time>2017-08-23T08:49:28Z</time>
      </trkpt>
      <trkpt lat="45.91017" lon="4.71939">
        <ele>174</ele>
        <time>2017-08-23T08:49:29Z</time>
      </trkpt>
      <trkpt lat="45.91008" lon="4.7194">
        <ele>173</ele>
        <time>2017-08-23T08:49:31Z</time>
      </trkpt>
      <trkpt lat="45.91005" lon="4.71941">
        <ele>173</ele>
        <time>2017-08-23T08:49:32Z</time>
      </trkpt>
      <trkpt lat="45.90996" lon="4.71943">
        <ele>174</ele>
        <time>2017-08-23T08:49:34Z</time>
      </trkpt>
      <trkpt lat="45.90992" lon="4.71945">
        <ele>174</ele>
        <time>2017-08-23T08:49:35Z</time>
      </trkpt>
      <trkpt lat="45.90987" lon="4.71946">
        <ele>174</ele>
        <time>2017-08-23T08:49:36Z</time>
      </trkpt>
      <trkpt lat="45.90982" lon="4.71949">
        <ele>174</ele>
        <time>2017-08-23T08:49:37Z</time>
      </trkpt>
      <trkpt lat="45.90973" lon="4.71953">
        <ele>174</ele>
        <time>2017-08-23T08:49:39Z</time>
      </trkpt>
      <trkpt lat="45.9097" lon="4.71955">
        <ele>174</ele>
        <time>2017-08-23T08:49:40Z</time>
      </trkpt>
      <trkpt lat="45.90963" lon="4.7196">
        <ele>174</ele>
        <time>2017-08-23T08:49:42Z</time>
      </trkpt>
      <trkpt lat="45.9096" lon="4.71963">
        <ele>174</ele>
        <time>2017-08-23T08:49:43Z</time>
      </trkpt>
      <trkpt lat="45.90953" lon="4.71967">
        <ele>174</ele>
        <time>2017-08-23T08:49:45Z</time>
      </trkpt>
      <trkpt lat="45.90949" lon="4.7197">
        <ele>174</ele>
        <time>2017-08-23T08:49:46Z</time>
      </trkpt>
      <trkpt lat="45.90944" lon="4.71972">
        <ele>174</ele>
        <time>2017-08-23T08:49:47Z</time>
      </trkpt>
      <trkpt lat="45.9094" lon="4.71975">
        <ele>174</ele>
        <time>2017-08-23T08:49:48Z</time>
      </trkpt>
      <trkpt lat="45.90936" lon="4.71977">
        <ele>174</ele>
        <time>2017-08-23T08:49:49Z</time>
      </trkpt>
      <trkpt lat="45.90931" lon="4.7198">
        <ele>174</ele>
        <time>2017-08-23T08:49:50Z</time>
      </trkpt>
      <trkpt lat="45.90926" lon="4.71982">
        <ele>174</ele>
        <time>2017-08-23T08:49:51Z</time>
      </trkpt>
      <trkpt lat="45.90922" lon="4.71985">
        <ele>174</ele>
        <time>2017-08-23T08:49:52Z</time>
      </trkpt>
      <trkpt lat="45.90913" lon="4.7199">
        <ele>174</ele>
        <time>2017-08-23T08:49:54Z</time>
      </trkpt>
      <trkpt lat="45.90909" lon="4.71991">
        <ele>174</ele>
        <time>2017-08-23T08:49:55Z</time>
      </trkpt>
      <trkpt lat="45.90902" lon="4.71995">
        <ele>174</ele>
        <time>2017-08-23T08:49:57Z</time>
      </trkpt>
      <trkpt lat="45.90898" lon="4.71997">
        <ele>174</ele>
        <time>2017-08-23T08:49:58Z</time>
      </trkpt>
      <trkpt lat="45.90891" lon="4.72001">
        <ele>174</ele>
        <time>2017-08-23T08:50:00Z</time>
      </trkpt>
      <trkpt lat="45.90887" lon="4.72003">
        <ele>174</ele>
        <time>2017-08-23T08:50:01Z</time>
      </trkpt>
      <trkpt lat="45.90883" lon="4.72005">
        <ele>174</ele>
        <time>2017-08-23T08:50:02Z</time>
      </trkpt>
      <trkpt lat="45.90879" lon="4.72008">
        <ele>174</ele>
        <time>2017-08-23T08:50:03Z</time>
      </trkpt>
      <trkpt lat="45.9087" lon="4.72011">
        <ele>174</ele>
        <time>2017-08-23T08:50:05Z</time>
      </trkpt>
      <trkpt lat="45.90866" lon="4.72012">
        <ele>174</ele>
        <time>2017-08-23T08:50:06Z</time>
      </trkpt>
      <trkpt lat="45.9086" lon="4.72015">
        <ele>174</ele>
        <time>2017-08-23T08:50:08Z</time>
      </trkpt>
      <trkpt lat="45.90856" lon="4.72016">
        <ele>174</ele>
        <time>2017-08-23T08:50:09Z</time>
      </trkpt>
      <trkpt lat="45.90848" lon="4.7202">
        <ele>174</ele>
        <time>2017-08-23T08:50:11Z</time>
      </trkpt>
      <trkpt lat="45.90844" lon="4.72023">
        <ele>174</ele>
        <time>2017-08-23T08:50:12Z</time>
      </trkpt>
      <trkpt lat="45.90839" lon="4.72025">
        <ele>174</ele>
        <time>2017-08-23T08:50:13Z</time>
      </trkpt>
      <trkpt lat="45.90834" lon="4.72027">
        <ele>174</ele>
        <time>2017-08-23T08:50:14Z</time>
      </trkpt>
      <trkpt lat="45.9083" lon="4.72029">
        <ele>175</ele>
        <time>2017-08-23T08:50:15Z</time>
      </trkpt>
      <trkpt lat="45.90825" lon="4.72032">
        <ele>175</ele>
        <time>2017-08-23T08:50:16Z</time>
      </trkpt>
      <trkpt lat="45.90821" lon="4.72034">
        <ele>175</ele>
        <time>2017-08-23T08:50:17Z</time>
      </trkpt>
      <trkpt lat="45.90816" lon="4.72036">
        <ele>175</ele>
        <time>2017-08-23T08:50:18Z</time>
      </trkpt>
      <trkpt lat="45.90808" lon="4.72039">
        <ele>175</ele>
        <time>2017-08-23T08:50:20Z</time>
      </trkpt>
      <trkpt lat="45.90804" lon="4.72041">
        <ele>175</ele>
        <time>2017-08-23T08:50:21Z</time>
      </trkpt>
      <trkpt lat="45.90796" lon="4.72044">
        <ele>175</ele>
        <time>2017-08-23T08:50:23Z</time>
      </trkpt>
      <trkpt lat="45.90792" lon="4.72046">
        <ele>175</ele>
        <time>2017-08-23T08:50:24Z</time>
      </trkpt>
      <trkpt lat="45.90788" lon="4.72048">
        <ele>175</ele>
        <time>2017-08-23T08:50:25Z</time>
      </trkpt>
      <trkpt lat="45.90783" lon="4.7205">
        <ele>175</ele>
        <time>2017-08-23T08:50:26Z</time>
      </trkpt>
      <trkpt lat="45.90778" lon="4.72053">
        <ele>175</ele>
        <time>2017-08-23T08:50:27Z</time>
      </trkpt>
      <trkpt lat="45.90773" lon="4.72055">
        <ele>175</ele>
        <time>2017-08-23T08:50:28Z</time>
      </trkpt>
      <trkpt lat="45.90768" lon="4.72058">
        <ele>175</ele>
        <time>2017-08-23T08:50:29Z</time>
      </trkpt>
      <trkpt lat="45.90763" lon="4.72061">
        <ele>175</ele>
        <time>2017-08-23T08:50:30Z</time>
      </trkpt>
      <trkpt lat="45.90759" lon="4.72064">
        <ele>174</ele>
        <time>2017-08-23T08:50:31Z</time>
      </trkpt>
      <trkpt lat="45.90755" lon="4.72067">
        <ele>174</ele>
        <time>2017-08-23T08:50:32Z</time>
      </trkpt>
      <trkpt lat="45.90747" lon="4.72072">
        <ele>174</ele>
        <time>2017-08-23T08:50:34Z</time>
      </trkpt>
      <trkpt lat="45.90744" lon="4.72075">
        <ele>174</ele>
        <time>2017-08-23T08:50:35Z</time>
      </trkpt>
      <trkpt lat="45.90738" lon="4.72081">
        <ele>174</ele>
        <time>2017-08-23T08:50:37Z</time>
      </trkpt>
      <trkpt lat="45.90734" lon="4.72083">
        <ele>175</ele>
        <time>2017-08-23T08:50:38Z</time>
      </trkpt>
      <trkpt lat="45.90728" lon="4.72088">
        <ele>174</ele>
        <time>2017-08-23T08:50:40Z</time>
      </trkpt>
      <trkpt lat="45.90724" lon="4.72091">
        <ele>174</ele>
        <time>2017-08-23T08:50:41Z</time>
      </trkpt>
      <trkpt lat="45.9072" lon="4.72094">
        <ele>174</ele>
        <time>2017-08-23T08:50:42Z</time>
      </trkpt>
      <trkpt lat="45.90716" lon="4.72097">
        <ele>174</ele>
        <time>2017-08-23T08:50:43Z</time>
      </trkpt>
      <trkpt lat="45.90708" lon="4.72102">
        <ele>174</ele>
        <time>2017-08-23T08:50:45Z</time>
      </trkpt>
      <trkpt lat="45.90704" lon="4.72105">
        <ele>174</ele>
        <time>2017-08-23T08:50:46Z</time>
      </trkpt>
      <trkpt lat="45.90697" lon="4.72109">
        <ele>174</ele>
        <time>2017-08-23T08:50:48Z</time>
      </trkpt>
      <trkpt lat="45.90693" lon="4.72111">
        <ele>174</ele>
        <time>2017-08-23T08:50:49Z</time>
      </trkpt>
      <trkpt lat="45.90685" lon="4.72114">
        <ele>174</ele>
        <time>2017-08-23T08:50:51Z</time>
      </trkpt>
      <trkpt lat="45.90681" lon="4.72116">
        <ele>174</ele>
        <time>2017-08-23T08:50:52Z</time>
      </trkpt>
      <trkpt lat="45.90676" lon="4.72117">
        <ele>174</ele>
        <time>2017-08-23T08:50:53Z</time>
      </trkpt>
      <trkpt lat="45.90671" lon="4.72119">
        <ele>174</ele>
        <time>2017-08-23T08:50:54Z</time>
      </trkpt>
      <trkpt lat="45.90663" lon="4.72121">
        <ele>175</ele>
        <time>2017-08-23T08:50:56Z</time>
      </trkpt>
      <trkpt lat="45.90659" lon="4.72122">
        <ele>175</ele>
        <time>2017-08-23T08:50:57Z</time>
      </trkpt>
      <trkpt lat="45.90653" lon="4.72123">
        <ele>175</ele>
        <time>2017-08-23T08:50:59Z</time>
      </trkpt>
      <trkpt lat="45.90649" lon="4.72124">
        <ele>175</ele>
        <time>2017-08-23T08:51:00Z</time>
      </trkpt>
      <trkpt lat="45.90641" lon="4.72128">
        <ele>175</ele>
        <time>2017-08-23T08:51:02Z</time>
      </trkpt>
      <trkpt lat="45.90637" lon="4.72129">
        <ele>175</ele>
        <time>2017-08-23T08:51:03Z</time>
      </trkpt>
      <trkpt lat="45.9063" lon="4.72134">
        <ele>175</ele>
        <time>2017-08-23T08:51:05Z</time>
      </trkpt>
      <trkpt lat="45.90626" lon="4.72135">
        <ele>175</ele>
        <time>2017-08-23T08:51:06Z</time>
      </trkpt>
      <trkpt lat="45.9062" lon="4.72139">
        <ele>176</ele>
        <time>2017-08-23T08:51:08Z</time>
      </trkpt>
      <trkpt lat="45.90616" lon="4.72142">
        <ele>176</ele>
        <time>2017-08-23T08:51:09Z</time>
      </trkpt>
      <trkpt lat="45.9061" lon="4.72146">
        <ele>176</ele>
        <time>2017-08-23T08:51:11Z</time>
      </trkpt>
      <trkpt lat="45.90607" lon="4.72149">
        <ele>176</ele>
        <time>2017-08-23T08:51:12Z</time>
      </trkpt>
      <trkpt lat="45.90599" lon="4.72153">
        <ele>176</ele>
        <time>2017-08-23T08:51:14Z</time>
      </trkpt>
      <trkpt lat="45.90595" lon="4.72155">
        <ele>176</ele>
        <time>2017-08-23T08:51:15Z</time>
      </trkpt>
      <trkpt lat="45.90588" lon="4.7216">
        <ele>176</ele>
        <time>2017-08-23T08:51:17Z</time>
      </trkpt>
      <trkpt lat="45.90584" lon="4.72162">
        <ele>176</ele>
        <time>2017-08-23T08:51:18Z</time>
      </trkpt>
      <trkpt lat="45.90577" lon="4.72165">
        <ele>177</ele>
        <time>2017-08-23T08:51:20Z</time>
      </trkpt>
      <trkpt lat="45.90574" lon="4.72166">
        <ele>177</ele>
        <time>2017-08-23T08:51:21Z</time>
      </trkpt>
      <trkpt lat="45.90566" lon="4.72169">
        <ele>176</ele>
        <time>2017-08-23T08:51:24Z</time>
      </trkpt>
      <trkpt lat="45.90563" lon="4.7217">
        <ele>176</ele>
        <time>2017-08-23T08:51:25Z</time>
      </trkpt>
      <trkpt lat="45.90556" lon="4.72173">
        <ele>177</ele>
        <time>2017-08-23T08:51:29Z</time>
      </trkpt>
      <trkpt lat="45.90554" lon="4.72173">
        <ele>177</ele>
        <time>2017-08-23T08:51:30Z</time>
      </trkpt>
      <trkpt lat="45.90546" lon="4.72175">
        <ele>177</ele>
        <time>2017-08-23T08:51:34Z</time>
      </trkpt>
      <trkpt lat="45.90543" lon="4.72176">
        <ele>177</ele>
        <time>2017-08-23T08:51:35Z</time>
      </trkpt>
      <trkpt lat="45.90536" lon="4.72178">
        <ele>177</ele>
        <time>2017-08-23T08:51:37Z</time>
      </trkpt>
      <trkpt lat="45.90533" lon="4.72178">
        <ele>177</ele>
        <time>2017-08-23T08:51:38Z</time>
      </trkpt>
      <trkpt lat="45.90527" lon="4.72179">
        <ele>177</ele>
        <time>2017-08-23T08:51:40Z</time>
      </trkpt>
      <trkpt lat="45.90524" lon="4.7218">
        <ele>177</ele>
        <time>2017-08-23T08:51:41Z</time>
      </trkpt>
      <trkpt lat="45.90518" lon="4.72182">
        <ele>177</ele>
        <time>2017-08-23T08:51:43Z</time>
      </trkpt>
      <trkpt lat="45.90515" lon="4.72184">
        <ele>177</ele>
        <time>2017-08-23T08:51:44Z</time>
      </trkpt>
      <trkpt lat="45.90507" lon="4.72188">
        <ele>177</ele>
        <time>2017-08-23T08:51:47Z</time>
      </trkpt>
      <trkpt lat="45.90503" lon="4.7219">
        <ele>177</ele>
        <time>2017-08-23T08:51:48Z</time>
      </trkpt>
      <trkpt lat="45.90496" lon="4.72192">
        <ele>178</ele>
        <time>2017-08-23T08:51:50Z</time>
      </trkpt>
      <trkpt lat="45.90492" lon="4.72193">
        <ele>178</ele>
        <time>2017-08-23T08:51:51Z</time>
      </trkpt>
      <trkpt lat="45.90484" lon="4.72196">
        <ele>178</ele>
        <time>2017-08-23T08:51:54Z</time>
      </trkpt>
      <trkpt lat="45.90481" lon="4.72197">
        <ele>179</ele>
        <time>2017-08-23T08:51:55Z</time>
      </trkpt>
      <trkpt lat="45.90473" lon="4.72201">
        <ele>179</ele>
        <time>2017-08-23T08:51:58Z</time>
      </trkpt>
      <trkpt lat="45.9047" lon="4.72203">
        <ele>179</ele>
        <time>2017-08-23T08:51:59Z</time>
      </trkpt>
      <trkpt lat="45.90462" lon="4.72206">
        <ele>179</ele>
        <time>2017-08-23T08:52:02Z</time>
      </trkpt>
      <trkpt lat="45.90459" lon="4.72208">
        <ele>179</ele>
        <time>2017-08-23T08:52:03Z</time>
      </trkpt>
      <trkpt lat="45.90453" lon="4.72213">
        <ele>179</ele>
        <time>2017-08-23T08:52:05Z</time>
      </trkpt>
      <trkpt lat="45.90449" lon="4.72215">
        <ele>179</ele>
        <time>2017-08-23T08:52:06Z</time>
      </trkpt>
      <trkpt lat="45.90443" lon="4.72221">
        <ele>179</ele>
        <time>2017-08-23T08:52:08Z</time>
      </trkpt>
      <trkpt lat="45.9044" lon="4.72225">
        <ele>179</ele>
        <time>2017-08-23T08:52:09Z</time>
      </trkpt>
      <trkpt lat="45.90433" lon="4.72229">
        <ele>179</ele>
        <time>2017-08-23T08:52:11Z</time>
      </trkpt>
      <trkpt lat="45.9043" lon="4.72232">
        <ele>179</ele>
        <time>2017-08-23T08:52:12Z</time>
      </trkpt>
      <trkpt lat="45.90425" lon="4.72236">
        <ele>179</ele>
        <time>2017-08-23T08:52:14Z</time>
      </trkpt>
      <trkpt lat="45.90422" lon="4.72238">
        <ele>179</ele>
        <time>2017-08-23T08:52:15Z</time>
      </trkpt>
      <trkpt lat="45.90415" lon="4.72242">
        <ele>179</ele>
        <time>2017-08-23T08:52:17Z</time>
      </trkpt>
      <trkpt lat="45.90411" lon="4.72243">
        <ele>179</ele>
        <time>2017-08-23T08:52:18Z</time>
      </trkpt>
      <trkpt lat="45.90405" lon="4.72246">
        <ele>179</ele>
        <time>2017-08-23T08:52:20Z</time>
      </trkpt>
      <trkpt lat="45.90402" lon="4.72248">
        <ele>179</ele>
        <time>2017-08-23T08:52:21Z</time>
      </trkpt>
      <trkpt lat="45.90395" lon="4.72252">
        <ele>178</ele>
        <time>2017-08-23T08:52:23Z</time>
      </trkpt>
      <trkpt lat="45.90392" lon="4.72254">
        <ele>178</ele>
        <time>2017-08-23T08:52:24Z</time>
      </trkpt>
      <trkpt lat="45.90383" lon="4.72259">
        <ele>178</ele>
        <time>2017-08-23T08:52:27Z</time>
      </trkpt>
      <trkpt lat="45.90381" lon="4.7226">
        <ele>178</ele>
        <time>2017-08-23T08:52:28Z</time>
      </trkpt>
      <trkpt lat="45.90373" lon="4.72263">
        <ele>178</ele>
        <time>2017-08-23T08:52:31Z</time>
      </trkpt>
      <trkpt lat="45.90371" lon="4.72264">
        <ele>178</ele>
        <time>2017-08-23T08:52:32Z</time>
      </trkpt>
      <trkpt lat="45.90364" lon="4.72266">
        <ele>178</ele>
        <time>2017-08-23T08:52:34Z</time>
      </trkpt>
      <trkpt lat="45.9036" lon="4.72267">
        <ele>178</ele>
        <time>2017-08-23T08:52:35Z</time>
      </trkpt>
      <trkpt lat="45.90352" lon="4.72271">
        <ele>178</ele>
        <time>2017-08-23T08:52:37Z</time>
      </trkpt>
      <trkpt lat="45.90349" lon="4.72273">
        <ele>178</ele>
        <time>2017-08-23T08:52:38Z</time>
      </trkpt>
      <trkpt lat="45.90342" lon="4.72274">
        <ele>178</ele>
        <time>2017-08-23T08:52:40Z</time>
      </trkpt>
      <trkpt lat="45.90339" lon="4.72275">
        <ele>178</ele>
        <time>2017-08-23T08:52:41Z</time>
      </trkpt>
      <trkpt lat="45.90331" lon="4.72277">
        <ele>177</ele>
        <time>2017-08-23T08:52:43Z</time>
      </trkpt>
      <trkpt lat="45.90327" lon="4.72278">
        <ele>177</ele>
        <time>2017-08-23T08:52:44Z</time>
      </trkpt>
      <trkpt lat="45.90319" lon="4.72282">
        <ele>177</ele>
        <time>2017-08-23T08:52:46Z</time>
      </trkpt>
      <trkpt lat="45.90316" lon="4.72283">
        <ele>177</ele>
        <time>2017-08-23T08:52:47Z</time>
      </trkpt>
      <trkpt lat="45.90308" lon="4.72286">
        <ele>177</ele>
        <time>2017-08-23T08:52:50Z</time>
      </trkpt>
      <trkpt lat="45.90305" lon="4.72287">
        <ele>177</ele>
        <time>2017-08-23T08:52:51Z</time>
      </trkpt>
      <trkpt lat="45.90299" lon="4.72289">
        <ele>177</ele>
        <time>2017-08-23T08:52:53Z</time>
      </trkpt>
      <trkpt lat="45.90295" lon="4.7229">
        <ele>177</ele>
        <time>2017-08-23T08:52:54Z</time>
      </trkpt>
      <trkpt lat="45.90288" lon="4.72292">
        <ele>177</ele>
        <time>2017-08-23T08:52:56Z</time>
      </trkpt>
      <trkpt lat="45.90284" lon="4.72293">
        <ele>177</ele>
        <time>2017-08-23T08:52:57Z</time>
      </trkpt>
      <trkpt lat="45.90277" lon="4.72295">
        <ele>177</ele>
        <time>2017-08-23T08:53:00Z</time>
      </trkpt>
      <trkpt lat="45.90273" lon="4.72296">
        <ele>177</ele>
        <time>2017-08-23T08:53:01Z</time>
      </trkpt>
      <trkpt lat="45.90267" lon="4.72299">
        <ele>177</ele>
        <time>2017-08-23T08:53:03Z</time>
      </trkpt>
      <trkpt lat="45.90263" lon="4.723">
        <ele>177</ele>
        <time>2017-08-23T08:53:04Z</time>
      </trkpt>
      <trkpt lat="45.90257" lon="4.72302">
        <ele>177</ele>
        <time>2017-08-23T08:53:06Z</time>
      </trkpt>
      <trkpt lat="45.90254" lon="4.72302">
        <ele>177</ele>
        <time>2017-08-23T08:53:07Z</time>
      </trkpt>
      <trkpt lat="45.90248" lon="4.72304">
        <ele>177</ele>
        <time>2017-08-23T08:53:09Z</time>
      </trkpt>
      <trkpt lat="45.90244" lon="4.72305">
        <ele>177</ele>
        <time>2017-08-23T08:53:10Z</time>
      </trkpt>
      <trkpt lat="45.90236" lon="4.72308">
        <ele>177</ele>
        <time>2017-08-23T08:53:12Z</time>
      </trkpt>
      <trkpt lat="45.90232" lon="4.72309">
        <ele>177</ele>
        <time>2017-08-23T08:53:13Z</time>
      </trkpt>
      <trkpt lat="45.90225" lon="4.72312">
        <ele>177</ele>
        <time>2017-08-23T08:53:15Z</time>
      </trkpt>
      <trkpt lat="45.90221" lon="4.72313">
        <ele>177</ele>
        <time>2017-08-23T08:53:16Z</time>
      </trkpt>
      <trkpt lat="45.90214" lon="4.72315">
        <ele>177</ele>
        <time>2017-08-23T08:53:18Z</time>
      </trkpt>
      <trkpt lat="45.90211" lon="4.72315">
        <ele>177</ele>
        <time>2017-08-23T08:53:19Z</time>
      </trkpt>
      <trkpt lat="45.90204" lon="4.72314">
        <ele>177</ele>
        <time>2017-08-23T08:53:22Z</time>
      </trkpt>
      <trkpt lat="45.90202" lon="4.72314">
        <ele>177</ele>
        <time>2017-08-23T08:53:23Z</time>
      </trkpt>
      <trkpt lat="45.90203" lon="4.72304">
        <ele>177</ele>
        <time>2017-08-23T08:54:34Z</time>
      </trkpt>
      <trkpt lat="45.90202" lon="4.723">
        <ele>177</ele>
        <time>2017-08-23T08:54:35Z</time>
      </trkpt>
      <trkpt lat="45.902" lon="4.7229">
        <ele>177</ele>
        <time>2017-08-23T08:54:37Z</time>
      </trkpt>
      <trkpt lat="45.90199" lon="4.72286">
        <ele>177</ele>
        <time>2017-08-23T08:54:38Z</time>
      </trkpt>
      <trkpt lat="45.90199" lon="4.72275">
        <ele>177</ele>
        <time>2017-08-23T08:54:40Z</time>
      </trkpt>
      <trkpt lat="45.90198" lon="4.72269">
        <ele>177</ele>
        <time>2017-08-23T08:54:41Z</time>
      </trkpt>
      <trkpt lat="45.90197" lon="4.72262">
        <ele>177</ele>
        <time>2017-08-23T08:54:42Z</time>
      </trkpt>
      <trkpt lat="45.90196" lon="4.72256">
        <ele>177</ele>
        <time>2017-08-23T08:54:43Z</time>
      </trkpt>
      <trkpt lat="45.90195" lon="4.72243">
        <ele>177</ele>
        <time>2017-08-23T08:54:45Z</time>
      </trkpt>
      <trkpt lat="45.90194" lon="4.72237">
        <ele>177</ele>
        <time>2017-08-23T08:54:46Z</time>
      </trkpt>
      <trkpt lat="45.90193" lon="4.72226">
        <ele>177</ele>
        <time>2017-08-23T08:54:48Z</time>
      </trkpt>
      <trkpt lat="45.90193" lon="4.72221">
        <ele>177</ele>
        <time>2017-08-23T08:54:49Z</time>
      </trkpt>
      <trkpt lat="45.90191" lon="4.72211">
        <ele>177</ele>
        <time>2017-08-23T08:54:51Z</time>
      </trkpt>
      <trkpt lat="45.90191" lon="4.72205">
        <ele>177</ele>
        <time>2017-08-23T08:54:52Z</time>
      </trkpt>
      <trkpt lat="45.90191" lon="4.72198">
        <ele>177</ele>
        <time>2017-08-23T08:54:53Z</time>
      </trkpt>
      <trkpt lat="45.9019" lon="4.72191">
        <ele>177</ele>
        <time>2017-08-23T08:54:54Z</time>
      </trkpt>
      <trkpt lat="45.9019" lon="4.72184">
        <ele>177</ele>
        <time>2017-08-23T08:54:55Z</time>
      </trkpt>
      <trkpt lat="45.9019" lon="4.72178">
        <ele>177</ele>
        <time>2017-08-23T08:54:56Z</time>
      </trkpt>
      <trkpt lat="45.90189" lon="4.72167">
        <ele>178</ele>
        <time>2017-08-23T08:54:58Z</time>
      </trkpt>
      <trkpt lat="45.90189" lon="4.72162">
        <ele>178</ele>
        <time>2017-08-23T08:54:59Z</time>
      </trkpt>
      <trkpt lat="45.90189" lon="4.72151">
        <ele>178</ele>
        <time>2017-08-23T08:55:01Z</time>
      </trkpt>
      <trkpt lat="45.90189" lon="4.72145">
        <ele>178</ele>
        <time>2017-08-23T08:55:02Z</time>
      </trkpt>
      <trkpt lat="45.9019" lon="4.72138">
        <ele>178</ele>
        <time>2017-08-23T08:55:03Z</time>
      </trkpt>
      <trkpt lat="45.9019" lon="4.72131">
        <ele>178</ele>
        <time>2017-08-23T08:55:04Z</time>
      </trkpt>
      <trkpt lat="45.9019" lon="4.72124">
        <ele>178</ele>
        <time>2017-08-23T08:55:05Z</time>
      </trkpt>
      <trkpt lat="45.90188" lon="4.72116">
        <ele>178</ele>
        <time>2017-08-23T08:55:06Z</time>
      </trkpt>
      <trkpt lat="45.90188" lon="4.72109">
        <ele>178</ele>
        <time>2017-08-23T08:55:07Z</time>
      </trkpt>
      <trkpt lat="45.90187" lon="4.72102">
        <ele>178</ele>
        <time>2017-08-23T08:55:08Z</time>
      </trkpt>
      <trkpt lat="45.90186" lon="4.72089">
        <ele>178</ele>
        <time>2017-08-23T08:55:10Z</time>
      </trkpt>
      <trkpt lat="45.90186" lon="4.72083">
        <ele>179</ele>
        <time>2017-08-23T08:55:11Z</time>
      </trkpt>
      <trkpt lat="45.90184" lon="4.72072">
        <ele>179</ele>
        <time>2017-08-23T08:55:13Z</time>
      </trkpt>
      <trkpt lat="45.90184" lon="4.72067">
        <ele>179</ele>
        <time>2017-08-23T08:55:14Z</time>
      </trkpt>
      <trkpt lat="45.90184" lon="4.7206">
        <ele>179</ele>
        <time>2017-08-23T08:55:15Z</time>
      </trkpt>
      <trkpt lat="45.90184" lon="4.72054">
        <ele>179</ele>
        <time>2017-08-23T08:55:16Z</time>
      </trkpt>
      <trkpt lat="45.90183" lon="4.72047">
        <ele>179</ele>
        <time>2017-08-23T08:55:17Z</time>
      </trkpt>
      <trkpt lat="45.90183" lon="4.7204">
        <ele>179</ele>
        <time>2017-08-23T08:55:18Z</time>
      </trkpt>
      <trkpt lat="45.90182" lon="4.72033">
        <ele>179</ele>
        <time>2017-08-23T08:55:19Z</time>
      </trkpt>
      <trkpt lat="45.90182" lon="4.72027">
        <ele>179</ele>
        <time>2017-08-23T08:55:20Z</time>
      </trkpt>
      <trkpt lat="45.90181" lon="4.72015">
        <ele>179</ele>
        <time>2017-08-23T08:55:22Z</time>
      </trkpt>
      <trkpt lat="45.90182" lon="4.72009">
        <ele>179</ele>
        <time>2017-08-23T08:55:23Z</time>
      </trkpt>
      <trkpt lat="45.90182" lon="4.71998">
        <ele>179</ele>
        <time>2017-08-23T08:55:25Z</time>
      </trkpt>
      <trkpt lat="45.90182" lon="4.71991">
        <ele>179</ele>
        <time>2017-08-23T08:55:26Z</time>
      </trkpt>
      <trkpt lat="45.90182" lon="4.71984">
        <ele>179</ele>
        <time>2017-08-23T08:55:27Z</time>
      </trkpt>
      <trkpt lat="45.90182" lon="4.71977">
        <ele>179</ele>
        <time>2017-08-23T08:55:28Z</time>
      </trkpt>
      <trkpt lat="45.90183" lon="4.7197">
        <ele>179</ele>
        <time>2017-08-23T08:55:29Z</time>
      </trkpt>
      <trkpt lat="45.90184" lon="4.71963">
        <ele>179</ele>
        <time>2017-08-23T08:55:30Z</time>
      </trkpt>
      <trkpt lat="45.90186" lon="4.71951">
        <ele>179</ele>
        <time>2017-08-23T08:55:32Z</time>
      </trkpt>
      <trkpt lat="45.90187" lon="4.71945">
        <ele>179</ele>
        <time>2017-08-23T08:55:33Z</time>
      </trkpt>
      <trkpt lat="45.9019" lon="4.71934">
        <ele>179</ele>
        <time>2017-08-23T08:55:35Z</time>
      </trkpt>
      <trkpt lat="45.90192" lon="4.71929">
        <ele>179</ele>
        <time>2017-08-23T08:55:36Z</time>
      </trkpt>
      <trkpt lat="45.90195" lon="4.71919">
        <ele>179</ele>
        <time>2017-08-23T08:55:38Z</time>
      </trkpt>
      <trkpt lat="45.90197" lon="4.71915">
        <ele>179</ele>
        <time>2017-08-23T08:55:39Z</time>
      </trkpt>
      <trkpt lat="45.90202" lon="4.71904">
        <ele>180</ele>
        <time>2017-08-23T08:55:41Z</time>
      </trkpt>
      <trkpt lat="45.90205" lon="4.71898">
        <ele>180</ele>
        <time>2017-08-23T08:55:42Z</time>
      </trkpt>
      <trkpt lat="45.90208" lon="4.71893">
        <ele>180</ele>
        <time>2017-08-23T08:55:43Z</time>
      </trkpt>
      <trkpt lat="45.90211" lon="4.71888">
        <ele>180</ele>
        <time>2017-08-23T08:55:44Z</time>
      </trkpt>
      <trkpt lat="45.90216" lon="4.71878">
        <ele>180</ele>
        <time>2017-08-23T08:55:46Z</time>
      </trkpt>
      <trkpt lat="45.90218" lon="4.71874">
        <ele>180</ele>
        <time>2017-08-23T08:55:47Z</time>
      </trkpt>
      <trkpt lat="45.90224" lon="4.71866">
        <ele>181</ele>
        <time>2017-08-23T08:55:49Z</time>
      </trkpt>
      <trkpt lat="45.90226" lon="4.71861">
        <ele>181</ele>
        <time>2017-08-23T08:55:50Z</time>
      </trkpt>
      <trkpt lat="45.90232" lon="4.71852">
        <ele>181</ele>
        <time>2017-08-23T08:55:52Z</time>
      </trkpt>
      <trkpt lat="45.90235" lon="4.71847">
        <ele>181</ele>
        <time>2017-08-23T08:55:53Z</time>
      </trkpt>
      <trkpt lat="45.90238" lon="4.71842">
        <ele>182</ele>
        <time>2017-08-23T08:55:54Z</time>
      </trkpt>
      <trkpt lat="45.90241" lon="4.71837">
        <ele>182</ele>
        <time>2017-08-23T08:55:55Z</time>
      </trkpt>
      <trkpt lat="45.90246" lon="4.71827">
        <ele>183</ele>
        <time>2017-08-23T08:55:57Z</time>
      </trkpt>
      <trkpt lat="45.90248" lon="4.71821">
        <ele>183</ele>
        <time>2017-08-23T08:55:58Z</time>
      </trkpt>
      <trkpt lat="45.9025" lon="4.71815">
        <ele>183</ele>
        <time>2017-08-23T08:55:59Z</time>
      </trkpt>
      <trkpt lat="45.90252" lon="4.71808">
        <ele>182</ele>
        <time>2017-08-23T08:56:00Z</time>
      </trkpt>
      <trkpt lat="45.90253" lon="4.71802">
        <ele>182</ele>
        <time>2017-08-23T08:56:01Z</time>
      </trkpt>
      <trkpt lat="45.90254" lon="4.71795">
        <ele>182</ele>
        <time>2017-08-23T08:56:02Z</time>
      </trkpt>
      <trkpt lat="45.90255" lon="4.71783">
        <ele>183</ele>
        <time>2017-08-23T08:56:04Z</time>
      </trkpt>
      <trkpt lat="45.90256" lon="4.71778">
        <ele>183</ele>
        <time>2017-08-23T08:56:05Z</time>
      </trkpt>
      <trkpt lat="45.90257" lon="4.71767">
        <ele>183</ele>
        <time>2017-08-23T08:56:07Z</time>
      </trkpt>
      <trkpt lat="45.90257" lon="4.71762">
        <ele>184</ele>
        <time>2017-08-23T08:56:08Z</time>
      </trkpt>
      <trkpt lat="45.90258" lon="4.71751">
        <ele>184</ele>
        <time>2017-08-23T08:56:11Z</time>
      </trkpt>
      <trkpt lat="45.90258" lon="4.71747">
        <ele>185</ele>
        <time>2017-08-23T08:56:12Z</time>
      </trkpt>
      <trkpt lat="45.90259" lon="4.71737">
        <ele>186</ele>
        <time>2017-08-23T08:56:15Z</time>
      </trkpt>
      <trkpt lat="45.90259" lon="4.71733">
        <ele>186</ele>
        <time>2017-08-23T08:56:16Z</time>
      </trkpt>
      <trkpt lat="45.90261" lon="4.71721">
        <ele>186</ele>
        <time>2017-08-23T08:56:20Z</time>
      </trkpt>
      <trkpt lat="45.90262" lon="4.71718">
        <ele>187</ele>
        <time>2017-08-23T08:56:21Z</time>
      </trkpt>
      <trkpt lat="45.90263" lon="4.71707">
        <ele>187</ele>
        <time>2017-08-23T08:56:25Z</time>
      </trkpt>
      <trkpt lat="45.90264" lon="4.71704">
        <ele>187</ele>
        <time>2017-08-23T08:56:26Z</time>
      </trkpt>
      <trkpt lat="45.90266" lon="4.71692">
        <ele>188</ele>
        <time>2017-08-23T08:56:30Z</time>
      </trkpt>
      <trkpt lat="45.90267" lon="4.71689">
        <ele>188</ele>
        <time>2017-08-23T08:56:31Z</time>
      </trkpt>
      <trkpt lat="45.90268" lon="4.7168">
        <ele>189</ele>
        <time>2017-08-23T08:56:34Z</time>
      </trkpt>
      <trkpt lat="45.90269" lon="4.71676">
        <ele>189</ele>
        <time>2017-08-23T08:56:35Z</time>
      </trkpt>
      <trkpt lat="45.90269" lon="4.71665">
        <ele>192</ele>
        <time>2017-08-23T08:56:39Z</time>
      </trkpt>
      <trkpt lat="45.90269" lon="4.71661">
        <ele>192</ele>
        <time>2017-08-23T08:56:40Z</time>
      </trkpt>
      <trkpt lat="45.9027" lon="4.71651">
        <ele>192</ele>
        <time>2017-08-23T08:56:43Z</time>
      </trkpt>
      <trkpt lat="45.9027" lon="4.71647">
        <ele>192</ele>
        <time>2017-08-23T08:56:44Z</time>
      </trkpt>
      <trkpt lat="45.90272" lon="4.71637">
        <ele>192</ele>
        <time>2017-08-23T08:56:47Z</time>
      </trkpt>
      <trkpt lat="45.90272" lon="4.71634">
        <ele>192</ele>
        <time>2017-08-23T08:56:48Z</time>
      </trkpt>
      <trkpt lat="45.90273" lon="4.71621">
        <ele>193</ele>
        <time>2017-08-23T08:56:52Z</time>
      </trkpt>
      <trkpt lat="45.90273" lon="4.71618">
        <ele>193</ele>
        <time>2017-08-23T08:56:53Z</time>
      </trkpt>
      <trkpt lat="45.90274" lon="4.71608">
        <ele>193</ele>
        <time>2017-08-23T08:56:56Z</time>
      </trkpt>
      <trkpt lat="45.90274" lon="4.71605">
        <ele>193</ele>
        <time>2017-08-23T08:56:57Z</time>
      </trkpt>
      <trkpt lat="45.90275" lon="4.71595">
        <ele>193</ele>
        <time>2017-08-23T08:57:00Z</time>
      </trkpt>
      <trkpt lat="45.90275" lon="4.71592">
        <ele>194</ele>
        <time>2017-08-23T08:57:01Z</time>
      </trkpt>
      <trkpt lat="45.90276" lon="4.71582">
        <ele>195</ele>
        <time>2017-08-23T08:57:04Z</time>
      </trkpt>
      <trkpt lat="45.90277" lon="4.71578">
        <ele>195</ele>
        <time>2017-08-23T08:57:05Z</time>
      </trkpt>
      <trkpt lat="45.90277" lon="4.71567">
        <ele>195</ele>
        <time>2017-08-23T08:57:08Z</time>
      </trkpt>
      <trkpt lat="45.90278" lon="4.71565">
        <ele>195</ele>
        <time>2017-08-23T08:57:09Z</time>
      </trkpt>
      <trkpt lat="45.90278" lon="4.71554">
        <ele>195</ele>
        <time>2017-08-23T08:57:12Z</time>
      </trkpt>
      <trkpt lat="45.90277" lon="4.71551">
        <ele>195</ele>
        <time>2017-08-23T08:57:13Z</time>
      </trkpt>
      <trkpt lat="45.9027" lon="4.71547">
        <ele>196</ele>
        <time>2017-08-23T08:57:16Z</time>
      </trkpt>
      <trkpt lat="45.90267" lon="4.71547">
        <ele>196</ele>
        <time>2017-08-23T08:57:17Z</time>
      </trkpt>
      <trkpt lat="45.90261" lon="4.71548">
        <ele>196</ele>
        <time>2017-08-23T08:57:19Z</time>
      </trkpt>
      <trkpt lat="45.90258" lon="4.71548">
        <ele>196</ele>
        <time>2017-08-23T08:57:20Z</time>
      </trkpt>
      <trkpt lat="45.90249" lon="4.7155">
        <ele>198</ele>
        <time>2017-08-23T08:57:23Z</time>
      </trkpt>
      <trkpt lat="45.90247" lon="4.7155">
        <ele>198</ele>
        <time>2017-08-23T08:57:24Z</time>
      </trkpt>
      <trkpt lat="45.90238" lon="4.71552">
        <ele>198</ele>
        <time>2017-08-23T08:57:28Z</time>
      </trkpt>
      <trkpt lat="45.90235" lon="4.71552">
        <ele>198</ele>
        <time>2017-08-23T08:57:29Z</time>
      </trkpt>
      <trkpt lat="45.90228" lon="4.71552">
        <ele>199</ele>
        <time>2017-08-23T08:57:32Z</time>
      </trkpt>
      <trkpt lat="45.90225" lon="4.71552">
        <ele>199</ele>
        <time>2017-08-23T08:57:33Z</time>
      </trkpt>
      <trkpt lat="45.90218" lon="4.71551">
        <ele>199</ele>
        <time>2017-08-23T08:57:36Z</time>
      </trkpt>
      <trkpt lat="45.90215" lon="4.71551">
        <ele>199</ele>
        <time>2017-08-23T08:57:37Z</time>
      </trkpt>
      <trkpt lat="45.90208" lon="4.7155">
        <ele>199</ele>
        <time>2017-08-23T08:57:40Z</time>
      </trkpt>
      <trkpt lat="45.90205" lon="4.7155">
        <ele>199</ele>
        <time>2017-08-23T08:57:41Z</time>
      </trkpt>
      <trkpt lat="45.90197" lon="4.71549">
        <ele>199</ele>
        <time>2017-08-23T08:57:44Z</time>
      </trkpt>
      <trkpt lat="45.90194" lon="4.71549">
        <ele>199</ele>
        <time>2017-08-23T08:57:45Z</time>
      </trkpt>
      <trkpt lat="45.90186" lon="4.71549">
        <ele>200</ele>
        <time>2017-08-23T08:57:48Z</time>
      </trkpt>
      <trkpt lat="45.90183" lon="4.71549">
        <ele>200</ele>
        <time>2017-08-23T08:57:49Z</time>
      </trkpt>
      <trkpt lat="45.90175" lon="4.71547">
        <ele>200</ele>
        <time>2017-08-23T08:57:53Z</time>
      </trkpt>
      <trkpt lat="45.90173" lon="4.71547">
        <ele>200</ele>
        <time>2017-08-23T08:57:54Z</time>
      </trkpt>
      <trkpt lat="45.90166" lon="4.71545">
        <ele>201</ele>
        <time>2017-08-23T08:57:57Z</time>
      </trkpt>
      <trkpt lat="45.90163" lon="4.71544">
        <ele>201</ele>
        <time>2017-08-23T08:57:58Z</time>
      </trkpt>
      <trkpt lat="45.90156" lon="4.71543">
        <ele>201</ele>
        <time>2017-08-23T08:58:01Z</time>
      </trkpt>
      <trkpt lat="45.90154" lon="4.71542">
        <ele>201</ele>
        <time>2017-08-23T08:58:02Z</time>
      </trkpt>
      <trkpt lat="45.90147" lon="4.71538">
        <ele>201</ele>
        <time>2017-08-23T08:58:04Z</time>
      </trkpt>
      <trkpt lat="45.90144" lon="4.71538">
        <ele>201</ele>
        <time>2017-08-23T08:58:05Z</time>
      </trkpt>
      <trkpt lat="45.90138" lon="4.71539">
        <ele>201</ele>
        <time>2017-08-23T08:58:07Z</time>
      </trkpt>
      <trkpt lat="45.90134" lon="4.71537">
        <ele>201</ele>
        <time>2017-08-23T08:58:08Z</time>
      </trkpt>
      <trkpt lat="45.90127" lon="4.71536">
        <ele>201</ele>
        <time>2017-08-23T08:58:10Z</time>
      </trkpt>
      <trkpt lat="45.90123" lon="4.71533">
        <ele>201</ele>
        <time>2017-08-23T08:58:11Z</time>
      </trkpt>
      <trkpt lat="45.90117" lon="4.71532">
        <ele>201</ele>
        <time>2017-08-23T08:58:14Z</time>
      </trkpt>
      <trkpt lat="45.90114" lon="4.71532">
        <ele>201</ele>
        <time>2017-08-23T08:58:15Z</time>
      </trkpt>
      <trkpt lat="45.90108" lon="4.7153">
        <ele>201</ele>
        <time>2017-08-23T08:58:17Z</time>
      </trkpt>
      <trkpt lat="45.90104" lon="4.7153">
        <ele>201</ele>
        <time>2017-08-23T08:58:18Z</time>
      </trkpt>
      <trkpt lat="45.90098" lon="4.7153">
        <ele>201</ele>
        <time>2017-08-23T08:58:20Z</time>
      </trkpt>
      <trkpt lat="45.90094" lon="4.71529">
        <ele>201</ele>
        <time>2017-08-23T08:58:21Z</time>
      </trkpt>
      <trkpt lat="45.90086" lon="4.71529">
        <ele>201</ele>
        <time>2017-08-23T08:58:23Z</time>
      </trkpt>
      <trkpt lat="45.90082" lon="4.71529">
        <ele>199</ele>
        <time>2017-08-23T08:58:24Z</time>
      </trkpt>
      <trkpt lat="45.90073" lon="4.7153">
        <ele>198</ele>
        <time>2017-08-23T08:58:26Z</time>
      </trkpt>
      <trkpt lat="45.90068" lon="4.71529">
        <ele>198</ele>
        <time>2017-08-23T08:58:27Z</time>
      </trkpt>
      <trkpt lat="45.90062" lon="4.7153">
        <ele>198</ele>
        <time>2017-08-23T08:58:28Z</time>
      </trkpt>
      <trkpt lat="45.90057" lon="4.71529">
        <ele>198</ele>
        <time>2017-08-23T08:58:29Z</time>
      </trkpt>
      <trkpt lat="45.90051" lon="4.7153">
        <ele>198</ele>
        <time>2017-08-23T08:58:30Z</time>
      </trkpt>
      <trkpt lat="45.90045" lon="4.7153">
        <ele>197</ele>
        <time>2017-08-23T08:58:31Z</time>
      </trkpt>
      <trkpt lat="45.90038" lon="4.71531">
        <ele>197</ele>
        <time>2017-08-23T08:58:32Z</time>
      </trkpt>
      <trkpt lat="45.90031" lon="4.71531">
        <ele>197</ele>
        <time>2017-08-23T08:58:33Z</time>
      </trkpt>
      <trkpt lat="45.90024" lon="4.71531">
        <ele>197</ele>
        <time>2017-08-23T08:58:34Z</time>
      </trkpt>
      <trkpt lat="45.90017" lon="4.71531">
        <ele>197</ele>
        <time>2017-08-23T08:58:35Z</time>
      </trkpt>
      <trkpt lat="45.90009" lon="4.71532">
        <ele>196</ele>
        <time>2017-08-23T08:58:36Z</time>
      </trkpt>
      <trkpt lat="45.90001" lon="4.71533">
        <ele>196</ele>
        <time>2017-08-23T08:58:37Z</time>
      </trkpt>
      <trkpt lat="45.89993" lon="4.71533">
        <ele>194</ele>
        <time>2017-08-23T08:58:38Z</time>
      </trkpt>
      <trkpt lat="45.89985" lon="4.71534">
        <ele>194</ele>
        <time>2017-08-23T08:58:39Z</time>
      </trkpt>
      <trkpt lat="45.89976" lon="4.71534">
        <ele>194</ele>
        <time>2017-08-23T08:58:40Z</time>
      </trkpt>
      <trkpt lat="45.89967" lon="4.71534">
        <ele>194</ele>
        <time>2017-08-23T08:58:41Z</time>
      </trkpt>
      <trkpt lat="45.89958" lon="4.71533">
        <ele>194</ele>
        <time>2017-08-23T08:58:42Z</time>
      </trkpt>
      <trkpt lat="45.89949" lon="4.71534">
        <ele>193</ele>
        <time>2017-08-23T08:58:43Z</time>
      </trkpt>
      <trkpt lat="45.8994" lon="4.71534">
        <ele>193</ele>
        <time>2017-08-23T08:58:44Z</time>
      </trkpt>
      <trkpt lat="45.89931" lon="4.71535">
        <ele>193</ele>
        <time>2017-08-23T08:58:45Z</time>
      </trkpt>
      <trkpt lat="45.89921" lon="4.71536">
        <ele>193</ele>
        <time>2017-08-23T08:58:46Z</time>
      </trkpt>
      <trkpt lat="45.89912" lon="4.71538">
        <ele>193</ele>
        <time>2017-08-23T08:58:47Z</time>
      </trkpt>
      <trkpt lat="45.89903" lon="4.7154">
        <ele>193</ele>
        <time>2017-08-23T08:58:48Z</time>
      </trkpt>
      <trkpt lat="45.89893" lon="4.71542">
        <ele>193</ele>
        <time>2017-08-23T08:58:49Z</time>
      </trkpt>
      <trkpt lat="45.89885" lon="4.71543">
        <ele>192</ele>
        <time>2017-08-23T08:58:50Z</time>
      </trkpt>
      <trkpt lat="45.89876" lon="4.71544">
        <ele>192</ele>
        <time>2017-08-23T08:58:51Z</time>
      </trkpt>
      <trkpt lat="45.89868" lon="4.71545">
        <ele>192</ele>
        <time>2017-08-23T08:58:52Z</time>
      </trkpt>
      <trkpt lat="45.89859" lon="4.71546">
        <ele>192</ele>
        <time>2017-08-23T08:58:53Z</time>
      </trkpt>
      <trkpt lat="45.89851" lon="4.71546">
        <ele>192</ele>
        <time>2017-08-23T08:58:54Z</time>
      </trkpt>
      <trkpt lat="45.89844" lon="4.71546">
        <ele>192</ele>
        <time>2017-08-23T08:58:55Z</time>
      </trkpt>
      <trkpt lat="45.89837" lon="4.71546">
        <ele>192</ele>
        <time>2017-08-23T08:58:56Z</time>
      </trkpt>
      <trkpt lat="45.8983" lon="4.71545">
        <ele>192</ele>
        <time>2017-08-23T08:58:57Z</time>
      </trkpt>
      <trkpt lat="45.89825" lon="4.71545">
        <ele>192</ele>
        <time>2017-08-23T08:58:58Z</time>
      </trkpt>
      <trkpt lat="45.8982" lon="4.71546">
        <ele>192</ele>
        <time>2017-08-23T08:58:59Z</time>
      </trkpt>
      <trkpt lat="45.89812" lon="4.71545">
        <ele>192</ele>
        <time>2017-08-23T08:59:01Z</time>
      </trkpt>
      <trkpt lat="45.89808" lon="4.71545">
        <ele>192</ele>
        <time>2017-08-23T08:59:02Z</time>
      </trkpt>
      <trkpt lat="45.89802" lon="4.71542">
        <ele>192</ele>
        <time>2017-08-23T08:59:04Z</time>
      </trkpt>
      <trkpt lat="45.89797" lon="4.71541">
        <ele>192</ele>
        <time>2017-08-23T08:59:05Z</time>
      </trkpt>
      <trkpt lat="45.89789" lon="4.71539">
        <ele>192</ele>
        <time>2017-08-23T08:59:07Z</time>
      </trkpt>
      <trkpt lat="45.89785" lon="4.71539">
        <ele>192</ele>
        <time>2017-08-23T08:59:08Z</time>
      </trkpt>
      <trkpt lat="45.89776" lon="4.7154">
        <ele>192</ele>
        <time>2017-08-23T08:59:10Z</time>
      </trkpt>
      <trkpt lat="45.89772" lon="4.7154">
        <ele>192</ele>
        <time>2017-08-23T08:59:11Z</time>
      </trkpt>
      <trkpt lat="45.89767" lon="4.7154">
        <ele>192</ele>
        <time>2017-08-23T08:59:12Z</time>
      </trkpt>
      <trkpt lat="45.89763" lon="4.7154">
        <ele>192</ele>
        <time>2017-08-23T08:59:13Z</time>
      </trkpt>
      <trkpt lat="45.89758" lon="4.7154">
        <ele>192</ele>
        <time>2017-08-23T08:59:14Z</time>
      </trkpt>
      <trkpt lat="45.89752" lon="4.71541">
        <ele>192</ele>
        <time>2017-08-23T08:59:15Z</time>
      </trkpt>
      <trkpt lat="45.89747" lon="4.71541">
        <ele>192</ele>
        <time>2017-08-23T08:59:16Z</time>
      </trkpt>
      <trkpt lat="45.89743" lon="4.71542">
        <ele>192</ele>
        <time>2017-08-23T08:59:17Z</time>
      </trkpt>
      <trkpt lat="45.89734" lon="4.71542">
        <ele>192</ele>
        <time>2017-08-23T08:59:19Z</time>
      </trkpt>
      <trkpt lat="45.8973" lon="4.71542">
        <ele>192</ele>
        <time>2017-08-23T08:59:20Z</time>
      </trkpt>
      <trkpt lat="45.89722" lon="4.71542">
        <ele>192</ele>
        <time>2017-08-23T08:59:22Z</time>
      </trkpt>
      <trkpt lat="45.89717" lon="4.71543">
        <ele>192</ele>
        <time>2017-08-23T08:59:23Z</time>
      </trkpt>
      <trkpt lat="45.89713" lon="4.71544">
        <ele>192</ele>
        <time>2017-08-23T08:59:24Z</time>
      </trkpt>
      <trkpt lat="45.89708" lon="4.71544">
        <ele>192</ele>
        <time>2017-08-23T08:59:25Z</time>
      </trkpt>
      <trkpt lat="45.897" lon="4.71544">
        <ele>193</ele>
        <time>2017-08-23T08:59:27Z</time>
      </trkpt>
      <trkpt lat="45.89696" lon="4.71544">
        <ele>193</ele>
        <time>2017-08-23T08:59:28Z</time>
      </trkpt>
      <trkpt lat="45.8969" lon="4.71544">
        <ele>193</ele>
        <time>2017-08-23T08:59:29Z</time>
      </trkpt>
      <trkpt lat="45.89686" lon="4.71543">
        <ele>193</ele>
        <time>2017-08-23T08:59:30Z</time>
      </trkpt>
      <trkpt lat="45.89681" lon="4.71543">
        <ele>193</ele>
        <time>2017-08-23T08:59:31Z</time>
      </trkpt>
      <trkpt lat="45.89676" lon="4.71543">
        <ele>193</ele>
        <time>2017-08-23T08:59:32Z</time>
      </trkpt>
      <trkpt lat="45.89671" lon="4.71543">
        <ele>193</ele>
        <time>2017-08-23T08:59:33Z</time>
      </trkpt>
      <trkpt lat="45.89666" lon="4.71544">
        <ele>193</ele>
        <time>2017-08-23T08:59:34Z</time>
      </trkpt>
      <trkpt lat="45.89659" lon="4.71545">
        <ele>193</ele>
        <time>2017-08-23T08:59:36Z</time>
      </trkpt>
      <trkpt lat="45.89656" lon="4.71547">
        <ele>193</ele>
        <time>2017-08-23T08:59:37Z</time>
      </trkpt>
      <trkpt lat="45.89651" lon="4.71551">
        <ele>193</ele>
        <time>2017-08-23T08:59:39Z</time>
      </trkpt>
      <trkpt lat="45.89648" lon="4.71554">
        <ele>193</ele>
        <time>2017-08-23T08:59:40Z</time>
      </trkpt>
      <trkpt lat="45.89642" lon="4.71558">
        <ele>193</ele>
        <time>2017-08-23T08:59:42Z</time>
      </trkpt>
      <trkpt lat="45.8964" lon="4.71561">
        <ele>193</ele>
        <time>2017-08-23T08:59:43Z</time>
      </trkpt>
      <trkpt lat="45.89632" lon="4.71565">
        <ele>193</ele>
        <time>2017-08-23T08:59:46Z</time>
      </trkpt>
      <trkpt lat="45.8963" lon="4.71567">
        <ele>193</ele>
        <time>2017-08-23T08:59:47Z</time>
      </trkpt>
      <trkpt lat="45.89632" lon="4.71572">
        <ele>193</ele>
        <time>2017-08-23T08:59:57Z</time>
      </trkpt>
      <trkpt lat="45.89631" lon="4.71571">
        <ele>193</ele>
        <time>2017-08-23T08:59:58Z</time>
      </trkpt>
      <trkpt lat="45.89628" lon="4.71569">
        <ele>193</ele>
        <time>2017-08-23T09:00:16Z</time>
      </trkpt>
      <trkpt lat="45.8963" lon="4.7157">
        <ele>193</ele>
        <time>2017-08-23T09:00:17Z</time>
      </trkpt>
      <trkpt lat="45.89638" lon="4.71574">
        <ele>193</ele>
        <time>2017-08-23T09:00:20Z</time>
      </trkpt>
      <trkpt lat="45.89641" lon="4.71579">
        <ele>193</ele>
        <time>2017-08-23T09:00:21Z</time>
      </trkpt>
      <trkpt lat="45.89642" lon="4.7159">
        <ele>191</ele>
        <time>2017-08-23T09:00:23Z</time>
      </trkpt>
      <trkpt lat="45.89643" lon="4.71596">
        <ele>191</ele>
        <time>2017-08-23T09:00:24Z</time>
      </trkpt>
      <trkpt lat="45.89643" lon="4.71608">
        <ele>190</ele>
        <time>2017-08-23T09:00:26Z</time>
      </trkpt>
      <trkpt lat="45.89644" lon="4.71615">
        <ele>190</ele>
        <time>2017-08-23T09:00:27Z</time>
      </trkpt>
      <trkpt lat="45.89645" lon="4.71622">
        <ele>190</ele>
        <time>2017-08-23T09:00:28Z</time>
      </trkpt>
      <trkpt lat="45.89646" lon="4.71629">
        <ele>190</ele>
        <time>2017-08-23T09:00:29Z</time>
      </trkpt>
      <trkpt lat="45.89647" lon="4.71636">
        <ele>189</ele>
        <time>2017-08-23T09:00:30Z</time>
      </trkpt>
      <trkpt lat="45.89648" lon="4.71644">
        <ele>189</ele>
        <time>2017-08-23T09:00:31Z</time>
      </trkpt>
      <trkpt lat="45.89649" lon="4.71652">
        <ele>189</ele>
        <time>2017-08-23T09:00:32Z</time>
      </trkpt>
      <trkpt lat="45.8965" lon="4.71661">
        <ele>188</ele>
        <time>2017-08-23T09:00:33Z</time>
      </trkpt>
      <trkpt lat="45.89651" lon="4.71671">
        <ele>186</ele>
        <time>2017-08-23T09:00:34Z</time>
      </trkpt>
      <trkpt lat="45.89653" lon="4.71681">
        <ele>186</ele>
        <time>2017-08-23T09:00:35Z</time>
      </trkpt>
      <trkpt lat="45.89654" lon="4.71692">
        <ele>186</ele>
        <time>2017-08-23T09:00:36Z</time>
      </trkpt>
      <trkpt lat="45.89656" lon="4.71703">
        <ele>185</ele>
        <time>2017-08-23T09:00:37Z</time>
      </trkpt>
      <trkpt lat="45.89657" lon="4.71715">
        <ele>185</ele>
        <time>2017-08-23T09:00:38Z</time>
      </trkpt>
      <trkpt lat="45.89658" lon="4.71728">
        <ele>184</ele>
        <time>2017-08-23T09:00:39Z</time>
      </trkpt>
      <trkpt lat="45.8966" lon="4.7174">
        <ele>184</ele>
        <time>2017-08-23T09:00:40Z</time>
      </trkpt>
      <trkpt lat="45.89661" lon="4.71753">
        <ele>183</ele>
        <time>2017-08-23T09:00:41Z</time>
      </trkpt>
      <trkpt lat="45.89662" lon="4.71766">
        <ele>183</ele>
        <time>2017-08-23T09:00:42Z</time>
      </trkpt>
      <trkpt lat="45.89664" lon="4.71779">
        <ele>182</ele>
        <time>2017-08-23T09:00:43Z</time>
      </trkpt>
      <trkpt lat="45.89664" lon="4.71792">
        <ele>182</ele>
        <time>2017-08-23T09:00:44Z</time>
      </trkpt>
      <trkpt lat="45.89665" lon="4.71804">
        <ele>182</ele>
        <time>2017-08-23T09:00:45Z</time>
      </trkpt>
      <trkpt lat="45.89665" lon="4.71817">
        <ele>181</ele>
        <time>2017-08-23T09:00:46Z</time>
      </trkpt>
      <trkpt lat="45.89665" lon="4.7183">
        <ele>181</ele>
        <time>2017-08-23T09:00:47Z</time>
      </trkpt>
      <trkpt lat="45.89665" lon="4.71842">
        <ele>181</ele>
        <time>2017-08-23T09:00:48Z</time>
      </trkpt>
      <trkpt lat="45.89665" lon="4.71853">
        <ele>181</ele>
        <time>2017-08-23T09:00:49Z</time>
      </trkpt>
      <trkpt lat="45.89666" lon="4.71865">
        <ele>181</ele>
        <time>2017-08-23T09:00:50Z</time>
      </trkpt>
      <trkpt lat="45.89666" lon="4.71876">
        <ele>181</ele>
        <time>2017-08-23T09:00:51Z</time>
      </trkpt>
      <trkpt lat="45.89666" lon="4.71887">
        <ele>181</ele>
        <time>2017-08-23T09:00:52Z</time>
      </trkpt>
      <trkpt lat="45.89666" lon="4.71897">
        <ele>181</ele>
        <time>2017-08-23T09:00:53Z</time>
      </trkpt>
      <trkpt lat="45.89665" lon="4.71906">
        <ele>181</ele>
        <time>2017-08-23T09:00:54Z</time>
      </trkpt>
      <trkpt lat="45.89664" lon="4.71916">
        <ele>181</ele>
        <time>2017-08-23T09:00:55Z</time>
      </trkpt>
      <trkpt lat="45.89664" lon="4.71926">
        <ele>181</ele>
        <time>2017-08-23T09:00:56Z</time>
      </trkpt>
      <trkpt lat="45.89664" lon="4.71935">
        <ele>181</ele>
        <time>2017-08-23T09:00:57Z</time>
      </trkpt>
      <trkpt lat="45.89663" lon="4.71944">
        <ele>181</ele>
        <time>2017-08-23T09:00:58Z</time>
      </trkpt>
      <trkpt lat="45.89663" lon="4.71952">
        <ele>181</ele>
        <time>2017-08-23T09:00:59Z</time>
      </trkpt>
      <trkpt lat="45.89663" lon="4.71959">
        <ele>181</ele>
        <time>2017-08-23T09:01:00Z</time>
      </trkpt>
      <trkpt lat="45.89663" lon="4.71967">
        <ele>181</ele>
        <time>2017-08-23T09:01:01Z</time>
      </trkpt>
      <trkpt lat="45.89663" lon="4.71975">
        <ele>181</ele>
        <time>2017-08-23T09:01:02Z</time>
      </trkpt>
      <trkpt lat="45.89663" lon="4.71982">
        <ele>181</ele>
        <time>2017-08-23T09:01:03Z</time>
      </trkpt>
      <trkpt lat="45.89663" lon="4.71989">
        <ele>181</ele>
        <time>2017-08-23T09:01:04Z</time>
      </trkpt>
      <trkpt lat="45.89662" lon="4.72001">
        <ele>181</ele>
        <time>2017-08-23T09:01:06Z</time>
      </trkpt>
      <trkpt lat="45.89662" lon="4.72008">
        <ele>181</ele>
        <time>2017-08-23T09:01:07Z</time>
      </trkpt>
      <trkpt lat="45.89662" lon="4.72014">
        <ele>181</ele>
        <time>2017-08-23T09:01:08Z</time>
      </trkpt>
      <trkpt lat="45.89662" lon="4.72021">
        <ele>180</ele>
        <time>2017-08-23T09:01:09Z</time>
      </trkpt>
      <trkpt lat="45.89662" lon="4.72028">
        <ele>180</ele>
        <time>2017-08-23T09:01:10Z</time>
      </trkpt>
      <trkpt lat="45.89662" lon="4.72034">
        <ele>180</ele>
        <time>2017-08-23T09:01:11Z</time>
      </trkpt>
      <trkpt lat="45.8966" lon="4.72046">
        <ele>180</ele>
        <time>2017-08-23T09:01:13Z</time>
      </trkpt>
      <trkpt lat="45.89659" lon="4.72051">
        <ele>180</ele>
        <time>2017-08-23T09:01:14Z</time>
      </trkpt>
      <trkpt lat="45.89659" lon="4.72062">
        <ele>180</ele>
        <time>2017-08-23T09:01:16Z</time>
      </trkpt>
      <trkpt lat="45.89659" lon="4.72067">
        <ele>180</ele>
        <time>2017-08-23T09:01:17Z</time>
      </trkpt>
      <trkpt lat="45.89659" lon="4.72074">
        <ele>180</ele>
        <time>2017-08-23T09:01:18Z</time>
      </trkpt>
      <trkpt lat="45.89659" lon="4.7208">
        <ele>180</ele>
        <time>2017-08-23T09:01:19Z</time>
      </trkpt>
      <trkpt lat="45.89659" lon="4.72087">
        <ele>180</ele>
        <time>2017-08-23T09:01:20Z</time>
      </trkpt>
      <trkpt lat="45.89659" lon="4.72094">
        <ele>180</ele>
        <time>2017-08-23T09:01:21Z</time>
      </trkpt>
      <trkpt lat="45.89659" lon="4.72106">
        <ele>180</ele>
        <time>2017-08-23T09:01:23Z</time>
      </trkpt>
      <trkpt lat="45.89659" lon="4.72112">
        <ele>179</ele>
        <time>2017-08-23T09:01:24Z</time>
      </trkpt>
      <trkpt lat="45.89657" lon="4.72123">
        <ele>179</ele>
        <time>2017-08-23T09:01:26Z</time>
      </trkpt>
      <trkpt lat="45.89658" lon="4.72129">
        <ele>179</ele>
        <time>2017-08-23T09:01:27Z</time>
      </trkpt>
      <trkpt lat="45.89658" lon="4.72142">
        <ele>179</ele>
        <time>2017-08-23T09:01:29Z</time>
      </trkpt>
      <trkpt lat="45.89659" lon="4.72148">
        <ele>179</ele>
        <time>2017-08-23T09:01:30Z</time>
      </trkpt>
      <trkpt lat="45.89658" lon="4.72159">
        <ele>179</ele>
        <time>2017-08-23T09:01:32Z</time>
      </trkpt>
      <trkpt lat="45.89658" lon="4.72165">
        <ele>179</ele>
        <time>2017-08-23T09:01:33Z</time>
      </trkpt>
      <trkpt lat="45.89658" lon="4.72175">
        <ele>179</ele>
        <time>2017-08-23T09:01:35Z</time>
      </trkpt>
      <trkpt lat="45.89658" lon="4.72181">
        <ele>179</ele>
        <time>2017-08-23T09:01:36Z</time>
      </trkpt>
      <trkpt lat="45.89658" lon="4.72192">
        <ele>179</ele>
        <time>2017-08-23T09:01:38Z</time>
      </trkpt>
      <trkpt lat="45.89659" lon="4.72197">
        <ele>179</ele>
        <time>2017-08-23T09:01:39Z</time>
      </trkpt>
      <trkpt lat="45.89658" lon="4.72207">
        <ele>179</ele>
        <time>2017-08-23T09:01:41Z</time>
      </trkpt>
      <trkpt lat="45.89658" lon="4.72212">
        <ele>179</ele>
        <time>2017-08-23T09:01:42Z</time>
      </trkpt>
      <trkpt lat="45.89658" lon="4.72224">
        <ele>179</ele>
        <time>2017-08-23T09:01:44Z</time>
      </trkpt>
      <trkpt lat="45.89658" lon="4.7223">
        <ele>179</ele>
        <time>2017-08-23T09:01:45Z</time>
      </trkpt>
      <trkpt lat="45.89659" lon="4.72241">
        <ele>179</ele>
        <time>2017-08-23T09:01:47Z</time>
      </trkpt>
      <trkpt lat="45.89659" lon="4.72246">
        <ele>179</ele>
        <time>2017-08-23T09:01:48Z</time>
      </trkpt>
      <trkpt lat="45.89658" lon="4.72255">
        <ele>179</ele>
        <time>2017-08-23T09:01:50Z</time>
      </trkpt>
      <trkpt lat="45.89658" lon="4.72259">
        <ele>179</ele>
        <time>2017-08-23T09:01:51Z</time>
      </trkpt>
      <trkpt lat="45.89654" lon="4.72268">
        <ele>179</ele>
        <time>2017-08-23T09:01:53Z</time>
      </trkpt>
      <trkpt lat="45.8965" lon="4.72272">
        <ele>179</ele>
        <time>2017-08-23T09:01:54Z</time>
      </trkpt>
      <trkpt lat="45.89646" lon="4.72275">
        <ele>179</ele>
        <time>2017-08-23T09:01:55Z</time>
      </trkpt>
      <trkpt lat="45.89641" lon="4.72277">
        <ele>179</ele>
        <time>2017-08-23T09:01:56Z</time>
      </trkpt>
      <trkpt lat="45.89637" lon="4.72278">
        <ele>179</ele>
        <time>2017-08-23T09:01:57Z</time>
      </trkpt>
      <trkpt lat="45.89632" lon="4.72278">
        <ele>179</ele>
        <time>2017-08-23T09:01:58Z</time>
      </trkpt>
      <trkpt lat="45.89624" lon="4.7228">
        <ele>179</ele>
        <time>2017-08-23T09:02:00Z</time>
      </trkpt>
      <trkpt lat="45.8962" lon="4.7228">
        <ele>179</ele>
        <time>2017-08-23T09:02:01Z</time>
      </trkpt>
      <trkpt lat="45.89614" lon="4.72281">
        <ele>179</ele>
        <time>2017-08-23T09:02:03Z</time>
      </trkpt>
      <trkpt lat="45.89611" lon="4.72281">
        <ele>179</ele>
        <time>2017-08-23T09:02:04Z</time>
      </trkpt>
      <trkpt lat="45.89606" lon="4.72281">
        <ele>179</ele>
        <time>2017-08-23T09:02:05Z</time>
      </trkpt>
      <trkpt lat="45.89602" lon="4.72282">
        <ele>179</ele>
        <time>2017-08-23T09:02:06Z</time>
      </trkpt>
      <trkpt lat="45.89597" lon="4.72282">
        <ele>179</ele>
        <time>2017-08-23T09:02:07Z</time>
      </trkpt>
      <trkpt lat="45.89592" lon="4.72282">
        <ele>179</ele>
        <time>2017-08-23T09:02:08Z</time>
      </trkpt>
      <trkpt lat="45.89588" lon="4.72283">
        <ele>179</ele>
        <time>2017-08-23T09:02:09Z</time>
      </trkpt>
      <trkpt lat="45.89583" lon="4.72283">
        <ele>179</ele>
        <time>2017-08-23T09:02:10Z</time>
      </trkpt>
      <trkpt lat="45.89575" lon="4.72283">
        <ele>179</ele>
        <time>2017-08-23T09:02:12Z</time>
      </trkpt>
      <trkpt lat="45.89571" lon="4.72282">
        <ele>179</ele>
        <time>2017-08-23T09:02:13Z</time>
      </trkpt>
      <trkpt lat="45.89563" lon="4.72283">
        <ele>179</ele>
        <time>2017-08-23T09:02:15Z</time>
      </trkpt>
      <trkpt lat="45.89559" lon="4.72283">
        <ele>179</ele>
        <time>2017-08-23T09:02:16Z</time>
      </trkpt>
      <trkpt lat="45.89555" lon="4.72283">
        <ele>179</ele>
        <time>2017-08-23T09:02:17Z</time>
      </trkpt>
      <trkpt lat="45.8955" lon="4.72282">
        <ele>179</ele>
        <time>2017-08-23T09:02:18Z</time>
      </trkpt>
      <trkpt lat="45.89541" lon="4.72282">
        <ele>179</ele>
        <time>2017-08-23T09:02:20Z</time>
      </trkpt>
      <trkpt lat="45.89537" lon="4.72283">
        <ele>179</ele>
        <time>2017-08-23T09:02:21Z</time>
      </trkpt>
      <trkpt lat="45.8953" lon="4.72283">
        <ele>179</ele>
        <time>2017-08-23T09:02:23Z</time>
      </trkpt>
      <trkpt lat="45.89527" lon="4.72282">
        <ele>179</ele>
        <time>2017-08-23T09:02:24Z</time>
      </trkpt>
      <trkpt lat="45.89519" lon="4.72283">
        <ele>179</ele>
        <time>2017-08-23T09:02:26Z</time>
      </trkpt>
      <trkpt lat="45.89515" lon="4.72284">
        <ele>179</ele>
        <time>2017-08-23T09:02:27Z</time>
      </trkpt>
      <trkpt lat="45.89506" lon="4.72284">
        <ele>179</ele>
        <time>2017-08-23T09:02:29Z</time>
      </trkpt>
      <trkpt lat="45.89502" lon="4.72283">
        <ele>179</ele>
        <time>2017-08-23T09:02:30Z</time>
      </trkpt>
      <trkpt lat="45.89494" lon="4.72283">
        <ele>179</ele>
        <time>2017-08-23T09:02:32Z</time>
      </trkpt>
      <trkpt lat="45.89491" lon="4.72284">
        <ele>179</ele>
        <time>2017-08-23T09:02:33Z</time>
      </trkpt>
      <trkpt lat="45.89484" lon="4.72285">
        <ele>179</ele>
        <time>2017-08-23T09:02:35Z</time>
      </trkpt>
      <trkpt lat="45.8948" lon="4.72286">
        <ele>179</ele>
        <time>2017-08-23T09:02:36Z</time>
      </trkpt>
      <trkpt lat="45.89475" lon="4.72286">
        <ele>179</ele>
        <time>2017-08-23T09:02:37Z</time>
      </trkpt>
      <trkpt lat="45.8947" lon="4.72286">
        <ele>179</ele>
        <time>2017-08-23T09:02:38Z</time>
      </trkpt>
      <trkpt lat="45.89465" lon="4.72287">
        <ele>179</ele>
        <time>2017-08-23T09:02:39Z</time>
      </trkpt>
      <trkpt lat="45.89461" lon="4.72288">
        <ele>179</ele>
        <time>2017-08-23T09:02:40Z</time>
      </trkpt>
      <trkpt lat="45.89453" lon="4.72288">
        <ele>179</ele>
        <time>2017-08-23T09:02:42Z</time>
      </trkpt>
      <trkpt lat="45.89449" lon="4.72289">
        <ele>179</ele>
        <time>2017-08-23T09:02:43Z</time>
      </trkpt>
      <trkpt lat="45.89442" lon="4.7229">
        <ele>179</ele>
        <time>2017-08-23T09:02:45Z</time>
      </trkpt>
      <trkpt lat="45.89439" lon="4.7229">
        <ele>179</ele>
        <time>2017-08-23T09:02:46Z</time>
      </trkpt>
      <trkpt lat="45.89431" lon="4.72292">
        <ele>179</ele>
        <time>2017-08-23T09:02:48Z</time>
      </trkpt>
      <trkpt lat="45.89427" lon="4.72293">
        <ele>180</ele>
        <time>2017-08-23T09:02:49Z</time>
      </trkpt>
      <trkpt lat="45.89422" lon="4.72293">
        <ele>180</ele>
        <time>2017-08-23T09:02:50Z</time>
      </trkpt>
      <trkpt lat="45.89418" lon="4.72294">
        <ele>180</ele>
        <time>2017-08-23T09:02:51Z</time>
      </trkpt>
      <trkpt lat="45.8941" lon="4.72294">
        <ele>180</ele>
        <time>2017-08-23T09:02:53Z</time>
      </trkpt>
      <trkpt lat="45.89406" lon="4.72295">
        <ele>180</ele>
        <time>2017-08-23T09:02:54Z</time>
      </trkpt>
      <trkpt lat="45.89398" lon="4.72296">
        <ele>180</ele>
        <time>2017-08-23T09:02:56Z</time>
      </trkpt>
      <trkpt lat="45.89394" lon="4.72296">
        <ele>180</ele>
        <time>2017-08-23T09:02:57Z</time>
      </trkpt>
      <trkpt lat="45.89386" lon="4.72297">
        <ele>180</ele>
        <time>2017-08-23T09:02:59Z</time>
      </trkpt>
      <trkpt lat="45.89381" lon="4.72299">
        <ele>181</ele>
        <time>2017-08-23T09:03:00Z</time>
      </trkpt>
      <trkpt lat="45.89373" lon="4.72302">
        <ele>181</ele>
        <time>2017-08-23T09:03:02Z</time>
      </trkpt>
      <trkpt lat="45.89369" lon="4.72303">
        <ele>181</ele>
        <time>2017-08-23T09:03:03Z</time>
      </trkpt>
      <trkpt lat="45.89362" lon="4.72304">
        <ele>181</ele>
        <time>2017-08-23T09:03:05Z</time>
      </trkpt>
      <trkpt lat="45.89358" lon="4.72305">
        <ele>181</ele>
        <time>2017-08-23T09:03:06Z</time>
      </trkpt>
      <trkpt lat="45.89349" lon="4.72307">
        <ele>181</ele>
        <time>2017-08-23T09:03:08Z</time>
      </trkpt>
      <trkpt lat="45.89344" lon="4.72307">
        <ele>181</ele>
        <time>2017-08-23T09:03:09Z</time>
      </trkpt>
      <trkpt lat="45.89339" lon="4.72308">
        <ele>181</ele>
        <time>2017-08-23T09:03:10Z</time>
      </trkpt>
      <trkpt lat="45.89335" lon="4.72308">
        <ele>181</ele>
        <time>2017-08-23T09:03:11Z</time>
      </trkpt>
      <trkpt lat="45.89326" lon="4.72307">
        <ele>181</ele>
        <time>2017-08-23T09:03:13Z</time>
      </trkpt>
      <trkpt lat="45.89322" lon="4.72307">
        <ele>181</ele>
        <time>2017-08-23T09:03:14Z</time>
      </trkpt>
      <trkpt lat="45.89315" lon="4.72306">
        <ele>181</ele>
        <time>2017-08-23T09:03:16Z</time>
      </trkpt>
      <trkpt lat="45.8931" lon="4.72306">
        <ele>181</ele>
        <time>2017-08-23T09:03:17Z</time>
      </trkpt>
      <trkpt lat="45.89306" lon="4.72305">
        <ele>181</ele>
        <time>2017-08-23T09:03:18Z</time>
      </trkpt>
      <trkpt lat="45.89301" lon="4.72303">
        <ele>181</ele>
        <time>2017-08-23T09:03:19Z</time>
      </trkpt>
      <trkpt lat="45.89293" lon="4.72299">
        <ele>181</ele>
        <time>2017-08-23T09:03:21Z</time>
      </trkpt>
      <trkpt lat="45.8929" lon="4.72298">
        <ele>181</ele>
        <time>2017-08-23T09:03:22Z</time>
      </trkpt>
      <trkpt lat="45.89281" lon="4.72295">
        <ele>181</ele>
        <time>2017-08-23T09:03:24Z</time>
      </trkpt>
      <trkpt lat="45.89278" lon="4.72293">
        <ele>181</ele>
        <time>2017-08-23T09:03:25Z</time>
      </trkpt>
      <trkpt lat="45.89271" lon="4.72291">
        <ele>181</ele>
        <time>2017-08-23T09:03:27Z</time>
      </trkpt>
      <trkpt lat="45.89268" lon="4.7229">
        <ele>181</ele>
        <time>2017-08-23T09:03:28Z</time>
      </trkpt>
      <trkpt lat="45.8926" lon="4.72287">
        <ele>181</ele>
        <time>2017-08-23T09:03:30Z</time>
      </trkpt>
      <trkpt lat="45.89256" lon="4.72284">
        <ele>181</ele>
        <time>2017-08-23T09:03:31Z</time>
      </trkpt>
      <trkpt lat="45.89252" lon="4.72282">
        <ele>181</ele>
        <time>2017-08-23T09:03:32Z</time>
      </trkpt>
      <trkpt lat="45.89247" lon="4.7228">
        <ele>181</ele>
        <time>2017-08-23T09:03:33Z</time>
      </trkpt>
      <trkpt lat="45.89239" lon="4.72276">
        <ele>181</ele>
        <time>2017-08-23T09:03:35Z</time>
      </trkpt>
      <trkpt lat="45.89235" lon="4.72275">
        <ele>181</ele>
        <time>2017-08-23T09:03:36Z</time>
      </trkpt>
      <trkpt lat="45.89228" lon="4.72272">
        <ele>181</ele>
        <time>2017-08-23T09:03:38Z</time>
      </trkpt>
      <trkpt lat="45.89224" lon="4.7227">
        <ele>181</ele>
        <time>2017-08-23T09:03:39Z</time>
      </trkpt>
      <trkpt lat="45.89216" lon="4.72266">
        <ele>181</ele>
        <time>2017-08-23T09:03:41Z</time>
      </trkpt>
      <trkpt lat="45.89212" lon="4.72264">
        <ele>181</ele>
        <time>2017-08-23T09:03:42Z</time>
      </trkpt>
      <trkpt lat="45.89207" lon="4.72261">
        <ele>181</ele>
        <time>2017-08-23T09:03:43Z</time>
      </trkpt>
      <trkpt lat="45.89202" lon="4.72258">
        <ele>181</ele>
        <time>2017-08-23T09:03:44Z</time>
      </trkpt>
      <trkpt lat="45.89198" lon="4.72256">
        <ele>181</ele>
        <time>2017-08-23T09:03:45Z</time>
      </trkpt>
      <trkpt lat="45.89194" lon="4.72254">
        <ele>181</ele>
        <time>2017-08-23T09:03:46Z</time>
      </trkpt>
      <trkpt lat="45.89186" lon="4.7225">
        <ele>180</ele>
        <time>2017-08-23T09:03:48Z</time>
      </trkpt>
      <trkpt lat="45.89182" lon="4.72248">
        <ele>180</ele>
        <time>2017-08-23T09:03:49Z</time>
      </trkpt>
      <trkpt lat="45.89175" lon="4.72245">
        <ele>180</ele>
        <time>2017-08-23T09:03:51Z</time>
      </trkpt>
      <trkpt lat="45.89171" lon="4.72242">
        <ele>180</ele>
        <time>2017-08-23T09:03:52Z</time>
      </trkpt>
      <trkpt lat="45.89167" lon="4.7224">
        <ele>180</ele>
        <time>2017-08-23T09:03:53Z</time>
      </trkpt>
      <trkpt lat="45.89162" lon="4.72237">
        <ele>180</ele>
        <time>2017-08-23T09:03:54Z</time>
      </trkpt>
      <trkpt lat="45.89154" lon="4.72233">
        <ele>180</ele>
        <time>2017-08-23T09:03:56Z</time>
      </trkpt>
      <trkpt lat="45.8915" lon="4.72231">
        <ele>180</ele>
        <time>2017-08-23T09:03:57Z</time>
      </trkpt>
      <trkpt lat="45.89142" lon="4.72227">
        <ele>180</ele>
        <time>2017-08-23T09:03:59Z</time>
      </trkpt>
      <trkpt lat="45.89139" lon="4.72226">
        <ele>180</ele>
        <time>2017-08-23T09:04:00Z</time>
      </trkpt>
      <trkpt lat="45.89131" lon="4.7222">
        <ele>180</ele>
        <time>2017-08-23T09:04:03Z</time>
      </trkpt>
      <trkpt lat="45.89127" lon="4.72219">
        <ele>180</ele>
        <time>2017-08-23T09:04:04Z</time>
      </trkpt>
      <trkpt lat="45.89119" lon="4.72215">
        <ele>180</ele>
        <time>2017-08-23T09:04:06Z</time>
      </trkpt>
      <trkpt lat="45.89116" lon="4.72213">
        <ele>180</ele>
        <time>2017-08-23T09:04:07Z</time>
      </trkpt>
      <trkpt lat="45.8911" lon="4.72208">
        <ele>180</ele>
        <time>2017-08-23T09:04:09Z</time>
      </trkpt>
      <trkpt lat="45.89107" lon="4.72205">
        <ele>180</ele>
        <time>2017-08-23T09:04:10Z</time>
      </trkpt>
      <trkpt lat="45.891" lon="4.72201">
        <ele>180</ele>
        <time>2017-08-23T09:04:13Z</time>
      </trkpt>
      <trkpt lat="45.89097" lon="4.72199">
        <ele>180</ele>
        <time>2017-08-23T09:04:14Z</time>
      </trkpt>
      <trkpt lat="45.8909" lon="4.72195">
        <ele>180</ele>
        <time>2017-08-23T09:04:16Z</time>
      </trkpt>
      <trkpt lat="45.89086" lon="4.72193">
        <ele>180</ele>
        <time>2017-08-23T09:04:17Z</time>
      </trkpt>
      <trkpt lat="45.8908" lon="4.72189">
        <ele>180</ele>
        <time>2017-08-23T09:04:19Z</time>
      </trkpt>
      <trkpt lat="45.89078" lon="4.72187">
        <ele>180</ele>
        <time>2017-08-23T09:04:20Z</time>
      </trkpt>
      <trkpt lat="45.8907" lon="4.72182">
        <ele>180</ele>
        <time>2017-08-23T09:04:22Z</time>
      </trkpt>
      <trkpt lat="45.89066" lon="4.72179">
        <ele>180</ele>
        <time>2017-08-23T09:04:23Z</time>
      </trkpt>
      <trkpt lat="45.89062" lon="4.72176">
        <ele>180</ele>
        <time>2017-08-23T09:04:24Z</time>
      </trkpt>
      <trkpt lat="45.89058" lon="4.72173">
        <ele>180</ele>
        <time>2017-08-23T09:04:25Z</time>
      </trkpt>
      <trkpt lat="45.89052" lon="4.72168">
        <ele>180</ele>
        <time>2017-08-23T09:04:27Z</time>
      </trkpt>
      <trkpt lat="45.89049" lon="4.72167">
        <ele>180</ele>
        <time>2017-08-23T09:04:28Z</time>
      </trkpt>
      <trkpt lat="45.89043" lon="4.72166">
        <ele>180</ele>
        <time>2017-08-23T09:04:29Z</time>
      </trkpt>
      <trkpt lat="45.89038" lon="4.72165">
        <ele>180</ele>
        <time>2017-08-23T09:04:30Z</time>
      </trkpt>
      <trkpt lat="45.89032" lon="4.72163">
        <ele>180</ele>
        <time>2017-08-23T09:04:31Z</time>
      </trkpt>
      <trkpt lat="45.89027" lon="4.72161">
        <ele>180</ele>
        <time>2017-08-23T09:04:32Z</time>
      </trkpt>
      <trkpt lat="45.89021" lon="4.72159">
        <ele>180</ele>
        <time>2017-08-23T09:04:33Z</time>
      </trkpt>
      <trkpt lat="45.89014" lon="4.72157">
        <ele>180</ele>
        <time>2017-08-23T09:04:34Z</time>
      </trkpt>
      <trkpt lat="45.89008" lon="4.72155">
        <ele>180</ele>
        <time>2017-08-23T09:04:35Z</time>
      </trkpt>
      <trkpt lat="45.89002" lon="4.72154">
        <ele>180</ele>
        <time>2017-08-23T09:04:36Z</time>
      </trkpt>
      <trkpt lat="45.88997" lon="4.72152">
        <ele>180</ele>
        <time>2017-08-23T09:04:37Z</time>
      </trkpt>
      <trkpt lat="45.88992" lon="4.72151">
        <ele>180</ele>
        <time>2017-08-23T09:04:38Z</time>
      </trkpt>
      <trkpt lat="45.88987" lon="4.72149">
        <ele>180</ele>
        <time>2017-08-23T09:04:39Z</time>
      </trkpt>
      <trkpt lat="45.88983" lon="4.72148">
        <ele>180</ele>
        <time>2017-08-23T09:04:40Z</time>
      </trkpt>
      <trkpt lat="45.88974" lon="4.72145">
        <ele>180</ele>
        <time>2017-08-23T09:04:42Z</time>
      </trkpt>
      <trkpt lat="45.88971" lon="4.72143">
        <ele>180</ele>
        <time>2017-08-23T09:04:43Z</time>
      </trkpt>
      <trkpt lat="45.88963" lon="4.72141">
        <ele>180</ele>
        <time>2017-08-23T09:04:45Z</time>
      </trkpt>
      <trkpt lat="45.88958" lon="4.7214">
        <ele>181</ele>
        <time>2017-08-23T09:04:46Z</time>
      </trkpt>
      <trkpt lat="45.88953" lon="4.72138">
        <ele>181</ele>
        <time>2017-08-23T09:04:47Z</time>
      </trkpt>
      <trkpt lat="45.88948" lon="4.72136">
        <ele>181</ele>
        <time>2017-08-23T09:04:48Z</time>
      </trkpt>
      <trkpt lat="45.8894" lon="4.72133">
        <ele>181</ele>
        <time>2017-08-23T09:04:50Z</time>
      </trkpt>
      <trkpt lat="45.88936" lon="4.72132">
        <ele>181</ele>
        <time>2017-08-23T09:04:51Z</time>
      </trkpt>
      <trkpt lat="45.88928" lon="4.72131">
        <ele>181</ele>
        <time>2017-08-23T09:04:53Z</time>
      </trkpt>
      <trkpt lat="45.88924" lon="4.7213">
        <ele>181</ele>
        <time>2017-08-23T09:04:54Z</time>
      </trkpt>
      <trkpt lat="45.88919" lon="4.72128">
        <ele>181</ele>
        <time>2017-08-23T09:04:55Z</time>
      </trkpt>
      <trkpt lat="45.88915" lon="4.72126">
        <ele>181</ele>
        <time>2017-08-23T09:04:56Z</time>
      </trkpt>
      <trkpt lat="45.88907" lon="4.72122">
        <ele>181</ele>
        <time>2017-08-23T09:04:58Z</time>
      </trkpt>
      <trkpt lat="45.88904" lon="4.7212">
        <ele>181</ele>
        <time>2017-08-23T09:04:59Z</time>
      </trkpt>
      <trkpt lat="45.88897" lon="4.72116">
        <ele>181</ele>
        <time>2017-08-23T09:05:01Z</time>
      </trkpt>
      <trkpt lat="45.88893" lon="4.72115">
        <ele>181</ele>
        <time>2017-08-23T09:05:02Z</time>
      </trkpt>
      <trkpt lat="45.88885" lon="4.72112">
        <ele>181</ele>
        <time>2017-08-23T09:05:05Z</time>
      </trkpt>
      <trkpt lat="45.88883" lon="4.72112">
        <ele>181</ele>
        <time>2017-08-23T09:05:06Z</time>
      </trkpt>
      <trkpt lat="45.88876" lon="4.7211">
        <ele>181</ele>
        <time>2017-08-23T09:05:09Z</time>
      </trkpt>
      <trkpt lat="45.88873" lon="4.7211">
        <ele>181</ele>
        <time>2017-08-23T09:05:10Z</time>
      </trkpt>
      <trkpt lat="45.88867" lon="4.72107">
        <ele>181</ele>
        <time>2017-08-23T09:05:12Z</time>
      </trkpt>
      <trkpt lat="45.88863" lon="4.72105">
        <ele>181</ele>
        <time>2017-08-23T09:05:13Z</time>
      </trkpt>
      <trkpt lat="45.88855" lon="4.72101">
        <ele>181</ele>
        <time>2017-08-23T09:05:15Z</time>
      </trkpt>
      <trkpt lat="45.88851" lon="4.721">
        <ele>181</ele>
        <time>2017-08-23T09:05:16Z</time>
      </trkpt>
      <trkpt lat="45.88844" lon="4.72096">
        <ele>181</ele>
        <time>2017-08-23T09:05:18Z</time>
      </trkpt>
      <trkpt lat="45.88841" lon="4.72095">
        <ele>181</ele>
        <time>2017-08-23T09:05:19Z</time>
      </trkpt>
      <trkpt lat="45.88833" lon="4.72097">
        <ele>181</ele>
        <time>2017-08-23T09:05:22Z</time>
      </trkpt>
      <trkpt lat="45.88831" lon="4.72101">
        <ele>181</ele>
        <time>2017-08-23T09:05:23Z</time>
      </trkpt>
      <trkpt lat="45.88828" lon="4.72112">
        <ele>181</ele>
        <time>2017-08-23T09:05:25Z</time>
      </trkpt>
      <trkpt lat="45.88827" lon="4.72119">
        <ele>181</ele>
        <time>2017-08-23T09:05:26Z</time>
      </trkpt>
      <trkpt lat="45.88826" lon="4.72126">
        <ele>182</ele>
        <time>2017-08-23T09:05:27Z</time>
      </trkpt>
      <trkpt lat="45.88824" lon="4.72132">
        <ele>182</ele>
        <time>2017-08-23T09:05:28Z</time>
      </trkpt>
      <trkpt lat="45.88823" lon="4.72144">
        <ele>182</ele>
        <time>2017-08-23T09:05:30Z</time>
      </trkpt>
      <trkpt lat="45.88822" lon="4.7215">
        <ele>182</ele>
        <time>2017-08-23T09:05:31Z</time>
      </trkpt>
      <trkpt lat="45.88819" lon="4.72161">
        <ele>182</ele>
        <time>2017-08-23T09:05:33Z</time>
      </trkpt>
      <trkpt lat="45.88818" lon="4.72167">
        <ele>182</ele>
        <time>2017-08-23T09:05:34Z</time>
      </trkpt>
      <trkpt lat="45.88817" lon="4.72173">
        <ele>182</ele>
        <time>2017-08-23T09:05:35Z</time>
      </trkpt>
      <trkpt lat="45.88815" lon="4.72179">
        <ele>182</ele>
        <time>2017-08-23T09:05:36Z</time>
      </trkpt>
      <trkpt lat="45.88814" lon="4.72186">
        <ele>182</ele>
        <time>2017-08-23T09:05:37Z</time>
      </trkpt>
      <trkpt lat="45.88812" lon="4.72193">
        <ele>182</ele>
        <time>2017-08-23T09:05:38Z</time>
      </trkpt>
      <trkpt lat="45.88811" lon="4.722">
        <ele>182</ele>
        <time>2017-08-23T09:05:39Z</time>
      </trkpt>
      <trkpt lat="45.8881" lon="4.72206">
        <ele>182</ele>
        <time>2017-08-23T09:05:40Z</time>
      </trkpt>
      <trkpt lat="45.88809" lon="4.72213">
        <ele>182</ele>
        <time>2017-08-23T09:05:41Z</time>
      </trkpt>
      <trkpt lat="45.88808" lon="4.72219">
        <ele>182</ele>
        <time>2017-08-23T09:05:42Z</time>
      </trkpt>
      <trkpt lat="45.88807" lon="4.72231">
        <ele>182</ele>
        <time>2017-08-23T09:05:44Z</time>
      </trkpt>
      <trkpt lat="45.88806" lon="4.72236">
        <ele>182</ele>
        <time>2017-08-23T09:05:45Z</time>
      </trkpt>
      <trkpt lat="45.88804" lon="4.72247">
        <ele>182</ele>
        <time>2017-08-23T09:05:47Z</time>
      </trkpt>
      <trkpt lat="45.88803" lon="4.72252">
        <ele>182</ele>
        <time>2017-08-23T09:05:48Z</time>
      </trkpt>
      <trkpt lat="45.88801" lon="4.72265">
        <ele>182</ele>
        <time>2017-08-23T09:05:50Z</time>
      </trkpt>
      <trkpt lat="45.888" lon="4.72272">
        <ele>182</ele>
        <time>2017-08-23T09:05:51Z</time>
      </trkpt>
      <trkpt lat="45.88798" lon="4.72279">
        <ele>182</ele>
        <time>2017-08-23T09:05:52Z</time>
      </trkpt>
      <trkpt lat="45.88797" lon="4.72287">
        <ele>182</ele>
        <time>2017-08-23T09:05:53Z</time>
      </trkpt>
      <trkpt lat="45.88796" lon="4.72293">
        <ele>182</ele>
        <time>2017-08-23T09:05:54Z</time>
      </trkpt>
      <trkpt lat="45.88794" lon="4.72299">
        <ele>182</ele>
        <time>2017-08-23T09:05:55Z</time>
      </trkpt>
      <trkpt lat="45.88791" lon="4.7231">
        <ele>182</ele>
        <time>2017-08-23T09:05:57Z</time>
      </trkpt>
      <trkpt lat="45.88789" lon="4.72315">
        <ele>182</ele>
        <time>2017-08-23T09:05:58Z</time>
      </trkpt>
      <trkpt lat="45.88785" lon="4.72326">
        <ele>182</ele>
        <time>2017-08-23T09:06:00Z</time>
      </trkpt>
      <trkpt lat="45.88783" lon="4.72331">
        <ele>182</ele>
        <time>2017-08-23T09:06:01Z</time>
      </trkpt>
      <trkpt lat="45.8878" lon="4.72337">
        <ele>182</ele>
        <time>2017-08-23T09:06:02Z</time>
      </trkpt>
      <trkpt lat="45.88776" lon="4.72344">
        <ele>182</ele>
        <time>2017-08-23T09:06:03Z</time>
      </trkpt>
      <trkpt lat="45.88774" lon="4.7235">
        <ele>182</ele>
        <time>2017-08-23T09:06:04Z</time>
      </trkpt>
      <trkpt lat="45.88771" lon="4.72356">
        <ele>182</ele>
        <time>2017-08-23T09:06:05Z</time>
      </trkpt>
      <trkpt lat="45.88768" lon="4.72362">
        <ele>182</ele>
        <time>2017-08-23T09:06:06Z</time>
      </trkpt>
      <trkpt lat="45.88765" lon="4.72367">
        <ele>182</ele>
        <time>2017-08-23T09:06:07Z</time>
      </trkpt>
      <trkpt lat="45.8876" lon="4.72377">
        <ele>182</ele>
        <time>2017-08-23T09:06:09Z</time>
      </trkpt>
      <trkpt lat="45.88757" lon="4.72382">
        <ele>182</ele>
        <time>2017-08-23T09:06:10Z</time>
      </trkpt>
      <trkpt lat="45.88754" lon="4.72387">
        <ele>182</ele>
        <time>2017-08-23T09:06:11Z</time>
      </trkpt>
      <trkpt lat="45.88751" lon="4.72393">
        <ele>182</ele>
        <time>2017-08-23T09:06:12Z</time>
      </trkpt>
      <trkpt lat="45.88748" lon="4.72399">
        <ele>182</ele>
        <time>2017-08-23T09:06:13Z</time>
      </trkpt>
      <trkpt lat="45.88745" lon="4.72405">
        <ele>182</ele>
        <time>2017-08-23T09:06:14Z</time>
      </trkpt>
      <trkpt lat="45.88742" lon="4.72411">
        <ele>182</ele>
        <time>2017-08-23T09:06:15Z</time>
      </trkpt>
      <trkpt lat="45.88739" lon="4.72417">
        <ele>182</ele>
        <time>2017-08-23T09:06:16Z</time>
      </trkpt>
      <trkpt lat="45.88736" lon="4.72423">
        <ele>182</ele>
        <time>2017-08-23T09:06:17Z</time>
      </trkpt>
      <trkpt lat="45.88734" lon="4.72428">
        <ele>182</ele>
        <time>2017-08-23T09:06:18Z</time>
      </trkpt>
      <trkpt lat="45.88729" lon="4.72438">
        <ele>182</ele>
        <time>2017-08-23T09:06:20Z</time>
      </trkpt>
      <trkpt lat="45.88727" lon="4.72443">
        <ele>182</ele>
        <time>2017-08-23T09:06:21Z</time>
      </trkpt>
      <trkpt lat="45.88724" lon="4.72453">
        <ele>182</ele>
        <time>2017-08-23T09:06:23Z</time>
      </trkpt>
      <trkpt lat="45.88722" lon="4.7246">
        <ele>182</ele>
        <time>2017-08-23T09:06:24Z</time>
      </trkpt>
      <trkpt lat="45.88721" lon="4.72467">
        <ele>182</ele>
        <time>2017-08-23T09:06:25Z</time>
      </trkpt>
      <trkpt lat="45.88719" lon="4.72475">
        <ele>182</ele>
        <time>2017-08-23T09:06:26Z</time>
      </trkpt>
      <trkpt lat="45.88719" lon="4.72483">
        <ele>182</ele>
        <time>2017-08-23T09:06:27Z</time>
      </trkpt>
      <trkpt lat="45.88719" lon="4.7249">
        <ele>182</ele>
        <time>2017-08-23T09:06:28Z</time>
      </trkpt>
      <trkpt lat="45.8872" lon="4.72497">
        <ele>182</ele>
        <time>2017-08-23T09:06:29Z</time>
      </trkpt>
      <trkpt lat="45.88721" lon="4.72504">
        <ele>183</ele>
        <time>2017-08-23T09:06:30Z</time>
      </trkpt>
      <trkpt lat="45.88723" lon="4.7251">
        <ele>183</ele>
        <time>2017-08-23T09:06:31Z</time>
      </trkpt>
      <trkpt lat="45.88724" lon="4.72517">
        <ele>183</ele>
        <time>2017-08-23T09:06:32Z</time>
      </trkpt>
      <trkpt lat="45.88725" lon="4.72525">
        <ele>183</ele>
        <time>2017-08-23T09:06:33Z</time>
      </trkpt>
      <trkpt lat="45.88727" lon="4.72533">
        <ele>183</ele>
        <time>2017-08-23T09:06:34Z</time>
      </trkpt>
      <trkpt lat="45.88728" lon="4.7254">
        <ele>183</ele>
        <time>2017-08-23T09:06:35Z</time>
      </trkpt>
      <trkpt lat="45.8873" lon="4.72548">
        <ele>183</ele>
        <time>2017-08-23T09:06:36Z</time>
      </trkpt>
      <trkpt lat="45.88731" lon="4.72556">
        <ele>183</ele>
        <time>2017-08-23T09:06:37Z</time>
      </trkpt>
      <trkpt lat="45.88733" lon="4.72563">
        <ele>183</ele>
        <time>2017-08-23T09:06:38Z</time>
      </trkpt>
      <trkpt lat="45.88735" lon="4.72569">
        <ele>183</ele>
        <time>2017-08-23T09:06:39Z</time>
      </trkpt>
      <trkpt lat="45.88736" lon="4.72576">
        <ele>184</ele>
        <time>2017-08-23T09:06:40Z</time>
      </trkpt>
      <trkpt lat="45.88738" lon="4.72582">
        <ele>184</ele>
        <time>2017-08-23T09:06:41Z</time>
      </trkpt>
      <trkpt lat="45.88739" lon="4.72588">
        <ele>184</ele>
        <time>2017-08-23T09:06:42Z</time>
      </trkpt>
      <trkpt lat="45.88741" lon="4.726">
        <ele>184</ele>
        <time>2017-08-23T09:06:44Z</time>
      </trkpt>
      <trkpt lat="45.88741" lon="4.72606">
        <ele>183</ele>
        <time>2017-08-23T09:06:45Z</time>
      </trkpt>
      <trkpt lat="45.88742" lon="4.72619">
        <ele>183</ele>
        <time>2017-08-23T09:06:47Z</time>
      </trkpt>
      <trkpt lat="45.88743" lon="4.72625">
        <ele>183</ele>
        <time>2017-08-23T09:06:48Z</time>
      </trkpt>
      <trkpt lat="45.88744" lon="4.72633">
        <ele>183</ele>
        <time>2017-08-23T09:06:49Z</time>
      </trkpt>
      <trkpt lat="45.88744" lon="4.72641">
        <ele>183</ele>
        <time>2017-08-23T09:06:50Z</time>
      </trkpt>
      <trkpt lat="45.88745" lon="4.72649">
        <ele>183</ele>
        <time>2017-08-23T09:06:51Z</time>
      </trkpt>
      <trkpt lat="45.88746" lon="4.72657">
        <ele>182</ele>
        <time>2017-08-23T09:06:52Z</time>
      </trkpt>
      <trkpt lat="45.88747" lon="4.72664">
        <ele>182</ele>
        <time>2017-08-23T09:06:53Z</time>
      </trkpt>
      <trkpt lat="45.88748" lon="4.72672">
        <ele>182</ele>
        <time>2017-08-23T09:06:54Z</time>
      </trkpt>
      <trkpt lat="45.88748" lon="4.72679">
        <ele>182</ele>
        <time>2017-08-23T09:06:55Z</time>
      </trkpt>
      <trkpt lat="45.88748" lon="4.72686">
        <ele>183</ele>
        <time>2017-08-23T09:06:56Z</time>
      </trkpt>
      <trkpt lat="45.88749" lon="4.72693">
        <ele>183</ele>
        <time>2017-08-23T09:06:57Z</time>
      </trkpt>
      <trkpt lat="45.88749" lon="4.72699">
        <ele>183</ele>
        <time>2017-08-23T09:06:58Z</time>
      </trkpt>
      <trkpt lat="45.8875" lon="4.72712">
        <ele>183</ele>
        <time>2017-08-23T09:07:00Z</time>
      </trkpt>
      <trkpt lat="45.8875" lon="4.7272">
        <ele>183</ele>
        <time>2017-08-23T09:07:01Z</time>
      </trkpt>
      <trkpt lat="45.88751" lon="4.72727">
        <ele>183</ele>
        <time>2017-08-23T09:07:02Z</time>
      </trkpt>
      <trkpt lat="45.88752" lon="4.72735">
        <ele>183</ele>
        <time>2017-08-23T09:07:03Z</time>
      </trkpt>
      <trkpt lat="45.88752" lon="4.72742">
        <ele>183</ele>
        <time>2017-08-23T09:07:04Z</time>
      </trkpt>
      <trkpt lat="45.88753" lon="4.72749">
        <ele>183</ele>
        <time>2017-08-23T09:07:05Z</time>
      </trkpt>
      <trkpt lat="45.88753" lon="4.72756">
        <ele>183</ele>
        <time>2017-08-23T09:07:06Z</time>
      </trkpt>
      <trkpt lat="45.88753" lon="4.72762">
        <ele>183</ele>
        <time>2017-08-23T09:07:07Z</time>
      </trkpt>
      <trkpt lat="45.88753" lon="4.72774">
        <ele>184</ele>
        <time>2017-08-23T09:07:09Z</time>
      </trkpt>
      <trkpt lat="45.88754" lon="4.72781">
        <ele>184</ele>
        <time>2017-08-23T09:07:10Z</time>
      </trkpt>
      <trkpt lat="45.88754" lon="4.72788">
        <ele>184</ele>
        <time>2017-08-23T09:07:11Z</time>
      </trkpt>
      <trkpt lat="45.88754" lon="4.72795">
        <ele>184</ele>
        <time>2017-08-23T09:07:12Z</time>
      </trkpt>
      <trkpt lat="45.88755" lon="4.72802">
        <ele>184</ele>
        <time>2017-08-23T09:07:13Z</time>
      </trkpt>
      <trkpt lat="45.88755" lon="4.7281">
        <ele>185</ele>
        <time>2017-08-23T09:07:14Z</time>
      </trkpt>
      <trkpt lat="45.88755" lon="4.72818">
        <ele>185</ele>
        <time>2017-08-23T09:07:15Z</time>
      </trkpt>
      <trkpt lat="45.88755" lon="4.72825">
        <ele>185</ele>
        <time>2017-08-23T09:07:16Z</time>
      </trkpt>
      <trkpt lat="45.88756" lon="4.72833">
        <ele>186</ele>
        <time>2017-08-23T09:07:17Z</time>
      </trkpt>
      <trkpt lat="45.88756" lon="4.72839">
        <ele>186</ele>
        <time>2017-08-23T09:07:18Z</time>
      </trkpt>
      <trkpt lat="45.88758" lon="4.72851">
        <ele>185</ele>
        <time>2017-08-23T09:07:20Z</time>
      </trkpt>
      <trkpt lat="45.88758" lon="4.72857">
        <ele>185</ele>
        <time>2017-08-23T09:07:21Z</time>
      </trkpt>
      <trkpt lat="45.88759" lon="4.72868">
        <ele>185</ele>
        <time>2017-08-23T09:07:23Z</time>
      </trkpt>
      <trkpt lat="45.8876" lon="4.72875">
        <ele>185</ele>
        <time>2017-08-23T09:07:24Z</time>
      </trkpt>
      <trkpt lat="45.88761" lon="4.72881">
        <ele>185</ele>
        <time>2017-08-23T09:07:25Z</time>
      </trkpt>
      <trkpt lat="45.8876" lon="4.72888">
        <ele>185</ele>
        <time>2017-08-23T09:07:26Z</time>
      </trkpt>
      <trkpt lat="45.8876" lon="4.72895">
        <ele>185</ele>
        <time>2017-08-23T09:07:27Z</time>
      </trkpt>
      <trkpt lat="45.8876" lon="4.72902">
        <ele>186</ele>
        <time>2017-08-23T09:07:28Z</time>
      </trkpt>
      <trkpt lat="45.88761" lon="4.72909">
        <ele>186</ele>
        <time>2017-08-23T09:07:29Z</time>
      </trkpt>
      <trkpt lat="45.88761" lon="4.72916">
        <ele>186</ele>
        <time>2017-08-23T09:07:30Z</time>
      </trkpt>
      <trkpt lat="45.88761" lon="4.72924">
        <ele>186</ele>
        <time>2017-08-23T09:07:31Z</time>
      </trkpt>
      <trkpt lat="45.88762" lon="4.72931">
        <ele>185</ele>
        <time>2017-08-23T09:07:32Z</time>
      </trkpt>
      <trkpt lat="45.88762" lon="4.72939">
        <ele>185</ele>
        <time>2017-08-23T09:07:33Z</time>
      </trkpt>
      <trkpt lat="45.88763" lon="4.72946">
        <ele>185</ele>
        <time>2017-08-23T09:07:34Z</time>
      </trkpt>
      <trkpt lat="45.88765" lon="4.72954">
        <ele>185</ele>
        <time>2017-08-23T09:07:35Z</time>
      </trkpt>
      <trkpt lat="45.88765" lon="4.72961">
        <ele>185</ele>
        <time>2017-08-23T09:07:36Z</time>
      </trkpt>
      <trkpt lat="45.88766" lon="4.72968">
        <ele>185</ele>
        <time>2017-08-23T09:07:37Z</time>
      </trkpt>
      <trkpt lat="45.88766" lon="4.72974">
        <ele>185</ele>
        <time>2017-08-23T09:07:38Z</time>
      </trkpt>
      <trkpt lat="45.88767" lon="4.72982">
        <ele>185</ele>
        <time>2017-08-23T09:07:39Z</time>
      </trkpt>
      <trkpt lat="45.88767" lon="4.72989">
        <ele>185</ele>
        <time>2017-08-23T09:07:40Z</time>
      </trkpt>
      <trkpt lat="45.88768" lon="4.72996">
        <ele>185</ele>
        <time>2017-08-23T09:07:41Z</time>
      </trkpt>
      <trkpt lat="45.88768" lon="4.73003">
        <ele>184</ele>
        <time>2017-08-23T09:07:42Z</time>
      </trkpt>
      <trkpt lat="45.88769" lon="4.73015">
        <ele>184</ele>
        <time>2017-08-23T09:07:44Z</time>
      </trkpt>
      <trkpt lat="45.8877" lon="4.73021">
        <ele>184</ele>
        <time>2017-08-23T09:07:45Z</time>
      </trkpt>
      <trkpt lat="45.88771" lon="4.73033">
        <ele>184</ele>
        <time>2017-08-23T09:07:47Z</time>
      </trkpt>
      <trkpt lat="45.88772" lon="4.73039">
        <ele>184</ele>
        <time>2017-08-23T09:07:48Z</time>
      </trkpt>
      <trkpt lat="45.88772" lon="4.73051">
        <ele>184</ele>
        <time>2017-08-23T09:07:50Z</time>
      </trkpt>
      <trkpt lat="45.88773" lon="4.73058">
        <ele>184</ele>
        <time>2017-08-23T09:07:51Z</time>
      </trkpt>
      <trkpt lat="45.88773" lon="4.73065">
        <ele>184</ele>
        <time>2017-08-23T09:07:52Z</time>
      </trkpt>
      <trkpt lat="45.88774" lon="4.73072">
        <ele>184</ele>
        <time>2017-08-23T09:07:53Z</time>
      </trkpt>
      <trkpt lat="45.88775" lon="4.73079">
        <ele>184</ele>
        <time>2017-08-23T09:07:54Z</time>
      </trkpt>
      <trkpt lat="45.88776" lon="4.73086">
        <ele>183</ele>
        <time>2017-08-23T09:07:55Z</time>
      </trkpt>
      <trkpt lat="45.88776" lon="4.73093">
        <ele>183</ele>
        <time>2017-08-23T09:07:56Z</time>
      </trkpt>
      <trkpt lat="45.88776" lon="4.731">
        <ele>183</ele>
        <time>2017-08-23T09:07:57Z</time>
      </trkpt>
      <trkpt lat="45.88777" lon="4.73106">
        <ele>182</ele>
        <time>2017-08-23T09:07:58Z</time>
      </trkpt>
      <trkpt lat="45.88779" lon="4.73112">
        <ele>182</ele>
        <time>2017-08-23T09:07:59Z</time>
      </trkpt>
      <trkpt lat="45.88787" lon="4.73118">
        <ele>182</ele>
        <time>2017-08-23T09:08:01Z</time>
      </trkpt>
      <trkpt lat="45.88792" lon="4.73117">
        <ele>182</ele>
        <time>2017-08-23T09:08:02Z</time>
      </trkpt>
      <trkpt lat="45.88797" lon="4.73116">
        <ele>182</ele>
        <time>2017-08-23T09:08:03Z</time>
      </trkpt>
      <trkpt lat="45.88801" lon="4.73115">
        <ele>182</ele>
        <time>2017-08-23T09:08:04Z</time>
      </trkpt>
      <trkpt lat="45.88809" lon="4.73114">
        <ele>182</ele>
        <time>2017-08-23T09:08:06Z</time>
      </trkpt>
      <trkpt lat="45.88811" lon="4.73115">
        <ele>182</ele>
        <time>2017-08-23T09:08:07Z</time>
      </trkpt>
      <trkpt lat="45.88818" lon="4.73112">
        <ele>182</ele>
        <time>2017-08-23T09:08:13Z</time>
      </trkpt>
      <trkpt lat="45.88821" lon="4.73111">
        <ele>182</ele>
        <time>2017-08-23T09:08:14Z</time>
      </trkpt>
      <trkpt lat="45.88829" lon="4.73109">
        <ele>182</ele>
        <time>2017-08-23T09:08:16Z</time>
      </trkpt>
      <trkpt lat="45.88833" lon="4.73108">
        <ele>182</ele>
        <time>2017-08-23T09:08:17Z</time>
      </trkpt>
      <trkpt lat="45.88838" lon="4.73107">
        <ele>182</ele>
        <time>2017-08-23T09:08:18Z</time>
      </trkpt>
      <trkpt lat="45.88842" lon="4.73105">
        <ele>182</ele>
        <time>2017-08-23T09:08:19Z</time>
      </trkpt>
      <trkpt lat="45.88851" lon="4.73103">
        <ele>182</ele>
        <time>2017-08-23T09:08:21Z</time>
      </trkpt>
      <trkpt lat="45.88855" lon="4.73102">
        <ele>182</ele>
        <time>2017-08-23T09:08:22Z</time>
      </trkpt>
      <trkpt lat="45.88863" lon="4.731">
        <ele>182</ele>
        <time>2017-08-23T09:08:24Z</time>
      </trkpt>
      <trkpt lat="45.88867" lon="4.73099">
        <ele>182</ele>
        <time>2017-08-23T09:08:25Z</time>
      </trkpt>
      <trkpt lat="45.88875" lon="4.73096">
        <ele>182</ele>
        <time>2017-08-23T09:08:27Z</time>
      </trkpt>
      <trkpt lat="45.8888" lon="4.73095">
        <ele>182</ele>
        <time>2017-08-23T09:08:28Z</time>
      </trkpt>
      <trkpt lat="45.88885" lon="4.73094">
        <ele>182</ele>
        <time>2017-08-23T09:08:29Z</time>
      </trkpt>
      <trkpt lat="45.88891" lon="4.73092">
        <ele>182</ele>
        <time>2017-08-23T09:08:30Z</time>
      </trkpt>
      <trkpt lat="45.88896" lon="4.73091">
        <ele>182</ele>
        <time>2017-08-23T09:08:31Z</time>
      </trkpt>
      <trkpt lat="45.88902" lon="4.73089">
        <ele>182</ele>
        <time>2017-08-23T09:08:32Z</time>
      </trkpt>
      <trkpt lat="45.88907" lon="4.73087">
        <ele>183</ele>
        <time>2017-08-23T09:08:33Z</time>
      </trkpt>
      <trkpt lat="45.88913" lon="4.73085">
        <ele>183</ele>
        <time>2017-08-23T09:08:34Z</time>
      </trkpt>
      <trkpt lat="45.88918" lon="4.73084">
        <ele>183</ele>
        <time>2017-08-23T09:08:35Z</time>
      </trkpt>
      <trkpt lat="45.88923" lon="4.73082">
        <ele>183</ele>
        <time>2017-08-23T09:08:36Z</time>
      </trkpt>
      <trkpt lat="45.88928" lon="4.7308">
        <ele>183</ele>
        <time>2017-08-23T09:08:37Z</time>
      </trkpt>
      <trkpt lat="45.88933" lon="4.73078">
        <ele>183</ele>
        <time>2017-08-23T09:08:38Z</time>
      </trkpt>
      <trkpt lat="45.88938" lon="4.73077">
        <ele>183</ele>
        <time>2017-08-23T09:08:39Z</time>
      </trkpt>
      <trkpt lat="45.88943" lon="4.73075">
        <ele>183</ele>
        <time>2017-08-23T09:08:40Z</time>
      </trkpt>
      <trkpt lat="45.88951" lon="4.73073">
        <ele>183</ele>
        <time>2017-08-23T09:08:42Z</time>
      </trkpt>
      <trkpt lat="45.88955" lon="4.73071">
        <ele>183</ele>
        <time>2017-08-23T09:08:43Z</time>
      </trkpt>
      <trkpt lat="45.88964" lon="4.73069">
        <ele>183</ele>
        <time>2017-08-23T09:08:45Z</time>
      </trkpt>
      <trkpt lat="45.88968" lon="4.73068">
        <ele>183</ele>
        <time>2017-08-23T09:08:46Z</time>
      </trkpt>
      <trkpt lat="45.88976" lon="4.73067">
        <ele>183</ele>
        <time>2017-08-23T09:08:48Z</time>
      </trkpt>
      <trkpt lat="45.88982" lon="4.73066">
        <ele>183</ele>
        <time>2017-08-23T09:08:49Z</time>
      </trkpt>
      <trkpt lat="45.88986" lon="4.73066">
        <ele>183</ele>
        <time>2017-08-23T09:08:50Z</time>
      </trkpt>
      <trkpt lat="45.88991" lon="4.73064">
        <ele>183</ele>
        <time>2017-08-23T09:08:51Z</time>
      </trkpt>
      <trkpt lat="45.88997" lon="4.73063">
        <ele>183</ele>
        <time>2017-08-23T09:08:52Z</time>
      </trkpt>
      <trkpt lat="45.89002" lon="4.73062">
        <ele>182</ele>
        <time>2017-08-23T09:08:53Z</time>
      </trkpt>
      <trkpt lat="45.89007" lon="4.7306">
        <ele>182</ele>
        <time>2017-08-23T09:08:54Z</time>
      </trkpt>
      <trkpt lat="45.89012" lon="4.73058">
        <ele>182</ele>
        <time>2017-08-23T09:08:55Z</time>
      </trkpt>
      <trkpt lat="45.89017" lon="4.73057">
        <ele>182</ele>
        <time>2017-08-23T09:08:56Z</time>
      </trkpt>
      <trkpt lat="45.89021" lon="4.73055">
        <ele>182</ele>
        <time>2017-08-23T09:08:57Z</time>
      </trkpt>
      <trkpt lat="45.89026" lon="4.73055">
        <ele>182</ele>
        <time>2017-08-23T09:08:58Z</time>
      </trkpt>
      <trkpt lat="45.8903" lon="4.73054">
        <ele>182</ele>
        <time>2017-08-23T09:08:59Z</time>
      </trkpt>
      <trkpt lat="45.89038" lon="4.73052">
        <ele>182</ele>
        <time>2017-08-23T09:09:01Z</time>
      </trkpt>
      <trkpt lat="45.89042" lon="4.73051">
        <ele>182</ele>
        <time>2017-08-23T09:09:02Z</time>
      </trkpt>
      <trkpt lat="45.8905" lon="4.73051">
        <ele>182</ele>
        <time>2017-08-23T09:09:04Z</time>
      </trkpt>
      <trkpt lat="45.89053" lon="4.73053">
        <ele>182</ele>
        <time>2017-08-23T09:09:05Z</time>
      </trkpt>
      <trkpt lat="45.89057" lon="4.7306">
        <ele>182</ele>
        <time>2017-08-23T09:09:07Z</time>
      </trkpt>
      <trkpt lat="45.89058" lon="4.73065">
        <ele>182</ele>
        <time>2017-08-23T09:09:08Z</time>
      </trkpt>
      <trkpt lat="45.89056" lon="4.73077">
        <ele>182</ele>
        <time>2017-08-23T09:09:10Z</time>
      </trkpt>
      <trkpt lat="45.89055" lon="4.73084">
        <ele>182</ele>
        <time>2017-08-23T09:09:11Z</time>
      </trkpt>
      <trkpt lat="45.89053" lon="4.73096">
        <ele>182</ele>
        <time>2017-08-23T09:09:13Z</time>
      </trkpt>
      <trkpt lat="45.89053" lon="4.73103">
        <ele>182</ele>
        <time>2017-08-23T09:09:14Z</time>
      </trkpt>
      <trkpt lat="45.89053" lon="4.7311">
        <ele>182</ele>
        <time>2017-08-23T09:09:15Z</time>
      </trkpt>
      <trkpt lat="45.89053" lon="4.73117">
        <ele>182</ele>
        <time>2017-08-23T09:09:16Z</time>
      </trkpt>
      <trkpt lat="45.89054" lon="4.73129">
        <ele>182</ele>
        <time>2017-08-23T09:09:18Z</time>
      </trkpt>
      <trkpt lat="45.89054" lon="4.73136">
        <ele>182</ele>
        <time>2017-08-23T09:09:19Z</time>
      </trkpt>
      <trkpt lat="45.89054" lon="4.73147">
        <ele>181</ele>
        <time>2017-08-23T09:09:21Z</time>
      </trkpt>
      <trkpt lat="45.89054" lon="4.73153">
        <ele>181</ele>
        <time>2017-08-23T09:09:22Z</time>
      </trkpt>
      <trkpt lat="45.89055" lon="4.73165">
        <ele>181</ele>
        <time>2017-08-23T09:09:24Z</time>
      </trkpt>
      <trkpt lat="45.89055" lon="4.73172">
        <ele>180</ele>
        <time>2017-08-23T09:09:25Z</time>
      </trkpt>
      <trkpt lat="45.89055" lon="4.73179">
        <ele>180</ele>
        <time>2017-08-23T09:09:26Z</time>
      </trkpt>
      <trkpt lat="45.89056" lon="4.73187">
        <ele>180</ele>
        <time>2017-08-23T09:09:27Z</time>
      </trkpt>
      <trkpt lat="45.89056" lon="4.73194">
        <ele>180</ele>
        <time>2017-08-23T09:09:28Z</time>
      </trkpt>
      <trkpt lat="45.89057" lon="4.73201">
        <ele>180</ele>
        <time>2017-08-23T09:09:29Z</time>
      </trkpt>
      <trkpt lat="45.89058" lon="4.73213">
        <ele>180</ele>
        <time>2017-08-23T09:09:31Z</time>
      </trkpt>
      <trkpt lat="45.89058" lon="4.73218">
        <ele>180</ele>
        <time>2017-08-23T09:09:32Z</time>
      </trkpt>
      <trkpt lat="45.89059" lon="4.73229">
        <ele>180</ele>
        <time>2017-08-23T09:09:34Z</time>
      </trkpt>
      <trkpt lat="45.89059" lon="4.73235">
        <ele>180</ele>
        <time>2017-08-23T09:09:35Z</time>
      </trkpt>
      <trkpt lat="45.8906" lon="4.73242">
        <ele>180</ele>
        <time>2017-08-23T09:09:36Z</time>
      </trkpt>
      <trkpt lat="45.89061" lon="4.73249">
        <ele>180</ele>
        <time>2017-08-23T09:09:37Z</time>
      </trkpt>
      <trkpt lat="45.89062" lon="4.73256">
        <ele>179</ele>
        <time>2017-08-23T09:09:38Z</time>
      </trkpt>
      <trkpt lat="45.89063" lon="4.73263">
        <ele>179</ele>
        <time>2017-08-23T09:09:39Z</time>
      </trkpt>
      <trkpt lat="45.89065" lon="4.73276">
        <ele>179</ele>
        <time>2017-08-23T09:09:41Z</time>
      </trkpt>
      <trkpt lat="45.89067" lon="4.73281">
        <ele>179</ele>
        <time>2017-08-23T09:09:42Z</time>
      </trkpt>
      <trkpt lat="45.89069" lon="4.73291">
        <ele>179</ele>
        <time>2017-08-23T09:09:44Z</time>
      </trkpt>
      <trkpt lat="45.8907" lon="4.73296">
        <ele>179</ele>
        <time>2017-08-23T09:09:45Z</time>
      </trkpt>
      <trkpt lat="45.89072" lon="4.73307">
        <ele>179</ele>
        <time>2017-08-23T09:09:47Z</time>
      </trkpt>
      <trkpt lat="45.89073" lon="4.73313">
        <ele>179</ele>
        <time>2017-08-23T09:09:48Z</time>
      </trkpt>
      <trkpt lat="45.89074" lon="4.7332">
        <ele>179</ele>
        <time>2017-08-23T09:09:49Z</time>
      </trkpt>
      <trkpt lat="45.89075" lon="4.73326">
        <ele>179</ele>
        <time>2017-08-23T09:09:50Z</time>
      </trkpt>
      <trkpt lat="45.89077" lon="4.73338">
        <ele>179</ele>
        <time>2017-08-23T09:09:52Z</time>
      </trkpt>
      <trkpt lat="45.89077" lon="4.73343">
        <ele>179</ele>
        <time>2017-08-23T09:09:53Z</time>
      </trkpt>
      <trkpt lat="45.89078" lon="4.73354">
        <ele>180</ele>
        <time>2017-08-23T09:09:55Z</time>
      </trkpt>
      <trkpt lat="45.89078" lon="4.73359">
        <ele>180</ele>
        <time>2017-08-23T09:09:56Z</time>
      </trkpt>
      <trkpt lat="45.89079" lon="4.7337">
        <ele>180</ele>
        <time>2017-08-23T09:09:58Z</time>
      </trkpt>
      <trkpt lat="45.8908" lon="4.73375">
        <ele>180</ele>
        <time>2017-08-23T09:09:59Z</time>
      </trkpt>
      <trkpt lat="45.89081" lon="4.73385">
        <ele>180</ele>
        <time>2017-08-23T09:10:01Z</time>
      </trkpt>
      <trkpt lat="45.89082" lon="4.7339">
        <ele>180</ele>
        <time>2017-08-23T09:10:02Z</time>
      </trkpt>
      <trkpt lat="45.89082" lon="4.73402">
        <ele>180</ele>
        <time>2017-08-23T09:10:05Z</time>
      </trkpt>
      <trkpt lat="45.89083" lon="4.73405">
        <ele>180</ele>
        <time>2017-08-23T09:10:06Z</time>
      </trkpt>
      <trkpt lat="45.89083" lon="4.7341">
        <ele>180</ele>
        <time>2017-08-23T09:10:08Z</time>
      </trkpt>
      <trkpt lat="45.89083" lon="4.7341">
        <ele>180</ele>
        <time>2017-08-23T09:10:09Z</time>
      </trkpt>
      <trkpt lat="45.89083" lon="4.7341">
        <ele>180</ele>
        <time>2017-08-23T09:10:35Z</time>
      </trkpt>
      <trkpt lat="45.89083" lon="4.73408">
        <ele>180</ele>
        <time>2017-08-23T09:10:36Z</time>
      </trkpt>
      <trkpt lat="45.89083" lon="4.73395">
        <ele>180</ele>
        <time>2017-08-23T09:10:42Z</time>
      </trkpt>
      <trkpt lat="45.89083" lon="4.73391">
        <ele>180</ele>
        <time>2017-08-23T09:10:43Z</time>
      </trkpt>
      <trkpt lat="45.89083" lon="4.73379">
        <ele>180</ele>
        <time>2017-08-23T09:10:46Z</time>
      </trkpt>
      <trkpt lat="45.89083" lon="4.73373">
        <ele>180</ele>
        <time>2017-08-23T09:10:47Z</time>
      </trkpt>
      <trkpt lat="45.89082" lon="4.73362">
        <ele>180</ele>
        <time>2017-08-23T09:10:49Z</time>
      </trkpt>
      <trkpt lat="45.89082" lon="4.73356">
        <ele>180</ele>
        <time>2017-08-23T09:10:50Z</time>
      </trkpt>
      <trkpt lat="45.89081" lon="4.73343">
        <ele>179</ele>
        <time>2017-08-23T09:10:52Z</time>
      </trkpt>
      <trkpt lat="45.8908" lon="4.73338">
        <ele>179</ele>
        <time>2017-08-23T09:10:53Z</time>
      </trkpt>
      <trkpt lat="45.89079" lon="4.73327">
        <ele>179</ele>
        <time>2017-08-23T09:10:55Z</time>
      </trkpt>
      <trkpt lat="45.89078" lon="4.73321">
        <ele>179</ele>
        <time>2017-08-23T09:10:56Z</time>
      </trkpt>
      <trkpt lat="45.89077" lon="4.73314">
        <ele>179</ele>
        <time>2017-08-23T09:10:57Z</time>
      </trkpt>
      <trkpt lat="45.89075" lon="4.73308">
        <ele>179</ele>
        <time>2017-08-23T09:10:58Z</time>
      </trkpt>
      <trkpt lat="45.89073" lon="4.73301">
        <ele>179</ele>
        <time>2017-08-23T09:10:59Z</time>
      </trkpt>
      <trkpt lat="45.89072" lon="4.73294">
        <ele>179</ele>
        <time>2017-08-23T09:11:00Z</time>
      </trkpt>
      <trkpt lat="45.8907" lon="4.73287">
        <ele>179</ele>
        <time>2017-08-23T09:11:01Z</time>
      </trkpt>
      <trkpt lat="45.89068" lon="4.73281">
        <ele>179</ele>
        <time>2017-08-23T09:11:02Z</time>
      </trkpt>
      <trkpt lat="45.89067" lon="4.73269">
        <ele>179</ele>
        <time>2017-08-23T09:11:04Z</time>
      </trkpt>
      <trkpt lat="45.89066" lon="4.73263">
        <ele>179</ele>
        <time>2017-08-23T09:11:05Z</time>
      </trkpt>
      <trkpt lat="45.89065" lon="4.73253">
        <ele>179</ele>
        <time>2017-08-23T09:11:07Z</time>
      </trkpt>
      <trkpt lat="45.89064" lon="4.73247">
        <ele>180</ele>
        <time>2017-08-23T09:11:08Z</time>
      </trkpt>
      <trkpt lat="45.89063" lon="4.73236">
        <ele>180</ele>
        <time>2017-08-23T09:11:10Z</time>
      </trkpt>
      <trkpt lat="45.89062" lon="4.73229">
        <ele>180</ele>
        <time>2017-08-23T09:11:11Z</time>
      </trkpt>
      <trkpt lat="45.89062" lon="4.73223">
        <ele>180</ele>
        <time>2017-08-23T09:11:12Z</time>
      </trkpt>
      <trkpt lat="45.89062" lon="4.73216">
        <ele>180</ele>
        <time>2017-08-23T09:11:13Z</time>
      </trkpt>
      <trkpt lat="45.89061" lon="4.73209">
        <ele>180</ele>
        <time>2017-08-23T09:11:14Z</time>
      </trkpt>
      <trkpt lat="45.89061" lon="4.73203">
        <ele>180</ele>
        <time>2017-08-23T09:11:15Z</time>
      </trkpt>
      <trkpt lat="45.8906" lon="4.73196">
        <ele>180</ele>
        <time>2017-08-23T09:11:16Z</time>
      </trkpt>
      <trkpt lat="45.89059" lon="4.73189">
        <ele>180</ele>
        <time>2017-08-23T09:11:17Z</time>
      </trkpt>
      <trkpt lat="45.89058" lon="4.73176">
        <ele>180</ele>
        <time>2017-08-23T09:11:19Z</time>
      </trkpt>
      <trkpt lat="45.89058" lon="4.7317">
        <ele>180</ele>
        <time>2017-08-23T09:11:20Z</time>
      </trkpt>
      <trkpt lat="45.89057" lon="4.73158">
        <ele>181</ele>
        <time>2017-08-23T09:11:22Z</time>
      </trkpt>
      <trkpt lat="45.89057" lon="4.73152">
        <ele>181</ele>
        <time>2017-08-23T09:11:23Z</time>
      </trkpt>
      <trkpt lat="45.89056" lon="4.73141">
        <ele>181</ele>
        <time>2017-08-23T09:11:25Z</time>
      </trkpt>
      <trkpt lat="45.89057" lon="4.73135">
        <ele>181</ele>
        <time>2017-08-23T09:11:26Z</time>
      </trkpt>
      <trkpt lat="45.89057" lon="4.73122">
        <ele>182</ele>
        <time>2017-08-23T09:11:28Z</time>
      </trkpt>
      <trkpt lat="45.89057" lon="4.73116">
        <ele>182</ele>
        <time>2017-08-23T09:11:29Z</time>
      </trkpt>
      <trkpt lat="45.89057" lon="4.73104">
        <ele>182</ele>
        <time>2017-08-23T09:11:31Z</time>
      </trkpt>
      <trkpt lat="45.89057" lon="4.73099">
        <ele>182</ele>
        <time>2017-08-23T09:11:32Z</time>
      </trkpt>
      <trkpt lat="45.89058" lon="4.73087">
        <ele>182</ele>
        <time>2017-08-23T09:11:34Z</time>
      </trkpt>
      <trkpt lat="45.89059" lon="4.73082">
        <ele>182</ele>
        <time>2017-08-23T09:11:35Z</time>
      </trkpt>
      <trkpt lat="45.8906" lon="4.7307">
        <ele>182</ele>
        <time>2017-08-23T09:11:37Z</time>
      </trkpt>
      <trkpt lat="45.89059" lon="4.73064">
        <ele>182</ele>
        <time>2017-08-23T09:11:38Z</time>
      </trkpt>
      <trkpt lat="45.89054" lon="4.73055">
        <ele>182</ele>
        <time>2017-08-23T09:11:40Z</time>
      </trkpt>
      <trkpt lat="45.8905" lon="4.73053">
        <ele>182</ele>
        <time>2017-08-23T09:11:41Z</time>
      </trkpt>
      <trkpt lat="45.89041" lon="4.73054">
        <ele>182</ele>
        <time>2017-08-23T09:11:43Z</time>
      </trkpt>
      <trkpt lat="45.89036" lon="4.73057">
        <ele>182</ele>
        <time>2017-08-23T09:11:44Z</time>
      </trkpt>
      <trkpt lat="45.89031" lon="4.73059">
        <ele>182</ele>
        <time>2017-08-23T09:11:45Z</time>
      </trkpt>
      <trkpt lat="45.89027" lon="4.7306">
        <ele>182</ele>
        <time>2017-08-23T09:11:46Z</time>
      </trkpt>
      <trkpt lat="45.89022" lon="4.73061">
        <ele>182</ele>
        <time>2017-08-23T09:11:47Z</time>
      </trkpt>
      <trkpt lat="45.89017" lon="4.73061">
        <ele>182</ele>
        <time>2017-08-23T09:11:48Z</time>
      </trkpt>
      <trkpt lat="45.89009" lon="4.73063">
        <ele>182</ele>
        <time>2017-08-23T09:11:50Z</time>
      </trkpt>
      <trkpt lat="45.89005" lon="4.73064">
        <ele>182</ele>
        <time>2017-08-23T09:11:51Z</time>
      </trkpt>
      <trkpt lat="45.89001" lon="4.73065">
        <ele>182</ele>
        <time>2017-08-23T09:11:52Z</time>
      </trkpt>
      <trkpt lat="45.88996" lon="4.73067">
        <ele>183</ele>
        <time>2017-08-23T09:11:53Z</time>
      </trkpt>
      <trkpt lat="45.88991" lon="4.73069">
        <ele>183</ele>
        <time>2017-08-23T09:11:54Z</time>
      </trkpt>
      <trkpt lat="45.88986" lon="4.7307">
        <ele>183</ele>
        <time>2017-08-23T09:11:55Z</time>
      </trkpt>
      <trkpt lat="45.88981" lon="4.73072">
        <ele>183</ele>
        <time>2017-08-23T09:11:56Z</time>
      </trkpt>
      <trkpt lat="45.88977" lon="4.73073">
        <ele>183</ele>
        <time>2017-08-23T09:11:57Z</time>
      </trkpt>
      <trkpt lat="45.88969" lon="4.73074">
        <ele>183</ele>
        <time>2017-08-23T09:11:59Z</time>
      </trkpt>
      <trkpt lat="45.88965" lon="4.73075">
        <ele>183</ele>
        <time>2017-08-23T09:12:00Z</time>
      </trkpt>
      <trkpt lat="45.88957" lon="4.73077">
        <ele>183</ele>
        <time>2017-08-23T09:12:02Z</time>
      </trkpt>
      <trkpt lat="45.88952" lon="4.73078">
        <ele>183</ele>
        <time>2017-08-23T09:12:03Z</time>
      </trkpt>
      <trkpt lat="45.88947" lon="4.73079">
        <ele>183</ele>
        <time>2017-08-23T09:12:04Z</time>
      </trkpt>
      <trkpt lat="45.88942" lon="4.7308">
        <ele>183</ele>
        <time>2017-08-23T09:12:05Z</time>
      </trkpt>
      <trkpt lat="45.88937" lon="4.73081">
        <ele>183</ele>
        <time>2017-08-23T09:12:06Z</time>
      </trkpt>
      <trkpt lat="45.88932" lon="4.73081">
        <ele>183</ele>
        <time>2017-08-23T09:12:07Z</time>
      </trkpt>
      <trkpt lat="45.88927" lon="4.73082">
        <ele>183</ele>
        <time>2017-08-23T09:12:08Z</time>
      </trkpt>
      <trkpt lat="45.88923" lon="4.73083">
        <ele>183</ele>
        <time>2017-08-23T09:12:09Z</time>
      </trkpt>
      <trkpt lat="45.88915" lon="4.73085">
        <ele>183</ele>
        <time>2017-08-23T09:12:11Z</time>
      </trkpt>
      <trkpt lat="45.88911" lon="4.73086">
        <ele>183</ele>
        <time>2017-08-23T09:12:12Z</time>
      </trkpt>
      <trkpt lat="45.88907" lon="4.73087">
        <ele>183</ele>
        <time>2017-08-23T09:12:13Z</time>
      </trkpt>
      <trkpt lat="45.88902" lon="4.73088">
        <ele>182</ele>
        <time>2017-08-23T09:12:14Z</time>
      </trkpt>
      <trkpt lat="45.88897" lon="4.73089">
        <ele>182</ele>
        <time>2017-08-23T09:12:15Z</time>
      </trkpt>
      <trkpt lat="45.88892" lon="4.73091">
        <ele>182</ele>
        <time>2017-08-23T09:12:16Z</time>
      </trkpt>
      <trkpt lat="45.88887" lon="4.73092">
        <ele>182</ele>
        <time>2017-08-23T09:12:17Z</time>
      </trkpt>
      <trkpt lat="45.88882" lon="4.73093">
        <ele>182</ele>
        <time>2017-08-23T09:12:18Z</time>
      </trkpt>
      <trkpt lat="45.88876" lon="4.73094">
        <ele>182</ele>
        <time>2017-08-23T09:12:19Z</time>
      </trkpt>
      <trkpt lat="45.8887" lon="4.73095">
        <ele>182</ele>
        <time>2017-08-23T09:12:20Z</time>
      </trkpt>
      <trkpt lat="45.88865" lon="4.73096">
        <ele>182</ele>
        <time>2017-08-23T09:12:21Z</time>
      </trkpt>
      <trkpt lat="45.88859" lon="4.73098">
        <ele>182</ele>
        <time>2017-08-23T09:12:22Z</time>
      </trkpt>
      <trkpt lat="45.88854" lon="4.73099">
        <ele>182</ele>
        <time>2017-08-23T09:12:23Z</time>
      </trkpt>
      <trkpt lat="45.88849" lon="4.731">
        <ele>182</ele>
        <time>2017-08-23T09:12:24Z</time>
      </trkpt>
      <trkpt lat="45.88841" lon="4.73103">
        <ele>182</ele>
        <time>2017-08-23T09:12:26Z</time>
      </trkpt>
      <trkpt lat="45.88836" lon="4.73105">
        <ele>182</ele>
        <time>2017-08-23T09:12:27Z</time>
      </trkpt>
      <trkpt lat="45.88828" lon="4.73107">
        <ele>182</ele>
        <time>2017-08-23T09:12:29Z</time>
      </trkpt>
      <trkpt lat="45.88825" lon="4.73108">
        <ele>182</ele>
        <time>2017-08-23T09:12:30Z</time>
      </trkpt>
      <trkpt lat="45.88817" lon="4.73113">
        <ele>182</ele>
        <time>2017-08-23T09:12:33Z</time>
      </trkpt>
      <trkpt lat="45.88815" lon="4.73114">
        <ele>182</ele>
        <time>2017-08-23T09:12:34Z</time>
      </trkpt>
      <trkpt lat="45.88808" lon="4.73111">
        <ele>182</ele>
        <time>2017-08-23T09:12:38Z</time>
      </trkpt>
      <trkpt lat="45.88805" lon="4.73111">
        <ele>182</ele>
        <time>2017-08-23T09:12:39Z</time>
      </trkpt>
      <trkpt lat="45.88799" lon="4.73111">
        <ele>182</ele>
        <time>2017-08-23T09:12:41Z</time>
      </trkpt>
      <trkpt lat="45.88796" lon="4.73111">
        <ele>182</ele>
        <time>2017-08-23T09:12:42Z</time>
      </trkpt>
      <trkpt lat="45.88788" lon="4.73112">
        <ele>182</ele>
        <time>2017-08-23T09:12:45Z</time>
      </trkpt>
      <trkpt lat="45.88785" lon="4.73112">
        <ele>182</ele>
        <time>2017-08-23T09:12:46Z</time>
      </trkpt>
      <trkpt lat="45.8878" lon="4.73118">
        <ele>182</ele>
        <time>2017-08-23T09:12:48Z</time>
      </trkpt>
      <trkpt lat="45.88778" lon="4.73122">
        <ele>182</ele>
        <time>2017-08-23T09:12:49Z</time>
      </trkpt>
      <trkpt lat="45.88777" lon="4.73129">
        <ele>182</ele>
        <time>2017-08-23T09:12:50Z</time>
      </trkpt>
      <trkpt lat="45.88777" lon="4.73136">
        <ele>182</ele>
        <time>2017-08-23T09:12:51Z</time>
      </trkpt>
      <trkpt lat="45.88777" lon="4.73143">
        <ele>182</ele>
        <time>2017-08-23T09:12:52Z</time>
      </trkpt>
      <trkpt lat="45.88778" lon="4.7315">
        <ele>182</ele>
        <time>2017-08-23T09:12:53Z</time>
      </trkpt>
      <trkpt lat="45.88779" lon="4.73156">
        <ele>182</ele>
        <time>2017-08-23T09:12:54Z</time>
      </trkpt>
      <trkpt lat="45.88779" lon="4.73163">
        <ele>182</ele>
        <time>2017-08-23T09:12:55Z</time>
      </trkpt>
      <trkpt lat="45.8878" lon="4.73174">
        <ele>182</ele>
        <time>2017-08-23T09:12:57Z</time>
      </trkpt>
      <trkpt lat="45.8878" lon="4.7318">
        <ele>182</ele>
        <time>2017-08-23T09:12:58Z</time>
      </trkpt>
      <trkpt lat="45.8878" lon="4.73191">
        <ele>182</ele>
        <time>2017-08-23T09:13:00Z</time>
      </trkpt>
      <trkpt lat="45.8878" lon="4.73197">
        <ele>182</ele>
        <time>2017-08-23T09:13:01Z</time>
      </trkpt>
      <trkpt lat="45.8878" lon="4.73204">
        <ele>182</ele>
        <time>2017-08-23T09:13:02Z</time>
      </trkpt>
      <trkpt lat="45.8878" lon="4.7321">
        <ele>182</ele>
        <time>2017-08-23T09:13:03Z</time>
      </trkpt>
      <trkpt lat="45.88781" lon="4.73217">
        <ele>182</ele>
        <time>2017-08-23T09:13:04Z</time>
      </trkpt>
      <trkpt lat="45.88781" lon="4.73223">
        <ele>182</ele>
        <time>2017-08-23T09:13:05Z</time>
      </trkpt>
      <trkpt lat="45.88781" lon="4.73235">
        <ele>182</ele>
        <time>2017-08-23T09:13:07Z</time>
      </trkpt>
      <trkpt lat="45.88781" lon="4.73241">
        <ele>182</ele>
        <time>2017-08-23T09:13:08Z</time>
      </trkpt>
      <trkpt lat="45.8878" lon="4.73253">
        <ele>183</ele>
        <time>2017-08-23T09:13:10Z</time>
      </trkpt>
      <trkpt lat="45.88779" lon="4.73259">
        <ele>183</ele>
        <time>2017-08-23T09:13:11Z</time>
      </trkpt>
      <trkpt lat="45.88777" lon="4.73265">
        <ele>183</ele>
        <time>2017-08-23T09:13:12Z</time>
      </trkpt>
      <trkpt lat="45.88776" lon="4.73272">
        <ele>183</ele>
        <time>2017-08-23T09:13:13Z</time>
      </trkpt>
      <trkpt lat="45.88775" lon="4.73278">
        <ele>183</ele>
        <time>2017-08-23T09:13:14Z</time>
      </trkpt>
      <trkpt lat="45.88773" lon="4.73284">
        <ele>183</ele>
        <time>2017-08-23T09:13:15Z</time>
      </trkpt>
      <trkpt lat="45.8877" lon="4.73296">
        <ele>183</ele>
        <time>2017-08-23T09:13:17Z</time>
      </trkpt>
      <trkpt lat="45.88768" lon="4.73301">
        <ele>184</ele>
        <time>2017-08-23T09:13:18Z</time>
      </trkpt>
      <trkpt lat="45.88766" lon="4.73309">
        <ele>184</ele>
        <time>2017-08-23T09:13:20Z</time>
      </trkpt>
      <trkpt lat="45.88764" lon="4.73313">
        <ele>184</ele>
        <time>2017-08-23T09:13:21Z</time>
      </trkpt>
      <trkpt lat="45.8876" lon="4.73323">
        <ele>184</ele>
        <time>2017-08-23T09:13:23Z</time>
      </trkpt>
      <trkpt lat="45.88757" lon="4.73328">
        <ele>184</ele>
        <time>2017-08-23T09:13:24Z</time>
      </trkpt>
      <trkpt lat="45.88754" lon="4.73334">
        <ele>185</ele>
        <time>2017-08-23T09:13:25Z</time>
      </trkpt>
      <trkpt lat="45.8875" lon="4.73339">
        <ele>185</ele>
        <time>2017-08-23T09:13:26Z</time>
      </trkpt>
      <trkpt lat="45.88744" lon="4.73348">
        <ele>185</ele>
        <time>2017-08-23T09:13:28Z</time>
      </trkpt>
      <trkpt lat="45.8874" lon="4.73351">
        <ele>185</ele>
        <time>2017-08-23T09:13:29Z</time>
      </trkpt>
      <trkpt lat="45.88735" lon="4.7336">
        <ele>185</ele>
        <time>2017-08-23T09:13:31Z</time>
      </trkpt>
      <trkpt lat="45.88732" lon="4.73363">
        <ele>185</ele>
        <time>2017-08-23T09:13:32Z</time>
      </trkpt>
      <trkpt lat="45.88725" lon="4.73371">
        <ele>185</ele>
        <time>2017-08-23T09:13:34Z</time>
      </trkpt>
      <trkpt lat="45.88721" lon="4.73376">
        <ele>184</ele>
        <time>2017-08-23T09:13:35Z</time>
      </trkpt>
      <trkpt lat="45.88717" lon="4.73381">
        <ele>184</ele>
        <time>2017-08-23T09:13:36Z</time>
      </trkpt>
      <trkpt lat="45.88713" lon="4.73387">
        <ele>184</ele>
        <time>2017-08-23T09:13:37Z</time>
      </trkpt>
      <trkpt lat="45.88709" lon="4.73392">
        <ele>184</ele>
        <time>2017-08-23T09:13:38Z</time>
      </trkpt>
      <trkpt lat="45.88706" lon="4.73397">
        <ele>184</ele>
        <time>2017-08-23T09:13:39Z</time>
      </trkpt>
      <trkpt lat="45.88702" lon="4.73401">
        <ele>184</ele>
        <time>2017-08-23T09:13:40Z</time>
      </trkpt>
      <trkpt lat="45.88699" lon="4.73406">
        <ele>184</ele>
        <time>2017-08-23T09:13:41Z</time>
      </trkpt>
      <trkpt lat="45.88695" lon="4.7341">
        <ele>184</ele>
        <time>2017-08-23T09:13:42Z</time>
      </trkpt>
      <trkpt lat="45.88692" lon="4.73416">
        <ele>184</ele>
        <time>2017-08-23T09:13:43Z</time>
      </trkpt>
      <trkpt lat="45.88686" lon="4.73424">
        <ele>184</ele>
        <time>2017-08-23T09:13:45Z</time>
      </trkpt>
      <trkpt lat="45.88683" lon="4.73429">
        <ele>184</ele>
        <time>2017-08-23T09:13:46Z</time>
      </trkpt>
      <trkpt lat="45.8868" lon="4.73435">
        <ele>184</ele>
        <time>2017-08-23T09:13:47Z</time>
      </trkpt>
      <trkpt lat="45.88676" lon="4.73441">
        <ele>184</ele>
        <time>2017-08-23T09:13:48Z</time>
      </trkpt>
      <trkpt lat="45.88672" lon="4.73447">
        <ele>184</ele>
        <time>2017-08-23T09:13:49Z</time>
      </trkpt>
      <trkpt lat="45.88669" lon="4.73454">
        <ele>184</ele>
        <time>2017-08-23T09:13:50Z</time>
      </trkpt>
      <trkpt lat="45.88666" lon="4.7346">
        <ele>184</ele>
        <time>2017-08-23T09:13:51Z</time>
      </trkpt>
      <trkpt lat="45.88663" lon="4.73466">
        <ele>184</ele>
        <time>2017-08-23T09:13:52Z</time>
      </trkpt>
      <trkpt lat="45.8866" lon="4.73472">
        <ele>184</ele>
        <time>2017-08-23T09:13:53Z</time>
      </trkpt>
      <trkpt lat="45.88657" lon="4.73478">
        <ele>184</ele>
        <time>2017-08-23T09:13:54Z</time>
      </trkpt>
      <trkpt lat="45.88654" lon="4.73483">
        <ele>184</ele>
        <time>2017-08-23T09:13:55Z</time>
      </trkpt>
      <trkpt lat="45.88652" lon="4.73489">
        <ele>184</ele>
        <time>2017-08-23T09:13:56Z</time>
      </trkpt>
      <trkpt lat="45.88651" lon="4.73497">
        <ele>184</ele>
        <time>2017-08-23T09:13:57Z</time>
      </trkpt>
      <trkpt lat="45.88649" lon="4.73503">
        <ele>184</ele>
        <time>2017-08-23T09:13:58Z</time>
      </trkpt>
      <trkpt lat="45.88647" lon="4.73515">
        <ele>185</ele>
        <time>2017-08-23T09:14:00Z</time>
      </trkpt>
      <trkpt lat="45.88646" lon="4.7352">
        <ele>185</ele>
        <time>2017-08-23T09:14:01Z</time>
      </trkpt>
      <trkpt lat="45.88644" lon="4.7353">
        <ele>185</ele>
        <time>2017-08-23T09:14:03Z</time>
      </trkpt>
      <trkpt lat="45.88643" lon="4.73536">
        <ele>185</ele>
        <time>2017-08-23T09:14:04Z</time>
      </trkpt>
      <trkpt lat="45.88643" lon="4.73545">
        <ele>185</ele>
        <time>2017-08-23T09:14:06Z</time>
      </trkpt>
      <trkpt lat="45.88643" lon="4.7355">
        <ele>185</ele>
        <time>2017-08-23T09:14:07Z</time>
      </trkpt>
      <trkpt lat="45.88642" lon="4.7356">
        <ele>185</ele>
        <time>2017-08-23T09:14:09Z</time>
      </trkpt>
      <trkpt lat="45.88642" lon="4.73565">
        <ele>185</ele>
        <time>2017-08-23T09:14:10Z</time>
      </trkpt>
      <trkpt lat="45.88642" lon="4.73575">
        <ele>185</ele>
        <time>2017-08-23T09:14:12Z</time>
      </trkpt>
      <trkpt lat="45.88642" lon="4.7358">
        <ele>185</ele>
        <time>2017-08-23T09:14:13Z</time>
      </trkpt>
      <trkpt lat="45.88642" lon="4.73589">
        <ele>185</ele>
        <time>2017-08-23T09:14:15Z</time>
      </trkpt>
      <trkpt lat="45.88642" lon="4.73594">
        <ele>186</ele>
        <time>2017-08-23T09:14:16Z</time>
      </trkpt>
      <trkpt lat="45.88642" lon="4.73604">
        <ele>186</ele>
        <time>2017-08-23T09:14:18Z</time>
      </trkpt>
      <trkpt lat="45.88642" lon="4.73609">
        <ele>186</ele>
        <time>2017-08-23T09:14:19Z</time>
      </trkpt>
      <trkpt lat="45.88642" lon="4.73619">
        <ele>186</ele>
        <time>2017-08-23T09:14:21Z</time>
      </trkpt>
      <trkpt lat="45.88642" lon="4.73625">
        <ele>186</ele>
        <time>2017-08-23T09:14:22Z</time>
      </trkpt>
      <trkpt lat="45.88642" lon="4.73636">
        <ele>186</ele>
        <time>2017-08-23T09:14:24Z</time>
      </trkpt>
      <trkpt lat="45.88642" lon="4.73642">
        <ele>186</ele>
        <time>2017-08-23T09:14:25Z</time>
      </trkpt>
      <trkpt lat="45.88642" lon="4.73652">
        <ele>186</ele>
        <time>2017-08-23T09:14:27Z</time>
      </trkpt>
      <trkpt lat="45.88642" lon="4.73657">
        <ele>186</ele>
        <time>2017-08-23T09:14:28Z</time>
      </trkpt>
      <trkpt lat="45.88642" lon="4.73666">
        <ele>186</ele>
        <time>2017-08-23T09:14:30Z</time>
      </trkpt>
      <trkpt lat="45.88642" lon="4.73671">
        <ele>186</ele>
        <time>2017-08-23T09:14:31Z</time>
      </trkpt>
      <trkpt lat="45.88642" lon="4.73681">
        <ele>186</ele>
        <time>2017-08-23T09:14:33Z</time>
      </trkpt>
      <trkpt lat="45.88642" lon="4.73686">
        <ele>186</ele>
        <time>2017-08-23T09:14:34Z</time>
      </trkpt>
      <trkpt lat="45.88641" lon="4.73696">
        <ele>186</ele>
        <time>2017-08-23T09:14:36Z</time>
      </trkpt>
      <trkpt lat="45.88641" lon="4.73701">
        <ele>186</ele>
        <time>2017-08-23T09:14:37Z</time>
      </trkpt>
      <trkpt lat="45.8864" lon="4.73711">
        <ele>186</ele>
        <time>2017-08-23T09:14:39Z</time>
      </trkpt>
      <trkpt lat="45.8864" lon="4.73716">
        <ele>186</ele>
        <time>2017-08-23T09:14:40Z</time>
      </trkpt>
      <trkpt lat="45.8864" lon="4.73728">
        <ele>186</ele>
        <time>2017-08-23T09:14:42Z</time>
      </trkpt>
      <trkpt lat="45.8864" lon="4.73734">
        <ele>186</ele>
        <time>2017-08-23T09:14:43Z</time>
      </trkpt>
      <trkpt lat="45.8864" lon="4.73741">
        <ele>186</ele>
        <time>2017-08-23T09:14:44Z</time>
      </trkpt>
      <trkpt lat="45.8864" lon="4.73749">
        <ele>186</ele>
        <time>2017-08-23T09:14:45Z</time>
      </trkpt>
      <trkpt lat="45.8864" lon="4.73756">
        <ele>187</ele>
        <time>2017-08-23T09:14:46Z</time>
      </trkpt>
      <trkpt lat="45.8864" lon="4.73764">
        <ele>187</ele>
        <time>2017-08-23T09:14:47Z</time>
      </trkpt>
      <trkpt lat="45.8864" lon="4.73772">
        <ele>187</ele>
        <time>2017-08-23T09:14:48Z</time>
      </trkpt>
      <trkpt lat="45.88641" lon="4.73782">
        <ele>187</ele>
        <time>2017-08-23T09:14:49Z</time>
      </trkpt>
      <trkpt lat="45.88641" lon="4.73791">
        <ele>187</ele>
        <time>2017-08-23T09:14:50Z</time>
      </trkpt>
      <trkpt lat="45.88641" lon="4.738">
        <ele>187</ele>
        <time>2017-08-23T09:14:51Z</time>
      </trkpt>
      <trkpt lat="45.8864" lon="4.73809">
        <ele>187</ele>
        <time>2017-08-23T09:14:52Z</time>
      </trkpt>
      <trkpt lat="45.88639" lon="4.73818">
        <ele>187</ele>
        <time>2017-08-23T09:14:53Z</time>
      </trkpt>
      <trkpt lat="45.88639" lon="4.73827">
        <ele>187</ele>
        <time>2017-08-23T09:14:54Z</time>
      </trkpt>
      <trkpt lat="45.88639" lon="4.73835">
        <ele>187</ele>
        <time>2017-08-23T09:14:55Z</time>
      </trkpt>
      <trkpt lat="45.88639" lon="4.73844">
        <ele>187</ele>
        <time>2017-08-23T09:14:56Z</time>
      </trkpt>
      <trkpt lat="45.88639" lon="4.73852">
        <ele>187</ele>
        <time>2017-08-23T09:14:57Z</time>
      </trkpt>
      <trkpt lat="45.88639" lon="4.7386">
        <ele>187</ele>
        <time>2017-08-23T09:14:58Z</time>
      </trkpt>
      <trkpt lat="45.88639" lon="4.73868">
        <ele>187</ele>
        <time>2017-08-23T09:14:59Z</time>
      </trkpt>
      <trkpt lat="45.88639" lon="4.73876">
        <ele>187</ele>
        <time>2017-08-23T09:15:00Z</time>
      </trkpt>
      <trkpt lat="45.88639" lon="4.73884">
        <ele>187</ele>
        <time>2017-08-23T09:15:01Z</time>
      </trkpt>
      <trkpt lat="45.88639" lon="4.73892">
        <ele>187</ele>
        <time>2017-08-23T09:15:02Z</time>
      </trkpt>
      <trkpt lat="45.88639" lon="4.739">
        <ele>187</ele>
        <time>2017-08-23T09:15:03Z</time>
      </trkpt>
      <trkpt lat="45.88639" lon="4.73907">
        <ele>187</ele>
        <time>2017-08-23T09:15:04Z</time>
      </trkpt>
      <trkpt lat="45.88639" lon="4.73915">
        <ele>187</ele>
        <time>2017-08-23T09:15:05Z</time>
      </trkpt>
      <trkpt lat="45.88639" lon="4.73922">
        <ele>187</ele>
        <time>2017-08-23T09:15:06Z</time>
      </trkpt>
      <trkpt lat="45.88639" lon="4.73929">
        <ele>187</ele>
        <time>2017-08-23T09:15:07Z</time>
      </trkpt>
      <trkpt lat="45.8864" lon="4.73936">
        <ele>187</ele>
        <time>2017-08-23T09:15:08Z</time>
      </trkpt>
      <trkpt lat="45.8864" lon="4.73943">
        <ele>187</ele>
        <time>2017-08-23T09:15:09Z</time>
      </trkpt>
      <trkpt lat="45.88641" lon="4.7395">
        <ele>187</ele>
        <time>2017-08-23T09:15:10Z</time>
      </trkpt>
      <trkpt lat="45.88641" lon="4.73957">
        <ele>187</ele>
        <time>2017-08-23T09:15:11Z</time>
      </trkpt>
      <trkpt lat="45.88642" lon="4.73964">
        <ele>187</ele>
        <time>2017-08-23T09:15:12Z</time>
      </trkpt>
      <trkpt lat="45.88643" lon="4.73971">
        <ele>187</ele>
        <time>2017-08-23T09:15:13Z</time>
      </trkpt>
      <trkpt lat="45.88644" lon="4.73979">
        <ele>187</ele>
        <time>2017-08-23T09:15:14Z</time>
      </trkpt>
      <trkpt lat="45.88645" lon="4.73987">
        <ele>187</ele>
        <time>2017-08-23T09:15:15Z</time>
      </trkpt>
      <trkpt lat="45.88646" lon="4.73994">
        <ele>186</ele>
        <time>2017-08-23T09:15:16Z</time>
      </trkpt>
      <trkpt lat="45.88647" lon="4.74002">
        <ele>187</ele>
        <time>2017-08-23T09:15:17Z</time>
      </trkpt>
      <trkpt lat="45.88648" lon="4.74009">
        <ele>187</ele>
        <time>2017-08-23T09:15:18Z</time>
      </trkpt>
      <trkpt lat="45.88649" lon="4.74015">
        <ele>187</ele>
        <time>2017-08-23T09:15:19Z</time>
      </trkpt>
      <trkpt lat="45.8865" lon="4.74021">
        <ele>187</ele>
        <time>2017-08-23T09:15:20Z</time>
      </trkpt>
      <trkpt lat="45.8865" lon="4.74027">
        <ele>187</ele>
        <time>2017-08-23T09:15:21Z</time>
      </trkpt>
      <trkpt lat="45.88649" lon="4.74035">
        <ele>187</ele>
        <time>2017-08-23T09:15:22Z</time>
      </trkpt>
      <trkpt lat="45.8865" lon="4.74042">
        <ele>187</ele>
        <time>2017-08-23T09:15:23Z</time>
      </trkpt>
      <trkpt lat="45.88652" lon="4.7405">
        <ele>187</ele>
        <time>2017-08-23T09:15:24Z</time>
      </trkpt>
      <trkpt lat="45.88655" lon="4.74057">
        <ele>187</ele>
        <time>2017-08-23T09:15:25Z</time>
      </trkpt>
      <trkpt lat="45.88658" lon="4.74064">
        <ele>188</ele>
        <time>2017-08-23T09:15:26Z</time>
      </trkpt>
      <trkpt lat="45.88661" lon="4.74072">
        <ele>188</ele>
        <time>2017-08-23T09:15:27Z</time>
      </trkpt>
      <trkpt lat="45.88665" lon="4.74079">
        <ele>188</ele>
        <time>2017-08-23T09:15:28Z</time>
      </trkpt>
      <trkpt lat="45.88667" lon="4.74086">
        <ele>188</ele>
        <time>2017-08-23T09:15:29Z</time>
      </trkpt>
      <trkpt lat="45.88669" lon="4.74092">
        <ele>188</ele>
        <time>2017-08-23T09:15:30Z</time>
      </trkpt>
      <trkpt lat="45.88672" lon="4.74098">
        <ele>188</ele>
        <time>2017-08-23T09:15:31Z</time>
      </trkpt>
      <trkpt lat="45.88676" lon="4.7411">
        <ele>188</ele>
        <time>2017-08-23T09:15:33Z</time>
      </trkpt>
      <trkpt lat="45.88679" lon="4.74114">
        <ele>188</ele>
        <time>2017-08-23T09:15:34Z</time>
      </trkpt>
      <trkpt lat="45.88687" lon="4.74116">
        <ele>188</ele>
        <time>2017-08-23T09:15:36Z</time>
      </trkpt>
      <trkpt lat="45.88691" lon="4.74116">
        <ele>188</ele>
        <time>2017-08-23T09:15:37Z</time>
      </trkpt>
      <trkpt lat="45.887" lon="4.74114">
        <ele>188</ele>
        <time>2017-08-23T09:15:39Z</time>
      </trkpt>
      <trkpt lat="45.88704" lon="4.74115">
        <ele>188</ele>
        <time>2017-08-23T09:15:40Z</time>
      </trkpt>
      <trkpt lat="45.88708" lon="4.74118">
        <ele>188</ele>
        <time>2017-08-23T09:15:41Z</time>
      </trkpt>
      <trkpt lat="45.88712" lon="4.74121">
        <ele>188</ele>
        <time>2017-08-23T09:15:42Z</time>
      </trkpt>
      <trkpt lat="45.88716" lon="4.74125">
        <ele>188</ele>
        <time>2017-08-23T09:15:43Z</time>
      </trkpt>
      <trkpt lat="45.88721" lon="4.74129">
        <ele>188</ele>
        <time>2017-08-23T09:15:44Z</time>
      </trkpt>
      <trkpt lat="45.88725" lon="4.74133">
        <ele>188</ele>
        <time>2017-08-23T09:15:45Z</time>
      </trkpt>
      <trkpt lat="45.88729" lon="4.74137">
        <ele>188</ele>
        <time>2017-08-23T09:15:46Z</time>
      </trkpt>
      <trkpt lat="45.88736" lon="4.74143">
        <ele>188</ele>
        <time>2017-08-23T09:15:48Z</time>
      </trkpt>
      <trkpt lat="45.88739" lon="4.74146">
        <ele>188</ele>
        <time>2017-08-23T09:15:49Z</time>
      </trkpt>
      <trkpt lat="45.88745" lon="4.74151">
        <ele>188</ele>
        <time>2017-08-23T09:15:51Z</time>
      </trkpt>
      <trkpt lat="45.88748" lon="4.74154">
        <ele>188</ele>
        <time>2017-08-23T09:15:52Z</time>
      </trkpt>
      <trkpt lat="45.88752" lon="4.74157">
        <ele>188</ele>
        <time>2017-08-23T09:15:53Z</time>
      </trkpt>
      <trkpt lat="45.88756" lon="4.7416">
        <ele>188</ele>
        <time>2017-08-23T09:15:54Z</time>
      </trkpt>
      <trkpt lat="45.8876" lon="4.74164">
        <ele>187</ele>
        <time>2017-08-23T09:15:55Z</time>
      </trkpt>
      <trkpt lat="45.88765" lon="4.74167">
        <ele>188</ele>
        <time>2017-08-23T09:15:56Z</time>
      </trkpt>
      <trkpt lat="45.88769" lon="4.7417">
        <ele>188</ele>
        <time>2017-08-23T09:15:57Z</time>
      </trkpt>
      <trkpt lat="45.88774" lon="4.74173">
        <ele>188</ele>
        <time>2017-08-23T09:15:58Z</time>
      </trkpt>
      <trkpt lat="45.88779" lon="4.74174">
        <ele>188</ele>
        <time>2017-08-23T09:15:59Z</time>
      </trkpt>
      <trkpt lat="45.88783" lon="4.74177">
        <ele>188</ele>
        <time>2017-08-23T09:16:00Z</time>
      </trkpt>
      <trkpt lat="45.88787" lon="4.74179">
        <ele>188</ele>
        <time>2017-08-23T09:16:01Z</time>
      </trkpt>
      <trkpt lat="45.88791" lon="4.74182">
        <ele>188</ele>
        <time>2017-08-23T09:16:02Z</time>
      </trkpt>
      <trkpt lat="45.88796" lon="4.74185">
        <ele>187</ele>
        <time>2017-08-23T09:16:03Z</time>
      </trkpt>
      <trkpt lat="45.88801" lon="4.74187">
        <ele>187</ele>
        <time>2017-08-23T09:16:04Z</time>
      </trkpt>
      <trkpt lat="45.88806" lon="4.74189">
        <ele>187</ele>
        <time>2017-08-23T09:16:05Z</time>
      </trkpt>
      <trkpt lat="45.8881" lon="4.74191">
        <ele>187</ele>
        <time>2017-08-23T09:16:06Z</time>
      </trkpt>
      <trkpt lat="45.88818" lon="4.74195">
        <ele>187</ele>
        <time>2017-08-23T09:16:08Z</time>
      </trkpt>
      <trkpt lat="45.88822" lon="4.74197">
        <ele>187</ele>
        <time>2017-08-23T09:16:09Z</time>
      </trkpt>
      <trkpt lat="45.88829" lon="4.74201">
        <ele>187</ele>
        <time>2017-08-23T09:16:11Z</time>
      </trkpt>
      <trkpt lat="45.88832" lon="4.74204">
        <ele>187</ele>
        <time>2017-08-23T09:16:12Z</time>
      </trkpt>
      <trkpt lat="45.88836" lon="4.74206">
        <ele>187</ele>
        <time>2017-08-23T09:16:13Z</time>
      </trkpt>
      <trkpt lat="45.88842" lon="4.74208">
        <ele>187</ele>
        <time>2017-08-23T09:16:14Z</time>
      </trkpt>
      <trkpt lat="45.88847" lon="4.7421">
        <ele>187</ele>
        <time>2017-08-23T09:16:15Z</time>
      </trkpt>
      <trkpt lat="45.88852" lon="4.74213">
        <ele>187</ele>
        <time>2017-08-23T09:16:16Z</time>
      </trkpt>
      <trkpt lat="45.88857" lon="4.74215">
        <ele>187</ele>
        <time>2017-08-23T09:16:17Z</time>
      </trkpt>
      <trkpt lat="45.88861" lon="4.74218">
        <ele>187</ele>
        <time>2017-08-23T09:16:18Z</time>
      </trkpt>
      <trkpt lat="45.88869" lon="4.74224">
        <ele>187</ele>
        <time>2017-08-23T09:16:20Z</time>
      </trkpt>
      <trkpt lat="45.88872" lon="4.74226">
        <ele>187</ele>
        <time>2017-08-23T09:16:21Z</time>
      </trkpt>
      <trkpt lat="45.88878" lon="4.74232">
        <ele>187</ele>
        <time>2017-08-23T09:16:23Z</time>
      </trkpt>
      <trkpt lat="45.88881" lon="4.74235">
        <ele>187</ele>
        <time>2017-08-23T09:16:24Z</time>
      </trkpt>
      <trkpt lat="45.88885" lon="4.74238">
        <ele>187</ele>
        <time>2017-08-23T09:16:25Z</time>
      </trkpt>
      <trkpt lat="45.88889" lon="4.74241">
        <ele>187</ele>
        <time>2017-08-23T09:16:26Z</time>
      </trkpt>
      <trkpt lat="45.88893" lon="4.74245">
        <ele>187</ele>
        <time>2017-08-23T09:16:27Z</time>
      </trkpt>
      <trkpt lat="45.88897" lon="4.74247">
        <ele>187</ele>
        <time>2017-08-23T09:16:28Z</time>
      </trkpt>
      <trkpt lat="45.88904" lon="4.74255">
        <ele>187</ele>
        <time>2017-08-23T09:16:30Z</time>
      </trkpt>
      <trkpt lat="45.88907" lon="4.74258">
        <ele>187</ele>
        <time>2017-08-23T09:16:31Z</time>
      </trkpt>
      <trkpt lat="45.88912" lon="4.74264">
        <ele>187</ele>
        <time>2017-08-23T09:16:33Z</time>
      </trkpt>
      <trkpt lat="45.88916" lon="4.74266">
        <ele>187</ele>
        <time>2017-08-23T09:16:34Z</time>
      </trkpt>
      <trkpt lat="45.88922" lon="4.74271">
        <ele>187</ele>
        <time>2017-08-23T09:16:36Z</time>
      </trkpt>
      <trkpt lat="45.88927" lon="4.74274">
        <ele>187</ele>
        <time>2017-08-23T09:16:37Z</time>
      </trkpt>
      <trkpt lat="45.88936" lon="4.74275">
        <ele>187</ele>
        <time>2017-08-23T09:16:39Z</time>
      </trkpt>
      <trkpt lat="45.88941" lon="4.74276">
        <ele>187</ele>
        <time>2017-08-23T09:16:40Z</time>
      </trkpt>
      <trkpt lat="45.88949" lon="4.74278">
        <ele>187</ele>
        <time>2017-08-23T09:16:42Z</time>
      </trkpt>
      <trkpt lat="45.88952" lon="4.74279">
        <ele>187</ele>
        <time>2017-08-23T09:16:43Z</time>
      </trkpt>
      <trkpt lat="45.88958" lon="4.74283">
        <ele>187</ele>
        <time>2017-08-23T09:16:46Z</time>
      </trkpt>
      <trkpt lat="45.8896" lon="4.74284">
        <ele>187</ele>
        <time>2017-08-23T09:16:47Z</time>
      </trkpt>
      <trkpt lat="45.88963" lon="4.74294">
        <ele>187</ele>
        <time>2017-08-23T09:16:50Z</time>
      </trkpt>
      <trkpt lat="45.88964" lon="4.74298">
        <ele>187</ele>
        <time>2017-08-23T09:16:51Z</time>
      </trkpt>
      <trkpt lat="45.88965" lon="4.74305">
        <ele>187</ele>
        <time>2017-08-23T09:16:52Z</time>
      </trkpt>
      <trkpt lat="45.88965" lon="4.74312">
        <ele>187</ele>
        <time>2017-08-23T09:16:53Z</time>
      </trkpt>
      <trkpt lat="45.88965" lon="4.74324">
        <ele>187</ele>
        <time>2017-08-23T09:16:55Z</time>
      </trkpt>
      <trkpt lat="45.88963" lon="4.74329">
        <ele>187</ele>
        <time>2017-08-23T09:16:56Z</time>
      </trkpt>
      <trkpt lat="45.8896" lon="4.7434">
        <ele>188</ele>
        <time>2017-08-23T09:16:58Z</time>
      </trkpt>
      <trkpt lat="45.88959" lon="4.74345">
        <ele>188</ele>
        <time>2017-08-23T09:16:59Z</time>
      </trkpt>
      <trkpt lat="45.88954" lon="4.74355">
        <ele>188</ele>
        <time>2017-08-23T09:17:02Z</time>
      </trkpt>
      <trkpt lat="45.88951" lon="4.74358">
        <ele>188</ele>
        <time>2017-08-23T09:17:03Z</time>
      </trkpt>
      <trkpt lat="45.88945" lon="4.74367">
        <ele>188</ele>
        <time>2017-08-23T09:17:05Z</time>
      </trkpt>
      <trkpt lat="45.88943" lon="4.74371">
        <ele>188</ele>
        <time>2017-08-23T09:17:06Z</time>
      </trkpt>
      <trkpt lat="45.88939" lon="4.74379">
        <ele>188</ele>
        <time>2017-08-23T09:17:08Z</time>
      </trkpt>
      <trkpt lat="45.88937" lon="4.74381">
        <ele>188</ele>
        <time>2017-08-23T09:17:09Z</time>
      </trkpt>
      <trkpt lat="45.88936" lon="4.74391">
        <ele>188</ele>
        <time>2017-08-23T09:17:11Z</time>
      </trkpt>
      <trkpt lat="45.88934" lon="4.74397">
        <ele>188</ele>
        <time>2017-08-23T09:17:12Z</time>
      </trkpt>
      <trkpt lat="45.88934" lon="4.74407">
        <ele>188</ele>
        <time>2017-08-23T09:17:13Z</time>
      </trkpt>
      <trkpt lat="45.88935" lon="4.74414">
        <ele>188</ele>
        <time>2017-08-23T09:17:14Z</time>
      </trkpt>
      <trkpt lat="45.88938" lon="4.7442">
        <ele>188</ele>
        <time>2017-08-23T09:17:15Z</time>
      </trkpt>
      <trkpt lat="45.88941" lon="4.74424">
        <ele>188</ele>
        <time>2017-08-23T09:17:16Z</time>
      </trkpt>
      <trkpt lat="45.88948" lon="4.74431">
        <ele>188</ele>
        <time>2017-08-23T09:17:18Z</time>
      </trkpt>
      <trkpt lat="45.88951" lon="4.74433">
        <ele>188</ele>
        <time>2017-08-23T09:17:19Z</time>
      </trkpt>
      <trkpt lat="45.88955" lon="4.74435">
        <ele>188</ele>
        <time>2017-08-23T09:17:20Z</time>
      </trkpt>
      <trkpt lat="45.8896" lon="4.74437">
        <ele>188</ele>
        <time>2017-08-23T09:17:21Z</time>
      </trkpt>
      <trkpt lat="45.88965" lon="4.74437">
        <ele>188</ele>
        <time>2017-08-23T09:17:22Z</time>
      </trkpt>
      <trkpt lat="45.88969" lon="4.74437">
        <ele>188</ele>
        <time>2017-08-23T09:17:23Z</time>
      </trkpt>
      <trkpt lat="45.88975" lon="4.74438">
        <ele>188</ele>
        <time>2017-08-23T09:17:24Z</time>
      </trkpt>
      <trkpt lat="45.88979" lon="4.7444">
        <ele>188</ele>
        <time>2017-08-23T09:17:25Z</time>
      </trkpt>
      <trkpt lat="45.88984" lon="4.74447">
        <ele>188</ele>
        <time>2017-08-23T09:17:27Z</time>
      </trkpt>
      <trkpt lat="45.88986" lon="4.7445">
        <ele>188</ele>
        <time>2017-08-23T09:17:28Z</time>
      </trkpt>
      <trkpt lat="45.88992" lon="4.74457">
        <ele>188</ele>
        <time>2017-08-23T09:17:30Z</time>
      </trkpt>
      <trkpt lat="45.88995" lon="4.74461">
        <ele>189</ele>
        <time>2017-08-23T09:17:31Z</time>
      </trkpt>
      <trkpt lat="45.89001" lon="4.74466">
        <ele>188</ele>
        <time>2017-08-23T09:17:33Z</time>
      </trkpt>
      <trkpt lat="45.89003" lon="4.74469">
        <ele>188</ele>
        <time>2017-08-23T09:17:34Z</time>
      </trkpt>
      <trkpt lat="45.89004" lon="4.74478">
        <ele>189</ele>
        <time>2017-08-23T09:17:36Z</time>
      </trkpt>
      <trkpt lat="45.89002" lon="4.74483">
        <ele>189</ele>
        <time>2017-08-23T09:17:37Z</time>
      </trkpt>
      <trkpt lat="45.88999" lon="4.74494">
        <ele>189</ele>
        <time>2017-08-23T09:17:40Z</time>
      </trkpt>
      <trkpt lat="45.89001" lon="4.74497">
        <ele>189</ele>
        <time>2017-08-23T09:17:41Z</time>
      </trkpt>
      <trkpt lat="45.89007" lon="4.74502">
        <ele>189</ele>
        <time>2017-08-23T09:17:44Z</time>
      </trkpt>
      <trkpt lat="45.89009" lon="4.74503">
        <ele>189</ele>
        <time>2017-08-23T09:17:45Z</time>
      </trkpt>
      <trkpt lat="45.89016" lon="4.74505">
        <ele>189</ele>
        <time>2017-08-23T09:17:47Z</time>
      </trkpt>
      <trkpt lat="45.89019" lon="4.74507">
        <ele>189</ele>
        <time>2017-08-23T09:17:48Z</time>
      </trkpt>
      <trkpt lat="45.89021" lon="4.74518">
        <ele>189</ele>
        <time>2017-08-23T09:17:55Z</time>
      </trkpt>
      <trkpt lat="45.89021" lon="4.7452">
        <ele>189</ele>
        <time>2017-08-23T09:17:56Z</time>
      </trkpt>
      <trkpt lat="45.89018" lon="4.74531">
        <ele>189</ele>
        <time>2017-08-23T09:17:59Z</time>
      </trkpt>
      <trkpt lat="45.89018" lon="4.74535">
        <ele>189</ele>
        <time>2017-08-23T09:18:00Z</time>
      </trkpt>
      <trkpt lat="45.89016" lon="4.74544">
        <ele>189</ele>
        <time>2017-08-23T09:18:02Z</time>
      </trkpt>
      <trkpt lat="45.89014" lon="4.74549">
        <ele>190</ele>
        <time>2017-08-23T09:18:03Z</time>
      </trkpt>
      <trkpt lat="45.89013" lon="4.74559">
        <ele>190</ele>
        <time>2017-08-23T09:18:05Z</time>
      </trkpt>
      <trkpt lat="45.89011" lon="4.74563">
        <ele>190</ele>
        <time>2017-08-23T09:18:06Z</time>
      </trkpt>
      <trkpt lat="45.8901" lon="4.74571">
        <ele>190</ele>
        <time>2017-08-23T09:18:08Z</time>
      </trkpt>
      <trkpt lat="45.8901" lon="4.74576">
        <ele>190</ele>
        <time>2017-08-23T09:18:09Z</time>
      </trkpt>
      <trkpt lat="45.8901" lon="4.74589">
        <ele>191</ele>
        <time>2017-08-23T09:18:12Z</time>
      </trkpt>
      <trkpt lat="45.8901" lon="4.74593">
        <ele>191</ele>
        <time>2017-08-23T09:18:13Z</time>
      </trkpt>
      <trkpt lat="45.8901" lon="4.74605">
        <ele>191</ele>
        <time>2017-08-23T09:18:16Z</time>
      </trkpt>
      <trkpt lat="45.8901" lon="4.7461">
        <ele>191</ele>
        <time>2017-08-23T09:18:17Z</time>
      </trkpt>
      <trkpt lat="45.8901" lon="4.74622">
        <ele>192</ele>
        <time>2017-08-23T09:18:20Z</time>
      </trkpt>
      <trkpt lat="45.8901" lon="4.74626">
        <ele>192</ele>
        <time>2017-08-23T09:18:21Z</time>
      </trkpt>
      <trkpt lat="45.8901" lon="4.74638">
        <ele>192</ele>
        <time>2017-08-23T09:18:24Z</time>
      </trkpt>
      <trkpt lat="45.8901" lon="4.7464">
        <ele>192</ele>
        <time>2017-08-23T09:18:25Z</time>
      </trkpt>
      <trkpt lat="45.8901" lon="4.74642">
        <ele>192</ele>
        <time>2017-08-23T09:18:26Z</time>
      </trkpt>
      <trkpt lat="45.89011" lon="4.74644">
        <ele>192</ele>
        <time>2017-08-23T09:18:27Z</time>
      </trkpt>
      <trkpt lat="45.89013" lon="4.74645">
        <ele>192</ele>
        <time>2017-08-23T09:26:40Z</time>
      </trkpt>
      <trkpt lat="45.89014" lon="4.74654">
        <ele>193</ele>
        <time>2017-08-23T09:26:41Z</time>
      </trkpt>
      <trkpt lat="45.89017" lon="4.74665">
        <ele>193</ele>
        <time>2017-08-23T09:26:50Z</time>
      </trkpt>
      <trkpt lat="45.89016" lon="4.74667">
        <ele>193</ele>
        <time>2017-08-23T09:26:51Z</time>
      </trkpt>
      <trkpt lat="45.89015" lon="4.74677">
        <ele>194</ele>
        <time>2017-08-23T09:26:55Z</time>
      </trkpt>
      <trkpt lat="45.89015" lon="4.7468">
        <ele>194</ele>
        <time>2017-08-23T09:26:56Z</time>
      </trkpt>
      <trkpt lat="45.89012" lon="4.7469">
        <ele>195</ele>
        <time>2017-08-23T09:27:00Z</time>
      </trkpt>
      <trkpt lat="45.89011" lon="4.74692">
        <ele>195</ele>
        <time>2017-08-23T09:27:01Z</time>
      </trkpt>
      <trkpt lat="45.89008" lon="4.74703">
        <ele>195</ele>
        <time>2017-08-23T09:27:05Z</time>
      </trkpt>
      <trkpt lat="45.89007" lon="4.74706">
        <ele>195</ele>
        <time>2017-08-23T09:27:06Z</time>
      </trkpt>
      <trkpt lat="45.89009" lon="4.74718">
        <ele>195</ele>
        <time>2017-08-23T09:27:10Z</time>
      </trkpt>
      <trkpt lat="45.8901" lon="4.7472">
        <ele>195</ele>
        <time>2017-08-23T09:27:11Z</time>
      </trkpt>
      <trkpt lat="45.89017" lon="4.74725">
        <ele>195</ele>
        <time>2017-08-23T09:27:15Z</time>
      </trkpt>
      <trkpt lat="45.89018" lon="4.74726">
        <ele>195</ele>
        <time>2017-08-23T09:27:16Z</time>
      </trkpt>
      <trkpt lat="45.89022" lon="4.74737">
        <ele>196</ele>
        <time>2017-08-23T09:27:19Z</time>
      </trkpt>
      <trkpt lat="45.89023" lon="4.74741">
        <ele>196</ele>
        <time>2017-08-23T09:27:20Z</time>
      </trkpt>
      <trkpt lat="45.89023" lon="4.74751">
        <ele>198</ele>
        <time>2017-08-23T09:27:22Z</time>
      </trkpt>
      <trkpt lat="45.89024" lon="4.74756">
        <ele>198</ele>
        <time>2017-08-23T09:27:23Z</time>
      </trkpt>
      <trkpt lat="45.89025" lon="4.74766">
        <ele>198</ele>
        <time>2017-08-23T09:27:25Z</time>
      </trkpt>
      <trkpt lat="45.89025" lon="4.74771">
        <ele>198</ele>
        <time>2017-08-23T09:27:26Z</time>
      </trkpt>
      <trkpt lat="45.89026" lon="4.74781">
        <ele>198</ele>
        <time>2017-08-23T09:27:28Z</time>
      </trkpt>
      <trkpt lat="45.89027" lon="4.74786">
        <ele>198</ele>
        <time>2017-08-23T09:27:29Z</time>
      </trkpt>
      <trkpt lat="45.89027" lon="4.74795">
        <ele>198</ele>
        <time>2017-08-23T09:27:31Z</time>
      </trkpt>
      <trkpt lat="45.89028" lon="4.748">
        <ele>198</ele>
        <time>2017-08-23T09:27:32Z</time>
      </trkpt>
      <trkpt lat="45.89029" lon="4.74808">
        <ele>199</ele>
        <time>2017-08-23T09:27:34Z</time>
      </trkpt>
      <trkpt lat="45.89029" lon="4.74813">
        <ele>199</ele>
        <time>2017-08-23T09:27:35Z</time>
      </trkpt>
      <trkpt lat="45.8903" lon="4.74825">
        <ele>199</ele>
        <time>2017-08-23T09:27:38Z</time>
      </trkpt>
      <trkpt lat="45.8903" lon="4.74829">
        <ele>199</ele>
        <time>2017-08-23T09:27:39Z</time>
      </trkpt>
      <trkpt lat="45.8903" lon="4.74838">
        <ele>199</ele>
        <time>2017-08-23T09:27:41Z</time>
      </trkpt>
      <trkpt lat="45.8903" lon="4.74842">
        <ele>199</ele>
        <time>2017-08-23T09:27:42Z</time>
      </trkpt>
      <trkpt lat="45.89032" lon="4.74854">
        <ele>199</ele>
        <time>2017-08-23T09:27:45Z</time>
      </trkpt>
      <trkpt lat="45.89033" lon="4.74857">
        <ele>199</ele>
        <time>2017-08-23T09:27:46Z</time>
      </trkpt>
      <trkpt lat="45.89037" lon="4.74866">
        <ele>199</ele>
        <time>2017-08-23T09:27:48Z</time>
      </trkpt>
      <trkpt lat="45.89038" lon="4.7487">
        <ele>199</ele>
        <time>2017-08-23T09:27:49Z</time>
      </trkpt>
      <trkpt lat="45.89037" lon="4.74883">
        <ele>199</ele>
        <time>2017-08-23T09:27:52Z</time>
      </trkpt>
      <trkpt lat="45.89035" lon="4.74886">
        <ele>199</ele>
        <time>2017-08-23T09:27:53Z</time>
      </trkpt>
      <trkpt lat="45.8903" lon="4.7489">
        <ele>199</ele>
        <time>2017-08-23T09:27:55Z</time>
      </trkpt>
      <trkpt lat="45.89027" lon="4.74892">
        <ele>199</ele>
        <time>2017-08-23T09:27:56Z</time>
      </trkpt>
      <trkpt lat="45.89022" lon="4.74899">
        <ele>199</ele>
        <time>2017-08-23T09:27:58Z</time>
      </trkpt>
      <trkpt lat="45.8902" lon="4.74903">
        <ele>199</ele>
        <time>2017-08-23T09:27:59Z</time>
      </trkpt>
      <trkpt lat="45.89018" lon="4.74913">
        <ele>199</ele>
        <time>2017-08-23T09:28:01Z</time>
      </trkpt>
      <trkpt lat="45.89018" lon="4.74917">
        <ele>199</ele>
        <time>2017-08-23T09:28:02Z</time>
      </trkpt>
      <trkpt lat="45.89015" lon="4.74927">
        <ele>199</ele>
        <time>2017-08-23T09:28:04Z</time>
      </trkpt>
      <trkpt lat="45.89014" lon="4.74932">
        <ele>199</ele>
        <time>2017-08-23T09:28:05Z</time>
      </trkpt>
      <trkpt lat="45.89012" lon="4.7494">
        <ele>199</ele>
        <time>2017-08-23T09:28:07Z</time>
      </trkpt>
      <trkpt lat="45.89011" lon="4.74944">
        <ele>199</ele>
        <time>2017-08-23T09:28:08Z</time>
      </trkpt>
      <trkpt lat="45.89009" lon="4.74954">
        <ele>199</ele>
        <time>2017-08-23T09:28:10Z</time>
      </trkpt>
      <trkpt lat="45.89009" lon="4.7496">
        <ele>199</ele>
        <time>2017-08-23T09:28:11Z</time>
      </trkpt>
      <trkpt lat="45.89008" lon="4.7497">
        <ele>199</ele>
        <time>2017-08-23T09:28:13Z</time>
      </trkpt>
      <trkpt lat="45.89009" lon="4.74975">
        <ele>199</ele>
        <time>2017-08-23T09:28:14Z</time>
      </trkpt>
      <trkpt lat="45.89009" lon="4.74988">
        <ele>199</ele>
        <time>2017-08-23T09:28:17Z</time>
      </trkpt>
      <trkpt lat="45.89008" lon="4.74992">
        <ele>199</ele>
        <time>2017-08-23T09:28:18Z</time>
      </trkpt>
      <trkpt lat="45.89009" lon="4.75002">
        <ele>198</ele>
        <time>2017-08-23T09:28:20Z</time>
      </trkpt>
      <trkpt lat="45.89009" lon="4.75007">
        <ele>198</ele>
        <time>2017-08-23T09:28:21Z</time>
      </trkpt>
      <trkpt lat="45.89009" lon="4.75019">
        <ele>199</ele>
        <time>2017-08-23T09:28:23Z</time>
      </trkpt>
      <trkpt lat="45.89009" lon="4.75024">
        <ele>199</ele>
        <time>2017-08-23T09:28:24Z</time>
      </trkpt>
      <trkpt lat="45.89011" lon="4.75034">
        <ele>199</ele>
        <time>2017-08-23T09:28:26Z</time>
      </trkpt>
      <trkpt lat="45.89011" lon="4.75038">
        <ele>199</ele>
        <time>2017-08-23T09:28:27Z</time>
      </trkpt>
      <trkpt lat="45.89013" lon="4.75047">
        <ele>199</ele>
        <time>2017-08-23T09:28:29Z</time>
      </trkpt>
      <trkpt lat="45.89015" lon="4.75052">
        <ele>199</ele>
        <time>2017-08-23T09:28:30Z</time>
      </trkpt>
      <trkpt lat="45.89019" lon="4.75062">
        <ele>199</ele>
        <time>2017-08-23T09:28:32Z</time>
      </trkpt>
      <trkpt lat="45.89022" lon="4.75067">
        <ele>199</ele>
        <time>2017-08-23T09:28:33Z</time>
      </trkpt>
      <trkpt lat="45.89026" lon="4.75076">
        <ele>199</ele>
        <time>2017-08-23T09:28:35Z</time>
      </trkpt>
      <trkpt lat="45.89028" lon="4.75079">
        <ele>199</ele>
        <time>2017-08-23T09:28:36Z</time>
      </trkpt>
      <trkpt lat="45.89032" lon="4.75086">
        <ele>199</ele>
        <time>2017-08-23T09:28:38Z</time>
      </trkpt>
      <trkpt lat="45.89034" lon="4.75089">
        <ele>199</ele>
        <time>2017-08-23T09:28:39Z</time>
      </trkpt>
      <trkpt lat="45.89039" lon="4.75097">
        <ele>199</ele>
        <time>2017-08-23T09:28:41Z</time>
      </trkpt>
      <trkpt lat="45.89042" lon="4.75102">
        <ele>199</ele>
        <time>2017-08-23T09:28:42Z</time>
      </trkpt>
      <trkpt lat="45.89047" lon="4.75112">
        <ele>199</ele>
        <time>2017-08-23T09:28:44Z</time>
      </trkpt>
      <trkpt lat="45.8905" lon="4.75117">
        <ele>199</ele>
        <time>2017-08-23T09:28:45Z</time>
      </trkpt>
      <trkpt lat="45.89054" lon="4.75126">
        <ele>199</ele>
        <time>2017-08-23T09:28:47Z</time>
      </trkpt>
      <trkpt lat="45.89056" lon="4.75131">
        <ele>199</ele>
        <time>2017-08-23T09:28:48Z</time>
      </trkpt>
      <trkpt lat="45.89058" lon="4.75139">
        <ele>199</ele>
        <time>2017-08-23T09:28:50Z</time>
      </trkpt>
      <trkpt lat="45.89059" lon="4.75144">
        <ele>199</ele>
        <time>2017-08-23T09:28:51Z</time>
      </trkpt>
      <trkpt lat="45.89061" lon="4.75155">
        <ele>199</ele>
        <time>2017-08-23T09:28:53Z</time>
      </trkpt>
      <trkpt lat="45.89062" lon="4.7516">
        <ele>199</ele>
        <time>2017-08-23T09:28:54Z</time>
      </trkpt>
      <trkpt lat="45.89063" lon="4.7517">
        <ele>199</ele>
        <time>2017-08-23T09:28:56Z</time>
      </trkpt>
      <trkpt lat="45.89063" lon="4.75175">
        <ele>199</ele>
        <time>2017-08-23T09:28:57Z</time>
      </trkpt>
      <trkpt lat="45.89064" lon="4.75186">
        <ele>199</ele>
        <time>2017-08-23T09:28:59Z</time>
      </trkpt>
      <trkpt lat="45.89064" lon="4.75191">
        <ele>199</ele>
        <time>2017-08-23T09:29:00Z</time>
      </trkpt>
      <trkpt lat="45.89063" lon="4.75201">
        <ele>199</ele>
        <time>2017-08-23T09:29:02Z</time>
      </trkpt>
      <trkpt lat="45.89062" lon="4.75205">
        <ele>199</ele>
        <time>2017-08-23T09:29:03Z</time>
      </trkpt>
      <trkpt lat="45.89061" lon="4.75215">
        <ele>199</ele>
        <time>2017-08-23T09:29:05Z</time>
      </trkpt>
      <trkpt lat="45.8906" lon="4.7522">
        <ele>199</ele>
        <time>2017-08-23T09:29:06Z</time>
      </trkpt>
      <trkpt lat="45.89058" lon="4.7523">
        <ele>199</ele>
        <time>2017-08-23T09:29:08Z</time>
      </trkpt>
      <trkpt lat="45.89057" lon="4.75234">
        <ele>199</ele>
        <time>2017-08-23T09:29:09Z</time>
      </trkpt>
      <trkpt lat="45.89056" lon="4.75244">
        <ele>199</ele>
        <time>2017-08-23T09:29:11Z</time>
      </trkpt>
      <trkpt lat="45.89056" lon="4.75249">
        <ele>199</ele>
        <time>2017-08-23T09:29:12Z</time>
      </trkpt>
      <trkpt lat="45.89054" lon="4.75261">
        <ele>199</ele>
        <time>2017-08-23T09:29:14Z</time>
      </trkpt>
      <trkpt lat="45.89054" lon="4.75266">
        <ele>199</ele>
        <time>2017-08-23T09:29:15Z</time>
      </trkpt>
      <trkpt lat="45.89052" lon="4.75277">
        <ele>199</ele>
        <time>2017-08-23T09:29:17Z</time>
      </trkpt>
      <trkpt lat="45.89051" lon="4.75282">
        <ele>199</ele>
        <time>2017-08-23T09:29:18Z</time>
      </trkpt>
      <trkpt lat="45.89049" lon="4.75292">
        <ele>199</ele>
        <time>2017-08-23T09:29:20Z</time>
      </trkpt>
      <trkpt lat="45.89048" lon="4.75299">
        <ele>199</ele>
        <time>2017-08-23T09:29:21Z</time>
      </trkpt>
      <trkpt lat="45.89047" lon="4.75305">
        <ele>199</ele>
        <time>2017-08-23T09:29:22Z</time>
      </trkpt>
      <trkpt lat="45.89046" lon="4.75311">
        <ele>199</ele>
        <time>2017-08-23T09:29:23Z</time>
      </trkpt>
      <trkpt lat="45.89045" lon="4.75323">
        <ele>199</ele>
        <time>2017-08-23T09:29:25Z</time>
      </trkpt>
      <trkpt lat="45.89044" lon="4.75328">
        <ele>199</ele>
        <time>2017-08-23T09:29:26Z</time>
      </trkpt>
      <trkpt lat="45.89043" lon="4.75339">
        <ele>199</ele>
        <time>2017-08-23T09:29:28Z</time>
      </trkpt>
      <trkpt lat="45.89043" lon="4.75344">
        <ele>199</ele>
        <time>2017-08-23T09:29:29Z</time>
      </trkpt>
      <trkpt lat="45.89042" lon="4.75355">
        <ele>199</ele>
        <time>2017-08-23T09:29:31Z</time>
      </trkpt>
      <trkpt lat="45.89042" lon="4.75361">
        <ele>199</ele>
        <time>2017-08-23T09:29:32Z</time>
      </trkpt>
      <trkpt lat="45.89041" lon="4.75372">
        <ele>199</ele>
        <time>2017-08-23T09:29:34Z</time>
      </trkpt>
      <trkpt lat="45.8904" lon="4.75377">
        <ele>199</ele>
        <time>2017-08-23T09:29:35Z</time>
      </trkpt>
      <trkpt lat="45.89039" lon="4.7539">
        <ele>199</ele>
        <time>2017-08-23T09:29:38Z</time>
      </trkpt>
      <trkpt lat="45.89037" lon="4.75393">
        <ele>199</ele>
        <time>2017-08-23T09:29:39Z</time>
      </trkpt>
      <trkpt lat="45.89032" lon="4.75398">
        <ele>199</ele>
        <time>2017-08-23T09:29:41Z</time>
      </trkpt>
      <trkpt lat="45.89029" lon="4.754">
        <ele>199</ele>
        <time>2017-08-23T09:29:42Z</time>
      </trkpt>
      <trkpt lat="45.89021" lon="4.75405">
        <ele>199</ele>
        <time>2017-08-23T09:29:44Z</time>
      </trkpt>
      <trkpt lat="45.89017" lon="4.75408">
        <ele>199</ele>
        <time>2017-08-23T09:29:45Z</time>
      </trkpt>
      <trkpt lat="45.89011" lon="4.75413">
        <ele>199</ele>
        <time>2017-08-23T09:29:47Z</time>
      </trkpt>
      <trkpt lat="45.89007" lon="4.75415">
        <ele>199</ele>
        <time>2017-08-23T09:29:48Z</time>
      </trkpt>
      <trkpt lat="45.89001" lon="4.75417">
        <ele>199</ele>
        <time>2017-08-23T09:29:50Z</time>
      </trkpt>
      <trkpt lat="45.88997" lon="4.75418">
        <ele>199</ele>
        <time>2017-08-23T09:29:51Z</time>
      </trkpt>
      <trkpt lat="45.88988" lon="4.75422">
        <ele>199</ele>
        <time>2017-08-23T09:29:53Z</time>
      </trkpt>
      <trkpt lat="45.88985" lon="4.75423">
        <ele>199</ele>
        <time>2017-08-23T09:29:54Z</time>
      </trkpt>
      <trkpt lat="45.88977" lon="4.75424">
        <ele>199</ele>
        <time>2017-08-23T09:29:56Z</time>
      </trkpt>
      <trkpt lat="45.88974" lon="4.75424">
        <ele>199</ele>
        <time>2017-08-23T09:29:57Z</time>
      </trkpt>
      <trkpt lat="45.88967" lon="4.75423">
        <ele>199</ele>
        <time>2017-08-23T09:29:59Z</time>
      </trkpt>
      <trkpt lat="45.88964" lon="4.75423">
        <ele>199</ele>
        <time>2017-08-23T09:30:00Z</time>
      </trkpt>
      <trkpt lat="45.88958" lon="4.75427">
        <ele>199</ele>
        <time>2017-08-23T09:30:02Z</time>
      </trkpt>
      <trkpt lat="45.88956" lon="4.7543">
        <ele>199</ele>
        <time>2017-08-23T09:30:03Z</time>
      </trkpt>
      <trkpt lat="45.88955" lon="4.75443">
        <ele>199</ele>
        <time>2017-08-23T09:30:05Z</time>
      </trkpt>
      <trkpt lat="45.88955" lon="4.7545">
        <ele>199</ele>
        <time>2017-08-23T09:30:06Z</time>
      </trkpt>
      <trkpt lat="45.88955" lon="4.75462">
        <ele>199</ele>
        <time>2017-08-23T09:30:08Z</time>
      </trkpt>
      <trkpt lat="45.88955" lon="4.75468">
        <ele>199</ele>
        <time>2017-08-23T09:30:09Z</time>
      </trkpt>
      <trkpt lat="45.88954" lon="4.75478">
        <ele>199</ele>
        <time>2017-08-23T09:30:11Z</time>
      </trkpt>
      <trkpt lat="45.88954" lon="4.75483">
        <ele>199</ele>
        <time>2017-08-23T09:30:12Z</time>
      </trkpt>
      <trkpt lat="45.88955" lon="4.75494">
        <ele>198</ele>
        <time>2017-08-23T09:30:14Z</time>
      </trkpt>
      <trkpt lat="45.88955" lon="4.755">
        <ele>198</ele>
        <time>2017-08-23T09:30:15Z</time>
      </trkpt>
      <trkpt lat="45.88956" lon="4.75513">
        <ele>198</ele>
        <time>2017-08-23T09:30:17Z</time>
      </trkpt>
      <trkpt lat="45.88956" lon="4.75519">
        <ele>198</ele>
        <time>2017-08-23T09:30:18Z</time>
      </trkpt>
      <trkpt lat="45.88957" lon="4.7553">
        <ele>198</ele>
        <time>2017-08-23T09:30:20Z</time>
      </trkpt>
      <trkpt lat="45.88958" lon="4.75535">
        <ele>198</ele>
        <time>2017-08-23T09:30:21Z</time>
      </trkpt>
      <trkpt lat="45.88958" lon="4.75547">
        <ele>198</ele>
        <time>2017-08-23T09:30:23Z</time>
      </trkpt>
      <trkpt lat="45.88958" lon="4.75554">
        <ele>198</ele>
        <time>2017-08-23T09:30:24Z</time>
      </trkpt>
      <trkpt lat="45.88959" lon="4.75561">
        <ele>198</ele>
        <time>2017-08-23T09:30:25Z</time>
      </trkpt>
      <trkpt lat="45.8896" lon="4.75569">
        <ele>198</ele>
        <time>2017-08-23T09:30:26Z</time>
      </trkpt>
      <trkpt lat="45.88961" lon="4.75576">
        <ele>198</ele>
        <time>2017-08-23T09:30:27Z</time>
      </trkpt>
      <trkpt lat="45.88961" lon="4.75584">
        <ele>198</ele>
        <time>2017-08-23T09:30:28Z</time>
      </trkpt>
      <trkpt lat="45.88962" lon="4.75591">
        <ele>198</ele>
        <time>2017-08-23T09:30:29Z</time>
      </trkpt>
      <trkpt lat="45.88963" lon="4.75597">
        <ele>198</ele>
        <time>2017-08-23T09:30:30Z</time>
      </trkpt>
      <trkpt lat="45.88965" lon="4.75609">
        <ele>198</ele>
        <time>2017-08-23T09:30:32Z</time>
      </trkpt>
      <trkpt lat="45.88967" lon="4.75615">
        <ele>198</ele>
        <time>2017-08-23T09:30:33Z</time>
      </trkpt>
      <trkpt lat="45.88969" lon="4.75626">
        <ele>198</ele>
        <time>2017-08-23T09:30:35Z</time>
      </trkpt>
      <trkpt lat="45.88971" lon="4.75631">
        <ele>198</ele>
        <time>2017-08-23T09:30:36Z</time>
      </trkpt>
      <trkpt lat="45.88972" lon="4.75637">
        <ele>198</ele>
        <time>2017-08-23T09:30:37Z</time>
      </trkpt>
      <trkpt lat="45.88974" lon="4.75644">
        <ele>198</ele>
        <time>2017-08-23T09:30:38Z</time>
      </trkpt>
      <trkpt lat="45.88975" lon="4.7565">
        <ele>198</ele>
        <time>2017-08-23T09:30:39Z</time>
      </trkpt>
      <trkpt lat="45.88978" lon="4.75657">
        <ele>198</ele>
        <time>2017-08-23T09:30:40Z</time>
      </trkpt>
      <trkpt lat="45.88979" lon="4.75664">
        <ele>198</ele>
        <time>2017-08-23T09:30:41Z</time>
      </trkpt>
      <trkpt lat="45.88981" lon="4.75671">
        <ele>198</ele>
        <time>2017-08-23T09:30:42Z</time>
      </trkpt>
      <trkpt lat="45.88983" lon="4.75683">
        <ele>198</ele>
        <time>2017-08-23T09:30:44Z</time>
      </trkpt>
      <trkpt lat="45.88984" lon="4.75689">
        <ele>199</ele>
        <time>2017-08-23T09:30:45Z</time>
      </trkpt>
      <trkpt lat="45.88985" lon="4.75699">
        <ele>199</ele>
        <time>2017-08-23T09:30:47Z</time>
      </trkpt>
      <trkpt lat="45.88986" lon="4.75706">
        <ele>199</ele>
        <time>2017-08-23T09:30:48Z</time>
      </trkpt>
      <trkpt lat="45.88987" lon="4.75712">
        <ele>199</ele>
        <time>2017-08-23T09:30:49Z</time>
      </trkpt>
      <trkpt lat="45.88988" lon="4.75719">
        <ele>198</ele>
        <time>2017-08-23T09:30:50Z</time>
      </trkpt>
      <trkpt lat="45.88989" lon="4.75725">
        <ele>198</ele>
        <time>2017-08-23T09:30:51Z</time>
      </trkpt>
      <trkpt lat="45.88991" lon="4.75732">
        <ele>198</ele>
        <time>2017-08-23T09:30:52Z</time>
      </trkpt>
      <trkpt lat="45.88993" lon="4.75743">
        <ele>198</ele>
        <time>2017-08-23T09:30:54Z</time>
      </trkpt>
      <trkpt lat="45.88994" lon="4.75749">
        <ele>198</ele>
        <time>2017-08-23T09:30:55Z</time>
      </trkpt>
      <trkpt lat="45.88996" lon="4.75761">
        <ele>198</ele>
        <time>2017-08-23T09:30:57Z</time>
      </trkpt>
      <trkpt lat="45.88998" lon="4.75766">
        <ele>198</ele>
        <time>2017-08-23T09:30:58Z</time>
      </trkpt>
      <trkpt lat="45.89001" lon="4.75777">
        <ele>199</ele>
        <time>2017-08-23T09:31:00Z</time>
      </trkpt>
      <trkpt lat="45.89003" lon="4.75782">
        <ele>199</ele>
        <time>2017-08-23T09:31:01Z</time>
      </trkpt>
      <trkpt lat="45.89004" lon="4.75788">
        <ele>199</ele>
        <time>2017-08-23T09:31:02Z</time>
      </trkpt>
      <trkpt lat="45.89007" lon="4.75794">
        <ele>199</ele>
        <time>2017-08-23T09:31:03Z</time>
      </trkpt>
      <trkpt lat="45.89009" lon="4.75806">
        <ele>199</ele>
        <time>2017-08-23T09:31:05Z</time>
      </trkpt>
      <trkpt lat="45.89011" lon="4.75812">
        <ele>199</ele>
        <time>2017-08-23T09:31:06Z</time>
      </trkpt>
      <trkpt lat="45.89013" lon="4.75824">
        <ele>199</ele>
        <time>2017-08-23T09:31:08Z</time>
      </trkpt>
      <trkpt lat="45.89014" lon="4.75829">
        <ele>199</ele>
        <time>2017-08-23T09:31:09Z</time>
      </trkpt>
      <trkpt lat="45.89015" lon="4.75841">
        <ele>200</ele>
        <time>2017-08-23T09:31:11Z</time>
      </trkpt>
      <trkpt lat="45.89015" lon="4.75848">
        <ele>200</ele>
        <time>2017-08-23T09:31:12Z</time>
      </trkpt>
      <trkpt lat="45.89013" lon="4.75859">
        <ele>200</ele>
        <time>2017-08-23T09:31:14Z</time>
      </trkpt>
      <trkpt lat="45.89011" lon="4.75864">
        <ele>200</ele>
        <time>2017-08-23T09:31:15Z</time>
      </trkpt>
      <trkpt lat="45.89006" lon="4.75875">
        <ele>200</ele>
        <time>2017-08-23T09:31:17Z</time>
      </trkpt>
      <trkpt lat="45.89004" lon="4.7588">
        <ele>200</ele>
        <time>2017-08-23T09:31:18Z</time>
      </trkpt>
      <trkpt lat="45.89" lon="4.7589">
        <ele>200</ele>
        <time>2017-08-23T09:31:20Z</time>
      </trkpt>
      <trkpt lat="45.88998" lon="4.75896">
        <ele>199</ele>
        <time>2017-08-23T09:31:21Z</time>
      </trkpt>
      <trkpt lat="45.88994" lon="4.75906">
        <ele>199</ele>
        <time>2017-08-23T09:31:23Z</time>
      </trkpt>
      <trkpt lat="45.88992" lon="4.75911">
        <ele>199</ele>
        <time>2017-08-23T09:31:24Z</time>
      </trkpt>
      <trkpt lat="45.88988" lon="4.7592">
        <ele>200</ele>
        <time>2017-08-23T09:31:26Z</time>
      </trkpt>
      <trkpt lat="45.88986" lon="4.75924">
        <ele>199</ele>
        <time>2017-08-23T09:31:27Z</time>
      </trkpt>
      <trkpt lat="45.88983" lon="4.75933">
        <ele>199</ele>
        <time>2017-08-23T09:31:29Z</time>
      </trkpt>
      <trkpt lat="45.88983" lon="4.75937">
        <ele>199</ele>
        <time>2017-08-23T09:31:30Z</time>
      </trkpt>
      <trkpt lat="45.88984" lon="4.75949">
        <ele>199</ele>
        <time>2017-08-23T09:31:33Z</time>
      </trkpt>
      <trkpt lat="45.88986" lon="4.75952">
        <ele>199</ele>
        <time>2017-08-23T09:31:34Z</time>
      </trkpt>
      <trkpt lat="45.88988" lon="4.75962">
        <ele>199</ele>
        <time>2017-08-23T09:31:36Z</time>
      </trkpt>
      <trkpt lat="45.8899" lon="4.75968">
        <ele>199</ele>
        <time>2017-08-23T09:31:37Z</time>
      </trkpt>
      <trkpt lat="45.88993" lon="4.75979">
        <ele>199</ele>
        <time>2017-08-23T09:31:39Z</time>
      </trkpt>
      <trkpt lat="45.88995" lon="4.75984">
        <ele>200</ele>
        <time>2017-08-23T09:31:40Z</time>
      </trkpt>
      <trkpt lat="45.89" lon="4.75994">
        <ele>200</ele>
        <time>2017-08-23T09:31:42Z</time>
      </trkpt>
      <trkpt lat="45.89002" lon="4.75999">
        <ele>200</ele>
        <time>2017-08-23T09:31:43Z</time>
      </trkpt>
      <trkpt lat="45.89006" lon="4.76005">
        <ele>200</ele>
        <time>2017-08-23T09:31:44Z</time>
      </trkpt>
      <trkpt lat="45.89009" lon="4.76011">
        <ele>200</ele>
        <time>2017-08-23T09:31:45Z</time>
      </trkpt>
      <trkpt lat="45.89012" lon="4.76017">
        <ele>200</ele>
        <time>2017-08-23T09:31:46Z</time>
      </trkpt>
      <trkpt lat="45.89015" lon="4.76023">
        <ele>199</ele>
        <time>2017-08-23T09:31:47Z</time>
      </trkpt>
      <trkpt lat="45.89018" lon="4.76028">
        <ele>199</ele>
        <time>2017-08-23T09:31:48Z</time>
      </trkpt>
      <trkpt lat="45.8902" lon="4.76034">
        <ele>199</ele>
        <time>2017-08-23T09:31:49Z</time>
      </trkpt>
      <trkpt lat="45.89025" lon="4.76044">
        <ele>199</ele>
        <time>2017-08-23T09:31:51Z</time>
      </trkpt>
      <trkpt lat="45.89028" lon="4.76049">
        <ele>199</ele>
        <time>2017-08-23T09:31:52Z</time>
      </trkpt>
      <trkpt lat="45.89032" lon="4.76058">
        <ele>199</ele>
        <time>2017-08-23T09:31:54Z</time>
      </trkpt>
      <trkpt lat="45.89034" lon="4.76063">
        <ele>199</ele>
        <time>2017-08-23T09:31:55Z</time>
      </trkpt>
      <trkpt lat="45.89039" lon="4.76073">
        <ele>199</ele>
        <time>2017-08-23T09:31:57Z</time>
      </trkpt>
      <trkpt lat="45.89041" lon="4.76079">
        <ele>199</ele>
        <time>2017-08-23T09:31:58Z</time>
      </trkpt>
      <trkpt lat="45.89043" lon="4.76084">
        <ele>198</ele>
        <time>2017-08-23T09:31:59Z</time>
      </trkpt>
      <trkpt lat="45.89046" lon="4.7609">
        <ele>198</ele>
        <time>2017-08-23T09:32:00Z</time>
      </trkpt>
      <trkpt lat="45.89048" lon="4.76096">
        <ele>197</ele>
        <time>2017-08-23T09:32:01Z</time>
      </trkpt>
      <trkpt lat="45.89051" lon="4.76101">
        <ele>197</ele>
        <time>2017-08-23T09:32:02Z</time>
      </trkpt>
      <trkpt lat="45.89056" lon="4.76111">
        <ele>197</ele>
        <time>2017-08-23T09:32:04Z</time>
      </trkpt>
      <trkpt lat="45.89058" lon="4.76115">
        <ele>197</ele>
        <time>2017-08-23T09:32:05Z</time>
      </trkpt>
      <trkpt lat="45.89062" lon="4.76124">
        <ele>197</ele>
        <time>2017-08-23T09:32:07Z</time>
      </trkpt>
      <trkpt lat="45.89063" lon="4.76129">
        <ele>197</ele>
        <time>2017-08-23T09:32:08Z</time>
      </trkpt>
      <trkpt lat="45.89068" lon="4.76139">
        <ele>197</ele>
        <time>2017-08-23T09:32:10Z</time>
      </trkpt>
      <trkpt lat="45.8907" lon="4.76144">
        <ele>197</ele>
        <time>2017-08-23T09:32:11Z</time>
      </trkpt>
      <trkpt lat="45.89076" lon="4.76152">
        <ele>196</ele>
        <time>2017-08-23T09:32:13Z</time>
      </trkpt>
      <trkpt lat="45.89078" lon="4.76157">
        <ele>196</ele>
        <time>2017-08-23T09:32:14Z</time>
      </trkpt>
      <trkpt lat="45.89082" lon="4.76166">
        <ele>195</ele>
        <time>2017-08-23T09:32:16Z</time>
      </trkpt>
      <trkpt lat="45.89085" lon="4.76171">
        <ele>195</ele>
        <time>2017-08-23T09:32:17Z</time>
      </trkpt>
      <trkpt lat="45.8909" lon="4.7618">
        <ele>196</ele>
        <time>2017-08-23T09:32:19Z</time>
      </trkpt>
      <trkpt lat="45.89092" lon="4.76186">
        <ele>196</ele>
        <time>2017-08-23T09:32:20Z</time>
      </trkpt>
      <trkpt lat="45.89098" lon="4.76193">
        <ele>196</ele>
        <time>2017-08-23T09:32:22Z</time>
      </trkpt>
      <trkpt lat="45.891" lon="4.76198">
        <ele>196</ele>
        <time>2017-08-23T09:32:23Z</time>
      </trkpt>
      <trkpt lat="45.89104" lon="4.76207">
        <ele>196</ele>
        <time>2017-08-23T09:32:25Z</time>
      </trkpt>
      <trkpt lat="45.89107" lon="4.76213">
        <ele>196</ele>
        <time>2017-08-23T09:32:26Z</time>
      </trkpt>
      <trkpt lat="45.89111" lon="4.76223">
        <ele>196</ele>
        <time>2017-08-23T09:32:28Z</time>
      </trkpt>
      <trkpt lat="45.89113" lon="4.76228">
        <ele>196</ele>
        <time>2017-08-23T09:32:29Z</time>
      </trkpt>
      <trkpt lat="45.89116" lon="4.76234">
        <ele>196</ele>
        <time>2017-08-23T09:32:30Z</time>
      </trkpt>
      <trkpt lat="45.89118" lon="4.76239">
        <ele>196</ele>
        <time>2017-08-23T09:32:31Z</time>
      </trkpt>
      <trkpt lat="45.89123" lon="4.76249">
        <ele>196</ele>
        <time>2017-08-23T09:32:33Z</time>
      </trkpt>
      <trkpt lat="45.89125" lon="4.76254">
        <ele>197</ele>
        <time>2017-08-23T09:32:34Z</time>
      </trkpt>
      <trkpt lat="45.89128" lon="4.76263">
        <ele>197</ele>
        <time>2017-08-23T09:32:36Z</time>
      </trkpt>
      <trkpt lat="45.89131" lon="4.76267">
        <ele>197</ele>
        <time>2017-08-23T09:32:37Z</time>
      </trkpt>
      <trkpt lat="45.89136" lon="4.76277">
        <ele>196</ele>
        <time>2017-08-23T09:32:39Z</time>
      </trkpt>
      <trkpt lat="45.89139" lon="4.76282">
        <ele>196</ele>
        <time>2017-08-23T09:32:40Z</time>
      </trkpt>
      <trkpt lat="45.89142" lon="4.76288">
        <ele>196</ele>
        <time>2017-08-23T09:32:41Z</time>
      </trkpt>
      <trkpt lat="45.89145" lon="4.76293">
        <ele>196</ele>
        <time>2017-08-23T09:32:42Z</time>
      </trkpt>
      <trkpt lat="45.8915" lon="4.76303">
        <ele>196</ele>
        <time>2017-08-23T09:32:44Z</time>
      </trkpt>
      <trkpt lat="45.89152" lon="4.76308">
        <ele>196</ele>
        <time>2017-08-23T09:32:45Z</time>
      </trkpt>
      <trkpt lat="45.89157" lon="4.76316">
        <ele>196</ele>
        <time>2017-08-23T09:32:47Z</time>
      </trkpt>
      <trkpt lat="45.89159" lon="4.76321">
        <ele>196</ele>
        <time>2017-08-23T09:32:48Z</time>
      </trkpt>
      <trkpt lat="45.89164" lon="4.76331">
        <ele>195</ele>
        <time>2017-08-23T09:32:50Z</time>
      </trkpt>
      <trkpt lat="45.89167" lon="4.76337">
        <ele>195</ele>
        <time>2017-08-23T09:32:51Z</time>
      </trkpt>
      <trkpt lat="45.89171" lon="4.76347">
        <ele>195</ele>
        <time>2017-08-23T09:32:53Z</time>
      </trkpt>
      <trkpt lat="45.89173" lon="4.76352">
        <ele>195</ele>
        <time>2017-08-23T09:32:54Z</time>
      </trkpt>
      <trkpt lat="45.89177" lon="4.76361">
        <ele>194</ele>
        <time>2017-08-23T09:32:56Z</time>
      </trkpt>
      <trkpt lat="45.8918" lon="4.76366">
        <ele>194</ele>
        <time>2017-08-23T09:32:57Z</time>
      </trkpt>
      <trkpt lat="45.89186" lon="4.76376">
        <ele>194</ele>
        <time>2017-08-23T09:32:59Z</time>
      </trkpt>
      <trkpt lat="45.89188" lon="4.76381">
        <ele>194</ele>
        <time>2017-08-23T09:33:00Z</time>
      </trkpt>
      <trkpt lat="45.89192" lon="4.76389">
        <ele>194</ele>
        <time>2017-08-23T09:33:02Z</time>
      </trkpt>
      <trkpt lat="45.89194" lon="4.76393">
        <ele>194</ele>
        <time>2017-08-23T09:33:03Z</time>
      </trkpt>
      <trkpt lat="45.89198" lon="4.76403">
        <ele>194</ele>
        <time>2017-08-23T09:33:05Z</time>
      </trkpt>
      <trkpt lat="45.892" lon="4.76409">
        <ele>194</ele>
        <time>2017-08-23T09:33:06Z</time>
      </trkpt>
      <trkpt lat="45.89203" lon="4.76415">
        <ele>194</ele>
        <time>2017-08-23T09:33:07Z</time>
      </trkpt>
      <trkpt lat="45.89205" lon="4.7642">
        <ele>193</ele>
        <time>2017-08-23T09:33:08Z</time>
      </trkpt>
      <trkpt lat="45.89208" lon="4.76426">
        <ele>193</ele>
        <time>2017-08-23T09:33:09Z</time>
      </trkpt>
      <trkpt lat="45.8921" lon="4.76431">
        <ele>194</ele>
        <time>2017-08-23T09:33:10Z</time>
      </trkpt>
      <trkpt lat="45.89215" lon="4.7644">
        <ele>194</ele>
        <time>2017-08-23T09:33:12Z</time>
      </trkpt>
      <trkpt lat="45.89217" lon="4.76444">
        <ele>194</ele>
        <time>2017-08-23T09:33:13Z</time>
      </trkpt>
      <trkpt lat="45.89222" lon="4.76452">
        <ele>194</ele>
        <time>2017-08-23T09:33:15Z</time>
      </trkpt>
      <trkpt lat="45.89225" lon="4.76456">
        <ele>194</ele>
        <time>2017-08-23T09:33:16Z</time>
      </trkpt>
      <trkpt lat="45.8923" lon="4.76462">
        <ele>193</ele>
        <time>2017-08-23T09:33:18Z</time>
      </trkpt>
      <trkpt lat="45.89234" lon="4.76465">
        <ele>193</ele>
        <time>2017-08-23T09:33:19Z</time>
      </trkpt>
      <trkpt lat="45.8924" lon="4.76471">
        <ele>193</ele>
        <time>2017-08-23T09:33:21Z</time>
      </trkpt>
      <trkpt lat="45.89243" lon="4.76473">
        <ele>193</ele>
        <time>2017-08-23T09:33:22Z</time>
      </trkpt>
      <trkpt lat="45.89249" lon="4.76478">
        <ele>193</ele>
        <time>2017-08-23T09:33:24Z</time>
      </trkpt>
      <trkpt lat="45.89252" lon="4.7648">
        <ele>193</ele>
        <time>2017-08-23T09:33:25Z</time>
      </trkpt>
      <trkpt lat="45.8926" lon="4.76483">
        <ele>193</ele>
        <time>2017-08-23T09:33:27Z</time>
      </trkpt>
      <trkpt lat="45.89265" lon="4.76485">
        <ele>193</ele>
        <time>2017-08-23T09:33:28Z</time>
      </trkpt>
      <trkpt lat="45.89274" lon="4.76487">
        <ele>193</ele>
        <time>2017-08-23T09:33:30Z</time>
      </trkpt>
      <trkpt lat="45.89278" lon="4.76488">
        <ele>193</ele>
        <time>2017-08-23T09:33:31Z</time>
      </trkpt>
      <trkpt lat="45.89287" lon="4.7649">
        <ele>193</ele>
        <time>2017-08-23T09:33:33Z</time>
      </trkpt>
      <trkpt lat="45.89291" lon="4.76491">
        <ele>193</ele>
        <time>2017-08-23T09:33:34Z</time>
      </trkpt>
      <trkpt lat="45.89298" lon="4.76492">
        <ele>194</ele>
        <time>2017-08-23T09:33:36Z</time>
      </trkpt>
      <trkpt lat="45.89301" lon="4.76494">
        <ele>194</ele>
        <time>2017-08-23T09:33:37Z</time>
      </trkpt>
      <trkpt lat="45.89309" lon="4.76496">
        <ele>194</ele>
        <time>2017-08-23T09:33:39Z</time>
      </trkpt>
      <trkpt lat="45.89313" lon="4.76497">
        <ele>194</ele>
        <time>2017-08-23T09:33:40Z</time>
      </trkpt>
      <trkpt lat="45.89322" lon="4.76499">
        <ele>194</ele>
        <time>2017-08-23T09:33:42Z</time>
      </trkpt>
      <trkpt lat="45.89326" lon="4.76501">
        <ele>194</ele>
        <time>2017-08-23T09:33:43Z</time>
      </trkpt>
      <trkpt lat="45.89334" lon="4.76504">
        <ele>194</ele>
        <time>2017-08-23T09:33:45Z</time>
      </trkpt>
      <trkpt lat="45.89337" lon="4.76506">
        <ele>194</ele>
        <time>2017-08-23T09:33:46Z</time>
      </trkpt>
      <trkpt lat="45.89343" lon="4.76508">
        <ele>194</ele>
        <time>2017-08-23T09:33:48Z</time>
      </trkpt>
      <trkpt lat="45.89346" lon="4.76509">
        <ele>194</ele>
        <time>2017-08-23T09:33:49Z</time>
      </trkpt>
      <trkpt lat="45.89352" lon="4.76511">
        <ele>194</ele>
        <time>2017-08-23T09:33:51Z</time>
      </trkpt>
      <trkpt lat="45.89356" lon="4.76513">
        <ele>194</ele>
        <time>2017-08-23T09:33:52Z</time>
      </trkpt>
      <trkpt lat="45.89362" lon="4.76519">
        <ele>194</ele>
        <time>2017-08-23T09:33:54Z</time>
      </trkpt>
      <trkpt lat="45.89364" lon="4.7652">
        <ele>194</ele>
        <time>2017-08-23T09:33:55Z</time>
      </trkpt>
      <trkpt lat="45.89371" lon="4.76521">
        <ele>194</ele>
        <time>2017-08-23T09:33:58Z</time>
      </trkpt>
      <trkpt lat="45.89374" lon="4.76522">
        <ele>194</ele>
        <time>2017-08-23T09:33:59Z</time>
      </trkpt>
      <trkpt lat="45.89382" lon="4.76525">
        <ele>194</ele>
        <time>2017-08-23T09:34:02Z</time>
      </trkpt>
      <trkpt lat="45.89385" lon="4.76527">
        <ele>194</ele>
        <time>2017-08-23T09:34:03Z</time>
      </trkpt>
      <trkpt lat="45.89391" lon="4.76529">
        <ele>194</ele>
        <time>2017-08-23T09:34:05Z</time>
      </trkpt>
      <trkpt lat="45.89393" lon="4.7653">
        <ele>194</ele>
        <time>2017-08-23T09:34:06Z</time>
      </trkpt>
      <trkpt lat="45.89402" lon="4.76534">
        <ele>194</ele>
        <time>2017-08-23T09:34:09Z</time>
      </trkpt>
      <trkpt lat="45.89405" lon="4.76535">
        <ele>194</ele>
        <time>2017-08-23T09:34:10Z</time>
      </trkpt>
      <trkpt lat="45.89413" lon="4.76538">
        <ele>194</ele>
        <time>2017-08-23T09:34:13Z</time>
      </trkpt>
      <trkpt lat="45.89415" lon="4.76539">
        <ele>194</ele>
        <time>2017-08-23T09:34:14Z</time>
      </trkpt>
      <trkpt lat="45.89421" lon="4.76544">
        <ele>194</ele>
        <time>2017-08-23T09:34:17Z</time>
      </trkpt>
      <trkpt lat="45.89423" lon="4.76546">
        <ele>194</ele>
        <time>2017-08-23T09:34:18Z</time>
      </trkpt>
      <trkpt lat="45.89429" lon="4.76554">
        <ele>194</ele>
        <time>2017-08-23T09:34:21Z</time>
      </trkpt>
      <trkpt lat="45.89431" lon="4.76556">
        <ele>194</ele>
        <time>2017-08-23T09:34:22Z</time>
      </trkpt>
      <trkpt lat="45.89438" lon="4.76559">
        <ele>194</ele>
        <time>2017-08-23T09:34:25Z</time>
      </trkpt>
      <trkpt lat="45.89441" lon="4.7656">
        <ele>194</ele>
        <time>2017-08-23T09:34:26Z</time>
      </trkpt>
      <trkpt lat="45.89449" lon="4.76559">
        <ele>194</ele>
        <time>2017-08-23T09:34:29Z</time>
      </trkpt>
      <trkpt lat="45.89451" lon="4.76558">
        <ele>194</ele>
        <time>2017-08-23T09:34:30Z</time>
      </trkpt>
      <trkpt lat="45.89459" lon="4.76555">
        <ele>194</ele>
        <time>2017-08-23T09:34:33Z</time>
      </trkpt>
      <trkpt lat="45.89462" lon="4.76554">
        <ele>194</ele>
        <time>2017-08-23T09:34:34Z</time>
      </trkpt>
      <trkpt lat="45.89468" lon="4.76553">
        <ele>194</ele>
        <time>2017-08-23T09:34:36Z</time>
      </trkpt>
      <trkpt lat="45.89471" lon="4.76552">
        <ele>194</ele>
        <time>2017-08-23T09:34:37Z</time>
      </trkpt>
      <trkpt lat="45.89478" lon="4.7655">
        <ele>194</ele>
        <time>2017-08-23T09:34:40Z</time>
      </trkpt>
      <trkpt lat="45.89481" lon="4.76549">
        <ele>194</ele>
        <time>2017-08-23T09:34:41Z</time>
      </trkpt>
      <trkpt lat="45.89489" lon="4.76549">
        <ele>194</ele>
        <time>2017-08-23T09:34:44Z</time>
      </trkpt>
      <trkpt lat="45.89491" lon="4.76548">
        <ele>194</ele>
        <time>2017-08-23T09:34:45Z</time>
      </trkpt>
      <trkpt lat="45.89498" lon="4.76547">
        <ele>194</ele>
        <time>2017-08-23T09:34:47Z</time>
      </trkpt>
      <trkpt lat="45.89501" lon="4.76548">
        <ele>194</ele>
        <time>2017-08-23T09:34:48Z</time>
      </trkpt>
      <trkpt lat="45.89509" lon="4.76546">
        <ele>194</ele>
        <time>2017-08-23T09:34:51Z</time>
      </trkpt>
      <trkpt lat="45.89512" lon="4.76545">
        <ele>194</ele>
        <time>2017-08-23T09:34:52Z</time>
      </trkpt>
      <trkpt lat="45.89519" lon="4.76541">
        <ele>194</ele>
        <time>2017-08-23T09:34:54Z</time>
      </trkpt>
      <trkpt lat="45.89522" lon="4.7654">
        <ele>194</ele>
        <time>2017-08-23T09:34:55Z</time>
      </trkpt>
      <trkpt lat="45.89531" lon="4.76537">
        <ele>194</ele>
        <time>2017-08-23T09:34:58Z</time>
      </trkpt>
      <trkpt lat="45.89534" lon="4.76536">
        <ele>194</ele>
        <time>2017-08-23T09:34:59Z</time>
      </trkpt>
      <trkpt lat="45.89541" lon="4.76533">
        <ele>194</ele>
        <time>2017-08-23T09:35:01Z</time>
      </trkpt>
      <trkpt lat="45.89545" lon="4.76533">
        <ele>194</ele>
        <time>2017-08-23T09:35:02Z</time>
      </trkpt>
      <trkpt lat="45.89552" lon="4.76532">
        <ele>194</ele>
        <time>2017-08-23T09:35:04Z</time>
      </trkpt>
      <trkpt lat="45.89555" lon="4.76532">
        <ele>194</ele>
        <time>2017-08-23T09:35:05Z</time>
      </trkpt>
      <trkpt lat="45.89563" lon="4.76532">
        <ele>194</ele>
        <time>2017-08-23T09:35:08Z</time>
      </trkpt>
      <trkpt lat="45.89567" lon="4.76532">
        <ele>194</ele>
        <time>2017-08-23T09:35:09Z</time>
      </trkpt>
      <trkpt lat="45.89574" lon="4.76533">
        <ele>194</ele>
        <time>2017-08-23T09:35:11Z</time>
      </trkpt>
      <trkpt lat="45.89577" lon="4.76533">
        <ele>194</ele>
        <time>2017-08-23T09:35:12Z</time>
      </trkpt>
      <trkpt lat="45.89585" lon="4.76531">
        <ele>194</ele>
        <time>2017-08-23T09:35:15Z</time>
      </trkpt>
      <trkpt lat="45.89587" lon="4.76531">
        <ele>194</ele>
        <time>2017-08-23T09:35:16Z</time>
      </trkpt>
      <trkpt lat="45.89592" lon="4.76525">
        <ele>194</ele>
        <time>2017-08-23T09:35:19Z</time>
      </trkpt>
      <trkpt lat="45.89594" lon="4.76523">
        <ele>194</ele>
        <time>2017-08-23T09:35:20Z</time>
      </trkpt>
      <trkpt lat="45.896" lon="4.76514">
        <ele>194</ele>
        <time>2017-08-23T09:35:23Z</time>
      </trkpt>
      <trkpt lat="45.89601" lon="4.7651">
        <ele>194</ele>
        <time>2017-08-23T09:35:24Z</time>
      </trkpt>
      <trkpt lat="45.89603" lon="4.76502">
        <ele>194</ele>
        <time>2017-08-23T09:35:26Z</time>
      </trkpt>
      <trkpt lat="45.89605" lon="4.76498">
        <ele>194</ele>
        <time>2017-08-23T09:35:27Z</time>
      </trkpt>
      <trkpt lat="45.89608" lon="4.76487">
        <ele>194</ele>
        <time>2017-08-23T09:35:29Z</time>
      </trkpt>
      <trkpt lat="45.89609" lon="4.76483">
        <ele>194</ele>
        <time>2017-08-23T09:35:30Z</time>
      </trkpt>
      <trkpt lat="45.89613" lon="4.76474">
        <ele>194</ele>
        <time>2017-08-23T09:35:32Z</time>
      </trkpt>
      <trkpt lat="45.89614" lon="4.7647">
        <ele>194</ele>
        <time>2017-08-23T09:35:33Z</time>
      </trkpt>
      <trkpt lat="45.89618" lon="4.76462">
        <ele>194</ele>
        <time>2017-08-23T09:35:35Z</time>
      </trkpt>
      <trkpt lat="45.89619" lon="4.76457">
        <ele>195</ele>
        <time>2017-08-23T09:35:36Z</time>
      </trkpt>
      <trkpt lat="45.89622" lon="4.76447">
        <ele>195</ele>
        <time>2017-08-23T09:35:38Z</time>
      </trkpt>
      <trkpt lat="45.89623" lon="4.76442">
        <ele>195</ele>
        <time>2017-08-23T09:35:39Z</time>
      </trkpt>
      <trkpt lat="45.89626" lon="4.76432">
        <ele>195</ele>
        <time>2017-08-23T09:35:42Z</time>
      </trkpt>
      <trkpt lat="45.89628" lon="4.76428">
        <ele>195</ele>
        <time>2017-08-23T09:35:43Z</time>
      </trkpt>
      <trkpt lat="45.89631" lon="4.76419">
        <ele>195</ele>
        <time>2017-08-23T09:35:45Z</time>
      </trkpt>
      <trkpt lat="45.89633" lon="4.76415">
        <ele>195</ele>
        <time>2017-08-23T09:35:46Z</time>
      </trkpt>
      <trkpt lat="45.89637" lon="4.76407">
        <ele>195</ele>
        <time>2017-08-23T09:35:48Z</time>
      </trkpt>
      <trkpt lat="45.89638" lon="4.76404">
        <ele>195</ele>
        <time>2017-08-23T09:35:49Z</time>
      </trkpt>
      <trkpt lat="45.89642" lon="4.76395">
        <ele>195</ele>
        <time>2017-08-23T09:35:52Z</time>
      </trkpt>
      <trkpt lat="45.89644" lon="4.76391">
        <ele>195</ele>
        <time>2017-08-23T09:35:53Z</time>
      </trkpt>
      <trkpt lat="45.89646" lon="4.76383">
        <ele>195</ele>
        <time>2017-08-23T09:35:55Z</time>
      </trkpt>
      <trkpt lat="45.89648" lon="4.76379">
        <ele>195</ele>
        <time>2017-08-23T09:35:56Z</time>
      </trkpt>
      <trkpt lat="45.89652" lon="4.76369">
        <ele>195</ele>
        <time>2017-08-23T09:35:59Z</time>
      </trkpt>
      <trkpt lat="45.89653" lon="4.76366">
        <ele>195</ele>
        <time>2017-08-23T09:36:00Z</time>
      </trkpt>
      <trkpt lat="45.89656" lon="4.76358">
        <ele>195</ele>
        <time>2017-08-23T09:36:02Z</time>
      </trkpt>
      <trkpt lat="45.89657" lon="4.76353">
        <ele>195</ele>
        <time>2017-08-23T09:36:03Z</time>
      </trkpt>
      <trkpt lat="45.89661" lon="4.76343">
        <ele>195</ele>
        <time>2017-08-23T09:36:05Z</time>
      </trkpt>
      <trkpt lat="45.89663" lon="4.76338">
        <ele>195</ele>
        <time>2017-08-23T09:36:06Z</time>
      </trkpt>
      <trkpt lat="45.89666" lon="4.76328">
        <ele>195</ele>
        <time>2017-08-23T09:36:08Z</time>
      </trkpt>
      <trkpt lat="45.89667" lon="4.76324">
        <ele>195</ele>
        <time>2017-08-23T09:36:09Z</time>
      </trkpt>
      <trkpt lat="45.8967" lon="4.76315">
        <ele>195</ele>
        <time>2017-08-23T09:36:11Z</time>
      </trkpt>
      <trkpt lat="45.89672" lon="4.76311">
        <ele>195</ele>
        <time>2017-08-23T09:36:12Z</time>
      </trkpt>
      <trkpt lat="45.89675" lon="4.76303">
        <ele>195</ele>
        <time>2017-08-23T09:36:14Z</time>
      </trkpt>
      <trkpt lat="45.89676" lon="4.76298">
        <ele>195</ele>
        <time>2017-08-23T09:36:15Z</time>
      </trkpt>
      <trkpt lat="45.8968" lon="4.76287">
        <ele>195</ele>
        <time>2017-08-23T09:36:17Z</time>
      </trkpt>
      <trkpt lat="45.89682" lon="4.76281">
        <ele>195</ele>
        <time>2017-08-23T09:36:18Z</time>
      </trkpt>
      <trkpt lat="45.89686" lon="4.7627">
        <ele>195</ele>
        <time>2017-08-23T09:36:20Z</time>
      </trkpt>
      <trkpt lat="45.89688" lon="4.76265">
        <ele>195</ele>
        <time>2017-08-23T09:36:21Z</time>
      </trkpt>
      <trkpt lat="45.89691" lon="4.76256">
        <ele>195</ele>
        <time>2017-08-23T09:36:23Z</time>
      </trkpt>
      <trkpt lat="45.89692" lon="4.76252">
        <ele>195</ele>
        <time>2017-08-23T09:36:24Z</time>
      </trkpt>
      <trkpt lat="45.89695" lon="4.76244">
        <ele>195</ele>
        <time>2017-08-23T09:36:26Z</time>
      </trkpt>
      <trkpt lat="45.89697" lon="4.76239">
        <ele>195</ele>
        <time>2017-08-23T09:36:27Z</time>
      </trkpt>
      <trkpt lat="45.897" lon="4.76227">
        <ele>195</ele>
        <time>2017-08-23T09:36:29Z</time>
      </trkpt>
      <trkpt lat="45.89702" lon="4.76221">
        <ele>195</ele>
        <time>2017-08-23T09:36:30Z</time>
      </trkpt>
      <trkpt lat="45.89705" lon="4.7621">
        <ele>195</ele>
        <time>2017-08-23T09:36:32Z</time>
      </trkpt>
      <trkpt lat="45.89707" lon="4.76205">
        <ele>195</ele>
        <time>2017-08-23T09:36:33Z</time>
      </trkpt>
      <trkpt lat="45.8971" lon="4.76196">
        <ele>195</ele>
        <time>2017-08-23T09:36:35Z</time>
      </trkpt>
      <trkpt lat="45.89712" lon="4.76191">
        <ele>195</ele>
        <time>2017-08-23T09:36:36Z</time>
      </trkpt>
      <trkpt lat="45.89715" lon="4.76182">
        <ele>195</ele>
        <time>2017-08-23T09:36:38Z</time>
      </trkpt>
      <trkpt lat="45.89717" lon="4.76178">
        <ele>195</ele>
        <time>2017-08-23T09:36:39Z</time>
      </trkpt>
      <trkpt lat="45.8972" lon="4.7617">
        <ele>195</ele>
        <time>2017-08-23T09:36:41Z</time>
      </trkpt>
      <trkpt lat="45.89721" lon="4.76165">
        <ele>195</ele>
        <time>2017-08-23T09:36:42Z</time>
      </trkpt>
      <trkpt lat="45.89725" lon="4.76153">
        <ele>195</ele>
        <time>2017-08-23T09:36:44Z</time>
      </trkpt>
      <trkpt lat="45.89727" lon="4.76147">
        <ele>195</ele>
        <time>2017-08-23T09:36:45Z</time>
      </trkpt>
      <trkpt lat="45.8973" lon="4.76137">
        <ele>195</ele>
        <time>2017-08-23T09:36:47Z</time>
      </trkpt>
      <trkpt lat="45.89732" lon="4.76132">
        <ele>195</ele>
        <time>2017-08-23T09:36:48Z</time>
      </trkpt>
      <trkpt lat="45.89735" lon="4.76123">
        <ele>195</ele>
        <time>2017-08-23T09:36:50Z</time>
      </trkpt>
      <trkpt lat="45.89738" lon="4.76118">
        <ele>195</ele>
        <time>2017-08-23T09:36:51Z</time>
      </trkpt>
      <trkpt lat="45.8974" lon="4.76112">
        <ele>195</ele>
        <time>2017-08-23T09:36:52Z</time>
      </trkpt>
      <trkpt lat="45.89742" lon="4.76106">
        <ele>195</ele>
        <time>2017-08-23T09:36:53Z</time>
      </trkpt>
      <trkpt lat="45.89745" lon="4.761">
        <ele>195</ele>
        <time>2017-08-23T09:36:54Z</time>
      </trkpt>
      <trkpt lat="45.89747" lon="4.76093">
        <ele>195</ele>
        <time>2017-08-23T09:36:55Z</time>
      </trkpt>
      <trkpt lat="45.89749" lon="4.76087">
        <ele>195</ele>
        <time>2017-08-23T09:36:56Z</time>
      </trkpt>
      <trkpt lat="45.89752" lon="4.76082">
        <ele>195</ele>
        <time>2017-08-23T09:36:57Z</time>
      </trkpt>
      <trkpt lat="45.89756" lon="4.76071">
        <ele>195</ele>
        <time>2017-08-23T09:36:59Z</time>
      </trkpt>
      <trkpt lat="45.89758" lon="4.76066">
        <ele>195</ele>
        <time>2017-08-23T09:37:00Z</time>
      </trkpt>
      <trkpt lat="45.89762" lon="4.76057">
        <ele>195</ele>
        <time>2017-08-23T09:37:02Z</time>
      </trkpt>
      <trkpt lat="45.89764" lon="4.76052">
        <ele>195</ele>
        <time>2017-08-23T09:37:03Z</time>
      </trkpt>
      <trkpt lat="45.89768" lon="4.76041">
        <ele>195</ele>
        <time>2017-08-23T09:37:05Z</time>
      </trkpt>
      <trkpt lat="45.89769" lon="4.76035">
        <ele>195</ele>
        <time>2017-08-23T09:37:06Z</time>
      </trkpt>
      <trkpt lat="45.89772" lon="4.76026">
        <ele>195</ele>
        <time>2017-08-23T09:37:08Z</time>
      </trkpt>
      <trkpt lat="45.89774" lon="4.76021">
        <ele>195</ele>
        <time>2017-08-23T09:37:09Z</time>
      </trkpt>
      <trkpt lat="45.89777" lon="4.76011">
        <ele>195</ele>
        <time>2017-08-23T09:37:11Z</time>
      </trkpt>
      <trkpt lat="45.89778" lon="4.76006">
        <ele>195</ele>
        <time>2017-08-23T09:37:12Z</time>
      </trkpt>
      <trkpt lat="45.89782" lon="4.75996">
        <ele>195</ele>
        <time>2017-08-23T09:37:14Z</time>
      </trkpt>
      <trkpt lat="45.89784" lon="4.75992">
        <ele>195</ele>
        <time>2017-08-23T09:37:15Z</time>
      </trkpt>
      <trkpt lat="45.89788" lon="4.75981">
        <ele>195</ele>
        <time>2017-08-23T09:37:17Z</time>
      </trkpt>
      <trkpt lat="45.89789" lon="4.75976">
        <ele>195</ele>
        <time>2017-08-23T09:37:18Z</time>
      </trkpt>
      <trkpt lat="45.89791" lon="4.75966">
        <ele>195</ele>
        <time>2017-08-23T09:37:20Z</time>
      </trkpt>
      <trkpt lat="45.89793" lon="4.75961">
        <ele>195</ele>
        <time>2017-08-23T09:37:21Z</time>
      </trkpt>
      <trkpt lat="45.89796" lon="4.75951">
        <ele>195</ele>
        <time>2017-08-23T09:37:23Z</time>
      </trkpt>
      <trkpt lat="45.89797" lon="4.75946">
        <ele>195</ele>
        <time>2017-08-23T09:37:24Z</time>
      </trkpt>
      <trkpt lat="45.89799" lon="4.7594">
        <ele>195</ele>
        <time>2017-08-23T09:37:25Z</time>
      </trkpt>
      <trkpt lat="45.898" lon="4.75934">
        <ele>195</ele>
        <time>2017-08-23T09:37:26Z</time>
      </trkpt>
      <trkpt lat="45.89802" lon="4.75927">
        <ele>195</ele>
        <time>2017-08-23T09:37:27Z</time>
      </trkpt>
      <trkpt lat="45.89803" lon="4.75921">
        <ele>195</ele>
        <time>2017-08-23T09:37:28Z</time>
      </trkpt>
      <trkpt lat="45.89807" lon="4.7591">
        <ele>194</ele>
        <time>2017-08-23T09:37:30Z</time>
      </trkpt>
      <trkpt lat="45.89808" lon="4.75905">
        <ele>194</ele>
        <time>2017-08-23T09:37:31Z</time>
      </trkpt>
      <trkpt lat="45.89811" lon="4.75895">
        <ele>194</ele>
        <time>2017-08-23T09:37:33Z</time>
      </trkpt>
      <trkpt lat="45.89812" lon="4.75891">
        <ele>194</ele>
        <time>2017-08-23T09:37:34Z</time>
      </trkpt>
      <trkpt lat="45.89817" lon="4.75883">
        <ele>194</ele>
        <time>2017-08-23T09:37:36Z</time>
      </trkpt>
      <trkpt lat="45.8982" lon="4.75878">
        <ele>194</ele>
        <time>2017-08-23T09:37:37Z</time>
      </trkpt>
      <trkpt lat="45.89823" lon="4.75873">
        <ele>194</ele>
        <time>2017-08-23T09:37:38Z</time>
      </trkpt>
      <trkpt lat="45.89826" lon="4.75867">
        <ele>194</ele>
        <time>2017-08-23T09:37:39Z</time>
      </trkpt>
      <trkpt lat="45.89829" lon="4.75861">
        <ele>193</ele>
        <time>2017-08-23T09:37:40Z</time>
      </trkpt>
      <trkpt lat="45.89832" lon="4.75855">
        <ele>193</ele>
        <time>2017-08-23T09:37:41Z</time>
      </trkpt>
      <trkpt lat="45.89836" lon="4.7585">
        <ele>193</ele>
        <time>2017-08-23T09:37:42Z</time>
      </trkpt>
      <trkpt lat="45.8984" lon="4.75845">
        <ele>192</ele>
        <time>2017-08-23T09:37:43Z</time>
      </trkpt>
      <trkpt lat="45.89843" lon="4.75839">
        <ele>192</ele>
        <time>2017-08-23T09:37:44Z</time>
      </trkpt>
      <trkpt lat="45.89847" lon="4.75834">
        <ele>192</ele>
        <time>2017-08-23T09:37:45Z</time>
      </trkpt>
      <trkpt lat="45.89851" lon="4.75829">
        <ele>192</ele>
        <time>2017-08-23T09:37:46Z</time>
      </trkpt>
      <trkpt lat="45.89854" lon="4.75824">
        <ele>192</ele>
        <time>2017-08-23T09:37:47Z</time>
      </trkpt>
      <trkpt lat="45.89858" lon="4.7582">
        <ele>192</ele>
        <time>2017-08-23T09:37:48Z</time>
      </trkpt>
      <trkpt lat="45.89862" lon="4.75815">
        <ele>192</ele>
        <time>2017-08-23T09:37:49Z</time>
      </trkpt>
      <trkpt lat="45.89866" lon="4.75812">
        <ele>192</ele>
        <time>2017-08-23T09:37:50Z</time>
      </trkpt>
      <trkpt lat="45.8987" lon="4.75808">
        <ele>192</ele>
        <time>2017-08-23T09:37:51Z</time>
      </trkpt>
      <trkpt lat="45.89874" lon="4.75805">
        <ele>192</ele>
        <time>2017-08-23T09:37:52Z</time>
      </trkpt>
      <trkpt lat="45.89878" lon="4.75802">
        <ele>192</ele>
        <time>2017-08-23T09:37:53Z</time>
      </trkpt>
      <trkpt lat="45.89886" lon="4.75797">
        <ele>192</ele>
        <time>2017-08-23T09:37:55Z</time>
      </trkpt>
      <trkpt lat="45.8989" lon="4.75795">
        <ele>192</ele>
        <time>2017-08-23T09:37:56Z</time>
      </trkpt>
      <trkpt lat="45.89897" lon="4.7579">
        <ele>192</ele>
        <time>2017-08-23T09:37:58Z</time>
      </trkpt>
      <trkpt lat="45.89901" lon="4.75788">
        <ele>192</ele>
        <time>2017-08-23T09:37:59Z</time>
      </trkpt>
      <trkpt lat="45.89905" lon="4.75786">
        <ele>192</ele>
        <time>2017-08-23T09:38:00Z</time>
      </trkpt>
      <trkpt lat="45.89909" lon="4.75784">
        <ele>192</ele>
        <time>2017-08-23T09:38:01Z</time>
      </trkpt>
      <trkpt lat="45.89914" lon="4.75781">
        <ele>192</ele>
        <time>2017-08-23T09:38:02Z</time>
      </trkpt>
      <trkpt lat="45.89918" lon="4.75779">
        <ele>192</ele>
        <time>2017-08-23T09:38:03Z</time>
      </trkpt>
      <trkpt lat="45.89926" lon="4.75775">
        <ele>192</ele>
        <time>2017-08-23T09:38:05Z</time>
      </trkpt>
      <trkpt lat="45.89931" lon="4.75772">
        <ele>192</ele>
        <time>2017-08-23T09:38:06Z</time>
      </trkpt>
      <trkpt lat="45.89936" lon="4.75768">
        <ele>192</ele>
        <time>2017-08-23T09:38:07Z</time>
      </trkpt>
      <trkpt lat="45.8994" lon="4.75765">
        <ele>192</ele>
        <time>2017-08-23T09:38:08Z</time>
      </trkpt>
      <trkpt lat="45.89945" lon="4.75762">
        <ele>192</ele>
        <time>2017-08-23T09:38:09Z</time>
      </trkpt>
      <trkpt lat="45.8995" lon="4.7576">
        <ele>192</ele>
        <time>2017-08-23T09:38:10Z</time>
      </trkpt>
      <trkpt lat="45.89955" lon="4.75759">
        <ele>192</ele>
        <time>2017-08-23T09:38:11Z</time>
      </trkpt>
      <trkpt lat="45.89959" lon="4.75757">
        <ele>192</ele>
        <time>2017-08-23T09:38:12Z</time>
      </trkpt>
      <trkpt lat="45.89967" lon="4.75754">
        <ele>192</ele>
        <time>2017-08-23T09:38:14Z</time>
      </trkpt>
      <trkpt lat="45.89971" lon="4.75753">
        <ele>192</ele>
        <time>2017-08-23T09:38:15Z</time>
      </trkpt>
      <trkpt lat="45.89978" lon="4.75749">
        <ele>192</ele>
        <time>2017-08-23T09:38:17Z</time>
      </trkpt>
      <trkpt lat="45.89982" lon="4.75747">
        <ele>192</ele>
        <time>2017-08-23T09:38:18Z</time>
      </trkpt>
      <trkpt lat="45.89987" lon="4.75744">
        <ele>193</ele>
        <time>2017-08-23T09:38:19Z</time>
      </trkpt>
      <trkpt lat="45.89992" lon="4.75741">
        <ele>193</ele>
        <time>2017-08-23T09:38:20Z</time>
      </trkpt>
      <trkpt lat="45.89997" lon="4.75739">
        <ele>193</ele>
        <time>2017-08-23T09:38:21Z</time>
      </trkpt>
      <trkpt lat="45.90002" lon="4.75737">
        <ele>193</ele>
        <time>2017-08-23T09:38:22Z</time>
      </trkpt>
      <trkpt lat="45.90007" lon="4.75736">
        <ele>193</ele>
        <time>2017-08-23T09:38:23Z</time>
      </trkpt>
      <trkpt lat="45.90012" lon="4.75735">
        <ele>193</ele>
        <time>2017-08-23T09:38:24Z</time>
      </trkpt>
      <trkpt lat="45.90016" lon="4.75734">
        <ele>193</ele>
        <time>2017-08-23T09:38:25Z</time>
      </trkpt>
      <trkpt lat="45.90021" lon="4.75735">
        <ele>193</ele>
        <time>2017-08-23T09:38:26Z</time>
      </trkpt>
      <trkpt lat="45.90029" lon="4.75737">
        <ele>193</ele>
        <time>2017-08-23T09:38:28Z</time>
      </trkpt>
      <trkpt lat="45.90033" lon="4.75738">
        <ele>193</ele>
        <time>2017-08-23T09:38:29Z</time>
      </trkpt>
      <trkpt lat="45.90041" lon="4.75741">
        <ele>193</ele>
        <time>2017-08-23T09:38:31Z</time>
      </trkpt>
      <trkpt lat="45.90045" lon="4.75743">
        <ele>192</ele>
        <time>2017-08-23T09:38:32Z</time>
      </trkpt>
      <trkpt lat="45.9005" lon="4.75745">
        <ele>192</ele>
        <time>2017-08-23T09:38:33Z</time>
      </trkpt>
      <trkpt lat="45.90055" lon="4.75747">
        <ele>192</ele>
        <time>2017-08-23T09:38:34Z</time>
      </trkpt>
      <trkpt lat="45.9006" lon="4.7575">
        <ele>192</ele>
        <time>2017-08-23T09:38:35Z</time>
      </trkpt>
      <trkpt lat="45.90064" lon="4.75752">
        <ele>192</ele>
        <time>2017-08-23T09:38:36Z</time>
      </trkpt>
      <trkpt lat="45.90073" lon="4.75757">
        <ele>192</ele>
        <time>2017-08-23T09:38:38Z</time>
      </trkpt>
      <trkpt lat="45.90076" lon="4.7576">
        <ele>192</ele>
        <time>2017-08-23T09:38:39Z</time>
      </trkpt>
      <trkpt lat="45.90084" lon="4.75765">
        <ele>192</ele>
        <time>2017-08-23T09:38:41Z</time>
      </trkpt>
      <trkpt lat="45.90087" lon="4.75768">
        <ele>192</ele>
        <time>2017-08-23T09:38:42Z</time>
      </trkpt>
      <trkpt lat="45.90095" lon="4.75773">
        <ele>191</ele>
        <time>2017-08-23T09:38:44Z</time>
      </trkpt>
      <trkpt lat="45.901" lon="4.75776">
        <ele>191</ele>
        <time>2017-08-23T09:38:45Z</time>
      </trkpt>
      <trkpt lat="45.90105" lon="4.75779">
        <ele>191</ele>
        <time>2017-08-23T09:38:46Z</time>
      </trkpt>
      <trkpt lat="45.9011" lon="4.75782">
        <ele>191</ele>
        <time>2017-08-23T09:38:47Z</time>
      </trkpt>
      <trkpt lat="45.90115" lon="4.75784">
        <ele>191</ele>
        <time>2017-08-23T09:38:48Z</time>
      </trkpt>
      <trkpt lat="45.9012" lon="4.75787">
        <ele>191</ele>
        <time>2017-08-23T09:38:49Z</time>
      </trkpt>
      <trkpt lat="45.90125" lon="4.75789">
        <ele>191</ele>
        <time>2017-08-23T09:38:50Z</time>
      </trkpt>
      <trkpt lat="45.90129" lon="4.75791">
        <ele>191</ele>
        <time>2017-08-23T09:38:51Z</time>
      </trkpt>
      <trkpt lat="45.90138" lon="4.75795">
        <ele>191</ele>
        <time>2017-08-23T09:38:53Z</time>
      </trkpt>
      <trkpt lat="45.90142" lon="4.75797">
        <ele>191</ele>
        <time>2017-08-23T09:38:54Z</time>
      </trkpt>
      <trkpt lat="45.90151" lon="4.758">
        <ele>191</ele>
        <time>2017-08-23T09:38:56Z</time>
      </trkpt>
      <trkpt lat="45.90155" lon="4.75801">
        <ele>191</ele>
        <time>2017-08-23T09:38:57Z</time>
      </trkpt>
      <trkpt lat="45.9016" lon="4.75801">
        <ele>191</ele>
        <time>2017-08-23T09:38:58Z</time>
      </trkpt>
      <trkpt lat="45.90165" lon="4.75801">
        <ele>191</ele>
        <time>2017-08-23T09:38:59Z</time>
      </trkpt>
      <trkpt lat="45.9017" lon="4.75801">
        <ele>190</ele>
        <time>2017-08-23T09:39:00Z</time>
      </trkpt>
      <trkpt lat="45.90176" lon="4.75802">
        <ele>190</ele>
        <time>2017-08-23T09:39:01Z</time>
      </trkpt>
      <trkpt lat="45.90181" lon="4.75802">
        <ele>190</ele>
        <time>2017-08-23T09:39:02Z</time>
      </trkpt>
      <trkpt lat="45.90185" lon="4.75803">
        <ele>190</ele>
        <time>2017-08-23T09:39:03Z</time>
      </trkpt>
      <trkpt lat="45.9019" lon="4.75804">
        <ele>190</ele>
        <time>2017-08-23T09:39:04Z</time>
      </trkpt>
      <trkpt lat="45.90194" lon="4.75805">
        <ele>190</ele>
        <time>2017-08-23T09:39:05Z</time>
      </trkpt>
      <trkpt lat="45.90199" lon="4.75806">
        <ele>190</ele>
        <time>2017-08-23T09:39:06Z</time>
      </trkpt>
      <trkpt lat="45.90204" lon="4.75807">
        <ele>190</ele>
        <time>2017-08-23T09:39:07Z</time>
      </trkpt>
      <trkpt lat="45.90212" lon="4.75809">
        <ele>190</ele>
        <time>2017-08-23T09:39:09Z</time>
      </trkpt>
      <trkpt lat="45.90216" lon="4.7581">
        <ele>190</ele>
        <time>2017-08-23T09:39:10Z</time>
      </trkpt>
      <trkpt lat="45.90225" lon="4.75812">
        <ele>190</ele>
        <time>2017-08-23T09:39:12Z</time>
      </trkpt>
      <trkpt lat="45.90229" lon="4.75814">
        <ele>190</ele>
        <time>2017-08-23T09:39:13Z</time>
      </trkpt>
      <trkpt lat="45.90233" lon="4.75816">
        <ele>190</ele>
        <time>2017-08-23T09:39:14Z</time>
      </trkpt>
      <trkpt lat="45.90238" lon="4.75818">
        <ele>190</ele>
        <time>2017-08-23T09:39:15Z</time>
      </trkpt>
      <trkpt lat="45.90243" lon="4.75821">
        <ele>190</ele>
        <time>2017-08-23T09:39:16Z</time>
      </trkpt>
      <trkpt lat="45.90248" lon="4.75823">
        <ele>190</ele>
        <time>2017-08-23T09:39:17Z</time>
      </trkpt>
      <trkpt lat="45.90254" lon="4.75825">
        <ele>190</ele>
        <time>2017-08-23T09:39:18Z</time>
      </trkpt>
      <trkpt lat="45.90259" lon="4.75827">
        <ele>190</ele>
        <time>2017-08-23T09:39:19Z</time>
      </trkpt>
      <trkpt lat="45.90264" lon="4.75828">
        <ele>190</ele>
        <time>2017-08-23T09:39:20Z</time>
      </trkpt>
      <trkpt lat="45.90269" lon="4.75829">
        <ele>190</ele>
        <time>2017-08-23T09:39:21Z</time>
      </trkpt>
      <trkpt lat="45.90273" lon="4.75831">
        <ele>189</ele>
        <time>2017-08-23T09:39:22Z</time>
      </trkpt>
      <trkpt lat="45.90278" lon="4.75832">
        <ele>189</ele>
        <time>2017-08-23T09:39:23Z</time>
      </trkpt>
      <trkpt lat="45.90282" lon="4.75832">
        <ele>189</ele>
        <time>2017-08-23T09:39:24Z</time>
      </trkpt>
      <trkpt lat="45.90287" lon="4.75832">
        <ele>189</ele>
        <time>2017-08-23T09:39:25Z</time>
      </trkpt>
      <trkpt lat="45.90295" lon="4.75834">
        <ele>189</ele>
        <time>2017-08-23T09:39:27Z</time>
      </trkpt>
      <trkpt lat="45.90299" lon="4.75835">
        <ele>189</ele>
        <time>2017-08-23T09:39:28Z</time>
      </trkpt>
      <trkpt lat="45.90304" lon="4.75837">
        <ele>189</ele>
        <time>2017-08-23T09:39:29Z</time>
      </trkpt>
      <trkpt lat="45.90309" lon="4.7584">
        <ele>189</ele>
        <time>2017-08-23T09:39:30Z</time>
      </trkpt>
      <trkpt lat="45.90313" lon="4.75844">
        <ele>189</ele>
        <time>2017-08-23T09:39:31Z</time>
      </trkpt>
      <trkpt lat="45.90317" lon="4.7585">
        <ele>189</ele>
        <time>2017-08-23T09:39:32Z</time>
      </trkpt>
      <trkpt lat="45.9032" lon="4.75856">
        <ele>189</ele>
        <time>2017-08-23T09:39:33Z</time>
      </trkpt>
      <trkpt lat="45.90323" lon="4.75863">
        <ele>189</ele>
        <time>2017-08-23T09:39:34Z</time>
      </trkpt>
      <trkpt lat="45.90326" lon="4.75869">
        <ele>189</ele>
        <time>2017-08-23T09:39:35Z</time>
      </trkpt>
      <trkpt lat="45.90328" lon="4.75875">
        <ele>189</ele>
        <time>2017-08-23T09:39:36Z</time>
      </trkpt>
      <trkpt lat="45.90331" lon="4.75881">
        <ele>189</ele>
        <time>2017-08-23T09:39:37Z</time>
      </trkpt>
      <trkpt lat="45.90334" lon="4.75887">
        <ele>188</ele>
        <time>2017-08-23T09:39:38Z</time>
      </trkpt>
      <trkpt lat="45.90337" lon="4.75893">
        <ele>188</ele>
        <time>2017-08-23T09:39:39Z</time>
      </trkpt>
      <trkpt lat="45.90339" lon="4.759">
        <ele>188</ele>
        <time>2017-08-23T09:39:40Z</time>
      </trkpt>
      <trkpt lat="45.90342" lon="4.75906">
        <ele>188</ele>
        <time>2017-08-23T09:39:41Z</time>
      </trkpt>
      <trkpt lat="45.90345" lon="4.75911">
        <ele>188</ele>
        <time>2017-08-23T09:39:42Z</time>
      </trkpt>
      <trkpt lat="45.90349" lon="4.75923">
        <ele>188</ele>
        <time>2017-08-23T09:39:44Z</time>
      </trkpt>
      <trkpt lat="45.90352" lon="4.75928">
        <ele>187</ele>
        <time>2017-08-23T09:39:45Z</time>
      </trkpt>
      <trkpt lat="45.90355" lon="4.75933">
        <ele>187</ele>
        <time>2017-08-23T09:39:46Z</time>
      </trkpt>
      <trkpt lat="45.90359" lon="4.75939">
        <ele>187</ele>
        <time>2017-08-23T09:39:47Z</time>
      </trkpt>
      <trkpt lat="45.90363" lon="4.75944">
        <ele>187</ele>
        <time>2017-08-23T09:39:48Z</time>
      </trkpt>
      <trkpt lat="45.90369" lon="4.75947">
        <ele>187</ele>
        <time>2017-08-23T09:39:49Z</time>
      </trkpt>
      <trkpt lat="45.90375" lon="4.75947">
        <ele>187</ele>
        <time>2017-08-23T09:39:50Z</time>
      </trkpt>
      <trkpt lat="45.90381" lon="4.75947">
        <ele>187</ele>
        <time>2017-08-23T09:39:51Z</time>
      </trkpt>
      <trkpt lat="45.90387" lon="4.75946">
        <ele>187</ele>
        <time>2017-08-23T09:39:52Z</time>
      </trkpt>
      <trkpt lat="45.90393" lon="4.75945">
        <ele>187</ele>
        <time>2017-08-23T09:39:53Z</time>
      </trkpt>
      <trkpt lat="45.90398" lon="4.75944">
        <ele>187</ele>
        <time>2017-08-23T09:39:54Z</time>
      </trkpt>
      <trkpt lat="45.90403" lon="4.75943">
        <ele>187</ele>
        <time>2017-08-23T09:39:55Z</time>
      </trkpt>
      <trkpt lat="45.90409" lon="4.75942">
        <ele>187</ele>
        <time>2017-08-23T09:39:56Z</time>
      </trkpt>
      <trkpt lat="45.90414" lon="4.75941">
        <ele>187</ele>
        <time>2017-08-23T09:39:57Z</time>
      </trkpt>
      <trkpt lat="45.90419" lon="4.75941">
        <ele>187</ele>
        <time>2017-08-23T09:39:58Z</time>
      </trkpt>
      <trkpt lat="45.90424" lon="4.7594">
        <ele>187</ele>
        <time>2017-08-23T09:39:59Z</time>
      </trkpt>
      <trkpt lat="45.90429" lon="4.75939">
        <ele>187</ele>
        <time>2017-08-23T09:40:00Z</time>
      </trkpt>
      <trkpt lat="45.90433" lon="4.75937">
        <ele>187</ele>
        <time>2017-08-23T09:40:01Z</time>
      </trkpt>
      <trkpt lat="45.90438" lon="4.75936">
        <ele>187</ele>
        <time>2017-08-23T09:40:02Z</time>
      </trkpt>
      <trkpt lat="45.90443" lon="4.75935">
        <ele>187</ele>
        <time>2017-08-23T09:40:03Z</time>
      </trkpt>
      <trkpt lat="45.90448" lon="4.75935">
        <ele>187</ele>
        <time>2017-08-23T09:40:04Z</time>
      </trkpt>
      <trkpt lat="45.90454" lon="4.75933">
        <ele>187</ele>
        <time>2017-08-23T09:40:05Z</time>
      </trkpt>
      <trkpt lat="45.90459" lon="4.75932">
        <ele>187</ele>
        <time>2017-08-23T09:40:06Z</time>
      </trkpt>
      <trkpt lat="45.90465" lon="4.75931">
        <ele>187</ele>
        <time>2017-08-23T09:40:07Z</time>
      </trkpt>
      <trkpt lat="45.9047" lon="4.75931">
        <ele>187</ele>
        <time>2017-08-23T09:40:08Z</time>
      </trkpt>
      <trkpt lat="45.90475" lon="4.7593">
        <ele>187</ele>
        <time>2017-08-23T09:40:09Z</time>
      </trkpt>
      <trkpt lat="45.90481" lon="4.75929">
        <ele>187</ele>
        <time>2017-08-23T09:40:10Z</time>
      </trkpt>
      <trkpt lat="45.90485" lon="4.75927">
        <ele>187</ele>
        <time>2017-08-23T09:40:11Z</time>
      </trkpt>
      <trkpt lat="45.9049" lon="4.75926">
        <ele>187</ele>
        <time>2017-08-23T09:40:12Z</time>
      </trkpt>
      <trkpt lat="45.90495" lon="4.75925">
        <ele>187</ele>
        <time>2017-08-23T09:40:13Z</time>
      </trkpt>
      <trkpt lat="45.905" lon="4.75926">
        <ele>187</ele>
        <time>2017-08-23T09:40:14Z</time>
      </trkpt>
      <trkpt lat="45.90505" lon="4.75925">
        <ele>187</ele>
        <time>2017-08-23T09:40:15Z</time>
      </trkpt>
      <trkpt lat="45.90509" lon="4.75926">
        <ele>187</ele>
        <time>2017-08-23T09:40:16Z</time>
      </trkpt>
      <trkpt lat="45.90514" lon="4.75926">
        <ele>187</ele>
        <time>2017-08-23T09:40:17Z</time>
      </trkpt>
      <trkpt lat="45.90518" lon="4.75926">
        <ele>187</ele>
        <time>2017-08-23T09:40:18Z</time>
      </trkpt>
      <trkpt lat="45.90523" lon="4.75928">
        <ele>186</ele>
        <time>2017-08-23T09:40:19Z</time>
      </trkpt>
      <trkpt lat="45.90527" lon="4.75931">
        <ele>186</ele>
        <time>2017-08-23T09:40:20Z</time>
      </trkpt>
      <trkpt lat="45.90532" lon="4.75934">
        <ele>186</ele>
        <time>2017-08-23T09:40:21Z</time>
      </trkpt>
      <trkpt lat="45.90537" lon="4.75943">
        <ele>186</ele>
        <time>2017-08-23T09:40:23Z</time>
      </trkpt>
      <trkpt lat="45.90537" lon="4.75949">
        <ele>186</ele>
        <time>2017-08-23T09:40:24Z</time>
      </trkpt>
      <trkpt lat="45.90532" lon="4.75958">
        <ele>186</ele>
        <time>2017-08-23T09:40:26Z</time>
      </trkpt>
      <trkpt lat="45.90528" lon="4.75961">
        <ele>186</ele>
        <time>2017-08-23T09:40:27Z</time>
      </trkpt>
      <trkpt lat="45.90525" lon="4.75966">
        <ele>186</ele>
        <time>2017-08-23T09:40:28Z</time>
      </trkpt>
      <trkpt lat="45.90522" lon="4.75971">
        <ele>186</ele>
        <time>2017-08-23T09:40:29Z</time>
      </trkpt>
      <trkpt lat="45.90519" lon="4.75977">
        <ele>186</ele>
        <time>2017-08-23T09:40:30Z</time>
      </trkpt>
      <trkpt lat="45.90517" lon="4.75984">
        <ele>186</ele>
        <time>2017-08-23T09:40:31Z</time>
      </trkpt>
      <trkpt lat="45.90516" lon="4.75992">
        <ele>186</ele>
        <time>2017-08-23T09:40:32Z</time>
      </trkpt>
      <trkpt lat="45.90515" lon="4.76">
        <ele>186</ele>
        <time>2017-08-23T09:40:33Z</time>
      </trkpt>
      <trkpt lat="45.90513" lon="4.76007">
        <ele>186</ele>
        <time>2017-08-23T09:40:34Z</time>
      </trkpt>
      <trkpt lat="45.90512" lon="4.76014">
        <ele>186</ele>
        <time>2017-08-23T09:40:35Z</time>
      </trkpt>
      <trkpt lat="45.90511" lon="4.76021">
        <ele>186</ele>
        <time>2017-08-23T09:40:36Z</time>
      </trkpt>
      <trkpt lat="45.90509" lon="4.76028">
        <ele>185</ele>
        <time>2017-08-23T09:40:37Z</time>
      </trkpt>
      <trkpt lat="45.90508" lon="4.76034">
        <ele>185</ele>
        <time>2017-08-23T09:40:38Z</time>
      </trkpt>
      <trkpt lat="45.90506" lon="4.7604">
        <ele>185</ele>
        <time>2017-08-23T09:40:39Z</time>
      </trkpt>
      <trkpt lat="45.90503" lon="4.76052">
        <ele>185</ele>
        <time>2017-08-23T09:40:41Z</time>
      </trkpt>
      <trkpt lat="45.905" lon="4.76057">
        <ele>185</ele>
        <time>2017-08-23T09:40:42Z</time>
      </trkpt>
      <trkpt lat="45.90497" lon="4.76063">
        <ele>185</ele>
        <time>2017-08-23T09:40:43Z</time>
      </trkpt>
      <trkpt lat="45.90494" lon="4.76069">
        <ele>185</ele>
        <time>2017-08-23T09:40:44Z</time>
      </trkpt>
      <trkpt lat="45.90491" lon="4.76075">
        <ele>185</ele>
        <time>2017-08-23T09:40:45Z</time>
      </trkpt>
      <trkpt lat="45.90487" lon="4.76082">
        <ele>185</ele>
        <time>2017-08-23T09:40:46Z</time>
      </trkpt>
      <trkpt lat="45.90483" lon="4.76088">
        <ele>185</ele>
        <time>2017-08-23T09:40:47Z</time>
      </trkpt>
      <trkpt lat="45.9048" lon="4.76094">
        <ele>185</ele>
        <time>2017-08-23T09:40:48Z</time>
      </trkpt>
      <trkpt lat="45.90477" lon="4.761">
        <ele>185</ele>
        <time>2017-08-23T09:40:49Z</time>
      </trkpt>
      <trkpt lat="45.90474" lon="4.76106">
        <ele>185</ele>
        <time>2017-08-23T09:40:50Z</time>
      </trkpt>
      <trkpt lat="45.90471" lon="4.76111">
        <ele>185</ele>
        <time>2017-08-23T09:40:51Z</time>
      </trkpt>
      <trkpt lat="45.90468" lon="4.76116">
        <ele>185</ele>
        <time>2017-08-23T09:40:52Z</time>
      </trkpt>
      <trkpt lat="45.90463" lon="4.76125">
        <ele>185</ele>
        <time>2017-08-23T09:40:54Z</time>
      </trkpt>
      <trkpt lat="45.90459" lon="4.7613">
        <ele>185</ele>
        <time>2017-08-23T09:40:55Z</time>
      </trkpt>
      <trkpt lat="45.90456" lon="4.76134">
        <ele>186</ele>
        <time>2017-08-23T09:40:56Z</time>
      </trkpt>
      <trkpt lat="45.90452" lon="4.76139">
        <ele>186</ele>
        <time>2017-08-23T09:40:57Z</time>
      </trkpt>
      <trkpt lat="45.90448" lon="4.76143">
        <ele>186</ele>
        <time>2017-08-23T09:40:58Z</time>
      </trkpt>
      <trkpt lat="45.90445" lon="4.76148">
        <ele>186</ele>
        <time>2017-08-23T09:40:59Z</time>
      </trkpt>
      <trkpt lat="45.90438" lon="4.76155">
        <ele>186</ele>
        <time>2017-08-23T09:41:01Z</time>
      </trkpt>
      <trkpt lat="45.90435" lon="4.76159">
        <ele>186</ele>
        <time>2017-08-23T09:41:02Z</time>
      </trkpt>
      <trkpt lat="45.90429" lon="4.76166">
        <ele>186</ele>
        <time>2017-08-23T09:41:04Z</time>
      </trkpt>
      <trkpt lat="45.90425" lon="4.7617">
        <ele>186</ele>
        <time>2017-08-23T09:41:05Z</time>
      </trkpt>
      <trkpt lat="45.90419" lon="4.76178">
        <ele>186</ele>
        <time>2017-08-23T09:41:07Z</time>
      </trkpt>
      <trkpt lat="45.90417" lon="4.76184">
        <ele>186</ele>
        <time>2017-08-23T09:41:08Z</time>
      </trkpt>
      <trkpt lat="45.90417" lon="4.76194">
        <ele>186</ele>
        <time>2017-08-23T09:41:10Z</time>
      </trkpt>
      <trkpt lat="45.90421" lon="4.76196">
        <ele>186</ele>
        <time>2017-08-23T09:41:11Z</time>
      </trkpt>
      <trkpt lat="45.90429" lon="4.762">
        <ele>186</ele>
        <time>2017-08-23T09:41:13Z</time>
      </trkpt>
      <trkpt lat="45.90433" lon="4.76203">
        <ele>186</ele>
        <time>2017-08-23T09:41:14Z</time>
      </trkpt>
      <trkpt lat="45.90437" lon="4.76206">
        <ele>186</ele>
        <time>2017-08-23T09:41:15Z</time>
      </trkpt>
      <trkpt lat="45.90441" lon="4.76208">
        <ele>186</ele>
        <time>2017-08-23T09:41:16Z</time>
      </trkpt>
      <trkpt lat="45.90448" lon="4.76213">
        <ele>186</ele>
        <time>2017-08-23T09:41:18Z</time>
      </trkpt>
      <trkpt lat="45.90451" lon="4.76215">
        <ele>186</ele>
        <time>2017-08-23T09:41:19Z</time>
      </trkpt>
      <trkpt lat="45.90458" lon="4.7622">
        <ele>186</ele>
        <time>2017-08-23T09:41:21Z</time>
      </trkpt>
      <trkpt lat="45.90462" lon="4.76223">
        <ele>185</ele>
        <time>2017-08-23T09:41:22Z</time>
      </trkpt>
      <trkpt lat="45.9047" lon="4.76228">
        <ele>185</ele>
        <time>2017-08-23T09:41:24Z</time>
      </trkpt>
      <trkpt lat="45.90473" lon="4.7623">
        <ele>185</ele>
        <time>2017-08-23T09:41:25Z</time>
      </trkpt>
      <trkpt lat="45.9048" lon="4.76233">
        <ele>185</ele>
        <time>2017-08-23T09:41:27Z</time>
      </trkpt>
      <trkpt lat="45.90483" lon="4.76236">
        <ele>185</ele>
        <time>2017-08-23T09:41:28Z</time>
      </trkpt>
      <trkpt lat="45.90488" lon="4.76243">
        <ele>185</ele>
        <time>2017-08-23T09:41:30Z</time>
      </trkpt>
      <trkpt lat="45.90489" lon="4.76248">
        <ele>185</ele>
        <time>2017-08-23T09:41:31Z</time>
      </trkpt>
      <trkpt lat="45.90488" lon="4.76259">
        <ele>185</ele>
        <time>2017-08-23T09:41:33Z</time>
      </trkpt>
      <trkpt lat="45.90486" lon="4.76265">
        <ele>186</ele>
        <time>2017-08-23T09:41:34Z</time>
      </trkpt>
      <trkpt lat="45.90483" lon="4.76276">
        <ele>186</ele>
        <time>2017-08-23T09:41:36Z</time>
      </trkpt>
      <trkpt lat="45.9048" lon="4.76282">
        <ele>186</ele>
        <time>2017-08-23T09:41:37Z</time>
      </trkpt>
      <trkpt lat="45.90477" lon="4.76292">
        <ele>186</ele>
        <time>2017-08-23T09:41:39Z</time>
      </trkpt>
      <trkpt lat="45.90475" lon="4.76298">
        <ele>186</ele>
        <time>2017-08-23T09:41:40Z</time>
      </trkpt>
      <trkpt lat="45.90473" lon="4.76304">
        <ele>186</ele>
        <time>2017-08-23T09:41:41Z</time>
      </trkpt>
      <trkpt lat="45.90471" lon="4.7631">
        <ele>186</ele>
        <time>2017-08-23T09:41:42Z</time>
      </trkpt>
      <trkpt lat="45.90469" lon="4.76317">
        <ele>186</ele>
        <time>2017-08-23T09:41:43Z</time>
      </trkpt>
      <trkpt lat="45.90467" lon="4.76323">
        <ele>186</ele>
        <time>2017-08-23T09:41:44Z</time>
      </trkpt>
      <trkpt lat="45.90464" lon="4.76334">
        <ele>186</ele>
        <time>2017-08-23T09:41:46Z</time>
      </trkpt>
      <trkpt lat="45.90463" lon="4.76339">
        <ele>186</ele>
        <time>2017-08-23T09:41:47Z</time>
      </trkpt>
      <trkpt lat="45.9046" lon="4.76349">
        <ele>186</ele>
        <time>2017-08-23T09:41:49Z</time>
      </trkpt>
      <trkpt lat="45.90458" lon="4.76354">
        <ele>186</ele>
        <time>2017-08-23T09:41:50Z</time>
      </trkpt>
      <trkpt lat="45.90455" lon="4.76362">
        <ele>186</ele>
        <time>2017-08-23T09:41:52Z</time>
      </trkpt>
      <trkpt lat="45.90454" lon="4.76367">
        <ele>186</ele>
        <time>2017-08-23T09:41:53Z</time>
      </trkpt>
      <trkpt lat="45.90451" lon="4.76378">
        <ele>186</ele>
        <time>2017-08-23T09:41:55Z</time>
      </trkpt>
      <trkpt lat="45.90449" lon="4.76384">
        <ele>187</ele>
        <time>2017-08-23T09:41:56Z</time>
      </trkpt>
      <trkpt lat="45.90447" lon="4.7639">
        <ele>187</ele>
        <time>2017-08-23T09:41:57Z</time>
      </trkpt>
      <trkpt lat="45.90445" lon="4.76395">
        <ele>187</ele>
        <time>2017-08-23T09:41:58Z</time>
      </trkpt>
      <trkpt lat="45.9044" lon="4.76405">
        <ele>187</ele>
        <time>2017-08-23T09:42:00Z</time>
      </trkpt>
      <trkpt lat="45.90439" lon="4.7641">
        <ele>187</ele>
        <time>2017-08-23T09:42:01Z</time>
      </trkpt>
      <trkpt lat="45.90436" lon="4.76418">
        <ele>187</ele>
        <time>2017-08-23T09:42:03Z</time>
      </trkpt>
      <trkpt lat="45.90434" lon="4.76422">
        <ele>187</ele>
        <time>2017-08-23T09:42:04Z</time>
      </trkpt>
      <trkpt lat="45.90431" lon="4.7643">
        <ele>187</ele>
        <time>2017-08-23T09:42:06Z</time>
      </trkpt>
      <trkpt lat="45.90429" lon="4.76435">
        <ele>187</ele>
        <time>2017-08-23T09:42:07Z</time>
      </trkpt>
      <trkpt lat="45.90427" lon="4.76441">
        <ele>187</ele>
        <time>2017-08-23T09:42:08Z</time>
      </trkpt>
      <trkpt lat="45.90424" lon="4.76446">
        <ele>186</ele>
        <time>2017-08-23T09:42:09Z</time>
      </trkpt>
      <trkpt lat="45.90422" lon="4.76452">
        <ele>186</ele>
        <time>2017-08-23T09:42:10Z</time>
      </trkpt>
      <trkpt lat="45.90419" lon="4.76458">
        <ele>186</ele>
        <time>2017-08-23T09:42:11Z</time>
      </trkpt>
      <trkpt lat="45.90417" lon="4.76464">
        <ele>186</ele>
        <time>2017-08-23T09:42:12Z</time>
      </trkpt>
      <trkpt lat="45.90414" lon="4.7647">
        <ele>188</ele>
        <time>2017-08-23T09:42:13Z</time>
      </trkpt>
      <trkpt lat="45.90408" lon="4.76477">
        <ele>187</ele>
        <time>2017-08-23T09:42:15Z</time>
      </trkpt>
      <trkpt lat="45.90404" lon="4.76479">
        <ele>187</ele>
        <time>2017-08-23T09:42:16Z</time>
      </trkpt>
      <trkpt lat="45.90395" lon="4.76478">
        <ele>188</ele>
        <time>2017-08-23T09:42:19Z</time>
      </trkpt>
      <trkpt lat="45.90392" lon="4.76478">
        <ele>188</ele>
        <time>2017-08-23T09:42:20Z</time>
      </trkpt>
      <trkpt lat="45.90385" lon="4.76477">
        <ele>188</ele>
        <time>2017-08-23T09:42:22Z</time>
      </trkpt>
      <trkpt lat="45.90382" lon="4.76478">
        <ele>188</ele>
        <time>2017-08-23T09:42:23Z</time>
      </trkpt>
      <trkpt lat="45.90373" lon="4.7648">
        <ele>188</ele>
        <time>2017-08-23T09:42:25Z</time>
      </trkpt>
      <trkpt lat="45.90369" lon="4.76483">
        <ele>188</ele>
        <time>2017-08-23T09:42:26Z</time>
      </trkpt>
      <trkpt lat="45.90364" lon="4.76486">
        <ele>188</ele>
        <time>2017-08-23T09:42:27Z</time>
      </trkpt>
      <trkpt lat="45.90361" lon="4.7649">
        <ele>188</ele>
        <time>2017-08-23T09:42:28Z</time>
      </trkpt>
      <trkpt lat="45.90355" lon="4.76498">
        <ele>188</ele>
        <time>2017-08-23T09:42:30Z</time>
      </trkpt>
      <trkpt lat="45.90352" lon="4.76502">
        <ele>187</ele>
        <time>2017-08-23T09:42:31Z</time>
      </trkpt>
      <trkpt lat="45.90346" lon="4.7651">
        <ele>187</ele>
        <time>2017-08-23T09:42:33Z</time>
      </trkpt>
      <trkpt lat="45.90344" lon="4.76515">
        <ele>187</ele>
        <time>2017-08-23T09:42:34Z</time>
      </trkpt>
      <trkpt lat="45.9034" lon="4.76527">
        <ele>186</ele>
        <time>2017-08-23T09:42:36Z</time>
      </trkpt>
      <trkpt lat="45.90339" lon="4.76532">
        <ele>186</ele>
        <time>2017-08-23T09:42:37Z</time>
      </trkpt>
      <trkpt lat="45.90339" lon="4.76544">
        <ele>186</ele>
        <time>2017-08-23T09:42:39Z</time>
      </trkpt>
      <trkpt lat="45.90339" lon="4.76551">
        <ele>185</ele>
        <time>2017-08-23T09:42:40Z</time>
      </trkpt>
      <trkpt lat="45.90339" lon="4.76558">
        <ele>185</ele>
        <time>2017-08-23T09:42:41Z</time>
      </trkpt>
      <trkpt lat="45.90339" lon="4.76565">
        <ele>185</ele>
        <time>2017-08-23T09:42:42Z</time>
      </trkpt>
      <trkpt lat="45.90339" lon="4.76572">
        <ele>185</ele>
        <time>2017-08-23T09:42:43Z</time>
      </trkpt>
      <trkpt lat="45.90339" lon="4.7658">
        <ele>185</ele>
        <time>2017-08-23T09:42:44Z</time>
      </trkpt>
      <trkpt lat="45.90338" lon="4.76588">
        <ele>185</ele>
        <time>2017-08-23T09:42:45Z</time>
      </trkpt>
      <trkpt lat="45.90338" lon="4.76596">
        <ele>184</ele>
        <time>2017-08-23T09:42:46Z</time>
      </trkpt>
      <trkpt lat="45.90338" lon="4.76604">
        <ele>184</ele>
        <time>2017-08-23T09:42:47Z</time>
      </trkpt>
      <trkpt lat="45.90338" lon="4.76613">
        <ele>184</ele>
        <time>2017-08-23T09:42:48Z</time>
      </trkpt>
      <trkpt lat="45.90338" lon="4.76622">
        <ele>184</ele>
        <time>2017-08-23T09:42:49Z</time>
      </trkpt>
      <trkpt lat="45.90337" lon="4.76631">
        <ele>184</ele>
        <time>2017-08-23T09:42:50Z</time>
      </trkpt>
      <trkpt lat="45.90337" lon="4.7664">
        <ele>184</ele>
        <time>2017-08-23T09:42:51Z</time>
      </trkpt>
      <trkpt lat="45.90337" lon="4.76649">
        <ele>184</ele>
        <time>2017-08-23T09:42:52Z</time>
      </trkpt>
      <trkpt lat="45.90337" lon="4.76657">
        <ele>184</ele>
        <time>2017-08-23T09:42:53Z</time>
      </trkpt>
      <trkpt lat="45.90337" lon="4.76666">
        <ele>184</ele>
        <time>2017-08-23T09:42:54Z</time>
      </trkpt>
      <trkpt lat="45.90337" lon="4.76675">
        <ele>184</ele>
        <time>2017-08-23T09:42:55Z</time>
      </trkpt>
      <trkpt lat="45.90337" lon="4.76684">
        <ele>183</ele>
        <time>2017-08-23T09:42:56Z</time>
      </trkpt>
      <trkpt lat="45.90337" lon="4.76693">
        <ele>183</ele>
        <time>2017-08-23T09:42:57Z</time>
      </trkpt>
      <trkpt lat="45.90337" lon="4.76701">
        <ele>183</ele>
        <time>2017-08-23T09:42:58Z</time>
      </trkpt>
      <trkpt lat="45.90337" lon="4.7671">
        <ele>183</ele>
        <time>2017-08-23T09:42:59Z</time>
      </trkpt>
      <trkpt lat="45.90337" lon="4.76719">
        <ele>183</ele>
        <time>2017-08-23T09:43:00Z</time>
      </trkpt>
      <trkpt lat="45.90337" lon="4.76727">
        <ele>183</ele>
        <time>2017-08-23T09:43:01Z</time>
      </trkpt>
      <trkpt lat="45.90338" lon="4.76734">
        <ele>183</ele>
        <time>2017-08-23T09:43:02Z</time>
      </trkpt>
      <trkpt lat="45.90338" lon="4.76742">
        <ele>183</ele>
        <time>2017-08-23T09:43:03Z</time>
      </trkpt>
      <trkpt lat="45.90338" lon="4.76749">
        <ele>183</ele>
        <time>2017-08-23T09:43:04Z</time>
      </trkpt>
      <trkpt lat="45.90337" lon="4.76755">
        <ele>183</ele>
        <time>2017-08-23T09:43:05Z</time>
      </trkpt>
      <trkpt lat="45.90337" lon="4.76762">
        <ele>183</ele>
        <time>2017-08-23T09:43:06Z</time>
      </trkpt>
      <trkpt lat="45.90337" lon="4.76775">
        <ele>182</ele>
        <time>2017-08-23T09:43:08Z</time>
      </trkpt>
      <trkpt lat="45.90336" lon="4.7678">
        <ele>182</ele>
        <time>2017-08-23T09:43:09Z</time>
      </trkpt>
      <trkpt lat="45.90336" lon="4.76791">
        <ele>182</ele>
        <time>2017-08-23T09:43:11Z</time>
      </trkpt>
      <trkpt lat="45.90336" lon="4.76796">
        <ele>182</ele>
        <time>2017-08-23T09:43:12Z</time>
      </trkpt>
      <trkpt lat="45.90335" lon="4.76809">
        <ele>182</ele>
        <time>2017-08-23T09:43:14Z</time>
      </trkpt>
      <trkpt lat="45.90335" lon="4.76816">
        <ele>182</ele>
        <time>2017-08-23T09:43:15Z</time>
      </trkpt>
      <trkpt lat="45.90334" lon="4.76823">
        <ele>182</ele>
        <time>2017-08-23T09:43:16Z</time>
      </trkpt>
      <trkpt lat="45.90334" lon="4.7683">
        <ele>182</ele>
        <time>2017-08-23T09:43:17Z</time>
      </trkpt>
      <trkpt lat="45.90334" lon="4.76837">
        <ele>182</ele>
        <time>2017-08-23T09:43:18Z</time>
      </trkpt>
      <trkpt lat="45.90334" lon="4.76844">
        <ele>182</ele>
        <time>2017-08-23T09:43:19Z</time>
      </trkpt>
      <trkpt lat="45.90335" lon="4.76851">
        <ele>182</ele>
        <time>2017-08-23T09:43:20Z</time>
      </trkpt>
      <trkpt lat="45.90338" lon="4.76857">
        <ele>182</ele>
        <time>2017-08-23T09:43:21Z</time>
      </trkpt>
      <trkpt lat="45.90342" lon="4.7686">
        <ele>182</ele>
        <time>2017-08-23T09:43:22Z</time>
      </trkpt>
      <trkpt lat="45.90346" lon="4.76861">
        <ele>182</ele>
        <time>2017-08-23T09:43:23Z</time>
      </trkpt>
      <trkpt lat="45.90355" lon="4.76861">
        <ele>182</ele>
        <time>2017-08-23T09:43:25Z</time>
      </trkpt>
      <trkpt lat="45.90359" lon="4.76861">
        <ele>182</ele>
        <time>2017-08-23T09:43:26Z</time>
      </trkpt>
      <trkpt lat="45.90367" lon="4.76861">
        <ele>182</ele>
        <time>2017-08-23T09:43:28Z</time>
      </trkpt>
      <trkpt lat="45.9037" lon="4.76862">
        <ele>182</ele>
        <time>2017-08-23T09:43:29Z</time>
      </trkpt>
      <trkpt lat="45.90377" lon="4.76862">
        <ele>182</ele>
        <time>2017-08-23T09:43:31Z</time>
      </trkpt>
      <trkpt lat="45.90382" lon="4.76862">
        <ele>182</ele>
        <time>2017-08-23T09:43:32Z</time>
      </trkpt>
      <trkpt lat="45.90386" lon="4.76862">
        <ele>182</ele>
        <time>2017-08-23T09:43:33Z</time>
      </trkpt>
      <trkpt lat="45.90391" lon="4.76863">
        <ele>182</ele>
        <time>2017-08-23T09:43:34Z</time>
      </trkpt>
      <trkpt lat="45.90396" lon="4.76863">
        <ele>182</ele>
        <time>2017-08-23T09:43:35Z</time>
      </trkpt>
      <trkpt lat="45.90402" lon="4.76863">
        <ele>182</ele>
        <time>2017-08-23T09:43:36Z</time>
      </trkpt>
      <trkpt lat="45.90407" lon="4.76863">
        <ele>182</ele>
        <time>2017-08-23T09:43:37Z</time>
      </trkpt>
      <trkpt lat="45.90412" lon="4.76864">
        <ele>182</ele>
        <time>2017-08-23T09:43:38Z</time>
      </trkpt>
      <trkpt lat="45.90416" lon="4.76864">
        <ele>182</ele>
        <time>2017-08-23T09:43:39Z</time>
      </trkpt>
      <trkpt lat="45.90421" lon="4.76865">
        <ele>181</ele>
        <time>2017-08-23T09:43:40Z</time>
      </trkpt>
      <trkpt lat="45.90429" lon="4.76865">
        <ele>181</ele>
        <time>2017-08-23T09:43:42Z</time>
      </trkpt>
      <trkpt lat="45.90433" lon="4.76866">
        <ele>181</ele>
        <time>2017-08-23T09:43:43Z</time>
      </trkpt>
      <trkpt lat="45.90441" lon="4.76867">
        <ele>181</ele>
        <time>2017-08-23T09:43:45Z</time>
      </trkpt>
      <trkpt lat="45.90445" lon="4.76868">
        <ele>181</ele>
        <time>2017-08-23T09:43:46Z</time>
      </trkpt>
      <trkpt lat="45.90454" lon="4.7687">
        <ele>181</ele>
        <time>2017-08-23T09:43:48Z</time>
      </trkpt>
      <trkpt lat="45.90459" lon="4.76872">
        <ele>181</ele>
        <time>2017-08-23T09:43:49Z</time>
      </trkpt>
      <trkpt lat="45.90464" lon="4.76873">
        <ele>181</ele>
        <time>2017-08-23T09:43:50Z</time>
      </trkpt>
      <trkpt lat="45.90469" lon="4.76874">
        <ele>181</ele>
        <time>2017-08-23T09:43:51Z</time>
      </trkpt>
      <trkpt lat="45.90474" lon="4.76875">
        <ele>181</ele>
        <time>2017-08-23T09:43:52Z</time>
      </trkpt>
      <trkpt lat="45.90478" lon="4.76876">
        <ele>181</ele>
        <time>2017-08-23T09:43:53Z</time>
      </trkpt>
      <trkpt lat="45.90487" lon="4.76879">
        <ele>181</ele>
        <time>2017-08-23T09:43:55Z</time>
      </trkpt>
      <trkpt lat="45.90491" lon="4.7688">
        <ele>181</ele>
        <time>2017-08-23T09:43:56Z</time>
      </trkpt>
      <trkpt lat="45.90499" lon="4.76882">
        <ele>181</ele>
        <time>2017-08-23T09:43:58Z</time>
      </trkpt>
      <trkpt lat="45.90503" lon="4.76883">
        <ele>180</ele>
        <time>2017-08-23T09:43:59Z</time>
      </trkpt>
      <trkpt lat="45.90508" lon="4.76884">
        <ele>180</ele>
        <time>2017-08-23T09:44:00Z</time>
      </trkpt>
      <trkpt lat="45.90513" lon="4.76885">
        <ele>180</ele>
        <time>2017-08-23T09:44:01Z</time>
      </trkpt>
      <trkpt lat="45.90519" lon="4.76887">
        <ele>180</ele>
        <time>2017-08-23T09:44:02Z</time>
      </trkpt>
      <trkpt lat="45.90524" lon="4.76888">
        <ele>180</ele>
        <time>2017-08-23T09:44:03Z</time>
      </trkpt>
      <trkpt lat="45.9053" lon="4.7689">
        <ele>180</ele>
        <time>2017-08-23T09:44:04Z</time>
      </trkpt>
      <trkpt lat="45.90535" lon="4.76892">
        <ele>180</ele>
        <time>2017-08-23T09:44:05Z</time>
      </trkpt>
      <trkpt lat="45.9054" lon="4.76893">
        <ele>180</ele>
        <time>2017-08-23T09:44:06Z</time>
      </trkpt>
      <trkpt lat="45.90544" lon="4.76895">
        <ele>180</ele>
        <time>2017-08-23T09:44:07Z</time>
      </trkpt>
      <trkpt lat="45.90549" lon="4.76896">
        <ele>180</ele>
        <time>2017-08-23T09:44:08Z</time>
      </trkpt>
      <trkpt lat="45.90554" lon="4.76897">
        <ele>180</ele>
        <time>2017-08-23T09:44:09Z</time>
      </trkpt>
      <trkpt lat="45.90562" lon="4.769">
        <ele>180</ele>
        <time>2017-08-23T09:44:11Z</time>
      </trkpt>
      <trkpt lat="45.90566" lon="4.76901">
        <ele>180</ele>
        <time>2017-08-23T09:44:12Z</time>
      </trkpt>
      <trkpt lat="45.90574" lon="4.76903">
        <ele>180</ele>
        <time>2017-08-23T09:44:14Z</time>
      </trkpt>
      <trkpt lat="45.90578" lon="4.76904">
        <ele>180</ele>
        <time>2017-08-23T09:44:15Z</time>
      </trkpt>
      <trkpt lat="45.90585" lon="4.76907">
        <ele>180</ele>
        <time>2017-08-23T09:44:17Z</time>
      </trkpt>
      <trkpt lat="45.9059" lon="4.76908">
        <ele>180</ele>
        <time>2017-08-23T09:44:18Z</time>
      </trkpt>
      <trkpt lat="45.90594" lon="4.76909">
        <ele>180</ele>
        <time>2017-08-23T09:44:19Z</time>
      </trkpt>
      <trkpt lat="45.90599" lon="4.7691">
        <ele>180</ele>
        <time>2017-08-23T09:44:20Z</time>
      </trkpt>
      <trkpt lat="45.90604" lon="4.76912">
        <ele>179</ele>
        <time>2017-08-23T09:44:21Z</time>
      </trkpt>
      <trkpt lat="45.90609" lon="4.76913">
        <ele>179</ele>
        <time>2017-08-23T09:44:22Z</time>
      </trkpt>
      <trkpt lat="45.90614" lon="4.76914">
        <ele>179</ele>
        <time>2017-08-23T09:44:23Z</time>
      </trkpt>
      <trkpt lat="45.90619" lon="4.76916">
        <ele>179</ele>
        <time>2017-08-23T09:44:24Z</time>
      </trkpt>
      <trkpt lat="45.90624" lon="4.76918">
        <ele>180</ele>
        <time>2017-08-23T09:44:25Z</time>
      </trkpt>
      <trkpt lat="45.90628" lon="4.76919">
        <ele>180</ele>
        <time>2017-08-23T09:44:26Z</time>
      </trkpt>
      <trkpt lat="45.90637" lon="4.76921">
        <ele>180</ele>
        <time>2017-08-23T09:44:28Z</time>
      </trkpt>
      <trkpt lat="45.90641" lon="4.76922">
        <ele>180</ele>
        <time>2017-08-23T09:44:29Z</time>
      </trkpt>
      <trkpt lat="45.90648" lon="4.76924">
        <ele>179</ele>
        <time>2017-08-23T09:44:31Z</time>
      </trkpt>
      <trkpt lat="45.90652" lon="4.76925">
        <ele>179</ele>
        <time>2017-08-23T09:44:32Z</time>
      </trkpt>
      <trkpt lat="45.9066" lon="4.76928">
        <ele>179</ele>
        <time>2017-08-23T09:44:34Z</time>
      </trkpt>
      <trkpt lat="45.90664" lon="4.7693">
        <ele>179</ele>
        <time>2017-08-23T09:44:35Z</time>
      </trkpt>
      <trkpt lat="45.90673" lon="4.76932">
        <ele>179</ele>
        <time>2017-08-23T09:44:37Z</time>
      </trkpt>
      <trkpt lat="45.90676" lon="4.76934">
        <ele>179</ele>
        <time>2017-08-23T09:44:38Z</time>
      </trkpt>
      <trkpt lat="45.90683" lon="4.76937">
        <ele>179</ele>
        <time>2017-08-23T09:44:40Z</time>
      </trkpt>
      <trkpt lat="45.90687" lon="4.76939">
        <ele>179</ele>
        <time>2017-08-23T09:44:41Z</time>
      </trkpt>
      <trkpt lat="45.90691" lon="4.76941">
        <ele>179</ele>
        <time>2017-08-23T09:44:42Z</time>
      </trkpt>
      <trkpt lat="45.90696" lon="4.76944">
        <ele>179</ele>
        <time>2017-08-23T09:44:43Z</time>
      </trkpt>
      <trkpt lat="45.907" lon="4.76946">
        <ele>179</ele>
        <time>2017-08-23T09:44:44Z</time>
      </trkpt>
      <trkpt lat="45.90704" lon="4.76949">
        <ele>179</ele>
        <time>2017-08-23T09:44:45Z</time>
      </trkpt>
      <trkpt lat="45.90712" lon="4.76953">
        <ele>179</ele>
        <time>2017-08-23T09:44:47Z</time>
      </trkpt>
      <trkpt lat="45.90717" lon="4.76955">
        <ele>179</ele>
        <time>2017-08-23T09:44:48Z</time>
      </trkpt>
      <trkpt lat="45.90724" lon="4.76958">
        <ele>179</ele>
        <time>2017-08-23T09:44:50Z</time>
      </trkpt>
      <trkpt lat="45.90728" lon="4.76961">
        <ele>179</ele>
        <time>2017-08-23T09:44:51Z</time>
      </trkpt>
      <trkpt lat="45.90735" lon="4.76965">
        <ele>179</ele>
        <time>2017-08-23T09:44:53Z</time>
      </trkpt>
      <trkpt lat="45.90738" lon="4.76967">
        <ele>179</ele>
        <time>2017-08-23T09:44:54Z</time>
      </trkpt>
      <trkpt lat="45.90744" lon="4.7697">
        <ele>179</ele>
        <time>2017-08-23T09:44:56Z</time>
      </trkpt>
      <trkpt lat="45.90747" lon="4.76972">
        <ele>179</ele>
        <time>2017-08-23T09:44:57Z</time>
      </trkpt>
      <trkpt lat="45.90753" lon="4.76976">
        <ele>178</ele>
        <time>2017-08-23T09:44:59Z</time>
      </trkpt>
      <trkpt lat="45.90756" lon="4.76977">
        <ele>178</ele>
        <time>2017-08-23T09:45:00Z</time>
      </trkpt>
      <trkpt lat="45.90764" lon="4.76982">
        <ele>178</ele>
        <time>2017-08-23T09:45:02Z</time>
      </trkpt>
      <trkpt lat="45.90769" lon="4.76986">
        <ele>178</ele>
        <time>2017-08-23T09:45:03Z</time>
      </trkpt>
      <trkpt lat="45.90773" lon="4.76991">
        <ele>178</ele>
        <time>2017-08-23T09:45:04Z</time>
      </trkpt>
      <trkpt lat="45.90777" lon="4.76996">
        <ele>178</ele>
        <time>2017-08-23T09:45:05Z</time>
      </trkpt>
      <trkpt lat="45.90782" lon="4.77">
        <ele>178</ele>
        <time>2017-08-23T09:45:06Z</time>
      </trkpt>
      <trkpt lat="45.90787" lon="4.77005">
        <ele>178</ele>
        <time>2017-08-23T09:45:07Z</time>
      </trkpt>
      <trkpt lat="45.90791" lon="4.77009">
        <ele>178</ele>
        <time>2017-08-23T09:45:08Z</time>
      </trkpt>
      <trkpt lat="45.90795" lon="4.77014">
        <ele>177</ele>
        <time>2017-08-23T09:45:09Z</time>
      </trkpt>
      <trkpt lat="45.908" lon="4.77018">
        <ele>177</ele>
        <time>2017-08-23T09:45:10Z</time>
      </trkpt>
      <trkpt lat="45.90804" lon="4.77023">
        <ele>177</ele>
        <time>2017-08-23T09:45:11Z</time>
      </trkpt>
      <trkpt lat="45.90808" lon="4.77027">
        <ele>177</ele>
        <time>2017-08-23T09:45:12Z</time>
      </trkpt>
      <trkpt lat="45.90812" lon="4.77031">
        <ele>177</ele>
        <time>2017-08-23T09:45:13Z</time>
      </trkpt>
      <trkpt lat="45.90816" lon="4.77034">
        <ele>177</ele>
        <time>2017-08-23T09:45:14Z</time>
      </trkpt>
      <trkpt lat="45.9082" lon="4.77037">
        <ele>177</ele>
        <time>2017-08-23T09:45:15Z</time>
      </trkpt>
      <trkpt lat="45.90827" lon="4.77045">
        <ele>177</ele>
        <time>2017-08-23T09:45:17Z</time>
      </trkpt>
      <trkpt lat="45.90831" lon="4.77049">
        <ele>177</ele>
        <time>2017-08-23T09:45:18Z</time>
      </trkpt>
      <trkpt lat="45.90838" lon="4.77055">
        <ele>177</ele>
        <time>2017-08-23T09:45:20Z</time>
      </trkpt>
      <trkpt lat="45.90842" lon="4.77059">
        <ele>177</ele>
        <time>2017-08-23T09:45:21Z</time>
      </trkpt>
      <trkpt lat="45.90846" lon="4.77063">
        <ele>177</ele>
        <time>2017-08-23T09:45:22Z</time>
      </trkpt>
      <trkpt lat="45.90851" lon="4.77068">
        <ele>177</ele>
        <time>2017-08-23T09:45:23Z</time>
      </trkpt>
      <trkpt lat="45.90855" lon="4.77073">
        <ele>177</ele>
        <time>2017-08-23T09:45:24Z</time>
      </trkpt>
      <trkpt lat="45.9086" lon="4.77077">
        <ele>177</ele>
        <time>2017-08-23T09:45:25Z</time>
      </trkpt>
      <trkpt lat="45.90864" lon="4.77082">
        <ele>177</ele>
        <time>2017-08-23T09:45:26Z</time>
      </trkpt>
      <trkpt lat="45.90868" lon="4.77086">
        <ele>176</ele>
        <time>2017-08-23T09:45:27Z</time>
      </trkpt>
      <trkpt lat="45.90873" lon="4.77089">
        <ele>176</ele>
        <time>2017-08-23T09:45:28Z</time>
      </trkpt>
      <trkpt lat="45.90877" lon="4.77093">
        <ele>176</ele>
        <time>2017-08-23T09:45:29Z</time>
      </trkpt>
      <trkpt lat="45.9088" lon="4.77097">
        <ele>176</ele>
        <time>2017-08-23T09:45:30Z</time>
      </trkpt>
      <trkpt lat="45.90883" lon="4.77102">
        <ele>176</ele>
        <time>2017-08-23T09:45:31Z</time>
      </trkpt>
      <trkpt lat="45.90889" lon="4.77111">
        <ele>176</ele>
        <time>2017-08-23T09:45:33Z</time>
      </trkpt>
      <trkpt lat="45.90892" lon="4.77114">
        <ele>176</ele>
        <time>2017-08-23T09:45:34Z</time>
      </trkpt>
      <trkpt lat="45.90896" lon="4.77118">
        <ele>176</ele>
        <time>2017-08-23T09:45:35Z</time>
      </trkpt>
      <trkpt lat="45.90899" lon="4.77123">
        <ele>176</ele>
        <time>2017-08-23T09:45:36Z</time>
      </trkpt>
      <trkpt lat="45.90903" lon="4.77128">
        <ele>176</ele>
        <time>2017-08-23T09:45:37Z</time>
      </trkpt>
      <trkpt lat="45.90907" lon="4.77133">
        <ele>176</ele>
        <time>2017-08-23T09:45:38Z</time>
      </trkpt>
      <trkpt lat="45.90911" lon="4.77139">
        <ele>176</ele>
        <time>2017-08-23T09:45:39Z</time>
      </trkpt>
      <trkpt lat="45.90916" lon="4.77145">
        <ele>176</ele>
        <time>2017-08-23T09:45:40Z</time>
      </trkpt>
      <trkpt lat="45.9092" lon="4.77151">
        <ele>176</ele>
        <time>2017-08-23T09:45:41Z</time>
      </trkpt>
      <trkpt lat="45.90925" lon="4.77157">
        <ele>176</ele>
        <time>2017-08-23T09:45:42Z</time>
      </trkpt>
      <trkpt lat="45.90929" lon="4.77163">
        <ele>176</ele>
        <time>2017-08-23T09:45:43Z</time>
      </trkpt>
      <trkpt lat="45.90933" lon="4.77167">
        <ele>176</ele>
        <time>2017-08-23T09:45:44Z</time>
      </trkpt>
      <trkpt lat="45.90937" lon="4.77172">
        <ele>176</ele>
        <time>2017-08-23T09:45:45Z</time>
      </trkpt>
      <trkpt lat="45.9094" lon="4.77177">
        <ele>176</ele>
        <time>2017-08-23T09:45:46Z</time>
      </trkpt>
      <trkpt lat="45.90944" lon="4.77181">
        <ele>176</ele>
        <time>2017-08-23T09:45:47Z</time>
      </trkpt>
      <trkpt lat="45.90947" lon="4.77186">
        <ele>176</ele>
        <time>2017-08-23T09:45:48Z</time>
      </trkpt>
      <trkpt lat="45.90953" lon="4.77195">
        <ele>177</ele>
        <time>2017-08-23T09:45:50Z</time>
      </trkpt>
      <trkpt lat="45.90955" lon="4.77201">
        <ele>177</ele>
        <time>2017-08-23T09:45:51Z</time>
      </trkpt>
      <trkpt lat="45.90958" lon="4.77207">
        <ele>177</ele>
        <time>2017-08-23T09:45:52Z</time>
      </trkpt>
      <trkpt lat="45.9096" lon="4.77212">
        <ele>177</ele>
        <time>2017-08-23T09:45:53Z</time>
      </trkpt>
      <trkpt lat="45.90963" lon="4.77218">
        <ele>177</ele>
        <time>2017-08-23T09:45:54Z</time>
      </trkpt>
      <trkpt lat="45.90967" lon="4.77224">
        <ele>177</ele>
        <time>2017-08-23T09:45:55Z</time>
      </trkpt>
      <trkpt lat="45.9097" lon="4.7723">
        <ele>177</ele>
        <time>2017-08-23T09:45:56Z</time>
      </trkpt>
      <trkpt lat="45.90973" lon="4.77237">
        <ele>177</ele>
        <time>2017-08-23T09:45:57Z</time>
      </trkpt>
      <trkpt lat="45.90975" lon="4.77244">
        <ele>178</ele>
        <time>2017-08-23T09:45:58Z</time>
      </trkpt>
      <trkpt lat="45.90977" lon="4.7725">
        <ele>178</ele>
        <time>2017-08-23T09:45:59Z</time>
      </trkpt>
      <trkpt lat="45.90977" lon="4.77257">
        <ele>178</ele>
        <time>2017-08-23T09:46:00Z</time>
      </trkpt>
      <trkpt lat="45.90976" lon="4.77264">
        <ele>178</ele>
        <time>2017-08-23T09:46:01Z</time>
      </trkpt>
      <trkpt lat="45.90974" lon="4.7727">
        <ele>178</ele>
        <time>2017-08-23T09:46:02Z</time>
      </trkpt>
      <trkpt lat="45.90972" lon="4.77277">
        <ele>178</ele>
        <time>2017-08-23T09:46:03Z</time>
      </trkpt>
      <trkpt lat="45.90969" lon="4.77283">
        <ele>178</ele>
        <time>2017-08-23T09:46:04Z</time>
      </trkpt>
      <trkpt lat="45.90966" lon="4.7729">
        <ele>178</ele>
        <time>2017-08-23T09:46:05Z</time>
      </trkpt>
      <trkpt lat="45.90963" lon="4.77296">
        <ele>178</ele>
        <time>2017-08-23T09:46:06Z</time>
      </trkpt>
      <trkpt lat="45.9096" lon="4.77303">
        <ele>178</ele>
        <time>2017-08-23T09:46:07Z</time>
      </trkpt>
      <trkpt lat="45.90956" lon="4.77309">
        <ele>178</ele>
        <time>2017-08-23T09:46:08Z</time>
      </trkpt>
      <trkpt lat="45.90953" lon="4.77314">
        <ele>178</ele>
        <time>2017-08-23T09:46:09Z</time>
      </trkpt>
      <trkpt lat="45.90949" lon="4.77319">
        <ele>178</ele>
        <time>2017-08-23T09:46:10Z</time>
      </trkpt>
      <trkpt lat="45.90946" lon="4.77324">
        <ele>178</ele>
        <time>2017-08-23T09:46:11Z</time>
      </trkpt>
      <trkpt lat="45.90943" lon="4.77329">
        <ele>177</ele>
        <time>2017-08-23T09:46:12Z</time>
      </trkpt>
      <trkpt lat="45.9094" lon="4.77334">
        <ele>177</ele>
        <time>2017-08-23T09:46:13Z</time>
      </trkpt>
      <trkpt lat="45.90934" lon="4.77343">
        <ele>177</ele>
        <time>2017-08-23T09:46:15Z</time>
      </trkpt>
      <trkpt lat="45.90932" lon="4.77348">
        <ele>177</ele>
        <time>2017-08-23T09:46:16Z</time>
      </trkpt>
      <trkpt lat="45.90928" lon="4.77354">
        <ele>177</ele>
        <time>2017-08-23T09:46:17Z</time>
      </trkpt>
      <trkpt lat="45.90925" lon="4.77359">
        <ele>177</ele>
        <time>2017-08-23T09:46:18Z</time>
      </trkpt>
      <trkpt lat="45.90922" lon="4.77364">
        <ele>177</ele>
        <time>2017-08-23T09:46:19Z</time>
      </trkpt>
      <trkpt lat="45.90919" lon="4.7737">
        <ele>177</ele>
        <time>2017-08-23T09:46:20Z</time>
      </trkpt>
      <trkpt lat="45.90915" lon="4.77375">
        <ele>177</ele>
        <time>2017-08-23T09:46:21Z</time>
      </trkpt>
      <trkpt lat="45.90912" lon="4.7738">
        <ele>177</ele>
        <time>2017-08-23T09:46:22Z</time>
      </trkpt>
      <trkpt lat="45.90909" lon="4.77386">
        <ele>177</ele>
        <time>2017-08-23T09:46:23Z</time>
      </trkpt>
      <trkpt lat="45.90906" lon="4.77391">
        <ele>177</ele>
        <time>2017-08-23T09:46:24Z</time>
      </trkpt>
      <trkpt lat="45.909" lon="4.77401">
        <ele>177</ele>
        <time>2017-08-23T09:46:26Z</time>
      </trkpt>
      <trkpt lat="45.90898" lon="4.77406">
        <ele>177</ele>
        <time>2017-08-23T09:46:27Z</time>
      </trkpt>
      <trkpt lat="45.90893" lon="4.77416">
        <ele>177</ele>
        <time>2017-08-23T09:46:29Z</time>
      </trkpt>
      <trkpt lat="45.9089" lon="4.77421">
        <ele>177</ele>
        <time>2017-08-23T09:46:30Z</time>
      </trkpt>
      <trkpt lat="45.90885" lon="4.7743">
        <ele>177</ele>
        <time>2017-08-23T09:46:32Z</time>
      </trkpt>
      <trkpt lat="45.90882" lon="4.77435">
        <ele>177</ele>
        <time>2017-08-23T09:46:33Z</time>
      </trkpt>
      <trkpt lat="45.90879" lon="4.77441">
        <ele>178</ele>
        <time>2017-08-23T09:46:34Z</time>
      </trkpt>
      <trkpt lat="45.90876" lon="4.77447">
        <ele>178</ele>
        <time>2017-08-23T09:46:35Z</time>
      </trkpt>
      <trkpt lat="45.90872" lon="4.77453">
        <ele>178</ele>
        <time>2017-08-23T09:46:36Z</time>
      </trkpt>
      <trkpt lat="45.90869" lon="4.77459">
        <ele>178</ele>
        <time>2017-08-23T09:46:37Z</time>
      </trkpt>
      <trkpt lat="45.90864" lon="4.77468">
        <ele>178</ele>
        <time>2017-08-23T09:46:39Z</time>
      </trkpt>
      <trkpt lat="45.90862" lon="4.77472">
        <ele>178</ele>
        <time>2017-08-23T09:46:40Z</time>
      </trkpt>
      <trkpt lat="45.90858" lon="4.77482">
        <ele>178</ele>
        <time>2017-08-23T09:46:42Z</time>
      </trkpt>
      <trkpt lat="45.90855" lon="4.77487">
        <ele>178</ele>
        <time>2017-08-23T09:46:43Z</time>
      </trkpt>
      <trkpt lat="45.9085" lon="4.77496">
        <ele>178</ele>
        <time>2017-08-23T09:46:45Z</time>
      </trkpt>
      <trkpt lat="45.90847" lon="4.77501">
        <ele>179</ele>
        <time>2017-08-23T09:46:46Z</time>
      </trkpt>
      <trkpt lat="45.90844" lon="4.77506">
        <ele>179</ele>
        <time>2017-08-23T09:46:47Z</time>
      </trkpt>
      <trkpt lat="45.90841" lon="4.77511">
        <ele>179</ele>
        <time>2017-08-23T09:46:48Z</time>
      </trkpt>
      <trkpt lat="45.90838" lon="4.77516">
        <ele>179</ele>
        <time>2017-08-23T09:46:49Z</time>
      </trkpt>
      <trkpt lat="45.90834" lon="4.77522">
        <ele>178</ele>
        <time>2017-08-23T09:46:50Z</time>
      </trkpt>
      <trkpt lat="45.9083" lon="4.77527">
        <ele>178</ele>
        <time>2017-08-23T09:46:51Z</time>
      </trkpt>
      <trkpt lat="45.90826" lon="4.77531">
        <ele>178</ele>
        <time>2017-08-23T09:46:52Z</time>
      </trkpt>
      <trkpt lat="45.90819" lon="4.77538">
        <ele>178</ele>
        <time>2017-08-23T09:46:54Z</time>
      </trkpt>
      <trkpt lat="45.90816" lon="4.7754">
        <ele>178</ele>
        <time>2017-08-23T09:46:55Z</time>
      </trkpt>
      <trkpt lat="45.90811" lon="4.77547">
        <ele>178</ele>
        <time>2017-08-23T09:46:57Z</time>
      </trkpt>
      <trkpt lat="45.90808" lon="4.77551">
        <ele>178</ele>
        <time>2017-08-23T09:46:58Z</time>
      </trkpt>
      <trkpt lat="45.90801" lon="4.77559">
        <ele>178</ele>
        <time>2017-08-23T09:47:00Z</time>
      </trkpt>
      <trkpt lat="45.90798" lon="4.77563">
        <ele>178</ele>
        <time>2017-08-23T09:47:01Z</time>
      </trkpt>
      <trkpt lat="45.90792" lon="4.77571">
        <ele>178</ele>
        <time>2017-08-23T09:47:03Z</time>
      </trkpt>
      <trkpt lat="45.90788" lon="4.77574">
        <ele>178</ele>
        <time>2017-08-23T09:47:04Z</time>
      </trkpt>
      <trkpt lat="45.90785" lon="4.77578">
        <ele>178</ele>
        <time>2017-08-23T09:47:05Z</time>
      </trkpt>
      <trkpt lat="45.90781" lon="4.77583">
        <ele>178</ele>
        <time>2017-08-23T09:47:06Z</time>
      </trkpt>
      <trkpt lat="45.90777" lon="4.77587">
        <ele>179</ele>
        <time>2017-08-23T09:47:07Z</time>
      </trkpt>
      <trkpt lat="45.90774" lon="4.77592">
        <ele>179</ele>
        <time>2017-08-23T09:47:08Z</time>
      </trkpt>
      <trkpt lat="45.9077" lon="4.77597">
        <ele>179</ele>
        <time>2017-08-23T09:47:09Z</time>
      </trkpt>
      <trkpt lat="45.90767" lon="4.77602">
        <ele>179</ele>
        <time>2017-08-23T09:47:10Z</time>
      </trkpt>
      <trkpt lat="45.90764" lon="4.77607">
        <ele>179</ele>
        <time>2017-08-23T09:47:11Z</time>
      </trkpt>
      <trkpt lat="45.90761" lon="4.77613">
        <ele>179</ele>
        <time>2017-08-23T09:47:12Z</time>
      </trkpt>
      <trkpt lat="45.90755" lon="4.77622">
        <ele>179</ele>
        <time>2017-08-23T09:47:14Z</time>
      </trkpt>
      <trkpt lat="45.90752" lon="4.77625">
        <ele>179</ele>
        <time>2017-08-23T09:47:15Z</time>
      </trkpt>
      <trkpt lat="45.90746" lon="4.77631">
        <ele>179</ele>
        <time>2017-08-23T09:47:17Z</time>
      </trkpt>
      <trkpt lat="45.90743" lon="4.77634">
        <ele>180</ele>
        <time>2017-08-23T09:47:18Z</time>
      </trkpt>
      <trkpt lat="45.90737" lon="4.77641">
        <ele>180</ele>
        <time>2017-08-23T09:47:20Z</time>
      </trkpt>
      <trkpt lat="45.90736" lon="4.77646">
        <ele>180</ele>
        <time>2017-08-23T09:47:21Z</time>
      </trkpt>
      <trkpt lat="45.90738" lon="4.77653">
        <ele>180</ele>
        <time>2017-08-23T09:47:22Z</time>
      </trkpt>
      <trkpt lat="45.9074" lon="4.77658">
        <ele>180</ele>
        <time>2017-08-23T09:47:23Z</time>
      </trkpt>
      <trkpt lat="45.90745" lon="4.7766">
        <ele>180</ele>
        <time>2017-08-23T09:47:24Z</time>
      </trkpt>
      <trkpt lat="45.9075" lon="4.77661">
        <ele>181</ele>
        <time>2017-08-23T09:47:25Z</time>
      </trkpt>
      <trkpt lat="45.90754" lon="4.7766">
        <ele>180</ele>
        <time>2017-08-23T09:47:26Z</time>
      </trkpt>
      <trkpt lat="45.90759" lon="4.77659">
        <ele>180</ele>
        <time>2017-08-23T09:47:27Z</time>
      </trkpt>
      <trkpt lat="45.90763" lon="4.7766">
        <ele>180</ele>
        <time>2017-08-23T09:47:28Z</time>
      </trkpt>
      <trkpt lat="45.90768" lon="4.77661">
        <ele>180</ele>
        <time>2017-08-23T09:47:29Z</time>
      </trkpt>
      <trkpt lat="45.90776" lon="4.77665">
        <ele>180</ele>
        <time>2017-08-23T09:47:31Z</time>
      </trkpt>
      <trkpt lat="45.9078" lon="4.77666">
        <ele>180</ele>
        <time>2017-08-23T09:47:32Z</time>
      </trkpt>
      <trkpt lat="45.90787" lon="4.77669">
        <ele>180</ele>
        <time>2017-08-23T09:47:34Z</time>
      </trkpt>
      <trkpt lat="45.90791" lon="4.7767">
        <ele>180</ele>
        <time>2017-08-23T09:47:35Z</time>
      </trkpt>
      <trkpt lat="45.90798" lon="4.77673">
        <ele>179</ele>
        <time>2017-08-23T09:47:37Z</time>
      </trkpt>
      <trkpt lat="45.90801" lon="4.77674">
        <ele>179</ele>
        <time>2017-08-23T09:47:38Z</time>
      </trkpt>
      <trkpt lat="45.90809" lon="4.77676">
        <ele>179</ele>
        <time>2017-08-23T09:47:40Z</time>
      </trkpt>
      <trkpt lat="45.90813" lon="4.77678">
        <ele>179</ele>
        <time>2017-08-23T09:47:41Z</time>
      </trkpt>
      <trkpt lat="45.90817" lon="4.77681">
        <ele>179</ele>
        <time>2017-08-23T09:47:42Z</time>
      </trkpt>
      <trkpt lat="45.90821" lon="4.77683">
        <ele>179</ele>
        <time>2017-08-23T09:47:43Z</time>
      </trkpt>
      <trkpt lat="45.90826" lon="4.77685">
        <ele>179</ele>
        <time>2017-08-23T09:47:44Z</time>
      </trkpt>
      <trkpt lat="45.9083" lon="4.77687">
        <ele>179</ele>
        <time>2017-08-23T09:47:45Z</time>
      </trkpt>
      <trkpt lat="45.90835" lon="4.77689">
        <ele>178</ele>
        <time>2017-08-23T09:47:46Z</time>
      </trkpt>
      <trkpt lat="45.90841" lon="4.77691">
        <ele>178</ele>
        <time>2017-08-23T09:47:47Z</time>
      </trkpt>
      <trkpt lat="45.90847" lon="4.77693">
        <ele>178</ele>
        <time>2017-08-23T09:47:48Z</time>
      </trkpt>
      <trkpt lat="45.90853" lon="4.77696">
        <ele>178</ele>
        <time>2017-08-23T09:47:49Z</time>
      </trkpt>
      <trkpt lat="45.90859" lon="4.77698">
        <ele>178</ele>
        <time>2017-08-23T09:47:50Z</time>
      </trkpt>
      <trkpt lat="45.90865" lon="4.77702">
        <ele>178</ele>
        <time>2017-08-23T09:47:51Z</time>
      </trkpt>
      <trkpt lat="45.9087" lon="4.77707">
        <ele>178</ele>
        <time>2017-08-23T09:47:52Z</time>
      </trkpt>
      <trkpt lat="45.90876" lon="4.77712">
        <ele>177</ele>
        <time>2017-08-23T09:47:53Z</time>
      </trkpt>
      <trkpt lat="45.90881" lon="4.77719">
        <ele>177</ele>
        <time>2017-08-23T09:47:54Z</time>
      </trkpt>
      <trkpt lat="45.90887" lon="4.77725">
        <ele>177</ele>
        <time>2017-08-23T09:47:55Z</time>
      </trkpt>
      <trkpt lat="45.90893" lon="4.77734">
        <ele>177</ele>
        <time>2017-08-23T09:47:56Z</time>
      </trkpt>
      <trkpt lat="45.90899" lon="4.77741">
        <ele>177</ele>
        <time>2017-08-23T09:47:57Z</time>
      </trkpt>
      <trkpt lat="45.90905" lon="4.77748">
        <ele>177</ele>
        <time>2017-08-23T09:47:58Z</time>
      </trkpt>
      <trkpt lat="45.90911" lon="4.77755">
        <ele>176</ele>
        <time>2017-08-23T09:47:59Z</time>
      </trkpt>
      <trkpt lat="45.90917" lon="4.77762">
        <ele>176</ele>
        <time>2017-08-23T09:48:00Z</time>
      </trkpt>
      <trkpt lat="45.90923" lon="4.77769">
        <ele>177</ele>
        <time>2017-08-23T09:48:01Z</time>
      </trkpt>
      <trkpt lat="45.90928" lon="4.77775">
        <ele>177</ele>
        <time>2017-08-23T09:48:02Z</time>
      </trkpt>
      <trkpt lat="45.90934" lon="4.77781">
        <ele>177</ele>
        <time>2017-08-23T09:48:03Z</time>
      </trkpt>
      <trkpt lat="45.9094" lon="4.77787">
        <ele>177</ele>
        <time>2017-08-23T09:48:04Z</time>
      </trkpt>
      <trkpt lat="45.90947" lon="4.77791">
        <ele>177</ele>
        <time>2017-08-23T09:48:05Z</time>
      </trkpt>
      <trkpt lat="45.90954" lon="4.77791">
        <ele>177</ele>
        <time>2017-08-23T09:48:06Z</time>
      </trkpt>
      <trkpt lat="45.9096" lon="4.7779">
        <ele>177</ele>
        <time>2017-08-23T09:48:07Z</time>
      </trkpt>
      <trkpt lat="45.90967" lon="4.7779">
        <ele>177</ele>
        <time>2017-08-23T09:48:08Z</time>
      </trkpt>
      <trkpt lat="45.90974" lon="4.77789">
        <ele>177</ele>
        <time>2017-08-23T09:48:09Z</time>
      </trkpt>
      <trkpt lat="45.9098" lon="4.77788">
        <ele>177</ele>
        <time>2017-08-23T09:48:10Z</time>
      </trkpt>
      <trkpt lat="45.90987" lon="4.77788">
        <ele>177</ele>
        <time>2017-08-23T09:48:11Z</time>
      </trkpt>
      <trkpt lat="45.90993" lon="4.77787">
        <ele>177</ele>
        <time>2017-08-23T09:48:12Z</time>
      </trkpt>
      <trkpt lat="45.90999" lon="4.77786">
        <ele>177</ele>
        <time>2017-08-23T09:48:13Z</time>
      </trkpt>
      <trkpt lat="45.91004" lon="4.77785">
        <ele>178</ele>
        <time>2017-08-23T09:48:14Z</time>
      </trkpt>
      <trkpt lat="45.91009" lon="4.77784">
        <ele>178</ele>
        <time>2017-08-23T09:48:15Z</time>
      </trkpt>
      <trkpt lat="45.91014" lon="4.77782">
        <ele>178</ele>
        <time>2017-08-23T09:48:16Z</time>
      </trkpt>
      <trkpt lat="45.91019" lon="4.77781">
        <ele>178</ele>
        <time>2017-08-23T09:48:17Z</time>
      </trkpt>
      <trkpt lat="45.91024" lon="4.77779">
        <ele>178</ele>
        <time>2017-08-23T09:48:18Z</time>
      </trkpt>
      <trkpt lat="45.91029" lon="4.77778">
        <ele>178</ele>
        <time>2017-08-23T09:48:19Z</time>
      </trkpt>
      <trkpt lat="45.91034" lon="4.77776">
        <ele>178</ele>
        <time>2017-08-23T09:48:20Z</time>
      </trkpt>
      <trkpt lat="45.91039" lon="4.77774">
        <ele>178</ele>
        <time>2017-08-23T09:48:21Z</time>
      </trkpt>
      <trkpt lat="45.91045" lon="4.77772">
        <ele>178</ele>
        <time>2017-08-23T09:48:22Z</time>
      </trkpt>
      <trkpt lat="45.9105" lon="4.77771">
        <ele>178</ele>
        <time>2017-08-23T09:48:23Z</time>
      </trkpt>
      <trkpt lat="45.91056" lon="4.77768">
        <ele>178</ele>
        <time>2017-08-23T09:48:24Z</time>
      </trkpt>
      <trkpt lat="45.91061" lon="4.77766">
        <ele>178</ele>
        <time>2017-08-23T09:48:25Z</time>
      </trkpt>
      <trkpt lat="45.91066" lon="4.77763">
        <ele>178</ele>
        <time>2017-08-23T09:48:26Z</time>
      </trkpt>
      <trkpt lat="45.91071" lon="4.77761">
        <ele>179</ele>
        <time>2017-08-23T09:48:27Z</time>
      </trkpt>
      <trkpt lat="45.91077" lon="4.77758">
        <ele>179</ele>
        <time>2017-08-23T09:48:28Z</time>
      </trkpt>
      <trkpt lat="45.91082" lon="4.77755">
        <ele>179</ele>
        <time>2017-08-23T09:48:29Z</time>
      </trkpt>
      <trkpt lat="45.91087" lon="4.77752">
        <ele>179</ele>
        <time>2017-08-23T09:48:30Z</time>
      </trkpt>
      <trkpt lat="45.91091" lon="4.77749">
        <ele>179</ele>
        <time>2017-08-23T09:48:31Z</time>
      </trkpt>
      <trkpt lat="45.91096" lon="4.77746">
        <ele>178</ele>
        <time>2017-08-23T09:48:32Z</time>
      </trkpt>
      <trkpt lat="45.911" lon="4.77744">
        <ele>178</ele>
        <time>2017-08-23T09:48:33Z</time>
      </trkpt>
      <trkpt lat="45.91104" lon="4.77742">
        <ele>178</ele>
        <time>2017-08-23T09:48:34Z</time>
      </trkpt>
      <trkpt lat="45.91108" lon="4.77739">
        <ele>178</ele>
        <time>2017-08-23T09:48:35Z</time>
      </trkpt>
      <trkpt lat="45.91112" lon="4.77737">
        <ele>178</ele>
        <time>2017-08-23T09:48:36Z</time>
      </trkpt>
      <trkpt lat="45.91117" lon="4.77734">
        <ele>178</ele>
        <time>2017-08-23T09:48:37Z</time>
      </trkpt>
      <trkpt lat="45.91121" lon="4.77731">
        <ele>178</ele>
        <time>2017-08-23T09:48:38Z</time>
      </trkpt>
      <trkpt lat="45.91126" lon="4.77729">
        <ele>178</ele>
        <time>2017-08-23T09:48:39Z</time>
      </trkpt>
      <trkpt lat="45.91131" lon="4.77726">
        <ele>177</ele>
        <time>2017-08-23T09:48:40Z</time>
      </trkpt>
      <trkpt lat="45.91136" lon="4.77724">
        <ele>177</ele>
        <time>2017-08-23T09:48:41Z</time>
      </trkpt>
      <trkpt lat="45.91141" lon="4.77722">
        <ele>177</ele>
        <time>2017-08-23T09:48:42Z</time>
      </trkpt>
      <trkpt lat="45.91145" lon="4.7772">
        <ele>177</ele>
        <time>2017-08-23T09:48:43Z</time>
      </trkpt>
      <trkpt lat="45.9115" lon="4.77719">
        <ele>177</ele>
        <time>2017-08-23T09:48:44Z</time>
      </trkpt>
      <trkpt lat="45.91155" lon="4.77717">
        <ele>177</ele>
        <time>2017-08-23T09:48:45Z</time>
      </trkpt>
      <trkpt lat="45.9116" lon="4.77715">
        <ele>177</ele>
        <time>2017-08-23T09:48:46Z</time>
      </trkpt>
      <trkpt lat="45.91166" lon="4.77712">
        <ele>177</ele>
        <time>2017-08-23T09:48:47Z</time>
      </trkpt>
      <trkpt lat="45.91172" lon="4.77711">
        <ele>177</ele>
        <time>2017-08-23T09:48:48Z</time>
      </trkpt>
      <trkpt lat="45.91177" lon="4.77709">
        <ele>177</ele>
        <time>2017-08-23T09:48:49Z</time>
      </trkpt>
      <trkpt lat="45.91183" lon="4.77707">
        <ele>176</ele>
        <time>2017-08-23T09:48:50Z</time>
      </trkpt>
      <trkpt lat="45.91188" lon="4.77705">
        <ele>176</ele>
        <time>2017-08-23T09:48:51Z</time>
      </trkpt>
      <trkpt lat="45.91193" lon="4.77704">
        <ele>176</ele>
        <time>2017-08-23T09:48:52Z</time>
      </trkpt>
      <trkpt lat="45.91199" lon="4.77702">
        <ele>176</ele>
        <time>2017-08-23T09:48:53Z</time>
      </trkpt>
      <trkpt lat="45.91204" lon="4.77701">
        <ele>176</ele>
        <time>2017-08-23T09:48:54Z</time>
      </trkpt>
      <trkpt lat="45.91208" lon="4.777">
        <ele>176</ele>
        <time>2017-08-23T09:48:55Z</time>
      </trkpt>
      <trkpt lat="45.91213" lon="4.77698">
        <ele>176</ele>
        <time>2017-08-23T09:48:56Z</time>
      </trkpt>
      <trkpt lat="45.91217" lon="4.77696">
        <ele>176</ele>
        <time>2017-08-23T09:48:57Z</time>
      </trkpt>
      <trkpt lat="45.91225" lon="4.77692">
        <ele>176</ele>
        <time>2017-08-23T09:48:59Z</time>
      </trkpt>
      <trkpt lat="45.9123" lon="4.77692">
        <ele>176</ele>
        <time>2017-08-23T09:49:00Z</time>
      </trkpt>
      <trkpt lat="45.91238" lon="4.77691">
        <ele>176</ele>
        <time>2017-08-23T09:49:02Z</time>
      </trkpt>
      <trkpt lat="45.91243" lon="4.7769">
        <ele>176</ele>
        <time>2017-08-23T09:49:03Z</time>
      </trkpt>
      <trkpt lat="45.91248" lon="4.77691">
        <ele>176</ele>
        <time>2017-08-23T09:49:05Z</time>
      </trkpt>
      <trkpt lat="45.91254" lon="4.77693">
        <ele>176</ele>
        <time>2017-08-23T09:49:06Z</time>
      </trkpt>
      <trkpt lat="45.91259" lon="4.77695">
        <ele>176</ele>
        <time>2017-08-23T09:49:07Z</time>
      </trkpt>
      <trkpt lat="45.91264" lon="4.77696">
        <ele>176</ele>
        <time>2017-08-23T09:49:08Z</time>
      </trkpt>
      <trkpt lat="45.91268" lon="4.77699">
        <ele>176</ele>
        <time>2017-08-23T09:49:09Z</time>
      </trkpt>
      <trkpt lat="45.91273" lon="4.77699">
        <ele>176</ele>
        <time>2017-08-23T09:49:10Z</time>
      </trkpt>
      <trkpt lat="45.91277" lon="4.77702">
        <ele>176</ele>
        <time>2017-08-23T09:49:11Z</time>
      </trkpt>
      <trkpt lat="45.91282" lon="4.77705">
        <ele>176</ele>
        <time>2017-08-23T09:49:12Z</time>
      </trkpt>
      <trkpt lat="45.91287" lon="4.77706">
        <ele>176</ele>
        <time>2017-08-23T09:49:13Z</time>
      </trkpt>
      <trkpt lat="45.91291" lon="4.77708">
        <ele>176</ele>
        <time>2017-08-23T09:49:14Z</time>
      </trkpt>
      <trkpt lat="45.91298" lon="4.77711">
        <ele>176</ele>
        <time>2017-08-23T09:49:16Z</time>
      </trkpt>
      <trkpt lat="45.91302" lon="4.77712">
        <ele>176</ele>
        <time>2017-08-23T09:49:17Z</time>
      </trkpt>
      <trkpt lat="45.9131" lon="4.77716">
        <ele>176</ele>
        <time>2017-08-23T09:49:19Z</time>
      </trkpt>
      <trkpt lat="45.91314" lon="4.77718">
        <ele>176</ele>
        <time>2017-08-23T09:49:20Z</time>
      </trkpt>
      <trkpt lat="45.91322" lon="4.7772">
        <ele>176</ele>
        <time>2017-08-23T09:49:22Z</time>
      </trkpt>
      <trkpt lat="45.91328" lon="4.77721">
        <ele>176</ele>
        <time>2017-08-23T09:49:23Z</time>
      </trkpt>
      <trkpt lat="45.91333" lon="4.77722">
        <ele>176</ele>
        <time>2017-08-23T09:49:24Z</time>
      </trkpt>
      <trkpt lat="45.91339" lon="4.77723">
        <ele>176</ele>
        <time>2017-08-23T09:49:25Z</time>
      </trkpt>
      <trkpt lat="45.91344" lon="4.77723">
        <ele>176</ele>
        <time>2017-08-23T09:49:26Z</time>
      </trkpt>
      <trkpt lat="45.91348" lon="4.77724">
        <ele>176</ele>
        <time>2017-08-23T09:49:27Z</time>
      </trkpt>
      <trkpt lat="45.91356" lon="4.77724">
        <ele>176</ele>
        <time>2017-08-23T09:49:29Z</time>
      </trkpt>
      <trkpt lat="45.91359" lon="4.77724">
        <ele>176</ele>
        <time>2017-08-23T09:49:30Z</time>
      </trkpt>
      <trkpt lat="45.91364" lon="4.77721">
        <ele>176</ele>
        <time>2017-08-23T09:49:32Z</time>
      </trkpt>
      <trkpt lat="45.91368" lon="4.7772">
        <ele>176</ele>
        <time>2017-08-23T09:49:33Z</time>
      </trkpt>
      <trkpt lat="45.91377" lon="4.77719">
        <ele>176</ele>
        <time>2017-08-23T09:49:35Z</time>
      </trkpt>
      <trkpt lat="45.9138" lon="4.77719">
        <ele>176</ele>
        <time>2017-08-23T09:49:36Z</time>
      </trkpt>
      <trkpt lat="45.91387" lon="4.77717">
        <ele>176</ele>
        <time>2017-08-23T09:49:38Z</time>
      </trkpt>
      <trkpt lat="45.9139" lon="4.77718">
        <ele>177</ele>
        <time>2017-08-23T09:49:39Z</time>
      </trkpt>
      <trkpt lat="45.91397" lon="4.77719">
        <ele>177</ele>
        <time>2017-08-23T09:49:45Z</time>
      </trkpt>
      <trkpt lat="45.91399" lon="4.77719">
        <ele>177</ele>
        <time>2017-08-23T09:49:46Z</time>
      </trkpt>
      <trkpt lat="45.91407" lon="4.77715">
        <ele>177</ele>
        <time>2017-08-23T09:49:49Z</time>
      </trkpt>
      <trkpt lat="45.9141" lon="4.77711">
        <ele>177</ele>
        <time>2017-08-23T09:49:50Z</time>
      </trkpt>
      <trkpt lat="45.91412" lon="4.77704">
        <ele>176</ele>
        <time>2017-08-23T09:49:51Z</time>
      </trkpt>
      <trkpt lat="45.91412" lon="4.77697">
        <ele>176</ele>
        <time>2017-08-23T09:49:52Z</time>
      </trkpt>
      <trkpt lat="45.91412" lon="4.77685">
        <ele>176</ele>
        <time>2017-08-23T09:49:54Z</time>
      </trkpt>
      <trkpt lat="45.9141" lon="4.77679">
        <ele>176</ele>
        <time>2017-08-23T09:49:55Z</time>
      </trkpt>
      <trkpt lat="45.91408" lon="4.77667">
        <ele>176</ele>
        <time>2017-08-23T09:49:57Z</time>
      </trkpt>
      <trkpt lat="45.91408" lon="4.77661">
        <ele>175</ele>
        <time>2017-08-23T09:49:58Z</time>
      </trkpt>
      <trkpt lat="45.91407" lon="4.77653">
        <ele>175</ele>
        <time>2017-08-23T09:49:59Z</time>
      </trkpt>
      <trkpt lat="45.91409" lon="4.77646">
        <ele>175</ele>
        <time>2017-08-23T09:50:00Z</time>
      </trkpt>
      <trkpt lat="45.91408" lon="4.77634">
        <ele>175</ele>
        <time>2017-08-23T09:50:02Z</time>
      </trkpt>
      <trkpt lat="45.91408" lon="4.77628">
        <ele>175</ele>
        <time>2017-08-23T09:50:03Z</time>
      </trkpt>
      <trkpt lat="45.91408" lon="4.77621">
        <ele>175</ele>
        <time>2017-08-23T09:50:04Z</time>
      </trkpt>
      <trkpt lat="45.91409" lon="4.77614">
        <ele>175</ele>
        <time>2017-08-23T09:50:05Z</time>
      </trkpt>
      <trkpt lat="45.91409" lon="4.77607">
        <ele>174</ele>
        <time>2017-08-23T09:50:06Z</time>
      </trkpt>
      <trkpt lat="45.91408" lon="4.776">
        <ele>174</ele>
        <time>2017-08-23T09:50:07Z</time>
      </trkpt>
      <trkpt lat="45.91407" lon="4.77593">
        <ele>174</ele>
        <time>2017-08-23T09:50:08Z</time>
      </trkpt>
      <trkpt lat="45.91407" lon="4.77585">
        <ele>174</ele>
        <time>2017-08-23T09:50:09Z</time>
      </trkpt>
      <trkpt lat="45.91407" lon="4.77577">
        <ele>174</ele>
        <time>2017-08-23T09:50:10Z</time>
      </trkpt>
      <trkpt lat="45.91406" lon="4.7757">
        <ele>174</ele>
        <time>2017-08-23T09:50:11Z</time>
      </trkpt>
      <trkpt lat="45.91405" lon="4.77562">
        <ele>174</ele>
        <time>2017-08-23T09:50:12Z</time>
      </trkpt>
      <trkpt lat="45.91403" lon="4.77555">
        <ele>174</ele>
        <time>2017-08-23T09:50:13Z</time>
      </trkpt>
      <trkpt lat="45.91404" lon="4.77548">
        <ele>174</ele>
        <time>2017-08-23T09:50:14Z</time>
      </trkpt>
      <trkpt lat="45.91404" lon="4.7754">
        <ele>174</ele>
        <time>2017-08-23T09:50:15Z</time>
      </trkpt>
      <trkpt lat="45.91403" lon="4.77532">
        <ele>174</ele>
        <time>2017-08-23T09:50:16Z</time>
      </trkpt>
      <trkpt lat="45.91402" lon="4.77524">
        <ele>174</ele>
        <time>2017-08-23T09:50:17Z</time>
      </trkpt>
      <trkpt lat="45.91402" lon="4.77516">
        <ele>174</ele>
        <time>2017-08-23T09:50:18Z</time>
      </trkpt>
      <trkpt lat="45.914" lon="4.77508">
        <ele>174</ele>
        <time>2017-08-23T09:50:19Z</time>
      </trkpt>
      <trkpt lat="45.914" lon="4.77501">
        <ele>174</ele>
        <time>2017-08-23T09:50:20Z</time>
      </trkpt>
      <trkpt lat="45.914" lon="4.77493">
        <ele>174</ele>
        <time>2017-08-23T09:50:21Z</time>
      </trkpt>
      <trkpt lat="45.91399" lon="4.77485">
        <ele>174</ele>
        <time>2017-08-23T09:50:22Z</time>
      </trkpt>
      <trkpt lat="45.91399" lon="4.77478">
        <ele>174</ele>
        <time>2017-08-23T09:50:23Z</time>
      </trkpt>
      <trkpt lat="45.91399" lon="4.77471">
        <ele>174</ele>
        <time>2017-08-23T09:50:24Z</time>
      </trkpt>
      <trkpt lat="45.91398" lon="4.77464">
        <ele>174</ele>
        <time>2017-08-23T09:50:25Z</time>
      </trkpt>
      <trkpt lat="45.91397" lon="4.77458">
        <ele>174</ele>
        <time>2017-08-23T09:50:26Z</time>
      </trkpt>
      <trkpt lat="45.91395" lon="4.77451">
        <ele>174</ele>
        <time>2017-08-23T09:50:27Z</time>
      </trkpt>
      <trkpt lat="45.91395" lon="4.77445">
        <ele>174</ele>
        <time>2017-08-23T09:50:28Z</time>
      </trkpt>
      <trkpt lat="45.91394" lon="4.77437">
        <ele>174</ele>
        <time>2017-08-23T09:50:29Z</time>
      </trkpt>
      <trkpt lat="45.91393" lon="4.7743">
        <ele>174</ele>
        <time>2017-08-23T09:50:30Z</time>
      </trkpt>
      <trkpt lat="45.9139" lon="4.77421">
        <ele>174</ele>
        <time>2017-08-23T09:50:31Z</time>
      </trkpt>
      <trkpt lat="45.91389" lon="4.77413">
        <ele>174</ele>
        <time>2017-08-23T09:50:32Z</time>
      </trkpt>
      <trkpt lat="45.91389" lon="4.77405">
        <ele>174</ele>
        <time>2017-08-23T09:50:33Z</time>
      </trkpt>
      <trkpt lat="45.91388" lon="4.77398">
        <ele>174</ele>
        <time>2017-08-23T09:50:34Z</time>
      </trkpt>
      <trkpt lat="45.91387" lon="4.7739">
        <ele>174</ele>
        <time>2017-08-23T09:50:35Z</time>
      </trkpt>
      <trkpt lat="45.91387" lon="4.77383">
        <ele>174</ele>
        <time>2017-08-23T09:50:36Z</time>
      </trkpt>
      <trkpt lat="45.91387" lon="4.77377">
        <ele>174</ele>
        <time>2017-08-23T09:50:37Z</time>
      </trkpt>
      <trkpt lat="45.91387" lon="4.77365">
        <ele>174</ele>
        <time>2017-08-23T09:50:39Z</time>
      </trkpt>
      <trkpt lat="45.91387" lon="4.77359">
        <ele>174</ele>
        <time>2017-08-23T09:50:40Z</time>
      </trkpt>
      <trkpt lat="45.91388" lon="4.77348">
        <ele>174</ele>
        <time>2017-08-23T09:50:42Z</time>
      </trkpt>
      <trkpt lat="45.91388" lon="4.77341">
        <ele>174</ele>
        <time>2017-08-23T09:50:43Z</time>
      </trkpt>
      <trkpt lat="45.91388" lon="4.77335">
        <ele>174</ele>
        <time>2017-08-23T09:50:44Z</time>
      </trkpt>
      <trkpt lat="45.91389" lon="4.77328">
        <ele>175</ele>
        <time>2017-08-23T09:50:45Z</time>
      </trkpt>
      <trkpt lat="45.91389" lon="4.77321">
        <ele>175</ele>
        <time>2017-08-23T09:50:46Z</time>
      </trkpt>
      <trkpt lat="45.91389" lon="4.77314">
        <ele>175</ele>
        <time>2017-08-23T09:50:47Z</time>
      </trkpt>
      <trkpt lat="45.91389" lon="4.77307">
        <ele>175</ele>
        <time>2017-08-23T09:50:48Z</time>
      </trkpt>
      <trkpt lat="45.91389" lon="4.773">
        <ele>175</ele>
        <time>2017-08-23T09:50:49Z</time>
      </trkpt>
      <trkpt lat="45.9139" lon="4.77288">
        <ele>175</ele>
        <time>2017-08-23T09:50:51Z</time>
      </trkpt>
      <trkpt lat="45.9139" lon="4.77283">
        <ele>175</ele>
        <time>2017-08-23T09:50:52Z</time>
      </trkpt>
      <trkpt lat="45.91388" lon="4.77272">
        <ele>175</ele>
        <time>2017-08-23T09:50:54Z</time>
      </trkpt>
      <trkpt lat="45.91387" lon="4.77265">
        <ele>175</ele>
        <time>2017-08-23T09:50:55Z</time>
      </trkpt>
      <trkpt lat="45.91386" lon="4.77259">
        <ele>175</ele>
        <time>2017-08-23T09:50:56Z</time>
      </trkpt>
      <trkpt lat="45.91385" lon="4.77253">
        <ele>175</ele>
        <time>2017-08-23T09:50:57Z</time>
      </trkpt>
      <trkpt lat="45.91383" lon="4.77241">
        <ele>176</ele>
        <time>2017-08-23T09:50:59Z</time>
      </trkpt>
      <trkpt lat="45.91382" lon="4.77235">
        <ele>176</ele>
        <time>2017-08-23T09:51:00Z</time>
      </trkpt>
      <trkpt lat="45.91381" lon="4.77228">
        <ele>176</ele>
        <time>2017-08-23T09:51:01Z</time>
      </trkpt>
      <trkpt lat="45.9138" lon="4.77221">
        <ele>176</ele>
        <time>2017-08-23T09:51:02Z</time>
      </trkpt>
      <trkpt lat="45.9138" lon="4.77214">
        <ele>176</ele>
        <time>2017-08-23T09:51:03Z</time>
      </trkpt>
      <trkpt lat="45.91379" lon="4.77207">
        <ele>176</ele>
        <time>2017-08-23T09:51:04Z</time>
      </trkpt>
      <trkpt lat="45.91378" lon="4.77199">
        <ele>176</ele>
        <time>2017-08-23T09:51:05Z</time>
      </trkpt>
      <trkpt lat="45.91377" lon="4.77193">
        <ele>176</ele>
        <time>2017-08-23T09:51:06Z</time>
      </trkpt>
      <trkpt lat="45.91375" lon="4.77185">
        <ele>176</ele>
        <time>2017-08-23T09:51:07Z</time>
      </trkpt>
      <trkpt lat="45.91374" lon="4.77179">
        <ele>176</ele>
        <time>2017-08-23T09:51:08Z</time>
      </trkpt>
      <trkpt lat="45.91371" lon="4.77168">
        <ele>176</ele>
        <time>2017-08-23T09:51:10Z</time>
      </trkpt>
      <trkpt lat="45.91368" lon="4.77164">
        <ele>177</ele>
        <time>2017-08-23T09:51:11Z</time>
      </trkpt>
      <trkpt lat="45.91367" lon="4.77153">
        <ele>177</ele>
        <time>2017-08-23T09:51:13Z</time>
      </trkpt>
      <trkpt lat="45.91366" lon="4.77147">
        <ele>177</ele>
        <time>2017-08-23T09:51:14Z</time>
      </trkpt>
      <trkpt lat="45.91365" lon="4.77141">
        <ele>177</ele>
        <time>2017-08-23T09:51:15Z</time>
      </trkpt>
      <trkpt lat="45.91364" lon="4.77134">
        <ele>177</ele>
        <time>2017-08-23T09:51:16Z</time>
      </trkpt>
      <trkpt lat="45.91363" lon="4.77128">
        <ele>177</ele>
        <time>2017-08-23T09:51:17Z</time>
      </trkpt>
      <trkpt lat="45.91361" lon="4.77121">
        <ele>177</ele>
        <time>2017-08-23T09:51:18Z</time>
      </trkpt>
      <trkpt lat="45.91359" lon="4.77109">
        <ele>177</ele>
        <time>2017-08-23T09:51:20Z</time>
      </trkpt>
      <trkpt lat="45.91357" lon="4.77102">
        <ele>177</ele>
        <time>2017-08-23T09:51:21Z</time>
      </trkpt>
      <trkpt lat="45.91356" lon="4.77096">
        <ele>177</ele>
        <time>2017-08-23T09:51:22Z</time>
      </trkpt>
      <trkpt lat="45.91354" lon="4.77089">
        <ele>177</ele>
        <time>2017-08-23T09:51:23Z</time>
      </trkpt>
      <trkpt lat="45.91352" lon="4.77083">
        <ele>176</ele>
        <time>2017-08-23T09:51:24Z</time>
      </trkpt>
      <trkpt lat="45.91351" lon="4.77077">
        <ele>176</ele>
        <time>2017-08-23T09:51:25Z</time>
      </trkpt>
      <trkpt lat="45.91349" lon="4.77071">
        <ele>176</ele>
        <time>2017-08-23T09:51:26Z</time>
      </trkpt>
      <trkpt lat="45.91349" lon="4.77064">
        <ele>176</ele>
        <time>2017-08-23T09:51:27Z</time>
      </trkpt>
      <trkpt lat="45.91347" lon="4.77058">
        <ele>176</ele>
        <time>2017-08-23T09:51:28Z</time>
      </trkpt>
      <trkpt lat="45.91346" lon="4.77051">
        <ele>176</ele>
        <time>2017-08-23T09:51:29Z</time>
      </trkpt>
      <trkpt lat="45.91344" lon="4.77045">
        <ele>176</ele>
        <time>2017-08-23T09:51:30Z</time>
      </trkpt>
      <trkpt lat="45.91343" lon="4.77039">
        <ele>176</ele>
        <time>2017-08-23T09:51:31Z</time>
      </trkpt>
      <trkpt lat="45.91341" lon="4.77032">
        <ele>176</ele>
        <time>2017-08-23T09:51:32Z</time>
      </trkpt>
      <trkpt lat="45.9134" lon="4.77027">
        <ele>176</ele>
        <time>2017-08-23T09:51:33Z</time>
      </trkpt>
      <trkpt lat="45.91337" lon="4.77016">
        <ele>176</ele>
        <time>2017-08-23T09:51:35Z</time>
      </trkpt>
      <trkpt lat="45.91335" lon="4.77009">
        <ele>176</ele>
        <time>2017-08-23T09:51:36Z</time>
      </trkpt>
      <trkpt lat="45.91332" lon="4.77001">
        <ele>176</ele>
        <time>2017-08-23T09:51:37Z</time>
      </trkpt>
      <trkpt lat="45.91329" lon="4.76993">
        <ele>176</ele>
        <time>2017-08-23T09:51:38Z</time>
      </trkpt>
      <trkpt lat="45.91327" lon="4.76986">
        <ele>176</ele>
        <time>2017-08-23T09:51:39Z</time>
      </trkpt>
      <trkpt lat="45.91325" lon="4.76979">
        <ele>175</ele>
        <time>2017-08-23T09:51:40Z</time>
      </trkpt>
      <trkpt lat="45.91325" lon="4.76972">
        <ele>175</ele>
        <time>2017-08-23T09:51:41Z</time>
      </trkpt>
      <trkpt lat="45.91325" lon="4.76965">
        <ele>175</ele>
        <time>2017-08-23T09:51:42Z</time>
      </trkpt>
      <trkpt lat="45.91326" lon="4.76958">
        <ele>175</ele>
        <time>2017-08-23T09:51:43Z</time>
      </trkpt>
      <trkpt lat="45.91326" lon="4.76951">
        <ele>175</ele>
        <time>2017-08-23T09:51:44Z</time>
      </trkpt>
      <trkpt lat="45.91326" lon="4.76944">
        <ele>175</ele>
        <time>2017-08-23T09:51:45Z</time>
      </trkpt>
      <trkpt lat="45.91325" lon="4.76937">
        <ele>175</ele>
        <time>2017-08-23T09:51:46Z</time>
      </trkpt>
      <trkpt lat="45.91325" lon="4.7693">
        <ele>175</ele>
        <time>2017-08-23T09:51:47Z</time>
      </trkpt>
      <trkpt lat="45.91325" lon="4.76922">
        <ele>175</ele>
        <time>2017-08-23T09:51:48Z</time>
      </trkpt>
      <trkpt lat="45.91326" lon="4.76914">
        <ele>175</ele>
        <time>2017-08-23T09:51:49Z</time>
      </trkpt>
      <trkpt lat="45.91325" lon="4.76907">
        <ele>175</ele>
        <time>2017-08-23T09:51:50Z</time>
      </trkpt>
      <trkpt lat="45.91325" lon="4.769">
        <ele>175</ele>
        <time>2017-08-23T09:51:51Z</time>
      </trkpt>
      <trkpt lat="45.91325" lon="4.76894">
        <ele>175</ele>
        <time>2017-08-23T09:51:52Z</time>
      </trkpt>
      <trkpt lat="45.91325" lon="4.76884">
        <ele>175</ele>
        <time>2017-08-23T09:51:54Z</time>
      </trkpt>
      <trkpt lat="45.91325" lon="4.76878">
        <ele>175</ele>
        <time>2017-08-23T09:51:55Z</time>
      </trkpt>
      <trkpt lat="45.91325" lon="4.76866">
        <ele>175</ele>
        <time>2017-08-23T09:51:57Z</time>
      </trkpt>
      <trkpt lat="45.91326" lon="4.76859">
        <ele>175</ele>
        <time>2017-08-23T09:51:58Z</time>
      </trkpt>
      <trkpt lat="45.91327" lon="4.76852">
        <ele>175</ele>
        <time>2017-08-23T09:51:59Z</time>
      </trkpt>
      <trkpt lat="45.91327" lon="4.76845">
        <ele>174</ele>
        <time>2017-08-23T09:52:00Z</time>
      </trkpt>
      <trkpt lat="45.91328" lon="4.76837">
        <ele>174</ele>
        <time>2017-08-23T09:52:01Z</time>
      </trkpt>
      <trkpt lat="45.91328" lon="4.7683">
        <ele>174</ele>
        <time>2017-08-23T09:52:02Z</time>
      </trkpt>
      <trkpt lat="45.91328" lon="4.76819">
        <ele>175</ele>
        <time>2017-08-23T09:52:04Z</time>
      </trkpt>
      <trkpt lat="45.91327" lon="4.76813">
        <ele>175</ele>
        <time>2017-08-23T09:52:05Z</time>
      </trkpt>
      <trkpt lat="45.91327" lon="4.76803">
        <ele>175</ele>
        <time>2017-08-23T09:52:07Z</time>
      </trkpt>
      <trkpt lat="45.91327" lon="4.76798">
        <ele>175</ele>
        <time>2017-08-23T09:52:08Z</time>
      </trkpt>
      <trkpt lat="45.91327" lon="4.76786">
        <ele>175</ele>
        <time>2017-08-23T09:52:10Z</time>
      </trkpt>
      <trkpt lat="45.91327" lon="4.76779">
        <ele>176</ele>
        <time>2017-08-23T09:52:11Z</time>
      </trkpt>
      <trkpt lat="45.91328" lon="4.76772">
        <ele>176</ele>
        <time>2017-08-23T09:52:12Z</time>
      </trkpt>
      <trkpt lat="45.91329" lon="4.76766">
        <ele>176</ele>
        <time>2017-08-23T09:52:13Z</time>
      </trkpt>
      <trkpt lat="45.91329" lon="4.76759">
        <ele>176</ele>
        <time>2017-08-23T09:52:14Z</time>
      </trkpt>
      <trkpt lat="45.9133" lon="4.76752">
        <ele>176</ele>
        <time>2017-08-23T09:52:15Z</time>
      </trkpt>
      <trkpt lat="45.9133" lon="4.76745">
        <ele>176</ele>
        <time>2017-08-23T09:52:16Z</time>
      </trkpt>
      <trkpt lat="45.91331" lon="4.76739">
        <ele>176</ele>
        <time>2017-08-23T09:52:17Z</time>
      </trkpt>
      <trkpt lat="45.91331" lon="4.76727">
        <ele>176</ele>
        <time>2017-08-23T09:52:19Z</time>
      </trkpt>
      <trkpt lat="45.91332" lon="4.76722">
        <ele>176</ele>
        <time>2017-08-23T09:52:20Z</time>
      </trkpt>
      <trkpt lat="45.91334" lon="4.76711">
        <ele>176</ele>
        <time>2017-08-23T09:52:22Z</time>
      </trkpt>
      <trkpt lat="45.91335" lon="4.76706">
        <ele>176</ele>
        <time>2017-08-23T09:52:23Z</time>
      </trkpt>
      <trkpt lat="45.91337" lon="4.76694">
        <ele>176</ele>
        <time>2017-08-23T09:52:25Z</time>
      </trkpt>
      <trkpt lat="45.91339" lon="4.76689">
        <ele>176</ele>
        <time>2017-08-23T09:52:26Z</time>
      </trkpt>
      <trkpt lat="45.91344" lon="4.76679">
        <ele>176</ele>
        <time>2017-08-23T09:52:28Z</time>
      </trkpt>
      <trkpt lat="45.91347" lon="4.76674">
        <ele>176</ele>
        <time>2017-08-23T09:52:29Z</time>
      </trkpt>
      <trkpt lat="45.91352" lon="4.76664">
        <ele>176</ele>
        <time>2017-08-23T09:52:31Z</time>
      </trkpt>
      <trkpt lat="45.91354" lon="4.7666">
        <ele>176</ele>
        <time>2017-08-23T09:52:32Z</time>
      </trkpt>
      <trkpt lat="45.91359" lon="4.76651">
        <ele>176</ele>
        <time>2017-08-23T09:52:34Z</time>
      </trkpt>
      <trkpt lat="45.91361" lon="4.76649">
        <ele>176</ele>
        <time>2017-08-23T09:52:35Z</time>
      </trkpt>
      <trkpt lat="45.91364" lon="4.76644">
        <ele>176</ele>
        <time>2017-08-23T09:52:36Z</time>
      </trkpt>
      <trkpt lat="45.91367" lon="4.76638">
        <ele>176</ele>
        <time>2017-08-23T09:52:37Z</time>
      </trkpt>
      <trkpt lat="45.9137" lon="4.76632">
        <ele>176</ele>
        <time>2017-08-23T09:52:38Z</time>
      </trkpt>
      <trkpt lat="45.91373" lon="4.76626">
        <ele>176</ele>
        <time>2017-08-23T09:52:39Z</time>
      </trkpt>
      <trkpt lat="45.91378" lon="4.76616">
        <ele>176</ele>
        <time>2017-08-23T09:52:41Z</time>
      </trkpt>
      <trkpt lat="45.91381" lon="4.76612">
        <ele>176</ele>
        <time>2017-08-23T09:52:42Z</time>
      </trkpt>
      <trkpt lat="45.91386" lon="4.76603">
        <ele>176</ele>
        <time>2017-08-23T09:52:44Z</time>
      </trkpt>
      <trkpt lat="45.91388" lon="4.76598">
        <ele>176</ele>
        <time>2017-08-23T09:52:45Z</time>
      </trkpt>
      <trkpt lat="45.91393" lon="4.76589">
        <ele>177</ele>
        <time>2017-08-23T09:52:47Z</time>
      </trkpt>
      <trkpt lat="45.91396" lon="4.76584">
        <ele>177</ele>
        <time>2017-08-23T09:52:48Z</time>
      </trkpt>
      <trkpt lat="45.91399" lon="4.76579">
        <ele>177</ele>
        <time>2017-08-23T09:52:49Z</time>
      </trkpt>
      <trkpt lat="45.91401" lon="4.76573">
        <ele>177</ele>
        <time>2017-08-23T09:52:50Z</time>
      </trkpt>
      <trkpt lat="45.91404" lon="4.76567">
        <ele>177</ele>
        <time>2017-08-23T09:52:51Z</time>
      </trkpt>
      <trkpt lat="45.91407" lon="4.76562">
        <ele>177</ele>
        <time>2017-08-23T09:52:52Z</time>
      </trkpt>
      <trkpt lat="45.91413" lon="4.76553">
        <ele>177</ele>
        <time>2017-08-23T09:52:54Z</time>
      </trkpt>
      <trkpt lat="45.91415" lon="4.76548">
        <ele>177</ele>
        <time>2017-08-23T09:52:55Z</time>
      </trkpt>
      <trkpt lat="45.9142" lon="4.76539">
        <ele>177</ele>
        <time>2017-08-23T09:52:57Z</time>
      </trkpt>
      <trkpt lat="45.91423" lon="4.76533">
        <ele>177</ele>
        <time>2017-08-23T09:52:58Z</time>
      </trkpt>
      <trkpt lat="45.91426" lon="4.76527">
        <ele>177</ele>
        <time>2017-08-23T09:52:59Z</time>
      </trkpt>
      <trkpt lat="45.91429" lon="4.76522">
        <ele>177</ele>
        <time>2017-08-23T09:53:00Z</time>
      </trkpt>
      <trkpt lat="45.91432" lon="4.76516">
        <ele>177</ele>
        <time>2017-08-23T09:53:01Z</time>
      </trkpt>
      <trkpt lat="45.91435" lon="4.7651">
        <ele>177</ele>
        <time>2017-08-23T09:53:02Z</time>
      </trkpt>
      <trkpt lat="45.91441" lon="4.76501">
        <ele>177</ele>
        <time>2017-08-23T09:53:04Z</time>
      </trkpt>
      <trkpt lat="45.91444" lon="4.76495">
        <ele>177</ele>
        <time>2017-08-23T09:53:05Z</time>
      </trkpt>
      <trkpt lat="45.91447" lon="4.7649">
        <ele>177</ele>
        <time>2017-08-23T09:53:06Z</time>
      </trkpt>
      <trkpt lat="45.9145" lon="4.76484">
        <ele>177</ele>
        <time>2017-08-23T09:53:07Z</time>
      </trkpt>
      <trkpt lat="45.91453" lon="4.76479">
        <ele>177</ele>
        <time>2017-08-23T09:53:08Z</time>
      </trkpt>
      <trkpt lat="45.91456" lon="4.76474">
        <ele>177</ele>
        <time>2017-08-23T09:53:09Z</time>
      </trkpt>
      <trkpt lat="45.91461" lon="4.76464">
        <ele>177</ele>
        <time>2017-08-23T09:53:11Z</time>
      </trkpt>
      <trkpt lat="45.91463" lon="4.7646">
        <ele>177</ele>
        <time>2017-08-23T09:53:12Z</time>
      </trkpt>
      <trkpt lat="45.91468" lon="4.76451">
        <ele>177</ele>
        <time>2017-08-23T09:53:14Z</time>
      </trkpt>
      <trkpt lat="45.9147" lon="4.76447">
        <ele>177</ele>
        <time>2017-08-23T09:53:15Z</time>
      </trkpt>
      <trkpt lat="45.91475" lon="4.76437">
        <ele>176</ele>
        <time>2017-08-23T09:53:17Z</time>
      </trkpt>
      <trkpt lat="45.91478" lon="4.76432">
        <ele>176</ele>
        <time>2017-08-23T09:53:18Z</time>
      </trkpt>
      <trkpt lat="45.91482" lon="4.76425">
        <ele>176</ele>
        <time>2017-08-23T09:53:19Z</time>
      </trkpt>
      <trkpt lat="45.91485" lon="4.76419">
        <ele>176</ele>
        <time>2017-08-23T09:53:20Z</time>
      </trkpt>
      <trkpt lat="45.91488" lon="4.76413">
        <ele>176</ele>
        <time>2017-08-23T09:53:21Z</time>
      </trkpt>
      <trkpt lat="45.91492" lon="4.76407">
        <ele>176</ele>
        <time>2017-08-23T09:53:22Z</time>
      </trkpt>
      <trkpt lat="45.91494" lon="4.76401">
        <ele>176</ele>
        <time>2017-08-23T09:53:23Z</time>
      </trkpt>
      <trkpt lat="45.91498" lon="4.76396">
        <ele>176</ele>
        <time>2017-08-23T09:53:24Z</time>
      </trkpt>
      <trkpt lat="45.91503" lon="4.76386">
        <ele>176</ele>
        <time>2017-08-23T09:53:26Z</time>
      </trkpt>
      <trkpt lat="45.91505" lon="4.76382">
        <ele>176</ele>
        <time>2017-08-23T09:53:27Z</time>
      </trkpt>
      <trkpt lat="45.9151" lon="4.76373">
        <ele>176</ele>
        <time>2017-08-23T09:53:29Z</time>
      </trkpt>
      <trkpt lat="45.91513" lon="4.76369">
        <ele>176</ele>
        <time>2017-08-23T09:53:30Z</time>
      </trkpt>
      <trkpt lat="45.91518" lon="4.76362">
        <ele>176</ele>
        <time>2017-08-23T09:53:32Z</time>
      </trkpt>
      <trkpt lat="45.9152" lon="4.76357">
        <ele>176</ele>
        <time>2017-08-23T09:53:33Z</time>
      </trkpt>
      <trkpt lat="45.91523" lon="4.76351">
        <ele>176</ele>
        <time>2017-08-23T09:53:34Z</time>
      </trkpt>
      <trkpt lat="45.91526" lon="4.76346">
        <ele>176</ele>
        <time>2017-08-23T09:53:35Z</time>
      </trkpt>
      <trkpt lat="45.91531" lon="4.76336">
        <ele>176</ele>
        <time>2017-08-23T09:53:37Z</time>
      </trkpt>
      <trkpt lat="45.91534" lon="4.76331">
        <ele>177</ele>
        <time>2017-08-23T09:53:38Z</time>
      </trkpt>
      <trkpt lat="45.9154" lon="4.76323">
        <ele>177</ele>
        <time>2017-08-23T09:53:40Z</time>
      </trkpt>
      <trkpt lat="45.91542" lon="4.76319">
        <ele>177</ele>
        <time>2017-08-23T09:53:41Z</time>
      </trkpt>
      <trkpt lat="45.9155" lon="4.76316">
        <ele>177</ele>
        <time>2017-08-23T09:53:44Z</time>
      </trkpt>
      <trkpt lat="45.91553" lon="4.76316">
        <ele>177</ele>
        <time>2017-08-23T09:53:45Z</time>
      </trkpt>
      <trkpt lat="45.9156" lon="4.76316">
        <ele>176</ele>
        <time>2017-08-23T09:53:48Z</time>
      </trkpt>
      <trkpt lat="45.91562" lon="4.76316">
        <ele>176</ele>
        <time>2017-08-23T09:53:49Z</time>
      </trkpt>
      <trkpt lat="45.91571" lon="4.76317">
        <ele>176</ele>
        <time>2017-08-23T09:53:53Z</time>
      </trkpt>
      <trkpt lat="45.91573" lon="4.76318">
        <ele>176</ele>
        <time>2017-08-23T09:53:54Z</time>
      </trkpt>
      <trkpt lat="45.91581" lon="4.7632">
        <ele>176</ele>
        <time>2017-08-23T09:53:58Z</time>
      </trkpt>
      <trkpt lat="45.91583" lon="4.76321">
        <ele>176</ele>
        <time>2017-08-23T09:53:59Z</time>
      </trkpt>
      <trkpt lat="45.91591" lon="4.76323">
        <ele>176</ele>
        <time>2017-08-23T09:54:03Z</time>
      </trkpt>
      <trkpt lat="45.91593" lon="4.76324">
        <ele>176</ele>
        <time>2017-08-23T09:54:04Z</time>
      </trkpt>
      <trkpt lat="45.916" lon="4.76326">
        <ele>176</ele>
        <time>2017-08-23T09:54:08Z</time>
      </trkpt>
      <trkpt lat="45.91602" lon="4.76327">
        <ele>176</ele>
        <time>2017-08-23T09:54:09Z</time>
      </trkpt>
      <trkpt lat="45.91609" lon="4.76329">
        <ele>176</ele>
        <time>2017-08-23T09:54:13Z</time>
      </trkpt>
      <trkpt lat="45.91611" lon="4.7633">
        <ele>176</ele>
        <time>2017-08-23T09:54:14Z</time>
      </trkpt>
      <trkpt lat="45.91618" lon="4.76332">
        <ele>177</ele>
        <time>2017-08-23T09:54:17Z</time>
      </trkpt>
      <trkpt lat="45.9162" lon="4.76332">
        <ele>177</ele>
        <time>2017-08-23T09:54:18Z</time>
      </trkpt>
      <trkpt lat="45.91629" lon="4.76334">
        <ele>176</ele>
        <time>2017-08-23T09:54:22Z</time>
      </trkpt>
      <trkpt lat="45.91631" lon="4.76335">
        <ele>176</ele>
        <time>2017-08-23T09:54:23Z</time>
      </trkpt>
      <trkpt lat="45.91639" lon="4.76337">
        <ele>177</ele>
        <time>2017-08-23T09:54:28Z</time>
      </trkpt>
      <trkpt lat="45.9164" lon="4.76338">
        <ele>177</ele>
        <time>2017-08-23T09:54:29Z</time>
      </trkpt>
      <trkpt lat="45.91644" lon="4.76339">
        <ele>177</ele>
        <time>2017-08-23T09:54:32Z</time>
      </trkpt>
      <trkpt lat="45.91645" lon="4.76339">
        <ele>177</ele>
        <time>2017-08-23T09:54:33Z</time>
      </trkpt>
      <trkpt lat="45.91647" lon="4.76339">
        <ele>177</ele>
        <time>2017-08-23T09:54:43Z</time>
      </trkpt>
      <trkpt lat="45.91647" lon="4.76339">
        <ele>177</ele>
        <time>2017-08-23T09:54:44Z</time>
      </trkpt>
      <trkpt lat="45.91656" lon="4.7634">
        <ele>177</ele>
        <time>2017-08-23T09:55:11Z</time>
      </trkpt>
      <trkpt lat="45.91656" lon="4.76341">
        <ele>177</ele>
        <time>2017-08-23T09:55:12Z</time>
      </trkpt>
      <trkpt lat="45.91663" lon="4.76346">
        <ele>177</ele>
        <time>2017-08-23T09:55:16Z</time>
      </trkpt>
      <trkpt lat="45.91665" lon="4.76346">
        <ele>177</ele>
        <time>2017-08-23T09:55:17Z</time>
      </trkpt>
      <trkpt lat="45.91673" lon="4.76348">
        <ele>177</ele>
        <time>2017-08-23T09:55:21Z</time>
      </trkpt>
      <trkpt lat="45.91676" lon="4.76349">
        <ele>177</ele>
        <time>2017-08-23T09:55:22Z</time>
      </trkpt>
      <trkpt lat="45.91682" lon="4.76351">
        <ele>177</ele>
        <time>2017-08-23T09:55:25Z</time>
      </trkpt>
      <trkpt lat="45.91685" lon="4.76351">
        <ele>177</ele>
        <time>2017-08-23T09:55:26Z</time>
      </trkpt>
      <trkpt lat="45.91692" lon="4.76348">
        <ele>177</ele>
        <time>2017-08-23T09:55:29Z</time>
      </trkpt>
      <trkpt lat="45.91694" lon="4.76347">
        <ele>177</ele>
        <time>2017-08-23T09:55:30Z</time>
      </trkpt>
      <trkpt lat="45.91701" lon="4.76341">
        <ele>177</ele>
        <time>2017-08-23T09:55:33Z</time>
      </trkpt>
      <trkpt lat="45.91704" lon="4.7634">
        <ele>177</ele>
        <time>2017-08-23T09:55:34Z</time>
      </trkpt>
      <trkpt lat="45.91711" lon="4.76335">
        <ele>176</ele>
        <time>2017-08-23T09:55:37Z</time>
      </trkpt>
      <trkpt lat="45.91713" lon="4.76333">
        <ele>177</ele>
        <time>2017-08-23T09:55:38Z</time>
      </trkpt>
      <trkpt lat="45.91719" lon="4.7633">
        <ele>177</ele>
        <time>2017-08-23T09:55:41Z</time>
      </trkpt>
      <trkpt lat="45.91722" lon="4.76329">
        <ele>177</ele>
        <time>2017-08-23T09:55:42Z</time>
      </trkpt>
      <trkpt lat="45.91729" lon="4.76326">
        <ele>177</ele>
        <time>2017-08-23T09:55:45Z</time>
      </trkpt>
      <trkpt lat="45.91731" lon="4.76325">
        <ele>177</ele>
        <time>2017-08-23T09:55:46Z</time>
      </trkpt>
      <trkpt lat="45.9174" lon="4.76322">
        <ele>177</ele>
        <time>2017-08-23T09:55:49Z</time>
      </trkpt>
      <trkpt lat="45.91743" lon="4.76321">
        <ele>177</ele>
        <time>2017-08-23T09:55:50Z</time>
      </trkpt>
      <trkpt lat="45.91751" lon="4.76319">
        <ele>176</ele>
        <time>2017-08-23T09:55:53Z</time>
      </trkpt>
      <trkpt lat="45.91753" lon="4.76318">
        <ele>175</ele>
        <time>2017-08-23T09:55:54Z</time>
      </trkpt>
      <trkpt lat="45.91761" lon="4.76317">
        <ele>175</ele>
        <time>2017-08-23T09:55:58Z</time>
      </trkpt>
      <trkpt lat="45.91763" lon="4.76317">
        <ele>175</ele>
        <time>2017-08-23T09:55:59Z</time>
      </trkpt>
      <trkpt lat="45.91771" lon="4.76321">
        <ele>175</ele>
        <time>2017-08-23T09:56:03Z</time>
      </trkpt>
      <trkpt lat="45.91774" lon="4.76322">
        <ele>175</ele>
        <time>2017-08-23T09:56:04Z</time>
      </trkpt>
      <trkpt lat="45.91781" lon="4.76324">
        <ele>175</ele>
        <time>2017-08-23T09:56:07Z</time>
      </trkpt>
      <trkpt lat="45.91784" lon="4.76325">
        <ele>175</ele>
        <time>2017-08-23T09:56:08Z</time>
      </trkpt>
      <trkpt lat="45.91792" lon="4.76326">
        <ele>175</ele>
        <time>2017-08-23T09:56:12Z</time>
      </trkpt>
      <trkpt lat="45.91793" lon="4.76326">
        <ele>175</ele>
        <time>2017-08-23T09:56:13Z</time>
      </trkpt>
      <trkpt lat="45.91802" lon="4.76326">
        <ele>174</ele>
        <time>2017-08-23T09:56:17Z</time>
      </trkpt>
      <trkpt lat="45.91803" lon="4.76326">
        <ele>174</ele>
        <time>2017-08-23T09:56:18Z</time>
      </trkpt>
      <trkpt lat="45.91812" lon="4.76328">
        <ele>174</ele>
        <time>2017-08-23T09:56:23Z</time>
      </trkpt>
      <trkpt lat="45.91813" lon="4.76328">
        <ele>174</ele>
        <time>2017-08-23T09:56:24Z</time>
      </trkpt>
      <trkpt lat="45.9182" lon="4.76321">
        <ele>174</ele>
        <time>2017-08-23T09:56:28Z</time>
      </trkpt>
      <trkpt lat="45.91822" lon="4.76317">
        <ele>174</ele>
        <time>2017-08-23T09:56:29Z</time>
      </trkpt>
      <trkpt lat="45.91826" lon="4.76307">
        <ele>174</ele>
        <time>2017-08-23T09:56:31Z</time>
      </trkpt>
      <trkpt lat="45.91828" lon="4.76302">
        <ele>174</ele>
        <time>2017-08-23T09:56:32Z</time>
      </trkpt>
      <trkpt lat="45.91832" lon="4.76292">
        <ele>174</ele>
        <time>2017-08-23T09:56:34Z</time>
      </trkpt>
      <trkpt lat="45.91833" lon="4.76286">
        <ele>174</ele>
        <time>2017-08-23T09:56:35Z</time>
      </trkpt>
      <trkpt lat="45.91835" lon="4.76276">
        <ele>172</ele>
        <time>2017-08-23T09:56:37Z</time>
      </trkpt>
      <trkpt lat="45.91837" lon="4.76271">
        <ele>172</ele>
        <time>2017-08-23T09:56:38Z</time>
      </trkpt>
      <trkpt lat="45.9184" lon="4.76262">
        <ele>173</ele>
        <time>2017-08-23T09:56:40Z</time>
      </trkpt>
      <trkpt lat="45.91841" lon="4.76257">
        <ele>173</ele>
        <time>2017-08-23T09:56:41Z</time>
      </trkpt>
      <trkpt lat="45.91844" lon="4.76245">
        <ele>173</ele>
        <time>2017-08-23T09:56:43Z</time>
      </trkpt>
      <trkpt lat="45.91845" lon="4.76239">
        <ele>173</ele>
        <time>2017-08-23T09:56:44Z</time>
      </trkpt>
      <trkpt lat="45.91847" lon="4.76232">
        <ele>172</ele>
        <time>2017-08-23T09:56:45Z</time>
      </trkpt>
      <trkpt lat="45.91849" lon="4.76226">
        <ele>172</ele>
        <time>2017-08-23T09:56:46Z</time>
      </trkpt>
      <trkpt lat="45.91852" lon="4.76214">
        <ele>172</ele>
        <time>2017-08-23T09:56:48Z</time>
      </trkpt>
      <trkpt lat="45.91853" lon="4.76209">
        <ele>172</ele>
        <time>2017-08-23T09:56:49Z</time>
      </trkpt>
      <trkpt lat="45.91856" lon="4.76199">
        <ele>172</ele>
        <time>2017-08-23T09:56:51Z</time>
      </trkpt>
      <trkpt lat="45.91858" lon="4.76194">
        <ele>172</ele>
        <time>2017-08-23T09:56:52Z</time>
      </trkpt>
      <trkpt lat="45.91861" lon="4.76182">
        <ele>172</ele>
        <time>2017-08-23T09:56:54Z</time>
      </trkpt>
      <trkpt lat="45.91863" lon="4.76177">
        <ele>172</ele>
        <time>2017-08-23T09:56:55Z</time>
      </trkpt>
      <trkpt lat="45.91867" lon="4.76173">
        <ele>172</ele>
        <time>2017-08-23T09:56:56Z</time>
      </trkpt>
      <trkpt lat="45.91871" lon="4.76171">
        <ele>172</ele>
        <time>2017-08-23T09:56:57Z</time>
      </trkpt>
      <trkpt lat="45.91876" lon="4.76173">
        <ele>172</ele>
        <time>2017-08-23T09:56:58Z</time>
      </trkpt>
      <trkpt lat="45.9188" lon="4.76176">
        <ele>172</ele>
        <time>2017-08-23T09:56:59Z</time>
      </trkpt>
      <trkpt lat="45.91885" lon="4.76178">
        <ele>172</ele>
        <time>2017-08-23T09:57:00Z</time>
      </trkpt>
      <trkpt lat="45.91889" lon="4.76181">
        <ele>172</ele>
        <time>2017-08-23T09:57:01Z</time>
      </trkpt>
      <trkpt lat="45.91894" lon="4.76183">
        <ele>172</ele>
        <time>2017-08-23T09:57:02Z</time>
      </trkpt>
      <trkpt lat="45.91899" lon="4.76185">
        <ele>172</ele>
        <time>2017-08-23T09:57:03Z</time>
      </trkpt>
      <trkpt lat="45.91904" lon="4.76189">
        <ele>172</ele>
        <time>2017-08-23T09:57:04Z</time>
      </trkpt>
      <trkpt lat="45.91908" lon="4.76192">
        <ele>172</ele>
        <time>2017-08-23T09:57:05Z</time>
      </trkpt>
      <trkpt lat="45.91913" lon="4.76195">
        <ele>172</ele>
        <time>2017-08-23T09:57:06Z</time>
      </trkpt>
      <trkpt lat="45.91918" lon="4.76198">
        <ele>171</ele>
        <time>2017-08-23T09:57:07Z</time>
      </trkpt>
      <trkpt lat="45.91922" lon="4.76201">
        <ele>171</ele>
        <time>2017-08-23T09:57:08Z</time>
      </trkpt>
      <trkpt lat="45.91927" lon="4.76204">
        <ele>171</ele>
        <time>2017-08-23T09:57:09Z</time>
      </trkpt>
      <trkpt lat="45.91932" lon="4.76206">
        <ele>171</ele>
        <time>2017-08-23T09:57:10Z</time>
      </trkpt>
      <trkpt lat="45.91936" lon="4.76208">
        <ele>171</ele>
        <time>2017-08-23T09:57:11Z</time>
      </trkpt>
      <trkpt lat="45.91941" lon="4.76211">
        <ele>171</ele>
        <time>2017-08-23T09:57:12Z</time>
      </trkpt>
      <trkpt lat="45.91946" lon="4.76213">
        <ele>171</ele>
        <time>2017-08-23T09:57:13Z</time>
      </trkpt>
      <trkpt lat="45.9195" lon="4.76216">
        <ele>171</ele>
        <time>2017-08-23T09:57:14Z</time>
      </trkpt>
      <trkpt lat="45.91955" lon="4.76218">
        <ele>171</ele>
        <time>2017-08-23T09:57:15Z</time>
      </trkpt>
      <trkpt lat="45.91959" lon="4.7622">
        <ele>171</ele>
        <time>2017-08-23T09:57:16Z</time>
      </trkpt>
      <trkpt lat="45.91963" lon="4.76223">
        <ele>171</ele>
        <time>2017-08-23T09:57:17Z</time>
      </trkpt>
      <trkpt lat="45.91967" lon="4.76225">
        <ele>171</ele>
        <time>2017-08-23T09:57:18Z</time>
      </trkpt>
      <trkpt lat="45.91972" lon="4.76227">
        <ele>171</ele>
        <time>2017-08-23T09:57:19Z</time>
      </trkpt>
      <trkpt lat="45.91981" lon="4.7623">
        <ele>171</ele>
        <time>2017-08-23T09:57:21Z</time>
      </trkpt>
      <trkpt lat="45.91985" lon="4.76232">
        <ele>170</ele>
        <time>2017-08-23T09:57:22Z</time>
      </trkpt>
      <trkpt lat="45.9199" lon="4.76235">
        <ele>170</ele>
        <time>2017-08-23T09:57:23Z</time>
      </trkpt>
      <trkpt lat="45.91994" lon="4.76238">
        <ele>170</ele>
        <time>2017-08-23T09:57:24Z</time>
      </trkpt>
      <trkpt lat="45.91999" lon="4.76242">
        <ele>170</ele>
        <time>2017-08-23T09:57:25Z</time>
      </trkpt>
      <trkpt lat="45.92004" lon="4.76245">
        <ele>170</ele>
        <time>2017-08-23T09:57:26Z</time>
      </trkpt>
      <trkpt lat="45.92009" lon="4.76248">
        <ele>170</ele>
        <time>2017-08-23T09:57:27Z</time>
      </trkpt>
      <trkpt lat="45.92013" lon="4.76251">
        <ele>169</ele>
        <time>2017-08-23T09:57:28Z</time>
      </trkpt>
      <trkpt lat="45.92018" lon="4.76254">
        <ele>169</ele>
        <time>2017-08-23T09:57:29Z</time>
      </trkpt>
      <trkpt lat="45.92022" lon="4.76256">
        <ele>169</ele>
        <time>2017-08-23T09:57:30Z</time>
      </trkpt>
      <trkpt lat="45.9203" lon="4.76261">
        <ele>169</ele>
        <time>2017-08-23T09:57:32Z</time>
      </trkpt>
      <trkpt lat="45.92034" lon="4.76264">
        <ele>169</ele>
        <time>2017-08-23T09:57:33Z</time>
      </trkpt>
      <trkpt lat="45.92042" lon="4.76268">
        <ele>169</ele>
        <time>2017-08-23T09:57:35Z</time>
      </trkpt>
      <trkpt lat="45.92046" lon="4.76271">
        <ele>169</ele>
        <time>2017-08-23T09:57:36Z</time>
      </trkpt>
      <trkpt lat="45.92051" lon="4.76274">
        <ele>169</ele>
        <time>2017-08-23T09:57:37Z</time>
      </trkpt>
      <trkpt lat="45.92056" lon="4.76277">
        <ele>169</ele>
        <time>2017-08-23T09:57:38Z</time>
      </trkpt>
      <trkpt lat="45.92061" lon="4.7628">
        <ele>169</ele>
        <time>2017-08-23T09:57:39Z</time>
      </trkpt>
      <trkpt lat="45.92066" lon="4.76282">
        <ele>169</ele>
        <time>2017-08-23T09:57:40Z</time>
      </trkpt>
      <trkpt lat="45.92071" lon="4.76285">
        <ele>169</ele>
        <time>2017-08-23T09:57:41Z</time>
      </trkpt>
      <trkpt lat="45.92076" lon="4.76288">
        <ele>169</ele>
        <time>2017-08-23T09:57:42Z</time>
      </trkpt>
      <trkpt lat="45.9208" lon="4.76291">
        <ele>169</ele>
        <time>2017-08-23T09:57:43Z</time>
      </trkpt>
      <trkpt lat="45.92085" lon="4.76294">
        <ele>169</ele>
        <time>2017-08-23T09:57:44Z</time>
      </trkpt>
      <trkpt lat="45.92093" lon="4.76298">
        <ele>169</ele>
        <time>2017-08-23T09:57:46Z</time>
      </trkpt>
      <trkpt lat="45.92097" lon="4.763">
        <ele>169</ele>
        <time>2017-08-23T09:57:47Z</time>
      </trkpt>
      <trkpt lat="45.92105" lon="4.76304">
        <ele>169</ele>
        <time>2017-08-23T09:57:49Z</time>
      </trkpt>
      <trkpt lat="45.92109" lon="4.76306">
        <ele>169</ele>
        <time>2017-08-23T09:57:50Z</time>
      </trkpt>
      <trkpt lat="45.92116" lon="4.76309">
        <ele>169</ele>
        <time>2017-08-23T09:57:52Z</time>
      </trkpt>
      <trkpt lat="45.92119" lon="4.76311">
        <ele>169</ele>
        <time>2017-08-23T09:57:53Z</time>
      </trkpt>
      <trkpt lat="45.92126" lon="4.76316">
        <ele>169</ele>
        <time>2017-08-23T09:57:55Z</time>
      </trkpt>
      <trkpt lat="45.9213" lon="4.76319">
        <ele>169</ele>
        <time>2017-08-23T09:57:56Z</time>
      </trkpt>
      <trkpt lat="45.92135" lon="4.76322">
        <ele>169</ele>
        <time>2017-08-23T09:57:57Z</time>
      </trkpt>
      <trkpt lat="45.9214" lon="4.76325">
        <ele>169</ele>
        <time>2017-08-23T09:57:58Z</time>
      </trkpt>
      <trkpt lat="45.92144" lon="4.76328">
        <ele>169</ele>
        <time>2017-08-23T09:57:59Z</time>
      </trkpt>
      <trkpt lat="45.92149" lon="4.76331">
        <ele>169</ele>
        <time>2017-08-23T09:58:00Z</time>
      </trkpt>
      <trkpt lat="45.92153" lon="4.76334">
        <ele>169</ele>
        <time>2017-08-23T09:58:01Z</time>
      </trkpt>
      <trkpt lat="45.92157" lon="4.76336">
        <ele>169</ele>
        <time>2017-08-23T09:58:02Z</time>
      </trkpt>
      <trkpt lat="45.92165" lon="4.76341">
        <ele>169</ele>
        <time>2017-08-23T09:58:04Z</time>
      </trkpt>
      <trkpt lat="45.92169" lon="4.76344">
        <ele>169</ele>
        <time>2017-08-23T09:58:05Z</time>
      </trkpt>
      <trkpt lat="45.92174" lon="4.76346">
        <ele>169</ele>
        <time>2017-08-23T09:58:06Z</time>
      </trkpt>
      <trkpt lat="45.92178" lon="4.76349">
        <ele>168</ele>
        <time>2017-08-23T09:58:07Z</time>
      </trkpt>
      <trkpt lat="45.92183" lon="4.76352">
        <ele>168</ele>
        <time>2017-08-23T09:58:08Z</time>
      </trkpt>
      <trkpt lat="45.92188" lon="4.76355">
        <ele>168</ele>
        <time>2017-08-23T09:58:09Z</time>
      </trkpt>
      <trkpt lat="45.92193" lon="4.76358">
        <ele>168</ele>
        <time>2017-08-23T09:58:10Z</time>
      </trkpt>
      <trkpt lat="45.92198" lon="4.76361">
        <ele>168</ele>
        <time>2017-08-23T09:58:11Z</time>
      </trkpt>
      <trkpt lat="45.92202" lon="4.76364">
        <ele>168</ele>
        <time>2017-08-23T09:58:12Z</time>
      </trkpt>
      <trkpt lat="45.92206" lon="4.76367">
        <ele>168</ele>
        <time>2017-08-23T09:58:13Z</time>
      </trkpt>
      <trkpt lat="45.92211" lon="4.7637">
        <ele>168</ele>
        <time>2017-08-23T09:58:14Z</time>
      </trkpt>
      <trkpt lat="45.92215" lon="4.76372">
        <ele>168</ele>
        <time>2017-08-23T09:58:15Z</time>
      </trkpt>
      <trkpt lat="45.92219" lon="4.76375">
        <ele>168</ele>
        <time>2017-08-23T09:58:16Z</time>
      </trkpt>
      <trkpt lat="45.92223" lon="4.76377">
        <ele>168</ele>
        <time>2017-08-23T09:58:17Z</time>
      </trkpt>
      <trkpt lat="45.92231" lon="4.76383">
        <ele>168</ele>
        <time>2017-08-23T09:58:19Z</time>
      </trkpt>
      <trkpt lat="45.92235" lon="4.76385">
        <ele>168</ele>
        <time>2017-08-23T09:58:20Z</time>
      </trkpt>
      <trkpt lat="45.9224" lon="4.76386">
        <ele>168</ele>
        <time>2017-08-23T09:58:21Z</time>
      </trkpt>
      <trkpt lat="45.92245" lon="4.76387">
        <ele>168</ele>
        <time>2017-08-23T09:58:22Z</time>
      </trkpt>
      <trkpt lat="45.92251" lon="4.76387">
        <ele>167</ele>
        <time>2017-08-23T09:58:23Z</time>
      </trkpt>
      <trkpt lat="45.92256" lon="4.76385">
        <ele>167</ele>
        <time>2017-08-23T09:58:24Z</time>
      </trkpt>
      <trkpt lat="45.92261" lon="4.76383">
        <ele>167</ele>
        <time>2017-08-23T09:58:25Z</time>
      </trkpt>
      <trkpt lat="45.92265" lon="4.76382">
        <ele>167</ele>
        <time>2017-08-23T09:58:26Z</time>
      </trkpt>
      <trkpt lat="45.9227" lon="4.7638">
        <ele>167</ele>
        <time>2017-08-23T09:58:27Z</time>
      </trkpt>
      <trkpt lat="45.92274" lon="4.76378">
        <ele>167</ele>
        <time>2017-08-23T09:58:28Z</time>
      </trkpt>
      <trkpt lat="45.92282" lon="4.76375">
        <ele>167</ele>
        <time>2017-08-23T09:58:30Z</time>
      </trkpt>
      <trkpt lat="45.92286" lon="4.76374">
        <ele>167</ele>
        <time>2017-08-23T09:58:31Z</time>
      </trkpt>
      <trkpt lat="45.92294" lon="4.7637">
        <ele>167</ele>
        <time>2017-08-23T09:58:33Z</time>
      </trkpt>
      <trkpt lat="45.92299" lon="4.76369">
        <ele>167</ele>
        <time>2017-08-23T09:58:34Z</time>
      </trkpt>
      <trkpt lat="45.92307" lon="4.76366">
        <ele>167</ele>
        <time>2017-08-23T09:58:36Z</time>
      </trkpt>
      <trkpt lat="45.92311" lon="4.76364">
        <ele>167</ele>
        <time>2017-08-23T09:58:37Z</time>
      </trkpt>
      <trkpt lat="45.92319" lon="4.76362">
        <ele>167</ele>
        <time>2017-08-23T09:58:39Z</time>
      </trkpt>
      <trkpt lat="45.92323" lon="4.7636">
        <ele>167</ele>
        <time>2017-08-23T09:58:40Z</time>
      </trkpt>
      <trkpt lat="45.9233" lon="4.76357">
        <ele>167</ele>
        <time>2017-08-23T09:58:42Z</time>
      </trkpt>
      <trkpt lat="45.92334" lon="4.76355">
        <ele>168</ele>
        <time>2017-08-23T09:58:43Z</time>
      </trkpt>
      <trkpt lat="45.9234" lon="4.76351">
        <ele>168</ele>
        <time>2017-08-23T09:58:45Z</time>
      </trkpt>
      <trkpt lat="45.92344" lon="4.7635">
        <ele>168</ele>
        <time>2017-08-23T09:58:46Z</time>
      </trkpt>
      <trkpt lat="45.92352" lon="4.76345">
        <ele>168</ele>
        <time>2017-08-23T09:58:48Z</time>
      </trkpt>
      <trkpt lat="45.92356" lon="4.76342">
        <ele>168</ele>
        <time>2017-08-23T09:58:49Z</time>
      </trkpt>
      <trkpt lat="45.92363" lon="4.76341">
        <ele>168</ele>
        <time>2017-08-23T09:58:51Z</time>
      </trkpt>
      <trkpt lat="45.92367" lon="4.76343">
        <ele>168</ele>
        <time>2017-08-23T09:58:52Z</time>
      </trkpt>
      <trkpt lat="45.92372" lon="4.76347">
        <ele>168</ele>
        <time>2017-08-23T09:58:54Z</time>
      </trkpt>
      <trkpt lat="45.92375" lon="4.76349">
        <ele>168</ele>
        <time>2017-08-23T09:58:55Z</time>
      </trkpt>
      <trkpt lat="45.92381" lon="4.76354">
        <ele>168</ele>
        <time>2017-08-23T09:58:57Z</time>
      </trkpt>
      <trkpt lat="45.92384" lon="4.76357">
        <ele>168</ele>
        <time>2017-08-23T09:58:58Z</time>
      </trkpt>
      <trkpt lat="45.9239" lon="4.76361">
        <ele>169</ele>
        <time>2017-08-23T09:59:00Z</time>
      </trkpt>
      <trkpt lat="45.92392" lon="4.76363">
        <ele>169</ele>
        <time>2017-08-23T09:59:01Z</time>
      </trkpt>
      <trkpt lat="45.92397" lon="4.76367">
        <ele>169</ele>
        <time>2017-08-23T09:59:03Z</time>
      </trkpt>
      <trkpt lat="45.924" lon="4.76369">
        <ele>169</ele>
        <time>2017-08-23T09:59:04Z</time>
      </trkpt>
      <trkpt lat="45.92408" lon="4.76375">
        <ele>169</ele>
        <time>2017-08-23T09:59:07Z</time>
      </trkpt>
      <trkpt lat="45.9241" lon="4.76376">
        <ele>169</ele>
        <time>2017-08-23T09:59:08Z</time>
      </trkpt>
      <trkpt lat="45.92417" lon="4.76372">
        <ele>170</ele>
        <time>2017-08-23T09:59:11Z</time>
      </trkpt>
      <trkpt lat="45.92419" lon="4.76369">
        <ele>170</ele>
        <time>2017-08-23T09:59:12Z</time>
      </trkpt>
      <trkpt lat="45.92424" lon="4.76362">
        <ele>170</ele>
        <time>2017-08-23T09:59:14Z</time>
      </trkpt>
      <trkpt lat="45.92426" lon="4.76356">
        <ele>170</ele>
        <time>2017-08-23T09:59:15Z</time>
      </trkpt>
      <trkpt lat="45.92429" lon="4.76351">
        <ele>170</ele>
        <time>2017-08-23T09:59:16Z</time>
      </trkpt>
      <trkpt lat="45.92431" lon="4.76346">
        <ele>170</ele>
        <time>2017-08-23T09:59:17Z</time>
      </trkpt>
      <trkpt lat="45.92435" lon="4.76337">
        <ele>170</ele>
        <time>2017-08-23T09:59:19Z</time>
      </trkpt>
      <trkpt lat="45.92437" lon="4.76333">
        <ele>170</ele>
        <time>2017-08-23T09:59:20Z</time>
      </trkpt>
      <trkpt lat="45.92441" lon="4.76326">
        <ele>170</ele>
        <time>2017-08-23T09:59:22Z</time>
      </trkpt>
      <trkpt lat="45.92443" lon="4.76322">
        <ele>170</ele>
        <time>2017-08-23T09:59:23Z</time>
      </trkpt>
      <trkpt lat="45.92445" lon="4.76317">
        <ele>169</ele>
        <time>2017-08-23T09:59:24Z</time>
      </trkpt>
      <trkpt lat="45.92448" lon="4.76311">
        <ele>169</ele>
        <time>2017-08-23T09:59:25Z</time>
      </trkpt>
      <trkpt lat="45.92453" lon="4.763">
        <ele>169</ele>
        <time>2017-08-23T09:59:27Z</time>
      </trkpt>
      <trkpt lat="45.92455" lon="4.76295">
        <ele>169</ele>
        <time>2017-08-23T09:59:28Z</time>
      </trkpt>
      <trkpt lat="45.9246" lon="4.76286">
        <ele>169</ele>
        <time>2017-08-23T09:59:30Z</time>
      </trkpt>
      <trkpt lat="45.92463" lon="4.76282">
        <ele>169</ele>
        <time>2017-08-23T09:59:31Z</time>
      </trkpt>
      <trkpt lat="45.9247" lon="4.76275">
        <ele>169</ele>
        <time>2017-08-23T09:59:33Z</time>
      </trkpt>
      <trkpt lat="45.92474" lon="4.76272">
        <ele>169</ele>
        <time>2017-08-23T09:59:34Z</time>
      </trkpt>
      <trkpt lat="45.92482" lon="4.76268">
        <ele>169</ele>
        <time>2017-08-23T09:59:36Z</time>
      </trkpt>
      <trkpt lat="45.92486" lon="4.76266">
        <ele>169</ele>
        <time>2017-08-23T09:59:37Z</time>
      </trkpt>
      <trkpt lat="45.9249" lon="4.76262">
        <ele>169</ele>
        <time>2017-08-23T09:59:38Z</time>
      </trkpt>
      <trkpt lat="45.92495" lon="4.76258">
        <ele>168</ele>
        <time>2017-08-23T09:59:39Z</time>
      </trkpt>
      <trkpt lat="45.925" lon="4.76256">
        <ele>168</ele>
        <time>2017-08-23T09:59:40Z</time>
      </trkpt>
      <trkpt lat="45.92505" lon="4.76254">
        <ele>168</ele>
        <time>2017-08-23T09:59:41Z</time>
      </trkpt>
      <trkpt lat="45.92514" lon="4.76253">
        <ele>168</ele>
        <time>2017-08-23T09:59:43Z</time>
      </trkpt>
      <trkpt lat="45.92518" lon="4.76254">
        <ele>168</ele>
        <time>2017-08-23T09:59:44Z</time>
      </trkpt>
      <trkpt lat="45.92525" lon="4.76256">
        <ele>168</ele>
        <time>2017-08-23T09:59:46Z</time>
      </trkpt>
      <trkpt lat="45.92529" lon="4.76258">
        <ele>168</ele>
        <time>2017-08-23T09:59:47Z</time>
      </trkpt>
      <trkpt lat="45.92534" lon="4.7626">
        <ele>168</ele>
        <time>2017-08-23T09:59:48Z</time>
      </trkpt>
      <trkpt lat="45.92539" lon="4.76263">
        <ele>168</ele>
        <time>2017-08-23T09:59:49Z</time>
      </trkpt>
      <trkpt lat="45.92543" lon="4.76266">
        <ele>168</ele>
        <time>2017-08-23T09:59:50Z</time>
      </trkpt>
      <trkpt lat="45.92548" lon="4.76268">
        <ele>168</ele>
        <time>2017-08-23T09:59:51Z</time>
      </trkpt>
      <trkpt lat="45.92553" lon="4.76271">
        <ele>168</ele>
        <time>2017-08-23T09:59:52Z</time>
      </trkpt>
      <trkpt lat="45.92557" lon="4.76273">
        <ele>168</ele>
        <time>2017-08-23T09:59:53Z</time>
      </trkpt>
      <trkpt lat="45.92565" lon="4.76278">
        <ele>168</ele>
        <time>2017-08-23T09:59:55Z</time>
      </trkpt>
      <trkpt lat="45.92569" lon="4.76281">
        <ele>168</ele>
        <time>2017-08-23T09:59:56Z</time>
      </trkpt>
      <trkpt lat="45.92577" lon="4.76285">
        <ele>168</ele>
        <time>2017-08-23T09:59:58Z</time>
      </trkpt>
      <trkpt lat="45.92581" lon="4.76288">
        <ele>168</ele>
        <time>2017-08-23T09:59:59Z</time>
      </trkpt>
      <trkpt lat="45.92586" lon="4.7629">
        <ele>168</ele>
        <time>2017-08-23T10:00:00Z</time>
      </trkpt>
      <trkpt lat="45.92591" lon="4.76293">
        <ele>167</ele>
        <time>2017-08-23T10:00:01Z</time>
      </trkpt>
      <trkpt lat="45.92595" lon="4.76296">
        <ele>167</ele>
        <time>2017-08-23T10:00:02Z</time>
      </trkpt>
      <trkpt lat="45.92599" lon="4.76298">
        <ele>167</ele>
        <time>2017-08-23T10:00:03Z</time>
      </trkpt>
      <trkpt lat="45.92606" lon="4.76302">
        <ele>167</ele>
        <time>2017-08-23T10:00:05Z</time>
      </trkpt>
      <trkpt lat="45.9261" lon="4.76305">
        <ele>167</ele>
        <time>2017-08-23T10:00:06Z</time>
      </trkpt>
      <trkpt lat="45.92617" lon="4.76308">
        <ele>167</ele>
        <time>2017-08-23T10:00:08Z</time>
      </trkpt>
      <trkpt lat="45.9262" lon="4.7631">
        <ele>167</ele>
        <time>2017-08-23T10:00:09Z</time>
      </trkpt>
      <trkpt lat="45.92628" lon="4.76316">
        <ele>168</ele>
        <time>2017-08-23T10:00:11Z</time>
      </trkpt>
      <trkpt lat="45.92633" lon="4.76319">
        <ele>168</ele>
        <time>2017-08-23T10:00:12Z</time>
      </trkpt>
      <trkpt lat="45.92637" lon="4.76322">
        <ele>168</ele>
        <time>2017-08-23T10:00:13Z</time>
      </trkpt>
      <trkpt lat="45.92642" lon="4.76324">
        <ele>168</ele>
        <time>2017-08-23T10:00:14Z</time>
      </trkpt>
      <trkpt lat="45.92646" lon="4.76326">
        <ele>168</ele>
        <time>2017-08-23T10:00:15Z</time>
      </trkpt>
      <trkpt lat="45.9265" lon="4.76328">
        <ele>168</ele>
        <time>2017-08-23T10:00:16Z</time>
      </trkpt>
      <trkpt lat="45.92658" lon="4.76332">
        <ele>168</ele>
        <time>2017-08-23T10:00:18Z</time>
      </trkpt>
      <trkpt lat="45.92662" lon="4.76334">
        <ele>168</ele>
        <time>2017-08-23T10:00:19Z</time>
      </trkpt>
      <trkpt lat="45.9267" lon="4.76336">
        <ele>168</ele>
        <time>2017-08-23T10:00:21Z</time>
      </trkpt>
      <trkpt lat="45.92674" lon="4.76338">
        <ele>168</ele>
        <time>2017-08-23T10:00:22Z</time>
      </trkpt>
      <trkpt lat="45.92679" lon="4.7634">
        <ele>168</ele>
        <time>2017-08-23T10:00:23Z</time>
      </trkpt>
      <trkpt lat="45.92684" lon="4.76341">
        <ele>168</ele>
        <time>2017-08-23T10:00:24Z</time>
      </trkpt>
      <trkpt lat="45.92688" lon="4.76343">
        <ele>168</ele>
        <time>2017-08-23T10:00:25Z</time>
      </trkpt>
      <trkpt lat="45.92694" lon="4.76345">
        <ele>168</ele>
        <time>2017-08-23T10:00:26Z</time>
      </trkpt>
      <trkpt lat="45.92702" lon="4.76349">
        <ele>168</ele>
        <time>2017-08-23T10:00:28Z</time>
      </trkpt>
      <trkpt lat="45.92706" lon="4.7635">
        <ele>168</ele>
        <time>2017-08-23T10:00:29Z</time>
      </trkpt>
      <trkpt lat="45.92713" lon="4.76352">
        <ele>169</ele>
        <time>2017-08-23T10:00:31Z</time>
      </trkpt>
      <trkpt lat="45.92717" lon="4.76353">
        <ele>169</ele>
        <time>2017-08-23T10:00:32Z</time>
      </trkpt>
      <trkpt lat="45.92722" lon="4.76355">
        <ele>169</ele>
        <time>2017-08-23T10:00:33Z</time>
      </trkpt>
      <trkpt lat="45.92727" lon="4.76356">
        <ele>169</ele>
        <time>2017-08-23T10:00:34Z</time>
      </trkpt>
      <trkpt lat="45.92732" lon="4.76358">
        <ele>169</ele>
        <time>2017-08-23T10:00:35Z</time>
      </trkpt>
      <trkpt lat="45.92737" lon="4.7636">
        <ele>169</ele>
        <time>2017-08-23T10:00:36Z</time>
      </trkpt>
      <trkpt lat="45.92741" lon="4.76362">
        <ele>169</ele>
        <time>2017-08-23T10:00:37Z</time>
      </trkpt>
      <trkpt lat="45.92746" lon="4.76363">
        <ele>169</ele>
        <time>2017-08-23T10:00:38Z</time>
      </trkpt>
      <trkpt lat="45.92751" lon="4.76365">
        <ele>169</ele>
        <time>2017-08-23T10:00:39Z</time>
      </trkpt>
      <trkpt lat="45.92755" lon="4.76366">
        <ele>169</ele>
        <time>2017-08-23T10:00:40Z</time>
      </trkpt>
      <trkpt lat="45.92764" lon="4.76369">
        <ele>169</ele>
        <time>2017-08-23T10:00:42Z</time>
      </trkpt>
      <trkpt lat="45.92767" lon="4.7637">
        <ele>169</ele>
        <time>2017-08-23T10:00:43Z</time>
      </trkpt>
      <trkpt lat="45.92775" lon="4.76374">
        <ele>169</ele>
        <time>2017-08-23T10:00:45Z</time>
      </trkpt>
      <trkpt lat="45.92778" lon="4.76375">
        <ele>169</ele>
        <time>2017-08-23T10:00:46Z</time>
      </trkpt>
      <trkpt lat="45.92785" lon="4.76378">
        <ele>169</ele>
        <time>2017-08-23T10:00:48Z</time>
      </trkpt>
      <trkpt lat="45.92789" lon="4.76379">
        <ele>169</ele>
        <time>2017-08-23T10:00:49Z</time>
      </trkpt>
      <trkpt lat="45.92793" lon="4.76381">
        <ele>169</ele>
        <time>2017-08-23T10:00:50Z</time>
      </trkpt>
      <trkpt lat="45.92797" lon="4.76383">
        <ele>169</ele>
        <time>2017-08-23T10:00:51Z</time>
      </trkpt>
      <trkpt lat="45.92802" lon="4.76384">
        <ele>169</ele>
        <time>2017-08-23T10:00:52Z</time>
      </trkpt>
      <trkpt lat="45.92807" lon="4.76383">
        <ele>169</ele>
        <time>2017-08-23T10:00:53Z</time>
      </trkpt>
      <trkpt lat="45.92812" lon="4.76381">
        <ele>169</ele>
        <time>2017-08-23T10:00:54Z</time>
      </trkpt>
      <trkpt lat="45.92816" lon="4.76378">
        <ele>169</ele>
        <time>2017-08-23T10:00:55Z</time>
      </trkpt>
      <trkpt lat="45.9282" lon="4.76373">
        <ele>169</ele>
        <time>2017-08-23T10:00:56Z</time>
      </trkpt>
      <trkpt lat="45.92823" lon="4.76368">
        <ele>169</ele>
        <time>2017-08-23T10:00:57Z</time>
      </trkpt>
      <trkpt lat="45.92828" lon="4.7636">
        <ele>169</ele>
        <time>2017-08-23T10:00:59Z</time>
      </trkpt>
      <trkpt lat="45.92831" lon="4.76356">
        <ele>170</ele>
        <time>2017-08-23T10:01:00Z</time>
      </trkpt>
      <trkpt lat="45.92837" lon="4.76349">
        <ele>170</ele>
        <time>2017-08-23T10:01:02Z</time>
      </trkpt>
      <trkpt lat="45.92839" lon="4.76345">
        <ele>170</ele>
        <time>2017-08-23T10:01:03Z</time>
      </trkpt>
      <trkpt lat="45.92845" lon="4.76338">
        <ele>170</ele>
        <time>2017-08-23T10:01:05Z</time>
      </trkpt>
      <trkpt lat="45.92848" lon="4.76334">
        <ele>170</ele>
        <time>2017-08-23T10:01:06Z</time>
      </trkpt>
      <trkpt lat="45.92851" lon="4.76329">
        <ele>169</ele>
        <time>2017-08-23T10:01:07Z</time>
      </trkpt>
      <trkpt lat="45.92855" lon="4.76325">
        <ele>169</ele>
        <time>2017-08-23T10:01:08Z</time>
      </trkpt>
      <trkpt lat="45.92858" lon="4.7632">
        <ele>169</ele>
        <time>2017-08-23T10:01:09Z</time>
      </trkpt>
      <trkpt lat="45.92862" lon="4.76316">
        <ele>169</ele>
        <time>2017-08-23T10:01:10Z</time>
      </trkpt>
      <trkpt lat="45.92868" lon="4.76307">
        <ele>169</ele>
        <time>2017-08-23T10:01:12Z</time>
      </trkpt>
      <trkpt lat="45.9287" lon="4.76304">
        <ele>169</ele>
        <time>2017-08-23T10:01:13Z</time>
      </trkpt>
      <trkpt lat="45.92876" lon="4.76297">
        <ele>169</ele>
        <time>2017-08-23T10:01:16Z</time>
      </trkpt>
      <trkpt lat="45.92878" lon="4.76295">
        <ele>169</ele>
        <time>2017-08-23T10:01:17Z</time>
      </trkpt>
      <trkpt lat="45.92886" lon="4.76297">
        <ele>169</ele>
        <time>2017-08-23T10:01:21Z</time>
      </trkpt>
      <trkpt lat="45.92887" lon="4.76299">
        <ele>169</ele>
        <time>2017-08-23T10:01:22Z</time>
      </trkpt>
      <trkpt lat="45.92894" lon="4.76305">
        <ele>169</ele>
        <time>2017-08-23T10:01:25Z</time>
      </trkpt>
      <trkpt lat="45.92896" lon="4.76307">
        <ele>169</ele>
        <time>2017-08-23T10:01:26Z</time>
      </trkpt>
      <trkpt lat="45.92899" lon="4.76312">
        <ele>169</ele>
        <time>2017-08-23T10:01:27Z</time>
      </trkpt>
      <trkpt lat="45.92904" lon="4.76315">
        <ele>169</ele>
        <time>2017-08-23T10:01:28Z</time>
      </trkpt>
      <trkpt lat="45.9291" lon="4.76322">
        <ele>169</ele>
        <time>2017-08-23T10:01:30Z</time>
      </trkpt>
      <trkpt lat="45.92913" lon="4.76325">
        <ele>169</ele>
        <time>2017-08-23T10:01:31Z</time>
      </trkpt>
      <trkpt lat="45.92918" lon="4.76332">
        <ele>169</ele>
        <time>2017-08-23T10:01:33Z</time>
      </trkpt>
      <trkpt lat="45.92921" lon="4.76335">
        <ele>169</ele>
        <time>2017-08-23T10:01:34Z</time>
      </trkpt>
      <trkpt lat="45.92929" lon="4.76342">
        <ele>169</ele>
        <time>2017-08-23T10:01:36Z</time>
      </trkpt>
      <trkpt lat="45.92933" lon="4.76346">
        <ele>169</ele>
        <time>2017-08-23T10:01:37Z</time>
      </trkpt>
      <trkpt lat="45.92937" lon="4.7635">
        <ele>169</ele>
        <time>2017-08-23T10:01:38Z</time>
      </trkpt>
      <trkpt lat="45.92941" lon="4.76354">
        <ele>169</ele>
        <time>2017-08-23T10:01:39Z</time>
      </trkpt>
      <trkpt lat="45.92945" lon="4.76357">
        <ele>169</ele>
        <time>2017-08-23T10:01:40Z</time>
      </trkpt>
      <trkpt lat="45.9295" lon="4.76361">
        <ele>169</ele>
        <time>2017-08-23T10:01:41Z</time>
      </trkpt>
      <trkpt lat="45.92954" lon="4.76365">
        <ele>169</ele>
        <time>2017-08-23T10:01:42Z</time>
      </trkpt>
      <trkpt lat="45.92957" lon="4.76369">
        <ele>169</ele>
        <time>2017-08-23T10:01:43Z</time>
      </trkpt>
      <trkpt lat="45.92964" lon="4.76375">
        <ele>169</ele>
        <time>2017-08-23T10:01:45Z</time>
      </trkpt>
      <trkpt lat="45.92966" lon="4.76378">
        <ele>169</ele>
        <time>2017-08-23T10:01:46Z</time>
      </trkpt>
      <trkpt lat="45.92974" lon="4.76385">
        <ele>169</ele>
        <time>2017-08-23T10:01:48Z</time>
      </trkpt>
      <trkpt lat="45.92978" lon="4.76388">
        <ele>169</ele>
        <time>2017-08-23T10:01:49Z</time>
      </trkpt>
      <trkpt lat="45.92982" lon="4.76392">
        <ele>169</ele>
        <time>2017-08-23T10:01:50Z</time>
      </trkpt>
      <trkpt lat="45.92986" lon="4.76395">
        <ele>169</ele>
        <time>2017-08-23T10:01:51Z</time>
      </trkpt>
      <trkpt lat="45.9299" lon="4.76399">
        <ele>169</ele>
        <time>2017-08-23T10:01:52Z</time>
      </trkpt>
      <trkpt lat="45.92994" lon="4.76402">
        <ele>169</ele>
        <time>2017-08-23T10:01:53Z</time>
      </trkpt>
      <trkpt lat="45.93" lon="4.76409">
        <ele>169</ele>
        <time>2017-08-23T10:01:55Z</time>
      </trkpt>
      <trkpt lat="45.93003" lon="4.76413">
        <ele>169</ele>
        <time>2017-08-23T10:01:56Z</time>
      </trkpt>
      <trkpt lat="45.9301" lon="4.7642">
        <ele>169</ele>
        <time>2017-08-23T10:01:58Z</time>
      </trkpt>
      <trkpt lat="45.93014" lon="4.76424">
        <ele>169</ele>
        <time>2017-08-23T10:01:59Z</time>
      </trkpt>
      <trkpt lat="45.93019" lon="4.76429">
        <ele>169</ele>
        <time>2017-08-23T10:02:00Z</time>
      </trkpt>
      <trkpt lat="45.93023" lon="4.76434">
        <ele>169</ele>
        <time>2017-08-23T10:02:01Z</time>
      </trkpt>
      <trkpt lat="45.93027" lon="4.76437">
        <ele>169</ele>
        <time>2017-08-23T10:02:02Z</time>
      </trkpt>
      <trkpt lat="45.93031" lon="4.76442">
        <ele>169</ele>
        <time>2017-08-23T10:02:03Z</time>
      </trkpt>
      <trkpt lat="45.93036" lon="4.76446">
        <ele>169</ele>
        <time>2017-08-23T10:02:04Z</time>
      </trkpt>
      <trkpt lat="45.9304" lon="4.76451">
        <ele>169</ele>
        <time>2017-08-23T10:02:05Z</time>
      </trkpt>
      <trkpt lat="45.93045" lon="4.76454">
        <ele>169</ele>
        <time>2017-08-23T10:02:06Z</time>
      </trkpt>
      <trkpt lat="45.93048" lon="4.76457">
        <ele>169</ele>
        <time>2017-08-23T10:02:07Z</time>
      </trkpt>
      <trkpt lat="45.93055" lon="4.76464">
        <ele>169</ele>
        <time>2017-08-23T10:02:09Z</time>
      </trkpt>
      <trkpt lat="45.93058" lon="4.76468">
        <ele>169</ele>
        <time>2017-08-23T10:02:10Z</time>
      </trkpt>
      <trkpt lat="45.93062" lon="4.76472">
        <ele>169</ele>
        <time>2017-08-23T10:02:11Z</time>
      </trkpt>
      <trkpt lat="45.93066" lon="4.76476">
        <ele>169</ele>
        <time>2017-08-23T10:02:12Z</time>
      </trkpt>
      <trkpt lat="45.9307" lon="4.7648">
        <ele>169</ele>
        <time>2017-08-23T10:02:13Z</time>
      </trkpt>
      <trkpt lat="45.93074" lon="4.76485">
        <ele>169</ele>
        <time>2017-08-23T10:02:14Z</time>
      </trkpt>
      <trkpt lat="45.93079" lon="4.76489">
        <ele>170</ele>
        <time>2017-08-23T10:02:15Z</time>
      </trkpt>
      <trkpt lat="45.93083" lon="4.76493">
        <ele>170</ele>
        <time>2017-08-23T10:02:16Z</time>
      </trkpt>
      <trkpt lat="45.9309" lon="4.765">
        <ele>170</ele>
        <time>2017-08-23T10:02:18Z</time>
      </trkpt>
      <trkpt lat="45.93094" lon="4.76504">
        <ele>170</ele>
        <time>2017-08-23T10:02:19Z</time>
      </trkpt>
      <trkpt lat="45.931" lon="4.7651">
        <ele>170</ele>
        <time>2017-08-23T10:02:21Z</time>
      </trkpt>
      <trkpt lat="45.93103" lon="4.76514">
        <ele>170</ele>
        <time>2017-08-23T10:02:22Z</time>
      </trkpt>
      <trkpt lat="45.93107" lon="4.76517">
        <ele>170</ele>
        <time>2017-08-23T10:02:23Z</time>
      </trkpt>
      <trkpt lat="45.93111" lon="4.76521">
        <ele>170</ele>
        <time>2017-08-23T10:02:24Z</time>
      </trkpt>
      <trkpt lat="45.93116" lon="4.76525">
        <ele>170</ele>
        <time>2017-08-23T10:02:25Z</time>
      </trkpt>
      <trkpt lat="45.9312" lon="4.76528">
        <ele>170</ele>
        <time>2017-08-23T10:02:26Z</time>
      </trkpt>
      <trkpt lat="45.93125" lon="4.76533">
        <ele>170</ele>
        <time>2017-08-23T10:02:27Z</time>
      </trkpt>
      <trkpt lat="45.93129" lon="4.76537">
        <ele>170</ele>
        <time>2017-08-23T10:02:28Z</time>
      </trkpt>
      <trkpt lat="45.93134" lon="4.76541">
        <ele>170</ele>
        <time>2017-08-23T10:02:29Z</time>
      </trkpt>
      <trkpt lat="45.93137" lon="4.76545">
        <ele>170</ele>
        <time>2017-08-23T10:02:30Z</time>
      </trkpt>
      <trkpt lat="45.93141" lon="4.76548">
        <ele>170</ele>
        <time>2017-08-23T10:02:31Z</time>
      </trkpt>
      <trkpt lat="45.93146" lon="4.76551">
        <ele>170</ele>
        <time>2017-08-23T10:02:32Z</time>
      </trkpt>
      <trkpt lat="45.9315" lon="4.76555">
        <ele>170</ele>
        <time>2017-08-23T10:02:33Z</time>
      </trkpt>
      <trkpt lat="45.93156" lon="4.7656">
        <ele>170</ele>
        <time>2017-08-23T10:02:34Z</time>
      </trkpt>
      <trkpt lat="45.9316" lon="4.76564">
        <ele>170</ele>
        <time>2017-08-23T10:02:35Z</time>
      </trkpt>
      <trkpt lat="45.93165" lon="4.76569">
        <ele>170</ele>
        <time>2017-08-23T10:02:36Z</time>
      </trkpt>
      <trkpt lat="45.9317" lon="4.76575">
        <ele>170</ele>
        <time>2017-08-23T10:02:37Z</time>
      </trkpt>
      <trkpt lat="45.93174" lon="4.76581">
        <ele>170</ele>
        <time>2017-08-23T10:02:38Z</time>
      </trkpt>
      <trkpt lat="45.93178" lon="4.76586">
        <ele>171</ele>
        <time>2017-08-23T10:02:39Z</time>
      </trkpt>
      <trkpt lat="45.93183" lon="4.7659">
        <ele>171</ele>
        <time>2017-08-23T10:02:40Z</time>
      </trkpt>
      <trkpt lat="45.93188" lon="4.76592">
        <ele>171</ele>
        <time>2017-08-23T10:02:41Z</time>
      </trkpt>
      <trkpt lat="45.93192" lon="4.7659">
        <ele>170</ele>
        <time>2017-08-23T10:02:42Z</time>
      </trkpt>
      <trkpt lat="45.93197" lon="4.76587">
        <ele>170</ele>
        <time>2017-08-23T10:02:43Z</time>
      </trkpt>
      <trkpt lat="45.93201" lon="4.76582">
        <ele>169</ele>
        <time>2017-08-23T10:02:44Z</time>
      </trkpt>
      <trkpt lat="45.93204" lon="4.76574">
        <ele>169</ele>
        <time>2017-08-23T10:02:45Z</time>
      </trkpt>
      <trkpt lat="45.93207" lon="4.76566">
        <ele>169</ele>
        <time>2017-08-23T10:02:46Z</time>
      </trkpt>
      <trkpt lat="45.93208" lon="4.76558">
        <ele>169</ele>
        <time>2017-08-23T10:02:47Z</time>
      </trkpt>
      <trkpt lat="45.9321" lon="4.76551">
        <ele>169</ele>
        <time>2017-08-23T10:02:48Z</time>
      </trkpt>
      <trkpt lat="45.93211" lon="4.76542">
        <ele>169</ele>
        <time>2017-08-23T10:02:49Z</time>
      </trkpt>
      <trkpt lat="45.93212" lon="4.76534">
        <ele>169</ele>
        <time>2017-08-23T10:02:50Z</time>
      </trkpt>
      <trkpt lat="45.93213" lon="4.76527">
        <ele>169</ele>
        <time>2017-08-23T10:02:51Z</time>
      </trkpt>
      <trkpt lat="45.93215" lon="4.76519">
        <ele>169</ele>
        <time>2017-08-23T10:02:52Z</time>
      </trkpt>
      <trkpt lat="45.93215" lon="4.76512">
        <ele>169</ele>
        <time>2017-08-23T10:02:53Z</time>
      </trkpt>
      <trkpt lat="45.93216" lon="4.76506">
        <ele>169</ele>
        <time>2017-08-23T10:02:54Z</time>
      </trkpt>
      <trkpt lat="45.93217" lon="4.76499">
        <ele>169</ele>
        <time>2017-08-23T10:02:55Z</time>
      </trkpt>
      <trkpt lat="45.93218" lon="4.76493">
        <ele>169</ele>
        <time>2017-08-23T10:02:56Z</time>
      </trkpt>
      <trkpt lat="45.93219" lon="4.7648">
        <ele>169</ele>
        <time>2017-08-23T10:02:58Z</time>
      </trkpt>
      <trkpt lat="45.93219" lon="4.76474">
        <ele>169</ele>
        <time>2017-08-23T10:02:59Z</time>
      </trkpt>
      <trkpt lat="45.9322" lon="4.76464">
        <ele>169</ele>
        <time>2017-08-23T10:03:01Z</time>
      </trkpt>
      <trkpt lat="45.93221" lon="4.76458">
        <ele>168</ele>
        <time>2017-08-23T10:03:02Z</time>
      </trkpt>
      <trkpt lat="45.93222" lon="4.76452">
        <ele>168</ele>
        <time>2017-08-23T10:03:03Z</time>
      </trkpt>
      <trkpt lat="45.93222" lon="4.76445">
        <ele>168</ele>
        <time>2017-08-23T10:03:04Z</time>
      </trkpt>
      <trkpt lat="45.93223" lon="4.76438">
        <ele>168</ele>
        <time>2017-08-23T10:03:05Z</time>
      </trkpt>
      <trkpt lat="45.93223" lon="4.7643">
        <ele>168</ele>
        <time>2017-08-23T10:03:06Z</time>
      </trkpt>
      <trkpt lat="45.93223" lon="4.76423">
        <ele>168</ele>
        <time>2017-08-23T10:03:07Z</time>
      </trkpt>
      <trkpt lat="45.93224" lon="4.76416">
        <ele>168</ele>
        <time>2017-08-23T10:03:08Z</time>
      </trkpt>
      <trkpt lat="45.93224" lon="4.7641">
        <ele>168</ele>
        <time>2017-08-23T10:03:09Z</time>
      </trkpt>
      <trkpt lat="45.93225" lon="4.76403">
        <ele>168</ele>
        <time>2017-08-23T10:03:10Z</time>
      </trkpt>
      <trkpt lat="45.93226" lon="4.7639">
        <ele>168</ele>
        <time>2017-08-23T10:03:12Z</time>
      </trkpt>
      <trkpt lat="45.93226" lon="4.76385">
        <ele>168</ele>
        <time>2017-08-23T10:03:13Z</time>
      </trkpt>
      <trkpt lat="45.93227" lon="4.76374">
        <ele>168</ele>
        <time>2017-08-23T10:03:15Z</time>
      </trkpt>
      <trkpt lat="45.93227" lon="4.76368">
        <ele>168</ele>
        <time>2017-08-23T10:03:16Z</time>
      </trkpt>
      <trkpt lat="45.93228" lon="4.76361">
        <ele>168</ele>
        <time>2017-08-23T10:03:17Z</time>
      </trkpt>
      <trkpt lat="45.93229" lon="4.76354">
        <ele>168</ele>
        <time>2017-08-23T10:03:18Z</time>
      </trkpt>
      <trkpt lat="45.93229" lon="4.76346">
        <ele>168</ele>
        <time>2017-08-23T10:03:19Z</time>
      </trkpt>
      <trkpt lat="45.9323" lon="4.76339">
        <ele>168</ele>
        <time>2017-08-23T10:03:20Z</time>
      </trkpt>
      <trkpt lat="45.9323" lon="4.76332">
        <ele>168</ele>
        <time>2017-08-23T10:03:21Z</time>
      </trkpt>
      <trkpt lat="45.9323" lon="4.76325">
        <ele>168</ele>
        <time>2017-08-23T10:03:22Z</time>
      </trkpt>
      <trkpt lat="45.93232" lon="4.76313">
        <ele>169</ele>
        <time>2017-08-23T10:03:24Z</time>
      </trkpt>
      <trkpt lat="45.93233" lon="4.76307">
        <ele>169</ele>
        <time>2017-08-23T10:03:25Z</time>
      </trkpt>
      <trkpt lat="45.93236" lon="4.76296">
        <ele>169</ele>
        <time>2017-08-23T10:03:27Z</time>
      </trkpt>
      <trkpt lat="45.93238" lon="4.76292">
        <ele>169</ele>
        <time>2017-08-23T10:03:28Z</time>
      </trkpt>
      <trkpt lat="45.93243" lon="4.76289">
        <ele>169</ele>
        <time>2017-08-23T10:03:29Z</time>
      </trkpt>
      <trkpt lat="45.93247" lon="4.76287">
        <ele>169</ele>
        <time>2017-08-23T10:03:30Z</time>
      </trkpt>
      <trkpt lat="45.93252" lon="4.76287">
        <ele>169</ele>
        <time>2017-08-23T10:03:31Z</time>
      </trkpt>
      <trkpt lat="45.93256" lon="4.76287">
        <ele>169</ele>
        <time>2017-08-23T10:03:32Z</time>
      </trkpt>
      <trkpt lat="45.93263" lon="4.76288">
        <ele>169</ele>
        <time>2017-08-23T10:03:34Z</time>
      </trkpt>
      <trkpt lat="45.93265" lon="4.76289">
        <ele>168</ele>
        <time>2017-08-23T10:03:35Z</time>
      </trkpt>
      <trkpt lat="45.93272" lon="4.76289">
        <ele>168</ele>
        <time>2017-08-23T10:03:38Z</time>
      </trkpt>
      <trkpt lat="45.93275" lon="4.76291">
        <ele>168</ele>
        <time>2017-08-23T10:03:39Z</time>
      </trkpt>
      <trkpt lat="45.93284" lon="4.76292">
        <ele>168</ele>
        <time>2017-08-23T10:03:41Z</time>
      </trkpt>
      <trkpt lat="45.93288" lon="4.76293">
        <ele>168</ele>
        <time>2017-08-23T10:03:42Z</time>
      </trkpt>
      <trkpt lat="45.93297" lon="4.76296">
        <ele>168</ele>
        <time>2017-08-23T10:03:44Z</time>
      </trkpt>
      <trkpt lat="45.933" lon="4.76297">
        <ele>168</ele>
        <time>2017-08-23T10:03:45Z</time>
      </trkpt>
      <trkpt lat="45.93308" lon="4.763">
        <ele>168</ele>
        <time>2017-08-23T10:03:47Z</time>
      </trkpt>
      <trkpt lat="45.93312" lon="4.76302">
        <ele>168</ele>
        <time>2017-08-23T10:03:48Z</time>
      </trkpt>
      <trkpt lat="45.93318" lon="4.76306">
        <ele>168</ele>
        <time>2017-08-23T10:03:50Z</time>
      </trkpt>
      <trkpt lat="45.93322" lon="4.76309">
        <ele>168</ele>
        <time>2017-08-23T10:03:51Z</time>
      </trkpt>
      <trkpt lat="45.93328" lon="4.76316">
        <ele>168</ele>
        <time>2017-08-23T10:03:53Z</time>
      </trkpt>
      <trkpt lat="45.93332" lon="4.76319">
        <ele>169</ele>
        <time>2017-08-23T10:03:54Z</time>
      </trkpt>
      <trkpt lat="45.93336" lon="4.76323">
        <ele>169</ele>
        <time>2017-08-23T10:03:55Z</time>
      </trkpt>
      <trkpt lat="45.9334" lon="4.76328">
        <ele>169</ele>
        <time>2017-08-23T10:03:56Z</time>
      </trkpt>
      <trkpt lat="45.93345" lon="4.76336">
        <ele>169</ele>
        <time>2017-08-23T10:03:58Z</time>
      </trkpt>
      <trkpt lat="45.93347" lon="4.76341">
        <ele>168</ele>
        <time>2017-08-23T10:03:59Z</time>
      </trkpt>
      <trkpt lat="45.93352" lon="4.76349">
        <ele>168</ele>
        <time>2017-08-23T10:04:01Z</time>
      </trkpt>
      <trkpt lat="45.93355" lon="4.76353">
        <ele>168</ele>
        <time>2017-08-23T10:04:02Z</time>
      </trkpt>
      <trkpt lat="45.93358" lon="4.76361">
        <ele>168</ele>
        <time>2017-08-23T10:04:04Z</time>
      </trkpt>
      <trkpt lat="45.9336" lon="4.76365">
        <ele>168</ele>
        <time>2017-08-23T10:04:05Z</time>
      </trkpt>
      <trkpt lat="45.93365" lon="4.76372">
        <ele>168</ele>
        <time>2017-08-23T10:04:07Z</time>
      </trkpt>
      <trkpt lat="45.93368" lon="4.76378">
        <ele>168</ele>
        <time>2017-08-23T10:04:08Z</time>
      </trkpt>
      <trkpt lat="45.93374" lon="4.76386">
        <ele>168</ele>
        <time>2017-08-23T10:04:10Z</time>
      </trkpt>
      <trkpt lat="45.93377" lon="4.76391">
        <ele>168</ele>
        <time>2017-08-23T10:04:11Z</time>
      </trkpt>
      <trkpt lat="45.93383" lon="4.76397">
        <ele>168</ele>
        <time>2017-08-23T10:04:13Z</time>
      </trkpt>
      <trkpt lat="45.93385" lon="4.76401">
        <ele>168</ele>
        <time>2017-08-23T10:04:14Z</time>
      </trkpt>
      <trkpt lat="45.93389" lon="4.76407">
        <ele>167</ele>
        <time>2017-08-23T10:04:16Z</time>
      </trkpt>
      <trkpt lat="45.93392" lon="4.7641">
        <ele>167</ele>
        <time>2017-08-23T10:04:17Z</time>
      </trkpt>
      <trkpt lat="45.93396" lon="4.76416">
        <ele>167</ele>
        <time>2017-08-23T10:04:19Z</time>
      </trkpt>
      <trkpt lat="45.93398" lon="4.7642">
        <ele>167</ele>
        <time>2017-08-23T10:04:20Z</time>
      </trkpt>
      <trkpt lat="45.93403" lon="4.76426">
        <ele>167</ele>
        <time>2017-08-23T10:04:22Z</time>
      </trkpt>
      <trkpt lat="45.93406" lon="4.7643">
        <ele>167</ele>
        <time>2017-08-23T10:04:23Z</time>
      </trkpt>
      <trkpt lat="45.9341" lon="4.76434">
        <ele>167</ele>
        <time>2017-08-23T10:04:24Z</time>
      </trkpt>
      <trkpt lat="45.93413" lon="4.76439">
        <ele>167</ele>
        <time>2017-08-23T10:04:25Z</time>
      </trkpt>
      <trkpt lat="45.93419" lon="4.76447">
        <ele>167</ele>
        <time>2017-08-23T10:04:27Z</time>
      </trkpt>
      <trkpt lat="45.93422" lon="4.7645">
        <ele>167</ele>
        <time>2017-08-23T10:04:28Z</time>
      </trkpt>
      <trkpt lat="45.93428" lon="4.76458">
        <ele>167</ele>
        <time>2017-08-23T10:04:30Z</time>
      </trkpt>
      <trkpt lat="45.93431" lon="4.76463">
        <ele>167</ele>
        <time>2017-08-23T10:04:31Z</time>
      </trkpt>
      <trkpt lat="45.93435" lon="4.76467">
        <ele>167</ele>
        <time>2017-08-23T10:04:32Z</time>
      </trkpt>
      <trkpt lat="45.9344" lon="4.76474">
        <ele>167</ele>
        <time>2017-08-23T10:04:33Z</time>
      </trkpt>
      <trkpt lat="45.93443" lon="4.76479">
        <ele>167</ele>
        <time>2017-08-23T10:04:34Z</time>
      </trkpt>
      <trkpt lat="45.93447" lon="4.76484">
        <ele>167</ele>
        <time>2017-08-23T10:04:35Z</time>
      </trkpt>
      <trkpt lat="45.93451" lon="4.76489">
        <ele>167</ele>
        <time>2017-08-23T10:04:36Z</time>
      </trkpt>
      <trkpt lat="45.93455" lon="4.76493">
        <ele>167</ele>
        <time>2017-08-23T10:04:37Z</time>
      </trkpt>
      <trkpt lat="45.93462" lon="4.76501">
        <ele>168</ele>
        <time>2017-08-23T10:04:39Z</time>
      </trkpt>
      <trkpt lat="45.93465" lon="4.76504">
        <ele>168</ele>
        <time>2017-08-23T10:04:40Z</time>
      </trkpt>
      <trkpt lat="45.9347" lon="4.76511">
        <ele>168</ele>
        <time>2017-08-23T10:04:42Z</time>
      </trkpt>
      <trkpt lat="45.93473" lon="4.76513">
        <ele>168</ele>
        <time>2017-08-23T10:04:43Z</time>
      </trkpt>
      <trkpt lat="45.93478" lon="4.76517">
        <ele>168</ele>
        <time>2017-08-23T10:04:45Z</time>
      </trkpt>
      <trkpt lat="45.93481" lon="4.7652">
        <ele>168</ele>
        <time>2017-08-23T10:04:46Z</time>
      </trkpt>
      <trkpt lat="45.93486" lon="4.76527">
        <ele>168</ele>
        <time>2017-08-23T10:04:48Z</time>
      </trkpt>
      <trkpt lat="45.93489" lon="4.76531">
        <ele>168</ele>
        <time>2017-08-23T10:04:49Z</time>
      </trkpt>
      <trkpt lat="45.93492" lon="4.76535">
        <ele>168</ele>
        <time>2017-08-23T10:04:50Z</time>
      </trkpt>
      <trkpt lat="45.93495" lon="4.7654">
        <ele>168</ele>
        <time>2017-08-23T10:04:51Z</time>
      </trkpt>
      <trkpt lat="45.93501" lon="4.76547">
        <ele>168</ele>
        <time>2017-08-23T10:04:53Z</time>
      </trkpt>
      <trkpt lat="45.93505" lon="4.76551">
        <ele>168</ele>
        <time>2017-08-23T10:04:54Z</time>
      </trkpt>
      <trkpt lat="45.9351" lon="4.76556">
        <ele>168</ele>
        <time>2017-08-23T10:04:56Z</time>
      </trkpt>
      <trkpt lat="45.93513" lon="4.76559">
        <ele>168</ele>
        <time>2017-08-23T10:04:57Z</time>
      </trkpt>
      <trkpt lat="45.93518" lon="4.76565">
        <ele>168</ele>
        <time>2017-08-23T10:04:59Z</time>
      </trkpt>
      <trkpt lat="45.93521" lon="4.76567">
        <ele>168</ele>
        <time>2017-08-23T10:05:00Z</time>
      </trkpt>
      <trkpt lat="45.93526" lon="4.76576">
        <ele>168</ele>
        <time>2017-08-23T10:05:02Z</time>
      </trkpt>
      <trkpt lat="45.93529" lon="4.7658">
        <ele>168</ele>
        <time>2017-08-23T10:05:03Z</time>
      </trkpt>
      <trkpt lat="45.93534" lon="4.76585">
        <ele>169</ele>
        <time>2017-08-23T10:05:04Z</time>
      </trkpt>
      <trkpt lat="45.93538" lon="4.76589">
        <ele>169</ele>
        <time>2017-08-23T10:05:05Z</time>
      </trkpt>
      <trkpt lat="45.93541" lon="4.76594">
        <ele>169</ele>
        <time>2017-08-23T10:05:06Z</time>
      </trkpt>
      <trkpt lat="45.93544" lon="4.76599">
        <ele>169</ele>
        <time>2017-08-23T10:05:07Z</time>
      </trkpt>
      <trkpt lat="45.93549" lon="4.76607">
        <ele>169</ele>
        <time>2017-08-23T10:05:09Z</time>
      </trkpt>
      <trkpt lat="45.9355" lon="4.76611">
        <ele>169</ele>
        <time>2017-08-23T10:05:10Z</time>
      </trkpt>
      <trkpt lat="45.93555" lon="4.76622">
        <ele>169</ele>
        <time>2017-08-23T10:05:14Z</time>
      </trkpt>
      <trkpt lat="45.93556" lon="4.76625">
        <ele>169</ele>
        <time>2017-08-23T10:05:15Z</time>
      </trkpt>
      <trkpt lat="45.93559" lon="4.76632">
        <ele>169</ele>
        <time>2017-08-23T10:05:17Z</time>
      </trkpt>
      <trkpt lat="45.93562" lon="4.76637">
        <ele>170</ele>
        <time>2017-08-23T10:05:18Z</time>
      </trkpt>
      <trkpt lat="45.93566" lon="4.76646">
        <ele>170</ele>
        <time>2017-08-23T10:05:20Z</time>
      </trkpt>
      <trkpt lat="45.93569" lon="4.76653">
        <ele>170</ele>
        <time>2017-08-23T10:05:21Z</time>
      </trkpt>
      <trkpt lat="45.93574" lon="4.76658">
        <ele>170</ele>
        <time>2017-08-23T10:05:22Z</time>
      </trkpt>
      <trkpt lat="45.93578" lon="4.76663">
        <ele>171</ele>
        <time>2017-08-23T10:05:23Z</time>
      </trkpt>
      <trkpt lat="45.93584" lon="4.76672">
        <ele>171</ele>
        <time>2017-08-23T10:05:25Z</time>
      </trkpt>
      <trkpt lat="45.93586" lon="4.76676">
        <ele>170</ele>
        <time>2017-08-23T10:05:26Z</time>
      </trkpt>
      <trkpt lat="45.93592" lon="4.76686">
        <ele>170</ele>
        <time>2017-08-23T10:05:28Z</time>
      </trkpt>
      <trkpt lat="45.93595" lon="4.7669">
        <ele>169</ele>
        <time>2017-08-23T10:05:29Z</time>
      </trkpt>
      <trkpt lat="45.93601" lon="4.76699">
        <ele>169</ele>
        <time>2017-08-23T10:05:31Z</time>
      </trkpt>
      <trkpt lat="45.93604" lon="4.76704">
        <ele>169</ele>
        <time>2017-08-23T10:05:32Z</time>
      </trkpt>
      <trkpt lat="45.93607" lon="4.76709">
        <ele>169</ele>
        <time>2017-08-23T10:05:33Z</time>
      </trkpt>
      <trkpt lat="45.93611" lon="4.76715">
        <ele>169</ele>
        <time>2017-08-23T10:05:34Z</time>
      </trkpt>
      <trkpt lat="45.93615" lon="4.76722">
        <ele>169</ele>
        <time>2017-08-23T10:05:35Z</time>
      </trkpt>
      <trkpt lat="45.93619" lon="4.76729">
        <ele>169</ele>
        <time>2017-08-23T10:05:36Z</time>
      </trkpt>
      <trkpt lat="45.93624" lon="4.76737">
        <ele>169</ele>
        <time>2017-08-23T10:05:38Z</time>
      </trkpt>
      <trkpt lat="45.93626" lon="4.76741">
        <ele>168</ele>
        <time>2017-08-23T10:05:39Z</time>
      </trkpt>
      <trkpt lat="45.93632" lon="4.76747">
        <ele>168</ele>
        <time>2017-08-23T10:05:41Z</time>
      </trkpt>
      <trkpt lat="45.93634" lon="4.76751">
        <ele>168</ele>
        <time>2017-08-23T10:05:42Z</time>
      </trkpt>
      <trkpt lat="45.93639" lon="4.76759">
        <ele>168</ele>
        <time>2017-08-23T10:05:44Z</time>
      </trkpt>
      <trkpt lat="45.93642" lon="4.76763">
        <ele>168</ele>
        <time>2017-08-23T10:05:45Z</time>
      </trkpt>
      <trkpt lat="45.93648" lon="4.76771">
        <ele>167</ele>
        <time>2017-08-23T10:05:47Z</time>
      </trkpt>
      <trkpt lat="45.9365" lon="4.76775">
        <ele>167</ele>
        <time>2017-08-23T10:05:48Z</time>
      </trkpt>
      <trkpt lat="45.93656" lon="4.76784">
        <ele>167</ele>
        <time>2017-08-23T10:05:50Z</time>
      </trkpt>
      <trkpt lat="45.93659" lon="4.76788">
        <ele>167</ele>
        <time>2017-08-23T10:05:51Z</time>
      </trkpt>
      <trkpt lat="45.93662" lon="4.76793">
        <ele>167</ele>
        <time>2017-08-23T10:05:52Z</time>
      </trkpt>
      <trkpt lat="45.93665" lon="4.76798">
        <ele>167</ele>
        <time>2017-08-23T10:05:53Z</time>
      </trkpt>
      <trkpt lat="45.93671" lon="4.76807">
        <ele>166</ele>
        <time>2017-08-23T10:05:55Z</time>
      </trkpt>
      <trkpt lat="45.93673" lon="4.76812">
        <ele>166</ele>
        <time>2017-08-23T10:05:56Z</time>
      </trkpt>
      <trkpt lat="45.93677" lon="4.76819">
        <ele>166</ele>
        <time>2017-08-23T10:05:58Z</time>
      </trkpt>
      <trkpt lat="45.93679" lon="4.76822">
        <ele>166</ele>
        <time>2017-08-23T10:05:59Z</time>
      </trkpt>
      <trkpt lat="45.93684" lon="4.76831">
        <ele>166</ele>
        <time>2017-08-23T10:06:02Z</time>
      </trkpt>
      <trkpt lat="45.93686" lon="4.76835">
        <ele>167</ele>
        <time>2017-08-23T10:06:03Z</time>
      </trkpt>
      <trkpt lat="45.93692" lon="4.76843">
        <ele>167</ele>
        <time>2017-08-23T10:06:05Z</time>
      </trkpt>
      <trkpt lat="45.93695" lon="4.76849">
        <ele>167</ele>
        <time>2017-08-23T10:06:06Z</time>
      </trkpt>
      <trkpt lat="45.937" lon="4.76859">
        <ele>167</ele>
        <time>2017-08-23T10:06:08Z</time>
      </trkpt>
      <trkpt lat="45.93703" lon="4.76864">
        <ele>167</ele>
        <time>2017-08-23T10:06:09Z</time>
      </trkpt>
      <trkpt lat="45.93706" lon="4.76872">
        <ele>167</ele>
        <time>2017-08-23T10:06:11Z</time>
      </trkpt>
      <trkpt lat="45.93708" lon="4.76877">
        <ele>167</ele>
        <time>2017-08-23T10:06:12Z</time>
      </trkpt>
      <trkpt lat="45.93713" lon="4.76886">
        <ele>167</ele>
        <time>2017-08-23T10:06:14Z</time>
      </trkpt>
      <trkpt lat="45.93717" lon="4.76891">
        <ele>168</ele>
        <time>2017-08-23T10:06:15Z</time>
      </trkpt>
      <trkpt lat="45.93722" lon="4.76899">
        <ele>168</ele>
        <time>2017-08-23T10:06:17Z</time>
      </trkpt>
      <trkpt lat="45.93724" lon="4.76903">
        <ele>168</ele>
        <time>2017-08-23T10:06:18Z</time>
      </trkpt>
      <trkpt lat="45.93729" lon="4.7691">
        <ele>168</ele>
        <time>2017-08-23T10:06:20Z</time>
      </trkpt>
      <trkpt lat="45.93731" lon="4.76913">
        <ele>168</ele>
        <time>2017-08-23T10:06:21Z</time>
      </trkpt>
      <trkpt lat="45.93736" lon="4.76921">
        <ele>169</ele>
        <time>2017-08-23T10:06:23Z</time>
      </trkpt>
      <trkpt lat="45.93738" lon="4.76925">
        <ele>169</ele>
        <time>2017-08-23T10:06:24Z</time>
      </trkpt>
      <trkpt lat="45.93743" lon="4.76934">
        <ele>169</ele>
        <time>2017-08-23T10:06:26Z</time>
      </trkpt>
      <trkpt lat="45.93746" lon="4.76939">
        <ele>169</ele>
        <time>2017-08-23T10:06:27Z</time>
      </trkpt>
      <trkpt lat="45.9375" lon="4.76949">
        <ele>168</ele>
        <time>2017-08-23T10:06:29Z</time>
      </trkpt>
      <trkpt lat="45.93752" lon="4.76954">
        <ele>168</ele>
        <time>2017-08-23T10:06:30Z</time>
      </trkpt>
      <trkpt lat="45.93755" lon="4.76962">
        <ele>168</ele>
        <time>2017-08-23T10:06:32Z</time>
      </trkpt>
      <trkpt lat="45.93755" lon="4.76966">
        <ele>168</ele>
        <time>2017-08-23T10:06:33Z</time>
      </trkpt>
      <trkpt lat="45.93759" lon="4.76975">
        <ele>168</ele>
        <time>2017-08-23T10:06:35Z</time>
      </trkpt>
      <trkpt lat="45.93762" lon="4.76979">
        <ele>168</ele>
        <time>2017-08-23T10:06:36Z</time>
      </trkpt>
      <trkpt lat="45.93765" lon="4.76985">
        <ele>168</ele>
        <time>2017-08-23T10:06:37Z</time>
      </trkpt>
      <trkpt lat="45.93768" lon="4.7699">
        <ele>168</ele>
        <time>2017-08-23T10:06:38Z</time>
      </trkpt>
      <trkpt lat="45.93773" lon="4.76998">
        <ele>168</ele>
        <time>2017-08-23T10:06:40Z</time>
      </trkpt>
      <trkpt lat="45.93775" lon="4.77002">
        <ele>168</ele>
        <time>2017-08-23T10:06:41Z</time>
      </trkpt>
      <trkpt lat="45.93779" lon="4.77013">
        <ele>168</ele>
        <time>2017-08-23T10:06:43Z</time>
      </trkpt>
      <trkpt lat="45.9378" lon="4.77019">
        <ele>168</ele>
        <time>2017-08-23T10:06:44Z</time>
      </trkpt>
      <trkpt lat="45.93782" lon="4.77025">
        <ele>168</ele>
        <time>2017-08-23T10:06:45Z</time>
      </trkpt>
      <trkpt lat="45.93783" lon="4.77032">
        <ele>168</ele>
        <time>2017-08-23T10:06:46Z</time>
      </trkpt>
      <trkpt lat="45.93786" lon="4.77043">
        <ele>168</ele>
        <time>2017-08-23T10:06:48Z</time>
      </trkpt>
      <trkpt lat="45.93788" lon="4.77048">
        <ele>168</ele>
        <time>2017-08-23T10:06:49Z</time>
      </trkpt>
      <trkpt lat="45.93791" lon="4.77056">
        <ele>168</ele>
        <time>2017-08-23T10:06:51Z</time>
      </trkpt>
      <trkpt lat="45.93793" lon="4.7706">
        <ele>168</ele>
        <time>2017-08-23T10:06:52Z</time>
      </trkpt>
      <trkpt lat="45.93797" lon="4.77068">
        <ele>168</ele>
        <time>2017-08-23T10:06:54Z</time>
      </trkpt>
      <trkpt lat="45.93798" lon="4.77072">
        <ele>168</ele>
        <time>2017-08-23T10:06:55Z</time>
      </trkpt>
      <trkpt lat="45.93802" lon="4.77082">
        <ele>168</ele>
        <time>2017-08-23T10:06:57Z</time>
      </trkpt>
      <trkpt lat="45.93802" lon="4.77088">
        <ele>168</ele>
        <time>2017-08-23T10:06:58Z</time>
      </trkpt>
      <trkpt lat="45.93803" lon="4.77096">
        <ele>168</ele>
        <time>2017-08-23T10:07:00Z</time>
      </trkpt>
      <trkpt lat="45.93802" lon="4.77102">
        <ele>169</ele>
        <time>2017-08-23T10:07:01Z</time>
      </trkpt>
      <trkpt lat="45.93803" lon="4.77111">
        <ele>169</ele>
        <time>2017-08-23T10:07:03Z</time>
      </trkpt>
      <trkpt lat="45.93803" lon="4.77116">
        <ele>169</ele>
        <time>2017-08-23T10:07:04Z</time>
      </trkpt>
      <trkpt lat="45.93806" lon="4.77126">
        <ele>169</ele>
        <time>2017-08-23T10:07:06Z</time>
      </trkpt>
      <trkpt lat="45.93805" lon="4.77131">
        <ele>169</ele>
        <time>2017-08-23T10:07:07Z</time>
      </trkpt>
      <trkpt lat="45.93806" lon="4.77139">
        <ele>168</ele>
        <time>2017-08-23T10:07:08Z</time>
      </trkpt>
      <trkpt lat="45.93806" lon="4.77146">
        <ele>168</ele>
        <time>2017-08-23T10:07:09Z</time>
      </trkpt>
      <trkpt lat="45.93807" lon="4.77154">
        <ele>168</ele>
        <time>2017-08-23T10:07:10Z</time>
      </trkpt>
      <trkpt lat="45.93808" lon="4.77162">
        <ele>168</ele>
        <time>2017-08-23T10:07:11Z</time>
      </trkpt>
      <trkpt lat="45.93808" lon="4.77174">
        <ele>169</ele>
        <time>2017-08-23T10:07:13Z</time>
      </trkpt>
      <trkpt lat="45.93807" lon="4.77179">
        <ele>169</ele>
        <time>2017-08-23T10:07:14Z</time>
      </trkpt>
      <trkpt lat="45.93807" lon="4.7719">
        <ele>169</ele>
        <time>2017-08-23T10:07:16Z</time>
      </trkpt>
      <trkpt lat="45.93806" lon="4.77194">
        <ele>169</ele>
        <time>2017-08-23T10:07:17Z</time>
      </trkpt>
      <trkpt lat="45.93813" lon="4.77203">
        <ele>170</ele>
        <time>2017-08-23T10:07:20Z</time>
      </trkpt>
      <trkpt lat="45.93816" lon="4.77203">
        <ele>170</ele>
        <time>2017-08-23T10:07:21Z</time>
      </trkpt>
      <trkpt lat="45.93822" lon="4.77206">
        <ele>170</ele>
        <time>2017-08-23T10:07:23Z</time>
      </trkpt>
      <trkpt lat="45.93825" lon="4.77208">
        <ele>170</ele>
        <time>2017-08-23T10:07:24Z</time>
      </trkpt>
      <trkpt lat="45.93833" lon="4.77209">
        <ele>170</ele>
        <time>2017-08-23T10:07:27Z</time>
      </trkpt>
      <trkpt lat="45.93836" lon="4.7721">
        <ele>168</ele>
        <time>2017-08-23T10:07:28Z</time>
      </trkpt>
      <trkpt lat="45.93843" lon="4.77215">
        <ele>168</ele>
        <time>2017-08-23T10:07:32Z</time>
      </trkpt>
      <trkpt lat="45.93846" lon="4.77216">
        <ele>168</ele>
        <time>2017-08-23T10:07:33Z</time>
      </trkpt>
      <trkpt lat="45.93854" lon="4.7722">
        <ele>168</ele>
        <time>2017-08-23T10:07:36Z</time>
      </trkpt>
      <trkpt lat="45.93857" lon="4.7722">
        <ele>168</ele>
        <time>2017-08-23T10:07:37Z</time>
      </trkpt>
      <trkpt lat="45.93865" lon="4.77224">
        <ele>168</ele>
        <time>2017-08-23T10:07:40Z</time>
      </trkpt>
      <trkpt lat="45.93869" lon="4.77224">
        <ele>168</ele>
        <time>2017-08-23T10:07:41Z</time>
      </trkpt>
      <trkpt lat="45.93876" lon="4.77226">
        <ele>168</ele>
        <time>2017-08-23T10:07:43Z</time>
      </trkpt>
      <trkpt lat="45.93879" lon="4.77227">
        <ele>168</ele>
        <time>2017-08-23T10:07:44Z</time>
      </trkpt>
      <trkpt lat="45.93887" lon="4.77228">
        <ele>167</ele>
        <time>2017-08-23T10:07:46Z</time>
      </trkpt>
      <trkpt lat="45.9389" lon="4.77229">
        <ele>167</ele>
        <time>2017-08-23T10:07:47Z</time>
      </trkpt>
      <trkpt lat="45.93899" lon="4.77231">
        <ele>167</ele>
        <time>2017-08-23T10:07:50Z</time>
      </trkpt>
      <trkpt lat="45.93901" lon="4.77231">
        <ele>167</ele>
        <time>2017-08-23T10:07:51Z</time>
      </trkpt>
      <trkpt lat="45.93908" lon="4.77233">
        <ele>167</ele>
        <time>2017-08-23T10:07:53Z</time>
      </trkpt>
      <trkpt lat="45.93911" lon="4.77234">
        <ele>167</ele>
        <time>2017-08-23T10:07:54Z</time>
      </trkpt>
      <trkpt lat="45.9392" lon="4.77235">
        <ele>167</ele>
        <time>2017-08-23T10:07:57Z</time>
      </trkpt>
      <trkpt lat="45.93923" lon="4.77236">
        <ele>167</ele>
        <time>2017-08-23T10:07:58Z</time>
      </trkpt>
      <trkpt lat="45.93931" lon="4.77238">
        <ele>167</ele>
        <time>2017-08-23T10:08:01Z</time>
      </trkpt>
      <trkpt lat="45.93934" lon="4.77239">
        <ele>167</ele>
        <time>2017-08-23T10:08:02Z</time>
      </trkpt>
      <trkpt lat="45.9394" lon="4.77241">
        <ele>168</ele>
        <time>2017-08-23T10:08:04Z</time>
      </trkpt>
      <trkpt lat="45.93944" lon="4.77242">
        <ele>168</ele>
        <time>2017-08-23T10:08:05Z</time>
      </trkpt>
      <trkpt lat="45.9395" lon="4.77244">
        <ele>168</ele>
        <time>2017-08-23T10:08:07Z</time>
      </trkpt>
      <trkpt lat="45.93953" lon="4.77244">
        <ele>168</ele>
        <time>2017-08-23T10:08:08Z</time>
      </trkpt>
      <trkpt lat="45.9396" lon="4.77246">
        <ele>168</ele>
        <time>2017-08-23T10:08:10Z</time>
      </trkpt>
      <trkpt lat="45.93964" lon="4.77246">
        <ele>169</ele>
        <time>2017-08-23T10:08:11Z</time>
      </trkpt>
      <trkpt lat="45.93972" lon="4.77249">
        <ele>169</ele>
        <time>2017-08-23T10:08:13Z</time>
      </trkpt>
      <trkpt lat="45.93976" lon="4.77251">
        <ele>169</ele>
        <time>2017-08-23T10:08:14Z</time>
      </trkpt>
      <trkpt lat="45.93984" lon="4.77253">
        <ele>169</ele>
        <time>2017-08-23T10:08:16Z</time>
      </trkpt>
      <trkpt lat="45.93989" lon="4.77254">
        <ele>169</ele>
        <time>2017-08-23T10:08:17Z</time>
      </trkpt>
      <trkpt lat="45.93993" lon="4.77256">
        <ele>170</ele>
        <time>2017-08-23T10:08:18Z</time>
      </trkpt>
      <trkpt lat="45.93998" lon="4.77257">
        <ele>170</ele>
        <time>2017-08-23T10:08:19Z</time>
      </trkpt>
      <trkpt lat="45.94006" lon="4.7726">
        <ele>173</ele>
        <time>2017-08-23T10:08:21Z</time>
      </trkpt>
      <trkpt lat="45.94009" lon="4.77261">
        <ele>173</ele>
        <time>2017-08-23T10:08:22Z</time>
      </trkpt>
      <trkpt lat="45.94014" lon="4.77254">
        <ele>173</ele>
        <time>2017-08-23T10:08:25Z</time>
      </trkpt>
      <trkpt lat="45.94015" lon="4.7725">
        <ele>173</ele>
        <time>2017-08-23T10:08:26Z</time>
      </trkpt>
      <trkpt lat="45.94016" lon="4.77239">
        <ele>173</ele>
        <time>2017-08-23T10:08:28Z</time>
      </trkpt>
      <trkpt lat="45.94016" lon="4.77235">
        <ele>173</ele>
        <time>2017-08-23T10:08:29Z</time>
      </trkpt>
      <trkpt lat="45.94018" lon="4.77224">
        <ele>174</ele>
        <time>2017-08-23T10:08:33Z</time>
      </trkpt>
      <trkpt lat="45.94019" lon="4.77221">
        <ele>174</ele>
        <time>2017-08-23T10:08:34Z</time>
      </trkpt>
      <trkpt lat="45.94017" lon="4.77209">
        <ele>174</ele>
        <time>2017-08-23T10:08:38Z</time>
      </trkpt>
      <trkpt lat="45.94014" lon="4.77209">
        <ele>174</ele>
        <time>2017-08-23T10:08:39Z</time>
      </trkpt>
      <trkpt lat="45.94009" lon="4.77217">
        <ele>174</ele>
        <time>2017-08-23T10:08:41Z</time>
      </trkpt>
      <trkpt lat="45.94008" lon="4.77222">
        <ele>173</ele>
        <time>2017-08-23T10:08:42Z</time>
      </trkpt>
      <trkpt lat="45.94004" lon="4.77232">
        <ele>173</ele>
        <time>2017-08-23T10:08:44Z</time>
      </trkpt>
      <trkpt lat="45.94001" lon="4.77234">
        <ele>172</ele>
        <time>2017-08-23T10:08:45Z</time>
      </trkpt>
      <trkpt lat="45.93996" lon="4.77225">
        <ele>169</ele>
        <time>2017-08-23T10:08:48Z</time>
      </trkpt>
      <trkpt lat="45.93996" lon="4.7722">
        <ele>169</ele>
        <time>2017-08-23T10:08:49Z</time>
      </trkpt>
      <trkpt lat="45.93997" lon="4.77211">
        <ele>169</ele>
        <time>2017-08-23T10:08:51Z</time>
      </trkpt>
      <trkpt lat="45.93998" lon="4.77207">
        <ele>169</ele>
        <time>2017-08-23T10:08:52Z</time>
      </trkpt>
      <trkpt lat="45.93999" lon="4.77197">
        <ele>170</ele>
        <time>2017-08-23T10:08:54Z</time>
      </trkpt>
      <trkpt lat="45.94" lon="4.77191">
        <ele>170</ele>
        <time>2017-08-23T10:08:55Z</time>
      </trkpt>
      <trkpt lat="45.94" lon="4.7718">
        <ele>173</ele>
        <time>2017-08-23T10:08:57Z</time>
      </trkpt>
      <trkpt lat="45.94" lon="4.77175">
        <ele>173</ele>
        <time>2017-08-23T10:08:58Z</time>
      </trkpt>
      <trkpt lat="45.94001" lon="4.77166">
        <ele>172</ele>
        <time>2017-08-23T10:09:00Z</time>
      </trkpt>
      <trkpt lat="45.94001" lon="4.77161">
        <ele>173</ele>
        <time>2017-08-23T10:09:01Z</time>
      </trkpt>
      <trkpt lat="45.94001" lon="4.77149">
        <ele>173</ele>
        <time>2017-08-23T10:09:03Z</time>
      </trkpt>
      <trkpt lat="45.94" lon="4.77144">
        <ele>173</ele>
        <time>2017-08-23T10:09:04Z</time>
      </trkpt>
      <trkpt lat="45.93999" lon="4.77132">
        <ele>170</ele>
        <time>2017-08-23T10:09:06Z</time>
      </trkpt>
      <trkpt lat="45.93998" lon="4.77126">
        <ele>170</ele>
        <time>2017-08-23T10:09:07Z</time>
      </trkpt>
      <trkpt lat="45.93997" lon="4.77114">
        <ele>170</ele>
        <time>2017-08-23T10:09:09Z</time>
      </trkpt>
      <trkpt lat="45.93996" lon="4.77108">
        <ele>170</ele>
        <time>2017-08-23T10:09:10Z</time>
      </trkpt>
      <trkpt lat="45.93997" lon="4.77097">
        <ele>171</ele>
        <time>2017-08-23T10:09:12Z</time>
      </trkpt>
      <trkpt lat="45.93998" lon="4.77093">
        <ele>171</ele>
        <time>2017-08-23T10:09:13Z</time>
      </trkpt>
      <trkpt lat="45.94001" lon="4.77083">
        <ele>172</ele>
        <time>2017-08-23T10:09:16Z</time>
      </trkpt>
      <trkpt lat="45.94004" lon="4.7708">
        <ele>172</ele>
        <time>2017-08-23T10:09:17Z</time>
      </trkpt>
      <trkpt lat="45.94006" lon="4.77067">
        <ele>173</ele>
        <time>2017-08-23T10:09:20Z</time>
      </trkpt>
      <trkpt lat="45.94005" lon="4.77063">
        <ele>173</ele>
        <time>2017-08-23T10:09:21Z</time>
      </trkpt>
      <trkpt lat="45.94003" lon="4.77054">
        <ele>173</ele>
        <time>2017-08-23T10:09:24Z</time>
      </trkpt>
      <trkpt lat="45.94001" lon="4.77051">
        <ele>173</ele>
        <time>2017-08-23T10:09:25Z</time>
      </trkpt>
      <trkpt lat="45.93997" lon="4.77041">
        <ele>170</ele>
        <time>2017-08-23T10:09:28Z</time>
      </trkpt>
      <trkpt lat="45.93996" lon="4.77038">
        <ele>170</ele>
        <time>2017-08-23T10:09:29Z</time>
      </trkpt>
      <trkpt lat="45.93991" lon="4.77029">
        <ele>170</ele>
        <time>2017-08-23T10:09:33Z</time>
      </trkpt>
      <trkpt lat="45.93989" lon="4.77026">
        <ele>170</ele>
        <time>2017-08-23T10:09:34Z</time>
      </trkpt>
      <trkpt lat="45.93985" lon="4.77016">
        <ele>170</ele>
        <time>2017-08-23T10:09:39Z</time>
      </trkpt>
      <trkpt lat="45.93983" lon="4.77014">
        <ele>170</ele>
        <time>2017-08-23T10:09:40Z</time>
      </trkpt>
      <trkpt lat="45.93982" lon="4.77011">
        <ele>170</ele>
        <time>2017-08-23T10:09:42Z</time>
      </trkpt>
      <trkpt lat="45.93981" lon="4.7701">
        <ele>170</ele>
        <time>2017-08-23T10:09:43Z</time>
      </trkpt>
      <trkpt lat="45.9398" lon="4.77008">
        <ele>170</ele>
        <time>2017-08-23T10:13:45Z</time>
      </trkpt>
      <trkpt lat="45.93973" lon="4.76999">
        <ele>170</ele>
        <time>2017-08-23T10:13:46Z</time>
      </trkpt>
      <trkpt lat="45.93967" lon="4.76991">
        <ele>170</ele>
        <time>2017-08-23T10:21:31Z</time>
      </trkpt>
      <trkpt lat="45.93967" lon="4.76988">
        <ele>170</ele>
        <time>2017-08-23T10:21:32Z</time>
      </trkpt>
      <trkpt lat="45.93964" lon="4.76977">
        <ele>170</ele>
        <time>2017-08-23T10:21:36Z</time>
      </trkpt>
      <trkpt lat="45.93963" lon="4.76973">
        <ele>170</ele>
        <time>2017-08-23T10:21:37Z</time>
      </trkpt>
      <trkpt lat="45.93962" lon="4.76961">
        <ele>170</ele>
        <time>2017-08-23T10:21:40Z</time>
      </trkpt>
      <trkpt lat="45.93961" lon="4.76957">
        <ele>170</ele>
        <time>2017-08-23T10:21:41Z</time>
      </trkpt>
      <trkpt lat="45.93958" lon="4.76945">
        <ele>171</ele>
        <time>2017-08-23T10:21:44Z</time>
      </trkpt>
      <trkpt lat="45.93957" lon="4.7694">
        <ele>171</ele>
        <time>2017-08-23T10:21:45Z</time>
      </trkpt>
      <trkpt lat="45.93955" lon="4.76929">
        <ele>171</ele>
        <time>2017-08-23T10:21:47Z</time>
      </trkpt>
      <trkpt lat="45.93953" lon="4.76924">
        <ele>171</ele>
        <time>2017-08-23T10:21:48Z</time>
      </trkpt>
      <trkpt lat="45.93951" lon="4.76914">
        <ele>172</ele>
        <time>2017-08-23T10:21:50Z</time>
      </trkpt>
      <trkpt lat="45.9395" lon="4.7691">
        <ele>172</ele>
        <time>2017-08-23T10:21:51Z</time>
      </trkpt>
      <trkpt lat="45.93946" lon="4.76903">
        <ele>172</ele>
        <time>2017-08-23T10:21:53Z</time>
      </trkpt>
      <trkpt lat="45.93944" lon="4.76898">
        <ele>172</ele>
        <time>2017-08-23T10:21:54Z</time>
      </trkpt>
      <trkpt lat="45.93939" lon="4.76889">
        <ele>172</ele>
        <time>2017-08-23T10:21:56Z</time>
      </trkpt>
      <trkpt lat="45.93936" lon="4.76884">
        <ele>172</ele>
        <time>2017-08-23T10:21:57Z</time>
      </trkpt>
      <trkpt lat="45.93931" lon="4.76875">
        <ele>172</ele>
        <time>2017-08-23T10:21:59Z</time>
      </trkpt>
      <trkpt lat="45.93929" lon="4.76871">
        <ele>172</ele>
        <time>2017-08-23T10:22:00Z</time>
      </trkpt>
      <trkpt lat="45.93925" lon="4.76863">
        <ele>172</ele>
        <time>2017-08-23T10:22:02Z</time>
      </trkpt>
      <trkpt lat="45.93922" lon="4.76859">
        <ele>172</ele>
        <time>2017-08-23T10:22:03Z</time>
      </trkpt>
      <trkpt lat="45.93917" lon="4.7685">
        <ele>173</ele>
        <time>2017-08-23T10:22:05Z</time>
      </trkpt>
      <trkpt lat="45.93914" lon="4.76845">
        <ele>172</ele>
        <time>2017-08-23T10:22:06Z</time>
      </trkpt>
      <trkpt lat="45.93909" lon="4.76836">
        <ele>172</ele>
        <time>2017-08-23T10:22:08Z</time>
      </trkpt>
      <trkpt lat="45.93906" lon="4.76831">
        <ele>172</ele>
        <time>2017-08-23T10:22:09Z</time>
      </trkpt>
      <trkpt lat="45.93901" lon="4.76822">
        <ele>172</ele>
        <time>2017-08-23T10:22:11Z</time>
      </trkpt>
      <trkpt lat="45.93898" lon="4.76818">
        <ele>172</ele>
        <time>2017-08-23T10:22:12Z</time>
      </trkpt>
      <trkpt lat="45.93892" lon="4.7681">
        <ele>171</ele>
        <time>2017-08-23T10:22:14Z</time>
      </trkpt>
      <trkpt lat="45.9389" lon="4.76806">
        <ele>171</ele>
        <time>2017-08-23T10:22:15Z</time>
      </trkpt>
      <trkpt lat="45.93885" lon="4.76798">
        <ele>171</ele>
        <time>2017-08-23T10:22:17Z</time>
      </trkpt>
      <trkpt lat="45.93883" lon="4.76793">
        <ele>171</ele>
        <time>2017-08-23T10:22:18Z</time>
      </trkpt>
      <trkpt lat="45.9388" lon="4.76787">
        <ele>171</ele>
        <time>2017-08-23T10:22:19Z</time>
      </trkpt>
      <trkpt lat="45.93877" lon="4.76783">
        <ele>171</ele>
        <time>2017-08-23T10:22:20Z</time>
      </trkpt>
      <trkpt lat="45.93871" lon="4.76773">
        <ele>171</ele>
        <time>2017-08-23T10:22:22Z</time>
      </trkpt>
      <trkpt lat="45.93869" lon="4.76768">
        <ele>171</ele>
        <time>2017-08-23T10:22:23Z</time>
      </trkpt>
      <trkpt lat="45.93864" lon="4.76759">
        <ele>172</ele>
        <time>2017-08-23T10:22:25Z</time>
      </trkpt>
      <trkpt lat="45.93861" lon="4.76755">
        <ele>172</ele>
        <time>2017-08-23T10:22:26Z</time>
      </trkpt>
      <trkpt lat="45.93855" lon="4.76746">
        <ele>173</ele>
        <time>2017-08-23T10:22:28Z</time>
      </trkpt>
      <trkpt lat="45.93852" lon="4.76741">
        <ele>173</ele>
        <time>2017-08-23T10:22:29Z</time>
      </trkpt>
      <trkpt lat="45.93848" lon="4.76734">
        <ele>172</ele>
        <time>2017-08-23T10:22:30Z</time>
      </trkpt>
      <trkpt lat="45.93845" lon="4.76729">
        <ele>172</ele>
        <time>2017-08-23T10:22:31Z</time>
      </trkpt>
      <trkpt lat="45.93842" lon="4.76723">
        <ele>172</ele>
        <time>2017-08-23T10:22:32Z</time>
      </trkpt>
      <trkpt lat="45.93839" lon="4.76718">
        <ele>172</ele>
        <time>2017-08-23T10:22:33Z</time>
      </trkpt>
      <trkpt lat="45.93833" lon="4.76708">
        <ele>170</ele>
        <time>2017-08-23T10:22:35Z</time>
      </trkpt>
      <trkpt lat="45.93831" lon="4.76703">
        <ele>170</ele>
        <time>2017-08-23T10:22:36Z</time>
      </trkpt>
      <trkpt lat="45.93827" lon="4.76698">
        <ele>170</ele>
        <time>2017-08-23T10:22:37Z</time>
      </trkpt>
      <trkpt lat="45.93824" lon="4.76693">
        <ele>170</ele>
        <time>2017-08-23T10:22:38Z</time>
      </trkpt>
      <trkpt lat="45.93822" lon="4.76689">
        <ele>170</ele>
        <time>2017-08-23T10:22:39Z</time>
      </trkpt>
      <trkpt lat="45.93818" lon="4.76683">
        <ele>170</ele>
        <time>2017-08-23T10:22:40Z</time>
      </trkpt>
      <trkpt lat="45.93816" lon="4.76678">
        <ele>170</ele>
        <time>2017-08-23T10:22:41Z</time>
      </trkpt>
      <trkpt lat="45.93813" lon="4.76672">
        <ele>170</ele>
        <time>2017-08-23T10:22:42Z</time>
      </trkpt>
      <trkpt lat="45.9381" lon="4.76666">
        <ele>170</ele>
        <time>2017-08-23T10:22:43Z</time>
      </trkpt>
      <trkpt lat="45.93808" lon="4.7666">
        <ele>170</ele>
        <time>2017-08-23T10:22:44Z</time>
      </trkpt>
      <trkpt lat="45.93805" lon="4.76654">
        <ele>170</ele>
        <time>2017-08-23T10:22:45Z</time>
      </trkpt>
      <trkpt lat="45.93803" lon="4.76648">
        <ele>169</ele>
        <time>2017-08-23T10:22:46Z</time>
      </trkpt>
      <trkpt lat="45.93798" lon="4.76637">
        <ele>169</ele>
        <time>2017-08-23T10:22:48Z</time>
      </trkpt>
      <trkpt lat="45.93796" lon="4.76632">
        <ele>169</ele>
        <time>2017-08-23T10:22:49Z</time>
      </trkpt>
      <trkpt lat="45.93792" lon="4.76622">
        <ele>169</ele>
        <time>2017-08-23T10:22:51Z</time>
      </trkpt>
      <trkpt lat="45.9379" lon="4.76616">
        <ele>169</ele>
        <time>2017-08-23T10:22:52Z</time>
      </trkpt>
      <trkpt lat="45.93786" lon="4.76605">
        <ele>169</ele>
        <time>2017-08-23T10:22:54Z</time>
      </trkpt>
      <trkpt lat="45.93784" lon="4.76599">
        <ele>169</ele>
        <time>2017-08-23T10:22:55Z</time>
      </trkpt>
      <trkpt lat="45.93782" lon="4.76593">
        <ele>169</ele>
        <time>2017-08-23T10:22:56Z</time>
      </trkpt>
      <trkpt lat="45.9378" lon="4.76587">
        <ele>169</ele>
        <time>2017-08-23T10:22:57Z</time>
      </trkpt>
      <trkpt lat="45.93775" lon="4.76577">
        <ele>170</ele>
        <time>2017-08-23T10:22:59Z</time>
      </trkpt>
      <trkpt lat="45.93774" lon="4.76572">
        <ele>170</ele>
        <time>2017-08-23T10:23:00Z</time>
      </trkpt>
      <trkpt lat="45.93771" lon="4.76566">
        <ele>170</ele>
        <time>2017-08-23T10:23:01Z</time>
      </trkpt>
      <trkpt lat="45.93768" lon="4.7656">
        <ele>170</ele>
        <time>2017-08-23T10:23:02Z</time>
      </trkpt>
      <trkpt lat="45.93766" lon="4.76554">
        <ele>170</ele>
        <time>2017-08-23T10:23:03Z</time>
      </trkpt>
      <trkpt lat="45.93764" lon="4.76548">
        <ele>170</ele>
        <time>2017-08-23T10:23:04Z</time>
      </trkpt>
      <trkpt lat="45.93762" lon="4.76541">
        <ele>170</ele>
        <time>2017-08-23T10:23:05Z</time>
      </trkpt>
      <trkpt lat="45.93761" lon="4.76535">
        <ele>170</ele>
        <time>2017-08-23T10:23:06Z</time>
      </trkpt>
      <trkpt lat="45.93759" lon="4.76529">
        <ele>170</ele>
        <time>2017-08-23T10:23:07Z</time>
      </trkpt>
      <trkpt lat="45.93757" lon="4.76522">
        <ele>170</ele>
        <time>2017-08-23T10:23:08Z</time>
      </trkpt>
      <trkpt lat="45.93753" lon="4.76511">
        <ele>170</ele>
        <time>2017-08-23T10:23:10Z</time>
      </trkpt>
      <trkpt lat="45.93752" lon="4.76506">
        <ele>170</ele>
        <time>2017-08-23T10:23:11Z</time>
      </trkpt>
      <trkpt lat="45.93749" lon="4.76496">
        <ele>170</ele>
        <time>2017-08-23T10:23:13Z</time>
      </trkpt>
      <trkpt lat="45.93746" lon="4.7649">
        <ele>169</ele>
        <time>2017-08-23T10:23:14Z</time>
      </trkpt>
      <trkpt lat="45.93744" lon="4.76484">
        <ele>169</ele>
        <time>2017-08-23T10:23:15Z</time>
      </trkpt>
      <trkpt lat="45.93742" lon="4.76477">
        <ele>169</ele>
        <time>2017-08-23T10:23:16Z</time>
      </trkpt>
      <trkpt lat="45.9374" lon="4.76471">
        <ele>169</ele>
        <time>2017-08-23T10:23:17Z</time>
      </trkpt>
      <trkpt lat="45.93738" lon="4.76465">
        <ele>169</ele>
        <time>2017-08-23T10:23:18Z</time>
      </trkpt>
      <trkpt lat="45.93734" lon="4.76454">
        <ele>169</ele>
        <time>2017-08-23T10:23:20Z</time>
      </trkpt>
      <trkpt lat="45.93732" lon="4.76448">
        <ele>169</ele>
        <time>2017-08-23T10:23:21Z</time>
      </trkpt>
      <trkpt lat="45.93728" lon="4.76438">
        <ele>169</ele>
        <time>2017-08-23T10:23:23Z</time>
      </trkpt>
      <trkpt lat="45.93727" lon="4.76433">
        <ele>169</ele>
        <time>2017-08-23T10:23:24Z</time>
      </trkpt>
      <trkpt lat="45.93724" lon="4.76423">
        <ele>169</ele>
        <time>2017-08-23T10:23:26Z</time>
      </trkpt>
      <trkpt lat="45.93722" lon="4.76418">
        <ele>169</ele>
        <time>2017-08-23T10:23:27Z</time>
      </trkpt>
      <trkpt lat="45.93718" lon="4.76406">
        <ele>169</ele>
        <time>2017-08-23T10:23:29Z</time>
      </trkpt>
      <trkpt lat="45.93716" lon="4.76401">
        <ele>169</ele>
        <time>2017-08-23T10:23:30Z</time>
      </trkpt>
      <trkpt lat="45.93712" lon="4.76391">
        <ele>169</ele>
        <time>2017-08-23T10:23:32Z</time>
      </trkpt>
      <trkpt lat="45.93711" lon="4.76387">
        <ele>169</ele>
        <time>2017-08-23T10:23:33Z</time>
      </trkpt>
      <trkpt lat="45.93707" lon="4.76378">
        <ele>169</ele>
        <time>2017-08-23T10:23:35Z</time>
      </trkpt>
      <trkpt lat="45.93706" lon="4.76374">
        <ele>169</ele>
        <time>2017-08-23T10:23:36Z</time>
      </trkpt>
      <trkpt lat="45.93703" lon="4.76364">
        <ele>169</ele>
        <time>2017-08-23T10:23:38Z</time>
      </trkpt>
      <trkpt lat="45.93701" lon="4.76359">
        <ele>169</ele>
        <time>2017-08-23T10:23:39Z</time>
      </trkpt>
      <trkpt lat="45.93697" lon="4.76347">
        <ele>169</ele>
        <time>2017-08-23T10:23:41Z</time>
      </trkpt>
      <trkpt lat="45.93696" lon="4.76342">
        <ele>169</ele>
        <time>2017-08-23T10:23:42Z</time>
      </trkpt>
      <trkpt lat="45.93692" lon="4.76333">
        <ele>170</ele>
        <time>2017-08-23T10:23:44Z</time>
      </trkpt>
      <trkpt lat="45.93691" lon="4.76328">
        <ele>170</ele>
        <time>2017-08-23T10:23:45Z</time>
      </trkpt>
      <trkpt lat="45.93687" lon="4.76319">
        <ele>170</ele>
        <time>2017-08-23T10:23:48Z</time>
      </trkpt>
      <trkpt lat="45.93685" lon="4.76316">
        <ele>170</ele>
        <time>2017-08-23T10:23:49Z</time>
      </trkpt>
      <trkpt lat="45.9368" lon="4.76308">
        <ele>170</ele>
        <time>2017-08-23T10:23:51Z</time>
      </trkpt>
      <trkpt lat="45.93677" lon="4.76302">
        <ele>170</ele>
        <time>2017-08-23T10:23:52Z</time>
      </trkpt>
      <trkpt lat="45.93675" lon="4.76296">
        <ele>170</ele>
        <time>2017-08-23T10:23:53Z</time>
      </trkpt>
      <trkpt lat="45.93673" lon="4.7629">
        <ele>170</ele>
        <time>2017-08-23T10:23:54Z</time>
      </trkpt>
      <trkpt lat="45.93671" lon="4.76284">
        <ele>170</ele>
        <time>2017-08-23T10:23:55Z</time>
      </trkpt>
      <trkpt lat="45.93668" lon="4.76278">
        <ele>170</ele>
        <time>2017-08-23T10:23:56Z</time>
      </trkpt>
      <trkpt lat="45.93665" lon="4.76266">
        <ele>169</ele>
        <time>2017-08-23T10:23:58Z</time>
      </trkpt>
      <trkpt lat="45.93664" lon="4.7626">
        <ele>169</ele>
        <time>2017-08-23T10:23:59Z</time>
      </trkpt>
      <trkpt lat="45.93662" lon="4.76248">
        <ele>170</ele>
        <time>2017-08-23T10:24:01Z</time>
      </trkpt>
      <trkpt lat="45.9366" lon="4.76242">
        <ele>170</ele>
        <time>2017-08-23T10:24:02Z</time>
      </trkpt>
      <trkpt lat="45.93658" lon="4.76236">
        <ele>169</ele>
        <time>2017-08-23T10:24:03Z</time>
      </trkpt>
      <trkpt lat="45.93655" lon="4.7623">
        <ele>169</ele>
        <time>2017-08-23T10:24:04Z</time>
      </trkpt>
      <trkpt lat="45.9365" lon="4.7622">
        <ele>169</ele>
        <time>2017-08-23T10:24:06Z</time>
      </trkpt>
      <trkpt lat="45.93649" lon="4.76215">
        <ele>169</ele>
        <time>2017-08-23T10:24:07Z</time>
      </trkpt>
      <trkpt lat="45.93645" lon="4.76203">
        <ele>169</ele>
        <time>2017-08-23T10:24:09Z</time>
      </trkpt>
      <trkpt lat="45.93644" lon="4.76198">
        <ele>169</ele>
        <time>2017-08-23T10:24:10Z</time>
      </trkpt>
      <trkpt lat="45.9364" lon="4.76186">
        <ele>169</ele>
        <time>2017-08-23T10:24:12Z</time>
      </trkpt>
      <trkpt lat="45.93638" lon="4.7618">
        <ele>169</ele>
        <time>2017-08-23T10:24:13Z</time>
      </trkpt>
      <trkpt lat="45.93634" lon="4.76169">
        <ele>169</ele>
        <time>2017-08-23T10:24:15Z</time>
      </trkpt>
      <trkpt lat="45.93632" lon="4.76164">
        <ele>170</ele>
        <time>2017-08-23T10:24:16Z</time>
      </trkpt>
      <trkpt lat="45.93629" lon="4.76153">
        <ele>170</ele>
        <time>2017-08-23T10:24:18Z</time>
      </trkpt>
      <trkpt lat="45.93627" lon="4.76149">
        <ele>169</ele>
        <time>2017-08-23T10:24:19Z</time>
      </trkpt>
      <trkpt lat="45.93624" lon="4.76138">
        <ele>169</ele>
        <time>2017-08-23T10:24:21Z</time>
      </trkpt>
      <trkpt lat="45.93623" lon="4.76132">
        <ele>169</ele>
        <time>2017-08-23T10:24:22Z</time>
      </trkpt>
      <trkpt lat="45.9362" lon="4.76126">
        <ele>169</ele>
        <time>2017-08-23T10:24:23Z</time>
      </trkpt>
      <trkpt lat="45.93618" lon="4.7612">
        <ele>169</ele>
        <time>2017-08-23T10:24:24Z</time>
      </trkpt>
      <trkpt lat="45.93614" lon="4.76108">
        <ele>170</ele>
        <time>2017-08-23T10:24:26Z</time>
      </trkpt>
      <trkpt lat="45.93612" lon="4.76102">
        <ele>170</ele>
        <time>2017-08-23T10:24:27Z</time>
      </trkpt>
      <trkpt lat="45.93608" lon="4.76092">
        <ele>170</ele>
        <time>2017-08-23T10:24:29Z</time>
      </trkpt>
      <trkpt lat="45.93605" lon="4.76087">
        <ele>170</ele>
        <time>2017-08-23T10:24:30Z</time>
      </trkpt>
      <trkpt lat="45.93603" lon="4.76082">
        <ele>170</ele>
        <time>2017-08-23T10:24:31Z</time>
      </trkpt>
      <trkpt lat="45.93601" lon="4.76076">
        <ele>170</ele>
        <time>2017-08-23T10:24:32Z</time>
      </trkpt>
      <trkpt lat="45.93599" lon="4.7607">
        <ele>170</ele>
        <time>2017-08-23T10:24:33Z</time>
      </trkpt>
      <trkpt lat="45.93597" lon="4.76064">
        <ele>170</ele>
        <time>2017-08-23T10:24:34Z</time>
      </trkpt>
      <trkpt lat="45.93594" lon="4.76058">
        <ele>170</ele>
        <time>2017-08-23T10:24:35Z</time>
      </trkpt>
      <trkpt lat="45.93591" lon="4.7605">
        <ele>170</ele>
        <time>2017-08-23T10:24:36Z</time>
      </trkpt>
      <trkpt lat="45.93587" lon="4.76039">
        <ele>170</ele>
        <time>2017-08-23T10:24:38Z</time>
      </trkpt>
      <trkpt lat="45.93585" lon="4.76033">
        <ele>170</ele>
        <time>2017-08-23T10:24:39Z</time>
      </trkpt>
      <trkpt lat="45.93582" lon="4.76023">
        <ele>170</ele>
        <time>2017-08-23T10:24:41Z</time>
      </trkpt>
      <trkpt lat="45.9358" lon="4.76018">
        <ele>170</ele>
        <time>2017-08-23T10:24:42Z</time>
      </trkpt>
      <trkpt lat="45.93577" lon="4.76006">
        <ele>171</ele>
        <time>2017-08-23T10:24:44Z</time>
      </trkpt>
      <trkpt lat="45.93576" lon="4.76">
        <ele>171</ele>
        <time>2017-08-23T10:24:45Z</time>
      </trkpt>
      <trkpt lat="45.93574" lon="4.75994">
        <ele>171</ele>
        <time>2017-08-23T10:24:46Z</time>
      </trkpt>
      <trkpt lat="45.93572" lon="4.75988">
        <ele>170</ele>
        <time>2017-08-23T10:24:47Z</time>
      </trkpt>
      <trkpt lat="45.93569" lon="4.75981">
        <ele>170</ele>
        <time>2017-08-23T10:24:48Z</time>
      </trkpt>
      <trkpt lat="45.93567" lon="4.75975">
        <ele>170</ele>
        <time>2017-08-23T10:24:49Z</time>
      </trkpt>
      <trkpt lat="45.93565" lon="4.75968">
        <ele>169</ele>
        <time>2017-08-23T10:24:50Z</time>
      </trkpt>
      <trkpt lat="45.93563" lon="4.75963">
        <ele>169</ele>
        <time>2017-08-23T10:24:51Z</time>
      </trkpt>
      <trkpt lat="45.93559" lon="4.75951">
        <ele>169</ele>
        <time>2017-08-23T10:24:53Z</time>
      </trkpt>
      <trkpt lat="45.93557" lon="4.75945">
        <ele>169</ele>
        <time>2017-08-23T10:24:54Z</time>
      </trkpt>
      <trkpt lat="45.93553" lon="4.75935">
        <ele>169</ele>
        <time>2017-08-23T10:24:56Z</time>
      </trkpt>
      <trkpt lat="45.93552" lon="4.75929">
        <ele>169</ele>
        <time>2017-08-23T10:24:57Z</time>
      </trkpt>
      <trkpt lat="45.9355" lon="4.7592">
        <ele>169</ele>
        <time>2017-08-23T10:24:59Z</time>
      </trkpt>
      <trkpt lat="45.93548" lon="4.75916">
        <ele>169</ele>
        <time>2017-08-23T10:25:00Z</time>
      </trkpt>
      <trkpt lat="45.93547" lon="4.75904">
        <ele>169</ele>
        <time>2017-08-23T10:25:03Z</time>
      </trkpt>
      <trkpt lat="45.93546" lon="4.759">
        <ele>169</ele>
        <time>2017-08-23T10:25:04Z</time>
      </trkpt>
      <trkpt lat="45.93546" lon="4.75892">
        <ele>169</ele>
        <time>2017-08-23T10:25:05Z</time>
      </trkpt>
      <trkpt lat="45.93544" lon="4.75886">
        <ele>169</ele>
        <time>2017-08-23T10:25:06Z</time>
      </trkpt>
      <trkpt lat="45.93541" lon="4.75876">
        <ele>169</ele>
        <time>2017-08-23T10:25:08Z</time>
      </trkpt>
      <trkpt lat="45.93538" lon="4.7587">
        <ele>169</ele>
        <time>2017-08-23T10:25:09Z</time>
      </trkpt>
      <trkpt lat="45.93536" lon="4.75863">
        <ele>169</ele>
        <time>2017-08-23T10:25:10Z</time>
      </trkpt>
      <trkpt lat="45.93535" lon="4.75856">
        <ele>169</ele>
        <time>2017-08-23T10:25:11Z</time>
      </trkpt>
      <trkpt lat="45.93533" lon="4.75845">
        <ele>169</ele>
        <time>2017-08-23T10:25:13Z</time>
      </trkpt>
      <trkpt lat="45.93533" lon="4.7584">
        <ele>168</ele>
        <time>2017-08-23T10:25:14Z</time>
      </trkpt>
      <trkpt lat="45.93531" lon="4.75829">
        <ele>169</ele>
        <time>2017-08-23T10:25:16Z</time>
      </trkpt>
      <trkpt lat="45.93531" lon="4.75823">
        <ele>169</ele>
        <time>2017-08-23T10:25:17Z</time>
      </trkpt>
      <trkpt lat="45.93531" lon="4.75816">
        <ele>169</ele>
        <time>2017-08-23T10:25:18Z</time>
      </trkpt>
      <trkpt lat="45.93531" lon="4.75808">
        <ele>169</ele>
        <time>2017-08-23T10:25:19Z</time>
      </trkpt>
      <trkpt lat="45.93531" lon="4.75801">
        <ele>169</ele>
        <time>2017-08-23T10:25:20Z</time>
      </trkpt>
      <trkpt lat="45.93532" lon="4.75795">
        <ele>169</ele>
        <time>2017-08-23T10:25:21Z</time>
      </trkpt>
      <trkpt lat="45.93533" lon="4.75782">
        <ele>169</ele>
        <time>2017-08-23T10:25:23Z</time>
      </trkpt>
      <trkpt lat="45.93534" lon="4.75776">
        <ele>169</ele>
        <time>2017-08-23T10:25:24Z</time>
      </trkpt>
      <trkpt lat="45.93535" lon="4.75766">
        <ele>169</ele>
        <time>2017-08-23T10:25:26Z</time>
      </trkpt>
      <trkpt lat="45.93536" lon="4.7576">
        <ele>169</ele>
        <time>2017-08-23T10:25:27Z</time>
      </trkpt>
      <trkpt lat="45.93537" lon="4.75751">
        <ele>170</ele>
        <time>2017-08-23T10:25:29Z</time>
      </trkpt>
      <trkpt lat="45.93538" lon="4.75746">
        <ele>170</ele>
        <time>2017-08-23T10:25:30Z</time>
      </trkpt>
      <trkpt lat="45.93539" lon="4.75736">
        <ele>170</ele>
        <time>2017-08-23T10:25:32Z</time>
      </trkpt>
      <trkpt lat="45.9354" lon="4.75729">
        <ele>170</ele>
        <time>2017-08-23T10:25:33Z</time>
      </trkpt>
      <trkpt lat="45.93542" lon="4.75721">
        <ele>170</ele>
        <time>2017-08-23T10:25:34Z</time>
      </trkpt>
      <trkpt lat="45.93543" lon="4.75713">
        <ele>170</ele>
        <time>2017-08-23T10:25:35Z</time>
      </trkpt>
      <trkpt lat="45.93545" lon="4.75704">
        <ele>170</ele>
        <time>2017-08-23T10:25:36Z</time>
      </trkpt>
      <trkpt lat="45.93546" lon="4.75692">
        <ele>170</ele>
        <time>2017-08-23T10:25:37Z</time>
      </trkpt>
      <trkpt lat="45.93547" lon="4.75683">
        <ele>170</ele>
        <time>2017-08-23T10:25:38Z</time>
      </trkpt>
      <trkpt lat="45.93549" lon="4.75677">
        <ele>170</ele>
        <time>2017-08-23T10:25:39Z</time>
      </trkpt>
      <trkpt lat="45.9355" lon="4.75666">
        <ele>170</ele>
        <time>2017-08-23T10:25:41Z</time>
      </trkpt>
      <trkpt lat="45.9355" lon="4.75661">
        <ele>170</ele>
        <time>2017-08-23T10:25:42Z</time>
      </trkpt>
      <trkpt lat="45.93551" lon="4.7565">
        <ele>170</ele>
        <time>2017-08-23T10:25:44Z</time>
      </trkpt>
      <trkpt lat="45.93552" lon="4.75646">
        <ele>170</ele>
        <time>2017-08-23T10:25:45Z</time>
      </trkpt>
      <trkpt lat="45.93554" lon="4.75633">
        <ele>170</ele>
        <time>2017-08-23T10:25:47Z</time>
      </trkpt>
      <trkpt lat="45.93556" lon="4.75626">
        <ele>170</ele>
        <time>2017-08-23T10:25:48Z</time>
      </trkpt>
      <trkpt lat="45.93557" lon="4.75619">
        <ele>170</ele>
        <time>2017-08-23T10:25:49Z</time>
      </trkpt>
      <trkpt lat="45.93558" lon="4.75612">
        <ele>170</ele>
        <time>2017-08-23T10:25:50Z</time>
      </trkpt>
      <trkpt lat="45.9356" lon="4.75603">
        <ele>170</ele>
        <time>2017-08-23T10:25:51Z</time>
      </trkpt>
      <trkpt lat="45.93562" lon="4.75596">
        <ele>170</ele>
        <time>2017-08-23T10:25:52Z</time>
      </trkpt>
      <trkpt lat="45.93563" lon="4.75588">
        <ele>170</ele>
        <time>2017-08-23T10:25:53Z</time>
      </trkpt>
      <trkpt lat="45.93564" lon="4.75581">
        <ele>170</ele>
        <time>2017-08-23T10:25:54Z</time>
      </trkpt>
      <trkpt lat="45.93566" lon="4.75574">
        <ele>170</ele>
        <time>2017-08-23T10:25:55Z</time>
      </trkpt>
      <trkpt lat="45.93567" lon="4.75568">
        <ele>170</ele>
        <time>2017-08-23T10:25:56Z</time>
      </trkpt>
      <trkpt lat="45.93569" lon="4.75556">
        <ele>170</ele>
        <time>2017-08-23T10:25:58Z</time>
      </trkpt>
      <trkpt lat="45.9357" lon="4.7555">
        <ele>169</ele>
        <time>2017-08-23T10:25:59Z</time>
      </trkpt>
      <trkpt lat="45.93571" lon="4.75539">
        <ele>169</ele>
        <time>2017-08-23T10:26:01Z</time>
      </trkpt>
      <trkpt lat="45.93572" lon="4.75533">
        <ele>169</ele>
        <time>2017-08-23T10:26:02Z</time>
      </trkpt>
      <trkpt lat="45.93573" lon="4.75527">
        <ele>169</ele>
        <time>2017-08-23T10:26:03Z</time>
      </trkpt>
      <trkpt lat="45.93574" lon="4.7552">
        <ele>169</ele>
        <time>2017-08-23T10:26:04Z</time>
      </trkpt>
      <trkpt lat="45.93575" lon="4.75512">
        <ele>169</ele>
        <time>2017-08-23T10:26:05Z</time>
      </trkpt>
      <trkpt lat="45.93576" lon="4.75504">
        <ele>170</ele>
        <time>2017-08-23T10:26:06Z</time>
      </trkpt>
      <trkpt lat="45.93576" lon="4.75497">
        <ele>169</ele>
        <time>2017-08-23T10:26:07Z</time>
      </trkpt>
      <trkpt lat="45.93577" lon="4.75489">
        <ele>169</ele>
        <time>2017-08-23T10:26:08Z</time>
      </trkpt>
      <trkpt lat="45.93578" lon="4.75482">
        <ele>169</ele>
        <time>2017-08-23T10:26:09Z</time>
      </trkpt>
      <trkpt lat="45.93579" lon="4.75476">
        <ele>168</ele>
        <time>2017-08-23T10:26:10Z</time>
      </trkpt>
      <trkpt lat="45.93581" lon="4.75464">
        <ele>168</ele>
        <time>2017-08-23T10:26:12Z</time>
      </trkpt>
      <trkpt lat="45.93582" lon="4.75459">
        <ele>168</ele>
        <time>2017-08-23T10:26:13Z</time>
      </trkpt>
      <trkpt lat="45.93583" lon="4.75448">
        <ele>168</ele>
        <time>2017-08-23T10:26:15Z</time>
      </trkpt>
      <trkpt lat="45.93585" lon="4.75443">
        <ele>169</ele>
        <time>2017-08-23T10:26:16Z</time>
      </trkpt>
      <trkpt lat="45.93587" lon="4.75432">
        <ele>169</ele>
        <time>2017-08-23T10:26:18Z</time>
      </trkpt>
      <trkpt lat="45.93588" lon="4.75425">
        <ele>168</ele>
        <time>2017-08-23T10:26:19Z</time>
      </trkpt>
      <trkpt lat="45.9359" lon="4.75414">
        <ele>168</ele>
        <time>2017-08-23T10:26:21Z</time>
      </trkpt>
      <trkpt lat="45.93591" lon="4.75409">
        <ele>168</ele>
        <time>2017-08-23T10:26:22Z</time>
      </trkpt>
      <trkpt lat="45.93593" lon="4.754">
        <ele>169</ele>
        <time>2017-08-23T10:26:24Z</time>
      </trkpt>
      <trkpt lat="45.93593" lon="4.75396">
        <ele>169</ele>
        <time>2017-08-23T10:26:25Z</time>
      </trkpt>
      <trkpt lat="45.93595" lon="4.75386">
        <ele>169</ele>
        <time>2017-08-23T10:26:28Z</time>
      </trkpt>
      <trkpt lat="45.93596" lon="4.75382">
        <ele>169</ele>
        <time>2017-08-23T10:26:29Z</time>
      </trkpt>
      <trkpt lat="45.93598" lon="4.75373">
        <ele>169</ele>
        <time>2017-08-23T10:26:31Z</time>
      </trkpt>
      <trkpt lat="45.93599" lon="4.75367">
        <ele>169</ele>
        <time>2017-08-23T10:26:32Z</time>
      </trkpt>
      <trkpt lat="45.936" lon="4.7536">
        <ele>169</ele>
        <time>2017-08-23T10:26:33Z</time>
      </trkpt>
      <trkpt lat="45.93601" lon="4.75353">
        <ele>169</ele>
        <time>2017-08-23T10:26:34Z</time>
      </trkpt>
      <trkpt lat="45.93603" lon="4.75345">
        <ele>169</ele>
        <time>2017-08-23T10:26:35Z</time>
      </trkpt>
      <trkpt lat="45.93605" lon="4.75337">
        <ele>169</ele>
        <time>2017-08-23T10:26:36Z</time>
      </trkpt>
      <trkpt lat="45.93606" lon="4.7533">
        <ele>169</ele>
        <time>2017-08-23T10:26:37Z</time>
      </trkpt>
      <trkpt lat="45.93608" lon="4.75322">
        <ele>169</ele>
        <time>2017-08-23T10:26:38Z</time>
      </trkpt>
      <trkpt lat="45.93609" lon="4.75313">
        <ele>169</ele>
        <time>2017-08-23T10:26:39Z</time>
      </trkpt>
      <trkpt lat="45.93611" lon="4.75307">
        <ele>169</ele>
        <time>2017-08-23T10:26:40Z</time>
      </trkpt>
      <trkpt lat="45.93613" lon="4.75298">
        <ele>168</ele>
        <time>2017-08-23T10:26:41Z</time>
      </trkpt>
      <trkpt lat="45.93614" lon="4.75291">
        <ele>168</ele>
        <time>2017-08-23T10:26:42Z</time>
      </trkpt>
      <trkpt lat="45.93615" lon="4.75284">
        <ele>168</ele>
        <time>2017-08-23T10:26:43Z</time>
      </trkpt>
      <trkpt lat="45.93616" lon="4.75277">
        <ele>168</ele>
        <time>2017-08-23T10:26:44Z</time>
      </trkpt>
      <trkpt lat="45.93619" lon="4.75266">
        <ele>168</ele>
        <time>2017-08-23T10:26:46Z</time>
      </trkpt>
      <trkpt lat="45.93621" lon="4.7526">
        <ele>168</ele>
        <time>2017-08-23T10:26:47Z</time>
      </trkpt>
      <trkpt lat="45.93623" lon="4.75249">
        <ele>167</ele>
        <time>2017-08-23T10:26:49Z</time>
      </trkpt>
      <trkpt lat="45.93625" lon="4.75243">
        <ele>167</ele>
        <time>2017-08-23T10:26:50Z</time>
      </trkpt>
      <trkpt lat="45.93626" lon="4.75237">
        <ele>167</ele>
        <time>2017-08-23T10:26:51Z</time>
      </trkpt>
      <trkpt lat="45.93628" lon="4.7523">
        <ele>167</ele>
        <time>2017-08-23T10:26:52Z</time>
      </trkpt>
      <trkpt lat="45.9363" lon="4.75223">
        <ele>167</ele>
        <time>2017-08-23T10:26:53Z</time>
      </trkpt>
      <trkpt lat="45.93632" lon="4.75217">
        <ele>168</ele>
        <time>2017-08-23T10:26:54Z</time>
      </trkpt>
      <trkpt lat="45.93634" lon="4.7521">
        <ele>168</ele>
        <time>2017-08-23T10:26:55Z</time>
      </trkpt>
      <trkpt lat="45.93635" lon="4.75204">
        <ele>168</ele>
        <time>2017-08-23T10:26:56Z</time>
      </trkpt>
      <trkpt lat="45.93639" lon="4.75193">
        <ele>168</ele>
        <time>2017-08-23T10:26:58Z</time>
      </trkpt>
      <trkpt lat="45.93641" lon="4.75187">
        <ele>168</ele>
        <time>2017-08-23T10:26:59Z</time>
      </trkpt>
      <trkpt lat="45.93644" lon="4.7518">
        <ele>168</ele>
        <time>2017-08-23T10:27:00Z</time>
      </trkpt>
      <trkpt lat="45.93646" lon="4.75173">
        <ele>168</ele>
        <time>2017-08-23T10:27:01Z</time>
      </trkpt>
      <trkpt lat="45.93648" lon="4.75167">
        <ele>169</ele>
        <time>2017-08-23T10:27:02Z</time>
      </trkpt>
      <trkpt lat="45.93651" lon="4.75161">
        <ele>169</ele>
        <time>2017-08-23T10:27:03Z</time>
      </trkpt>
      <trkpt lat="45.93653" lon="4.75154">
        <ele>168</ele>
        <time>2017-08-23T10:27:04Z</time>
      </trkpt>
      <trkpt lat="45.93655" lon="4.75149">
        <ele>168</ele>
        <time>2017-08-23T10:27:05Z</time>
      </trkpt>
      <trkpt lat="45.93658" lon="4.75138">
        <ele>168</ele>
        <time>2017-08-23T10:27:07Z</time>
      </trkpt>
      <trkpt lat="45.9366" lon="4.75133">
        <ele>168</ele>
        <time>2017-08-23T10:27:08Z</time>
      </trkpt>
      <trkpt lat="45.93663" lon="4.75127">
        <ele>168</ele>
        <time>2017-08-23T10:27:09Z</time>
      </trkpt>
      <trkpt lat="45.93666" lon="4.7512">
        <ele>168</ele>
        <time>2017-08-23T10:27:10Z</time>
      </trkpt>
      <trkpt lat="45.93668" lon="4.75113">
        <ele>168</ele>
        <time>2017-08-23T10:27:11Z</time>
      </trkpt>
      <trkpt lat="45.93671" lon="4.75107">
        <ele>168</ele>
        <time>2017-08-23T10:27:12Z</time>
      </trkpt>
      <trkpt lat="45.93674" lon="4.751">
        <ele>168</ele>
        <time>2017-08-23T10:27:13Z</time>
      </trkpt>
      <trkpt lat="45.93677" lon="4.75094">
        <ele>168</ele>
        <time>2017-08-23T10:27:14Z</time>
      </trkpt>
      <trkpt lat="45.9368" lon="4.75089">
        <ele>168</ele>
        <time>2017-08-23T10:27:15Z</time>
      </trkpt>
      <trkpt lat="45.93682" lon="4.75082">
        <ele>167</ele>
        <time>2017-08-23T10:27:16Z</time>
      </trkpt>
      <trkpt lat="45.93684" lon="4.75076">
        <ele>167</ele>
        <time>2017-08-23T10:27:17Z</time>
      </trkpt>
      <trkpt lat="45.93686" lon="4.7507">
        <ele>167</ele>
        <time>2017-08-23T10:27:18Z</time>
      </trkpt>
      <trkpt lat="45.9369" lon="4.7506">
        <ele>167</ele>
        <time>2017-08-23T10:27:20Z</time>
      </trkpt>
      <trkpt lat="45.93692" lon="4.75056">
        <ele>167</ele>
        <time>2017-08-23T10:27:21Z</time>
      </trkpt>
      <trkpt lat="45.93696" lon="4.75044">
        <ele>167</ele>
        <time>2017-08-23T10:27:23Z</time>
      </trkpt>
      <trkpt lat="45.93698" lon="4.75038">
        <ele>167</ele>
        <time>2017-08-23T10:27:24Z</time>
      </trkpt>
      <trkpt lat="45.93701" lon="4.7503">
        <ele>167</ele>
        <time>2017-08-23T10:27:25Z</time>
      </trkpt>
      <trkpt lat="45.93704" lon="4.75023">
        <ele>167</ele>
        <time>2017-08-23T10:27:26Z</time>
      </trkpt>
      <trkpt lat="45.93707" lon="4.75017">
        <ele>167</ele>
        <time>2017-08-23T10:27:27Z</time>
      </trkpt>
      <trkpt lat="45.9371" lon="4.7501">
        <ele>167</ele>
        <time>2017-08-23T10:27:28Z</time>
      </trkpt>
      <trkpt lat="45.93712" lon="4.75005">
        <ele>167</ele>
        <time>2017-08-23T10:27:29Z</time>
      </trkpt>
      <trkpt lat="45.93715" lon="4.74999">
        <ele>168</ele>
        <time>2017-08-23T10:27:30Z</time>
      </trkpt>
      <trkpt lat="45.93718" lon="4.7499">
        <ele>168</ele>
        <time>2017-08-23T10:27:32Z</time>
      </trkpt>
      <trkpt lat="45.9372" lon="4.74986">
        <ele>168</ele>
        <time>2017-08-23T10:27:33Z</time>
      </trkpt>
      <trkpt lat="45.93724" lon="4.74977">
        <ele>168</ele>
        <time>2017-08-23T10:27:35Z</time>
      </trkpt>
      <trkpt lat="45.93727" lon="4.74971">
        <ele>168</ele>
        <time>2017-08-23T10:27:36Z</time>
      </trkpt>
      <trkpt lat="45.93729" lon="4.74965">
        <ele>168</ele>
        <time>2017-08-23T10:27:37Z</time>
      </trkpt>
      <trkpt lat="45.93733" lon="4.74959">
        <ele>169</ele>
        <time>2017-08-23T10:27:38Z</time>
      </trkpt>
      <trkpt lat="45.93736" lon="4.74953">
        <ele>169</ele>
        <time>2017-08-23T10:27:39Z</time>
      </trkpt>
      <trkpt lat="45.9374" lon="4.74945">
        <ele>169</ele>
        <time>2017-08-23T10:27:40Z</time>
      </trkpt>
      <trkpt lat="45.93743" lon="4.74939">
        <ele>169</ele>
        <time>2017-08-23T10:27:41Z</time>
      </trkpt>
      <trkpt lat="45.93745" lon="4.74934">
        <ele>170</ele>
        <time>2017-08-23T10:27:42Z</time>
      </trkpt>
      <trkpt lat="45.9375" lon="4.74924">
        <ele>171</ele>
        <time>2017-08-23T10:27:44Z</time>
      </trkpt>
      <trkpt lat="45.93753" lon="4.74919">
        <ele>171</ele>
        <time>2017-08-23T10:27:45Z</time>
      </trkpt>
      <trkpt lat="45.93757" lon="4.74911">
        <ele>170</ele>
        <time>2017-08-23T10:27:47Z</time>
      </trkpt>
      <trkpt lat="45.9376" lon="4.74906">
        <ele>170</ele>
        <time>2017-08-23T10:27:48Z</time>
      </trkpt>
      <trkpt lat="45.93765" lon="4.74896">
        <ele>169</ele>
        <time>2017-08-23T10:27:50Z</time>
      </trkpt>
      <trkpt lat="45.93768" lon="4.74891">
        <ele>169</ele>
        <time>2017-08-23T10:27:51Z</time>
      </trkpt>
      <trkpt lat="45.93772" lon="4.74885">
        <ele>169</ele>
        <time>2017-08-23T10:27:52Z</time>
      </trkpt>
      <trkpt lat="45.93775" lon="4.7488">
        <ele>169</ele>
        <time>2017-08-23T10:27:53Z</time>
      </trkpt>
      <trkpt lat="45.93779" lon="4.74873">
        <ele>168</ele>
        <time>2017-08-23T10:27:54Z</time>
      </trkpt>
      <trkpt lat="45.93782" lon="4.74868">
        <ele>168</ele>
        <time>2017-08-23T10:27:55Z</time>
      </trkpt>
      <trkpt lat="45.93785" lon="4.74863">
        <ele>168</ele>
        <time>2017-08-23T10:27:56Z</time>
      </trkpt>
      <trkpt lat="45.93788" lon="4.74858">
        <ele>168</ele>
        <time>2017-08-23T10:27:57Z</time>
      </trkpt>
      <trkpt lat="45.93794" lon="4.7485">
        <ele>168</ele>
        <time>2017-08-23T10:27:59Z</time>
      </trkpt>
      <trkpt lat="45.93796" lon="4.74846">
        <ele>168</ele>
        <time>2017-08-23T10:28:00Z</time>
      </trkpt>
      <trkpt lat="45.93801" lon="4.74839">
        <ele>168</ele>
        <time>2017-08-23T10:28:02Z</time>
      </trkpt>
      <trkpt lat="45.93803" lon="4.74835">
        <ele>168</ele>
        <time>2017-08-23T10:28:03Z</time>
      </trkpt>
      <trkpt lat="45.93808" lon="4.74825">
        <ele>167</ele>
        <time>2017-08-23T10:28:06Z</time>
      </trkpt>
      <trkpt lat="45.9381" lon="4.74822">
        <ele>167</ele>
        <time>2017-08-23T10:28:07Z</time>
      </trkpt>
      <trkpt lat="45.93815" lon="4.74813">
        <ele>167</ele>
        <time>2017-08-23T10:28:09Z</time>
      </trkpt>
      <trkpt lat="45.93818" lon="4.74807">
        <ele>167</ele>
        <time>2017-08-23T10:28:10Z</time>
      </trkpt>
      <trkpt lat="45.93822" lon="4.748">
        <ele>167</ele>
        <time>2017-08-23T10:28:11Z</time>
      </trkpt>
      <trkpt lat="45.93824" lon="4.74795">
        <ele>167</ele>
        <time>2017-08-23T10:28:12Z</time>
      </trkpt>
      <trkpt lat="45.93829" lon="4.74785">
        <ele>167</ele>
        <time>2017-08-23T10:28:14Z</time>
      </trkpt>
      <trkpt lat="45.93831" lon="4.7478">
        <ele>167</ele>
        <time>2017-08-23T10:28:15Z</time>
      </trkpt>
      <trkpt lat="45.93835" lon="4.74772">
        <ele>168</ele>
        <time>2017-08-23T10:28:17Z</time>
      </trkpt>
      <trkpt lat="45.93837" lon="4.74769">
        <ele>168</ele>
        <time>2017-08-23T10:28:18Z</time>
      </trkpt>
      <trkpt lat="45.9384" lon="4.74762">
        <ele>168</ele>
        <time>2017-08-23T10:28:20Z</time>
      </trkpt>
      <trkpt lat="45.93842" lon="4.74757">
        <ele>168</ele>
        <time>2017-08-23T10:28:21Z</time>
      </trkpt>
      <trkpt lat="45.93846" lon="4.74751">
        <ele>168</ele>
        <time>2017-08-23T10:28:22Z</time>
      </trkpt>
      <trkpt lat="45.93849" lon="4.74745">
        <ele>169</ele>
        <time>2017-08-23T10:28:23Z</time>
      </trkpt>
      <trkpt lat="45.93852" lon="4.74739">
        <ele>169</ele>
        <time>2017-08-23T10:28:24Z</time>
      </trkpt>
      <trkpt lat="45.93855" lon="4.74732">
        <ele>169</ele>
        <time>2017-08-23T10:28:25Z</time>
      </trkpt>
      <trkpt lat="45.93858" lon="4.74726">
        <ele>169</ele>
        <time>2017-08-23T10:28:26Z</time>
      </trkpt>
      <trkpt lat="45.9386" lon="4.7472">
        <ele>169</ele>
        <time>2017-08-23T10:28:27Z</time>
      </trkpt>
      <trkpt lat="45.93863" lon="4.74708">
        <ele>169</ele>
        <time>2017-08-23T10:28:29Z</time>
      </trkpt>
      <trkpt lat="45.93865" lon="4.74703">
        <ele>169</ele>
        <time>2017-08-23T10:28:30Z</time>
      </trkpt>
      <trkpt lat="45.93868" lon="4.74692">
        <ele>170</ele>
        <time>2017-08-23T10:28:32Z</time>
      </trkpt>
      <trkpt lat="45.93871" lon="4.74686">
        <ele>170</ele>
        <time>2017-08-23T10:28:33Z</time>
      </trkpt>
      <trkpt lat="45.93873" lon="4.74681">
        <ele>170</ele>
        <time>2017-08-23T10:28:34Z</time>
      </trkpt>
      <trkpt lat="45.93875" lon="4.74674">
        <ele>170</ele>
        <time>2017-08-23T10:28:35Z</time>
      </trkpt>
      <trkpt lat="45.93877" lon="4.74667">
        <ele>170</ele>
        <time>2017-08-23T10:28:36Z</time>
      </trkpt>
      <trkpt lat="45.9388" lon="4.74659">
        <ele>170</ele>
        <time>2017-08-23T10:28:37Z</time>
      </trkpt>
      <trkpt lat="45.93882" lon="4.74652">
        <ele>170</ele>
        <time>2017-08-23T10:28:38Z</time>
      </trkpt>
      <trkpt lat="45.93885" lon="4.74645">
        <ele>170</ele>
        <time>2017-08-23T10:28:39Z</time>
      </trkpt>
      <trkpt lat="45.93887" lon="4.74637">
        <ele>170</ele>
        <time>2017-08-23T10:28:40Z</time>
      </trkpt>
      <trkpt lat="45.93889" lon="4.7463">
        <ele>170</ele>
        <time>2017-08-23T10:28:41Z</time>
      </trkpt>
      <trkpt lat="45.93892" lon="4.74623">
        <ele>170</ele>
        <time>2017-08-23T10:28:42Z</time>
      </trkpt>
      <trkpt lat="45.93894" lon="4.74617">
        <ele>170</ele>
        <time>2017-08-23T10:28:43Z</time>
      </trkpt>
      <trkpt lat="45.93896" lon="4.74612">
        <ele>170</ele>
        <time>2017-08-23T10:28:44Z</time>
      </trkpt>
      <trkpt lat="45.93897" lon="4.74605">
        <ele>170</ele>
        <time>2017-08-23T10:28:45Z</time>
      </trkpt>
      <trkpt lat="45.939" lon="4.74593">
        <ele>170</ele>
        <time>2017-08-23T10:28:47Z</time>
      </trkpt>
      <trkpt lat="45.93901" lon="4.74586">
        <ele>170</ele>
        <time>2017-08-23T10:28:48Z</time>
      </trkpt>
      <trkpt lat="45.93903" lon="4.7458">
        <ele>170</ele>
        <time>2017-08-23T10:28:49Z</time>
      </trkpt>
      <trkpt lat="45.93904" lon="4.74572">
        <ele>170</ele>
        <time>2017-08-23T10:28:50Z</time>
      </trkpt>
      <trkpt lat="45.93906" lon="4.74564">
        <ele>170</ele>
        <time>2017-08-23T10:28:51Z</time>
      </trkpt>
      <trkpt lat="45.93907" lon="4.74556">
        <ele>170</ele>
        <time>2017-08-23T10:28:52Z</time>
      </trkpt>
      <trkpt lat="45.93908" lon="4.74548">
        <ele>170</ele>
        <time>2017-08-23T10:28:53Z</time>
      </trkpt>
      <trkpt lat="45.93909" lon="4.74541">
        <ele>170</ele>
        <time>2017-08-23T10:28:54Z</time>
      </trkpt>
      <trkpt lat="45.93909" lon="4.74533">
        <ele>170</ele>
        <time>2017-08-23T10:28:55Z</time>
      </trkpt>
      <trkpt lat="45.9391" lon="4.74527">
        <ele>170</ele>
        <time>2017-08-23T10:28:56Z</time>
      </trkpt>
      <trkpt lat="45.9391" lon="4.7452">
        <ele>170</ele>
        <time>2017-08-23T10:28:57Z</time>
      </trkpt>
      <trkpt lat="45.9391" lon="4.74513">
        <ele>170</ele>
        <time>2017-08-23T10:28:58Z</time>
      </trkpt>
      <trkpt lat="45.93911" lon="4.74501">
        <ele>170</ele>
        <time>2017-08-23T10:29:00Z</time>
      </trkpt>
      <trkpt lat="45.9391" lon="4.74496">
        <ele>170</ele>
        <time>2017-08-23T10:29:01Z</time>
      </trkpt>
      <trkpt lat="45.93911" lon="4.74486">
        <ele>171</ele>
        <time>2017-08-23T10:29:03Z</time>
      </trkpt>
      <trkpt lat="45.9391" lon="4.7448">
        <ele>171</ele>
        <time>2017-08-23T10:29:04Z</time>
      </trkpt>
      <trkpt lat="45.9391" lon="4.74473">
        <ele>171</ele>
        <time>2017-08-23T10:29:05Z</time>
      </trkpt>
      <trkpt lat="45.9391" lon="4.74467">
        <ele>171</ele>
        <time>2017-08-23T10:29:06Z</time>
      </trkpt>
      <trkpt lat="45.9391" lon="4.7446">
        <ele>171</ele>
        <time>2017-08-23T10:29:07Z</time>
      </trkpt>
      <trkpt lat="45.9391" lon="4.74453">
        <ele>171</ele>
        <time>2017-08-23T10:29:08Z</time>
      </trkpt>
      <trkpt lat="45.93911" lon="4.74441">
        <ele>171</ele>
        <time>2017-08-23T10:29:10Z</time>
      </trkpt>
      <trkpt lat="45.9391" lon="4.74435">
        <ele>171</ele>
        <time>2017-08-23T10:29:11Z</time>
      </trkpt>
      <trkpt lat="45.9391" lon="4.74423">
        <ele>171</ele>
        <time>2017-08-23T10:29:13Z</time>
      </trkpt>
      <trkpt lat="45.9391" lon="4.74417">
        <ele>171</ele>
        <time>2017-08-23T10:29:14Z</time>
      </trkpt>
      <trkpt lat="45.9391" lon="4.74405">
        <ele>171</ele>
        <time>2017-08-23T10:29:16Z</time>
      </trkpt>
      <trkpt lat="45.9391" lon="4.74399">
        <ele>171</ele>
        <time>2017-08-23T10:29:17Z</time>
      </trkpt>
      <trkpt lat="45.93911" lon="4.74393">
        <ele>171</ele>
        <time>2017-08-23T10:29:18Z</time>
      </trkpt>
      <trkpt lat="45.93911" lon="4.74386">
        <ele>171</ele>
        <time>2017-08-23T10:29:19Z</time>
      </trkpt>
      <trkpt lat="45.9391" lon="4.74373">
        <ele>171</ele>
        <time>2017-08-23T10:29:21Z</time>
      </trkpt>
      <trkpt lat="45.93909" lon="4.74367">
        <ele>171</ele>
        <time>2017-08-23T10:29:22Z</time>
      </trkpt>
      <trkpt lat="45.93907" lon="4.74355">
        <ele>171</ele>
        <time>2017-08-23T10:29:24Z</time>
      </trkpt>
      <trkpt lat="45.93908" lon="4.7435">
        <ele>171</ele>
        <time>2017-08-23T10:29:25Z</time>
      </trkpt>
      <trkpt lat="45.93907" lon="4.74338">
        <ele>170</ele>
        <time>2017-08-23T10:29:27Z</time>
      </trkpt>
      <trkpt lat="45.93907" lon="4.74332">
        <ele>170</ele>
        <time>2017-08-23T10:29:28Z</time>
      </trkpt>
      <trkpt lat="45.93907" lon="4.74324">
        <ele>170</ele>
        <time>2017-08-23T10:29:29Z</time>
      </trkpt>
      <trkpt lat="45.93907" lon="4.74317">
        <ele>170</ele>
        <time>2017-08-23T10:29:30Z</time>
      </trkpt>
      <trkpt lat="45.93907" lon="4.7431">
        <ele>170</ele>
        <time>2017-08-23T10:29:31Z</time>
      </trkpt>
      <trkpt lat="45.93907" lon="4.74303">
        <ele>170</ele>
        <time>2017-08-23T10:29:32Z</time>
      </trkpt>
      <trkpt lat="45.93907" lon="4.74296">
        <ele>170</ele>
        <time>2017-08-23T10:29:33Z</time>
      </trkpt>
      <trkpt lat="45.93907" lon="4.7429">
        <ele>170</ele>
        <time>2017-08-23T10:29:34Z</time>
      </trkpt>
      <trkpt lat="45.93907" lon="4.74279">
        <ele>170</ele>
        <time>2017-08-23T10:29:36Z</time>
      </trkpt>
      <trkpt lat="45.93907" lon="4.74273">
        <ele>170</ele>
        <time>2017-08-23T10:29:37Z</time>
      </trkpt>
      <trkpt lat="45.93908" lon="4.74262">
        <ele>170</ele>
        <time>2017-08-23T10:29:39Z</time>
      </trkpt>
      <trkpt lat="45.93908" lon="4.74257">
        <ele>170</ele>
        <time>2017-08-23T10:29:40Z</time>
      </trkpt>
      <trkpt lat="45.93909" lon="4.74251">
        <ele>170</ele>
        <time>2017-08-23T10:29:41Z</time>
      </trkpt>
      <trkpt lat="45.93909" lon="4.74244">
        <ele>170</ele>
        <time>2017-08-23T10:29:42Z</time>
      </trkpt>
      <trkpt lat="45.9391" lon="4.74237">
        <ele>170</ele>
        <time>2017-08-23T10:29:43Z</time>
      </trkpt>
      <trkpt lat="45.9391" lon="4.74229">
        <ele>170</ele>
        <time>2017-08-23T10:29:44Z</time>
      </trkpt>
      <trkpt lat="45.93911" lon="4.74222">
        <ele>170</ele>
        <time>2017-08-23T10:29:45Z</time>
      </trkpt>
      <trkpt lat="45.93912" lon="4.74215">
        <ele>169</ele>
        <time>2017-08-23T10:29:46Z</time>
      </trkpt>
      <trkpt lat="45.93912" lon="4.74203">
        <ele>169</ele>
        <time>2017-08-23T10:29:48Z</time>
      </trkpt>
      <trkpt lat="45.93913" lon="4.74197">
        <ele>169</ele>
        <time>2017-08-23T10:29:49Z</time>
      </trkpt>
      <trkpt lat="45.93914" lon="4.74185">
        <ele>169</ele>
        <time>2017-08-23T10:29:51Z</time>
      </trkpt>
      <trkpt lat="45.93914" lon="4.74179">
        <ele>169</ele>
        <time>2017-08-23T10:29:52Z</time>
      </trkpt>
      <trkpt lat="45.93915" lon="4.74173">
        <ele>168</ele>
        <time>2017-08-23T10:29:53Z</time>
      </trkpt>
      <trkpt lat="45.93915" lon="4.74166">
        <ele>168</ele>
        <time>2017-08-23T10:29:54Z</time>
      </trkpt>
      <trkpt lat="45.93915" lon="4.74158">
        <ele>169</ele>
        <time>2017-08-23T10:29:55Z</time>
      </trkpt>
      <trkpt lat="45.93916" lon="4.7415">
        <ele>169</ele>
        <time>2017-08-23T10:29:56Z</time>
      </trkpt>
      <trkpt lat="45.93917" lon="4.74143">
        <ele>169</ele>
        <time>2017-08-23T10:29:57Z</time>
      </trkpt>
      <trkpt lat="45.93918" lon="4.74136">
        <ele>169</ele>
        <time>2017-08-23T10:29:58Z</time>
      </trkpt>
      <trkpt lat="45.93919" lon="4.74123">
        <ele>169</ele>
        <time>2017-08-23T10:30:00Z</time>
      </trkpt>
      <trkpt lat="45.93919" lon="4.74117">
        <ele>169</ele>
        <time>2017-08-23T10:30:01Z</time>
      </trkpt>
      <trkpt lat="45.93921" lon="4.74107">
        <ele>169</ele>
        <time>2017-08-23T10:30:03Z</time>
      </trkpt>
      <trkpt lat="45.93921" lon="4.74102">
        <ele>169</ele>
        <time>2017-08-23T10:30:04Z</time>
      </trkpt>
      <trkpt lat="45.93922" lon="4.7409">
        <ele>170</ele>
        <time>2017-08-23T10:30:06Z</time>
      </trkpt>
      <trkpt lat="45.93922" lon="4.74084">
        <ele>170</ele>
        <time>2017-08-23T10:30:07Z</time>
      </trkpt>
      <trkpt lat="45.93923" lon="4.74077">
        <ele>170</ele>
        <time>2017-08-23T10:30:08Z</time>
      </trkpt>
      <trkpt lat="45.93923" lon="4.7407">
        <ele>170</ele>
        <time>2017-08-23T10:30:09Z</time>
      </trkpt>
      <trkpt lat="45.93924" lon="4.74064">
        <ele>170</ele>
        <time>2017-08-23T10:30:10Z</time>
      </trkpt>
      <trkpt lat="45.93924" lon="4.74057">
        <ele>171</ele>
        <time>2017-08-23T10:30:11Z</time>
      </trkpt>
      <trkpt lat="45.93925" lon="4.74047">
        <ele>171</ele>
        <time>2017-08-23T10:30:13Z</time>
      </trkpt>
      <trkpt lat="45.93926" lon="4.74042">
        <ele>171</ele>
        <time>2017-08-23T10:30:14Z</time>
      </trkpt>
      <trkpt lat="45.93927" lon="4.74033">
        <ele>171</ele>
        <time>2017-08-23T10:30:16Z</time>
      </trkpt>
      <trkpt lat="45.93928" lon="4.74029">
        <ele>171</ele>
        <time>2017-08-23T10:30:17Z</time>
      </trkpt>
      <trkpt lat="45.93929" lon="4.74019">
        <ele>171</ele>
        <time>2017-08-23T10:30:19Z</time>
      </trkpt>
      <trkpt lat="45.9393" lon="4.74013">
        <ele>171</ele>
        <time>2017-08-23T10:30:20Z</time>
      </trkpt>
      <trkpt lat="45.9393" lon="4.74001">
        <ele>171</ele>
        <time>2017-08-23T10:30:22Z</time>
      </trkpt>
      <trkpt lat="45.9393" lon="4.73995">
        <ele>172</ele>
        <time>2017-08-23T10:30:23Z</time>
      </trkpt>
      <trkpt lat="45.93931" lon="4.73984">
        <ele>172</ele>
        <time>2017-08-23T10:30:25Z</time>
      </trkpt>
      <trkpt lat="45.93932" lon="4.73978">
        <ele>172</ele>
        <time>2017-08-23T10:30:26Z</time>
      </trkpt>
      <trkpt lat="45.93934" lon="4.73973">
        <ele>172</ele>
        <time>2017-08-23T10:30:27Z</time>
      </trkpt>
      <trkpt lat="45.93935" lon="4.73966">
        <ele>172</ele>
        <time>2017-08-23T10:30:28Z</time>
      </trkpt>
      <trkpt lat="45.93936" lon="4.73959">
        <ele>172</ele>
        <time>2017-08-23T10:30:29Z</time>
      </trkpt>
      <trkpt lat="45.93937" lon="4.73953">
        <ele>172</ele>
        <time>2017-08-23T10:30:30Z</time>
      </trkpt>
      <trkpt lat="45.93938" lon="4.73946">
        <ele>172</ele>
        <time>2017-08-23T10:30:31Z</time>
      </trkpt>
      <trkpt lat="45.93939" lon="4.73938">
        <ele>172</ele>
        <time>2017-08-23T10:30:32Z</time>
      </trkpt>
      <trkpt lat="45.9394" lon="4.73931">
        <ele>172</ele>
        <time>2017-08-23T10:30:33Z</time>
      </trkpt>
      <trkpt lat="45.9394" lon="4.73925">
        <ele>172</ele>
        <time>2017-08-23T10:30:34Z</time>
      </trkpt>
      <trkpt lat="45.93942" lon="4.73912">
        <ele>172</ele>
        <time>2017-08-23T10:30:36Z</time>
      </trkpt>
      <trkpt lat="45.93942" lon="4.73906">
        <ele>172</ele>
        <time>2017-08-23T10:30:37Z</time>
      </trkpt>
      <trkpt lat="45.93943" lon="4.73893">
        <ele>172</ele>
        <time>2017-08-23T10:30:39Z</time>
      </trkpt>
      <trkpt lat="45.93944" lon="4.73888">
        <ele>172</ele>
        <time>2017-08-23T10:30:40Z</time>
      </trkpt>
      <trkpt lat="45.93944" lon="4.73877">
        <ele>172</ele>
        <time>2017-08-23T10:30:42Z</time>
      </trkpt>
      <trkpt lat="45.93945" lon="4.73871">
        <ele>172</ele>
        <time>2017-08-23T10:30:43Z</time>
      </trkpt>
      <trkpt lat="45.93945" lon="4.73864">
        <ele>172</ele>
        <time>2017-08-23T10:30:44Z</time>
      </trkpt>
      <trkpt lat="45.93945" lon="4.73857">
        <ele>172</ele>
        <time>2017-08-23T10:30:45Z</time>
      </trkpt>
      <trkpt lat="45.93947" lon="4.73849">
        <ele>172</ele>
        <time>2017-08-23T10:30:46Z</time>
      </trkpt>
      <trkpt lat="45.93948" lon="4.73842">
        <ele>172</ele>
        <time>2017-08-23T10:30:47Z</time>
      </trkpt>
      <trkpt lat="45.9395" lon="4.73835">
        <ele>172</ele>
        <time>2017-08-23T10:30:48Z</time>
      </trkpt>
      <trkpt lat="45.93951" lon="4.73829">
        <ele>172</ele>
        <time>2017-08-23T10:30:49Z</time>
      </trkpt>
      <trkpt lat="45.93952" lon="4.73818">
        <ele>172</ele>
        <time>2017-08-23T10:30:51Z</time>
      </trkpt>
      <trkpt lat="45.93952" lon="4.73813">
        <ele>172</ele>
        <time>2017-08-23T10:30:52Z</time>
      </trkpt>
      <trkpt lat="45.93953" lon="4.738">
        <ele>172</ele>
        <time>2017-08-23T10:30:54Z</time>
      </trkpt>
      <trkpt lat="45.93953" lon="4.73794">
        <ele>172</ele>
        <time>2017-08-23T10:30:55Z</time>
      </trkpt>
      <trkpt lat="45.93954" lon="4.73787">
        <ele>172</ele>
        <time>2017-08-23T10:30:56Z</time>
      </trkpt>
      <trkpt lat="45.93955" lon="4.7378">
        <ele>172</ele>
        <time>2017-08-23T10:30:57Z</time>
      </trkpt>
      <trkpt lat="45.93956" lon="4.73773">
        <ele>172</ele>
        <time>2017-08-23T10:30:58Z</time>
      </trkpt>
      <trkpt lat="45.93957" lon="4.73767">
        <ele>172</ele>
        <time>2017-08-23T10:30:59Z</time>
      </trkpt>
      <trkpt lat="45.93957" lon="4.7376">
        <ele>172</ele>
        <time>2017-08-23T10:31:00Z</time>
      </trkpt>
      <trkpt lat="45.93958" lon="4.73754">
        <ele>172</ele>
        <time>2017-08-23T10:31:01Z</time>
      </trkpt>
      <trkpt lat="45.9396" lon="4.73741">
        <ele>172</ele>
        <time>2017-08-23T10:31:03Z</time>
      </trkpt>
      <trkpt lat="45.93961" lon="4.73735">
        <ele>172</ele>
        <time>2017-08-23T10:31:04Z</time>
      </trkpt>
      <trkpt lat="45.93962" lon="4.73728">
        <ele>172</ele>
        <time>2017-08-23T10:31:05Z</time>
      </trkpt>
      <trkpt lat="45.93963" lon="4.7372">
        <ele>172</ele>
        <time>2017-08-23T10:31:06Z</time>
      </trkpt>
      <trkpt lat="45.93963" lon="4.73712">
        <ele>172</ele>
        <time>2017-08-23T10:31:07Z</time>
      </trkpt>
      <trkpt lat="45.93965" lon="4.73704">
        <ele>172</ele>
        <time>2017-08-23T10:31:08Z</time>
      </trkpt>
      <trkpt lat="45.93966" lon="4.73696">
        <ele>172</ele>
        <time>2017-08-23T10:31:09Z</time>
      </trkpt>
      <trkpt lat="45.93967" lon="4.73689">
        <ele>172</ele>
        <time>2017-08-23T10:31:10Z</time>
      </trkpt>
      <trkpt lat="45.93968" lon="4.73682">
        <ele>172</ele>
        <time>2017-08-23T10:31:11Z</time>
      </trkpt>
      <trkpt lat="45.93969" lon="4.73675">
        <ele>172</ele>
        <time>2017-08-23T10:31:12Z</time>
      </trkpt>
      <trkpt lat="45.93971" lon="4.73664">
        <ele>171</ele>
        <time>2017-08-23T10:31:14Z</time>
      </trkpt>
      <trkpt lat="45.93972" lon="4.73659">
        <ele>171</ele>
        <time>2017-08-23T10:31:15Z</time>
      </trkpt>
      <trkpt lat="45.93974" lon="4.73653">
        <ele>171</ele>
        <time>2017-08-23T10:31:16Z</time>
      </trkpt>
      <trkpt lat="45.93975" lon="4.73646">
        <ele>170</ele>
        <time>2017-08-23T10:31:17Z</time>
      </trkpt>
      <trkpt lat="45.93976" lon="4.73639">
        <ele>170</ele>
        <time>2017-08-23T10:31:18Z</time>
      </trkpt>
      <trkpt lat="45.93978" lon="4.73632">
        <ele>170</ele>
        <time>2017-08-23T10:31:19Z</time>
      </trkpt>
      <trkpt lat="45.93979" lon="4.73625">
        <ele>170</ele>
        <time>2017-08-23T10:31:20Z</time>
      </trkpt>
      <trkpt lat="45.93981" lon="4.73617">
        <ele>170</ele>
        <time>2017-08-23T10:31:21Z</time>
      </trkpt>
      <trkpt lat="45.93983" lon="4.73611">
        <ele>170</ele>
        <time>2017-08-23T10:31:22Z</time>
      </trkpt>
      <trkpt lat="45.93985" lon="4.73604">
        <ele>169</ele>
        <time>2017-08-23T10:31:23Z</time>
      </trkpt>
      <trkpt lat="45.93988" lon="4.73593">
        <ele>169</ele>
        <time>2017-08-23T10:31:25Z</time>
      </trkpt>
      <trkpt lat="45.93989" lon="4.73588">
        <ele>169</ele>
        <time>2017-08-23T10:31:26Z</time>
      </trkpt>
      <trkpt lat="45.93992" lon="4.73578">
        <ele>168</ele>
        <time>2017-08-23T10:31:28Z</time>
      </trkpt>
      <trkpt lat="45.93994" lon="4.73572">
        <ele>168</ele>
        <time>2017-08-23T10:31:29Z</time>
      </trkpt>
      <trkpt lat="45.93999" lon="4.73562">
        <ele>168</ele>
        <time>2017-08-23T10:31:31Z</time>
      </trkpt>
      <trkpt lat="45.94001" lon="4.73555">
        <ele>171</ele>
        <time>2017-08-23T10:31:32Z</time>
      </trkpt>
      <trkpt lat="45.94003" lon="4.73548">
        <ele>171</ele>
        <time>2017-08-23T10:31:33Z</time>
      </trkpt>
      <trkpt lat="45.94006" lon="4.73541">
        <ele>171</ele>
        <time>2017-08-23T10:31:34Z</time>
      </trkpt>
      <trkpt lat="45.94008" lon="4.73533">
        <ele>171</ele>
        <time>2017-08-23T10:31:35Z</time>
      </trkpt>
      <trkpt lat="45.94011" lon="4.73526">
        <ele>171</ele>
        <time>2017-08-23T10:31:36Z</time>
      </trkpt>
      <trkpt lat="45.94014" lon="4.7352">
        <ele>171</ele>
        <time>2017-08-23T10:31:37Z</time>
      </trkpt>
      <trkpt lat="45.94016" lon="4.73514">
        <ele>171</ele>
        <time>2017-08-23T10:31:38Z</time>
      </trkpt>
      <trkpt lat="45.94021" lon="4.73505">
        <ele>171</ele>
        <time>2017-08-23T10:31:40Z</time>
      </trkpt>
      <trkpt lat="45.94023" lon="4.735">
        <ele>170</ele>
        <time>2017-08-23T10:31:41Z</time>
      </trkpt>
      <trkpt lat="45.94028" lon="4.73491">
        <ele>171</ele>
        <time>2017-08-23T10:31:43Z</time>
      </trkpt>
      <trkpt lat="45.9403" lon="4.73488">
        <ele>171</ele>
        <time>2017-08-23T10:31:44Z</time>
      </trkpt>
      <trkpt lat="45.94034" lon="4.7348">
        <ele>171</ele>
        <time>2017-08-23T10:31:46Z</time>
      </trkpt>
      <trkpt lat="45.94036" lon="4.73475">
        <ele>171</ele>
        <time>2017-08-23T10:31:47Z</time>
      </trkpt>
      <trkpt lat="45.94039" lon="4.73469">
        <ele>171</ele>
        <time>2017-08-23T10:31:48Z</time>
      </trkpt>
      <trkpt lat="45.94042" lon="4.73464">
        <ele>171</ele>
        <time>2017-08-23T10:31:49Z</time>
      </trkpt>
      <trkpt lat="45.94047" lon="4.73454">
        <ele>171</ele>
        <time>2017-08-23T10:31:51Z</time>
      </trkpt>
      <trkpt lat="45.9405" lon="4.73449">
        <ele>172</ele>
        <time>2017-08-23T10:31:52Z</time>
      </trkpt>
      <trkpt lat="45.94055" lon="4.7344">
        <ele>172</ele>
        <time>2017-08-23T10:31:54Z</time>
      </trkpt>
      <trkpt lat="45.94058" lon="4.73436">
        <ele>172</ele>
        <time>2017-08-23T10:31:55Z</time>
      </trkpt>
      <trkpt lat="45.94063" lon="4.73429">
        <ele>172</ele>
        <time>2017-08-23T10:31:57Z</time>
      </trkpt>
      <trkpt lat="45.94065" lon="4.73426">
        <ele>172</ele>
        <time>2017-08-23T10:31:58Z</time>
      </trkpt>
      <trkpt lat="45.9407" lon="4.73417">
        <ele>173</ele>
        <time>2017-08-23T10:32:00Z</time>
      </trkpt>
      <trkpt lat="45.94073" lon="4.73412">
        <ele>172</ele>
        <time>2017-08-23T10:32:01Z</time>
      </trkpt>
      <trkpt lat="45.94079" lon="4.73403">
        <ele>172</ele>
        <time>2017-08-23T10:32:03Z</time>
      </trkpt>
      <trkpt lat="45.94081" lon="4.73398">
        <ele>172</ele>
        <time>2017-08-23T10:32:04Z</time>
      </trkpt>
      <trkpt lat="45.94086" lon="4.73391">
        <ele>174</ele>
        <time>2017-08-23T10:32:06Z</time>
      </trkpt>
      <trkpt lat="45.94089" lon="4.73387">
        <ele>174</ele>
        <time>2017-08-23T10:32:07Z</time>
      </trkpt>
      <trkpt lat="45.94093" lon="4.7338">
        <ele>174</ele>
        <time>2017-08-23T10:32:09Z</time>
      </trkpt>
      <trkpt lat="45.94095" lon="4.73377">
        <ele>174</ele>
        <time>2017-08-23T10:32:10Z</time>
      </trkpt>
      <trkpt lat="45.94101" lon="4.73369">
        <ele>173</ele>
        <time>2017-08-23T10:32:12Z</time>
      </trkpt>
      <trkpt lat="45.94104" lon="4.73365">
        <ele>173</ele>
        <time>2017-08-23T10:32:13Z</time>
      </trkpt>
      <trkpt lat="45.94107" lon="4.73361">
        <ele>173</ele>
        <time>2017-08-23T10:32:14Z</time>
      </trkpt>
      <trkpt lat="45.9411" lon="4.73356">
        <ele>173</ele>
        <time>2017-08-23T10:32:15Z</time>
      </trkpt>
      <trkpt lat="45.94117" lon="4.73347">
        <ele>173</ele>
        <time>2017-08-23T10:32:17Z</time>
      </trkpt>
      <trkpt lat="45.94119" lon="4.73342">
        <ele>173</ele>
        <time>2017-08-23T10:32:18Z</time>
      </trkpt>
      <trkpt lat="45.94124" lon="4.73334">
        <ele>173</ele>
        <time>2017-08-23T10:32:20Z</time>
      </trkpt>
      <trkpt lat="45.94126" lon="4.73331">
        <ele>171</ele>
        <time>2017-08-23T10:32:21Z</time>
      </trkpt>
      <trkpt lat="45.94131" lon="4.73324">
        <ele>171</ele>
        <time>2017-08-23T10:32:23Z</time>
      </trkpt>
      <trkpt lat="45.94134" lon="4.7332">
        <ele>171</ele>
        <time>2017-08-23T10:32:24Z</time>
      </trkpt>
      <trkpt lat="45.94137" lon="4.73316">
        <ele>171</ele>
        <time>2017-08-23T10:32:25Z</time>
      </trkpt>
      <trkpt lat="45.9414" lon="4.73311">
        <ele>171</ele>
        <time>2017-08-23T10:32:26Z</time>
      </trkpt>
      <trkpt lat="45.94144" lon="4.73306">
        <ele>171</ele>
        <time>2017-08-23T10:32:27Z</time>
      </trkpt>
      <trkpt lat="45.94147" lon="4.73301">
        <ele>171</ele>
        <time>2017-08-23T10:32:28Z</time>
      </trkpt>
      <trkpt lat="45.94151" lon="4.73297">
        <ele>171</ele>
        <time>2017-08-23T10:32:29Z</time>
      </trkpt>
      <trkpt lat="45.94154" lon="4.73292">
        <ele>170</ele>
        <time>2017-08-23T10:32:30Z</time>
      </trkpt>
      <trkpt lat="45.9416" lon="4.73285">
        <ele>170</ele>
        <time>2017-08-23T10:32:32Z</time>
      </trkpt>
      <trkpt lat="45.94164" lon="4.73282">
        <ele>170</ele>
        <time>2017-08-23T10:32:33Z</time>
      </trkpt>
      <trkpt lat="45.94169" lon="4.73276">
        <ele>172</ele>
        <time>2017-08-23T10:32:35Z</time>
      </trkpt>
      <trkpt lat="45.94172" lon="4.73273">
        <ele>172</ele>
        <time>2017-08-23T10:32:36Z</time>
      </trkpt>
      <trkpt lat="45.9418" lon="4.73267">
        <ele>172</ele>
        <time>2017-08-23T10:32:38Z</time>
      </trkpt>
      <trkpt lat="45.94184" lon="4.73263">
        <ele>172</ele>
        <time>2017-08-23T10:32:39Z</time>
      </trkpt>
      <trkpt lat="45.94188" lon="4.73259">
        <ele>172</ele>
        <time>2017-08-23T10:32:40Z</time>
      </trkpt>
      <trkpt lat="45.94192" lon="4.73256">
        <ele>172</ele>
        <time>2017-08-23T10:32:41Z</time>
      </trkpt>
      <trkpt lat="45.94197" lon="4.73252">
        <ele>172</ele>
        <time>2017-08-23T10:32:42Z</time>
      </trkpt>
      <trkpt lat="45.94201" lon="4.73248">
        <ele>169</ele>
        <time>2017-08-23T10:32:43Z</time>
      </trkpt>
      <trkpt lat="45.94209" lon="4.73243">
        <ele>170</ele>
        <time>2017-08-23T10:32:45Z</time>
      </trkpt>
      <trkpt lat="45.94212" lon="4.73241">
        <ele>170</ele>
        <time>2017-08-23T10:32:46Z</time>
      </trkpt>
      <trkpt lat="45.94218" lon="4.73235">
        <ele>170</ele>
        <time>2017-08-23T10:32:48Z</time>
      </trkpt>
      <trkpt lat="45.94221" lon="4.73233">
        <ele>170</ele>
        <time>2017-08-23T10:32:49Z</time>
      </trkpt>
      <trkpt lat="45.94225" lon="4.7323">
        <ele>170</ele>
        <time>2017-08-23T10:32:50Z</time>
      </trkpt>
      <trkpt lat="45.94229" lon="4.73227">
        <ele>170</ele>
        <time>2017-08-23T10:32:51Z</time>
      </trkpt>
      <trkpt lat="45.94233" lon="4.73224">
        <ele>170</ele>
        <time>2017-08-23T10:32:52Z</time>
      </trkpt>
      <trkpt lat="45.94237" lon="4.73221">
        <ele>169</ele>
        <time>2017-08-23T10:32:53Z</time>
      </trkpt>
      <trkpt lat="45.94242" lon="4.73217">
        <ele>169</ele>
        <time>2017-08-23T10:32:54Z</time>
      </trkpt>
      <trkpt lat="45.94246" lon="4.73213">
        <ele>169</ele>
        <time>2017-08-23T10:32:55Z</time>
      </trkpt>
      <trkpt lat="45.9425" lon="4.73209">
        <ele>170</ele>
        <time>2017-08-23T10:32:56Z</time>
      </trkpt>
      <trkpt lat="45.94255" lon="4.73204">
        <ele>170</ele>
        <time>2017-08-23T10:32:57Z</time>
      </trkpt>
      <trkpt lat="45.94262" lon="4.73197">
        <ele>170</ele>
        <time>2017-08-23T10:32:59Z</time>
      </trkpt>
      <trkpt lat="45.94265" lon="4.73194">
        <ele>169</ele>
        <time>2017-08-23T10:33:00Z</time>
      </trkpt>
      <trkpt lat="45.94271" lon="4.73188">
        <ele>169</ele>
        <time>2017-08-23T10:33:02Z</time>
      </trkpt>
      <trkpt lat="45.94274" lon="4.73186">
        <ele>169</ele>
        <time>2017-08-23T10:33:03Z</time>
      </trkpt>
      <trkpt lat="45.94276" lon="4.73185">
        <ele>169</ele>
        <time>2017-08-23T10:33:04Z</time>
      </trkpt>
      <trkpt lat="45.94277" lon="4.73185">
        <ele>170</ele>
        <time>2017-08-23T10:33:05Z</time>
      </trkpt>
      <trkpt lat="45.9428" lon="4.73183">
        <ele>170</ele>
        <time>2017-08-23T10:33:08Z</time>
      </trkpt>
      <trkpt lat="45.94281" lon="4.73182">
        <ele>170</ele>
        <time>2017-08-23T10:33:09Z</time>
      </trkpt>
      <trkpt lat="45.94288" lon="4.73175">
        <ele>170</ele>
        <time>2017-08-23T10:33:12Z</time>
      </trkpt>
      <trkpt lat="45.94291" lon="4.73172">
        <ele>170</ele>
        <time>2017-08-23T10:33:13Z</time>
      </trkpt>
      <trkpt lat="45.94298" lon="4.73165">
        <ele>168</ele>
        <time>2017-08-23T10:33:15Z</time>
      </trkpt>
      <trkpt lat="45.94303" lon="4.73162">
        <ele>168</ele>
        <time>2017-08-23T10:33:16Z</time>
      </trkpt>
      <trkpt lat="45.9431" lon="4.73156">
        <ele>168</ele>
        <time>2017-08-23T10:33:18Z</time>
      </trkpt>
      <trkpt lat="45.94314" lon="4.73153">
        <ele>168</ele>
        <time>2017-08-23T10:33:19Z</time>
      </trkpt>
      <trkpt lat="45.94322" lon="4.73149">
        <ele>169</ele>
        <time>2017-08-23T10:33:21Z</time>
      </trkpt>
      <trkpt lat="45.94325" lon="4.73149">
        <ele>169</ele>
        <time>2017-08-23T10:33:22Z</time>
      </trkpt>
      <trkpt lat="45.94332" lon="4.73145">
        <ele>169</ele>
        <time>2017-08-23T10:33:24Z</time>
      </trkpt>
      <trkpt lat="45.94335" lon="4.73143">
        <ele>170</ele>
        <time>2017-08-23T10:33:25Z</time>
      </trkpt>
      <trkpt lat="45.94341" lon="4.73138">
        <ele>170</ele>
        <time>2017-08-23T10:33:27Z</time>
      </trkpt>
      <trkpt lat="45.94344" lon="4.73136">
        <ele>170</ele>
        <time>2017-08-23T10:33:28Z</time>
      </trkpt>
      <trkpt lat="45.94351" lon="4.73129">
        <ele>169</ele>
        <time>2017-08-23T10:33:30Z</time>
      </trkpt>
      <trkpt lat="45.94354" lon="4.73126">
        <ele>169</ele>
        <time>2017-08-23T10:33:31Z</time>
      </trkpt>
      <trkpt lat="45.94361" lon="4.73119">
        <ele>169</ele>
        <time>2017-08-23T10:33:33Z</time>
      </trkpt>
      <trkpt lat="45.94364" lon="4.73116">
        <ele>169</ele>
        <time>2017-08-23T10:33:34Z</time>
      </trkpt>
      <trkpt lat="45.9437" lon="4.7311">
        <ele>169</ele>
        <time>2017-08-23T10:33:36Z</time>
      </trkpt>
      <trkpt lat="45.94373" lon="4.73107">
        <ele>169</ele>
        <time>2017-08-23T10:33:37Z</time>
      </trkpt>
      <trkpt lat="45.9438" lon="4.73101">
        <ele>169</ele>
        <time>2017-08-23T10:33:39Z</time>
      </trkpt>
      <trkpt lat="45.94384" lon="4.73097">
        <ele>169</ele>
        <time>2017-08-23T10:33:40Z</time>
      </trkpt>
      <trkpt lat="45.94388" lon="4.73094">
        <ele>169</ele>
        <time>2017-08-23T10:33:41Z</time>
      </trkpt>
      <trkpt lat="45.94393" lon="4.7309">
        <ele>169</ele>
        <time>2017-08-23T10:33:42Z</time>
      </trkpt>
      <trkpt lat="45.94397" lon="4.73087">
        <ele>169</ele>
        <time>2017-08-23T10:33:43Z</time>
      </trkpt>
      <trkpt lat="45.94401" lon="4.73084">
        <ele>169</ele>
        <time>2017-08-23T10:33:44Z</time>
      </trkpt>
      <trkpt lat="45.94408" lon="4.73077">
        <ele>168</ele>
        <time>2017-08-23T10:33:46Z</time>
      </trkpt>
      <trkpt lat="45.94411" lon="4.73074">
        <ele>168</ele>
        <time>2017-08-23T10:33:47Z</time>
      </trkpt>
      <trkpt lat="45.94417" lon="4.73067">
        <ele>168</ele>
        <time>2017-08-23T10:33:49Z</time>
      </trkpt>
      <trkpt lat="45.94419" lon="4.73064">
        <ele>169</ele>
        <time>2017-08-23T10:33:50Z</time>
      </trkpt>
      <trkpt lat="45.94425" lon="4.73059">
        <ele>169</ele>
        <time>2017-08-23T10:33:52Z</time>
      </trkpt>
      <trkpt lat="45.94429" lon="4.73055">
        <ele>169</ele>
        <time>2017-08-23T10:33:53Z</time>
      </trkpt>
      <trkpt lat="45.94435" lon="4.73046">
        <ele>169</ele>
        <time>2017-08-23T10:33:55Z</time>
      </trkpt>
      <trkpt lat="45.94438" lon="4.73042">
        <ele>169</ele>
        <time>2017-08-23T10:33:56Z</time>
      </trkpt>
      <trkpt lat="45.94445" lon="4.73035">
        <ele>169</ele>
        <time>2017-08-23T10:33:58Z</time>
      </trkpt>
      <trkpt lat="45.94448" lon="4.73032">
        <ele>169</ele>
        <time>2017-08-23T10:33:59Z</time>
      </trkpt>
      <trkpt lat="45.94454" lon="4.73027">
        <ele>169</ele>
        <time>2017-08-23T10:34:01Z</time>
      </trkpt>
      <trkpt lat="45.94457" lon="4.73027">
        <ele>169</ele>
        <time>2017-08-23T10:34:02Z</time>
      </trkpt>
      <trkpt lat="45.94462" lon="4.73027">
        <ele>169</ele>
        <time>2017-08-23T10:34:04Z</time>
      </trkpt>
      <trkpt lat="45.94466" lon="4.73026">
        <ele>170</ele>
        <time>2017-08-23T10:34:05Z</time>
      </trkpt>
      <trkpt lat="45.94474" lon="4.73024">
        <ele>170</ele>
        <time>2017-08-23T10:34:07Z</time>
      </trkpt>
      <trkpt lat="45.94479" lon="4.73024">
        <ele>170</ele>
        <time>2017-08-23T10:34:08Z</time>
      </trkpt>
      <trkpt lat="45.94488" lon="4.73023">
        <ele>170</ele>
        <time>2017-08-23T10:34:10Z</time>
      </trkpt>
      <trkpt lat="45.94491" lon="4.73022">
        <ele>170</ele>
        <time>2017-08-23T10:34:11Z</time>
      </trkpt>
      <trkpt lat="45.94498" lon="4.73019">
        <ele>170</ele>
        <time>2017-08-23T10:34:13Z</time>
      </trkpt>
      <trkpt lat="45.94502" lon="4.73018">
        <ele>171</ele>
        <time>2017-08-23T10:34:14Z</time>
      </trkpt>
      <trkpt lat="45.94509" lon="4.73016">
        <ele>171</ele>
        <time>2017-08-23T10:34:16Z</time>
      </trkpt>
      <trkpt lat="45.94512" lon="4.73017">
        <ele>171</ele>
        <time>2017-08-23T10:34:17Z</time>
      </trkpt>
      <trkpt lat="45.94519" lon="4.73015">
        <ele>171</ele>
        <time>2017-08-23T10:34:19Z</time>
      </trkpt>
      <trkpt lat="45.94523" lon="4.73015">
        <ele>171</ele>
        <time>2017-08-23T10:34:20Z</time>
      </trkpt>
      <trkpt lat="45.9453" lon="4.73015">
        <ele>171</ele>
        <time>2017-08-23T10:34:22Z</time>
      </trkpt>
      <trkpt lat="45.94533" lon="4.73018">
        <ele>171</ele>
        <time>2017-08-23T10:34:23Z</time>
      </trkpt>
      <trkpt lat="45.94538" lon="4.73024">
        <ele>171</ele>
        <time>2017-08-23T10:34:25Z</time>
      </trkpt>
      <trkpt lat="45.94541" lon="4.73027">
        <ele>171</ele>
        <time>2017-08-23T10:34:26Z</time>
      </trkpt>
      <trkpt lat="45.94547" lon="4.73037">
        <ele>171</ele>
        <time>2017-08-23T10:34:29Z</time>
      </trkpt>
      <trkpt lat="45.94548" lon="4.7304">
        <ele>171</ele>
        <time>2017-08-23T10:34:30Z</time>
      </trkpt>
      <trkpt lat="45.9455" lon="4.73049">
        <ele>172</ele>
        <time>2017-08-23T10:34:32Z</time>
      </trkpt>
      <trkpt lat="45.9455" lon="4.73054">
        <ele>172</ele>
        <time>2017-08-23T10:34:33Z</time>
      </trkpt>
      <trkpt lat="45.94551" lon="4.73065">
        <ele>172</ele>
        <time>2017-08-23T10:34:35Z</time>
      </trkpt>
      <trkpt lat="45.94551" lon="4.73071">
        <ele>172</ele>
        <time>2017-08-23T10:34:36Z</time>
      </trkpt>
      <trkpt lat="45.94551" lon="4.7308">
        <ele>172</ele>
        <time>2017-08-23T10:34:38Z</time>
      </trkpt>
      <trkpt lat="45.94551" lon="4.73084">
        <ele>172</ele>
        <time>2017-08-23T10:34:39Z</time>
      </trkpt>
      <trkpt lat="45.94553" lon="4.73095">
        <ele>172</ele>
        <time>2017-08-23T10:34:42Z</time>
      </trkpt>
      <trkpt lat="45.94553" lon="4.731">
        <ele>173</ele>
        <time>2017-08-23T10:34:43Z</time>
      </trkpt>
      <trkpt lat="45.9455" lon="4.73112">
        <ele>173</ele>
        <time>2017-08-23T10:34:48Z</time>
      </trkpt>
      <trkpt lat="45.94548" lon="4.73112">
        <ele>173</ele>
        <time>2017-08-23T10:34:49Z</time>
      </trkpt>
      <trkpt lat="45.94541" lon="4.73108">
        <ele>173</ele>
        <time>2017-08-23T10:34:52Z</time>
      </trkpt>
      <trkpt lat="45.94538" lon="4.73107">
        <ele>173</ele>
        <time>2017-08-23T10:34:53Z</time>
      </trkpt>
      <trkpt lat="45.94533" lon="4.73104">
        <ele>173</ele>
        <time>2017-08-23T10:34:54Z</time>
      </trkpt>
      <trkpt lat="45.94529" lon="4.73101">
        <ele>173</ele>
        <time>2017-08-23T10:34:55Z</time>
      </trkpt>
      <trkpt lat="45.94522" lon="4.73097">
        <ele>172</ele>
        <time>2017-08-23T10:34:57Z</time>
      </trkpt>
      <trkpt lat="45.94519" lon="4.73096">
        <ele>172</ele>
        <time>2017-08-23T10:34:58Z</time>
      </trkpt>
      <trkpt lat="45.94512" lon="4.73093">
        <ele>172</ele>
        <time>2017-08-23T10:35:01Z</time>
      </trkpt>
      <trkpt lat="45.9451" lon="4.73091">
        <ele>172</ele>
        <time>2017-08-23T10:35:02Z</time>
      </trkpt>
      <trkpt lat="45.94501" lon="4.73086">
        <ele>172</ele>
        <time>2017-08-23T10:35:05Z</time>
      </trkpt>
      <trkpt lat="45.94498" lon="4.73085">
        <ele>172</ele>
        <time>2017-08-23T10:35:06Z</time>
      </trkpt>
      <trkpt lat="45.94492" lon="4.73082">
        <ele>171</ele>
        <time>2017-08-23T10:35:08Z</time>
      </trkpt>
      <trkpt lat="45.94489" lon="4.73081">
        <ele>171</ele>
        <time>2017-08-23T10:35:09Z</time>
      </trkpt>
      <trkpt lat="45.9448" lon="4.7308">
        <ele>171</ele>
        <time>2017-08-23T10:35:12Z</time>
      </trkpt>
      <trkpt lat="45.94477" lon="4.73078">
        <ele>170</ele>
        <time>2017-08-23T10:35:13Z</time>
      </trkpt>
      <trkpt lat="45.94474" lon="4.73069">
        <ele>170</ele>
        <time>2017-08-23T10:35:15Z</time>
      </trkpt>
      <trkpt lat="45.94472" lon="4.73063">
        <ele>170</ele>
        <time>2017-08-23T10:35:16Z</time>
      </trkpt>
      <trkpt lat="45.9447" lon="4.73052">
        <ele>170</ele>
        <time>2017-08-23T10:35:18Z</time>
      </trkpt>
      <trkpt lat="45.94469" lon="4.73045">
        <ele>170</ele>
        <time>2017-08-23T10:35:19Z</time>
      </trkpt>
      <trkpt lat="45.94467" lon="4.73039">
        <ele>170</ele>
        <time>2017-08-23T10:35:20Z</time>
      </trkpt>
      <trkpt lat="45.94466" lon="4.73033">
        <ele>170</ele>
        <time>2017-08-23T10:35:21Z</time>
      </trkpt>
      <trkpt lat="45.94464" lon="4.73021">
        <ele>169</ele>
        <time>2017-08-23T10:35:23Z</time>
      </trkpt>
      <trkpt lat="45.94463" lon="4.73016">
        <ele>169</ele>
        <time>2017-08-23T10:35:24Z</time>
      </trkpt>
      <trkpt lat="45.94459" lon="4.73006">
        <ele>169</ele>
        <time>2017-08-23T10:35:26Z</time>
      </trkpt>
      <trkpt lat="45.94458" lon="4.73">
        <ele>168</ele>
        <time>2017-08-23T10:35:27Z</time>
      </trkpt>
      <trkpt lat="45.94456" lon="4.72987">
        <ele>168</ele>
        <time>2017-08-23T10:35:29Z</time>
      </trkpt>
      <trkpt lat="45.94454" lon="4.72981">
        <ele>167</ele>
        <time>2017-08-23T10:35:30Z</time>
      </trkpt>
      <trkpt lat="45.94451" lon="4.72969">
        <ele>167</ele>
        <time>2017-08-23T10:35:32Z</time>
      </trkpt>
      <trkpt lat="45.9445" lon="4.72962">
        <ele>167</ele>
        <time>2017-08-23T10:35:33Z</time>
      </trkpt>
      <trkpt lat="45.94448" lon="4.7295">
        <ele>167</ele>
        <time>2017-08-23T10:35:35Z</time>
      </trkpt>
      <trkpt lat="45.94447" lon="4.72945">
        <ele>167</ele>
        <time>2017-08-23T10:35:36Z</time>
      </trkpt>
      <trkpt lat="45.94445" lon="4.72935">
        <ele>167</ele>
        <time>2017-08-23T10:35:38Z</time>
      </trkpt>
      <trkpt lat="45.94444" lon="4.72929">
        <ele>167</ele>
        <time>2017-08-23T10:35:39Z</time>
      </trkpt>
      <trkpt lat="45.94442" lon="4.72918">
        <ele>167</ele>
        <time>2017-08-23T10:35:41Z</time>
      </trkpt>
      <trkpt lat="45.94442" lon="4.72913">
        <ele>166</ele>
        <time>2017-08-23T10:35:42Z</time>
      </trkpt>
      <trkpt lat="45.9444" lon="4.72902">
        <ele>166</ele>
        <time>2017-08-23T10:35:44Z</time>
      </trkpt>
      <trkpt lat="45.9444" lon="4.72897">
        <ele>166</ele>
        <time>2017-08-23T10:35:45Z</time>
      </trkpt>
      <trkpt lat="45.94438" lon="4.72886">
        <ele>166</ele>
        <time>2017-08-23T10:35:47Z</time>
      </trkpt>
      <trkpt lat="45.94436" lon="4.7288">
        <ele>166</ele>
        <time>2017-08-23T10:35:48Z</time>
      </trkpt>
      <trkpt lat="45.94435" lon="4.72869">
        <ele>166</ele>
        <time>2017-08-23T10:35:50Z</time>
      </trkpt>
      <trkpt lat="45.94434" lon="4.72863">
        <ele>166</ele>
        <time>2017-08-23T10:35:51Z</time>
      </trkpt>
      <trkpt lat="45.94433" lon="4.72857">
        <ele>166</ele>
        <time>2017-08-23T10:35:52Z</time>
      </trkpt>
      <trkpt lat="45.94432" lon="4.7285">
        <ele>166</ele>
        <time>2017-08-23T10:35:53Z</time>
      </trkpt>
      <trkpt lat="45.94431" lon="4.72844">
        <ele>166</ele>
        <time>2017-08-23T10:35:54Z</time>
      </trkpt>
      <trkpt lat="45.9443" lon="4.72837">
        <ele>166</ele>
        <time>2017-08-23T10:35:55Z</time>
      </trkpt>
      <trkpt lat="45.94429" lon="4.7283">
        <ele>167</ele>
        <time>2017-08-23T10:35:56Z</time>
      </trkpt>
      <trkpt lat="45.94428" lon="4.72822">
        <ele>167</ele>
        <time>2017-08-23T10:35:57Z</time>
      </trkpt>
      <trkpt lat="45.94428" lon="4.72815">
        <ele>167</ele>
        <time>2017-08-23T10:35:58Z</time>
      </trkpt>
      <trkpt lat="45.94426" lon="4.72807">
        <ele>167</ele>
        <time>2017-08-23T10:35:59Z</time>
      </trkpt>
      <trkpt lat="45.94425" lon="4.72799">
        <ele>167</ele>
        <time>2017-08-23T10:36:00Z</time>
      </trkpt>
      <trkpt lat="45.94424" lon="4.7279">
        <ele>168</ele>
        <time>2017-08-23T10:36:01Z</time>
      </trkpt>
      <trkpt lat="45.94424" lon="4.72782">
        <ele>168</ele>
        <time>2017-08-23T10:36:02Z</time>
      </trkpt>
      <trkpt lat="45.94423" lon="4.72774">
        <ele>169</ele>
        <time>2017-08-23T10:36:03Z</time>
      </trkpt>
      <trkpt lat="45.94422" lon="4.72765">
        <ele>169</ele>
        <time>2017-08-23T10:36:04Z</time>
      </trkpt>
      <trkpt lat="45.94421" lon="4.72756">
        <ele>170</ele>
        <time>2017-08-23T10:36:05Z</time>
      </trkpt>
      <trkpt lat="45.9442" lon="4.72748">
        <ele>171</ele>
        <time>2017-08-23T10:36:06Z</time>
      </trkpt>
      <trkpt lat="45.9442" lon="4.72739">
        <ele>171</ele>
        <time>2017-08-23T10:36:07Z</time>
      </trkpt>
      <trkpt lat="45.94419" lon="4.72731">
        <ele>171</ele>
        <time>2017-08-23T10:36:08Z</time>
      </trkpt>
      <trkpt lat="45.94418" lon="4.72723">
        <ele>171</ele>
        <time>2017-08-23T10:36:09Z</time>
      </trkpt>
      <trkpt lat="45.94418" lon="4.72715">
        <ele>172</ele>
        <time>2017-08-23T10:36:10Z</time>
      </trkpt>
      <trkpt lat="45.94417" lon="4.72707">
        <ele>172</ele>
        <time>2017-08-23T10:36:11Z</time>
      </trkpt>
      <trkpt lat="45.94415" lon="4.72699">
        <ele>172</ele>
        <time>2017-08-23T10:36:12Z</time>
      </trkpt>
      <trkpt lat="45.94414" lon="4.72691">
        <ele>173</ele>
        <time>2017-08-23T10:36:13Z</time>
      </trkpt>
      <trkpt lat="45.94414" lon="4.72683">
        <ele>173</ele>
        <time>2017-08-23T10:36:14Z</time>
      </trkpt>
      <trkpt lat="45.94413" lon="4.72675">
        <ele>173</ele>
        <time>2017-08-23T10:36:15Z</time>
      </trkpt>
      <trkpt lat="45.94411" lon="4.72667">
        <ele>174</ele>
        <time>2017-08-23T10:36:16Z</time>
      </trkpt>
      <trkpt lat="45.9441" lon="4.72659">
        <ele>174</ele>
        <time>2017-08-23T10:36:17Z</time>
      </trkpt>
      <trkpt lat="45.94409" lon="4.72651">
        <ele>174</ele>
        <time>2017-08-23T10:36:18Z</time>
      </trkpt>
      <trkpt lat="45.94409" lon="4.72644">
        <ele>174</ele>
        <time>2017-08-23T10:36:19Z</time>
      </trkpt>
      <trkpt lat="45.94408" lon="4.72636">
        <ele>174</ele>
        <time>2017-08-23T10:36:20Z</time>
      </trkpt>
      <trkpt lat="45.94407" lon="4.72628">
        <ele>174</ele>
        <time>2017-08-23T10:36:21Z</time>
      </trkpt>
      <trkpt lat="45.94407" lon="4.72621">
        <ele>173</ele>
        <time>2017-08-23T10:36:22Z</time>
      </trkpt>
      <trkpt lat="45.94406" lon="4.72614">
        <ele>173</ele>
        <time>2017-08-23T10:36:23Z</time>
      </trkpt>
      <trkpt lat="45.94406" lon="4.72607">
        <ele>173</ele>
        <time>2017-08-23T10:36:24Z</time>
      </trkpt>
      <trkpt lat="45.94405" lon="4.726">
        <ele>173</ele>
        <time>2017-08-23T10:36:25Z</time>
      </trkpt>
      <trkpt lat="45.94403" lon="4.72594">
        <ele>173</ele>
        <time>2017-08-23T10:36:26Z</time>
      </trkpt>
      <trkpt lat="45.94401" lon="4.72588">
        <ele>173</ele>
        <time>2017-08-23T10:36:27Z</time>
      </trkpt>
      <trkpt lat="45.944" lon="4.72582">
        <ele>173</ele>
        <time>2017-08-23T10:36:28Z</time>
      </trkpt>
      <trkpt lat="45.944" lon="4.72575">
        <ele>173</ele>
        <time>2017-08-23T10:36:29Z</time>
      </trkpt>
      <trkpt lat="45.94399" lon="4.72569">
        <ele>173</ele>
        <time>2017-08-23T10:36:30Z</time>
      </trkpt>
      <trkpt lat="45.94397" lon="4.72561">
        <ele>173</ele>
        <time>2017-08-23T10:36:31Z</time>
      </trkpt>
      <trkpt lat="45.94396" lon="4.72553">
        <ele>173</ele>
        <time>2017-08-23T10:36:32Z</time>
      </trkpt>
      <trkpt lat="45.94394" lon="4.72546">
        <ele>173</ele>
        <time>2017-08-23T10:36:33Z</time>
      </trkpt>
      <trkpt lat="45.94392" lon="4.72538">
        <ele>174</ele>
        <time>2017-08-23T10:36:34Z</time>
      </trkpt>
      <trkpt lat="45.94391" lon="4.72531">
        <ele>174</ele>
        <time>2017-08-23T10:36:35Z</time>
      </trkpt>
      <trkpt lat="45.9439" lon="4.72525">
        <ele>174</ele>
        <time>2017-08-23T10:36:36Z</time>
      </trkpt>
      <trkpt lat="45.94388" lon="4.72519">
        <ele>174</ele>
        <time>2017-08-23T10:36:37Z</time>
      </trkpt>
      <trkpt lat="45.94384" lon="4.72507">
        <ele>174</ele>
        <time>2017-08-23T10:36:39Z</time>
      </trkpt>
      <trkpt lat="45.94382" lon="4.72502">
        <ele>174</ele>
        <time>2017-08-23T10:36:40Z</time>
      </trkpt>
      <trkpt lat="45.94379" lon="4.72492">
        <ele>173</ele>
        <time>2017-08-23T10:36:42Z</time>
      </trkpt>
      <trkpt lat="45.94377" lon="4.72487">
        <ele>173</ele>
        <time>2017-08-23T10:36:43Z</time>
      </trkpt>
      <trkpt lat="45.94374" lon="4.7248">
        <ele>173</ele>
        <time>2017-08-23T10:36:44Z</time>
      </trkpt>
      <trkpt lat="45.94371" lon="4.72474">
        <ele>173</ele>
        <time>2017-08-23T10:36:45Z</time>
      </trkpt>
      <trkpt lat="45.94368" lon="4.72467">
        <ele>173</ele>
        <time>2017-08-23T10:36:46Z</time>
      </trkpt>
      <trkpt lat="45.94365" lon="4.72461">
        <ele>173</ele>
        <time>2017-08-23T10:36:47Z</time>
      </trkpt>
      <trkpt lat="45.94362" lon="4.72454">
        <ele>173</ele>
        <time>2017-08-23T10:36:48Z</time>
      </trkpt>
      <trkpt lat="45.94359" lon="4.72448">
        <ele>173</ele>
        <time>2017-08-23T10:36:49Z</time>
      </trkpt>
      <trkpt lat="45.94357" lon="4.72442">
        <ele>173</ele>
        <time>2017-08-23T10:36:50Z</time>
      </trkpt>
      <trkpt lat="45.94354" lon="4.72436">
        <ele>173</ele>
        <time>2017-08-23T10:36:51Z</time>
      </trkpt>
      <trkpt lat="45.94352" lon="4.7243">
        <ele>173</ele>
        <time>2017-08-23T10:36:52Z</time>
      </trkpt>
      <trkpt lat="45.94349" lon="4.72425">
        <ele>173</ele>
        <time>2017-08-23T10:36:53Z</time>
      </trkpt>
      <trkpt lat="45.94347" lon="4.72419">
        <ele>173</ele>
        <time>2017-08-23T10:36:54Z</time>
      </trkpt>
      <trkpt lat="45.94344" lon="4.72414">
        <ele>173</ele>
        <time>2017-08-23T10:36:55Z</time>
      </trkpt>
      <trkpt lat="45.94342" lon="4.72408">
        <ele>173</ele>
        <time>2017-08-23T10:36:56Z</time>
      </trkpt>
      <trkpt lat="45.94339" lon="4.72401">
        <ele>173</ele>
        <time>2017-08-23T10:36:57Z</time>
      </trkpt>
      <trkpt lat="45.94337" lon="4.72394">
        <ele>172</ele>
        <time>2017-08-23T10:36:58Z</time>
      </trkpt>
      <trkpt lat="45.94335" lon="4.72388">
        <ele>172</ele>
        <time>2017-08-23T10:36:59Z</time>
      </trkpt>
      <trkpt lat="45.94332" lon="4.72382">
        <ele>172</ele>
        <time>2017-08-23T10:37:00Z</time>
      </trkpt>
      <trkpt lat="45.94329" lon="4.72376">
        <ele>172</ele>
        <time>2017-08-23T10:37:01Z</time>
      </trkpt>
      <trkpt lat="45.94327" lon="4.72371">
        <ele>172</ele>
        <time>2017-08-23T10:37:02Z</time>
      </trkpt>
      <trkpt lat="45.94324" lon="4.72364">
        <ele>172</ele>
        <time>2017-08-23T10:37:03Z</time>
      </trkpt>
      <trkpt lat="45.94321" lon="4.72358">
        <ele>172</ele>
        <time>2017-08-23T10:37:04Z</time>
      </trkpt>
      <trkpt lat="45.94319" lon="4.72352">
        <ele>172</ele>
        <time>2017-08-23T10:37:05Z</time>
      </trkpt>
      <trkpt lat="45.94316" lon="4.72347">
        <ele>172</ele>
        <time>2017-08-23T10:37:06Z</time>
      </trkpt>
      <trkpt lat="45.94314" lon="4.72341">
        <ele>172</ele>
        <time>2017-08-23T10:37:07Z</time>
      </trkpt>
      <trkpt lat="45.94311" lon="4.72334">
        <ele>172</ele>
        <time>2017-08-23T10:37:08Z</time>
      </trkpt>
      <trkpt lat="45.94308" lon="4.72328">
        <ele>171</ele>
        <time>2017-08-23T10:37:09Z</time>
      </trkpt>
      <trkpt lat="45.94306" lon="4.72321">
        <ele>171</ele>
        <time>2017-08-23T10:37:10Z</time>
      </trkpt>
      <trkpt lat="45.94304" lon="4.72314">
        <ele>171</ele>
        <time>2017-08-23T10:37:11Z</time>
      </trkpt>
      <trkpt lat="45.94301" lon="4.72307">
        <ele>171</ele>
        <time>2017-08-23T10:37:12Z</time>
      </trkpt>
      <trkpt lat="45.94298" lon="4.723">
        <ele>171</ele>
        <time>2017-08-23T10:37:13Z</time>
      </trkpt>
      <trkpt lat="45.94296" lon="4.72294">
        <ele>171</ele>
        <time>2017-08-23T10:37:14Z</time>
      </trkpt>
      <trkpt lat="45.94293" lon="4.72288">
        <ele>171</ele>
        <time>2017-08-23T10:37:15Z</time>
      </trkpt>
      <trkpt lat="45.94289" lon="4.72282">
        <ele>171</ele>
        <time>2017-08-23T10:37:16Z</time>
      </trkpt>
      <trkpt lat="45.94286" lon="4.72277">
        <ele>171</ele>
        <time>2017-08-23T10:37:17Z</time>
      </trkpt>
      <trkpt lat="45.9428" lon="4.72272">
        <ele>171</ele>
        <time>2017-08-23T10:37:19Z</time>
      </trkpt>
      <trkpt lat="45.94276" lon="4.72272">
        <ele>171</ele>
        <time>2017-08-23T10:37:20Z</time>
      </trkpt>
      <trkpt lat="45.94271" lon="4.72274">
        <ele>171</ele>
        <time>2017-08-23T10:37:21Z</time>
      </trkpt>
      <trkpt lat="45.94266" lon="4.72277">
        <ele>171</ele>
        <time>2017-08-23T10:37:22Z</time>
      </trkpt>
      <trkpt lat="45.9426" lon="4.72279">
        <ele>171</ele>
        <time>2017-08-23T10:37:23Z</time>
      </trkpt>
      <trkpt lat="45.94255" lon="4.72281">
        <ele>171</ele>
        <time>2017-08-23T10:37:24Z</time>
      </trkpt>
      <trkpt lat="45.9425" lon="4.72283">
        <ele>171</ele>
        <time>2017-08-23T10:37:25Z</time>
      </trkpt>
      <trkpt lat="45.94245" lon="4.72284">
        <ele>171</ele>
        <time>2017-08-23T10:37:26Z</time>
      </trkpt>
      <trkpt lat="45.9424" lon="4.72286">
        <ele>171</ele>
        <time>2017-08-23T10:37:27Z</time>
      </trkpt>
      <trkpt lat="45.94235" lon="4.72287">
        <ele>171</ele>
        <time>2017-08-23T10:37:28Z</time>
      </trkpt>
      <trkpt lat="45.9423" lon="4.72288">
        <ele>171</ele>
        <time>2017-08-23T10:37:29Z</time>
      </trkpt>
      <trkpt lat="45.94224" lon="4.72289">
        <ele>171</ele>
        <time>2017-08-23T10:37:30Z</time>
      </trkpt>
      <trkpt lat="45.94219" lon="4.72291">
        <ele>171</ele>
        <time>2017-08-23T10:37:31Z</time>
      </trkpt>
      <trkpt lat="45.94215" lon="4.72291">
        <ele>171</ele>
        <time>2017-08-23T10:37:32Z</time>
      </trkpt>
      <trkpt lat="45.94207" lon="4.72291">
        <ele>171</ele>
        <time>2017-08-23T10:37:34Z</time>
      </trkpt>
      <trkpt lat="45.94203" lon="4.72292">
        <ele>171</ele>
        <time>2017-08-23T10:37:35Z</time>
      </trkpt>
      <trkpt lat="45.94195" lon="4.72292">
        <ele>171</ele>
        <time>2017-08-23T10:37:37Z</time>
      </trkpt>
      <trkpt lat="45.94191" lon="4.72292">
        <ele>171</ele>
        <time>2017-08-23T10:37:38Z</time>
      </trkpt>
      <trkpt lat="45.94186" lon="4.72292">
        <ele>171</ele>
        <time>2017-08-23T10:37:39Z</time>
      </trkpt>
      <trkpt lat="45.94181" lon="4.72292">
        <ele>171</ele>
        <time>2017-08-23T10:37:40Z</time>
      </trkpt>
      <trkpt lat="45.94173" lon="4.72293">
        <ele>171</ele>
        <time>2017-08-23T10:37:42Z</time>
      </trkpt>
      <trkpt lat="45.94169" lon="4.72292">
        <ele>171</ele>
        <time>2017-08-23T10:37:43Z</time>
      </trkpt>
      <trkpt lat="45.94164" lon="4.72291">
        <ele>171</ele>
        <time>2017-08-23T10:37:44Z</time>
      </trkpt>
      <trkpt lat="45.94158" lon="4.72289">
        <ele>171</ele>
        <time>2017-08-23T10:37:45Z</time>
      </trkpt>
      <trkpt lat="45.94153" lon="4.72287">
        <ele>171</ele>
        <time>2017-08-23T10:37:46Z</time>
      </trkpt>
      <trkpt lat="45.94149" lon="4.72284">
        <ele>171</ele>
        <time>2017-08-23T10:37:47Z</time>
      </trkpt>
      <trkpt lat="45.94144" lon="4.72281">
        <ele>171</ele>
        <time>2017-08-23T10:37:48Z</time>
      </trkpt>
      <trkpt lat="45.94139" lon="4.72278">
        <ele>171</ele>
        <time>2017-08-23T10:37:49Z</time>
      </trkpt>
      <trkpt lat="45.94135" lon="4.72274">
        <ele>171</ele>
        <time>2017-08-23T10:37:50Z</time>
      </trkpt>
      <trkpt lat="45.94131" lon="4.72271">
        <ele>171</ele>
        <time>2017-08-23T10:37:51Z</time>
      </trkpt>
      <trkpt lat="45.94122" lon="4.72266">
        <ele>171</ele>
        <time>2017-08-23T10:37:53Z</time>
      </trkpt>
      <trkpt lat="45.94119" lon="4.72266">
        <ele>171</ele>
        <time>2017-08-23T10:37:54Z</time>
      </trkpt>
      <trkpt lat="45.9411" lon="4.72264">
        <ele>171</ele>
        <time>2017-08-23T10:37:56Z</time>
      </trkpt>
      <trkpt lat="45.94105" lon="4.72264">
        <ele>171</ele>
        <time>2017-08-23T10:37:57Z</time>
      </trkpt>
      <trkpt lat="45.941" lon="4.72264">
        <ele>171</ele>
        <time>2017-08-23T10:37:58Z</time>
      </trkpt>
      <trkpt lat="45.94094" lon="4.72266">
        <ele>171</ele>
        <time>2017-08-23T10:37:59Z</time>
      </trkpt>
      <trkpt lat="45.94088" lon="4.72269">
        <ele>171</ele>
        <time>2017-08-23T10:38:00Z</time>
      </trkpt>
      <trkpt lat="45.94082" lon="4.72272">
        <ele>171</ele>
        <time>2017-08-23T10:38:01Z</time>
      </trkpt>
      <trkpt lat="45.94077" lon="4.72276">
        <ele>171</ele>
        <time>2017-08-23T10:38:02Z</time>
      </trkpt>
      <trkpt lat="45.94074" lon="4.72281">
        <ele>171</ele>
        <time>2017-08-23T10:38:03Z</time>
      </trkpt>
      <trkpt lat="45.9407" lon="4.72285">
        <ele>171</ele>
        <time>2017-08-23T10:38:04Z</time>
      </trkpt>
      <trkpt lat="45.94067" lon="4.72291">
        <ele>171</ele>
        <time>2017-08-23T10:38:05Z</time>
      </trkpt>
      <trkpt lat="45.94064" lon="4.72296">
        <ele>171</ele>
        <time>2017-08-23T10:38:06Z</time>
      </trkpt>
      <trkpt lat="45.94061" lon="4.72301">
        <ele>171</ele>
        <time>2017-08-23T10:38:07Z</time>
      </trkpt>
      <trkpt lat="45.94058" lon="4.72306">
        <ele>171</ele>
        <time>2017-08-23T10:38:08Z</time>
      </trkpt>
      <trkpt lat="45.94054" lon="4.7231">
        <ele>171</ele>
        <time>2017-08-23T10:38:09Z</time>
      </trkpt>
      <trkpt lat="45.9405" lon="4.72314">
        <ele>171</ele>
        <time>2017-08-23T10:38:10Z</time>
      </trkpt>
      <trkpt lat="45.94047" lon="4.72319">
        <ele>171</ele>
        <time>2017-08-23T10:38:11Z</time>
      </trkpt>
      <trkpt lat="45.9404" lon="4.72326">
        <ele>171</ele>
        <time>2017-08-23T10:38:13Z</time>
      </trkpt>
      <trkpt lat="45.94036" lon="4.72329">
        <ele>171</ele>
        <time>2017-08-23T10:38:14Z</time>
      </trkpt>
      <trkpt lat="45.94031" lon="4.72333">
        <ele>171</ele>
        <time>2017-08-23T10:38:15Z</time>
      </trkpt>
      <trkpt lat="45.94027" lon="4.72338">
        <ele>171</ele>
        <time>2017-08-23T10:38:16Z</time>
      </trkpt>
      <trkpt lat="45.94023" lon="4.72343">
        <ele>171</ele>
        <time>2017-08-23T10:38:17Z</time>
      </trkpt>
      <trkpt lat="45.94018" lon="4.72349">
        <ele>171</ele>
        <time>2017-08-23T10:38:18Z</time>
      </trkpt>
      <trkpt lat="45.94015" lon="4.72355">
        <ele>171</ele>
        <time>2017-08-23T10:38:19Z</time>
      </trkpt>
      <trkpt lat="45.94011" lon="4.72361">
        <ele>171</ele>
        <time>2017-08-23T10:38:20Z</time>
      </trkpt>
      <trkpt lat="45.94007" lon="4.72366">
        <ele>171</ele>
        <time>2017-08-23T10:38:21Z</time>
      </trkpt>
      <trkpt lat="45.94003" lon="4.72372">
        <ele>171</ele>
        <time>2017-08-23T10:38:22Z</time>
      </trkpt>
      <trkpt lat="45.93998" lon="4.72377">
        <ele>171</ele>
        <time>2017-08-23T10:38:23Z</time>
      </trkpt>
      <trkpt lat="45.93994" lon="4.72384">
        <ele>171</ele>
        <time>2017-08-23T10:38:24Z</time>
      </trkpt>
      <trkpt lat="45.93989" lon="4.7239">
        <ele>171</ele>
        <time>2017-08-23T10:38:25Z</time>
      </trkpt>
      <trkpt lat="45.93985" lon="4.72396">
        <ele>171</ele>
        <time>2017-08-23T10:38:26Z</time>
      </trkpt>
      <trkpt lat="45.93981" lon="4.72404">
        <ele>171</ele>
        <time>2017-08-23T10:38:27Z</time>
      </trkpt>
      <trkpt lat="45.93977" lon="4.72409">
        <ele>171</ele>
        <time>2017-08-23T10:38:28Z</time>
      </trkpt>
      <trkpt lat="45.93971" lon="4.72413">
        <ele>171</ele>
        <time>2017-08-23T10:38:29Z</time>
      </trkpt>
      <trkpt lat="45.93967" lon="4.72417">
        <ele>171</ele>
        <time>2017-08-23T10:38:30Z</time>
      </trkpt>
      <trkpt lat="45.93963" lon="4.72421">
        <ele>171</ele>
        <time>2017-08-23T10:38:31Z</time>
      </trkpt>
      <trkpt lat="45.9396" lon="4.72426">
        <ele>171</ele>
        <time>2017-08-23T10:38:32Z</time>
      </trkpt>
      <trkpt lat="45.93956" lon="4.7243">
        <ele>171</ele>
        <time>2017-08-23T10:38:33Z</time>
      </trkpt>
      <trkpt lat="45.93951" lon="4.72432">
        <ele>171</ele>
        <time>2017-08-23T10:38:34Z</time>
      </trkpt>
      <trkpt lat="45.93947" lon="4.72436">
        <ele>171</ele>
        <time>2017-08-23T10:38:35Z</time>
      </trkpt>
      <trkpt lat="45.93944" lon="4.7244">
        <ele>171</ele>
        <time>2017-08-23T10:38:36Z</time>
      </trkpt>
      <trkpt lat="45.9394" lon="4.72447">
        <ele>171</ele>
        <time>2017-08-23T10:38:37Z</time>
      </trkpt>
      <trkpt lat="45.93936" lon="4.72452">
        <ele>171</ele>
        <time>2017-08-23T10:38:38Z</time>
      </trkpt>
      <trkpt lat="45.93932" lon="4.72457">
        <ele>171</ele>
        <time>2017-08-23T10:38:39Z</time>
      </trkpt>
      <trkpt lat="45.93927" lon="4.72461">
        <ele>171</ele>
        <time>2017-08-23T10:38:40Z</time>
      </trkpt>
      <trkpt lat="45.93923" lon="4.72466">
        <ele>171</ele>
        <time>2017-08-23T10:38:41Z</time>
      </trkpt>
      <trkpt lat="45.93919" lon="4.72471">
        <ele>171</ele>
        <time>2017-08-23T10:38:42Z</time>
      </trkpt>
      <trkpt lat="45.93915" lon="4.72475">
        <ele>172</ele>
        <time>2017-08-23T10:38:43Z</time>
      </trkpt>
      <trkpt lat="45.93911" lon="4.7248">
        <ele>172</ele>
        <time>2017-08-23T10:38:44Z</time>
      </trkpt>
      <trkpt lat="45.93905" lon="4.72487">
        <ele>172</ele>
        <time>2017-08-23T10:38:46Z</time>
      </trkpt>
      <trkpt lat="45.93902" lon="4.72491">
        <ele>172</ele>
        <time>2017-08-23T10:38:47Z</time>
      </trkpt>
      <trkpt lat="45.93898" lon="4.72495">
        <ele>172</ele>
        <time>2017-08-23T10:38:48Z</time>
      </trkpt>
      <trkpt lat="45.93894" lon="4.72499">
        <ele>172</ele>
        <time>2017-08-23T10:38:49Z</time>
      </trkpt>
      <trkpt lat="45.93891" lon="4.72503">
        <ele>173</ele>
        <time>2017-08-23T10:38:50Z</time>
      </trkpt>
      <trkpt lat="45.93887" lon="4.72507">
        <ele>173</ele>
        <time>2017-08-23T10:38:51Z</time>
      </trkpt>
      <trkpt lat="45.93879" lon="4.72513">
        <ele>173</ele>
        <time>2017-08-23T10:38:53Z</time>
      </trkpt>
      <trkpt lat="45.93875" lon="4.72515">
        <ele>173</ele>
        <time>2017-08-23T10:38:54Z</time>
      </trkpt>
      <trkpt lat="45.93868" lon="4.72516">
        <ele>173</ele>
        <time>2017-08-23T10:38:56Z</time>
      </trkpt>
      <trkpt lat="45.93864" lon="4.72515">
        <ele>173</ele>
        <time>2017-08-23T10:38:57Z</time>
      </trkpt>
      <trkpt lat="45.93858" lon="4.72509">
        <ele>173</ele>
        <time>2017-08-23T10:38:59Z</time>
      </trkpt>
      <trkpt lat="45.93854" lon="4.72507">
        <ele>173</ele>
        <time>2017-08-23T10:39:00Z</time>
      </trkpt>
      <trkpt lat="45.93846" lon="4.72503">
        <ele>174</ele>
        <time>2017-08-23T10:39:02Z</time>
      </trkpt>
      <trkpt lat="45.93843" lon="4.72501">
        <ele>174</ele>
        <time>2017-08-23T10:39:03Z</time>
      </trkpt>
      <trkpt lat="45.93836" lon="4.72496">
        <ele>174</ele>
        <time>2017-08-23T10:39:05Z</time>
      </trkpt>
      <trkpt lat="45.93832" lon="4.72491">
        <ele>173</ele>
        <time>2017-08-23T10:39:06Z</time>
      </trkpt>
      <trkpt lat="45.93825" lon="4.72491">
        <ele>173</ele>
        <time>2017-08-23T10:39:07Z</time>
      </trkpt>
      <trkpt lat="45.93819" lon="4.72487">
        <ele>173</ele>
        <time>2017-08-23T10:39:08Z</time>
      </trkpt>
      <trkpt lat="45.93814" lon="4.72482">
        <ele>172</ele>
        <time>2017-08-23T10:39:09Z</time>
      </trkpt>
      <trkpt lat="45.9381" lon="4.72478">
        <ele>172</ele>
        <time>2017-08-23T10:39:10Z</time>
      </trkpt>
      <trkpt lat="45.93805" lon="4.72467">
        <ele>172</ele>
        <time>2017-08-23T10:39:12Z</time>
      </trkpt>
      <trkpt lat="45.93803" lon="4.72462">
        <ele>172</ele>
        <time>2017-08-23T10:39:13Z</time>
      </trkpt>
      <trkpt lat="45.93799" lon="4.72453">
        <ele>172</ele>
        <time>2017-08-23T10:39:15Z</time>
      </trkpt>
      <trkpt lat="45.93796" lon="4.7245">
        <ele>172</ele>
        <time>2017-08-23T10:39:16Z</time>
      </trkpt>
      <trkpt lat="45.9379" lon="4.72442">
        <ele>172</ele>
        <time>2017-08-23T10:39:18Z</time>
      </trkpt>
      <trkpt lat="45.93787" lon="4.72438">
        <ele>172</ele>
        <time>2017-08-23T10:39:19Z</time>
      </trkpt>
      <trkpt lat="45.93784" lon="4.72431">
        <ele>172</ele>
        <time>2017-08-23T10:39:20Z</time>
      </trkpt>
      <trkpt lat="45.9378" lon="4.72426">
        <ele>172</ele>
        <time>2017-08-23T10:39:21Z</time>
      </trkpt>
      <trkpt lat="45.93775" lon="4.7242">
        <ele>171</ele>
        <time>2017-08-23T10:39:22Z</time>
      </trkpt>
      <trkpt lat="45.93771" lon="4.72418">
        <ele>171</ele>
        <time>2017-08-23T10:39:23Z</time>
      </trkpt>
      <trkpt lat="45.93766" lon="4.72414">
        <ele>171</ele>
        <time>2017-08-23T10:39:24Z</time>
      </trkpt>
      <trkpt lat="45.93762" lon="4.7241">
        <ele>171</ele>
        <time>2017-08-23T10:39:25Z</time>
      </trkpt>
      <trkpt lat="45.93757" lon="4.72406">
        <ele>171</ele>
        <time>2017-08-23T10:39:26Z</time>
      </trkpt>
      <trkpt lat="45.93752" lon="4.72403">
        <ele>171</ele>
        <time>2017-08-23T10:39:27Z</time>
      </trkpt>
      <trkpt lat="45.93745" lon="4.72398">
        <ele>171</ele>
        <time>2017-08-23T10:39:29Z</time>
      </trkpt>
      <trkpt lat="45.93742" lon="4.72395">
        <ele>171</ele>
        <time>2017-08-23T10:39:30Z</time>
      </trkpt>
      <trkpt lat="45.93738" lon="4.72392">
        <ele>171</ele>
        <time>2017-08-23T10:39:31Z</time>
      </trkpt>
      <trkpt lat="45.93732" lon="4.72389">
        <ele>171</ele>
        <time>2017-08-23T10:39:32Z</time>
      </trkpt>
      <trkpt lat="45.93728" lon="4.72386">
        <ele>171</ele>
        <time>2017-08-23T10:39:33Z</time>
      </trkpt>
      <trkpt lat="45.93724" lon="4.72381">
        <ele>171</ele>
        <time>2017-08-23T10:39:34Z</time>
      </trkpt>
      <trkpt lat="45.9372" lon="4.72377">
        <ele>171</ele>
        <time>2017-08-23T10:39:35Z</time>
      </trkpt>
      <trkpt lat="45.93716" lon="4.72372">
        <ele>172</ele>
        <time>2017-08-23T10:39:36Z</time>
      </trkpt>
      <trkpt lat="45.93712" lon="4.72368">
        <ele>172</ele>
        <time>2017-08-23T10:39:37Z</time>
      </trkpt>
      <trkpt lat="45.93708" lon="4.72364">
        <ele>171</ele>
        <time>2017-08-23T10:39:38Z</time>
      </trkpt>
      <trkpt lat="45.93704" lon="4.7236">
        <ele>171</ele>
        <time>2017-08-23T10:39:39Z</time>
      </trkpt>
      <trkpt lat="45.937" lon="4.72356">
        <ele>171</ele>
        <time>2017-08-23T10:39:40Z</time>
      </trkpt>
      <trkpt lat="45.93696" lon="4.72352">
        <ele>171</ele>
        <time>2017-08-23T10:39:41Z</time>
      </trkpt>
      <trkpt lat="45.93693" lon="4.72349">
        <ele>171</ele>
        <time>2017-08-23T10:39:42Z</time>
      </trkpt>
      <trkpt lat="45.93686" lon="4.72341">
        <ele>171</ele>
        <time>2017-08-23T10:39:45Z</time>
      </trkpt>
      <trkpt lat="45.93683" lon="4.72337">
        <ele>171</ele>
        <time>2017-08-23T10:39:46Z</time>
      </trkpt>
      <trkpt lat="45.93676" lon="4.7233">
        <ele>171</ele>
        <time>2017-08-23T10:39:48Z</time>
      </trkpt>
      <trkpt lat="45.93672" lon="4.72327">
        <ele>171</ele>
        <time>2017-08-23T10:39:49Z</time>
      </trkpt>
      <trkpt lat="45.93668" lon="4.72323">
        <ele>171</ele>
        <time>2017-08-23T10:39:50Z</time>
      </trkpt>
      <trkpt lat="45.93662" lon="4.72319">
        <ele>172</ele>
        <time>2017-08-23T10:39:51Z</time>
      </trkpt>
      <trkpt lat="45.93659" lon="4.72314">
        <ele>172</ele>
        <time>2017-08-23T10:39:52Z</time>
      </trkpt>
      <trkpt lat="45.93655" lon="4.7231">
        <ele>172</ele>
        <time>2017-08-23T10:39:53Z</time>
      </trkpt>
      <trkpt lat="45.93648" lon="4.72302">
        <ele>172</ele>
        <time>2017-08-23T10:39:55Z</time>
      </trkpt>
      <trkpt lat="45.93645" lon="4.72298">
        <ele>172</ele>
        <time>2017-08-23T10:39:56Z</time>
      </trkpt>
      <trkpt lat="45.93638" lon="4.7229">
        <ele>172</ele>
        <time>2017-08-23T10:39:58Z</time>
      </trkpt>
      <trkpt lat="45.93635" lon="4.72286">
        <ele>172</ele>
        <time>2017-08-23T10:39:59Z</time>
      </trkpt>
      <trkpt lat="45.93629" lon="4.72279">
        <ele>172</ele>
        <time>2017-08-23T10:40:01Z</time>
      </trkpt>
      <trkpt lat="45.93625" lon="4.72275">
        <ele>172</ele>
        <time>2017-08-23T10:40:02Z</time>
      </trkpt>
      <trkpt lat="45.93618" lon="4.72268">
        <ele>172</ele>
        <time>2017-08-23T10:40:04Z</time>
      </trkpt>
      <trkpt lat="45.93614" lon="4.72264">
        <ele>172</ele>
        <time>2017-08-23T10:40:05Z</time>
      </trkpt>
      <trkpt lat="45.9361" lon="4.72261">
        <ele>172</ele>
        <time>2017-08-23T10:40:06Z</time>
      </trkpt>
      <trkpt lat="45.93606" lon="4.72257">
        <ele>173</ele>
        <time>2017-08-23T10:40:07Z</time>
      </trkpt>
      <trkpt lat="45.93599" lon="4.7225">
        <ele>173</ele>
        <time>2017-08-23T10:40:09Z</time>
      </trkpt>
      <trkpt lat="45.93596" lon="4.72246">
        <ele>173</ele>
        <time>2017-08-23T10:40:10Z</time>
      </trkpt>
      <trkpt lat="45.9359" lon="4.7224">
        <ele>173</ele>
        <time>2017-08-23T10:40:12Z</time>
      </trkpt>
      <trkpt lat="45.93587" lon="4.72236">
        <ele>173</ele>
        <time>2017-08-23T10:40:13Z</time>
      </trkpt>
      <trkpt lat="45.9358" lon="4.72228">
        <ele>173</ele>
        <time>2017-08-23T10:40:16Z</time>
      </trkpt>
      <trkpt lat="45.93577" lon="4.72226">
        <ele>173</ele>
        <time>2017-08-23T10:40:17Z</time>
      </trkpt>
      <trkpt lat="45.93569" lon="4.72222">
        <ele>173</ele>
        <time>2017-08-23T10:40:19Z</time>
      </trkpt>
      <trkpt lat="45.93564" lon="4.72223">
        <ele>173</ele>
        <time>2017-08-23T10:40:20Z</time>
      </trkpt>
      <trkpt lat="45.93559" lon="4.72225">
        <ele>173</ele>
        <time>2017-08-23T10:40:21Z</time>
      </trkpt>
      <trkpt lat="45.93555" lon="4.72231">
        <ele>173</ele>
        <time>2017-08-23T10:40:22Z</time>
      </trkpt>
      <trkpt lat="45.93551" lon="4.72237">
        <ele>172</ele>
        <time>2017-08-23T10:40:23Z</time>
      </trkpt>
      <trkpt lat="45.93548" lon="4.72244">
        <ele>172</ele>
        <time>2017-08-23T10:40:24Z</time>
      </trkpt>
      <trkpt lat="45.93544" lon="4.72251">
        <ele>172</ele>
        <time>2017-08-23T10:40:25Z</time>
      </trkpt>
      <trkpt lat="45.93541" lon="4.72257">
        <ele>172</ele>
        <time>2017-08-23T10:40:26Z</time>
      </trkpt>
      <trkpt lat="45.93538" lon="4.72264">
        <ele>172</ele>
        <time>2017-08-23T10:40:27Z</time>
      </trkpt>
      <trkpt lat="45.93536" lon="4.72269">
        <ele>172</ele>
        <time>2017-08-23T10:40:28Z</time>
      </trkpt>
      <trkpt lat="45.9353" lon="4.72279">
        <ele>172</ele>
        <time>2017-08-23T10:40:30Z</time>
      </trkpt>
      <trkpt lat="45.93528" lon="4.72284">
        <ele>172</ele>
        <time>2017-08-23T10:40:31Z</time>
      </trkpt>
      <trkpt lat="45.93522" lon="4.72295">
        <ele>172</ele>
        <time>2017-08-23T10:40:33Z</time>
      </trkpt>
      <trkpt lat="45.93519" lon="4.72299">
        <ele>172</ele>
        <time>2017-08-23T10:40:34Z</time>
      </trkpt>
      <trkpt lat="45.93516" lon="4.72304">
        <ele>173</ele>
        <time>2017-08-23T10:40:35Z</time>
      </trkpt>
      <trkpt lat="45.93513" lon="4.72309">
        <ele>173</ele>
        <time>2017-08-23T10:40:36Z</time>
      </trkpt>
      <trkpt lat="45.93508" lon="4.72313">
        <ele>173</ele>
        <time>2017-08-23T10:40:37Z</time>
      </trkpt>
      <trkpt lat="45.93505" lon="4.72318">
        <ele>173</ele>
        <time>2017-08-23T10:40:38Z</time>
      </trkpt>
      <trkpt lat="45.93501" lon="4.72324">
        <ele>173</ele>
        <time>2017-08-23T10:40:39Z</time>
      </trkpt>
      <trkpt lat="45.93498" lon="4.72329">
        <ele>173</ele>
        <time>2017-08-23T10:40:40Z</time>
      </trkpt>
      <trkpt lat="45.93494" lon="4.72334">
        <ele>173</ele>
        <time>2017-08-23T10:40:41Z</time>
      </trkpt>
      <trkpt lat="45.9349" lon="4.72339">
        <ele>173</ele>
        <time>2017-08-23T10:40:42Z</time>
      </trkpt>
      <trkpt lat="45.93487" lon="4.72344">
        <ele>173</ele>
        <time>2017-08-23T10:40:43Z</time>
      </trkpt>
      <trkpt lat="45.93484" lon="4.72349">
        <ele>173</ele>
        <time>2017-08-23T10:40:44Z</time>
      </trkpt>
      <trkpt lat="45.9348" lon="4.72353">
        <ele>173</ele>
        <time>2017-08-23T10:40:45Z</time>
      </trkpt>
      <trkpt lat="45.93477" lon="4.72357">
        <ele>173</ele>
        <time>2017-08-23T10:40:46Z</time>
      </trkpt>
      <trkpt lat="45.93474" lon="4.72362">
        <ele>173</ele>
        <time>2017-08-23T10:40:47Z</time>
      </trkpt>
      <trkpt lat="45.9347" lon="4.72367">
        <ele>173</ele>
        <time>2017-08-23T10:40:48Z</time>
      </trkpt>
      <trkpt lat="45.93466" lon="4.72373">
        <ele>173</ele>
        <time>2017-08-23T10:40:49Z</time>
      </trkpt>
      <trkpt lat="45.93461" lon="4.72378">
        <ele>173</ele>
        <time>2017-08-23T10:40:50Z</time>
      </trkpt>
      <trkpt lat="45.93457" lon="4.72382">
        <ele>173</ele>
        <time>2017-08-23T10:40:51Z</time>
      </trkpt>
      <trkpt lat="45.93452" lon="4.72386">
        <ele>173</ele>
        <time>2017-08-23T10:40:52Z</time>
      </trkpt>
      <trkpt lat="45.93447" lon="4.7239">
        <ele>173</ele>
        <time>2017-08-23T10:40:53Z</time>
      </trkpt>
      <trkpt lat="45.93443" lon="4.72394">
        <ele>173</ele>
        <time>2017-08-23T10:40:54Z</time>
      </trkpt>
      <trkpt lat="45.93435" lon="4.72399">
        <ele>173</ele>
        <time>2017-08-23T10:40:56Z</time>
      </trkpt>
      <trkpt lat="45.93431" lon="4.72401">
        <ele>174</ele>
        <time>2017-08-23T10:40:57Z</time>
      </trkpt>
      <trkpt lat="45.93426" lon="4.72403">
        <ele>174</ele>
        <time>2017-08-23T10:40:58Z</time>
      </trkpt>
      <trkpt lat="45.93421" lon="4.72405">
        <ele>174</ele>
        <time>2017-08-23T10:40:59Z</time>
      </trkpt>
      <trkpt lat="45.93417" lon="4.72408">
        <ele>174</ele>
        <time>2017-08-23T10:41:00Z</time>
      </trkpt>
      <trkpt lat="45.93412" lon="4.72409">
        <ele>174</ele>
        <time>2017-08-23T10:41:01Z</time>
      </trkpt>
      <trkpt lat="45.93405" lon="4.72409">
        <ele>174</ele>
        <time>2017-08-23T10:41:03Z</time>
      </trkpt>
      <trkpt lat="45.93401" lon="4.72408">
        <ele>174</ele>
        <time>2017-08-23T10:41:04Z</time>
      </trkpt>
      <trkpt lat="45.93394" lon="4.72409">
        <ele>174</ele>
        <time>2017-08-23T10:41:06Z</time>
      </trkpt>
      <trkpt lat="45.93392" lon="4.72412">
        <ele>174</ele>
        <time>2017-08-23T10:41:07Z</time>
      </trkpt>
      <trkpt lat="45.9339" lon="4.72417">
        <ele>173</ele>
        <time>2017-08-23T10:41:08Z</time>
      </trkpt>
      <trkpt lat="45.93389" lon="4.72425">
        <ele>173</ele>
        <time>2017-08-23T10:41:09Z</time>
      </trkpt>
      <trkpt lat="45.93389" lon="4.72432">
        <ele>173</ele>
        <time>2017-08-23T10:41:10Z</time>
      </trkpt>
      <trkpt lat="45.93391" lon="4.72438">
        <ele>173</ele>
        <time>2017-08-23T10:41:11Z</time>
      </trkpt>
      <trkpt lat="45.93392" lon="4.72446">
        <ele>173</ele>
        <time>2017-08-23T10:41:12Z</time>
      </trkpt>
      <trkpt lat="45.93392" lon="4.72453">
        <ele>173</ele>
        <time>2017-08-23T10:41:13Z</time>
      </trkpt>
      <trkpt lat="45.93392" lon="4.72461">
        <ele>173</ele>
        <time>2017-08-23T10:41:14Z</time>
      </trkpt>
      <trkpt lat="45.9339" lon="4.72468">
        <ele>173</ele>
        <time>2017-08-23T10:41:15Z</time>
      </trkpt>
      <trkpt lat="45.93388" lon="4.72474">
        <ele>173</ele>
        <time>2017-08-23T10:41:16Z</time>
      </trkpt>
      <trkpt lat="45.93384" lon="4.72478">
        <ele>173</ele>
        <time>2017-08-23T10:41:17Z</time>
      </trkpt>
      <trkpt lat="45.93378" lon="4.72488">
        <ele>173</ele>
        <time>2017-08-23T10:41:19Z</time>
      </trkpt>
      <trkpt lat="45.93375" lon="4.72492">
        <ele>173</ele>
        <time>2017-08-23T10:41:20Z</time>
      </trkpt>
      <trkpt lat="45.93371" lon="4.72495">
        <ele>173</ele>
        <time>2017-08-23T10:41:21Z</time>
      </trkpt>
      <trkpt lat="45.93367" lon="4.72498">
        <ele>173</ele>
        <time>2017-08-23T10:41:22Z</time>
      </trkpt>
      <trkpt lat="45.93362" lon="4.72502">
        <ele>172</ele>
        <time>2017-08-23T10:41:23Z</time>
      </trkpt>
      <trkpt lat="45.93356" lon="4.72506">
        <ele>172</ele>
        <time>2017-08-23T10:41:24Z</time>
      </trkpt>
      <trkpt lat="45.93352" lon="4.7251">
        <ele>172</ele>
        <time>2017-08-23T10:41:25Z</time>
      </trkpt>
      <trkpt lat="45.93348" lon="4.72516">
        <ele>172</ele>
        <time>2017-08-23T10:41:26Z</time>
      </trkpt>
      <trkpt lat="45.93344" lon="4.7252">
        <ele>172</ele>
        <time>2017-08-23T10:41:27Z</time>
      </trkpt>
      <trkpt lat="45.93341" lon="4.72524">
        <ele>172</ele>
        <time>2017-08-23T10:41:28Z</time>
      </trkpt>
      <trkpt lat="45.93334" lon="4.72531">
        <ele>172</ele>
        <time>2017-08-23T10:41:30Z</time>
      </trkpt>
      <trkpt lat="45.93331" lon="4.72534">
        <ele>172</ele>
        <time>2017-08-23T10:41:31Z</time>
      </trkpt>
      <trkpt lat="45.93327" lon="4.7254">
        <ele>172</ele>
        <time>2017-08-23T10:41:33Z</time>
      </trkpt>
      <trkpt lat="45.93325" lon="4.72543">
        <ele>172</ele>
        <time>2017-08-23T10:41:34Z</time>
      </trkpt>
      <trkpt lat="45.9332" lon="4.72549">
        <ele>172</ele>
        <time>2017-08-23T10:41:36Z</time>
      </trkpt>
      <trkpt lat="45.93317" lon="4.72552">
        <ele>172</ele>
        <time>2017-08-23T10:41:37Z</time>
      </trkpt>
      <trkpt lat="45.93312" lon="4.72557">
        <ele>172</ele>
        <time>2017-08-23T10:41:39Z</time>
      </trkpt>
      <trkpt lat="45.93308" lon="4.72561">
        <ele>172</ele>
        <time>2017-08-23T10:41:40Z</time>
      </trkpt>
      <trkpt lat="45.93301" lon="4.72569">
        <ele>171</ele>
        <time>2017-08-23T10:41:42Z</time>
      </trkpt>
      <trkpt lat="45.93298" lon="4.72573">
        <ele>171</ele>
        <time>2017-08-23T10:41:43Z</time>
      </trkpt>
      <trkpt lat="45.93294" lon="4.72578">
        <ele>171</ele>
        <time>2017-08-23T10:41:44Z</time>
      </trkpt>
      <trkpt lat="45.9329" lon="4.72583">
        <ele>171</ele>
        <time>2017-08-23T10:41:45Z</time>
      </trkpt>
      <trkpt lat="45.93286" lon="4.72588">
        <ele>170</ele>
        <time>2017-08-23T10:41:46Z</time>
      </trkpt>
      <trkpt lat="45.93282" lon="4.72593">
        <ele>170</ele>
        <time>2017-08-23T10:41:47Z</time>
      </trkpt>
      <trkpt lat="45.93278" lon="4.72598">
        <ele>170</ele>
        <time>2017-08-23T10:41:48Z</time>
      </trkpt>
      <trkpt lat="45.93275" lon="4.72603">
        <ele>170</ele>
        <time>2017-08-23T10:41:49Z</time>
      </trkpt>
      <trkpt lat="45.93271" lon="4.72608">
        <ele>170</ele>
        <time>2017-08-23T10:41:50Z</time>
      </trkpt>
      <trkpt lat="45.93268" lon="4.72612">
        <ele>170</ele>
        <time>2017-08-23T10:41:51Z</time>
      </trkpt>
      <trkpt lat="45.93261" lon="4.7262">
        <ele>170</ele>
        <time>2017-08-23T10:41:53Z</time>
      </trkpt>
      <trkpt lat="45.93258" lon="4.72624">
        <ele>170</ele>
        <time>2017-08-23T10:41:54Z</time>
      </trkpt>
      <trkpt lat="45.93253" lon="4.72627">
        <ele>170</ele>
        <time>2017-08-23T10:41:55Z</time>
      </trkpt>
      <trkpt lat="45.9325" lon="4.72635">
        <ele>170</ele>
        <time>2017-08-23T10:41:56Z</time>
      </trkpt>
      <trkpt lat="45.93245" lon="4.7264">
        <ele>170</ele>
        <time>2017-08-23T10:41:57Z</time>
      </trkpt>
      <trkpt lat="45.93241" lon="4.72645">
        <ele>170</ele>
        <time>2017-08-23T10:41:58Z</time>
      </trkpt>
      <trkpt lat="45.93237" lon="4.7265">
        <ele>170</ele>
        <time>2017-08-23T10:41:59Z</time>
      </trkpt>
      <trkpt lat="45.93233" lon="4.72655">
        <ele>169</ele>
        <time>2017-08-23T10:42:00Z</time>
      </trkpt>
      <trkpt lat="45.93225" lon="4.72662">
        <ele>170</ele>
        <time>2017-08-23T10:42:02Z</time>
      </trkpt>
      <trkpt lat="45.93222" lon="4.72665">
        <ele>170</ele>
        <time>2017-08-23T10:42:03Z</time>
      </trkpt>
      <trkpt lat="45.93215" lon="4.72672">
        <ele>169</ele>
        <time>2017-08-23T10:42:05Z</time>
      </trkpt>
      <trkpt lat="45.93211" lon="4.72676">
        <ele>169</ele>
        <time>2017-08-23T10:42:06Z</time>
      </trkpt>
      <trkpt lat="45.93206" lon="4.72681">
        <ele>169</ele>
        <time>2017-08-23T10:42:07Z</time>
      </trkpt>
      <trkpt lat="45.93202" lon="4.72685">
        <ele>169</ele>
        <time>2017-08-23T10:42:08Z</time>
      </trkpt>
      <trkpt lat="45.93198" lon="4.7269">
        <ele>169</ele>
        <time>2017-08-23T10:42:09Z</time>
      </trkpt>
      <trkpt lat="45.93194" lon="4.72694">
        <ele>169</ele>
        <time>2017-08-23T10:42:10Z</time>
      </trkpt>
      <trkpt lat="45.9319" lon="4.72698">
        <ele>169</ele>
        <time>2017-08-23T10:42:11Z</time>
      </trkpt>
      <trkpt lat="45.93187" lon="4.72702">
        <ele>169</ele>
        <time>2017-08-23T10:42:12Z</time>
      </trkpt>
      <trkpt lat="45.93182" lon="4.72706">
        <ele>169</ele>
        <time>2017-08-23T10:42:13Z</time>
      </trkpt>
      <trkpt lat="45.93178" lon="4.72712">
        <ele>169</ele>
        <time>2017-08-23T10:42:14Z</time>
      </trkpt>
      <trkpt lat="45.93174" lon="4.72717">
        <ele>170</ele>
        <time>2017-08-23T10:42:15Z</time>
      </trkpt>
      <trkpt lat="45.93171" lon="4.72723">
        <ele>170</ele>
        <time>2017-08-23T10:42:16Z</time>
      </trkpt>
      <trkpt lat="45.93167" lon="4.72728">
        <ele>170</ele>
        <time>2017-08-23T10:42:17Z</time>
      </trkpt>
      <trkpt lat="45.93163" lon="4.72733">
        <ele>170</ele>
        <time>2017-08-23T10:42:18Z</time>
      </trkpt>
      <trkpt lat="45.93159" lon="4.72737">
        <ele>170</ele>
        <time>2017-08-23T10:42:19Z</time>
      </trkpt>
      <trkpt lat="45.93155" lon="4.72741">
        <ele>170</ele>
        <time>2017-08-23T10:42:20Z</time>
      </trkpt>
      <trkpt lat="45.93151" lon="4.72745">
        <ele>170</ele>
        <time>2017-08-23T10:42:21Z</time>
      </trkpt>
      <trkpt lat="45.93148" lon="4.72749">
        <ele>170</ele>
        <time>2017-08-23T10:42:22Z</time>
      </trkpt>
      <trkpt lat="45.9314" lon="4.72757">
        <ele>171</ele>
        <time>2017-08-23T10:42:24Z</time>
      </trkpt>
      <trkpt lat="45.93137" lon="4.72761">
        <ele>171</ele>
        <time>2017-08-23T10:42:25Z</time>
      </trkpt>
      <trkpt lat="45.93133" lon="4.72765">
        <ele>171</ele>
        <time>2017-08-23T10:42:26Z</time>
      </trkpt>
      <trkpt lat="45.93129" lon="4.72771">
        <ele>171</ele>
        <time>2017-08-23T10:42:27Z</time>
      </trkpt>
      <trkpt lat="45.93126" lon="4.72776">
        <ele>171</ele>
        <time>2017-08-23T10:42:28Z</time>
      </trkpt>
      <trkpt lat="45.93122" lon="4.72782">
        <ele>171</ele>
        <time>2017-08-23T10:42:29Z</time>
      </trkpt>
      <trkpt lat="45.93118" lon="4.72787">
        <ele>171</ele>
        <time>2017-08-23T10:42:30Z</time>
      </trkpt>
      <trkpt lat="45.93115" lon="4.72792">
        <ele>171</ele>
        <time>2017-08-23T10:42:31Z</time>
      </trkpt>
      <trkpt lat="45.93111" lon="4.72796">
        <ele>171</ele>
        <time>2017-08-23T10:42:32Z</time>
      </trkpt>
      <trkpt lat="45.93108" lon="4.72801">
        <ele>171</ele>
        <time>2017-08-23T10:42:33Z</time>
      </trkpt>
      <trkpt lat="45.93101" lon="4.72809">
        <ele>172</ele>
        <time>2017-08-23T10:42:35Z</time>
      </trkpt>
      <trkpt lat="45.93098" lon="4.72813">
        <ele>172</ele>
        <time>2017-08-23T10:42:36Z</time>
      </trkpt>
      <trkpt lat="45.93091" lon="4.7282">
        <ele>172</ele>
        <time>2017-08-23T10:42:38Z</time>
      </trkpt>
      <trkpt lat="45.93087" lon="4.72823">
        <ele>172</ele>
        <time>2017-08-23T10:42:39Z</time>
      </trkpt>
      <trkpt lat="45.93083" lon="4.72827">
        <ele>173</ele>
        <time>2017-08-23T10:42:40Z</time>
      </trkpt>
      <trkpt lat="45.93079" lon="4.7283">
        <ele>173</ele>
        <time>2017-08-23T10:42:41Z</time>
      </trkpt>
      <trkpt lat="45.93075" lon="4.72833">
        <ele>173</ele>
        <time>2017-08-23T10:42:42Z</time>
      </trkpt>
      <trkpt lat="45.93071" lon="4.72836">
        <ele>173</ele>
        <time>2017-08-23T10:42:43Z</time>
      </trkpt>
      <trkpt lat="45.93063" lon="4.72843">
        <ele>172</ele>
        <time>2017-08-23T10:42:45Z</time>
      </trkpt>
      <trkpt lat="45.9306" lon="4.72849">
        <ele>172</ele>
        <time>2017-08-23T10:42:46Z</time>
      </trkpt>
      <trkpt lat="45.93056" lon="4.72857">
        <ele>172</ele>
        <time>2017-08-23T10:42:48Z</time>
      </trkpt>
      <trkpt lat="45.93053" lon="4.7286">
        <ele>172</ele>
        <time>2017-08-23T10:42:49Z</time>
      </trkpt>
      <trkpt lat="45.93049" lon="4.72864">
        <ele>172</ele>
        <time>2017-08-23T10:42:50Z</time>
      </trkpt>
      <trkpt lat="45.93045" lon="4.72867">
        <ele>172</ele>
        <time>2017-08-23T10:42:51Z</time>
      </trkpt>
      <trkpt lat="45.9304" lon="4.72871">
        <ele>172</ele>
        <time>2017-08-23T10:42:52Z</time>
      </trkpt>
      <trkpt lat="45.93036" lon="4.72877">
        <ele>172</ele>
        <time>2017-08-23T10:42:53Z</time>
      </trkpt>
      <trkpt lat="45.93031" lon="4.72881">
        <ele>172</ele>
        <time>2017-08-23T10:42:54Z</time>
      </trkpt>
      <trkpt lat="45.93027" lon="4.72884">
        <ele>172</ele>
        <time>2017-08-23T10:42:55Z</time>
      </trkpt>
      <trkpt lat="45.93023" lon="4.72888">
        <ele>172</ele>
        <time>2017-08-23T10:42:56Z</time>
      </trkpt>
      <trkpt lat="45.9302" lon="4.72893">
        <ele>172</ele>
        <time>2017-08-23T10:42:57Z</time>
      </trkpt>
      <trkpt lat="45.93014" lon="4.729">
        <ele>172</ele>
        <time>2017-08-23T10:42:59Z</time>
      </trkpt>
      <trkpt lat="45.93012" lon="4.72905">
        <ele>171</ele>
        <time>2017-08-23T10:43:00Z</time>
      </trkpt>
      <trkpt lat="45.93008" lon="4.72909">
        <ele>171</ele>
        <time>2017-08-23T10:43:01Z</time>
      </trkpt>
      <trkpt lat="45.93005" lon="4.72914">
        <ele>171</ele>
        <time>2017-08-23T10:43:02Z</time>
      </trkpt>
      <trkpt lat="45.93001" lon="4.72919">
        <ele>171</ele>
        <time>2017-08-23T10:43:03Z</time>
      </trkpt>
      <trkpt lat="45.92997" lon="4.72925">
        <ele>171</ele>
        <time>2017-08-23T10:43:04Z</time>
      </trkpt>
      <trkpt lat="45.92993" lon="4.72931">
        <ele>171</ele>
        <time>2017-08-23T10:43:05Z</time>
      </trkpt>
      <trkpt lat="45.92989" lon="4.72936">
        <ele>171</ele>
        <time>2017-08-23T10:43:06Z</time>
      </trkpt>
      <trkpt lat="45.92985" lon="4.7294">
        <ele>171</ele>
        <time>2017-08-23T10:43:07Z</time>
      </trkpt>
      <trkpt lat="45.92981" lon="4.72945">
        <ele>171</ele>
        <time>2017-08-23T10:43:08Z</time>
      </trkpt>
      <trkpt lat="45.92977" lon="4.72948">
        <ele>171</ele>
        <time>2017-08-23T10:43:09Z</time>
      </trkpt>
      <trkpt lat="45.92973" lon="4.72952">
        <ele>171</ele>
        <time>2017-08-23T10:43:10Z</time>
      </trkpt>
      <trkpt lat="45.92969" lon="4.72956">
        <ele>171</ele>
        <time>2017-08-23T10:43:11Z</time>
      </trkpt>
      <trkpt lat="45.92966" lon="4.7296">
        <ele>171</ele>
        <time>2017-08-23T10:43:12Z</time>
      </trkpt>
      <trkpt lat="45.92959" lon="4.72968">
        <ele>171</ele>
        <time>2017-08-23T10:43:14Z</time>
      </trkpt>
      <trkpt lat="45.92957" lon="4.72973">
        <ele>171</ele>
        <time>2017-08-23T10:43:15Z</time>
      </trkpt>
      <trkpt lat="45.92954" lon="4.72977">
        <ele>171</ele>
        <time>2017-08-23T10:43:16Z</time>
      </trkpt>
      <trkpt lat="45.9295" lon="4.72982">
        <ele>171</ele>
        <time>2017-08-23T10:43:17Z</time>
      </trkpt>
      <trkpt lat="45.92947" lon="4.72987">
        <ele>171</ele>
        <time>2017-08-23T10:43:18Z</time>
      </trkpt>
      <trkpt lat="45.92943" lon="4.72993">
        <ele>171</ele>
        <time>2017-08-23T10:43:19Z</time>
      </trkpt>
      <trkpt lat="45.92938" lon="4.72999">
        <ele>171</ele>
        <time>2017-08-23T10:43:20Z</time>
      </trkpt>
      <trkpt lat="45.92934" lon="4.73004">
        <ele>171</ele>
        <time>2017-08-23T10:43:21Z</time>
      </trkpt>
      <trkpt lat="45.9293" lon="4.73009">
        <ele>172</ele>
        <time>2017-08-23T10:43:22Z</time>
      </trkpt>
      <trkpt lat="45.92927" lon="4.73013">
        <ele>172</ele>
        <time>2017-08-23T10:43:23Z</time>
      </trkpt>
      <trkpt lat="45.9292" lon="4.73022">
        <ele>172</ele>
        <time>2017-08-23T10:43:25Z</time>
      </trkpt>
      <trkpt lat="45.92917" lon="4.73027">
        <ele>172</ele>
        <time>2017-08-23T10:43:26Z</time>
      </trkpt>
      <trkpt lat="45.92914" lon="4.73031">
        <ele>172</ele>
        <time>2017-08-23T10:43:27Z</time>
      </trkpt>
      <trkpt lat="45.92911" lon="4.73036">
        <ele>172</ele>
        <time>2017-08-23T10:43:28Z</time>
      </trkpt>
      <trkpt lat="45.92907" lon="4.73042">
        <ele>172</ele>
        <time>2017-08-23T10:43:29Z</time>
      </trkpt>
      <trkpt lat="45.92903" lon="4.73047">
        <ele>172</ele>
        <time>2017-08-23T10:43:30Z</time>
      </trkpt>
      <trkpt lat="45.92897" lon="4.73056">
        <ele>172</ele>
        <time>2017-08-23T10:43:32Z</time>
      </trkpt>
      <trkpt lat="45.92895" lon="4.73061">
        <ele>172</ele>
        <time>2017-08-23T10:43:33Z</time>
      </trkpt>
      <trkpt lat="45.92889" lon="4.7307">
        <ele>172</ele>
        <time>2017-08-23T10:43:35Z</time>
      </trkpt>
      <trkpt lat="45.92886" lon="4.73075">
        <ele>172</ele>
        <time>2017-08-23T10:43:36Z</time>
      </trkpt>
      <trkpt lat="45.9288" lon="4.73084">
        <ele>172</ele>
        <time>2017-08-23T10:43:38Z</time>
      </trkpt>
      <trkpt lat="45.92876" lon="4.73088">
        <ele>172</ele>
        <time>2017-08-23T10:43:39Z</time>
      </trkpt>
      <trkpt lat="45.92873" lon="4.73092">
        <ele>172</ele>
        <time>2017-08-23T10:43:40Z</time>
      </trkpt>
      <trkpt lat="45.92869" lon="4.73097">
        <ele>172</ele>
        <time>2017-08-23T10:43:41Z</time>
      </trkpt>
      <trkpt lat="45.92865" lon="4.73101">
        <ele>171</ele>
        <time>2017-08-23T10:43:42Z</time>
      </trkpt>
      <trkpt lat="45.92862" lon="4.73106">
        <ele>171</ele>
        <time>2017-08-23T10:43:43Z</time>
      </trkpt>
      <trkpt lat="45.92854" lon="4.73107">
        <ele>171</ele>
        <time>2017-08-23T10:43:45Z</time>
      </trkpt>
      <trkpt lat="45.9285" lon="4.73102">
        <ele>171</ele>
        <time>2017-08-23T10:43:46Z</time>
      </trkpt>
      <trkpt lat="45.92848" lon="4.7309">
        <ele>171</ele>
        <time>2017-08-23T10:43:48Z</time>
      </trkpt>
      <trkpt lat="45.92847" lon="4.73084">
        <ele>171</ele>
        <time>2017-08-23T10:43:49Z</time>
      </trkpt>
      <trkpt lat="45.92846" lon="4.73077">
        <ele>171</ele>
        <time>2017-08-23T10:43:50Z</time>
      </trkpt>
      <trkpt lat="45.92845" lon="4.7307">
        <ele>171</ele>
        <time>2017-08-23T10:43:51Z</time>
      </trkpt>
      <trkpt lat="45.92844" lon="4.73058">
        <ele>171</ele>
        <time>2017-08-23T10:43:53Z</time>
      </trkpt>
      <trkpt lat="45.92843" lon="4.73052">
        <ele>171</ele>
        <time>2017-08-23T10:43:54Z</time>
      </trkpt>
      <trkpt lat="45.92842" lon="4.73045">
        <ele>171</ele>
        <time>2017-08-23T10:43:55Z</time>
      </trkpt>
      <trkpt lat="45.92841" lon="4.73038">
        <ele>171</ele>
        <time>2017-08-23T10:43:56Z</time>
      </trkpt>
      <trkpt lat="45.92839" lon="4.73031">
        <ele>171</ele>
        <time>2017-08-23T10:43:57Z</time>
      </trkpt>
      <trkpt lat="45.92838" lon="4.73024">
        <ele>171</ele>
        <time>2017-08-23T10:43:58Z</time>
      </trkpt>
      <trkpt lat="45.92837" lon="4.73017">
        <ele>171</ele>
        <time>2017-08-23T10:43:59Z</time>
      </trkpt>
      <trkpt lat="45.92835" lon="4.7301">
        <ele>171</ele>
        <time>2017-08-23T10:44:00Z</time>
      </trkpt>
      <trkpt lat="45.92835" lon="4.73003">
        <ele>170</ele>
        <time>2017-08-23T10:44:01Z</time>
      </trkpt>
      <trkpt lat="45.92834" lon="4.72997">
        <ele>170</ele>
        <time>2017-08-23T10:44:02Z</time>
      </trkpt>
      <trkpt lat="45.92833" lon="4.72984">
        <ele>170</ele>
        <time>2017-08-23T10:44:04Z</time>
      </trkpt>
      <trkpt lat="45.92833" lon="4.72977">
        <ele>170</ele>
        <time>2017-08-23T10:44:05Z</time>
      </trkpt>
      <trkpt lat="45.92832" lon="4.7297">
        <ele>170</ele>
        <time>2017-08-23T10:44:06Z</time>
      </trkpt>
      <trkpt lat="45.92831" lon="4.72963">
        <ele>170</ele>
        <time>2017-08-23T10:44:07Z</time>
      </trkpt>
      <trkpt lat="45.9283" lon="4.72956">
        <ele>170</ele>
        <time>2017-08-23T10:44:08Z</time>
      </trkpt>
      <trkpt lat="45.92829" lon="4.72949">
        <ele>170</ele>
        <time>2017-08-23T10:44:09Z</time>
      </trkpt>
      <trkpt lat="45.92829" lon="4.72941">
        <ele>170</ele>
        <time>2017-08-23T10:44:10Z</time>
      </trkpt>
      <trkpt lat="45.92828" lon="4.72935">
        <ele>170</ele>
        <time>2017-08-23T10:44:11Z</time>
      </trkpt>
      <trkpt lat="45.92827" lon="4.72928">
        <ele>170</ele>
        <time>2017-08-23T10:44:12Z</time>
      </trkpt>
      <trkpt lat="45.92826" lon="4.72922">
        <ele>170</ele>
        <time>2017-08-23T10:44:13Z</time>
      </trkpt>
      <trkpt lat="45.92824" lon="4.7291">
        <ele>170</ele>
        <time>2017-08-23T10:44:15Z</time>
      </trkpt>
      <trkpt lat="45.92824" lon="4.72904">
        <ele>170</ele>
        <time>2017-08-23T10:44:16Z</time>
      </trkpt>
      <trkpt lat="45.92823" lon="4.72897">
        <ele>170</ele>
        <time>2017-08-23T10:44:17Z</time>
      </trkpt>
      <trkpt lat="45.92821" lon="4.7289">
        <ele>170</ele>
        <time>2017-08-23T10:44:18Z</time>
      </trkpt>
      <trkpt lat="45.9282" lon="4.72882">
        <ele>170</ele>
        <time>2017-08-23T10:44:19Z</time>
      </trkpt>
      <trkpt lat="45.92818" lon="4.72875">
        <ele>170</ele>
        <time>2017-08-23T10:44:20Z</time>
      </trkpt>
      <trkpt lat="45.92816" lon="4.72868">
        <ele>170</ele>
        <time>2017-08-23T10:44:21Z</time>
      </trkpt>
      <trkpt lat="45.92814" lon="4.72862">
        <ele>170</ele>
        <time>2017-08-23T10:44:22Z</time>
      </trkpt>
      <trkpt lat="45.92812" lon="4.72856">
        <ele>170</ele>
        <time>2017-08-23T10:44:23Z</time>
      </trkpt>
      <trkpt lat="45.92811" lon="4.7285">
        <ele>170</ele>
        <time>2017-08-23T10:44:24Z</time>
      </trkpt>
      <trkpt lat="45.92809" lon="4.72838">
        <ele>170</ele>
        <time>2017-08-23T10:44:26Z</time>
      </trkpt>
      <trkpt lat="45.92807" lon="4.72832">
        <ele>171</ele>
        <time>2017-08-23T10:44:27Z</time>
      </trkpt>
      <trkpt lat="45.92806" lon="4.72822">
        <ele>171</ele>
        <time>2017-08-23T10:44:29Z</time>
      </trkpt>
      <trkpt lat="45.92805" lon="4.72816">
        <ele>171</ele>
        <time>2017-08-23T10:44:30Z</time>
      </trkpt>
      <trkpt lat="45.92802" lon="4.72803">
        <ele>171</ele>
        <time>2017-08-23T10:44:32Z</time>
      </trkpt>
      <trkpt lat="45.92801" lon="4.72798">
        <ele>171</ele>
        <time>2017-08-23T10:44:33Z</time>
      </trkpt>
      <trkpt lat="45.92795" lon="4.72788">
        <ele>171</ele>
        <time>2017-08-23T10:44:36Z</time>
      </trkpt>
      <trkpt lat="45.92793" lon="4.72789">
        <ele>171</ele>
        <time>2017-08-23T10:44:37Z</time>
      </trkpt>
      <trkpt lat="45.92786" lon="4.72795">
        <ele>170</ele>
        <time>2017-08-23T10:44:39Z</time>
      </trkpt>
      <trkpt lat="45.92781" lon="4.72798">
        <ele>170</ele>
        <time>2017-08-23T10:44:40Z</time>
      </trkpt>
      <trkpt lat="45.92777" lon="4.72801">
        <ele>170</ele>
        <time>2017-08-23T10:44:41Z</time>
      </trkpt>
      <trkpt lat="45.92772" lon="4.72805">
        <ele>170</ele>
        <time>2017-08-23T10:44:42Z</time>
      </trkpt>
      <trkpt lat="45.92768" lon="4.72808">
        <ele>170</ele>
        <time>2017-08-23T10:44:43Z</time>
      </trkpt>
      <trkpt lat="45.92764" lon="4.72811">
        <ele>170</ele>
        <time>2017-08-23T10:44:44Z</time>
      </trkpt>
      <trkpt lat="45.92756" lon="4.72817">
        <ele>170</ele>
        <time>2017-08-23T10:44:46Z</time>
      </trkpt>
      <trkpt lat="45.92753" lon="4.7282">
        <ele>170</ele>
        <time>2017-08-23T10:44:47Z</time>
      </trkpt>
      <trkpt lat="45.92748" lon="4.72823">
        <ele>169</ele>
        <time>2017-08-23T10:44:48Z</time>
      </trkpt>
      <trkpt lat="45.92744" lon="4.72826">
        <ele>169</ele>
        <time>2017-08-23T10:44:49Z</time>
      </trkpt>
      <trkpt lat="45.9274" lon="4.72829">
        <ele>169</ele>
        <time>2017-08-23T10:44:50Z</time>
      </trkpt>
      <trkpt lat="45.92736" lon="4.72833">
        <ele>169</ele>
        <time>2017-08-23T10:44:51Z</time>
      </trkpt>
      <trkpt lat="45.92732" lon="4.72836">
        <ele>169</ele>
        <time>2017-08-23T10:44:52Z</time>
      </trkpt>
      <trkpt lat="45.92726" lon="4.72839">
        <ele>169</ele>
        <time>2017-08-23T10:44:53Z</time>
      </trkpt>
      <trkpt lat="45.92721" lon="4.72843">
        <ele>169</ele>
        <time>2017-08-23T10:44:54Z</time>
      </trkpt>
      <trkpt lat="45.92716" lon="4.72847">
        <ele>169</ele>
        <time>2017-08-23T10:44:55Z</time>
      </trkpt>
      <trkpt lat="45.92711" lon="4.72851">
        <ele>169</ele>
        <time>2017-08-23T10:44:56Z</time>
      </trkpt>
      <trkpt lat="45.92708" lon="4.72855">
        <ele>169</ele>
        <time>2017-08-23T10:44:57Z</time>
      </trkpt>
      <trkpt lat="45.92704" lon="4.72859">
        <ele>169</ele>
        <time>2017-08-23T10:44:58Z</time>
      </trkpt>
      <trkpt lat="45.927" lon="4.72862">
        <ele>169</ele>
        <time>2017-08-23T10:44:59Z</time>
      </trkpt>
      <trkpt lat="45.92696" lon="4.72866">
        <ele>169</ele>
        <time>2017-08-23T10:45:00Z</time>
      </trkpt>
      <trkpt lat="45.92692" lon="4.72869">
        <ele>169</ele>
        <time>2017-08-23T10:45:01Z</time>
      </trkpt>
      <trkpt lat="45.92685" lon="4.72876">
        <ele>170</ele>
        <time>2017-08-23T10:45:03Z</time>
      </trkpt>
      <trkpt lat="45.92682" lon="4.7288">
        <ele>170</ele>
        <time>2017-08-23T10:45:04Z</time>
      </trkpt>
      <trkpt lat="45.92678" lon="4.72883">
        <ele>170</ele>
        <time>2017-08-23T10:45:05Z</time>
      </trkpt>
      <trkpt lat="45.92674" lon="4.72886">
        <ele>170</ele>
        <time>2017-08-23T10:45:06Z</time>
      </trkpt>
      <trkpt lat="45.92669" lon="4.7289">
        <ele>170</ele>
        <time>2017-08-23T10:45:07Z</time>
      </trkpt>
      <trkpt lat="45.92665" lon="4.72894">
        <ele>170</ele>
        <time>2017-08-23T10:45:08Z</time>
      </trkpt>
      <trkpt lat="45.9266" lon="4.72899">
        <ele>170</ele>
        <time>2017-08-23T10:45:09Z</time>
      </trkpt>
      <trkpt lat="45.92655" lon="4.72902">
        <ele>170</ele>
        <time>2017-08-23T10:45:10Z</time>
      </trkpt>
      <trkpt lat="45.92651" lon="4.72906">
        <ele>170</ele>
        <time>2017-08-23T10:45:11Z</time>
      </trkpt>
      <trkpt lat="45.92647" lon="4.72909">
        <ele>170</ele>
        <time>2017-08-23T10:45:12Z</time>
      </trkpt>
      <trkpt lat="45.92642" lon="4.72912">
        <ele>170</ele>
        <time>2017-08-23T10:45:13Z</time>
      </trkpt>
      <trkpt lat="45.92638" lon="4.72915">
        <ele>169</ele>
        <time>2017-08-23T10:45:14Z</time>
      </trkpt>
      <trkpt lat="45.92631" lon="4.72921">
        <ele>170</ele>
        <time>2017-08-23T10:45:16Z</time>
      </trkpt>
      <trkpt lat="45.92627" lon="4.72924">
        <ele>170</ele>
        <time>2017-08-23T10:45:17Z</time>
      </trkpt>
      <trkpt lat="45.9262" lon="4.7293">
        <ele>169</ele>
        <time>2017-08-23T10:45:19Z</time>
      </trkpt>
      <trkpt lat="45.92616" lon="4.72934">
        <ele>169</ele>
        <time>2017-08-23T10:45:20Z</time>
      </trkpt>
      <trkpt lat="45.92612" lon="4.72938">
        <ele>169</ele>
        <time>2017-08-23T10:45:21Z</time>
      </trkpt>
      <trkpt lat="45.92607" lon="4.72943">
        <ele>169</ele>
        <time>2017-08-23T10:45:22Z</time>
      </trkpt>
      <trkpt lat="45.92603" lon="4.72947">
        <ele>169</ele>
        <time>2017-08-23T10:45:23Z</time>
      </trkpt>
      <trkpt lat="45.92598" lon="4.72952">
        <ele>169</ele>
        <time>2017-08-23T10:45:24Z</time>
      </trkpt>
      <trkpt lat="45.92594" lon="4.72956">
        <ele>169</ele>
        <time>2017-08-23T10:45:25Z</time>
      </trkpt>
      <trkpt lat="45.9259" lon="4.72962">
        <ele>169</ele>
        <time>2017-08-23T10:45:26Z</time>
      </trkpt>
      <trkpt lat="45.92586" lon="4.72966">
        <ele>169</ele>
        <time>2017-08-23T10:45:27Z</time>
      </trkpt>
      <trkpt lat="45.92582" lon="4.7297">
        <ele>169</ele>
        <time>2017-08-23T10:45:28Z</time>
      </trkpt>
      <trkpt lat="45.92578" lon="4.72974">
        <ele>169</ele>
        <time>2017-08-23T10:45:29Z</time>
      </trkpt>
      <trkpt lat="45.92574" lon="4.72978">
        <ele>169</ele>
        <time>2017-08-23T10:45:30Z</time>
      </trkpt>
      <trkpt lat="45.9257" lon="4.72982">
        <ele>169</ele>
        <time>2017-08-23T10:45:31Z</time>
      </trkpt>
      <trkpt lat="45.92566" lon="4.72985">
        <ele>169</ele>
        <time>2017-08-23T10:45:32Z</time>
      </trkpt>
      <trkpt lat="45.9256" lon="4.72993">
        <ele>169</ele>
        <time>2017-08-23T10:45:34Z</time>
      </trkpt>
      <trkpt lat="45.92556" lon="4.72997">
        <ele>169</ele>
        <time>2017-08-23T10:45:35Z</time>
      </trkpt>
      <trkpt lat="45.92553" lon="4.73002">
        <ele>169</ele>
        <time>2017-08-23T10:45:36Z</time>
      </trkpt>
      <trkpt lat="45.92548" lon="4.73006">
        <ele>169</ele>
        <time>2017-08-23T10:45:37Z</time>
      </trkpt>
      <trkpt lat="45.92544" lon="4.73011">
        <ele>169</ele>
        <time>2017-08-23T10:45:38Z</time>
      </trkpt>
      <trkpt lat="45.92539" lon="4.73014">
        <ele>169</ele>
        <time>2017-08-23T10:45:39Z</time>
      </trkpt>
      <trkpt lat="45.92534" lon="4.73018">
        <ele>169</ele>
        <time>2017-08-23T10:45:40Z</time>
      </trkpt>
      <trkpt lat="45.92529" lon="4.73022">
        <ele>169</ele>
        <time>2017-08-23T10:45:41Z</time>
      </trkpt>
      <trkpt lat="45.92525" lon="4.73027">
        <ele>169</ele>
        <time>2017-08-23T10:45:42Z</time>
      </trkpt>
      <trkpt lat="45.92521" lon="4.73031">
        <ele>169</ele>
        <time>2017-08-23T10:45:43Z</time>
      </trkpt>
      <trkpt lat="45.92517" lon="4.73034">
        <ele>169</ele>
        <time>2017-08-23T10:45:44Z</time>
      </trkpt>
      <trkpt lat="45.92513" lon="4.73037">
        <ele>169</ele>
        <time>2017-08-23T10:45:45Z</time>
      </trkpt>
      <trkpt lat="45.92507" lon="4.73044">
        <ele>170</ele>
        <time>2017-08-23T10:45:47Z</time>
      </trkpt>
      <trkpt lat="45.92504" lon="4.73047">
        <ele>170</ele>
        <time>2017-08-23T10:45:48Z</time>
      </trkpt>
      <trkpt lat="45.92497" lon="4.73052">
        <ele>170</ele>
        <time>2017-08-23T10:45:50Z</time>
      </trkpt>
      <trkpt lat="45.92494" lon="4.73056">
        <ele>170</ele>
        <time>2017-08-23T10:45:51Z</time>
      </trkpt>
      <trkpt lat="45.9249" lon="4.7306">
        <ele>170</ele>
        <time>2017-08-23T10:45:52Z</time>
      </trkpt>
      <trkpt lat="45.92485" lon="4.73063">
        <ele>170</ele>
        <time>2017-08-23T10:45:53Z</time>
      </trkpt>
      <trkpt lat="45.92481" lon="4.73067">
        <ele>170</ele>
        <time>2017-08-23T10:45:54Z</time>
      </trkpt>
      <trkpt lat="45.92476" lon="4.73071">
        <ele>170</ele>
        <time>2017-08-23T10:45:55Z</time>
      </trkpt>
      <trkpt lat="45.92472" lon="4.73075">
        <ele>170</ele>
        <time>2017-08-23T10:45:56Z</time>
      </trkpt>
      <trkpt lat="45.92467" lon="4.73079">
        <ele>170</ele>
        <time>2017-08-23T10:45:57Z</time>
      </trkpt>
      <trkpt lat="45.92463" lon="4.73083">
        <ele>170</ele>
        <time>2017-08-23T10:45:58Z</time>
      </trkpt>
      <trkpt lat="45.92459" lon="4.73086">
        <ele>170</ele>
        <time>2017-08-23T10:45:59Z</time>
      </trkpt>
      <trkpt lat="45.92452" lon="4.73092">
        <ele>170</ele>
        <time>2017-08-23T10:46:01Z</time>
      </trkpt>
      <trkpt lat="45.92449" lon="4.73095">
        <ele>170</ele>
        <time>2017-08-23T10:46:02Z</time>
      </trkpt>
      <trkpt lat="45.92441" lon="4.73102">
        <ele>170</ele>
        <time>2017-08-23T10:46:04Z</time>
      </trkpt>
      <trkpt lat="45.92438" lon="4.73105">
        <ele>170</ele>
        <time>2017-08-23T10:46:05Z</time>
      </trkpt>
      <trkpt lat="45.92433" lon="4.73108">
        <ele>170</ele>
        <time>2017-08-23T10:46:06Z</time>
      </trkpt>
      <trkpt lat="45.92429" lon="4.73111">
        <ele>170</ele>
        <time>2017-08-23T10:46:07Z</time>
      </trkpt>
      <trkpt lat="45.92421" lon="4.73117">
        <ele>170</ele>
        <time>2017-08-23T10:46:09Z</time>
      </trkpt>
      <trkpt lat="45.92417" lon="4.7312">
        <ele>170</ele>
        <time>2017-08-23T10:46:10Z</time>
      </trkpt>
      <trkpt lat="45.92412" lon="4.73128">
        <ele>171</ele>
        <time>2017-08-23T10:46:12Z</time>
      </trkpt>
      <trkpt lat="45.92411" lon="4.73133">
        <ele>171</ele>
        <time>2017-08-23T10:46:13Z</time>
      </trkpt>
      <trkpt lat="45.92411" lon="4.73146">
        <ele>171</ele>
        <time>2017-08-23T10:46:15Z</time>
      </trkpt>
      <trkpt lat="45.92411" lon="4.73152">
        <ele>170</ele>
        <time>2017-08-23T10:46:16Z</time>
      </trkpt>
      <trkpt lat="45.92412" lon="4.73159">
        <ele>170</ele>
        <time>2017-08-23T10:46:17Z</time>
      </trkpt>
      <trkpt lat="45.92412" lon="4.73166">
        <ele>170</ele>
        <time>2017-08-23T10:46:18Z</time>
      </trkpt>
      <trkpt lat="45.92413" lon="4.73173">
        <ele>170</ele>
        <time>2017-08-23T10:46:19Z</time>
      </trkpt>
      <trkpt lat="45.92414" lon="4.73182">
        <ele>171</ele>
        <time>2017-08-23T10:46:20Z</time>
      </trkpt>
      <trkpt lat="45.92414" lon="4.7319">
        <ele>171</ele>
        <time>2017-08-23T10:46:21Z</time>
      </trkpt>
      <trkpt lat="45.92415" lon="4.73198">
        <ele>171</ele>
        <time>2017-08-23T10:46:22Z</time>
      </trkpt>
      <trkpt lat="45.92415" lon="4.73205">
        <ele>171</ele>
        <time>2017-08-23T10:46:23Z</time>
      </trkpt>
      <trkpt lat="45.92416" lon="4.73213">
        <ele>171</ele>
        <time>2017-08-23T10:46:24Z</time>
      </trkpt>
      <trkpt lat="45.92416" lon="4.7322">
        <ele>171</ele>
        <time>2017-08-23T10:46:25Z</time>
      </trkpt>
      <trkpt lat="45.92416" lon="4.73227">
        <ele>171</ele>
        <time>2017-08-23T10:46:26Z</time>
      </trkpt>
      <trkpt lat="45.92417" lon="4.73239">
        <ele>171</ele>
        <time>2017-08-23T10:46:28Z</time>
      </trkpt>
      <trkpt lat="45.92417" lon="4.73246">
        <ele>171</ele>
        <time>2017-08-23T10:46:29Z</time>
      </trkpt>
      <trkpt lat="45.92417" lon="4.73252">
        <ele>171</ele>
        <time>2017-08-23T10:46:30Z</time>
      </trkpt>
      <trkpt lat="45.92418" lon="4.7326">
        <ele>171</ele>
        <time>2017-08-23T10:46:31Z</time>
      </trkpt>
      <trkpt lat="45.92419" lon="4.73267">
        <ele>171</ele>
        <time>2017-08-23T10:46:32Z</time>
      </trkpt>
      <trkpt lat="45.92419" lon="4.73274">
        <ele>171</ele>
        <time>2017-08-23T10:46:33Z</time>
      </trkpt>
      <trkpt lat="45.9242" lon="4.73282">
        <ele>171</ele>
        <time>2017-08-23T10:46:34Z</time>
      </trkpt>
      <trkpt lat="45.9242" lon="4.7329">
        <ele>171</ele>
        <time>2017-08-23T10:46:35Z</time>
      </trkpt>
      <trkpt lat="45.92421" lon="4.73299">
        <ele>171</ele>
        <time>2017-08-23T10:46:36Z</time>
      </trkpt>
      <trkpt lat="45.92421" lon="4.73307">
        <ele>171</ele>
        <time>2017-08-23T10:46:37Z</time>
      </trkpt>
      <trkpt lat="45.92421" lon="4.73319">
        <ele>171</ele>
        <time>2017-08-23T10:46:39Z</time>
      </trkpt>
      <trkpt lat="45.92422" lon="4.73326">
        <ele>171</ele>
        <time>2017-08-23T10:46:40Z</time>
      </trkpt>
      <trkpt lat="45.92423" lon="4.73338">
        <ele>171</ele>
        <time>2017-08-23T10:46:42Z</time>
      </trkpt>
      <trkpt lat="45.92423" lon="4.73344">
        <ele>171</ele>
        <time>2017-08-23T10:46:43Z</time>
      </trkpt>
      <trkpt lat="45.92425" lon="4.73355">
        <ele>171</ele>
        <time>2017-08-23T10:46:45Z</time>
      </trkpt>
      <trkpt lat="45.92426" lon="4.73361">
        <ele>172</ele>
        <time>2017-08-23T10:46:46Z</time>
      </trkpt>
      <trkpt lat="45.92427" lon="4.73367">
        <ele>172</ele>
        <time>2017-08-23T10:46:47Z</time>
      </trkpt>
      <trkpt lat="45.92428" lon="4.73373">
        <ele>172</ele>
        <time>2017-08-23T10:46:48Z</time>
      </trkpt>
      <trkpt lat="45.92428" lon="4.7338">
        <ele>172</ele>
        <time>2017-08-23T10:46:49Z</time>
      </trkpt>
      <trkpt lat="45.92429" lon="4.73388">
        <ele>172</ele>
        <time>2017-08-23T10:46:50Z</time>
      </trkpt>
      <trkpt lat="45.9243" lon="4.73395">
        <ele>172</ele>
        <time>2017-08-23T10:46:51Z</time>
      </trkpt>
      <trkpt lat="45.92432" lon="4.73402">
        <ele>172</ele>
        <time>2017-08-23T10:46:52Z</time>
      </trkpt>
      <trkpt lat="45.92434" lon="4.73408">
        <ele>172</ele>
        <time>2017-08-23T10:46:53Z</time>
      </trkpt>
      <trkpt lat="45.92437" lon="4.73414">
        <ele>172</ele>
        <time>2017-08-23T10:46:54Z</time>
      </trkpt>
      <trkpt lat="45.92443" lon="4.73421">
        <ele>173</ele>
        <time>2017-08-23T10:46:56Z</time>
      </trkpt>
      <trkpt lat="45.92447" lon="4.73423">
        <ele>173</ele>
        <time>2017-08-23T10:46:57Z</time>
      </trkpt>
      <trkpt lat="45.92452" lon="4.73427">
        <ele>173</ele>
        <time>2017-08-23T10:46:59Z</time>
      </trkpt>
      <trkpt lat="45.92455" lon="4.73429">
        <ele>173</ele>
        <time>2017-08-23T10:47:00Z</time>
      </trkpt>
      <trkpt lat="45.92461" lon="4.73436">
        <ele>173</ele>
        <time>2017-08-23T10:47:02Z</time>
      </trkpt>
      <trkpt lat="45.92464" lon="4.7344">
        <ele>173</ele>
        <time>2017-08-23T10:47:03Z</time>
      </trkpt>
      <trkpt lat="45.92467" lon="4.73447">
        <ele>173</ele>
        <time>2017-08-23T10:47:04Z</time>
      </trkpt>
      <trkpt lat="45.92469" lon="4.73453">
        <ele>173</ele>
        <time>2017-08-23T10:47:05Z</time>
      </trkpt>
      <trkpt lat="45.9247" lon="4.7346">
        <ele>173</ele>
        <time>2017-08-23T10:47:06Z</time>
      </trkpt>
      <trkpt lat="45.92471" lon="4.73466">
        <ele>173</ele>
        <time>2017-08-23T10:47:07Z</time>
      </trkpt>
      <trkpt lat="45.92471" lon="4.73478">
        <ele>173</ele>
        <time>2017-08-23T10:47:09Z</time>
      </trkpt>
      <trkpt lat="45.92471" lon="4.73483">
        <ele>173</ele>
        <time>2017-08-23T10:47:10Z</time>
      </trkpt>
      <trkpt lat="45.9247" lon="4.73492">
        <ele>173</ele>
        <time>2017-08-23T10:47:12Z</time>
      </trkpt>
      <trkpt lat="45.92469" lon="4.73498">
        <ele>173</ele>
        <time>2017-08-23T10:47:13Z</time>
      </trkpt>
      <trkpt lat="45.92469" lon="4.73511">
        <ele>174</ele>
        <time>2017-08-23T10:47:15Z</time>
      </trkpt>
      <trkpt lat="45.92469" lon="4.73518">
        <ele>174</ele>
        <time>2017-08-23T10:47:16Z</time>
      </trkpt>
      <trkpt lat="45.92469" lon="4.73525">
        <ele>174</ele>
        <time>2017-08-23T10:47:17Z</time>
      </trkpt>
      <trkpt lat="45.92469" lon="4.73532">
        <ele>174</ele>
        <time>2017-08-23T10:47:18Z</time>
      </trkpt>
      <trkpt lat="45.92469" lon="4.73544">
        <ele>173</ele>
        <time>2017-08-23T10:47:20Z</time>
      </trkpt>
      <trkpt lat="45.92469" lon="4.7355">
        <ele>173</ele>
        <time>2017-08-23T10:47:21Z</time>
      </trkpt>
      <trkpt lat="45.92469" lon="4.73562">
        <ele>173</ele>
        <time>2017-08-23T10:47:23Z</time>
      </trkpt>
      <trkpt lat="45.92469" lon="4.73568">
        <ele>173</ele>
        <time>2017-08-23T10:47:24Z</time>
      </trkpt>
      <trkpt lat="45.92469" lon="4.73574">
        <ele>173</ele>
        <time>2017-08-23T10:47:25Z</time>
      </trkpt>
      <trkpt lat="45.92469" lon="4.73581">
        <ele>173</ele>
        <time>2017-08-23T10:47:26Z</time>
      </trkpt>
      <trkpt lat="45.92469" lon="4.73594">
        <ele>174</ele>
        <time>2017-08-23T10:47:28Z</time>
      </trkpt>
      <trkpt lat="45.92469" lon="4.73599">
        <ele>174</ele>
        <time>2017-08-23T10:47:29Z</time>
      </trkpt>
      <trkpt lat="45.92469" lon="4.73611">
        <ele>174</ele>
        <time>2017-08-23T10:47:31Z</time>
      </trkpt>
      <trkpt lat="45.92468" lon="4.73617">
        <ele>174</ele>
        <time>2017-08-23T10:47:32Z</time>
      </trkpt>
      <trkpt lat="45.92467" lon="4.73629">
        <ele>174</ele>
        <time>2017-08-23T10:47:34Z</time>
      </trkpt>
      <trkpt lat="45.92467" lon="4.73635">
        <ele>174</ele>
        <time>2017-08-23T10:47:35Z</time>
      </trkpt>
      <trkpt lat="45.92466" lon="4.73646">
        <ele>174</ele>
        <time>2017-08-23T10:47:37Z</time>
      </trkpt>
      <trkpt lat="45.92466" lon="4.73652">
        <ele>174</ele>
        <time>2017-08-23T10:47:38Z</time>
      </trkpt>
      <trkpt lat="45.92466" lon="4.7366">
        <ele>174</ele>
        <time>2017-08-23T10:47:39Z</time>
      </trkpt>
      <trkpt lat="45.92467" lon="4.73667">
        <ele>174</ele>
        <time>2017-08-23T10:47:40Z</time>
      </trkpt>
      <trkpt lat="45.92468" lon="4.73677">
        <ele>174</ele>
        <time>2017-08-23T10:47:42Z</time>
      </trkpt>
      <trkpt lat="45.92467" lon="4.7368">
        <ele>174</ele>
        <time>2017-08-23T10:47:43Z</time>
      </trkpt>
      <trkpt lat="45.92465" lon="4.73692">
        <ele>174</ele>
        <time>2017-08-23T10:47:46Z</time>
      </trkpt>
      <trkpt lat="45.92465" lon="4.73696">
        <ele>174</ele>
        <time>2017-08-23T10:47:47Z</time>
      </trkpt>
      <trkpt lat="45.92465" lon="4.73707">
        <ele>174</ele>
        <time>2017-08-23T10:47:50Z</time>
      </trkpt>
      <trkpt lat="45.92465" lon="4.73708">
        <ele>174</ele>
        <time>2017-08-23T10:47:51Z</time>
      </trkpt>
      <trkpt lat="45.92461" lon="4.73714">
        <ele>174</ele>
        <time>2017-08-23T10:48:16.059Z</time>
      </trkpt>
    </trkseg>
  </trk>
</gpx>